<?xml version="1.0" encoding="UTF-8" standalone="no" ?>
<gpx xmlns="http://www.topografix.com/GPX/1/1" xmlns:xsi="http://www.w3.org/2001/XMLSchema-instance" xsi:schemaLocation="http://www.topografix.com/GPX/1/1 http://www.topografix.com/GPX/1/1/gpx.xsd" version="1.1" creator="VisuGPX - https://www.visugpx.com">
  <metadata>
    <name>2017-04-27 Bike ride-Chatillon-Limas</name>
    <desc><![CDATA[2017-04-27 Bike ride-Chatillon-Limas]]></desc>
  </metadata>
  <wpt lat="45.92449" lon="4.73705">
    <ele>174</ele>
    <name><![CDATA[2017-04-27 10:21 (Start)]]></name>
  </wpt>
  <wpt lat="45.92459" lon="4.73712">
    <ele>174</ele>
    <name><![CDATA[2017-04-27 10:21 (End)]]></name>
    <desc><![CDATA[Created by Google My Tracks on Android  Name: 2017-04-27 10:21 Activity type: biking Description: - Total distance: 38.69 km (24.0 mi) Total time: 2:04:11 Moving time: 2:00:05 Average speed: 18.69 km/h (11.6 mi/h) Average moving speed: 19.33 km/h (12.0 mi/h) Max speed: 39.87 km/h (24.8 mi/h) Average pace: 3:13 min/km (5:10 min/mi) Average moving pace: 3:06 min/km (4:60 min/mi) Fastest pace: 1:30 min/km (2:25 min/mi) Max elevation: 426 m (1399 ft) Min elevation: 168 m (551 ft) Elevation gain: 643 m (2110 ft) Max grade: 149 % Min grade: -8 % Recorded: 27/04/2017 10:21]]></desc>
  </wpt>
  <trk>
    <name><![CDATA[2017-04-27 10:21]]></name>
    <trkseg>
      <trkpt lat="45.92449" lon="4.73705">
        <ele>174</ele>
        <time>2017-04-27T08:21:51.96Z</time>
      </trkpt>
      <trkpt lat="45.92458" lon="4.73707">
        <ele>174</ele>
        <time>2017-04-27T08:22:58Z</time>
      </trkpt>
      <trkpt lat="45.92459" lon="4.73706">
        <ele>174</ele>
        <time>2017-04-27T08:22:59Z</time>
      </trkpt>
      <trkpt lat="45.9246" lon="4.73694">
        <ele>174</ele>
        <time>2017-04-27T08:23:04Z</time>
      </trkpt>
      <trkpt lat="45.92461" lon="4.73692">
        <ele>174</ele>
        <time>2017-04-27T08:23:05Z</time>
      </trkpt>
      <trkpt lat="45.92463" lon="4.73681">
        <ele>174</ele>
        <time>2017-04-27T08:23:11Z</time>
      </trkpt>
      <trkpt lat="45.92463" lon="4.73678">
        <ele>174</ele>
        <time>2017-04-27T08:23:12Z</time>
      </trkpt>
      <trkpt lat="45.92466" lon="4.73666">
        <ele>174</ele>
        <time>2017-04-27T08:23:15Z</time>
      </trkpt>
      <trkpt lat="45.92467" lon="4.73661">
        <ele>174</ele>
        <time>2017-04-27T08:23:16Z</time>
      </trkpt>
      <trkpt lat="45.92467" lon="4.73652">
        <ele>174</ele>
        <time>2017-04-27T08:23:18Z</time>
      </trkpt>
      <trkpt lat="45.92469" lon="4.73647">
        <ele>174</ele>
        <time>2017-04-27T08:23:19Z</time>
      </trkpt>
      <trkpt lat="45.9247" lon="4.73636">
        <ele>174</ele>
        <time>2017-04-27T08:23:21Z</time>
      </trkpt>
      <trkpt lat="45.92471" lon="4.7363">
        <ele>174</ele>
        <time>2017-04-27T08:23:22Z</time>
      </trkpt>
      <trkpt lat="45.92471" lon="4.73618">
        <ele>174</ele>
        <time>2017-04-27T08:23:24Z</time>
      </trkpt>
      <trkpt lat="45.9247" lon="4.73611">
        <ele>174</ele>
        <time>2017-04-27T08:23:25Z</time>
      </trkpt>
      <trkpt lat="45.9247" lon="4.73604">
        <ele>174</ele>
        <time>2017-04-27T08:23:26Z</time>
      </trkpt>
      <trkpt lat="45.92469" lon="4.73598">
        <ele>174</ele>
        <time>2017-04-27T08:23:27Z</time>
      </trkpt>
      <trkpt lat="45.92467" lon="4.73585">
        <ele>174</ele>
        <time>2017-04-27T08:23:29Z</time>
      </trkpt>
      <trkpt lat="45.92466" lon="4.73579">
        <ele>173</ele>
        <time>2017-04-27T08:23:30Z</time>
      </trkpt>
      <trkpt lat="45.92466" lon="4.73567">
        <ele>173</ele>
        <time>2017-04-27T08:23:32Z</time>
      </trkpt>
      <trkpt lat="45.92466" lon="4.73561">
        <ele>173</ele>
        <time>2017-04-27T08:23:33Z</time>
      </trkpt>
      <trkpt lat="45.92466" lon="4.7355">
        <ele>173</ele>
        <time>2017-04-27T08:23:35Z</time>
      </trkpt>
      <trkpt lat="45.92464" lon="4.73546">
        <ele>173</ele>
        <time>2017-04-27T08:23:36Z</time>
      </trkpt>
      <trkpt lat="45.92458" lon="4.73541">
        <ele>173</ele>
        <time>2017-04-27T08:23:38Z</time>
      </trkpt>
      <trkpt lat="45.92454" lon="4.73541">
        <ele>173</ele>
        <time>2017-04-27T08:23:39Z</time>
      </trkpt>
      <trkpt lat="45.92449" lon="4.73541">
        <ele>173</ele>
        <time>2017-04-27T08:23:40Z</time>
      </trkpt>
      <trkpt lat="45.92445" lon="4.73543">
        <ele>174</ele>
        <time>2017-04-27T08:23:41Z</time>
      </trkpt>
      <trkpt lat="45.92436" lon="4.73547">
        <ele>174</ele>
        <time>2017-04-27T08:23:43Z</time>
      </trkpt>
      <trkpt lat="45.92432" lon="4.73549">
        <ele>174</ele>
        <time>2017-04-27T08:23:44Z</time>
      </trkpt>
      <trkpt lat="45.92427" lon="4.73551">
        <ele>174</ele>
        <time>2017-04-27T08:23:45Z</time>
      </trkpt>
      <trkpt lat="45.92423" lon="4.73553">
        <ele>174</ele>
        <time>2017-04-27T08:23:46Z</time>
      </trkpt>
      <trkpt lat="45.92418" lon="4.73556">
        <ele>174</ele>
        <time>2017-04-27T08:23:47Z</time>
      </trkpt>
      <trkpt lat="45.92414" lon="4.73559">
        <ele>173</ele>
        <time>2017-04-27T08:23:48Z</time>
      </trkpt>
      <trkpt lat="45.92409" lon="4.73561">
        <ele>173</ele>
        <time>2017-04-27T08:23:49Z</time>
      </trkpt>
      <trkpt lat="45.92405" lon="4.73563">
        <ele>173</ele>
        <time>2017-04-27T08:23:50Z</time>
      </trkpt>
      <trkpt lat="45.92401" lon="4.73566">
        <ele>173</ele>
        <time>2017-04-27T08:23:51Z</time>
      </trkpt>
      <trkpt lat="45.92397" lon="4.73569">
        <ele>173</ele>
        <time>2017-04-27T08:23:52Z</time>
      </trkpt>
      <trkpt lat="45.92392" lon="4.73572">
        <ele>173</ele>
        <time>2017-04-27T08:23:53Z</time>
      </trkpt>
      <trkpt lat="45.92388" lon="4.73575">
        <ele>173</ele>
        <time>2017-04-27T08:23:54Z</time>
      </trkpt>
      <trkpt lat="45.92383" lon="4.73578">
        <ele>173</ele>
        <time>2017-04-27T08:23:55Z</time>
      </trkpt>
      <trkpt lat="45.92378" lon="4.73581">
        <ele>173</ele>
        <time>2017-04-27T08:23:56Z</time>
      </trkpt>
      <trkpt lat="45.92373" lon="4.73584">
        <ele>173</ele>
        <time>2017-04-27T08:23:57Z</time>
      </trkpt>
      <trkpt lat="45.92368" lon="4.73586">
        <ele>173</ele>
        <time>2017-04-27T08:23:58Z</time>
      </trkpt>
      <trkpt lat="45.92363" lon="4.73589">
        <ele>173</ele>
        <time>2017-04-27T08:23:59Z</time>
      </trkpt>
      <trkpt lat="45.92358" lon="4.73592">
        <ele>173</ele>
        <time>2017-04-27T08:24:00Z</time>
      </trkpt>
      <trkpt lat="45.92354" lon="4.73594">
        <ele>173</ele>
        <time>2017-04-27T08:24:01Z</time>
      </trkpt>
      <trkpt lat="45.92349" lon="4.73597">
        <ele>173</ele>
        <time>2017-04-27T08:24:02Z</time>
      </trkpt>
      <trkpt lat="45.92344" lon="4.73599">
        <ele>173</ele>
        <time>2017-04-27T08:24:03Z</time>
      </trkpt>
      <trkpt lat="45.92339" lon="4.73602">
        <ele>173</ele>
        <time>2017-04-27T08:24:04Z</time>
      </trkpt>
      <trkpt lat="45.92334" lon="4.73604">
        <ele>173</ele>
        <time>2017-04-27T08:24:05Z</time>
      </trkpt>
      <trkpt lat="45.92329" lon="4.73606">
        <ele>172</ele>
        <time>2017-04-27T08:24:06Z</time>
      </trkpt>
      <trkpt lat="45.92324" lon="4.73609">
        <ele>172</ele>
        <time>2017-04-27T08:24:07Z</time>
      </trkpt>
      <trkpt lat="45.92319" lon="4.73611">
        <ele>172</ele>
        <time>2017-04-27T08:24:08Z</time>
      </trkpt>
      <trkpt lat="45.92314" lon="4.73614">
        <ele>172</ele>
        <time>2017-04-27T08:24:09Z</time>
      </trkpt>
      <trkpt lat="45.92308" lon="4.73617">
        <ele>172</ele>
        <time>2017-04-27T08:24:10Z</time>
      </trkpt>
      <trkpt lat="45.92303" lon="4.73621">
        <ele>172</ele>
        <time>2017-04-27T08:24:11Z</time>
      </trkpt>
      <trkpt lat="45.92298" lon="4.73624">
        <ele>172</ele>
        <time>2017-04-27T08:24:12Z</time>
      </trkpt>
      <trkpt lat="45.92293" lon="4.73627">
        <ele>172</ele>
        <time>2017-04-27T08:24:13Z</time>
      </trkpt>
      <trkpt lat="45.92287" lon="4.73629">
        <ele>172</ele>
        <time>2017-04-27T08:24:14Z</time>
      </trkpt>
      <trkpt lat="45.92282" lon="4.73632">
        <ele>172</ele>
        <time>2017-04-27T08:24:15Z</time>
      </trkpt>
      <trkpt lat="45.92277" lon="4.73636">
        <ele>172</ele>
        <time>2017-04-27T08:24:16Z</time>
      </trkpt>
      <trkpt lat="45.92271" lon="4.73639">
        <ele>172</ele>
        <time>2017-04-27T08:24:17Z</time>
      </trkpt>
      <trkpt lat="45.92266" lon="4.73643">
        <ele>172</ele>
        <time>2017-04-27T08:24:18Z</time>
      </trkpt>
      <trkpt lat="45.92261" lon="4.73646">
        <ele>171</ele>
        <time>2017-04-27T08:24:19Z</time>
      </trkpt>
      <trkpt lat="45.92255" lon="4.73649">
        <ele>171</ele>
        <time>2017-04-27T08:24:20Z</time>
      </trkpt>
      <trkpt lat="45.9225" lon="4.73652">
        <ele>171</ele>
        <time>2017-04-27T08:24:21Z</time>
      </trkpt>
      <trkpt lat="45.92245" lon="4.73656">
        <ele>171</ele>
        <time>2017-04-27T08:24:22Z</time>
      </trkpt>
      <trkpt lat="45.92239" lon="4.73658">
        <ele>171</ele>
        <time>2017-04-27T08:24:23Z</time>
      </trkpt>
      <trkpt lat="45.92233" lon="4.73661">
        <ele>171</ele>
        <time>2017-04-27T08:24:24Z</time>
      </trkpt>
      <trkpt lat="45.92228" lon="4.73664">
        <ele>171</ele>
        <time>2017-04-27T08:24:25Z</time>
      </trkpt>
      <trkpt lat="45.92222" lon="4.73666">
        <ele>171</ele>
        <time>2017-04-27T08:24:26Z</time>
      </trkpt>
      <trkpt lat="45.92216" lon="4.73669">
        <ele>171</ele>
        <time>2017-04-27T08:24:27Z</time>
      </trkpt>
      <trkpt lat="45.92211" lon="4.73672">
        <ele>171</ele>
        <time>2017-04-27T08:24:28Z</time>
      </trkpt>
      <trkpt lat="45.92205" lon="4.73675">
        <ele>171</ele>
        <time>2017-04-27T08:24:29Z</time>
      </trkpt>
      <trkpt lat="45.922" lon="4.73678">
        <ele>171</ele>
        <time>2017-04-27T08:24:30Z</time>
      </trkpt>
      <trkpt lat="45.92194" lon="4.73682">
        <ele>171</ele>
        <time>2017-04-27T08:24:31Z</time>
      </trkpt>
      <trkpt lat="45.92189" lon="4.73685">
        <ele>171</ele>
        <time>2017-04-27T08:24:32Z</time>
      </trkpt>
      <trkpt lat="45.92183" lon="4.73688">
        <ele>171</ele>
        <time>2017-04-27T08:24:33Z</time>
      </trkpt>
      <trkpt lat="45.92178" lon="4.73691">
        <ele>171</ele>
        <time>2017-04-27T08:24:34Z</time>
      </trkpt>
      <trkpt lat="45.92172" lon="4.73694">
        <ele>171</ele>
        <time>2017-04-27T08:24:35Z</time>
      </trkpt>
      <trkpt lat="45.92167" lon="4.73697">
        <ele>171</ele>
        <time>2017-04-27T08:24:36Z</time>
      </trkpt>
      <trkpt lat="45.92161" lon="4.737">
        <ele>171</ele>
        <time>2017-04-27T08:24:37Z</time>
      </trkpt>
      <trkpt lat="45.92155" lon="4.73702">
        <ele>171</ele>
        <time>2017-04-27T08:24:38Z</time>
      </trkpt>
      <trkpt lat="45.9215" lon="4.73705">
        <ele>171</ele>
        <time>2017-04-27T08:24:39Z</time>
      </trkpt>
      <trkpt lat="45.92144" lon="4.73707">
        <ele>171</ele>
        <time>2017-04-27T08:24:40Z</time>
      </trkpt>
      <trkpt lat="45.92138" lon="4.73709">
        <ele>171</ele>
        <time>2017-04-27T08:24:41Z</time>
      </trkpt>
      <trkpt lat="45.92132" lon="4.73712">
        <ele>171</ele>
        <time>2017-04-27T08:24:42Z</time>
      </trkpt>
      <trkpt lat="45.92126" lon="4.73714">
        <ele>171</ele>
        <time>2017-04-27T08:24:43Z</time>
      </trkpt>
      <trkpt lat="45.9212" lon="4.73716">
        <ele>171</ele>
        <time>2017-04-27T08:24:44Z</time>
      </trkpt>
      <trkpt lat="45.92114" lon="4.73717">
        <ele>171</ele>
        <time>2017-04-27T08:24:45Z</time>
      </trkpt>
      <trkpt lat="45.92108" lon="4.73719">
        <ele>171</ele>
        <time>2017-04-27T08:24:46Z</time>
      </trkpt>
      <trkpt lat="45.92102" lon="4.73721">
        <ele>171</ele>
        <time>2017-04-27T08:24:47Z</time>
      </trkpt>
      <trkpt lat="45.92096" lon="4.73722">
        <ele>171</ele>
        <time>2017-04-27T08:24:48Z</time>
      </trkpt>
      <trkpt lat="45.92089" lon="4.73722">
        <ele>171</ele>
        <time>2017-04-27T08:24:49Z</time>
      </trkpt>
      <trkpt lat="45.92083" lon="4.73723">
        <ele>171</ele>
        <time>2017-04-27T08:24:50Z</time>
      </trkpt>
      <trkpt lat="45.92077" lon="4.73724">
        <ele>171</ele>
        <time>2017-04-27T08:24:51Z</time>
      </trkpt>
      <trkpt lat="45.9207" lon="4.73725">
        <ele>171</ele>
        <time>2017-04-27T08:24:52Z</time>
      </trkpt>
      <trkpt lat="45.92064" lon="4.73725">
        <ele>171</ele>
        <time>2017-04-27T08:24:53Z</time>
      </trkpt>
      <trkpt lat="45.92057" lon="4.73726">
        <ele>171</ele>
        <time>2017-04-27T08:24:54Z</time>
      </trkpt>
      <trkpt lat="45.92051" lon="4.73726">
        <ele>171</ele>
        <time>2017-04-27T08:24:55Z</time>
      </trkpt>
      <trkpt lat="45.92045" lon="4.73726">
        <ele>171</ele>
        <time>2017-04-27T08:24:56Z</time>
      </trkpt>
      <trkpt lat="45.92039" lon="4.73726">
        <ele>171</ele>
        <time>2017-04-27T08:24:57Z</time>
      </trkpt>
      <trkpt lat="45.92033" lon="4.73726">
        <ele>171</ele>
        <time>2017-04-27T08:24:58Z</time>
      </trkpt>
      <trkpt lat="45.92026" lon="4.73726">
        <ele>171</ele>
        <time>2017-04-27T08:24:59Z</time>
      </trkpt>
      <trkpt lat="45.9202" lon="4.73727">
        <ele>171</ele>
        <time>2017-04-27T08:25:00Z</time>
      </trkpt>
      <trkpt lat="45.92014" lon="4.73727">
        <ele>171</ele>
        <time>2017-04-27T08:25:01Z</time>
      </trkpt>
      <trkpt lat="45.92007" lon="4.73726">
        <ele>171</ele>
        <time>2017-04-27T08:25:02Z</time>
      </trkpt>
      <trkpt lat="45.92001" lon="4.73726">
        <ele>171</ele>
        <time>2017-04-27T08:25:03Z</time>
      </trkpt>
      <trkpt lat="45.91995" lon="4.73726">
        <ele>171</ele>
        <time>2017-04-27T08:25:04Z</time>
      </trkpt>
      <trkpt lat="45.91989" lon="4.73726">
        <ele>171</ele>
        <time>2017-04-27T08:25:05Z</time>
      </trkpt>
      <trkpt lat="45.91982" lon="4.73727">
        <ele>171</ele>
        <time>2017-04-27T08:25:06Z</time>
      </trkpt>
      <trkpt lat="45.91976" lon="4.73727">
        <ele>171</ele>
        <time>2017-04-27T08:25:07Z</time>
      </trkpt>
      <trkpt lat="45.9197" lon="4.73727">
        <ele>171</ele>
        <time>2017-04-27T08:25:08Z</time>
      </trkpt>
      <trkpt lat="45.91963" lon="4.73727">
        <ele>171</ele>
        <time>2017-04-27T08:25:09Z</time>
      </trkpt>
      <trkpt lat="45.91956" lon="4.73727">
        <ele>170</ele>
        <time>2017-04-27T08:25:10Z</time>
      </trkpt>
      <trkpt lat="45.9195" lon="4.73727">
        <ele>170</ele>
        <time>2017-04-27T08:25:11Z</time>
      </trkpt>
      <trkpt lat="45.91943" lon="4.73727">
        <ele>170</ele>
        <time>2017-04-27T08:25:12Z</time>
      </trkpt>
      <trkpt lat="45.91936" lon="4.73727">
        <ele>170</ele>
        <time>2017-04-27T08:25:13Z</time>
      </trkpt>
      <trkpt lat="45.9193" lon="4.73727">
        <ele>170</ele>
        <time>2017-04-27T08:25:14Z</time>
      </trkpt>
      <trkpt lat="45.91923" lon="4.73727">
        <ele>170</ele>
        <time>2017-04-27T08:25:15Z</time>
      </trkpt>
      <trkpt lat="45.91917" lon="4.73727">
        <ele>171</ele>
        <time>2017-04-27T08:25:16Z</time>
      </trkpt>
      <trkpt lat="45.9191" lon="4.73727">
        <ele>171</ele>
        <time>2017-04-27T08:25:17Z</time>
      </trkpt>
      <trkpt lat="45.91903" lon="4.73727">
        <ele>171</ele>
        <time>2017-04-27T08:25:18Z</time>
      </trkpt>
      <trkpt lat="45.91896" lon="4.73727">
        <ele>171</ele>
        <time>2017-04-27T08:25:19Z</time>
      </trkpt>
      <trkpt lat="45.9189" lon="4.73727">
        <ele>171</ele>
        <time>2017-04-27T08:25:20Z</time>
      </trkpt>
      <trkpt lat="45.91883" lon="4.73727">
        <ele>171</ele>
        <time>2017-04-27T08:25:21Z</time>
      </trkpt>
      <trkpt lat="45.91877" lon="4.73726">
        <ele>171</ele>
        <time>2017-04-27T08:25:22Z</time>
      </trkpt>
      <trkpt lat="45.9187" lon="4.73726">
        <ele>171</ele>
        <time>2017-04-27T08:25:23Z</time>
      </trkpt>
      <trkpt lat="45.91864" lon="4.73727">
        <ele>171</ele>
        <time>2017-04-27T08:25:24Z</time>
      </trkpt>
      <trkpt lat="45.91857" lon="4.73727">
        <ele>171</ele>
        <time>2017-04-27T08:25:25Z</time>
      </trkpt>
      <trkpt lat="45.9185" lon="4.73728">
        <ele>171</ele>
        <time>2017-04-27T08:25:26Z</time>
      </trkpt>
      <trkpt lat="45.91844" lon="4.73728">
        <ele>172</ele>
        <time>2017-04-27T08:25:27Z</time>
      </trkpt>
      <trkpt lat="45.91837" lon="4.73728">
        <ele>172</ele>
        <time>2017-04-27T08:25:28Z</time>
      </trkpt>
      <trkpt lat="45.91831" lon="4.73729">
        <ele>172</ele>
        <time>2017-04-27T08:25:29Z</time>
      </trkpt>
      <trkpt lat="45.91824" lon="4.73729">
        <ele>172</ele>
        <time>2017-04-27T08:25:30Z</time>
      </trkpt>
      <trkpt lat="45.91818" lon="4.73729">
        <ele>172</ele>
        <time>2017-04-27T08:25:31Z</time>
      </trkpt>
      <trkpt lat="45.91811" lon="4.73729">
        <ele>172</ele>
        <time>2017-04-27T08:25:32Z</time>
      </trkpt>
      <trkpt lat="45.91805" lon="4.73729">
        <ele>172</ele>
        <time>2017-04-27T08:25:33Z</time>
      </trkpt>
      <trkpt lat="45.91798" lon="4.73729">
        <ele>172</ele>
        <time>2017-04-27T08:25:34Z</time>
      </trkpt>
      <trkpt lat="45.91792" lon="4.7373">
        <ele>172</ele>
        <time>2017-04-27T08:25:35Z</time>
      </trkpt>
      <trkpt lat="45.91786" lon="4.7373">
        <ele>173</ele>
        <time>2017-04-27T08:25:36Z</time>
      </trkpt>
      <trkpt lat="45.9178" lon="4.7373">
        <ele>173</ele>
        <time>2017-04-27T08:25:37Z</time>
      </trkpt>
      <trkpt lat="45.91773" lon="4.7373">
        <ele>173</ele>
        <time>2017-04-27T08:25:38Z</time>
      </trkpt>
      <trkpt lat="45.91767" lon="4.7373">
        <ele>173</ele>
        <time>2017-04-27T08:25:39Z</time>
      </trkpt>
      <trkpt lat="45.9176" lon="4.73731">
        <ele>173</ele>
        <time>2017-04-27T08:25:40Z</time>
      </trkpt>
      <trkpt lat="45.91754" lon="4.73731">
        <ele>173</ele>
        <time>2017-04-27T08:25:41Z</time>
      </trkpt>
      <trkpt lat="45.91748" lon="4.73731">
        <ele>173</ele>
        <time>2017-04-27T08:25:42Z</time>
      </trkpt>
      <trkpt lat="45.91741" lon="4.73731">
        <ele>173</ele>
        <time>2017-04-27T08:25:43Z</time>
      </trkpt>
      <trkpt lat="45.91735" lon="4.73731">
        <ele>173</ele>
        <time>2017-04-27T08:25:44Z</time>
      </trkpt>
      <trkpt lat="45.91729" lon="4.7373">
        <ele>173</ele>
        <time>2017-04-27T08:25:45Z</time>
      </trkpt>
      <trkpt lat="45.91722" lon="4.7373">
        <ele>173</ele>
        <time>2017-04-27T08:25:46Z</time>
      </trkpt>
      <trkpt lat="45.91716" lon="4.7373">
        <ele>173</ele>
        <time>2017-04-27T08:25:47Z</time>
      </trkpt>
      <trkpt lat="45.91709" lon="4.7373">
        <ele>173</ele>
        <time>2017-04-27T08:25:48Z</time>
      </trkpt>
      <trkpt lat="45.91703" lon="4.73731">
        <ele>172</ele>
        <time>2017-04-27T08:25:49Z</time>
      </trkpt>
      <trkpt lat="45.91697" lon="4.73731">
        <ele>172</ele>
        <time>2017-04-27T08:25:50Z</time>
      </trkpt>
      <trkpt lat="45.91691" lon="4.73731">
        <ele>172</ele>
        <time>2017-04-27T08:25:51Z</time>
      </trkpt>
      <trkpt lat="45.91684" lon="4.73731">
        <ele>172</ele>
        <time>2017-04-27T08:25:52Z</time>
      </trkpt>
      <trkpt lat="45.91678" lon="4.73731">
        <ele>172</ele>
        <time>2017-04-27T08:25:53Z</time>
      </trkpt>
      <trkpt lat="45.91672" lon="4.73732">
        <ele>172</ele>
        <time>2017-04-27T08:25:54Z</time>
      </trkpt>
      <trkpt lat="45.91665" lon="4.73732">
        <ele>172</ele>
        <time>2017-04-27T08:25:55Z</time>
      </trkpt>
      <trkpt lat="45.91659" lon="4.73732">
        <ele>172</ele>
        <time>2017-04-27T08:25:56Z</time>
      </trkpt>
      <trkpt lat="45.91653" lon="4.73732">
        <ele>172</ele>
        <time>2017-04-27T08:25:57Z</time>
      </trkpt>
      <trkpt lat="45.91646" lon="4.73731">
        <ele>172</ele>
        <time>2017-04-27T08:25:58Z</time>
      </trkpt>
      <trkpt lat="45.9164" lon="4.73731">
        <ele>172</ele>
        <time>2017-04-27T08:25:59Z</time>
      </trkpt>
      <trkpt lat="45.91633" lon="4.7373">
        <ele>172</ele>
        <time>2017-04-27T08:26:00Z</time>
      </trkpt>
      <trkpt lat="45.91626" lon="4.7373">
        <ele>172</ele>
        <time>2017-04-27T08:26:01Z</time>
      </trkpt>
      <trkpt lat="45.9162" lon="4.7373">
        <ele>173</ele>
        <time>2017-04-27T08:26:02Z</time>
      </trkpt>
      <trkpt lat="45.91614" lon="4.7373">
        <ele>173</ele>
        <time>2017-04-27T08:26:03Z</time>
      </trkpt>
      <trkpt lat="45.91608" lon="4.7373">
        <ele>173</ele>
        <time>2017-04-27T08:26:04Z</time>
      </trkpt>
      <trkpt lat="45.91601" lon="4.7373">
        <ele>173</ele>
        <time>2017-04-27T08:26:05Z</time>
      </trkpt>
      <trkpt lat="45.91595" lon="4.7373">
        <ele>173</ele>
        <time>2017-04-27T08:26:06Z</time>
      </trkpt>
      <trkpt lat="45.91589" lon="4.7373">
        <ele>173</ele>
        <time>2017-04-27T08:26:07Z</time>
      </trkpt>
      <trkpt lat="45.91582" lon="4.73731">
        <ele>173</ele>
        <time>2017-04-27T08:26:08Z</time>
      </trkpt>
      <trkpt lat="45.91575" lon="4.73731">
        <ele>173</ele>
        <time>2017-04-27T08:26:09Z</time>
      </trkpt>
      <trkpt lat="45.91569" lon="4.73732">
        <ele>173</ele>
        <time>2017-04-27T08:26:10Z</time>
      </trkpt>
      <trkpt lat="45.91562" lon="4.73733">
        <ele>173</ele>
        <time>2017-04-27T08:26:11Z</time>
      </trkpt>
      <trkpt lat="45.91556" lon="4.73733">
        <ele>174</ele>
        <time>2017-04-27T08:26:12Z</time>
      </trkpt>
      <trkpt lat="45.91549" lon="4.73733">
        <ele>174</ele>
        <time>2017-04-27T08:26:13Z</time>
      </trkpt>
      <trkpt lat="45.91542" lon="4.73733">
        <ele>174</ele>
        <time>2017-04-27T08:26:14Z</time>
      </trkpt>
      <trkpt lat="45.91536" lon="4.73733">
        <ele>174</ele>
        <time>2017-04-27T08:26:15Z</time>
      </trkpt>
      <trkpt lat="45.9153" lon="4.73733">
        <ele>174</ele>
        <time>2017-04-27T08:26:16Z</time>
      </trkpt>
      <trkpt lat="45.91523" lon="4.73733">
        <ele>174</ele>
        <time>2017-04-27T08:26:17Z</time>
      </trkpt>
      <trkpt lat="45.91516" lon="4.73733">
        <ele>174</ele>
        <time>2017-04-27T08:26:18Z</time>
      </trkpt>
      <trkpt lat="45.91509" lon="4.73733">
        <ele>174</ele>
        <time>2017-04-27T08:26:19Z</time>
      </trkpt>
      <trkpt lat="45.91502" lon="4.73734">
        <ele>174</ele>
        <time>2017-04-27T08:26:20Z</time>
      </trkpt>
      <trkpt lat="45.91495" lon="4.73734">
        <ele>174</ele>
        <time>2017-04-27T08:26:21Z</time>
      </trkpt>
      <trkpt lat="45.91488" lon="4.73734">
        <ele>174</ele>
        <time>2017-04-27T08:26:22Z</time>
      </trkpt>
      <trkpt lat="45.91482" lon="4.73734">
        <ele>174</ele>
        <time>2017-04-27T08:26:23Z</time>
      </trkpt>
      <trkpt lat="45.91475" lon="4.73735">
        <ele>174</ele>
        <time>2017-04-27T08:26:24Z</time>
      </trkpt>
      <trkpt lat="45.91469" lon="4.73735">
        <ele>174</ele>
        <time>2017-04-27T08:26:25Z</time>
      </trkpt>
      <trkpt lat="45.91462" lon="4.73735">
        <ele>174</ele>
        <time>2017-04-27T08:26:26Z</time>
      </trkpt>
      <trkpt lat="45.91456" lon="4.73735">
        <ele>173</ele>
        <time>2017-04-27T08:26:27Z</time>
      </trkpt>
      <trkpt lat="45.91449" lon="4.73735">
        <ele>173</ele>
        <time>2017-04-27T08:26:28Z</time>
      </trkpt>
      <trkpt lat="45.91442" lon="4.73735">
        <ele>173</ele>
        <time>2017-04-27T08:26:29Z</time>
      </trkpt>
      <trkpt lat="45.91436" lon="4.73736">
        <ele>173</ele>
        <time>2017-04-27T08:26:30Z</time>
      </trkpt>
      <trkpt lat="45.91429" lon="4.73736">
        <ele>173</ele>
        <time>2017-04-27T08:26:31Z</time>
      </trkpt>
      <trkpt lat="45.91422" lon="4.73736">
        <ele>173</ele>
        <time>2017-04-27T08:26:32Z</time>
      </trkpt>
      <trkpt lat="45.91416" lon="4.73736">
        <ele>173</ele>
        <time>2017-04-27T08:26:33Z</time>
      </trkpt>
      <trkpt lat="45.91409" lon="4.73736">
        <ele>173</ele>
        <time>2017-04-27T08:26:34Z</time>
      </trkpt>
      <trkpt lat="45.91402" lon="4.73736">
        <ele>173</ele>
        <time>2017-04-27T08:26:35Z</time>
      </trkpt>
      <trkpt lat="45.91396" lon="4.73736">
        <ele>173</ele>
        <time>2017-04-27T08:26:36Z</time>
      </trkpt>
      <trkpt lat="45.91389" lon="4.73736">
        <ele>173</ele>
        <time>2017-04-27T08:26:37Z</time>
      </trkpt>
      <trkpt lat="45.91382" lon="4.73736">
        <ele>173</ele>
        <time>2017-04-27T08:26:38Z</time>
      </trkpt>
      <trkpt lat="45.91375" lon="4.73736">
        <ele>173</ele>
        <time>2017-04-27T08:26:39Z</time>
      </trkpt>
      <trkpt lat="45.91368" lon="4.73736">
        <ele>173</ele>
        <time>2017-04-27T08:26:40Z</time>
      </trkpt>
      <trkpt lat="45.91361" lon="4.73736">
        <ele>173</ele>
        <time>2017-04-27T08:26:41Z</time>
      </trkpt>
      <trkpt lat="45.91355" lon="4.73736">
        <ele>173</ele>
        <time>2017-04-27T08:26:42Z</time>
      </trkpt>
      <trkpt lat="45.91348" lon="4.73736">
        <ele>173</ele>
        <time>2017-04-27T08:26:43Z</time>
      </trkpt>
      <trkpt lat="45.91342" lon="4.73736">
        <ele>173</ele>
        <time>2017-04-27T08:26:44Z</time>
      </trkpt>
      <trkpt lat="45.91334" lon="4.73736">
        <ele>173</ele>
        <time>2017-04-27T08:26:45Z</time>
      </trkpt>
      <trkpt lat="45.91327" lon="4.73737">
        <ele>173</ele>
        <time>2017-04-27T08:26:46Z</time>
      </trkpt>
      <trkpt lat="45.91321" lon="4.73737">
        <ele>174</ele>
        <time>2017-04-27T08:26:47Z</time>
      </trkpt>
      <trkpt lat="45.91314" lon="4.73737">
        <ele>174</ele>
        <time>2017-04-27T08:26:48Z</time>
      </trkpt>
      <trkpt lat="45.91308" lon="4.73738">
        <ele>174</ele>
        <time>2017-04-27T08:26:49Z</time>
      </trkpt>
      <trkpt lat="45.91301" lon="4.73738">
        <ele>174</ele>
        <time>2017-04-27T08:26:50Z</time>
      </trkpt>
      <trkpt lat="45.91294" lon="4.73738">
        <ele>174</ele>
        <time>2017-04-27T08:26:51Z</time>
      </trkpt>
      <trkpt lat="45.91287" lon="4.73738">
        <ele>174</ele>
        <time>2017-04-27T08:26:52Z</time>
      </trkpt>
      <trkpt lat="45.9128" lon="4.73739">
        <ele>174</ele>
        <time>2017-04-27T08:26:53Z</time>
      </trkpt>
      <trkpt lat="45.91273" lon="4.73739">
        <ele>174</ele>
        <time>2017-04-27T08:26:54Z</time>
      </trkpt>
      <trkpt lat="45.91266" lon="4.73739">
        <ele>174</ele>
        <time>2017-04-27T08:26:55Z</time>
      </trkpt>
      <trkpt lat="45.91259" lon="4.73739">
        <ele>175</ele>
        <time>2017-04-27T08:26:56Z</time>
      </trkpt>
      <trkpt lat="45.91252" lon="4.73739">
        <ele>175</ele>
        <time>2017-04-27T08:26:57Z</time>
      </trkpt>
      <trkpt lat="45.91244" lon="4.73739">
        <ele>175</ele>
        <time>2017-04-27T08:26:58Z</time>
      </trkpt>
      <trkpt lat="45.91237" lon="4.73739">
        <ele>175</ele>
        <time>2017-04-27T08:26:59Z</time>
      </trkpt>
      <trkpt lat="45.9123" lon="4.73739">
        <ele>175</ele>
        <time>2017-04-27T08:27:00Z</time>
      </trkpt>
      <trkpt lat="45.91223" lon="4.73739">
        <ele>175</ele>
        <time>2017-04-27T08:27:01Z</time>
      </trkpt>
      <trkpt lat="45.91215" lon="4.73739">
        <ele>175</ele>
        <time>2017-04-27T08:27:02Z</time>
      </trkpt>
      <trkpt lat="45.91209" lon="4.73739">
        <ele>175</ele>
        <time>2017-04-27T08:27:03Z</time>
      </trkpt>
      <trkpt lat="45.91202" lon="4.7374">
        <ele>175</ele>
        <time>2017-04-27T08:27:04Z</time>
      </trkpt>
      <trkpt lat="45.91196" lon="4.73739">
        <ele>175</ele>
        <time>2017-04-27T08:27:05Z</time>
      </trkpt>
      <trkpt lat="45.9119" lon="4.73738">
        <ele>175</ele>
        <time>2017-04-27T08:27:06Z</time>
      </trkpt>
      <trkpt lat="45.91184" lon="4.73735">
        <ele>175</ele>
        <time>2017-04-27T08:27:07Z</time>
      </trkpt>
      <trkpt lat="45.91178" lon="4.73733">
        <ele>175</ele>
        <time>2017-04-27T08:27:08Z</time>
      </trkpt>
      <trkpt lat="45.91172" lon="4.7373">
        <ele>175</ele>
        <time>2017-04-27T08:27:09Z</time>
      </trkpt>
      <trkpt lat="45.91165" lon="4.73729">
        <ele>175</ele>
        <time>2017-04-27T08:27:10Z</time>
      </trkpt>
      <trkpt lat="45.9116" lon="4.73727">
        <ele>175</ele>
        <time>2017-04-27T08:27:11Z</time>
      </trkpt>
      <trkpt lat="45.91154" lon="4.73723">
        <ele>175</ele>
        <time>2017-04-27T08:27:12Z</time>
      </trkpt>
      <trkpt lat="45.9115" lon="4.73717">
        <ele>174</ele>
        <time>2017-04-27T08:27:13Z</time>
      </trkpt>
      <trkpt lat="45.91146" lon="4.73711">
        <ele>174</ele>
        <time>2017-04-27T08:27:14Z</time>
      </trkpt>
      <trkpt lat="45.91143" lon="4.73704">
        <ele>174</ele>
        <time>2017-04-27T08:27:15Z</time>
      </trkpt>
      <trkpt lat="45.9114" lon="4.73696">
        <ele>174</ele>
        <time>2017-04-27T08:27:16Z</time>
      </trkpt>
      <trkpt lat="45.91137" lon="4.73689">
        <ele>174</ele>
        <time>2017-04-27T08:27:17Z</time>
      </trkpt>
      <trkpt lat="45.91134" lon="4.73682">
        <ele>174</ele>
        <time>2017-04-27T08:27:18Z</time>
      </trkpt>
      <trkpt lat="45.9113" lon="4.73675">
        <ele>174</ele>
        <time>2017-04-27T08:27:19Z</time>
      </trkpt>
      <trkpt lat="45.91127" lon="4.73667">
        <ele>174</ele>
        <time>2017-04-27T08:27:20Z</time>
      </trkpt>
      <trkpt lat="45.91124" lon="4.7366">
        <ele>174</ele>
        <time>2017-04-27T08:27:21Z</time>
      </trkpt>
      <trkpt lat="45.91121" lon="4.73653">
        <ele>174</ele>
        <time>2017-04-27T08:27:22Z</time>
      </trkpt>
      <trkpt lat="45.91117" lon="4.73646">
        <ele>174</ele>
        <time>2017-04-27T08:27:23Z</time>
      </trkpt>
      <trkpt lat="45.91114" lon="4.73639">
        <ele>174</ele>
        <time>2017-04-27T08:27:24Z</time>
      </trkpt>
      <trkpt lat="45.91111" lon="4.73632">
        <ele>174</ele>
        <time>2017-04-27T08:27:25Z</time>
      </trkpt>
      <trkpt lat="45.91107" lon="4.73625">
        <ele>174</ele>
        <time>2017-04-27T08:27:26Z</time>
      </trkpt>
      <trkpt lat="45.91104" lon="4.73617">
        <ele>174</ele>
        <time>2017-04-27T08:27:27Z</time>
      </trkpt>
      <trkpt lat="45.91101" lon="4.7361">
        <ele>174</ele>
        <time>2017-04-27T08:27:28Z</time>
      </trkpt>
      <trkpt lat="45.91098" lon="4.73603">
        <ele>174</ele>
        <time>2017-04-27T08:27:29Z</time>
      </trkpt>
      <trkpt lat="45.91094" lon="4.73596">
        <ele>174</ele>
        <time>2017-04-27T08:27:30Z</time>
      </trkpt>
      <trkpt lat="45.91091" lon="4.73589">
        <ele>174</ele>
        <time>2017-04-27T08:27:31Z</time>
      </trkpt>
      <trkpt lat="45.91088" lon="4.73582">
        <ele>174</ele>
        <time>2017-04-27T08:27:32Z</time>
      </trkpt>
      <trkpt lat="45.91085" lon="4.73575">
        <ele>174</ele>
        <time>2017-04-27T08:27:33Z</time>
      </trkpt>
      <trkpt lat="45.91081" lon="4.73568">
        <ele>174</ele>
        <time>2017-04-27T08:27:34Z</time>
      </trkpt>
      <trkpt lat="45.91079" lon="4.73561">
        <ele>174</ele>
        <time>2017-04-27T08:27:35Z</time>
      </trkpt>
      <trkpt lat="45.91076" lon="4.73554">
        <ele>174</ele>
        <time>2017-04-27T08:27:36Z</time>
      </trkpt>
      <trkpt lat="45.91073" lon="4.73548">
        <ele>174</ele>
        <time>2017-04-27T08:27:37Z</time>
      </trkpt>
      <trkpt lat="45.9107" lon="4.73541">
        <ele>175</ele>
        <time>2017-04-27T08:27:38Z</time>
      </trkpt>
      <trkpt lat="45.91067" lon="4.73534">
        <ele>175</ele>
        <time>2017-04-27T08:27:39Z</time>
      </trkpt>
      <trkpt lat="45.91064" lon="4.73528">
        <ele>175</ele>
        <time>2017-04-27T08:27:40Z</time>
      </trkpt>
      <trkpt lat="45.91061" lon="4.73521">
        <ele>175</ele>
        <time>2017-04-27T08:27:41Z</time>
      </trkpt>
      <trkpt lat="45.91058" lon="4.73514">
        <ele>175</ele>
        <time>2017-04-27T08:27:42Z</time>
      </trkpt>
      <trkpt lat="45.91055" lon="4.73507">
        <ele>175</ele>
        <time>2017-04-27T08:27:43Z</time>
      </trkpt>
      <trkpt lat="45.91051" lon="4.735">
        <ele>175</ele>
        <time>2017-04-27T08:27:44Z</time>
      </trkpt>
      <trkpt lat="45.91048" lon="4.73493">
        <ele>175</ele>
        <time>2017-04-27T08:27:45Z</time>
      </trkpt>
      <trkpt lat="45.91045" lon="4.73486">
        <ele>175</ele>
        <time>2017-04-27T08:27:46Z</time>
      </trkpt>
      <trkpt lat="45.91042" lon="4.7348">
        <ele>175</ele>
        <time>2017-04-27T08:27:47Z</time>
      </trkpt>
      <trkpt lat="45.91039" lon="4.73473">
        <ele>175</ele>
        <time>2017-04-27T08:27:48Z</time>
      </trkpt>
      <trkpt lat="45.91037" lon="4.73467">
        <ele>175</ele>
        <time>2017-04-27T08:27:49Z</time>
      </trkpt>
      <trkpt lat="45.91035" lon="4.73461">
        <ele>175</ele>
        <time>2017-04-27T08:27:50Z</time>
      </trkpt>
      <trkpt lat="45.91034" lon="4.7345">
        <ele>175</ele>
        <time>2017-04-27T08:27:53Z</time>
      </trkpt>
      <trkpt lat="45.91035" lon="4.73446">
        <ele>175</ele>
        <time>2017-04-27T08:27:54Z</time>
      </trkpt>
      <trkpt lat="45.91037" lon="4.73435">
        <ele>175</ele>
        <time>2017-04-27T08:27:56Z</time>
      </trkpt>
      <trkpt lat="45.91036" lon="4.73429">
        <ele>175</ele>
        <time>2017-04-27T08:27:57Z</time>
      </trkpt>
      <trkpt lat="45.91034" lon="4.73423">
        <ele>175</ele>
        <time>2017-04-27T08:27:58Z</time>
      </trkpt>
      <trkpt lat="45.91031" lon="4.73417">
        <ele>175</ele>
        <time>2017-04-27T08:27:59Z</time>
      </trkpt>
      <trkpt lat="45.91028" lon="4.73413">
        <ele>174</ele>
        <time>2017-04-27T08:28:00Z</time>
      </trkpt>
      <trkpt lat="45.91023" lon="4.73412">
        <ele>174</ele>
        <time>2017-04-27T08:28:01Z</time>
      </trkpt>
      <trkpt lat="45.91018" lon="4.73413">
        <ele>174</ele>
        <time>2017-04-27T08:28:02Z</time>
      </trkpt>
      <trkpt lat="45.91013" lon="4.73417">
        <ele>175</ele>
        <time>2017-04-27T08:28:03Z</time>
      </trkpt>
      <trkpt lat="45.91009" lon="4.73421">
        <ele>175</ele>
        <time>2017-04-27T08:28:04Z</time>
      </trkpt>
      <trkpt lat="45.91005" lon="4.73425">
        <ele>175</ele>
        <time>2017-04-27T08:28:05Z</time>
      </trkpt>
      <trkpt lat="45.91" lon="4.73429">
        <ele>175</ele>
        <time>2017-04-27T08:28:06Z</time>
      </trkpt>
      <trkpt lat="45.90995" lon="4.73432">
        <ele>175</ele>
        <time>2017-04-27T08:28:07Z</time>
      </trkpt>
      <trkpt lat="45.90989" lon="4.73436">
        <ele>175</ele>
        <time>2017-04-27T08:28:08Z</time>
      </trkpt>
      <trkpt lat="45.90984" lon="4.7344">
        <ele>175</ele>
        <time>2017-04-27T08:28:09Z</time>
      </trkpt>
      <trkpt lat="45.90979" lon="4.73443">
        <ele>175</ele>
        <time>2017-04-27T08:28:10Z</time>
      </trkpt>
      <trkpt lat="45.90974" lon="4.73446">
        <ele>175</ele>
        <time>2017-04-27T08:28:11Z</time>
      </trkpt>
      <trkpt lat="45.90968" lon="4.73448">
        <ele>175</ele>
        <time>2017-04-27T08:28:12Z</time>
      </trkpt>
      <trkpt lat="45.90963" lon="4.73451">
        <ele>175</ele>
        <time>2017-04-27T08:28:13Z</time>
      </trkpt>
      <trkpt lat="45.90957" lon="4.73453">
        <ele>175</ele>
        <time>2017-04-27T08:28:14Z</time>
      </trkpt>
      <trkpt lat="45.90952" lon="4.73455">
        <ele>175</ele>
        <time>2017-04-27T08:28:15Z</time>
      </trkpt>
      <trkpt lat="45.90946" lon="4.73458">
        <ele>175</ele>
        <time>2017-04-27T08:28:16Z</time>
      </trkpt>
      <trkpt lat="45.9094" lon="4.7346">
        <ele>175</ele>
        <time>2017-04-27T08:28:17Z</time>
      </trkpt>
      <trkpt lat="45.90934" lon="4.73463">
        <ele>175</ele>
        <time>2017-04-27T08:28:18Z</time>
      </trkpt>
      <trkpt lat="45.90929" lon="4.73465">
        <ele>175</ele>
        <time>2017-04-27T08:28:19Z</time>
      </trkpt>
      <trkpt lat="45.90923" lon="4.73468">
        <ele>175</ele>
        <time>2017-04-27T08:28:20Z</time>
      </trkpt>
      <trkpt lat="45.90917" lon="4.7347">
        <ele>175</ele>
        <time>2017-04-27T08:28:21Z</time>
      </trkpt>
      <trkpt lat="45.90912" lon="4.73473">
        <ele>175</ele>
        <time>2017-04-27T08:28:22Z</time>
      </trkpt>
      <trkpt lat="45.90906" lon="4.73476">
        <ele>175</ele>
        <time>2017-04-27T08:28:23Z</time>
      </trkpt>
      <trkpt lat="45.909" lon="4.73478">
        <ele>175</ele>
        <time>2017-04-27T08:28:24Z</time>
      </trkpt>
      <trkpt lat="45.90893" lon="4.7348">
        <ele>175</ele>
        <time>2017-04-27T08:28:25Z</time>
      </trkpt>
      <trkpt lat="45.90888" lon="4.73483">
        <ele>175</ele>
        <time>2017-04-27T08:28:26Z</time>
      </trkpt>
      <trkpt lat="45.90882" lon="4.73485">
        <ele>175</ele>
        <time>2017-04-27T08:28:27Z</time>
      </trkpt>
      <trkpt lat="45.90876" lon="4.73487">
        <ele>175</ele>
        <time>2017-04-27T08:28:28Z</time>
      </trkpt>
      <trkpt lat="45.90871" lon="4.73489">
        <ele>175</ele>
        <time>2017-04-27T08:28:29Z</time>
      </trkpt>
      <trkpt lat="45.90865" lon="4.73492">
        <ele>175</ele>
        <time>2017-04-27T08:28:30Z</time>
      </trkpt>
      <trkpt lat="45.90859" lon="4.73494">
        <ele>175</ele>
        <time>2017-04-27T08:28:31Z</time>
      </trkpt>
      <trkpt lat="45.90854" lon="4.73497">
        <ele>174</ele>
        <time>2017-04-27T08:28:32Z</time>
      </trkpt>
      <trkpt lat="45.90848" lon="4.735">
        <ele>174</ele>
        <time>2017-04-27T08:28:33Z</time>
      </trkpt>
      <trkpt lat="45.90843" lon="4.73502">
        <ele>174</ele>
        <time>2017-04-27T08:28:34Z</time>
      </trkpt>
      <trkpt lat="45.90837" lon="4.73504">
        <ele>174</ele>
        <time>2017-04-27T08:28:35Z</time>
      </trkpt>
      <trkpt lat="45.90832" lon="4.73507">
        <ele>174</ele>
        <time>2017-04-27T08:28:36Z</time>
      </trkpt>
      <trkpt lat="45.90827" lon="4.73509">
        <ele>175</ele>
        <time>2017-04-27T08:28:37Z</time>
      </trkpt>
      <trkpt lat="45.90821" lon="4.73512">
        <ele>175</ele>
        <time>2017-04-27T08:28:38Z</time>
      </trkpt>
      <trkpt lat="45.90816" lon="4.73515">
        <ele>175</ele>
        <time>2017-04-27T08:28:39Z</time>
      </trkpt>
      <trkpt lat="45.9081" lon="4.73517">
        <ele>175</ele>
        <time>2017-04-27T08:28:40Z</time>
      </trkpt>
      <trkpt lat="45.90804" lon="4.73518">
        <ele>175</ele>
        <time>2017-04-27T08:28:41Z</time>
      </trkpt>
      <trkpt lat="45.90798" lon="4.7352">
        <ele>175</ele>
        <time>2017-04-27T08:28:42Z</time>
      </trkpt>
      <trkpt lat="45.90793" lon="4.73522">
        <ele>175</ele>
        <time>2017-04-27T08:28:43Z</time>
      </trkpt>
      <trkpt lat="45.90787" lon="4.73525">
        <ele>176</ele>
        <time>2017-04-27T08:28:44Z</time>
      </trkpt>
      <trkpt lat="45.90782" lon="4.73527">
        <ele>176</ele>
        <time>2017-04-27T08:28:45Z</time>
      </trkpt>
      <trkpt lat="45.90777" lon="4.7353">
        <ele>176</ele>
        <time>2017-04-27T08:28:46Z</time>
      </trkpt>
      <trkpt lat="45.90772" lon="4.73532">
        <ele>176</ele>
        <time>2017-04-27T08:28:47Z</time>
      </trkpt>
      <trkpt lat="45.90767" lon="4.73535">
        <ele>176</ele>
        <time>2017-04-27T08:28:48Z</time>
      </trkpt>
      <trkpt lat="45.90762" lon="4.73537">
        <ele>176</ele>
        <time>2017-04-27T08:28:49Z</time>
      </trkpt>
      <trkpt lat="45.90756" lon="4.7354">
        <ele>176</ele>
        <time>2017-04-27T08:28:50Z</time>
      </trkpt>
      <trkpt lat="45.90751" lon="4.73542">
        <ele>176</ele>
        <time>2017-04-27T08:28:51Z</time>
      </trkpt>
      <trkpt lat="45.90745" lon="4.73544">
        <ele>177</ele>
        <time>2017-04-27T08:28:52Z</time>
      </trkpt>
      <trkpt lat="45.9074" lon="4.73546">
        <ele>177</ele>
        <time>2017-04-27T08:28:53Z</time>
      </trkpt>
      <trkpt lat="45.90735" lon="4.73549">
        <ele>178</ele>
        <time>2017-04-27T08:28:54Z</time>
      </trkpt>
      <trkpt lat="45.90729" lon="4.73551">
        <ele>178</ele>
        <time>2017-04-27T08:28:55Z</time>
      </trkpt>
      <trkpt lat="45.90724" lon="4.73553">
        <ele>178</ele>
        <time>2017-04-27T08:28:56Z</time>
      </trkpt>
      <trkpt lat="45.90718" lon="4.73555">
        <ele>178</ele>
        <time>2017-04-27T08:28:57Z</time>
      </trkpt>
      <trkpt lat="45.90713" lon="4.73557">
        <ele>178</ele>
        <time>2017-04-27T08:28:58Z</time>
      </trkpt>
      <trkpt lat="45.90708" lon="4.73559">
        <ele>178</ele>
        <time>2017-04-27T08:28:59Z</time>
      </trkpt>
      <trkpt lat="45.90703" lon="4.73561">
        <ele>178</ele>
        <time>2017-04-27T08:29:00Z</time>
      </trkpt>
      <trkpt lat="45.90697" lon="4.73563">
        <ele>178</ele>
        <time>2017-04-27T08:29:01Z</time>
      </trkpt>
      <trkpt lat="45.90692" lon="4.73565">
        <ele>178</ele>
        <time>2017-04-27T08:29:02Z</time>
      </trkpt>
      <trkpt lat="45.90687" lon="4.73567">
        <ele>178</ele>
        <time>2017-04-27T08:29:03Z</time>
      </trkpt>
      <trkpt lat="45.90682" lon="4.73569">
        <ele>179</ele>
        <time>2017-04-27T08:29:04Z</time>
      </trkpt>
      <trkpt lat="45.90677" lon="4.73571">
        <ele>179</ele>
        <time>2017-04-27T08:29:05Z</time>
      </trkpt>
      <trkpt lat="45.90673" lon="4.73573">
        <ele>179</ele>
        <time>2017-04-27T08:29:06Z</time>
      </trkpt>
      <trkpt lat="45.90669" lon="4.73575">
        <ele>179</ele>
        <time>2017-04-27T08:29:07Z</time>
      </trkpt>
      <trkpt lat="45.90661" lon="4.73578">
        <ele>179</ele>
        <time>2017-04-27T08:29:09Z</time>
      </trkpt>
      <trkpt lat="45.90657" lon="4.73581">
        <ele>179</ele>
        <time>2017-04-27T08:29:10Z</time>
      </trkpt>
      <trkpt lat="45.90649" lon="4.73584">
        <ele>181</ele>
        <time>2017-04-27T08:29:12Z</time>
      </trkpt>
      <trkpt lat="45.90645" lon="4.73586">
        <ele>181</ele>
        <time>2017-04-27T08:29:13Z</time>
      </trkpt>
      <trkpt lat="45.90638" lon="4.7359">
        <ele>181</ele>
        <time>2017-04-27T08:29:15Z</time>
      </trkpt>
      <trkpt lat="45.90635" lon="4.73592">
        <ele>181</ele>
        <time>2017-04-27T08:29:16Z</time>
      </trkpt>
      <trkpt lat="45.90627" lon="4.73594">
        <ele>181</ele>
        <time>2017-04-27T08:29:18Z</time>
      </trkpt>
      <trkpt lat="45.90623" lon="4.73595">
        <ele>181</ele>
        <time>2017-04-27T08:29:19Z</time>
      </trkpt>
      <trkpt lat="45.90615" lon="4.73598">
        <ele>180</ele>
        <time>2017-04-27T08:29:21Z</time>
      </trkpt>
      <trkpt lat="45.90611" lon="4.73599">
        <ele>180</ele>
        <time>2017-04-27T08:29:22Z</time>
      </trkpt>
      <trkpt lat="45.90604" lon="4.73603">
        <ele>180</ele>
        <time>2017-04-27T08:29:24Z</time>
      </trkpt>
      <trkpt lat="45.906" lon="4.73605">
        <ele>180</ele>
        <time>2017-04-27T08:29:25Z</time>
      </trkpt>
      <trkpt lat="45.90596" lon="4.73607">
        <ele>180</ele>
        <time>2017-04-27T08:29:26Z</time>
      </trkpt>
      <trkpt lat="45.90591" lon="4.73609">
        <ele>180</ele>
        <time>2017-04-27T08:29:27Z</time>
      </trkpt>
      <trkpt lat="45.90583" lon="4.73612">
        <ele>178</ele>
        <time>2017-04-27T08:29:29Z</time>
      </trkpt>
      <trkpt lat="45.90579" lon="4.73614">
        <ele>178</ele>
        <time>2017-04-27T08:29:30Z</time>
      </trkpt>
      <trkpt lat="45.9057" lon="4.73617">
        <ele>178</ele>
        <time>2017-04-27T08:29:32Z</time>
      </trkpt>
      <trkpt lat="45.90566" lon="4.73619">
        <ele>178</ele>
        <time>2017-04-27T08:29:33Z</time>
      </trkpt>
      <trkpt lat="45.90558" lon="4.73622">
        <ele>178</ele>
        <time>2017-04-27T08:29:35Z</time>
      </trkpt>
      <trkpt lat="45.90554" lon="4.73624">
        <ele>178</ele>
        <time>2017-04-27T08:29:36Z</time>
      </trkpt>
      <trkpt lat="45.9055" lon="4.73627">
        <ele>178</ele>
        <time>2017-04-27T08:29:37Z</time>
      </trkpt>
      <trkpt lat="45.90545" lon="4.73629">
        <ele>178</ele>
        <time>2017-04-27T08:29:38Z</time>
      </trkpt>
      <trkpt lat="45.9054" lon="4.73631">
        <ele>178</ele>
        <time>2017-04-27T08:29:39Z</time>
      </trkpt>
      <trkpt lat="45.90536" lon="4.73633">
        <ele>178</ele>
        <time>2017-04-27T08:29:40Z</time>
      </trkpt>
      <trkpt lat="45.90531" lon="4.73635">
        <ele>178</ele>
        <time>2017-04-27T08:29:41Z</time>
      </trkpt>
      <trkpt lat="45.90526" lon="4.73637">
        <ele>178</ele>
        <time>2017-04-27T08:29:42Z</time>
      </trkpt>
      <trkpt lat="45.90521" lon="4.73639">
        <ele>178</ele>
        <time>2017-04-27T08:29:43Z</time>
      </trkpt>
      <trkpt lat="45.90517" lon="4.73641">
        <ele>178</ele>
        <time>2017-04-27T08:29:44Z</time>
      </trkpt>
      <trkpt lat="45.90512" lon="4.73643">
        <ele>178</ele>
        <time>2017-04-27T08:29:45Z</time>
      </trkpt>
      <trkpt lat="45.90507" lon="4.73646">
        <ele>178</ele>
        <time>2017-04-27T08:29:46Z</time>
      </trkpt>
      <trkpt lat="45.90502" lon="4.73648">
        <ele>178</ele>
        <time>2017-04-27T08:29:47Z</time>
      </trkpt>
      <trkpt lat="45.90497" lon="4.7365">
        <ele>177</ele>
        <time>2017-04-27T08:29:48Z</time>
      </trkpt>
      <trkpt lat="45.90492" lon="4.73652">
        <ele>177</ele>
        <time>2017-04-27T08:29:49Z</time>
      </trkpt>
      <trkpt lat="45.90486" lon="4.73654">
        <ele>177</ele>
        <time>2017-04-27T08:29:50Z</time>
      </trkpt>
      <trkpt lat="45.90481" lon="4.73656">
        <ele>177</ele>
        <time>2017-04-27T08:29:51Z</time>
      </trkpt>
      <trkpt lat="45.90476" lon="4.73659">
        <ele>177</ele>
        <time>2017-04-27T08:29:52Z</time>
      </trkpt>
      <trkpt lat="45.90471" lon="4.73661">
        <ele>177</ele>
        <time>2017-04-27T08:29:53Z</time>
      </trkpt>
      <trkpt lat="45.90465" lon="4.73663">
        <ele>177</ele>
        <time>2017-04-27T08:29:54Z</time>
      </trkpt>
      <trkpt lat="45.9046" lon="4.73665">
        <ele>177</ele>
        <time>2017-04-27T08:29:55Z</time>
      </trkpt>
      <trkpt lat="45.90455" lon="4.73667">
        <ele>176</ele>
        <time>2017-04-27T08:29:56Z</time>
      </trkpt>
      <trkpt lat="45.9045" lon="4.73669">
        <ele>176</ele>
        <time>2017-04-27T08:29:57Z</time>
      </trkpt>
      <trkpt lat="45.90445" lon="4.73672">
        <ele>176</ele>
        <time>2017-04-27T08:29:58Z</time>
      </trkpt>
      <trkpt lat="45.9044" lon="4.73674">
        <ele>176</ele>
        <time>2017-04-27T08:29:59Z</time>
      </trkpt>
      <trkpt lat="45.90434" lon="4.73676">
        <ele>177</ele>
        <time>2017-04-27T08:30:00Z</time>
      </trkpt>
      <trkpt lat="45.90427" lon="4.73678">
        <ele>177</ele>
        <time>2017-04-27T08:30:01Z</time>
      </trkpt>
      <trkpt lat="45.90421" lon="4.73682">
        <ele>177</ele>
        <time>2017-04-27T08:30:02Z</time>
      </trkpt>
      <trkpt lat="45.90415" lon="4.73685">
        <ele>177</ele>
        <time>2017-04-27T08:30:03Z</time>
      </trkpt>
      <trkpt lat="45.90408" lon="4.73688">
        <ele>177</ele>
        <time>2017-04-27T08:30:04Z</time>
      </trkpt>
      <trkpt lat="45.90401" lon="4.73692">
        <ele>177</ele>
        <time>2017-04-27T08:30:05Z</time>
      </trkpt>
      <trkpt lat="45.90394" lon="4.73694">
        <ele>177</ele>
        <time>2017-04-27T08:30:06Z</time>
      </trkpt>
      <trkpt lat="45.90388" lon="4.73697">
        <ele>177</ele>
        <time>2017-04-27T08:30:07Z</time>
      </trkpt>
      <trkpt lat="45.9038" lon="4.737">
        <ele>177</ele>
        <time>2017-04-27T08:30:08Z</time>
      </trkpt>
      <trkpt lat="45.90373" lon="4.73702">
        <ele>177</ele>
        <time>2017-04-27T08:30:09Z</time>
      </trkpt>
      <trkpt lat="45.90365" lon="4.73706">
        <ele>177</ele>
        <time>2017-04-27T08:30:10Z</time>
      </trkpt>
      <trkpt lat="45.90357" lon="4.73709">
        <ele>177</ele>
        <time>2017-04-27T08:30:11Z</time>
      </trkpt>
      <trkpt lat="45.90349" lon="4.73712">
        <ele>177</ele>
        <time>2017-04-27T08:30:12Z</time>
      </trkpt>
      <trkpt lat="45.90341" lon="4.73715">
        <ele>177</ele>
        <time>2017-04-27T08:30:13Z</time>
      </trkpt>
      <trkpt lat="45.90333" lon="4.73719">
        <ele>177</ele>
        <time>2017-04-27T08:30:14Z</time>
      </trkpt>
      <trkpt lat="45.90325" lon="4.73722">
        <ele>177</ele>
        <time>2017-04-27T08:30:15Z</time>
      </trkpt>
      <trkpt lat="45.90316" lon="4.73726">
        <ele>177</ele>
        <time>2017-04-27T08:30:16Z</time>
      </trkpt>
      <trkpt lat="45.90308" lon="4.73729">
        <ele>177</ele>
        <time>2017-04-27T08:30:17Z</time>
      </trkpt>
      <trkpt lat="45.90299" lon="4.73733">
        <ele>177</ele>
        <time>2017-04-27T08:30:18Z</time>
      </trkpt>
      <trkpt lat="45.90291" lon="4.73737">
        <ele>177</ele>
        <time>2017-04-27T08:30:19Z</time>
      </trkpt>
      <trkpt lat="45.90282" lon="4.7374">
        <ele>177</ele>
        <time>2017-04-27T08:30:20Z</time>
      </trkpt>
      <trkpt lat="45.90274" lon="4.73744">
        <ele>177</ele>
        <time>2017-04-27T08:30:21Z</time>
      </trkpt>
      <trkpt lat="45.90266" lon="4.73747">
        <ele>178</ele>
        <time>2017-04-27T08:30:22Z</time>
      </trkpt>
      <trkpt lat="45.90258" lon="4.7375">
        <ele>178</ele>
        <time>2017-04-27T08:30:23Z</time>
      </trkpt>
      <trkpt lat="45.9025" lon="4.73754">
        <ele>178</ele>
        <time>2017-04-27T08:30:24Z</time>
      </trkpt>
      <trkpt lat="45.90243" lon="4.73757">
        <ele>178</ele>
        <time>2017-04-27T08:30:25Z</time>
      </trkpt>
      <trkpt lat="45.90235" lon="4.7376">
        <ele>177</ele>
        <time>2017-04-27T08:30:26Z</time>
      </trkpt>
      <trkpt lat="45.90228" lon="4.73763">
        <ele>177</ele>
        <time>2017-04-27T08:30:27Z</time>
      </trkpt>
      <trkpt lat="45.9022" lon="4.73767">
        <ele>177</ele>
        <time>2017-04-27T08:30:28Z</time>
      </trkpt>
      <trkpt lat="45.90213" lon="4.73769">
        <ele>177</ele>
        <time>2017-04-27T08:30:29Z</time>
      </trkpt>
      <trkpt lat="45.90205" lon="4.73772">
        <ele>177</ele>
        <time>2017-04-27T08:30:30Z</time>
      </trkpt>
      <trkpt lat="45.90199" lon="4.73774">
        <ele>177</ele>
        <time>2017-04-27T08:30:31Z</time>
      </trkpt>
      <trkpt lat="45.90191" lon="4.73777">
        <ele>177</ele>
        <time>2017-04-27T08:30:32Z</time>
      </trkpt>
      <trkpt lat="45.90184" lon="4.7378">
        <ele>177</ele>
        <time>2017-04-27T08:30:33Z</time>
      </trkpt>
      <trkpt lat="45.90177" lon="4.73783">
        <ele>177</ele>
        <time>2017-04-27T08:30:34Z</time>
      </trkpt>
      <trkpt lat="45.90171" lon="4.73786">
        <ele>177</ele>
        <time>2017-04-27T08:30:35Z</time>
      </trkpt>
      <trkpt lat="45.90164" lon="4.73789">
        <ele>176</ele>
        <time>2017-04-27T08:30:36Z</time>
      </trkpt>
      <trkpt lat="45.90158" lon="4.73792">
        <ele>177</ele>
        <time>2017-04-27T08:30:37Z</time>
      </trkpt>
      <trkpt lat="45.90151" lon="4.73795">
        <ele>177</ele>
        <time>2017-04-27T08:30:38Z</time>
      </trkpt>
      <trkpt lat="45.90145" lon="4.73797">
        <ele>177</ele>
        <time>2017-04-27T08:30:39Z</time>
      </trkpt>
      <trkpt lat="45.90139" lon="4.738">
        <ele>177</ele>
        <time>2017-04-27T08:30:40Z</time>
      </trkpt>
      <trkpt lat="45.90134" lon="4.73803">
        <ele>177</ele>
        <time>2017-04-27T08:30:41Z</time>
      </trkpt>
      <trkpt lat="45.90128" lon="4.73805">
        <ele>177</ele>
        <time>2017-04-27T08:30:42Z</time>
      </trkpt>
      <trkpt lat="45.90122" lon="4.73808">
        <ele>177</ele>
        <time>2017-04-27T08:30:43Z</time>
      </trkpt>
      <trkpt lat="45.90116" lon="4.7381">
        <ele>177</ele>
        <time>2017-04-27T08:30:44Z</time>
      </trkpt>
      <trkpt lat="45.9011" lon="4.73813">
        <ele>177</ele>
        <time>2017-04-27T08:30:45Z</time>
      </trkpt>
      <trkpt lat="45.90104" lon="4.73816">
        <ele>177</ele>
        <time>2017-04-27T08:30:46Z</time>
      </trkpt>
      <trkpt lat="45.90098" lon="4.73819">
        <ele>177</ele>
        <time>2017-04-27T08:30:47Z</time>
      </trkpt>
      <trkpt lat="45.90092" lon="4.73822">
        <ele>177</ele>
        <time>2017-04-27T08:30:48Z</time>
      </trkpt>
      <trkpt lat="45.90086" lon="4.73824">
        <ele>178</ele>
        <time>2017-04-27T08:30:49Z</time>
      </trkpt>
      <trkpt lat="45.9008" lon="4.73827">
        <ele>178</ele>
        <time>2017-04-27T08:30:50Z</time>
      </trkpt>
      <trkpt lat="45.90073" lon="4.73829">
        <ele>178</ele>
        <time>2017-04-27T08:30:51Z</time>
      </trkpt>
      <trkpt lat="45.90067" lon="4.73832">
        <ele>178</ele>
        <time>2017-04-27T08:30:52Z</time>
      </trkpt>
      <trkpt lat="45.90061" lon="4.73835">
        <ele>178</ele>
        <time>2017-04-27T08:30:53Z</time>
      </trkpt>
      <trkpt lat="45.90054" lon="4.73838">
        <ele>178</ele>
        <time>2017-04-27T08:30:54Z</time>
      </trkpt>
      <trkpt lat="45.90048" lon="4.7384">
        <ele>178</ele>
        <time>2017-04-27T08:30:55Z</time>
      </trkpt>
      <trkpt lat="45.90042" lon="4.73842">
        <ele>178</ele>
        <time>2017-04-27T08:30:56Z</time>
      </trkpt>
      <trkpt lat="45.90036" lon="4.73845">
        <ele>178</ele>
        <time>2017-04-27T08:30:57Z</time>
      </trkpt>
      <trkpt lat="45.90029" lon="4.73848">
        <ele>178</ele>
        <time>2017-04-27T08:30:58Z</time>
      </trkpt>
      <trkpt lat="45.90023" lon="4.7385">
        <ele>178</ele>
        <time>2017-04-27T08:30:59Z</time>
      </trkpt>
      <trkpt lat="45.90017" lon="4.73852">
        <ele>178</ele>
        <time>2017-04-27T08:31:00Z</time>
      </trkpt>
      <trkpt lat="45.9001" lon="4.73855">
        <ele>178</ele>
        <time>2017-04-27T08:31:01Z</time>
      </trkpt>
      <trkpt lat="45.90004" lon="4.73858">
        <ele>178</ele>
        <time>2017-04-27T08:31:02Z</time>
      </trkpt>
      <trkpt lat="45.89998" lon="4.7386">
        <ele>178</ele>
        <time>2017-04-27T08:31:03Z</time>
      </trkpt>
      <trkpt lat="45.89991" lon="4.73862">
        <ele>178</ele>
        <time>2017-04-27T08:31:04Z</time>
      </trkpt>
      <trkpt lat="45.89985" lon="4.73865">
        <ele>178</ele>
        <time>2017-04-27T08:31:05Z</time>
      </trkpt>
      <trkpt lat="45.89978" lon="4.73867">
        <ele>178</ele>
        <time>2017-04-27T08:31:06Z</time>
      </trkpt>
      <trkpt lat="45.89971" lon="4.7387">
        <ele>178</ele>
        <time>2017-04-27T08:31:07Z</time>
      </trkpt>
      <trkpt lat="45.89965" lon="4.73873">
        <ele>178</ele>
        <time>2017-04-27T08:31:08Z</time>
      </trkpt>
      <trkpt lat="45.89958" lon="4.73876">
        <ele>178</ele>
        <time>2017-04-27T08:31:09Z</time>
      </trkpt>
      <trkpt lat="45.89951" lon="4.73879">
        <ele>178</ele>
        <time>2017-04-27T08:31:10Z</time>
      </trkpt>
      <trkpt lat="45.89944" lon="4.73882">
        <ele>178</ele>
        <time>2017-04-27T08:31:11Z</time>
      </trkpt>
      <trkpt lat="45.89938" lon="4.73885">
        <ele>178</ele>
        <time>2017-04-27T08:31:12Z</time>
      </trkpt>
      <trkpt lat="45.89932" lon="4.73888">
        <ele>178</ele>
        <time>2017-04-27T08:31:13Z</time>
      </trkpt>
      <trkpt lat="45.89925" lon="4.73891">
        <ele>178</ele>
        <time>2017-04-27T08:31:14Z</time>
      </trkpt>
      <trkpt lat="45.89919" lon="4.73893">
        <ele>178</ele>
        <time>2017-04-27T08:31:15Z</time>
      </trkpt>
      <trkpt lat="45.89913" lon="4.73896">
        <ele>178</ele>
        <time>2017-04-27T08:31:16Z</time>
      </trkpt>
      <trkpt lat="45.89907" lon="4.73898">
        <ele>178</ele>
        <time>2017-04-27T08:31:17Z</time>
      </trkpt>
      <trkpt lat="45.89901" lon="4.739">
        <ele>178</ele>
        <time>2017-04-27T08:31:18Z</time>
      </trkpt>
      <trkpt lat="45.89895" lon="4.73902">
        <ele>178</ele>
        <time>2017-04-27T08:31:19Z</time>
      </trkpt>
      <trkpt lat="45.89889" lon="4.73905">
        <ele>179</ele>
        <time>2017-04-27T08:31:20Z</time>
      </trkpt>
      <trkpt lat="45.89883" lon="4.73907">
        <ele>179</ele>
        <time>2017-04-27T08:31:21Z</time>
      </trkpt>
      <trkpt lat="45.89877" lon="4.73911">
        <ele>179</ele>
        <time>2017-04-27T08:31:22Z</time>
      </trkpt>
      <trkpt lat="45.89871" lon="4.73914">
        <ele>179</ele>
        <time>2017-04-27T08:31:23Z</time>
      </trkpt>
      <trkpt lat="45.89865" lon="4.73917">
        <ele>179</ele>
        <time>2017-04-27T08:31:24Z</time>
      </trkpt>
      <trkpt lat="45.89859" lon="4.73919">
        <ele>179</ele>
        <time>2017-04-27T08:31:25Z</time>
      </trkpt>
      <trkpt lat="45.89853" lon="4.73922">
        <ele>179</ele>
        <time>2017-04-27T08:31:26Z</time>
      </trkpt>
      <trkpt lat="45.89847" lon="4.73924">
        <ele>179</ele>
        <time>2017-04-27T08:31:27Z</time>
      </trkpt>
      <trkpt lat="45.89841" lon="4.73927">
        <ele>179</ele>
        <time>2017-04-27T08:31:28Z</time>
      </trkpt>
      <trkpt lat="45.89835" lon="4.7393">
        <ele>179</ele>
        <time>2017-04-27T08:31:29Z</time>
      </trkpt>
      <trkpt lat="45.89828" lon="4.73933">
        <ele>179</ele>
        <time>2017-04-27T08:31:30Z</time>
      </trkpt>
      <trkpt lat="45.89822" lon="4.73935">
        <ele>179</ele>
        <time>2017-04-27T08:31:31Z</time>
      </trkpt>
      <trkpt lat="45.89816" lon="4.73938">
        <ele>179</ele>
        <time>2017-04-27T08:31:32Z</time>
      </trkpt>
      <trkpt lat="45.8981" lon="4.7394">
        <ele>179</ele>
        <time>2017-04-27T08:31:33Z</time>
      </trkpt>
      <trkpt lat="45.89804" lon="4.73943">
        <ele>179</ele>
        <time>2017-04-27T08:31:34Z</time>
      </trkpt>
      <trkpt lat="45.89798" lon="4.73946">
        <ele>179</ele>
        <time>2017-04-27T08:31:35Z</time>
      </trkpt>
      <trkpt lat="45.89792" lon="4.73949">
        <ele>179</ele>
        <time>2017-04-27T08:31:36Z</time>
      </trkpt>
      <trkpt lat="45.89786" lon="4.73951">
        <ele>179</ele>
        <time>2017-04-27T08:31:37Z</time>
      </trkpt>
      <trkpt lat="45.8978" lon="4.73954">
        <ele>179</ele>
        <time>2017-04-27T08:31:38Z</time>
      </trkpt>
      <trkpt lat="45.89774" lon="4.73956">
        <ele>179</ele>
        <time>2017-04-27T08:31:39Z</time>
      </trkpt>
      <trkpt lat="45.89768" lon="4.73959">
        <ele>179</ele>
        <time>2017-04-27T08:31:40Z</time>
      </trkpt>
      <trkpt lat="45.89762" lon="4.73962">
        <ele>179</ele>
        <time>2017-04-27T08:31:41Z</time>
      </trkpt>
      <trkpt lat="45.89756" lon="4.73964">
        <ele>178</ele>
        <time>2017-04-27T08:31:42Z</time>
      </trkpt>
      <trkpt lat="45.8975" lon="4.73967">
        <ele>178</ele>
        <time>2017-04-27T08:31:43Z</time>
      </trkpt>
      <trkpt lat="45.89744" lon="4.73969">
        <ele>178</ele>
        <time>2017-04-27T08:31:44Z</time>
      </trkpt>
      <trkpt lat="45.89738" lon="4.73972">
        <ele>178</ele>
        <time>2017-04-27T08:31:45Z</time>
      </trkpt>
      <trkpt lat="45.89733" lon="4.73974">
        <ele>178</ele>
        <time>2017-04-27T08:31:46Z</time>
      </trkpt>
      <trkpt lat="45.89727" lon="4.73976">
        <ele>178</ele>
        <time>2017-04-27T08:31:47Z</time>
      </trkpt>
      <trkpt lat="45.89722" lon="4.73979">
        <ele>178</ele>
        <time>2017-04-27T08:31:48Z</time>
      </trkpt>
      <trkpt lat="45.89716" lon="4.73981">
        <ele>178</ele>
        <time>2017-04-27T08:31:49Z</time>
      </trkpt>
      <trkpt lat="45.8971" lon="4.73983">
        <ele>178</ele>
        <time>2017-04-27T08:31:50Z</time>
      </trkpt>
      <trkpt lat="45.89704" lon="4.73985">
        <ele>178</ele>
        <time>2017-04-27T08:31:51Z</time>
      </trkpt>
      <trkpt lat="45.89699" lon="4.73988">
        <ele>178</ele>
        <time>2017-04-27T08:31:52Z</time>
      </trkpt>
      <trkpt lat="45.89693" lon="4.7399">
        <ele>178</ele>
        <time>2017-04-27T08:31:53Z</time>
      </trkpt>
      <trkpt lat="45.89687" lon="4.73993">
        <ele>179</ele>
        <time>2017-04-27T08:31:54Z</time>
      </trkpt>
      <trkpt lat="45.89681" lon="4.73995">
        <ele>179</ele>
        <time>2017-04-27T08:31:55Z</time>
      </trkpt>
      <trkpt lat="45.89675" lon="4.73998">
        <ele>179</ele>
        <time>2017-04-27T08:31:56Z</time>
      </trkpt>
      <trkpt lat="45.89669" lon="4.74">
        <ele>179</ele>
        <time>2017-04-27T08:31:57Z</time>
      </trkpt>
      <trkpt lat="45.89664" lon="4.74003">
        <ele>179</ele>
        <time>2017-04-27T08:31:58Z</time>
      </trkpt>
      <trkpt lat="45.89658" lon="4.74005">
        <ele>179</ele>
        <time>2017-04-27T08:31:59Z</time>
      </trkpt>
      <trkpt lat="45.89653" lon="4.74008">
        <ele>179</ele>
        <time>2017-04-27T08:32:00Z</time>
      </trkpt>
      <trkpt lat="45.89647" lon="4.74011">
        <ele>180</ele>
        <time>2017-04-27T08:32:01Z</time>
      </trkpt>
      <trkpt lat="45.89641" lon="4.74013">
        <ele>180</ele>
        <time>2017-04-27T08:32:02Z</time>
      </trkpt>
      <trkpt lat="45.89636" lon="4.74016">
        <ele>180</ele>
        <time>2017-04-27T08:32:03Z</time>
      </trkpt>
      <trkpt lat="45.8963" lon="4.74018">
        <ele>180</ele>
        <time>2017-04-27T08:32:04Z</time>
      </trkpt>
      <trkpt lat="45.89625" lon="4.7402">
        <ele>180</ele>
        <time>2017-04-27T08:32:05Z</time>
      </trkpt>
      <trkpt lat="45.89619" lon="4.74022">
        <ele>180</ele>
        <time>2017-04-27T08:32:06Z</time>
      </trkpt>
      <trkpt lat="45.89614" lon="4.74025">
        <ele>180</ele>
        <time>2017-04-27T08:32:07Z</time>
      </trkpt>
      <trkpt lat="45.89608" lon="4.74027">
        <ele>180</ele>
        <time>2017-04-27T08:32:08Z</time>
      </trkpt>
      <trkpt lat="45.89602" lon="4.7403">
        <ele>180</ele>
        <time>2017-04-27T08:32:09Z</time>
      </trkpt>
      <trkpt lat="45.89597" lon="4.74032">
        <ele>180</ele>
        <time>2017-04-27T08:32:10Z</time>
      </trkpt>
      <trkpt lat="45.89591" lon="4.74035">
        <ele>180</ele>
        <time>2017-04-27T08:32:11Z</time>
      </trkpt>
      <trkpt lat="45.89585" lon="4.74037">
        <ele>180</ele>
        <time>2017-04-27T08:32:12Z</time>
      </trkpt>
      <trkpt lat="45.89579" lon="4.74039">
        <ele>181</ele>
        <time>2017-04-27T08:32:13Z</time>
      </trkpt>
      <trkpt lat="45.89573" lon="4.74042">
        <ele>181</ele>
        <time>2017-04-27T08:32:14Z</time>
      </trkpt>
      <trkpt lat="45.89568" lon="4.74044">
        <ele>181</ele>
        <time>2017-04-27T08:32:15Z</time>
      </trkpt>
      <trkpt lat="45.89562" lon="4.74047">
        <ele>181</ele>
        <time>2017-04-27T08:32:16Z</time>
      </trkpt>
      <trkpt lat="45.89557" lon="4.74049">
        <ele>181</ele>
        <time>2017-04-27T08:32:17Z</time>
      </trkpt>
      <trkpt lat="45.89551" lon="4.74051">
        <ele>181</ele>
        <time>2017-04-27T08:32:18Z</time>
      </trkpt>
      <trkpt lat="45.89545" lon="4.74054">
        <ele>181</ele>
        <time>2017-04-27T08:32:19Z</time>
      </trkpt>
      <trkpt lat="45.8954" lon="4.74056">
        <ele>181</ele>
        <time>2017-04-27T08:32:20Z</time>
      </trkpt>
      <trkpt lat="45.89534" lon="4.74059">
        <ele>181</ele>
        <time>2017-04-27T08:32:21Z</time>
      </trkpt>
      <trkpt lat="45.89529" lon="4.74061">
        <ele>181</ele>
        <time>2017-04-27T08:32:22Z</time>
      </trkpt>
      <trkpt lat="45.89523" lon="4.74063">
        <ele>181</ele>
        <time>2017-04-27T08:32:23Z</time>
      </trkpt>
      <trkpt lat="45.89517" lon="4.74066">
        <ele>181</ele>
        <time>2017-04-27T08:32:24Z</time>
      </trkpt>
      <trkpt lat="45.89512" lon="4.74068">
        <ele>181</ele>
        <time>2017-04-27T08:32:25Z</time>
      </trkpt>
      <trkpt lat="45.89506" lon="4.74071">
        <ele>181</ele>
        <time>2017-04-27T08:32:26Z</time>
      </trkpt>
      <trkpt lat="45.895" lon="4.74073">
        <ele>181</ele>
        <time>2017-04-27T08:32:27Z</time>
      </trkpt>
      <trkpt lat="45.89495" lon="4.74075">
        <ele>181</ele>
        <time>2017-04-27T08:32:28Z</time>
      </trkpt>
      <trkpt lat="45.8949" lon="4.74077">
        <ele>181</ele>
        <time>2017-04-27T08:32:29Z</time>
      </trkpt>
      <trkpt lat="45.89485" lon="4.7408">
        <ele>181</ele>
        <time>2017-04-27T08:32:30Z</time>
      </trkpt>
      <trkpt lat="45.89479" lon="4.74082">
        <ele>181</ele>
        <time>2017-04-27T08:32:31Z</time>
      </trkpt>
      <trkpt lat="45.89474" lon="4.74084">
        <ele>182</ele>
        <time>2017-04-27T08:32:32Z</time>
      </trkpt>
      <trkpt lat="45.89468" lon="4.74087">
        <ele>182</ele>
        <time>2017-04-27T08:32:33Z</time>
      </trkpt>
      <trkpt lat="45.89463" lon="4.74089">
        <ele>182</ele>
        <time>2017-04-27T08:32:34Z</time>
      </trkpt>
      <trkpt lat="45.89458" lon="4.74091">
        <ele>182</ele>
        <time>2017-04-27T08:32:35Z</time>
      </trkpt>
      <trkpt lat="45.89452" lon="4.74094">
        <ele>182</ele>
        <time>2017-04-27T08:32:36Z</time>
      </trkpt>
      <trkpt lat="45.89447" lon="4.74096">
        <ele>182</ele>
        <time>2017-04-27T08:32:37Z</time>
      </trkpt>
      <trkpt lat="45.89442" lon="4.74098">
        <ele>182</ele>
        <time>2017-04-27T08:32:38Z</time>
      </trkpt>
      <trkpt lat="45.89436" lon="4.741">
        <ele>182</ele>
        <time>2017-04-27T08:32:39Z</time>
      </trkpt>
      <trkpt lat="45.89431" lon="4.74103">
        <ele>182</ele>
        <time>2017-04-27T08:32:40Z</time>
      </trkpt>
      <trkpt lat="45.89426" lon="4.74105">
        <ele>182</ele>
        <time>2017-04-27T08:32:41Z</time>
      </trkpt>
      <trkpt lat="45.89422" lon="4.74105">
        <ele>182</ele>
        <time>2017-04-27T08:32:42Z</time>
      </trkpt>
      <trkpt lat="45.89416" lon="4.74107">
        <ele>183</ele>
        <time>2017-04-27T08:32:43Z</time>
      </trkpt>
      <trkpt lat="45.8941" lon="4.7411">
        <ele>183</ele>
        <time>2017-04-27T08:32:44Z</time>
      </trkpt>
      <trkpt lat="45.89405" lon="4.74112">
        <ele>183</ele>
        <time>2017-04-27T08:32:45Z</time>
      </trkpt>
      <trkpt lat="45.89399" lon="4.74115">
        <ele>184</ele>
        <time>2017-04-27T08:32:46Z</time>
      </trkpt>
      <trkpt lat="45.89394" lon="4.74117">
        <ele>184</ele>
        <time>2017-04-27T08:32:47Z</time>
      </trkpt>
      <trkpt lat="45.89388" lon="4.7412">
        <ele>184</ele>
        <time>2017-04-27T08:32:48Z</time>
      </trkpt>
      <trkpt lat="45.89383" lon="4.74123">
        <ele>184</ele>
        <time>2017-04-27T08:32:49Z</time>
      </trkpt>
      <trkpt lat="45.89377" lon="4.74125">
        <ele>184</ele>
        <time>2017-04-27T08:32:50Z</time>
      </trkpt>
      <trkpt lat="45.89372" lon="4.74128">
        <ele>184</ele>
        <time>2017-04-27T08:32:51Z</time>
      </trkpt>
      <trkpt lat="45.89367" lon="4.7413">
        <ele>184</ele>
        <time>2017-04-27T08:32:52Z</time>
      </trkpt>
      <trkpt lat="45.89361" lon="4.74132">
        <ele>184</ele>
        <time>2017-04-27T08:32:53Z</time>
      </trkpt>
      <trkpt lat="45.89356" lon="4.74134">
        <ele>184</ele>
        <time>2017-04-27T08:32:54Z</time>
      </trkpt>
      <trkpt lat="45.8935" lon="4.74137">
        <ele>184</ele>
        <time>2017-04-27T08:32:55Z</time>
      </trkpt>
      <trkpt lat="45.89345" lon="4.74139">
        <ele>185</ele>
        <time>2017-04-27T08:32:56Z</time>
      </trkpt>
      <trkpt lat="45.89339" lon="4.74141">
        <ele>185</ele>
        <time>2017-04-27T08:32:57Z</time>
      </trkpt>
      <trkpt lat="45.89334" lon="4.74143">
        <ele>185</ele>
        <time>2017-04-27T08:32:58Z</time>
      </trkpt>
      <trkpt lat="45.89329" lon="4.74146">
        <ele>185</ele>
        <time>2017-04-27T08:32:59Z</time>
      </trkpt>
      <trkpt lat="45.89323" lon="4.74148">
        <ele>185</ele>
        <time>2017-04-27T08:33:00Z</time>
      </trkpt>
      <trkpt lat="45.89317" lon="4.7415">
        <ele>185</ele>
        <time>2017-04-27T08:33:01Z</time>
      </trkpt>
      <trkpt lat="45.89312" lon="4.74153">
        <ele>185</ele>
        <time>2017-04-27T08:33:02Z</time>
      </trkpt>
      <trkpt lat="45.89306" lon="4.74156">
        <ele>185</ele>
        <time>2017-04-27T08:33:03Z</time>
      </trkpt>
      <trkpt lat="45.893" lon="4.74159">
        <ele>185</ele>
        <time>2017-04-27T08:33:04Z</time>
      </trkpt>
      <trkpt lat="45.89295" lon="4.74162">
        <ele>185</ele>
        <time>2017-04-27T08:33:05Z</time>
      </trkpt>
      <trkpt lat="45.89289" lon="4.74164">
        <ele>185</ele>
        <time>2017-04-27T08:33:06Z</time>
      </trkpt>
      <trkpt lat="45.89283" lon="4.74167">
        <ele>186</ele>
        <time>2017-04-27T08:33:07Z</time>
      </trkpt>
      <trkpt lat="45.89278" lon="4.7417">
        <ele>186</ele>
        <time>2017-04-27T08:33:08Z</time>
      </trkpt>
      <trkpt lat="45.89272" lon="4.74173">
        <ele>186</ele>
        <time>2017-04-27T08:33:09Z</time>
      </trkpt>
      <trkpt lat="45.89266" lon="4.74175">
        <ele>186</ele>
        <time>2017-04-27T08:33:10Z</time>
      </trkpt>
      <trkpt lat="45.8926" lon="4.74178">
        <ele>185</ele>
        <time>2017-04-27T08:33:11Z</time>
      </trkpt>
      <trkpt lat="45.89254" lon="4.7418">
        <ele>185</ele>
        <time>2017-04-27T08:33:12Z</time>
      </trkpt>
      <trkpt lat="45.89248" lon="4.74182">
        <ele>185</ele>
        <time>2017-04-27T08:33:13Z</time>
      </trkpt>
      <trkpt lat="45.89243" lon="4.74184">
        <ele>186</ele>
        <time>2017-04-27T08:33:14Z</time>
      </trkpt>
      <trkpt lat="45.89238" lon="4.74186">
        <ele>186</ele>
        <time>2017-04-27T08:33:15Z</time>
      </trkpt>
      <trkpt lat="45.89233" lon="4.74188">
        <ele>186</ele>
        <time>2017-04-27T08:33:16Z</time>
      </trkpt>
      <trkpt lat="45.89228" lon="4.7419">
        <ele>186</ele>
        <time>2017-04-27T08:33:17Z</time>
      </trkpt>
      <trkpt lat="45.89222" lon="4.74193">
        <ele>186</ele>
        <time>2017-04-27T08:33:18Z</time>
      </trkpt>
      <trkpt lat="45.89216" lon="4.74195">
        <ele>186</ele>
        <time>2017-04-27T08:33:19Z</time>
      </trkpt>
      <trkpt lat="45.8921" lon="4.74198">
        <ele>186</ele>
        <time>2017-04-27T08:33:20Z</time>
      </trkpt>
      <trkpt lat="45.89205" lon="4.742">
        <ele>186</ele>
        <time>2017-04-27T08:33:21Z</time>
      </trkpt>
      <trkpt lat="45.892" lon="4.74203">
        <ele>186</ele>
        <time>2017-04-27T08:33:22Z</time>
      </trkpt>
      <trkpt lat="45.89195" lon="4.74206">
        <ele>186</ele>
        <time>2017-04-27T08:33:23Z</time>
      </trkpt>
      <trkpt lat="45.89189" lon="4.74208">
        <ele>186</ele>
        <time>2017-04-27T08:33:24Z</time>
      </trkpt>
      <trkpt lat="45.89184" lon="4.7421">
        <ele>186</ele>
        <time>2017-04-27T08:33:25Z</time>
      </trkpt>
      <trkpt lat="45.89179" lon="4.74213">
        <ele>186</ele>
        <time>2017-04-27T08:33:26Z</time>
      </trkpt>
      <trkpt lat="45.89174" lon="4.74215">
        <ele>186</ele>
        <time>2017-04-27T08:33:27Z</time>
      </trkpt>
      <trkpt lat="45.89168" lon="4.74217">
        <ele>186</ele>
        <time>2017-04-27T08:33:28Z</time>
      </trkpt>
      <trkpt lat="45.89163" lon="4.74219">
        <ele>186</ele>
        <time>2017-04-27T08:33:29Z</time>
      </trkpt>
      <trkpt lat="45.89158" lon="4.74221">
        <ele>186</ele>
        <time>2017-04-27T08:33:30Z</time>
      </trkpt>
      <trkpt lat="45.89152" lon="4.74223">
        <ele>186</ele>
        <time>2017-04-27T08:33:31Z</time>
      </trkpt>
      <trkpt lat="45.89147" lon="4.74226">
        <ele>186</ele>
        <time>2017-04-27T08:33:32Z</time>
      </trkpt>
      <trkpt lat="45.89141" lon="4.74228">
        <ele>186</ele>
        <time>2017-04-27T08:33:33Z</time>
      </trkpt>
      <trkpt lat="45.89136" lon="4.74234">
        <ele>186</ele>
        <time>2017-04-27T08:33:34Z</time>
      </trkpt>
      <trkpt lat="45.89131" lon="4.74236">
        <ele>186</ele>
        <time>2017-04-27T08:33:35Z</time>
      </trkpt>
      <trkpt lat="45.89125" lon="4.74239">
        <ele>186</ele>
        <time>2017-04-27T08:33:36Z</time>
      </trkpt>
      <trkpt lat="45.89119" lon="4.7424">
        <ele>186</ele>
        <time>2017-04-27T08:33:37Z</time>
      </trkpt>
      <trkpt lat="45.89114" lon="4.74242">
        <ele>186</ele>
        <time>2017-04-27T08:33:38Z</time>
      </trkpt>
      <trkpt lat="45.89108" lon="4.74244">
        <ele>186</ele>
        <time>2017-04-27T08:33:39Z</time>
      </trkpt>
      <trkpt lat="45.89102" lon="4.74245">
        <ele>186</ele>
        <time>2017-04-27T08:33:40Z</time>
      </trkpt>
      <trkpt lat="45.89097" lon="4.74246">
        <ele>186</ele>
        <time>2017-04-27T08:33:41Z</time>
      </trkpt>
      <trkpt lat="45.89091" lon="4.74248">
        <ele>186</ele>
        <time>2017-04-27T08:33:42Z</time>
      </trkpt>
      <trkpt lat="45.89086" lon="4.7425">
        <ele>186</ele>
        <time>2017-04-27T08:33:43Z</time>
      </trkpt>
      <trkpt lat="45.8908" lon="4.74252">
        <ele>186</ele>
        <time>2017-04-27T08:33:44Z</time>
      </trkpt>
      <trkpt lat="45.89074" lon="4.74254">
        <ele>186</ele>
        <time>2017-04-27T08:33:45Z</time>
      </trkpt>
      <trkpt lat="45.89069" lon="4.74255">
        <ele>186</ele>
        <time>2017-04-27T08:33:46Z</time>
      </trkpt>
      <trkpt lat="45.89063" lon="4.74258">
        <ele>186</ele>
        <time>2017-04-27T08:33:47Z</time>
      </trkpt>
      <trkpt lat="45.89057" lon="4.7426">
        <ele>187</ele>
        <time>2017-04-27T08:33:48Z</time>
      </trkpt>
      <trkpt lat="45.89051" lon="4.74262">
        <ele>187</ele>
        <time>2017-04-27T08:33:49Z</time>
      </trkpt>
      <trkpt lat="45.89045" lon="4.74264">
        <ele>187</ele>
        <time>2017-04-27T08:33:50Z</time>
      </trkpt>
      <trkpt lat="45.89039" lon="4.74266">
        <ele>187</ele>
        <time>2017-04-27T08:33:51Z</time>
      </trkpt>
      <trkpt lat="45.89033" lon="4.74268">
        <ele>187</ele>
        <time>2017-04-27T08:33:52Z</time>
      </trkpt>
      <trkpt lat="45.89027" lon="4.74269">
        <ele>187</ele>
        <time>2017-04-27T08:33:53Z</time>
      </trkpt>
      <trkpt lat="45.89022" lon="4.74271">
        <ele>187</ele>
        <time>2017-04-27T08:33:54Z</time>
      </trkpt>
      <trkpt lat="45.89017" lon="4.74273">
        <ele>187</ele>
        <time>2017-04-27T08:33:55Z</time>
      </trkpt>
      <trkpt lat="45.89011" lon="4.74275">
        <ele>187</ele>
        <time>2017-04-27T08:33:56Z</time>
      </trkpt>
      <trkpt lat="45.89005" lon="4.74277">
        <ele>187</ele>
        <time>2017-04-27T08:33:57Z</time>
      </trkpt>
      <trkpt lat="45.88999" lon="4.74278">
        <ele>187</ele>
        <time>2017-04-27T08:33:58Z</time>
      </trkpt>
      <trkpt lat="45.88993" lon="4.7428">
        <ele>187</ele>
        <time>2017-04-27T08:33:59Z</time>
      </trkpt>
      <trkpt lat="45.88987" lon="4.74282">
        <ele>187</ele>
        <time>2017-04-27T08:34:00Z</time>
      </trkpt>
      <trkpt lat="45.88982" lon="4.74283">
        <ele>187</ele>
        <time>2017-04-27T08:34:01Z</time>
      </trkpt>
      <trkpt lat="45.88976" lon="4.74284">
        <ele>187</ele>
        <time>2017-04-27T08:34:02Z</time>
      </trkpt>
      <trkpt lat="45.8897" lon="4.74283">
        <ele>187</ele>
        <time>2017-04-27T08:34:03Z</time>
      </trkpt>
      <trkpt lat="45.88965" lon="4.74281">
        <ele>187</ele>
        <time>2017-04-27T08:34:04Z</time>
      </trkpt>
      <trkpt lat="45.8896" lon="4.74277">
        <ele>187</ele>
        <time>2017-04-27T08:34:05Z</time>
      </trkpt>
      <trkpt lat="45.88955" lon="4.74274">
        <ele>187</ele>
        <time>2017-04-27T08:34:06Z</time>
      </trkpt>
      <trkpt lat="45.88949" lon="4.74272">
        <ele>187</ele>
        <time>2017-04-27T08:34:07Z</time>
      </trkpt>
      <trkpt lat="45.88943" lon="4.74271">
        <ele>187</ele>
        <time>2017-04-27T08:34:08Z</time>
      </trkpt>
      <trkpt lat="45.88937" lon="4.7427">
        <ele>187</ele>
        <time>2017-04-27T08:34:09Z</time>
      </trkpt>
      <trkpt lat="45.88932" lon="4.74269">
        <ele>187</ele>
        <time>2017-04-27T08:34:10Z</time>
      </trkpt>
      <trkpt lat="45.88926" lon="4.74268">
        <ele>187</ele>
        <time>2017-04-27T08:34:11Z</time>
      </trkpt>
      <trkpt lat="45.88922" lon="4.74267">
        <ele>187</ele>
        <time>2017-04-27T08:34:12Z</time>
      </trkpt>
      <trkpt lat="45.88914" lon="4.74263">
        <ele>187</ele>
        <time>2017-04-27T08:34:14Z</time>
      </trkpt>
      <trkpt lat="45.8891" lon="4.7426">
        <ele>187</ele>
        <time>2017-04-27T08:34:15Z</time>
      </trkpt>
      <trkpt lat="45.88902" lon="4.74254">
        <ele>187</ele>
        <time>2017-04-27T08:34:17Z</time>
      </trkpt>
      <trkpt lat="45.88899" lon="4.74251">
        <ele>187</ele>
        <time>2017-04-27T08:34:18Z</time>
      </trkpt>
      <trkpt lat="45.88892" lon="4.74243">
        <ele>187</ele>
        <time>2017-04-27T08:34:20Z</time>
      </trkpt>
      <trkpt lat="45.88888" lon="4.7424">
        <ele>187</ele>
        <time>2017-04-27T08:34:21Z</time>
      </trkpt>
      <trkpt lat="45.88884" lon="4.74237">
        <ele>187</ele>
        <time>2017-04-27T08:34:22Z</time>
      </trkpt>
      <trkpt lat="45.88879" lon="4.74235">
        <ele>187</ele>
        <time>2017-04-27T08:34:23Z</time>
      </trkpt>
      <trkpt lat="45.88874" lon="4.74232">
        <ele>187</ele>
        <time>2017-04-27T08:34:24Z</time>
      </trkpt>
      <trkpt lat="45.8887" lon="4.74228">
        <ele>187</ele>
        <time>2017-04-27T08:34:25Z</time>
      </trkpt>
      <trkpt lat="45.88866" lon="4.74225">
        <ele>187</ele>
        <time>2017-04-27T08:34:26Z</time>
      </trkpt>
      <trkpt lat="45.88862" lon="4.74221">
        <ele>187</ele>
        <time>2017-04-27T08:34:27Z</time>
      </trkpt>
      <trkpt lat="45.88857" lon="4.74218">
        <ele>187</ele>
        <time>2017-04-27T08:34:28Z</time>
      </trkpt>
      <trkpt lat="45.88852" lon="4.74215">
        <ele>187</ele>
        <time>2017-04-27T08:34:29Z</time>
      </trkpt>
      <trkpt lat="45.88848" lon="4.74212">
        <ele>187</ele>
        <time>2017-04-27T08:34:30Z</time>
      </trkpt>
      <trkpt lat="45.88843" lon="4.74208">
        <ele>187</ele>
        <time>2017-04-27T08:34:31Z</time>
      </trkpt>
      <trkpt lat="45.88837" lon="4.74205">
        <ele>187</ele>
        <time>2017-04-27T08:34:32Z</time>
      </trkpt>
      <trkpt lat="45.88832" lon="4.74202">
        <ele>187</ele>
        <time>2017-04-27T08:34:33Z</time>
      </trkpt>
      <trkpt lat="45.88827" lon="4.74199">
        <ele>187</ele>
        <time>2017-04-27T08:34:34Z</time>
      </trkpt>
      <trkpt lat="45.88822" lon="4.74195">
        <ele>187</ele>
        <time>2017-04-27T08:34:35Z</time>
      </trkpt>
      <trkpt lat="45.88817" lon="4.74191">
        <ele>187</ele>
        <time>2017-04-27T08:34:36Z</time>
      </trkpt>
      <trkpt lat="45.88811" lon="4.74188">
        <ele>187</ele>
        <time>2017-04-27T08:34:37Z</time>
      </trkpt>
      <trkpt lat="45.88805" lon="4.74185">
        <ele>187</ele>
        <time>2017-04-27T08:34:38Z</time>
      </trkpt>
      <trkpt lat="45.888" lon="4.74183">
        <ele>187</ele>
        <time>2017-04-27T08:34:39Z</time>
      </trkpt>
      <trkpt lat="45.88795" lon="4.7418">
        <ele>187</ele>
        <time>2017-04-27T08:34:40Z</time>
      </trkpt>
      <trkpt lat="45.8879" lon="4.74177">
        <ele>188</ele>
        <time>2017-04-27T08:34:41Z</time>
      </trkpt>
      <trkpt lat="45.88785" lon="4.74174">
        <ele>188</ele>
        <time>2017-04-27T08:34:42Z</time>
      </trkpt>
      <trkpt lat="45.8878" lon="4.74171">
        <ele>188</ele>
        <time>2017-04-27T08:34:43Z</time>
      </trkpt>
      <trkpt lat="45.88774" lon="4.74168">
        <ele>188</ele>
        <time>2017-04-27T08:34:44Z</time>
      </trkpt>
      <trkpt lat="45.8877" lon="4.74164">
        <ele>187</ele>
        <time>2017-04-27T08:34:45Z</time>
      </trkpt>
      <trkpt lat="45.88765" lon="4.74161">
        <ele>187</ele>
        <time>2017-04-27T08:34:46Z</time>
      </trkpt>
      <trkpt lat="45.88761" lon="4.74158">
        <ele>187</ele>
        <time>2017-04-27T08:34:47Z</time>
      </trkpt>
      <trkpt lat="45.88756" lon="4.74155">
        <ele>187</ele>
        <time>2017-04-27T08:34:48Z</time>
      </trkpt>
      <trkpt lat="45.88752" lon="4.74152">
        <ele>187</ele>
        <time>2017-04-27T08:34:49Z</time>
      </trkpt>
      <trkpt lat="45.88748" lon="4.74148">
        <ele>188</ele>
        <time>2017-04-27T08:34:50Z</time>
      </trkpt>
      <trkpt lat="45.88743" lon="4.74145">
        <ele>188</ele>
        <time>2017-04-27T08:34:51Z</time>
      </trkpt>
      <trkpt lat="45.88739" lon="4.74141">
        <ele>188</ele>
        <time>2017-04-27T08:34:52Z</time>
      </trkpt>
      <trkpt lat="45.88734" lon="4.74138">
        <ele>188</ele>
        <time>2017-04-27T08:34:53Z</time>
      </trkpt>
      <trkpt lat="45.88729" lon="4.74134">
        <ele>188</ele>
        <time>2017-04-27T08:34:54Z</time>
      </trkpt>
      <trkpt lat="45.88725" lon="4.7413">
        <ele>188</ele>
        <time>2017-04-27T08:34:55Z</time>
      </trkpt>
      <trkpt lat="45.8872" lon="4.74126">
        <ele>188</ele>
        <time>2017-04-27T08:34:56Z</time>
      </trkpt>
      <trkpt lat="45.88715" lon="4.74122">
        <ele>188</ele>
        <time>2017-04-27T08:34:57Z</time>
      </trkpt>
      <trkpt lat="45.8871" lon="4.74118">
        <ele>188</ele>
        <time>2017-04-27T08:34:58Z</time>
      </trkpt>
      <trkpt lat="45.88705" lon="4.74114">
        <ele>188</ele>
        <time>2017-04-27T08:34:59Z</time>
      </trkpt>
      <trkpt lat="45.887" lon="4.74111">
        <ele>188</ele>
        <time>2017-04-27T08:35:00Z</time>
      </trkpt>
      <trkpt lat="45.88694" lon="4.74109">
        <ele>188</ele>
        <time>2017-04-27T08:35:01Z</time>
      </trkpt>
      <trkpt lat="45.88689" lon="4.74107">
        <ele>188</ele>
        <time>2017-04-27T08:35:02Z</time>
      </trkpt>
      <trkpt lat="45.88684" lon="4.74105">
        <ele>188</ele>
        <time>2017-04-27T08:35:03Z</time>
      </trkpt>
      <trkpt lat="45.88679" lon="4.74102">
        <ele>188</ele>
        <time>2017-04-27T08:35:04Z</time>
      </trkpt>
      <trkpt lat="45.88676" lon="4.74097">
        <ele>188</ele>
        <time>2017-04-27T08:35:05Z</time>
      </trkpt>
      <trkpt lat="45.88673" lon="4.7409">
        <ele>188</ele>
        <time>2017-04-27T08:35:06Z</time>
      </trkpt>
      <trkpt lat="45.88671" lon="4.74083">
        <ele>188</ele>
        <time>2017-04-27T08:35:07Z</time>
      </trkpt>
      <trkpt lat="45.88669" lon="4.74076">
        <ele>188</ele>
        <time>2017-04-27T08:35:08Z</time>
      </trkpt>
      <trkpt lat="45.88667" lon="4.74069">
        <ele>187</ele>
        <time>2017-04-27T08:35:09Z</time>
      </trkpt>
      <trkpt lat="45.88665" lon="4.74063">
        <ele>188</ele>
        <time>2017-04-27T08:35:10Z</time>
      </trkpt>
      <trkpt lat="45.88664" lon="4.74056">
        <ele>187</ele>
        <time>2017-04-27T08:35:11Z</time>
      </trkpt>
      <trkpt lat="45.88662" lon="4.74049">
        <ele>187</ele>
        <time>2017-04-27T08:35:12Z</time>
      </trkpt>
      <trkpt lat="45.8866" lon="4.74042">
        <ele>187</ele>
        <time>2017-04-27T08:35:13Z</time>
      </trkpt>
      <trkpt lat="45.88658" lon="4.74035">
        <ele>187</ele>
        <time>2017-04-27T08:35:14Z</time>
      </trkpt>
      <trkpt lat="45.88656" lon="4.74028">
        <ele>187</ele>
        <time>2017-04-27T08:35:15Z</time>
      </trkpt>
      <trkpt lat="45.88655" lon="4.7402">
        <ele>187</ele>
        <time>2017-04-27T08:35:16Z</time>
      </trkpt>
      <trkpt lat="45.88654" lon="4.74012">
        <ele>187</ele>
        <time>2017-04-27T08:35:17Z</time>
      </trkpt>
      <trkpt lat="45.88653" lon="4.74005">
        <ele>187</ele>
        <time>2017-04-27T08:35:18Z</time>
      </trkpt>
      <trkpt lat="45.88652" lon="4.73997">
        <ele>186</ele>
        <time>2017-04-27T08:35:19Z</time>
      </trkpt>
      <trkpt lat="45.88651" lon="4.7399">
        <ele>186</ele>
        <time>2017-04-27T08:35:20Z</time>
      </trkpt>
      <trkpt lat="45.8865" lon="4.73982">
        <ele>187</ele>
        <time>2017-04-27T08:35:21Z</time>
      </trkpt>
      <trkpt lat="45.8865" lon="4.73975">
        <ele>187</ele>
        <time>2017-04-27T08:35:22Z</time>
      </trkpt>
      <trkpt lat="45.88649" lon="4.73967">
        <ele>187</ele>
        <time>2017-04-27T08:35:23Z</time>
      </trkpt>
      <trkpt lat="45.88648" lon="4.73959">
        <ele>187</ele>
        <time>2017-04-27T08:35:24Z</time>
      </trkpt>
      <trkpt lat="45.88647" lon="4.73952">
        <ele>187</ele>
        <time>2017-04-27T08:35:25Z</time>
      </trkpt>
      <trkpt lat="45.88645" lon="4.73944">
        <ele>187</ele>
        <time>2017-04-27T08:35:26Z</time>
      </trkpt>
      <trkpt lat="45.88644" lon="4.73936">
        <ele>187</ele>
        <time>2017-04-27T08:35:27Z</time>
      </trkpt>
      <trkpt lat="45.88643" lon="4.73928">
        <ele>187</ele>
        <time>2017-04-27T08:35:28Z</time>
      </trkpt>
      <trkpt lat="45.88643" lon="4.7392">
        <ele>187</ele>
        <time>2017-04-27T08:35:29Z</time>
      </trkpt>
      <trkpt lat="45.88643" lon="4.73912">
        <ele>187</ele>
        <time>2017-04-27T08:35:30Z</time>
      </trkpt>
      <trkpt lat="45.88643" lon="4.73904">
        <ele>187</ele>
        <time>2017-04-27T08:35:31Z</time>
      </trkpt>
      <trkpt lat="45.88643" lon="4.73896">
        <ele>187</ele>
        <time>2017-04-27T08:35:32Z</time>
      </trkpt>
      <trkpt lat="45.88643" lon="4.73888">
        <ele>187</ele>
        <time>2017-04-27T08:35:33Z</time>
      </trkpt>
      <trkpt lat="45.88642" lon="4.7388">
        <ele>187</ele>
        <time>2017-04-27T08:35:34Z</time>
      </trkpt>
      <trkpt lat="45.88642" lon="4.73872">
        <ele>187</ele>
        <time>2017-04-27T08:35:35Z</time>
      </trkpt>
      <trkpt lat="45.88642" lon="4.73865">
        <ele>187</ele>
        <time>2017-04-27T08:35:36Z</time>
      </trkpt>
      <trkpt lat="45.88643" lon="4.73857">
        <ele>187</ele>
        <time>2017-04-27T08:35:37Z</time>
      </trkpt>
      <trkpt lat="45.88643" lon="4.7385">
        <ele>187</ele>
        <time>2017-04-27T08:35:38Z</time>
      </trkpt>
      <trkpt lat="45.88644" lon="4.73842">
        <ele>187</ele>
        <time>2017-04-27T08:35:39Z</time>
      </trkpt>
      <trkpt lat="45.88644" lon="4.73834">
        <ele>187</ele>
        <time>2017-04-27T08:35:40Z</time>
      </trkpt>
      <trkpt lat="45.88644" lon="4.73827">
        <ele>187</ele>
        <time>2017-04-27T08:35:41Z</time>
      </trkpt>
      <trkpt lat="45.88645" lon="4.73819">
        <ele>187</ele>
        <time>2017-04-27T08:35:42Z</time>
      </trkpt>
      <trkpt lat="45.88645" lon="4.73811">
        <ele>187</ele>
        <time>2017-04-27T08:35:43Z</time>
      </trkpt>
      <trkpt lat="45.88645" lon="4.73803">
        <ele>187</ele>
        <time>2017-04-27T08:35:44Z</time>
      </trkpt>
      <trkpt lat="45.88645" lon="4.73795">
        <ele>187</ele>
        <time>2017-04-27T08:35:45Z</time>
      </trkpt>
      <trkpt lat="45.88645" lon="4.73787">
        <ele>187</ele>
        <time>2017-04-27T08:35:46Z</time>
      </trkpt>
      <trkpt lat="45.88645" lon="4.7378">
        <ele>187</ele>
        <time>2017-04-27T08:35:47Z</time>
      </trkpt>
      <trkpt lat="45.88645" lon="4.73773">
        <ele>187</ele>
        <time>2017-04-27T08:35:48Z</time>
      </trkpt>
      <trkpt lat="45.88645" lon="4.73766">
        <ele>187</ele>
        <time>2017-04-27T08:35:49Z</time>
      </trkpt>
      <trkpt lat="45.88646" lon="4.73759">
        <ele>187</ele>
        <time>2017-04-27T08:35:50Z</time>
      </trkpt>
      <trkpt lat="45.88646" lon="4.73752">
        <ele>187</ele>
        <time>2017-04-27T08:35:51Z</time>
      </trkpt>
      <trkpt lat="45.88645" lon="4.73739">
        <ele>187</ele>
        <time>2017-04-27T08:35:53Z</time>
      </trkpt>
      <trkpt lat="45.88645" lon="4.73733">
        <ele>186</ele>
        <time>2017-04-27T08:35:54Z</time>
      </trkpt>
      <trkpt lat="45.88646" lon="4.73721">
        <ele>186</ele>
        <time>2017-04-27T08:35:56Z</time>
      </trkpt>
      <trkpt lat="45.88646" lon="4.73715">
        <ele>186</ele>
        <time>2017-04-27T08:35:57Z</time>
      </trkpt>
      <trkpt lat="45.88646" lon="4.73708">
        <ele>186</ele>
        <time>2017-04-27T08:35:58Z</time>
      </trkpt>
      <trkpt lat="45.88646" lon="4.73702">
        <ele>186</ele>
        <time>2017-04-27T08:35:59Z</time>
      </trkpt>
      <trkpt lat="45.88646" lon="4.73689">
        <ele>186</ele>
        <time>2017-04-27T08:36:01Z</time>
      </trkpt>
      <trkpt lat="45.88646" lon="4.73682">
        <ele>186</ele>
        <time>2017-04-27T08:36:02Z</time>
      </trkpt>
      <trkpt lat="45.88646" lon="4.73675">
        <ele>186</ele>
        <time>2017-04-27T08:36:03Z</time>
      </trkpt>
      <trkpt lat="45.88646" lon="4.73669">
        <ele>186</ele>
        <time>2017-04-27T08:36:04Z</time>
      </trkpt>
      <trkpt lat="45.88646" lon="4.73662">
        <ele>186</ele>
        <time>2017-04-27T08:36:05Z</time>
      </trkpt>
      <trkpt lat="45.88646" lon="4.73654">
        <ele>186</ele>
        <time>2017-04-27T08:36:06Z</time>
      </trkpt>
      <trkpt lat="45.88646" lon="4.73646">
        <ele>186</ele>
        <time>2017-04-27T08:36:07Z</time>
      </trkpt>
      <trkpt lat="45.88647" lon="4.73638">
        <ele>186</ele>
        <time>2017-04-27T08:36:08Z</time>
      </trkpt>
      <trkpt lat="45.88647" lon="4.73629">
        <ele>186</ele>
        <time>2017-04-27T08:36:09Z</time>
      </trkpt>
      <trkpt lat="45.88647" lon="4.7362">
        <ele>186</ele>
        <time>2017-04-27T08:36:10Z</time>
      </trkpt>
      <trkpt lat="45.88647" lon="4.73612">
        <ele>186</ele>
        <time>2017-04-27T08:36:11Z</time>
      </trkpt>
      <trkpt lat="45.88647" lon="4.73603">
        <ele>186</ele>
        <time>2017-04-27T08:36:12Z</time>
      </trkpt>
      <trkpt lat="45.88647" lon="4.73594">
        <ele>185</ele>
        <time>2017-04-27T08:36:13Z</time>
      </trkpt>
      <trkpt lat="45.88647" lon="4.73583">
        <ele>185</ele>
        <time>2017-04-27T08:36:14Z</time>
      </trkpt>
      <trkpt lat="45.88647" lon="4.73572">
        <ele>185</ele>
        <time>2017-04-27T08:36:15Z</time>
      </trkpt>
      <trkpt lat="45.88647" lon="4.73561">
        <ele>185</ele>
        <time>2017-04-27T08:36:16Z</time>
      </trkpt>
      <trkpt lat="45.88648" lon="4.7355">
        <ele>185</ele>
        <time>2017-04-27T08:36:17Z</time>
      </trkpt>
      <trkpt lat="45.88649" lon="4.73538">
        <ele>185</ele>
        <time>2017-04-27T08:36:18Z</time>
      </trkpt>
      <trkpt lat="45.8865" lon="4.73527">
        <ele>185</ele>
        <time>2017-04-27T08:36:19Z</time>
      </trkpt>
      <trkpt lat="45.88652" lon="4.73514">
        <ele>185</ele>
        <time>2017-04-27T08:36:20Z</time>
      </trkpt>
      <trkpt lat="45.88654" lon="4.73503">
        <ele>184</ele>
        <time>2017-04-27T08:36:21Z</time>
      </trkpt>
      <trkpt lat="45.88656" lon="4.73491">
        <ele>184</ele>
        <time>2017-04-27T08:36:22Z</time>
      </trkpt>
      <trkpt lat="45.88657" lon="4.7348">
        <ele>184</ele>
        <time>2017-04-27T08:36:23Z</time>
      </trkpt>
      <trkpt lat="45.88658" lon="4.73468">
        <ele>184</ele>
        <time>2017-04-27T08:36:24Z</time>
      </trkpt>
      <trkpt lat="45.88658" lon="4.73456">
        <ele>184</ele>
        <time>2017-04-27T08:36:25Z</time>
      </trkpt>
      <trkpt lat="45.88658" lon="4.73445">
        <ele>184</ele>
        <time>2017-04-27T08:36:26Z</time>
      </trkpt>
      <trkpt lat="45.88656" lon="4.73434">
        <ele>184</ele>
        <time>2017-04-27T08:36:27Z</time>
      </trkpt>
      <trkpt lat="45.88654" lon="4.73423">
        <ele>184</ele>
        <time>2017-04-27T08:36:28Z</time>
      </trkpt>
      <trkpt lat="45.88651" lon="4.73413">
        <ele>184</ele>
        <time>2017-04-27T08:36:29Z</time>
      </trkpt>
      <trkpt lat="45.88648" lon="4.73404">
        <ele>184</ele>
        <time>2017-04-27T08:36:30Z</time>
      </trkpt>
      <trkpt lat="45.88645" lon="4.73396">
        <ele>184</ele>
        <time>2017-04-27T08:36:31Z</time>
      </trkpt>
      <trkpt lat="45.8864" lon="4.73389">
        <ele>184</ele>
        <time>2017-04-27T08:36:32Z</time>
      </trkpt>
      <trkpt lat="45.88634" lon="4.73385">
        <ele>184</ele>
        <time>2017-04-27T08:36:33Z</time>
      </trkpt>
      <trkpt lat="45.88628" lon="4.73383">
        <ele>183</ele>
        <time>2017-04-27T08:36:34Z</time>
      </trkpt>
      <trkpt lat="45.88622" lon="4.73383">
        <ele>183</ele>
        <time>2017-04-27T08:36:35Z</time>
      </trkpt>
      <trkpt lat="45.88616" lon="4.73384">
        <ele>183</ele>
        <time>2017-04-27T08:36:36Z</time>
      </trkpt>
      <trkpt lat="45.8861" lon="4.73386">
        <ele>183</ele>
        <time>2017-04-27T08:36:37Z</time>
      </trkpt>
      <trkpt lat="45.88604" lon="4.73388">
        <ele>183</ele>
        <time>2017-04-27T08:36:38Z</time>
      </trkpt>
      <trkpt lat="45.88598" lon="4.7339">
        <ele>183</ele>
        <time>2017-04-27T08:36:39Z</time>
      </trkpt>
      <trkpt lat="45.88591" lon="4.73391">
        <ele>183</ele>
        <time>2017-04-27T08:36:40Z</time>
      </trkpt>
      <trkpt lat="45.88585" lon="4.73393">
        <ele>183</ele>
        <time>2017-04-27T08:36:41Z</time>
      </trkpt>
      <trkpt lat="45.88579" lon="4.73395">
        <ele>183</ele>
        <time>2017-04-27T08:36:42Z</time>
      </trkpt>
      <trkpt lat="45.88573" lon="4.73396">
        <ele>183</ele>
        <time>2017-04-27T08:36:43Z</time>
      </trkpt>
      <trkpt lat="45.88568" lon="4.73398">
        <ele>183</ele>
        <time>2017-04-27T08:36:44Z</time>
      </trkpt>
      <trkpt lat="45.88562" lon="4.73399">
        <ele>183</ele>
        <time>2017-04-27T08:36:45Z</time>
      </trkpt>
      <trkpt lat="45.88556" lon="4.73401">
        <ele>183</ele>
        <time>2017-04-27T08:36:46Z</time>
      </trkpt>
      <trkpt lat="45.8855" lon="4.73403">
        <ele>183</ele>
        <time>2017-04-27T08:36:47Z</time>
      </trkpt>
      <trkpt lat="45.88544" lon="4.73404">
        <ele>183</ele>
        <time>2017-04-27T08:36:48Z</time>
      </trkpt>
      <trkpt lat="45.88539" lon="4.73406">
        <ele>183</ele>
        <time>2017-04-27T08:36:49Z</time>
      </trkpt>
      <trkpt lat="45.88533" lon="4.73407">
        <ele>183</ele>
        <time>2017-04-27T08:36:50Z</time>
      </trkpt>
      <trkpt lat="45.88528" lon="4.73409">
        <ele>183</ele>
        <time>2017-04-27T08:36:51Z</time>
      </trkpt>
      <trkpt lat="45.88522" lon="4.7341">
        <ele>183</ele>
        <time>2017-04-27T08:36:52Z</time>
      </trkpt>
      <trkpt lat="45.88516" lon="4.73412">
        <ele>184</ele>
        <time>2017-04-27T08:36:53Z</time>
      </trkpt>
      <trkpt lat="45.8851" lon="4.73414">
        <ele>184</ele>
        <time>2017-04-27T08:36:54Z</time>
      </trkpt>
      <trkpt lat="45.88505" lon="4.73415">
        <ele>184</ele>
        <time>2017-04-27T08:36:55Z</time>
      </trkpt>
      <trkpt lat="45.88499" lon="4.73417">
        <ele>184</ele>
        <time>2017-04-27T08:36:56Z</time>
      </trkpt>
      <trkpt lat="45.88493" lon="4.73419">
        <ele>184</ele>
        <time>2017-04-27T08:36:57Z</time>
      </trkpt>
      <trkpt lat="45.88488" lon="4.7342">
        <ele>184</ele>
        <time>2017-04-27T08:36:58Z</time>
      </trkpt>
      <trkpt lat="45.88482" lon="4.73422">
        <ele>184</ele>
        <time>2017-04-27T08:36:59Z</time>
      </trkpt>
      <trkpt lat="45.88476" lon="4.73424">
        <ele>184</ele>
        <time>2017-04-27T08:37:00Z</time>
      </trkpt>
      <trkpt lat="45.88471" lon="4.73426">
        <ele>184</ele>
        <time>2017-04-27T08:37:01Z</time>
      </trkpt>
      <trkpt lat="45.88465" lon="4.73428">
        <ele>184</ele>
        <time>2017-04-27T08:37:02Z</time>
      </trkpt>
      <trkpt lat="45.88459" lon="4.7343">
        <ele>184</ele>
        <time>2017-04-27T08:37:03Z</time>
      </trkpt>
      <trkpt lat="45.88453" lon="4.73431">
        <ele>184</ele>
        <time>2017-04-27T08:37:04Z</time>
      </trkpt>
      <trkpt lat="45.88447" lon="4.73433">
        <ele>184</ele>
        <time>2017-04-27T08:37:05Z</time>
      </trkpt>
      <trkpt lat="45.88442" lon="4.73435">
        <ele>184</ele>
        <time>2017-04-27T08:37:06Z</time>
      </trkpt>
      <trkpt lat="45.88436" lon="4.73436">
        <ele>184</ele>
        <time>2017-04-27T08:37:07Z</time>
      </trkpt>
      <trkpt lat="45.8843" lon="4.73438">
        <ele>184</ele>
        <time>2017-04-27T08:37:08Z</time>
      </trkpt>
      <trkpt lat="45.88425" lon="4.73439">
        <ele>184</ele>
        <time>2017-04-27T08:37:09Z</time>
      </trkpt>
      <trkpt lat="45.88419" lon="4.73441">
        <ele>184</ele>
        <time>2017-04-27T08:37:10Z</time>
      </trkpt>
      <trkpt lat="45.88413" lon="4.73443">
        <ele>184</ele>
        <time>2017-04-27T08:37:11Z</time>
      </trkpt>
      <trkpt lat="45.88407" lon="4.73445">
        <ele>184</ele>
        <time>2017-04-27T08:37:12Z</time>
      </trkpt>
      <trkpt lat="45.88402" lon="4.73446">
        <ele>184</ele>
        <time>2017-04-27T08:37:13Z</time>
      </trkpt>
      <trkpt lat="45.88396" lon="4.73448">
        <ele>184</ele>
        <time>2017-04-27T08:37:14Z</time>
      </trkpt>
      <trkpt lat="45.88391" lon="4.7345">
        <ele>184</ele>
        <time>2017-04-27T08:37:15Z</time>
      </trkpt>
      <trkpt lat="45.88385" lon="4.73452">
        <ele>184</ele>
        <time>2017-04-27T08:37:16Z</time>
      </trkpt>
      <trkpt lat="45.8838" lon="4.73454">
        <ele>184</ele>
        <time>2017-04-27T08:37:17Z</time>
      </trkpt>
      <trkpt lat="45.88375" lon="4.73456">
        <ele>184</ele>
        <time>2017-04-27T08:37:18Z</time>
      </trkpt>
      <trkpt lat="45.8837" lon="4.73458">
        <ele>184</ele>
        <time>2017-04-27T08:37:19Z</time>
      </trkpt>
      <trkpt lat="45.88365" lon="4.73459">
        <ele>184</ele>
        <time>2017-04-27T08:37:20Z</time>
      </trkpt>
      <trkpt lat="45.8836" lon="4.7346">
        <ele>184</ele>
        <time>2017-04-27T08:37:21Z</time>
      </trkpt>
      <trkpt lat="45.88354" lon="4.7346">
        <ele>184</ele>
        <time>2017-04-27T08:37:22Z</time>
      </trkpt>
      <trkpt lat="45.88349" lon="4.73462">
        <ele>184</ele>
        <time>2017-04-27T08:37:23Z</time>
      </trkpt>
      <trkpt lat="45.88343" lon="4.73463">
        <ele>184</ele>
        <time>2017-04-27T08:37:24Z</time>
      </trkpt>
      <trkpt lat="45.88337" lon="4.73465">
        <ele>184</ele>
        <time>2017-04-27T08:37:25Z</time>
      </trkpt>
      <trkpt lat="45.88331" lon="4.73467">
        <ele>184</ele>
        <time>2017-04-27T08:37:26Z</time>
      </trkpt>
      <trkpt lat="45.88325" lon="4.73469">
        <ele>184</ele>
        <time>2017-04-27T08:37:27Z</time>
      </trkpt>
      <trkpt lat="45.88319" lon="4.73471">
        <ele>184</ele>
        <time>2017-04-27T08:37:28Z</time>
      </trkpt>
      <trkpt lat="45.88314" lon="4.73472">
        <ele>184</ele>
        <time>2017-04-27T08:37:29Z</time>
      </trkpt>
      <trkpt lat="45.88308" lon="4.73474">
        <ele>184</ele>
        <time>2017-04-27T08:37:30Z</time>
      </trkpt>
      <trkpt lat="45.88302" lon="4.73476">
        <ele>184</ele>
        <time>2017-04-27T08:37:31Z</time>
      </trkpt>
      <trkpt lat="45.88297" lon="4.73478">
        <ele>184</ele>
        <time>2017-04-27T08:37:32Z</time>
      </trkpt>
      <trkpt lat="45.88292" lon="4.73481">
        <ele>184</ele>
        <time>2017-04-27T08:37:33Z</time>
      </trkpt>
      <trkpt lat="45.88287" lon="4.73485">
        <ele>184</ele>
        <time>2017-04-27T08:37:34Z</time>
      </trkpt>
      <trkpt lat="45.88282" lon="4.73488">
        <ele>184</ele>
        <time>2017-04-27T08:37:35Z</time>
      </trkpt>
      <trkpt lat="45.88277" lon="4.73491">
        <ele>184</ele>
        <time>2017-04-27T08:37:36Z</time>
      </trkpt>
      <trkpt lat="45.88272" lon="4.73495">
        <ele>184</ele>
        <time>2017-04-27T08:37:37Z</time>
      </trkpt>
      <trkpt lat="45.88267" lon="4.73498">
        <ele>184</ele>
        <time>2017-04-27T08:37:38Z</time>
      </trkpt>
      <trkpt lat="45.88262" lon="4.73501">
        <ele>185</ele>
        <time>2017-04-27T08:37:39Z</time>
      </trkpt>
      <trkpt lat="45.88257" lon="4.73504">
        <ele>185</ele>
        <time>2017-04-27T08:37:40Z</time>
      </trkpt>
      <trkpt lat="45.88252" lon="4.73508">
        <ele>185</ele>
        <time>2017-04-27T08:37:41Z</time>
      </trkpt>
      <trkpt lat="45.88247" lon="4.73512">
        <ele>185</ele>
        <time>2017-04-27T08:37:42Z</time>
      </trkpt>
      <trkpt lat="45.88242" lon="4.73515">
        <ele>185</ele>
        <time>2017-04-27T08:37:43Z</time>
      </trkpt>
      <trkpt lat="45.88237" lon="4.73518">
        <ele>185</ele>
        <time>2017-04-27T08:37:44Z</time>
      </trkpt>
      <trkpt lat="45.88232" lon="4.73521">
        <ele>185</ele>
        <time>2017-04-27T08:37:45Z</time>
      </trkpt>
      <trkpt lat="45.88227" lon="4.73524">
        <ele>185</ele>
        <time>2017-04-27T08:37:46Z</time>
      </trkpt>
      <trkpt lat="45.88222" lon="4.73528">
        <ele>185</ele>
        <time>2017-04-27T08:37:47Z</time>
      </trkpt>
      <trkpt lat="45.88217" lon="4.73531">
        <ele>185</ele>
        <time>2017-04-27T08:37:48Z</time>
      </trkpt>
      <trkpt lat="45.88212" lon="4.73534">
        <ele>185</ele>
        <time>2017-04-27T08:37:49Z</time>
      </trkpt>
      <trkpt lat="45.88207" lon="4.73537">
        <ele>186</ele>
        <time>2017-04-27T08:37:50Z</time>
      </trkpt>
      <trkpt lat="45.88203" lon="4.7354">
        <ele>186</ele>
        <time>2017-04-27T08:37:51Z</time>
      </trkpt>
      <trkpt lat="45.88198" lon="4.73543">
        <ele>186</ele>
        <time>2017-04-27T08:37:52Z</time>
      </trkpt>
      <trkpt lat="45.88193" lon="4.73546">
        <ele>186</ele>
        <time>2017-04-27T08:37:53Z</time>
      </trkpt>
      <trkpt lat="45.88189" lon="4.7355">
        <ele>186</ele>
        <time>2017-04-27T08:37:54Z</time>
      </trkpt>
      <trkpt lat="45.88184" lon="4.73553">
        <ele>186</ele>
        <time>2017-04-27T08:37:55Z</time>
      </trkpt>
      <trkpt lat="45.88179" lon="4.73556">
        <ele>186</ele>
        <time>2017-04-27T08:37:56Z</time>
      </trkpt>
      <trkpt lat="45.88174" lon="4.73559">
        <ele>186</ele>
        <time>2017-04-27T08:37:57Z</time>
      </trkpt>
      <trkpt lat="45.8817" lon="4.73562">
        <ele>186</ele>
        <time>2017-04-27T08:37:58Z</time>
      </trkpt>
      <trkpt lat="45.88165" lon="4.73566">
        <ele>186</ele>
        <time>2017-04-27T08:37:59Z</time>
      </trkpt>
      <trkpt lat="45.8816" lon="4.73569">
        <ele>186</ele>
        <time>2017-04-27T08:38:00Z</time>
      </trkpt>
      <trkpt lat="45.88156" lon="4.73571">
        <ele>186</ele>
        <time>2017-04-27T08:38:01Z</time>
      </trkpt>
      <trkpt lat="45.88151" lon="4.73574">
        <ele>186</ele>
        <time>2017-04-27T08:38:02Z</time>
      </trkpt>
      <trkpt lat="45.88146" lon="4.73578">
        <ele>186</ele>
        <time>2017-04-27T08:38:03Z</time>
      </trkpt>
      <trkpt lat="45.88141" lon="4.73581">
        <ele>186</ele>
        <time>2017-04-27T08:38:04Z</time>
      </trkpt>
      <trkpt lat="45.88136" lon="4.73584">
        <ele>187</ele>
        <time>2017-04-27T08:38:05Z</time>
      </trkpt>
      <trkpt lat="45.8813" lon="4.73588">
        <ele>187</ele>
        <time>2017-04-27T08:38:06Z</time>
      </trkpt>
      <trkpt lat="45.88125" lon="4.73592">
        <ele>187</ele>
        <time>2017-04-27T08:38:07Z</time>
      </trkpt>
      <trkpt lat="45.8812" lon="4.73595">
        <ele>187</ele>
        <time>2017-04-27T08:38:08Z</time>
      </trkpt>
      <trkpt lat="45.88114" lon="4.73598">
        <ele>187</ele>
        <time>2017-04-27T08:38:09Z</time>
      </trkpt>
      <trkpt lat="45.88109" lon="4.73602">
        <ele>188</ele>
        <time>2017-04-27T08:38:10Z</time>
      </trkpt>
      <trkpt lat="45.88104" lon="4.73605">
        <ele>188</ele>
        <time>2017-04-27T08:38:11Z</time>
      </trkpt>
      <trkpt lat="45.88099" lon="4.73609">
        <ele>188</ele>
        <time>2017-04-27T08:38:12Z</time>
      </trkpt>
      <trkpt lat="45.88094" lon="4.73612">
        <ele>188</ele>
        <time>2017-04-27T08:38:13Z</time>
      </trkpt>
      <trkpt lat="45.88089" lon="4.73615">
        <ele>188</ele>
        <time>2017-04-27T08:38:14Z</time>
      </trkpt>
      <trkpt lat="45.88085" lon="4.73618">
        <ele>188</ele>
        <time>2017-04-27T08:38:15Z</time>
      </trkpt>
      <trkpt lat="45.8808" lon="4.73622">
        <ele>189</ele>
        <time>2017-04-27T08:38:16Z</time>
      </trkpt>
      <trkpt lat="45.88075" lon="4.73625">
        <ele>189</ele>
        <time>2017-04-27T08:38:17Z</time>
      </trkpt>
      <trkpt lat="45.88071" lon="4.73628">
        <ele>189</ele>
        <time>2017-04-27T08:38:18Z</time>
      </trkpt>
      <trkpt lat="45.88066" lon="4.73631">
        <ele>189</ele>
        <time>2017-04-27T08:38:19Z</time>
      </trkpt>
      <trkpt lat="45.88062" lon="4.73635">
        <ele>189</ele>
        <time>2017-04-27T08:38:20Z</time>
      </trkpt>
      <trkpt lat="45.88057" lon="4.73638">
        <ele>189</ele>
        <time>2017-04-27T08:38:21Z</time>
      </trkpt>
      <trkpt lat="45.88052" lon="4.73641">
        <ele>189</ele>
        <time>2017-04-27T08:38:22Z</time>
      </trkpt>
      <trkpt lat="45.88048" lon="4.73644">
        <ele>189</ele>
        <time>2017-04-27T08:38:23Z</time>
      </trkpt>
      <trkpt lat="45.88043" lon="4.73647">
        <ele>189</ele>
        <time>2017-04-27T08:38:24Z</time>
      </trkpt>
      <trkpt lat="45.88038" lon="4.73649">
        <ele>189</ele>
        <time>2017-04-27T08:38:25Z</time>
      </trkpt>
      <trkpt lat="45.88033" lon="4.73651">
        <ele>189</ele>
        <time>2017-04-27T08:38:26Z</time>
      </trkpt>
      <trkpt lat="45.88028" lon="4.73653">
        <ele>189</ele>
        <time>2017-04-27T08:38:27Z</time>
      </trkpt>
      <trkpt lat="45.88023" lon="4.73654">
        <ele>189</ele>
        <time>2017-04-27T08:38:28Z</time>
      </trkpt>
      <trkpt lat="45.88018" lon="4.73654">
        <ele>189</ele>
        <time>2017-04-27T08:38:29Z</time>
      </trkpt>
      <trkpt lat="45.88013" lon="4.73654">
        <ele>189</ele>
        <time>2017-04-27T08:38:30Z</time>
      </trkpt>
      <trkpt lat="45.88008" lon="4.73652">
        <ele>189</ele>
        <time>2017-04-27T08:38:31Z</time>
      </trkpt>
      <trkpt lat="45.88003" lon="4.73651">
        <ele>189</ele>
        <time>2017-04-27T08:38:32Z</time>
      </trkpt>
      <trkpt lat="45.87997" lon="4.73649">
        <ele>190</ele>
        <time>2017-04-27T08:38:33Z</time>
      </trkpt>
      <trkpt lat="45.87992" lon="4.73648">
        <ele>190</ele>
        <time>2017-04-27T08:38:34Z</time>
      </trkpt>
      <trkpt lat="45.87987" lon="4.73646">
        <ele>190</ele>
        <time>2017-04-27T08:38:35Z</time>
      </trkpt>
      <trkpt lat="45.87981" lon="4.73644">
        <ele>189</ele>
        <time>2017-04-27T08:38:36Z</time>
      </trkpt>
      <trkpt lat="45.87975" lon="4.73643">
        <ele>189</ele>
        <time>2017-04-27T08:38:37Z</time>
      </trkpt>
      <trkpt lat="45.8797" lon="4.73641">
        <ele>189</ele>
        <time>2017-04-27T08:38:38Z</time>
      </trkpt>
      <trkpt lat="45.87964" lon="4.73639">
        <ele>189</ele>
        <time>2017-04-27T08:38:39Z</time>
      </trkpt>
      <trkpt lat="45.87959" lon="4.73638">
        <ele>189</ele>
        <time>2017-04-27T08:38:40Z</time>
      </trkpt>
      <trkpt lat="45.87953" lon="4.73637">
        <ele>189</ele>
        <time>2017-04-27T08:38:41Z</time>
      </trkpt>
      <trkpt lat="45.87948" lon="4.73635">
        <ele>189</ele>
        <time>2017-04-27T08:38:42Z</time>
      </trkpt>
      <trkpt lat="45.87942" lon="4.73634">
        <ele>189</ele>
        <time>2017-04-27T08:38:43Z</time>
      </trkpt>
      <trkpt lat="45.87937" lon="4.73632">
        <ele>189</ele>
        <time>2017-04-27T08:38:44Z</time>
      </trkpt>
      <trkpt lat="45.87931" lon="4.7363">
        <ele>189</ele>
        <time>2017-04-27T08:38:45Z</time>
      </trkpt>
      <trkpt lat="45.87926" lon="4.73628">
        <ele>189</ele>
        <time>2017-04-27T08:38:46Z</time>
      </trkpt>
      <trkpt lat="45.8792" lon="4.73627">
        <ele>189</ele>
        <time>2017-04-27T08:38:47Z</time>
      </trkpt>
      <trkpt lat="45.87915" lon="4.73625">
        <ele>190</ele>
        <time>2017-04-27T08:38:48Z</time>
      </trkpt>
      <trkpt lat="45.8791" lon="4.73623">
        <ele>190</ele>
        <time>2017-04-27T08:38:49Z</time>
      </trkpt>
      <trkpt lat="45.87904" lon="4.73621">
        <ele>190</ele>
        <time>2017-04-27T08:38:50Z</time>
      </trkpt>
      <trkpt lat="45.87899" lon="4.7362">
        <ele>190</ele>
        <time>2017-04-27T08:38:51Z</time>
      </trkpt>
      <trkpt lat="45.87893" lon="4.73619">
        <ele>190</ele>
        <time>2017-04-27T08:38:52Z</time>
      </trkpt>
      <trkpt lat="45.87888" lon="4.73617">
        <ele>190</ele>
        <time>2017-04-27T08:38:53Z</time>
      </trkpt>
      <trkpt lat="45.87882" lon="4.73616">
        <ele>190</ele>
        <time>2017-04-27T08:38:54Z</time>
      </trkpt>
      <trkpt lat="45.87877" lon="4.73616">
        <ele>190</ele>
        <time>2017-04-27T08:38:55Z</time>
      </trkpt>
      <trkpt lat="45.87871" lon="4.73618">
        <ele>190</ele>
        <time>2017-04-27T08:38:56Z</time>
      </trkpt>
      <trkpt lat="45.87866" lon="4.7362">
        <ele>190</ele>
        <time>2017-04-27T08:38:57Z</time>
      </trkpt>
      <trkpt lat="45.8786" lon="4.73624">
        <ele>190</ele>
        <time>2017-04-27T08:38:58Z</time>
      </trkpt>
      <trkpt lat="45.87856" lon="4.73628">
        <ele>190</ele>
        <time>2017-04-27T08:38:59Z</time>
      </trkpt>
      <trkpt lat="45.87852" lon="4.73631">
        <ele>191</ele>
        <time>2017-04-27T08:39:00Z</time>
      </trkpt>
      <trkpt lat="45.87846" lon="4.73634">
        <ele>191</ele>
        <time>2017-04-27T08:39:01Z</time>
      </trkpt>
      <trkpt lat="45.87841" lon="4.73632">
        <ele>191</ele>
        <time>2017-04-27T08:39:02Z</time>
      </trkpt>
      <trkpt lat="45.87834" lon="4.73624">
        <ele>191</ele>
        <time>2017-04-27T08:39:04Z</time>
      </trkpt>
      <trkpt lat="45.87832" lon="4.73618">
        <ele>190</ele>
        <time>2017-04-27T08:39:05Z</time>
      </trkpt>
      <trkpt lat="45.8783" lon="4.73612">
        <ele>190</ele>
        <time>2017-04-27T08:39:06Z</time>
      </trkpt>
      <trkpt lat="45.87828" lon="4.73605">
        <ele>190</ele>
        <time>2017-04-27T08:39:07Z</time>
      </trkpt>
      <trkpt lat="45.87824" lon="4.73599">
        <ele>190</ele>
        <time>2017-04-27T08:39:08Z</time>
      </trkpt>
      <trkpt lat="45.87821" lon="4.73592">
        <ele>190</ele>
        <time>2017-04-27T08:39:09Z</time>
      </trkpt>
      <trkpt lat="45.87818" lon="4.73586">
        <ele>190</ele>
        <time>2017-04-27T08:39:10Z</time>
      </trkpt>
      <trkpt lat="45.87815" lon="4.73579">
        <ele>189</ele>
        <time>2017-04-27T08:39:11Z</time>
      </trkpt>
      <trkpt lat="45.87812" lon="4.73572">
        <ele>189</ele>
        <time>2017-04-27T08:39:12Z</time>
      </trkpt>
      <trkpt lat="45.87808" lon="4.73565">
        <ele>189</ele>
        <time>2017-04-27T08:39:13Z</time>
      </trkpt>
      <trkpt lat="45.87805" lon="4.73559">
        <ele>189</ele>
        <time>2017-04-27T08:39:14Z</time>
      </trkpt>
      <trkpt lat="45.87801" lon="4.73553">
        <ele>189</ele>
        <time>2017-04-27T08:39:15Z</time>
      </trkpt>
      <trkpt lat="45.87797" lon="4.73546">
        <ele>189</ele>
        <time>2017-04-27T08:39:16Z</time>
      </trkpt>
      <trkpt lat="45.87794" lon="4.7354">
        <ele>189</ele>
        <time>2017-04-27T08:39:17Z</time>
      </trkpt>
      <trkpt lat="45.8779" lon="4.73533">
        <ele>189</ele>
        <time>2017-04-27T08:39:18Z</time>
      </trkpt>
      <trkpt lat="45.87787" lon="4.73527">
        <ele>189</ele>
        <time>2017-04-27T08:39:19Z</time>
      </trkpt>
      <trkpt lat="45.87784" lon="4.7352">
        <ele>189</ele>
        <time>2017-04-27T08:39:20Z</time>
      </trkpt>
      <trkpt lat="45.8778" lon="4.73514">
        <ele>189</ele>
        <time>2017-04-27T08:39:21Z</time>
      </trkpt>
      <trkpt lat="45.87777" lon="4.73507">
        <ele>189</ele>
        <time>2017-04-27T08:39:22Z</time>
      </trkpt>
      <trkpt lat="45.87774" lon="4.735">
        <ele>189</ele>
        <time>2017-04-27T08:39:23Z</time>
      </trkpt>
      <trkpt lat="45.87771" lon="4.73493">
        <ele>189</ele>
        <time>2017-04-27T08:39:24Z</time>
      </trkpt>
      <trkpt lat="45.87767" lon="4.73487">
        <ele>189</ele>
        <time>2017-04-27T08:39:25Z</time>
      </trkpt>
      <trkpt lat="45.87764" lon="4.7348">
        <ele>188</ele>
        <time>2017-04-27T08:39:26Z</time>
      </trkpt>
      <trkpt lat="45.87761" lon="4.73474">
        <ele>188</ele>
        <time>2017-04-27T08:39:27Z</time>
      </trkpt>
      <trkpt lat="45.87758" lon="4.73467">
        <ele>188</ele>
        <time>2017-04-27T08:39:28Z</time>
      </trkpt>
      <trkpt lat="45.87755" lon="4.73461">
        <ele>188</ele>
        <time>2017-04-27T08:39:29Z</time>
      </trkpt>
      <trkpt lat="45.87752" lon="4.73455">
        <ele>188</ele>
        <time>2017-04-27T08:39:30Z</time>
      </trkpt>
      <trkpt lat="45.8775" lon="4.73449">
        <ele>189</ele>
        <time>2017-04-27T08:39:31Z</time>
      </trkpt>
      <trkpt lat="45.87747" lon="4.73443">
        <ele>189</ele>
        <time>2017-04-27T08:39:32Z</time>
      </trkpt>
      <trkpt lat="45.87744" lon="4.73437">
        <ele>188</ele>
        <time>2017-04-27T08:39:33Z</time>
      </trkpt>
      <trkpt lat="45.87741" lon="4.73431">
        <ele>188</ele>
        <time>2017-04-27T08:39:34Z</time>
      </trkpt>
      <trkpt lat="45.87738" lon="4.73424">
        <ele>188</ele>
        <time>2017-04-27T08:39:35Z</time>
      </trkpt>
      <trkpt lat="45.87735" lon="4.73418">
        <ele>188</ele>
        <time>2017-04-27T08:39:36Z</time>
      </trkpt>
      <trkpt lat="45.87732" lon="4.73412">
        <ele>188</ele>
        <time>2017-04-27T08:39:37Z</time>
      </trkpt>
      <trkpt lat="45.87729" lon="4.73405">
        <ele>188</ele>
        <time>2017-04-27T08:39:38Z</time>
      </trkpt>
      <trkpt lat="45.87726" lon="4.73399">
        <ele>188</ele>
        <time>2017-04-27T08:39:39Z</time>
      </trkpt>
      <trkpt lat="45.87723" lon="4.73392">
        <ele>188</ele>
        <time>2017-04-27T08:39:40Z</time>
      </trkpt>
      <trkpt lat="45.8772" lon="4.73386">
        <ele>188</ele>
        <time>2017-04-27T08:39:41Z</time>
      </trkpt>
      <trkpt lat="45.87716" lon="4.7338">
        <ele>187</ele>
        <time>2017-04-27T08:39:42Z</time>
      </trkpt>
      <trkpt lat="45.87713" lon="4.73373">
        <ele>187</ele>
        <time>2017-04-27T08:39:43Z</time>
      </trkpt>
      <trkpt lat="45.8771" lon="4.73367">
        <ele>187</ele>
        <time>2017-04-27T08:39:44Z</time>
      </trkpt>
      <trkpt lat="45.87707" lon="4.73361">
        <ele>187</ele>
        <time>2017-04-27T08:39:45Z</time>
      </trkpt>
      <trkpt lat="45.87704" lon="4.73354">
        <ele>187</ele>
        <time>2017-04-27T08:39:46Z</time>
      </trkpt>
      <trkpt lat="45.87701" lon="4.73348">
        <ele>187</ele>
        <time>2017-04-27T08:39:47Z</time>
      </trkpt>
      <trkpt lat="45.87698" lon="4.73342">
        <ele>187</ele>
        <time>2017-04-27T08:39:48Z</time>
      </trkpt>
      <trkpt lat="45.87695" lon="4.73335">
        <ele>188</ele>
        <time>2017-04-27T08:39:49Z</time>
      </trkpt>
      <trkpt lat="45.87692" lon="4.73329">
        <ele>188</ele>
        <time>2017-04-27T08:39:50Z</time>
      </trkpt>
      <trkpt lat="45.87689" lon="4.73322">
        <ele>188</ele>
        <time>2017-04-27T08:39:51Z</time>
      </trkpt>
      <trkpt lat="45.87686" lon="4.73316">
        <ele>188</ele>
        <time>2017-04-27T08:39:52Z</time>
      </trkpt>
      <trkpt lat="45.87683" lon="4.73309">
        <ele>188</ele>
        <time>2017-04-27T08:39:53Z</time>
      </trkpt>
      <trkpt lat="45.8768" lon="4.73303">
        <ele>188</ele>
        <time>2017-04-27T08:39:54Z</time>
      </trkpt>
      <trkpt lat="45.87677" lon="4.73297">
        <ele>188</ele>
        <time>2017-04-27T08:39:55Z</time>
      </trkpt>
      <trkpt lat="45.87675" lon="4.7329">
        <ele>188</ele>
        <time>2017-04-27T08:39:56Z</time>
      </trkpt>
      <trkpt lat="45.87672" lon="4.73284">
        <ele>188</ele>
        <time>2017-04-27T08:39:57Z</time>
      </trkpt>
      <trkpt lat="45.87669" lon="4.73278">
        <ele>188</ele>
        <time>2017-04-27T08:39:58Z</time>
      </trkpt>
      <trkpt lat="45.87666" lon="4.73271">
        <ele>189</ele>
        <time>2017-04-27T08:39:59Z</time>
      </trkpt>
      <trkpt lat="45.87664" lon="4.73265">
        <ele>189</ele>
        <time>2017-04-27T08:40:00Z</time>
      </trkpt>
      <trkpt lat="45.87661" lon="4.73258">
        <ele>189</ele>
        <time>2017-04-27T08:40:01Z</time>
      </trkpt>
      <trkpt lat="45.87659" lon="4.73252">
        <ele>189</ele>
        <time>2017-04-27T08:40:02Z</time>
      </trkpt>
      <trkpt lat="45.87656" lon="4.73246">
        <ele>189</ele>
        <time>2017-04-27T08:40:03Z</time>
      </trkpt>
      <trkpt lat="45.87653" lon="4.73239">
        <ele>188</ele>
        <time>2017-04-27T08:40:04Z</time>
      </trkpt>
      <trkpt lat="45.8765" lon="4.73233">
        <ele>188</ele>
        <time>2017-04-27T08:40:05Z</time>
      </trkpt>
      <trkpt lat="45.87646" lon="4.73226">
        <ele>188</ele>
        <time>2017-04-27T08:40:06Z</time>
      </trkpt>
      <trkpt lat="45.87643" lon="4.7322">
        <ele>188</ele>
        <time>2017-04-27T08:40:07Z</time>
      </trkpt>
      <trkpt lat="45.87639" lon="4.73213">
        <ele>188</ele>
        <time>2017-04-27T08:40:08Z</time>
      </trkpt>
      <trkpt lat="45.87636" lon="4.73207">
        <ele>188</ele>
        <time>2017-04-27T08:40:09Z</time>
      </trkpt>
      <trkpt lat="45.87633" lon="4.732">
        <ele>188</ele>
        <time>2017-04-27T08:40:10Z</time>
      </trkpt>
      <trkpt lat="45.87631" lon="4.73193">
        <ele>188</ele>
        <time>2017-04-27T08:40:11Z</time>
      </trkpt>
      <trkpt lat="45.87627" lon="4.73187">
        <ele>188</ele>
        <time>2017-04-27T08:40:12Z</time>
      </trkpt>
      <trkpt lat="45.87624" lon="4.73182">
        <ele>188</ele>
        <time>2017-04-27T08:40:13Z</time>
      </trkpt>
      <trkpt lat="45.87621" lon="4.73176">
        <ele>187</ele>
        <time>2017-04-27T08:40:14Z</time>
      </trkpt>
      <trkpt lat="45.87619" lon="4.7317">
        <ele>187</ele>
        <time>2017-04-27T08:40:15Z</time>
      </trkpt>
      <trkpt lat="45.87615" lon="4.73164">
        <ele>187</ele>
        <time>2017-04-27T08:40:16Z</time>
      </trkpt>
      <trkpt lat="45.87612" lon="4.73157">
        <ele>187</ele>
        <time>2017-04-27T08:40:17Z</time>
      </trkpt>
      <trkpt lat="45.87609" lon="4.73151">
        <ele>187</ele>
        <time>2017-04-27T08:40:18Z</time>
      </trkpt>
      <trkpt lat="45.87604" lon="4.73144">
        <ele>187</ele>
        <time>2017-04-27T08:40:19Z</time>
      </trkpt>
      <trkpt lat="45.87601" lon="4.73136">
        <ele>187</ele>
        <time>2017-04-27T08:40:20Z</time>
      </trkpt>
      <trkpt lat="45.87596" lon="4.73128">
        <ele>187</ele>
        <time>2017-04-27T08:40:21Z</time>
      </trkpt>
      <trkpt lat="45.87592" lon="4.7312">
        <ele>188</ele>
        <time>2017-04-27T08:40:22Z</time>
      </trkpt>
      <trkpt lat="45.87588" lon="4.73112">
        <ele>188</ele>
        <time>2017-04-27T08:40:23Z</time>
      </trkpt>
      <trkpt lat="45.87584" lon="4.73105">
        <ele>188</ele>
        <time>2017-04-27T08:40:24Z</time>
      </trkpt>
      <trkpt lat="45.8758" lon="4.73097">
        <ele>188</ele>
        <time>2017-04-27T08:40:25Z</time>
      </trkpt>
      <trkpt lat="45.87576" lon="4.73089">
        <ele>188</ele>
        <time>2017-04-27T08:40:26Z</time>
      </trkpt>
      <trkpt lat="45.87573" lon="4.73081">
        <ele>188</ele>
        <time>2017-04-27T08:40:27Z</time>
      </trkpt>
      <trkpt lat="45.87569" lon="4.73073">
        <ele>188</ele>
        <time>2017-04-27T08:40:28Z</time>
      </trkpt>
      <trkpt lat="45.87566" lon="4.73066">
        <ele>188</ele>
        <time>2017-04-27T08:40:29Z</time>
      </trkpt>
      <trkpt lat="45.87563" lon="4.73059">
        <ele>188</ele>
        <time>2017-04-27T08:40:30Z</time>
      </trkpt>
      <trkpt lat="45.8756" lon="4.73052">
        <ele>188</ele>
        <time>2017-04-27T08:40:31Z</time>
      </trkpt>
      <trkpt lat="45.87557" lon="4.73045">
        <ele>188</ele>
        <time>2017-04-27T08:40:32Z</time>
      </trkpt>
      <trkpt lat="45.87554" lon="4.73038">
        <ele>188</ele>
        <time>2017-04-27T08:40:33Z</time>
      </trkpt>
      <trkpt lat="45.87551" lon="4.73032">
        <ele>188</ele>
        <time>2017-04-27T08:40:34Z</time>
      </trkpt>
      <trkpt lat="45.87547" lon="4.73024">
        <ele>188</ele>
        <time>2017-04-27T08:40:35Z</time>
      </trkpt>
      <trkpt lat="45.87544" lon="4.73017">
        <ele>188</ele>
        <time>2017-04-27T08:40:36Z</time>
      </trkpt>
      <trkpt lat="45.87541" lon="4.73011">
        <ele>187</ele>
        <time>2017-04-27T08:40:37Z</time>
      </trkpt>
      <trkpt lat="45.87537" lon="4.73005">
        <ele>187</ele>
        <time>2017-04-27T08:40:38Z</time>
      </trkpt>
      <trkpt lat="45.87533" lon="4.72999">
        <ele>187</ele>
        <time>2017-04-27T08:40:39Z</time>
      </trkpt>
      <trkpt lat="45.8753" lon="4.72993">
        <ele>187</ele>
        <time>2017-04-27T08:40:40Z</time>
      </trkpt>
      <trkpt lat="45.87526" lon="4.72987">
        <ele>187</ele>
        <time>2017-04-27T08:40:41Z</time>
      </trkpt>
      <trkpt lat="45.87523" lon="4.72981">
        <ele>187</ele>
        <time>2017-04-27T08:40:42Z</time>
      </trkpt>
      <trkpt lat="45.8752" lon="4.72976">
        <ele>187</ele>
        <time>2017-04-27T08:40:43Z</time>
      </trkpt>
      <trkpt lat="45.87517" lon="4.7297">
        <ele>187</ele>
        <time>2017-04-27T08:40:44Z</time>
      </trkpt>
      <trkpt lat="45.87514" lon="4.72964">
        <ele>187</ele>
        <time>2017-04-27T08:40:45Z</time>
      </trkpt>
      <trkpt lat="45.87511" lon="4.72959">
        <ele>187</ele>
        <time>2017-04-27T08:40:46Z</time>
      </trkpt>
      <trkpt lat="45.87508" lon="4.72954">
        <ele>187</ele>
        <time>2017-04-27T08:40:47Z</time>
      </trkpt>
      <trkpt lat="45.87501" lon="4.72945">
        <ele>187</ele>
        <time>2017-04-27T08:40:49Z</time>
      </trkpt>
      <trkpt lat="45.87496" lon="4.72942">
        <ele>188</ele>
        <time>2017-04-27T08:40:50Z</time>
      </trkpt>
      <trkpt lat="45.87492" lon="4.72938">
        <ele>188</ele>
        <time>2017-04-27T08:40:51Z</time>
      </trkpt>
      <trkpt lat="45.87486" lon="4.72935">
        <ele>188</ele>
        <time>2017-04-27T08:40:52Z</time>
      </trkpt>
      <trkpt lat="45.87481" lon="4.72931">
        <ele>188</ele>
        <time>2017-04-27T08:40:53Z</time>
      </trkpt>
      <trkpt lat="45.87477" lon="4.72927">
        <ele>188</ele>
        <time>2017-04-27T08:40:54Z</time>
      </trkpt>
      <trkpt lat="45.87474" lon="4.72921">
        <ele>188</ele>
        <time>2017-04-27T08:40:55Z</time>
      </trkpt>
      <trkpt lat="45.87471" lon="4.72915">
        <ele>188</ele>
        <time>2017-04-27T08:40:56Z</time>
      </trkpt>
      <trkpt lat="45.87469" lon="4.72909">
        <ele>188</ele>
        <time>2017-04-27T08:40:57Z</time>
      </trkpt>
      <trkpt lat="45.87468" lon="4.72903">
        <ele>188</ele>
        <time>2017-04-27T08:40:58Z</time>
      </trkpt>
      <trkpt lat="45.87463" lon="4.72893">
        <ele>188</ele>
        <time>2017-04-27T08:41:00Z</time>
      </trkpt>
      <trkpt lat="45.87461" lon="4.72887">
        <ele>188</ele>
        <time>2017-04-27T08:41:01Z</time>
      </trkpt>
      <trkpt lat="45.87459" lon="4.72881">
        <ele>188</ele>
        <time>2017-04-27T08:41:02Z</time>
      </trkpt>
      <trkpt lat="45.87457" lon="4.72875">
        <ele>188</ele>
        <time>2017-04-27T08:41:03Z</time>
      </trkpt>
      <trkpt lat="45.87455" lon="4.72868">
        <ele>188</ele>
        <time>2017-04-27T08:41:04Z</time>
      </trkpt>
      <trkpt lat="45.87452" lon="4.72861">
        <ele>188</ele>
        <time>2017-04-27T08:41:05Z</time>
      </trkpt>
      <trkpt lat="45.87449" lon="4.72854">
        <ele>188</ele>
        <time>2017-04-27T08:41:06Z</time>
      </trkpt>
      <trkpt lat="45.87446" lon="4.72847">
        <ele>188</ele>
        <time>2017-04-27T08:41:07Z</time>
      </trkpt>
      <trkpt lat="45.87443" lon="4.7284">
        <ele>188</ele>
        <time>2017-04-27T08:41:08Z</time>
      </trkpt>
      <trkpt lat="45.87441" lon="4.72833">
        <ele>189</ele>
        <time>2017-04-27T08:41:09Z</time>
      </trkpt>
      <trkpt lat="45.87438" lon="4.72826">
        <ele>189</ele>
        <time>2017-04-27T08:41:10Z</time>
      </trkpt>
      <trkpt lat="45.87436" lon="4.72819">
        <ele>189</ele>
        <time>2017-04-27T08:41:11Z</time>
      </trkpt>
      <trkpt lat="45.87433" lon="4.72812">
        <ele>189</ele>
        <time>2017-04-27T08:41:12Z</time>
      </trkpt>
      <trkpt lat="45.8743" lon="4.72806">
        <ele>189</ele>
        <time>2017-04-27T08:41:13Z</time>
      </trkpt>
      <trkpt lat="45.87428" lon="4.728">
        <ele>189</ele>
        <time>2017-04-27T08:41:14Z</time>
      </trkpt>
      <trkpt lat="45.87426" lon="4.72794">
        <ele>189</ele>
        <time>2017-04-27T08:41:15Z</time>
      </trkpt>
      <trkpt lat="45.87423" lon="4.72787">
        <ele>189</ele>
        <time>2017-04-27T08:41:16Z</time>
      </trkpt>
      <trkpt lat="45.87421" lon="4.72781">
        <ele>189</ele>
        <time>2017-04-27T08:41:17Z</time>
      </trkpt>
      <trkpt lat="45.87418" lon="4.72774">
        <ele>189</ele>
        <time>2017-04-27T08:41:18Z</time>
      </trkpt>
      <trkpt lat="45.87415" lon="4.72768">
        <ele>189</ele>
        <time>2017-04-27T08:41:19Z</time>
      </trkpt>
      <trkpt lat="45.87413" lon="4.72761">
        <ele>189</ele>
        <time>2017-04-27T08:41:20Z</time>
      </trkpt>
      <trkpt lat="45.8741" lon="4.72755">
        <ele>189</ele>
        <time>2017-04-27T08:41:21Z</time>
      </trkpt>
      <trkpt lat="45.87406" lon="4.72749">
        <ele>189</ele>
        <time>2017-04-27T08:41:22Z</time>
      </trkpt>
      <trkpt lat="45.87402" lon="4.72744">
        <ele>189</ele>
        <time>2017-04-27T08:41:23Z</time>
      </trkpt>
      <trkpt lat="45.87399" lon="4.72739">
        <ele>189</ele>
        <time>2017-04-27T08:41:24Z</time>
      </trkpt>
      <trkpt lat="45.87395" lon="4.72735">
        <ele>190</ele>
        <time>2017-04-27T08:41:25Z</time>
      </trkpt>
      <trkpt lat="45.87392" lon="4.7273">
        <ele>190</ele>
        <time>2017-04-27T08:41:26Z</time>
      </trkpt>
      <trkpt lat="45.87388" lon="4.72725">
        <ele>190</ele>
        <time>2017-04-27T08:41:27Z</time>
      </trkpt>
      <trkpt lat="45.87387" lon="4.72718">
        <ele>190</ele>
        <time>2017-04-27T08:41:28Z</time>
      </trkpt>
      <trkpt lat="45.87384" lon="4.72711">
        <ele>190</ele>
        <time>2017-04-27T08:41:29Z</time>
      </trkpt>
      <trkpt lat="45.87382" lon="4.72703">
        <ele>190</ele>
        <time>2017-04-27T08:41:30Z</time>
      </trkpt>
      <trkpt lat="45.87379" lon="4.72697">
        <ele>190</ele>
        <time>2017-04-27T08:41:31Z</time>
      </trkpt>
      <trkpt lat="45.87375" lon="4.72691">
        <ele>190</ele>
        <time>2017-04-27T08:41:32Z</time>
      </trkpt>
      <trkpt lat="45.87371" lon="4.72685">
        <ele>190</ele>
        <time>2017-04-27T08:41:33Z</time>
      </trkpt>
      <trkpt lat="45.87367" lon="4.72679">
        <ele>190</ele>
        <time>2017-04-27T08:41:34Z</time>
      </trkpt>
      <trkpt lat="45.87363" lon="4.72674">
        <ele>190</ele>
        <time>2017-04-27T08:41:35Z</time>
      </trkpt>
      <trkpt lat="45.87358" lon="4.72669">
        <ele>190</ele>
        <time>2017-04-27T08:41:36Z</time>
      </trkpt>
      <trkpt lat="45.87353" lon="4.72665">
        <ele>190</ele>
        <time>2017-04-27T08:41:37Z</time>
      </trkpt>
      <trkpt lat="45.87348" lon="4.72661">
        <ele>190</ele>
        <time>2017-04-27T08:41:38Z</time>
      </trkpt>
      <trkpt lat="45.87344" lon="4.72656">
        <ele>190</ele>
        <time>2017-04-27T08:41:39Z</time>
      </trkpt>
      <trkpt lat="45.87339" lon="4.72652">
        <ele>190</ele>
        <time>2017-04-27T08:41:40Z</time>
      </trkpt>
      <trkpt lat="45.87334" lon="4.72648">
        <ele>191</ele>
        <time>2017-04-27T08:41:41Z</time>
      </trkpt>
      <trkpt lat="45.8733" lon="4.72644">
        <ele>192</ele>
        <time>2017-04-27T08:41:42Z</time>
      </trkpt>
      <trkpt lat="45.87327" lon="4.72639">
        <ele>192</ele>
        <time>2017-04-27T08:41:43Z</time>
      </trkpt>
      <trkpt lat="45.87324" lon="4.72634">
        <ele>193</ele>
        <time>2017-04-27T08:41:44Z</time>
      </trkpt>
      <trkpt lat="45.8732" lon="4.72629">
        <ele>193</ele>
        <time>2017-04-27T08:41:45Z</time>
      </trkpt>
      <trkpt lat="45.87313" lon="4.72621">
        <ele>193</ele>
        <time>2017-04-27T08:41:47Z</time>
      </trkpt>
      <trkpt lat="45.87311" lon="4.72616">
        <ele>193</ele>
        <time>2017-04-27T08:41:48Z</time>
      </trkpt>
      <trkpt lat="45.87307" lon="4.72612">
        <ele>193</ele>
        <time>2017-04-27T08:41:49Z</time>
      </trkpt>
      <trkpt lat="45.87303" lon="4.72608">
        <ele>193</ele>
        <time>2017-04-27T08:41:50Z</time>
      </trkpt>
      <trkpt lat="45.873" lon="4.72604">
        <ele>194</ele>
        <time>2017-04-27T08:41:51Z</time>
      </trkpt>
      <trkpt lat="45.87296" lon="4.72599">
        <ele>194</ele>
        <time>2017-04-27T08:41:52Z</time>
      </trkpt>
      <trkpt lat="45.87293" lon="4.72594">
        <ele>194</ele>
        <time>2017-04-27T08:41:53Z</time>
      </trkpt>
      <trkpt lat="45.8729" lon="4.72589">
        <ele>194</ele>
        <time>2017-04-27T08:41:54Z</time>
      </trkpt>
      <trkpt lat="45.87284" lon="4.7258">
        <ele>194</ele>
        <time>2017-04-27T08:41:56Z</time>
      </trkpt>
      <trkpt lat="45.87281" lon="4.72575">
        <ele>194</ele>
        <time>2017-04-27T08:41:57Z</time>
      </trkpt>
      <trkpt lat="45.87276" lon="4.72567">
        <ele>194</ele>
        <time>2017-04-27T08:41:59Z</time>
      </trkpt>
      <trkpt lat="45.87273" lon="4.72562">
        <ele>194</ele>
        <time>2017-04-27T08:42:00Z</time>
      </trkpt>
      <trkpt lat="45.87269" lon="4.72553">
        <ele>194</ele>
        <time>2017-04-27T08:42:02Z</time>
      </trkpt>
      <trkpt lat="45.87267" lon="4.72548">
        <ele>194</ele>
        <time>2017-04-27T08:42:03Z</time>
      </trkpt>
      <trkpt lat="45.87262" lon="4.7254">
        <ele>194</ele>
        <time>2017-04-27T08:42:05Z</time>
      </trkpt>
      <trkpt lat="45.87262" lon="4.72537">
        <ele>193</ele>
        <time>2017-04-27T08:42:06Z</time>
      </trkpt>
      <trkpt lat="45.87255" lon="4.72529">
        <ele>193</ele>
        <time>2017-04-27T08:42:09Z</time>
      </trkpt>
      <trkpt lat="45.87253" lon="4.72524">
        <ele>193</ele>
        <time>2017-04-27T08:42:10Z</time>
      </trkpt>
      <trkpt lat="45.87249" lon="4.72514">
        <ele>195</ele>
        <time>2017-04-27T08:42:12Z</time>
      </trkpt>
      <trkpt lat="45.87246" lon="4.72509">
        <ele>195</ele>
        <time>2017-04-27T08:42:13Z</time>
      </trkpt>
      <trkpt lat="45.87243" lon="4.72503">
        <ele>194</ele>
        <time>2017-04-27T08:42:14Z</time>
      </trkpt>
      <trkpt lat="45.87241" lon="4.72498">
        <ele>193</ele>
        <time>2017-04-27T08:42:15Z</time>
      </trkpt>
      <trkpt lat="45.87238" lon="4.72493">
        <ele>194</ele>
        <time>2017-04-27T08:42:16Z</time>
      </trkpt>
      <trkpt lat="45.87235" lon="4.72488">
        <ele>194</ele>
        <time>2017-04-27T08:42:17Z</time>
      </trkpt>
      <trkpt lat="45.87232" lon="4.72483">
        <ele>194</ele>
        <time>2017-04-27T08:42:18Z</time>
      </trkpt>
      <trkpt lat="45.87228" lon="4.72478">
        <ele>194</ele>
        <time>2017-04-27T08:42:19Z</time>
      </trkpt>
      <trkpt lat="45.87225" lon="4.72473">
        <ele>194</ele>
        <time>2017-04-27T08:42:20Z</time>
      </trkpt>
      <trkpt lat="45.87221" lon="4.72468">
        <ele>194</ele>
        <time>2017-04-27T08:42:21Z</time>
      </trkpt>
      <trkpt lat="45.87215" lon="4.72461">
        <ele>194</ele>
        <time>2017-04-27T08:42:23Z</time>
      </trkpt>
      <trkpt lat="45.87212" lon="4.72457">
        <ele>194</ele>
        <time>2017-04-27T08:42:24Z</time>
      </trkpt>
      <trkpt lat="45.87207" lon="4.72448">
        <ele>194</ele>
        <time>2017-04-27T08:42:26Z</time>
      </trkpt>
      <trkpt lat="45.87205" lon="4.72444">
        <ele>194</ele>
        <time>2017-04-27T08:42:27Z</time>
      </trkpt>
      <trkpt lat="45.872" lon="4.72435">
        <ele>194</ele>
        <time>2017-04-27T08:42:29Z</time>
      </trkpt>
      <trkpt lat="45.87196" lon="4.72432">
        <ele>194</ele>
        <time>2017-04-27T08:42:30Z</time>
      </trkpt>
      <trkpt lat="45.87191" lon="4.72423">
        <ele>194</ele>
        <time>2017-04-27T08:42:32Z</time>
      </trkpt>
      <trkpt lat="45.87188" lon="4.7242">
        <ele>194</ele>
        <time>2017-04-27T08:42:33Z</time>
      </trkpt>
      <trkpt lat="45.87182" lon="4.72412">
        <ele>192</ele>
        <time>2017-04-27T08:42:35Z</time>
      </trkpt>
      <trkpt lat="45.87179" lon="4.72408">
        <ele>192</ele>
        <time>2017-04-27T08:42:36Z</time>
      </trkpt>
      <trkpt lat="45.87174" lon="4.72397">
        <ele>191</ele>
        <time>2017-04-27T08:42:38Z</time>
      </trkpt>
      <trkpt lat="45.87172" lon="4.72392">
        <ele>191</ele>
        <time>2017-04-27T08:42:39Z</time>
      </trkpt>
      <trkpt lat="45.87169" lon="4.72386">
        <ele>190</ele>
        <time>2017-04-27T08:42:40Z</time>
      </trkpt>
      <trkpt lat="45.87167" lon="4.7238">
        <ele>190</ele>
        <time>2017-04-27T08:42:41Z</time>
      </trkpt>
      <trkpt lat="45.87165" lon="4.72374">
        <ele>196</ele>
        <time>2017-04-27T08:42:42Z</time>
      </trkpt>
      <trkpt lat="45.87163" lon="4.72368">
        <ele>196</ele>
        <time>2017-04-27T08:42:43Z</time>
      </trkpt>
      <trkpt lat="45.87161" lon="4.72362">
        <ele>196</ele>
        <time>2017-04-27T08:42:44Z</time>
      </trkpt>
      <trkpt lat="45.87159" lon="4.72356">
        <ele>195</ele>
        <time>2017-04-27T08:42:45Z</time>
      </trkpt>
      <trkpt lat="45.87157" lon="4.7235">
        <ele>195</ele>
        <time>2017-04-27T08:42:46Z</time>
      </trkpt>
      <trkpt lat="45.87155" lon="4.72344">
        <ele>194</ele>
        <time>2017-04-27T08:42:47Z</time>
      </trkpt>
      <trkpt lat="45.87152" lon="4.72338">
        <ele>194</ele>
        <time>2017-04-27T08:42:48Z</time>
      </trkpt>
      <trkpt lat="45.8715" lon="4.72332">
        <ele>193</ele>
        <time>2017-04-27T08:42:49Z</time>
      </trkpt>
      <trkpt lat="45.87147" lon="4.72325">
        <ele>193</ele>
        <time>2017-04-27T08:42:50Z</time>
      </trkpt>
      <trkpt lat="45.87144" lon="4.72319">
        <ele>194</ele>
        <time>2017-04-27T08:42:51Z</time>
      </trkpt>
      <trkpt lat="45.87142" lon="4.72313">
        <ele>195</ele>
        <time>2017-04-27T08:42:52Z</time>
      </trkpt>
      <trkpt lat="45.87139" lon="4.72307">
        <ele>195</ele>
        <time>2017-04-27T08:42:53Z</time>
      </trkpt>
      <trkpt lat="45.87136" lon="4.72302">
        <ele>195</ele>
        <time>2017-04-27T08:42:54Z</time>
      </trkpt>
      <trkpt lat="45.87132" lon="4.72296">
        <ele>195</ele>
        <time>2017-04-27T08:42:55Z</time>
      </trkpt>
      <trkpt lat="45.87129" lon="4.7229">
        <ele>196</ele>
        <time>2017-04-27T08:42:56Z</time>
      </trkpt>
      <trkpt lat="45.87125" lon="4.72284">
        <ele>196</ele>
        <time>2017-04-27T08:42:57Z</time>
      </trkpt>
      <trkpt lat="45.87121" lon="4.72278">
        <ele>196</ele>
        <time>2017-04-27T08:42:58Z</time>
      </trkpt>
      <trkpt lat="45.87117" lon="4.72273">
        <ele>196</ele>
        <time>2017-04-27T08:42:59Z</time>
      </trkpt>
      <trkpt lat="45.87112" lon="4.72267">
        <ele>197</ele>
        <time>2017-04-27T08:43:00Z</time>
      </trkpt>
      <trkpt lat="45.87108" lon="4.72262">
        <ele>197</ele>
        <time>2017-04-27T08:43:01Z</time>
      </trkpt>
      <trkpt lat="45.87104" lon="4.72257">
        <ele>197</ele>
        <time>2017-04-27T08:43:02Z</time>
      </trkpt>
      <trkpt lat="45.87099" lon="4.72252">
        <ele>198</ele>
        <time>2017-04-27T08:43:03Z</time>
      </trkpt>
      <trkpt lat="45.87094" lon="4.72247">
        <ele>196</ele>
        <time>2017-04-27T08:43:04Z</time>
      </trkpt>
      <trkpt lat="45.8709" lon="4.72241">
        <ele>196</ele>
        <time>2017-04-27T08:43:05Z</time>
      </trkpt>
      <trkpt lat="45.87085" lon="4.72236">
        <ele>196</ele>
        <time>2017-04-27T08:43:06Z</time>
      </trkpt>
      <trkpt lat="45.8708" lon="4.72231">
        <ele>200</ele>
        <time>2017-04-27T08:43:07Z</time>
      </trkpt>
      <trkpt lat="45.87075" lon="4.72226">
        <ele>200</ele>
        <time>2017-04-27T08:43:08Z</time>
      </trkpt>
      <trkpt lat="45.8707" lon="4.72221">
        <ele>200</ele>
        <time>2017-04-27T08:43:09Z</time>
      </trkpt>
      <trkpt lat="45.87065" lon="4.72216">
        <ele>200</ele>
        <time>2017-04-27T08:43:10Z</time>
      </trkpt>
      <trkpt lat="45.87059" lon="4.72211">
        <ele>200</ele>
        <time>2017-04-27T08:43:11Z</time>
      </trkpt>
      <trkpt lat="45.87054" lon="4.72207">
        <ele>200</ele>
        <time>2017-04-27T08:43:12Z</time>
      </trkpt>
      <trkpt lat="45.87048" lon="4.72203">
        <ele>200</ele>
        <time>2017-04-27T08:43:13Z</time>
      </trkpt>
      <trkpt lat="45.87042" lon="4.72199">
        <ele>200</ele>
        <time>2017-04-27T08:43:14Z</time>
      </trkpt>
      <trkpt lat="45.87036" lon="4.72195">
        <ele>200</ele>
        <time>2017-04-27T08:43:15Z</time>
      </trkpt>
      <trkpt lat="45.87029" lon="4.72191">
        <ele>201</ele>
        <time>2017-04-27T08:43:16Z</time>
      </trkpt>
      <trkpt lat="45.87023" lon="4.72188">
        <ele>201</ele>
        <time>2017-04-27T08:43:17Z</time>
      </trkpt>
      <trkpt lat="45.87017" lon="4.72184">
        <ele>201</ele>
        <time>2017-04-27T08:43:18Z</time>
      </trkpt>
      <trkpt lat="45.87011" lon="4.7218">
        <ele>201</ele>
        <time>2017-04-27T08:43:19Z</time>
      </trkpt>
      <trkpt lat="45.87005" lon="4.72176">
        <ele>201</ele>
        <time>2017-04-27T08:43:20Z</time>
      </trkpt>
      <trkpt lat="45.86999" lon="4.72172">
        <ele>203</ele>
        <time>2017-04-27T08:43:21Z</time>
      </trkpt>
      <trkpt lat="45.86993" lon="4.72168">
        <ele>204</ele>
        <time>2017-04-27T08:43:22Z</time>
      </trkpt>
      <trkpt lat="45.86988" lon="4.72164">
        <ele>201</ele>
        <time>2017-04-27T08:43:23Z</time>
      </trkpt>
      <trkpt lat="45.86982" lon="4.72161">
        <ele>201</ele>
        <time>2017-04-27T08:43:24Z</time>
      </trkpt>
      <trkpt lat="45.86977" lon="4.72157">
        <ele>200</ele>
        <time>2017-04-27T08:43:25Z</time>
      </trkpt>
      <trkpt lat="45.86971" lon="4.72153">
        <ele>201</ele>
        <time>2017-04-27T08:43:26Z</time>
      </trkpt>
      <trkpt lat="45.86966" lon="4.7215">
        <ele>201</ele>
        <time>2017-04-27T08:43:27Z</time>
      </trkpt>
      <trkpt lat="45.8696" lon="4.72147">
        <ele>201</ele>
        <time>2017-04-27T08:43:28Z</time>
      </trkpt>
      <trkpt lat="45.86954" lon="4.72144">
        <ele>201</ele>
        <time>2017-04-27T08:43:29Z</time>
      </trkpt>
      <trkpt lat="45.86949" lon="4.72141">
        <ele>201</ele>
        <time>2017-04-27T08:43:30Z</time>
      </trkpt>
      <trkpt lat="45.86944" lon="4.72137">
        <ele>201</ele>
        <time>2017-04-27T08:43:31Z</time>
      </trkpt>
      <trkpt lat="45.86938" lon="4.72135">
        <ele>201</ele>
        <time>2017-04-27T08:43:32Z</time>
      </trkpt>
      <trkpt lat="45.86932" lon="4.72132">
        <ele>201</ele>
        <time>2017-04-27T08:43:33Z</time>
      </trkpt>
      <trkpt lat="45.86926" lon="4.72129">
        <ele>201</ele>
        <time>2017-04-27T08:43:34Z</time>
      </trkpt>
      <trkpt lat="45.86919" lon="4.72127">
        <ele>200</ele>
        <time>2017-04-27T08:43:35Z</time>
      </trkpt>
      <trkpt lat="45.86912" lon="4.72124">
        <ele>202</ele>
        <time>2017-04-27T08:43:36Z</time>
      </trkpt>
      <trkpt lat="45.86906" lon="4.72121">
        <ele>202</ele>
        <time>2017-04-27T08:43:37Z</time>
      </trkpt>
      <trkpt lat="45.86899" lon="4.72119">
        <ele>201</ele>
        <time>2017-04-27T08:43:38Z</time>
      </trkpt>
      <trkpt lat="45.86892" lon="4.72116">
        <ele>201</ele>
        <time>2017-04-27T08:43:39Z</time>
      </trkpt>
      <trkpt lat="45.86885" lon="4.72113">
        <ele>201</ele>
        <time>2017-04-27T08:43:40Z</time>
      </trkpt>
      <trkpt lat="45.86879" lon="4.72111">
        <ele>201</ele>
        <time>2017-04-27T08:43:41Z</time>
      </trkpt>
      <trkpt lat="45.86873" lon="4.72109">
        <ele>201</ele>
        <time>2017-04-27T08:43:42Z</time>
      </trkpt>
      <trkpt lat="45.86866" lon="4.72106">
        <ele>200</ele>
        <time>2017-04-27T08:43:43Z</time>
      </trkpt>
      <trkpt lat="45.8686" lon="4.72103">
        <ele>200</ele>
        <time>2017-04-27T08:43:44Z</time>
      </trkpt>
      <trkpt lat="45.86854" lon="4.72101">
        <ele>199</ele>
        <time>2017-04-27T08:43:45Z</time>
      </trkpt>
      <trkpt lat="45.86847" lon="4.72098">
        <ele>198</ele>
        <time>2017-04-27T08:43:46Z</time>
      </trkpt>
      <trkpt lat="45.86841" lon="4.72095">
        <ele>197</ele>
        <time>2017-04-27T08:43:47Z</time>
      </trkpt>
      <trkpt lat="45.86835" lon="4.72092">
        <ele>196</ele>
        <time>2017-04-27T08:43:48Z</time>
      </trkpt>
      <trkpt lat="45.86829" lon="4.72089">
        <ele>196</ele>
        <time>2017-04-27T08:43:49Z</time>
      </trkpt>
      <trkpt lat="45.86822" lon="4.72086">
        <ele>197</ele>
        <time>2017-04-27T08:43:50Z</time>
      </trkpt>
      <trkpt lat="45.86816" lon="4.72083">
        <ele>194</ele>
        <time>2017-04-27T08:43:51Z</time>
      </trkpt>
      <trkpt lat="45.86809" lon="4.7208">
        <ele>194</ele>
        <time>2017-04-27T08:43:52Z</time>
      </trkpt>
      <trkpt lat="45.86803" lon="4.72078">
        <ele>194</ele>
        <time>2017-04-27T08:43:53Z</time>
      </trkpt>
      <trkpt lat="45.86796" lon="4.72076">
        <ele>194</ele>
        <time>2017-04-27T08:43:54Z</time>
      </trkpt>
      <trkpt lat="45.8679" lon="4.72074">
        <ele>194</ele>
        <time>2017-04-27T08:43:55Z</time>
      </trkpt>
      <trkpt lat="45.86783" lon="4.72072">
        <ele>194</ele>
        <time>2017-04-27T08:43:56Z</time>
      </trkpt>
      <trkpt lat="45.86777" lon="4.72069">
        <ele>195</ele>
        <time>2017-04-27T08:43:57Z</time>
      </trkpt>
      <trkpt lat="45.8677" lon="4.72066">
        <ele>195</ele>
        <time>2017-04-27T08:43:58Z</time>
      </trkpt>
      <trkpt lat="45.86764" lon="4.72064">
        <ele>195</ele>
        <time>2017-04-27T08:43:59Z</time>
      </trkpt>
      <trkpt lat="45.86759" lon="4.7206">
        <ele>195</ele>
        <time>2017-04-27T08:44:00Z</time>
      </trkpt>
      <trkpt lat="45.86754" lon="4.72057">
        <ele>195</ele>
        <time>2017-04-27T08:44:01Z</time>
      </trkpt>
      <trkpt lat="45.86748" lon="4.72054">
        <ele>197</ele>
        <time>2017-04-27T08:44:02Z</time>
      </trkpt>
      <trkpt lat="45.86743" lon="4.72052">
        <ele>197</ele>
        <time>2017-04-27T08:44:03Z</time>
      </trkpt>
      <trkpt lat="45.86737" lon="4.72049">
        <ele>197</ele>
        <time>2017-04-27T08:44:04Z</time>
      </trkpt>
      <trkpt lat="45.86732" lon="4.72047">
        <ele>197</ele>
        <time>2017-04-27T08:44:05Z</time>
      </trkpt>
      <trkpt lat="45.86727" lon="4.72044">
        <ele>197</ele>
        <time>2017-04-27T08:44:06Z</time>
      </trkpt>
      <trkpt lat="45.86721" lon="4.72041">
        <ele>197</ele>
        <time>2017-04-27T08:44:07Z</time>
      </trkpt>
      <trkpt lat="45.86716" lon="4.72038">
        <ele>197</ele>
        <time>2017-04-27T08:44:08Z</time>
      </trkpt>
      <trkpt lat="45.86711" lon="4.72034">
        <ele>197</ele>
        <time>2017-04-27T08:44:09Z</time>
      </trkpt>
      <trkpt lat="45.86705" lon="4.72029">
        <ele>197</ele>
        <time>2017-04-27T08:44:10Z</time>
      </trkpt>
      <trkpt lat="45.86699" lon="4.72025">
        <ele>197</ele>
        <time>2017-04-27T08:44:11Z</time>
      </trkpt>
      <trkpt lat="45.86693" lon="4.72021">
        <ele>197</ele>
        <time>2017-04-27T08:44:12Z</time>
      </trkpt>
      <trkpt lat="45.86687" lon="4.72016">
        <ele>196</ele>
        <time>2017-04-27T08:44:13Z</time>
      </trkpt>
      <trkpt lat="45.86682" lon="4.72011">
        <ele>196</ele>
        <time>2017-04-27T08:44:14Z</time>
      </trkpt>
      <trkpt lat="45.86676" lon="4.72007">
        <ele>196</ele>
        <time>2017-04-27T08:44:15Z</time>
      </trkpt>
      <trkpt lat="45.8667" lon="4.72002">
        <ele>195</ele>
        <time>2017-04-27T08:44:16Z</time>
      </trkpt>
      <trkpt lat="45.86665" lon="4.71997">
        <ele>195</ele>
        <time>2017-04-27T08:44:17Z</time>
      </trkpt>
      <trkpt lat="45.86659" lon="4.71993">
        <ele>195</ele>
        <time>2017-04-27T08:44:18Z</time>
      </trkpt>
      <trkpt lat="45.86654" lon="4.71989">
        <ele>195</ele>
        <time>2017-04-27T08:44:19Z</time>
      </trkpt>
      <trkpt lat="45.86649" lon="4.71984">
        <ele>195</ele>
        <time>2017-04-27T08:44:20Z</time>
      </trkpt>
      <trkpt lat="45.86643" lon="4.7198">
        <ele>195</ele>
        <time>2017-04-27T08:44:21Z</time>
      </trkpt>
      <trkpt lat="45.86637" lon="4.71976">
        <ele>195</ele>
        <time>2017-04-27T08:44:22Z</time>
      </trkpt>
      <trkpt lat="45.86632" lon="4.71972">
        <ele>195</ele>
        <time>2017-04-27T08:44:23Z</time>
      </trkpt>
      <trkpt lat="45.86626" lon="4.71968">
        <ele>195</ele>
        <time>2017-04-27T08:44:24Z</time>
      </trkpt>
      <trkpt lat="45.86621" lon="4.71963">
        <ele>195</ele>
        <time>2017-04-27T08:44:25Z</time>
      </trkpt>
      <trkpt lat="45.86615" lon="4.71959">
        <ele>195</ele>
        <time>2017-04-27T08:44:26Z</time>
      </trkpt>
      <trkpt lat="45.8661" lon="4.71955">
        <ele>194</ele>
        <time>2017-04-27T08:44:27Z</time>
      </trkpt>
      <trkpt lat="45.86605" lon="4.71951">
        <ele>194</ele>
        <time>2017-04-27T08:44:28Z</time>
      </trkpt>
      <trkpt lat="45.86601" lon="4.71946">
        <ele>194</ele>
        <time>2017-04-27T08:44:29Z</time>
      </trkpt>
      <trkpt lat="45.86596" lon="4.71942">
        <ele>194</ele>
        <time>2017-04-27T08:44:30Z</time>
      </trkpt>
      <trkpt lat="45.86591" lon="4.71938">
        <ele>194</ele>
        <time>2017-04-27T08:44:31Z</time>
      </trkpt>
      <trkpt lat="45.86586" lon="4.71934">
        <ele>194</ele>
        <time>2017-04-27T08:44:32Z</time>
      </trkpt>
      <trkpt lat="45.8658" lon="4.71929">
        <ele>195</ele>
        <time>2017-04-27T08:44:33Z</time>
      </trkpt>
      <trkpt lat="45.86575" lon="4.71925">
        <ele>195</ele>
        <time>2017-04-27T08:44:34Z</time>
      </trkpt>
      <trkpt lat="45.8657" lon="4.71921">
        <ele>195</ele>
        <time>2017-04-27T08:44:35Z</time>
      </trkpt>
      <trkpt lat="45.86565" lon="4.71916">
        <ele>195</ele>
        <time>2017-04-27T08:44:36Z</time>
      </trkpt>
      <trkpt lat="45.8656" lon="4.71912">
        <ele>195</ele>
        <time>2017-04-27T08:44:37Z</time>
      </trkpt>
      <trkpt lat="45.86554" lon="4.71908">
        <ele>195</ele>
        <time>2017-04-27T08:44:38Z</time>
      </trkpt>
      <trkpt lat="45.86549" lon="4.71903">
        <ele>195</ele>
        <time>2017-04-27T08:44:39Z</time>
      </trkpt>
      <trkpt lat="45.86544" lon="4.71899">
        <ele>195</ele>
        <time>2017-04-27T08:44:40Z</time>
      </trkpt>
      <trkpt lat="45.86538" lon="4.71895">
        <ele>195</ele>
        <time>2017-04-27T08:44:41Z</time>
      </trkpt>
      <trkpt lat="45.86533" lon="4.71891">
        <ele>195</ele>
        <time>2017-04-27T08:44:42Z</time>
      </trkpt>
      <trkpt lat="45.86528" lon="4.71886">
        <ele>195</ele>
        <time>2017-04-27T08:44:43Z</time>
      </trkpt>
      <trkpt lat="45.86522" lon="4.71882">
        <ele>195</ele>
        <time>2017-04-27T08:44:44Z</time>
      </trkpt>
      <trkpt lat="45.86518" lon="4.71878">
        <ele>195</ele>
        <time>2017-04-27T08:44:45Z</time>
      </trkpt>
      <trkpt lat="45.86513" lon="4.71874">
        <ele>195</ele>
        <time>2017-04-27T08:44:46Z</time>
      </trkpt>
      <trkpt lat="45.86508" lon="4.71871">
        <ele>195</ele>
        <time>2017-04-27T08:44:47Z</time>
      </trkpt>
      <trkpt lat="45.86503" lon="4.71867">
        <ele>195</ele>
        <time>2017-04-27T08:44:48Z</time>
      </trkpt>
      <trkpt lat="45.86498" lon="4.71864">
        <ele>198</ele>
        <time>2017-04-27T08:44:49Z</time>
      </trkpt>
      <trkpt lat="45.86493" lon="4.71859">
        <ele>198</ele>
        <time>2017-04-27T08:44:50Z</time>
      </trkpt>
      <trkpt lat="45.86488" lon="4.71855">
        <ele>198</ele>
        <time>2017-04-27T08:44:51Z</time>
      </trkpt>
      <trkpt lat="45.86483" lon="4.71851">
        <ele>198</ele>
        <time>2017-04-27T08:44:52Z</time>
      </trkpt>
      <trkpt lat="45.86478" lon="4.71846">
        <ele>198</ele>
        <time>2017-04-27T08:44:53Z</time>
      </trkpt>
      <trkpt lat="45.86473" lon="4.71842">
        <ele>198</ele>
        <time>2017-04-27T08:44:54Z</time>
      </trkpt>
      <trkpt lat="45.86468" lon="4.71838">
        <ele>199</ele>
        <time>2017-04-27T08:44:55Z</time>
      </trkpt>
      <trkpt lat="45.86463" lon="4.71833">
        <ele>196</ele>
        <time>2017-04-27T08:44:56Z</time>
      </trkpt>
      <trkpt lat="45.86457" lon="4.71829">
        <ele>196</ele>
        <time>2017-04-27T08:44:57Z</time>
      </trkpt>
      <trkpt lat="45.86452" lon="4.71825">
        <ele>197</ele>
        <time>2017-04-27T08:44:58Z</time>
      </trkpt>
      <trkpt lat="45.86448" lon="4.71822">
        <ele>197</ele>
        <time>2017-04-27T08:44:59Z</time>
      </trkpt>
      <trkpt lat="45.86443" lon="4.71819">
        <ele>197</ele>
        <time>2017-04-27T08:45:00Z</time>
      </trkpt>
      <trkpt lat="45.86437" lon="4.71815">
        <ele>197</ele>
        <time>2017-04-27T08:45:01Z</time>
      </trkpt>
      <trkpt lat="45.86432" lon="4.71811">
        <ele>197</ele>
        <time>2017-04-27T08:45:02Z</time>
      </trkpt>
      <trkpt lat="45.86428" lon="4.71807">
        <ele>197</ele>
        <time>2017-04-27T08:45:03Z</time>
      </trkpt>
      <trkpt lat="45.86423" lon="4.71803">
        <ele>197</ele>
        <time>2017-04-27T08:45:04Z</time>
      </trkpt>
      <trkpt lat="45.86418" lon="4.71799">
        <ele>197</ele>
        <time>2017-04-27T08:45:05Z</time>
      </trkpt>
      <trkpt lat="45.86414" lon="4.71795">
        <ele>199</ele>
        <time>2017-04-27T08:45:06Z</time>
      </trkpt>
      <trkpt lat="45.86409" lon="4.71792">
        <ele>198</ele>
        <time>2017-04-27T08:45:07Z</time>
      </trkpt>
      <trkpt lat="45.86405" lon="4.71787">
        <ele>198</ele>
        <time>2017-04-27T08:45:08Z</time>
      </trkpt>
      <trkpt lat="45.864" lon="4.71783">
        <ele>198</ele>
        <time>2017-04-27T08:45:09Z</time>
      </trkpt>
      <trkpt lat="45.86395" lon="4.7178">
        <ele>198</ele>
        <time>2017-04-27T08:45:10Z</time>
      </trkpt>
      <trkpt lat="45.8639" lon="4.71776">
        <ele>198</ele>
        <time>2017-04-27T08:45:11Z</time>
      </trkpt>
      <trkpt lat="45.86386" lon="4.71772">
        <ele>198</ele>
        <time>2017-04-27T08:45:12Z</time>
      </trkpt>
      <trkpt lat="45.86381" lon="4.71768">
        <ele>198</ele>
        <time>2017-04-27T08:45:13Z</time>
      </trkpt>
      <trkpt lat="45.86376" lon="4.71764">
        <ele>198</ele>
        <time>2017-04-27T08:45:14Z</time>
      </trkpt>
      <trkpt lat="45.8637" lon="4.7176">
        <ele>198</ele>
        <time>2017-04-27T08:45:15Z</time>
      </trkpt>
      <trkpt lat="45.86366" lon="4.71756">
        <ele>198</ele>
        <time>2017-04-27T08:45:16Z</time>
      </trkpt>
      <trkpt lat="45.8636" lon="4.71752">
        <ele>197</ele>
        <time>2017-04-27T08:45:17Z</time>
      </trkpt>
      <trkpt lat="45.86355" lon="4.71748">
        <ele>195</ele>
        <time>2017-04-27T08:45:18Z</time>
      </trkpt>
      <trkpt lat="45.8635" lon="4.71744">
        <ele>195</ele>
        <time>2017-04-27T08:45:19Z</time>
      </trkpt>
      <trkpt lat="45.86344" lon="4.7174">
        <ele>195</ele>
        <time>2017-04-27T08:45:20Z</time>
      </trkpt>
      <trkpt lat="45.86339" lon="4.71736">
        <ele>195</ele>
        <time>2017-04-27T08:45:21Z</time>
      </trkpt>
      <trkpt lat="45.86334" lon="4.71732">
        <ele>195</ele>
        <time>2017-04-27T08:45:22Z</time>
      </trkpt>
      <trkpt lat="45.86329" lon="4.71728">
        <ele>196</ele>
        <time>2017-04-27T08:45:23Z</time>
      </trkpt>
      <trkpt lat="45.86324" lon="4.71724">
        <ele>196</ele>
        <time>2017-04-27T08:45:24Z</time>
      </trkpt>
      <trkpt lat="45.86318" lon="4.7172">
        <ele>196</ele>
        <time>2017-04-27T08:45:25Z</time>
      </trkpt>
      <trkpt lat="45.86313" lon="4.71716">
        <ele>195</ele>
        <time>2017-04-27T08:45:26Z</time>
      </trkpt>
      <trkpt lat="45.86308" lon="4.71712">
        <ele>195</ele>
        <time>2017-04-27T08:45:27Z</time>
      </trkpt>
      <trkpt lat="45.86302" lon="4.71709">
        <ele>195</ele>
        <time>2017-04-27T08:45:28Z</time>
      </trkpt>
      <trkpt lat="45.86297" lon="4.71705">
        <ele>195</ele>
        <time>2017-04-27T08:45:29Z</time>
      </trkpt>
      <trkpt lat="45.86292" lon="4.71701">
        <ele>195</ele>
        <time>2017-04-27T08:45:30Z</time>
      </trkpt>
      <trkpt lat="45.86287" lon="4.71697">
        <ele>195</ele>
        <time>2017-04-27T08:45:31Z</time>
      </trkpt>
      <trkpt lat="45.86281" lon="4.71692">
        <ele>195</ele>
        <time>2017-04-27T08:45:32Z</time>
      </trkpt>
      <trkpt lat="45.86276" lon="4.71688">
        <ele>195</ele>
        <time>2017-04-27T08:45:33Z</time>
      </trkpt>
      <trkpt lat="45.8627" lon="4.71684">
        <ele>195</ele>
        <time>2017-04-27T08:45:34Z</time>
      </trkpt>
      <trkpt lat="45.86265" lon="4.7168">
        <ele>195</ele>
        <time>2017-04-27T08:45:35Z</time>
      </trkpt>
      <trkpt lat="45.86259" lon="4.71676">
        <ele>195</ele>
        <time>2017-04-27T08:45:36Z</time>
      </trkpt>
      <trkpt lat="45.86253" lon="4.71671">
        <ele>195</ele>
        <time>2017-04-27T08:45:37Z</time>
      </trkpt>
      <trkpt lat="45.86247" lon="4.71666">
        <ele>195</ele>
        <time>2017-04-27T08:45:38Z</time>
      </trkpt>
      <trkpt lat="45.86241" lon="4.71662">
        <ele>195</ele>
        <time>2017-04-27T08:45:39Z</time>
      </trkpt>
      <trkpt lat="45.86235" lon="4.71658">
        <ele>195</ele>
        <time>2017-04-27T08:45:40Z</time>
      </trkpt>
      <trkpt lat="45.86229" lon="4.71654">
        <ele>195</ele>
        <time>2017-04-27T08:45:41Z</time>
      </trkpt>
      <trkpt lat="45.86224" lon="4.7165">
        <ele>195</ele>
        <time>2017-04-27T08:45:42Z</time>
      </trkpt>
      <trkpt lat="45.86219" lon="4.71646">
        <ele>195</ele>
        <time>2017-04-27T08:45:43Z</time>
      </trkpt>
      <trkpt lat="45.86215" lon="4.7164">
        <ele>195</ele>
        <time>2017-04-27T08:45:44Z</time>
      </trkpt>
      <trkpt lat="45.86211" lon="4.71633">
        <ele>195</ele>
        <time>2017-04-27T08:45:45Z</time>
      </trkpt>
      <trkpt lat="45.8621" lon="4.71626">
        <ele>195</ele>
        <time>2017-04-27T08:45:46Z</time>
      </trkpt>
      <trkpt lat="45.8621" lon="4.71619">
        <ele>195</ele>
        <time>2017-04-27T08:45:47Z</time>
      </trkpt>
      <trkpt lat="45.86208" lon="4.71612">
        <ele>195</ele>
        <time>2017-04-27T08:45:48Z</time>
      </trkpt>
      <trkpt lat="45.86206" lon="4.71605">
        <ele>195</ele>
        <time>2017-04-27T08:45:49Z</time>
      </trkpt>
      <trkpt lat="45.86204" lon="4.71599">
        <ele>195</ele>
        <time>2017-04-27T08:45:50Z</time>
      </trkpt>
      <trkpt lat="45.86201" lon="4.71595">
        <ele>195</ele>
        <time>2017-04-27T08:45:51Z</time>
      </trkpt>
      <trkpt lat="45.86197" lon="4.71591">
        <ele>195</ele>
        <time>2017-04-27T08:45:52Z</time>
      </trkpt>
      <trkpt lat="45.86193" lon="4.71586">
        <ele>195</ele>
        <time>2017-04-27T08:45:53Z</time>
      </trkpt>
      <trkpt lat="45.86189" lon="4.7158">
        <ele>195</ele>
        <time>2017-04-27T08:45:54Z</time>
      </trkpt>
      <trkpt lat="45.86185" lon="4.71574">
        <ele>195</ele>
        <time>2017-04-27T08:45:55Z</time>
      </trkpt>
      <trkpt lat="45.86182" lon="4.71569">
        <ele>195</ele>
        <time>2017-04-27T08:45:56Z</time>
      </trkpt>
      <trkpt lat="45.86179" lon="4.71563">
        <ele>195</ele>
        <time>2017-04-27T08:45:57Z</time>
      </trkpt>
      <trkpt lat="45.86176" lon="4.71557">
        <ele>195</ele>
        <time>2017-04-27T08:45:58Z</time>
      </trkpt>
      <trkpt lat="45.86173" lon="4.71551">
        <ele>195</ele>
        <time>2017-04-27T08:45:59Z</time>
      </trkpt>
      <trkpt lat="45.8617" lon="4.71546">
        <ele>195</ele>
        <time>2017-04-27T08:46:00Z</time>
      </trkpt>
      <trkpt lat="45.86167" lon="4.7154">
        <ele>195</ele>
        <time>2017-04-27T08:46:01Z</time>
      </trkpt>
      <trkpt lat="45.86164" lon="4.71534">
        <ele>195</ele>
        <time>2017-04-27T08:46:02Z</time>
      </trkpt>
      <trkpt lat="45.86161" lon="4.71528">
        <ele>195</ele>
        <time>2017-04-27T08:46:03Z</time>
      </trkpt>
      <trkpt lat="45.86158" lon="4.71521">
        <ele>195</ele>
        <time>2017-04-27T08:46:04Z</time>
      </trkpt>
      <trkpt lat="45.86155" lon="4.71515">
        <ele>195</ele>
        <time>2017-04-27T08:46:05Z</time>
      </trkpt>
      <trkpt lat="45.86152" lon="4.71508">
        <ele>195</ele>
        <time>2017-04-27T08:46:06Z</time>
      </trkpt>
      <trkpt lat="45.86149" lon="4.71502">
        <ele>195</ele>
        <time>2017-04-27T08:46:07Z</time>
      </trkpt>
      <trkpt lat="45.86146" lon="4.71496">
        <ele>195</ele>
        <time>2017-04-27T08:46:08Z</time>
      </trkpt>
      <trkpt lat="45.86143" lon="4.71489">
        <ele>195</ele>
        <time>2017-04-27T08:46:09Z</time>
      </trkpt>
      <trkpt lat="45.86141" lon="4.71483">
        <ele>195</ele>
        <time>2017-04-27T08:46:10Z</time>
      </trkpt>
      <trkpt lat="45.86139" lon="4.71476">
        <ele>195</ele>
        <time>2017-04-27T08:46:11Z</time>
      </trkpt>
      <trkpt lat="45.86137" lon="4.71469">
        <ele>195</ele>
        <time>2017-04-27T08:46:12Z</time>
      </trkpt>
      <trkpt lat="45.86134" lon="4.71463">
        <ele>195</ele>
        <time>2017-04-27T08:46:13Z</time>
      </trkpt>
      <trkpt lat="45.86132" lon="4.71456">
        <ele>195</ele>
        <time>2017-04-27T08:46:14Z</time>
      </trkpt>
      <trkpt lat="45.8613" lon="4.7145">
        <ele>195</ele>
        <time>2017-04-27T08:46:15Z</time>
      </trkpt>
      <trkpt lat="45.86128" lon="4.71443">
        <ele>195</ele>
        <time>2017-04-27T08:46:16Z</time>
      </trkpt>
      <trkpt lat="45.86127" lon="4.71436">
        <ele>195</ele>
        <time>2017-04-27T08:46:17Z</time>
      </trkpt>
      <trkpt lat="45.86125" lon="4.71429">
        <ele>195</ele>
        <time>2017-04-27T08:46:18Z</time>
      </trkpt>
      <trkpt lat="45.86123" lon="4.71422">
        <ele>195</ele>
        <time>2017-04-27T08:46:19Z</time>
      </trkpt>
      <trkpt lat="45.86121" lon="4.71415">
        <ele>196</ele>
        <time>2017-04-27T08:46:20Z</time>
      </trkpt>
      <trkpt lat="45.86119" lon="4.71407">
        <ele>196</ele>
        <time>2017-04-27T08:46:21Z</time>
      </trkpt>
      <trkpt lat="45.86116" lon="4.714">
        <ele>196</ele>
        <time>2017-04-27T08:46:22Z</time>
      </trkpt>
      <trkpt lat="45.86114" lon="4.71393">
        <ele>196</ele>
        <time>2017-04-27T08:46:23Z</time>
      </trkpt>
      <trkpt lat="45.86113" lon="4.71386">
        <ele>196</ele>
        <time>2017-04-27T08:46:24Z</time>
      </trkpt>
      <trkpt lat="45.86112" lon="4.71378">
        <ele>196</ele>
        <time>2017-04-27T08:46:25Z</time>
      </trkpt>
      <trkpt lat="45.86112" lon="4.71372">
        <ele>196</ele>
        <time>2017-04-27T08:46:26Z</time>
      </trkpt>
      <trkpt lat="45.86111" lon="4.71365">
        <ele>196</ele>
        <time>2017-04-27T08:46:27Z</time>
      </trkpt>
      <trkpt lat="45.8611" lon="4.71358">
        <ele>196</ele>
        <time>2017-04-27T08:46:28Z</time>
      </trkpt>
      <trkpt lat="45.8611" lon="4.71351">
        <ele>196</ele>
        <time>2017-04-27T08:46:29Z</time>
      </trkpt>
      <trkpt lat="45.86111" lon="4.71343">
        <ele>196</ele>
        <time>2017-04-27T08:46:30Z</time>
      </trkpt>
      <trkpt lat="45.86111" lon="4.71336">
        <ele>196</ele>
        <time>2017-04-27T08:46:31Z</time>
      </trkpt>
      <trkpt lat="45.8611" lon="4.71328">
        <ele>196</ele>
        <time>2017-04-27T08:46:32Z</time>
      </trkpt>
      <trkpt lat="45.86109" lon="4.71321">
        <ele>196</ele>
        <time>2017-04-27T08:46:33Z</time>
      </trkpt>
      <trkpt lat="45.86108" lon="4.71313">
        <ele>196</ele>
        <time>2017-04-27T08:46:34Z</time>
      </trkpt>
      <trkpt lat="45.86107" lon="4.71305">
        <ele>196</ele>
        <time>2017-04-27T08:46:35Z</time>
      </trkpt>
      <trkpt lat="45.86106" lon="4.71298">
        <ele>196</ele>
        <time>2017-04-27T08:46:36Z</time>
      </trkpt>
      <trkpt lat="45.86105" lon="4.71291">
        <ele>197</ele>
        <time>2017-04-27T08:46:37Z</time>
      </trkpt>
      <trkpt lat="45.86103" lon="4.71279">
        <ele>197</ele>
        <time>2017-04-27T08:46:39Z</time>
      </trkpt>
      <trkpt lat="45.86101" lon="4.71273">
        <ele>197</ele>
        <time>2017-04-27T08:46:40Z</time>
      </trkpt>
      <trkpt lat="45.86098" lon="4.71268">
        <ele>197</ele>
        <time>2017-04-27T08:46:41Z</time>
      </trkpt>
      <trkpt lat="45.86095" lon="4.71262">
        <ele>197</ele>
        <time>2017-04-27T08:46:42Z</time>
      </trkpt>
      <trkpt lat="45.86092" lon="4.71257">
        <ele>197</ele>
        <time>2017-04-27T08:46:43Z</time>
      </trkpt>
      <trkpt lat="45.86088" lon="4.71252">
        <ele>198</ele>
        <time>2017-04-27T08:46:44Z</time>
      </trkpt>
      <trkpt lat="45.86084" lon="4.71245">
        <ele>198</ele>
        <time>2017-04-27T08:46:45Z</time>
      </trkpt>
      <trkpt lat="45.86083" lon="4.71237">
        <ele>198</ele>
        <time>2017-04-27T08:46:46Z</time>
      </trkpt>
      <trkpt lat="45.86083" lon="4.71229">
        <ele>198</ele>
        <time>2017-04-27T08:46:47Z</time>
      </trkpt>
      <trkpt lat="45.86084" lon="4.71221">
        <ele>197</ele>
        <time>2017-04-27T08:46:48Z</time>
      </trkpt>
      <trkpt lat="45.86086" lon="4.71209">
        <ele>197</ele>
        <time>2017-04-27T08:46:50Z</time>
      </trkpt>
      <trkpt lat="45.86087" lon="4.71203">
        <ele>197</ele>
        <time>2017-04-27T08:46:51Z</time>
      </trkpt>
      <trkpt lat="45.86089" lon="4.71192">
        <ele>197</ele>
        <time>2017-04-27T08:46:53Z</time>
      </trkpt>
      <trkpt lat="45.8609" lon="4.71186">
        <ele>197</ele>
        <time>2017-04-27T08:46:54Z</time>
      </trkpt>
      <trkpt lat="45.8609" lon="4.7118">
        <ele>197</ele>
        <time>2017-04-27T08:46:55Z</time>
      </trkpt>
      <trkpt lat="45.86091" lon="4.71173">
        <ele>198</ele>
        <time>2017-04-27T08:46:56Z</time>
      </trkpt>
      <trkpt lat="45.86092" lon="4.71165">
        <ele>197</ele>
        <time>2017-04-27T08:46:57Z</time>
      </trkpt>
      <trkpt lat="45.86093" lon="4.71158">
        <ele>197</ele>
        <time>2017-04-27T08:46:58Z</time>
      </trkpt>
      <trkpt lat="45.86092" lon="4.71151">
        <ele>197</ele>
        <time>2017-04-27T08:46:59Z</time>
      </trkpt>
      <trkpt lat="45.86089" lon="4.71143">
        <ele>197</ele>
        <time>2017-04-27T08:47:00Z</time>
      </trkpt>
      <trkpt lat="45.86084" lon="4.71133">
        <ele>197</ele>
        <time>2017-04-27T08:47:02Z</time>
      </trkpt>
      <trkpt lat="45.86082" lon="4.71129">
        <ele>197</ele>
        <time>2017-04-27T08:47:03Z</time>
      </trkpt>
      <trkpt lat="45.86078" lon="4.71126">
        <ele>197</ele>
        <time>2017-04-27T08:47:04Z</time>
      </trkpt>
      <trkpt lat="45.86073" lon="4.71125">
        <ele>197</ele>
        <time>2017-04-27T08:47:05Z</time>
      </trkpt>
      <trkpt lat="45.86068" lon="4.71121">
        <ele>197</ele>
        <time>2017-04-27T08:47:06Z</time>
      </trkpt>
      <trkpt lat="45.86064" lon="4.71116">
        <ele>197</ele>
        <time>2017-04-27T08:47:07Z</time>
      </trkpt>
      <trkpt lat="45.86059" lon="4.71111">
        <ele>197</ele>
        <time>2017-04-27T08:47:08Z</time>
      </trkpt>
      <trkpt lat="45.86056" lon="4.71106">
        <ele>197</ele>
        <time>2017-04-27T08:47:09Z</time>
      </trkpt>
      <trkpt lat="45.86052" lon="4.711">
        <ele>197</ele>
        <time>2017-04-27T08:47:10Z</time>
      </trkpt>
      <trkpt lat="45.86049" lon="4.71095">
        <ele>197</ele>
        <time>2017-04-27T08:47:11Z</time>
      </trkpt>
      <trkpt lat="45.86046" lon="4.71088">
        <ele>197</ele>
        <time>2017-04-27T08:47:12Z</time>
      </trkpt>
      <trkpt lat="45.86043" lon="4.71082">
        <ele>196</ele>
        <time>2017-04-27T08:47:13Z</time>
      </trkpt>
      <trkpt lat="45.86042" lon="4.71074">
        <ele>197</ele>
        <time>2017-04-27T08:47:14Z</time>
      </trkpt>
      <trkpt lat="45.8604" lon="4.71067">
        <ele>197</ele>
        <time>2017-04-27T08:47:15Z</time>
      </trkpt>
      <trkpt lat="45.86039" lon="4.71061">
        <ele>197</ele>
        <time>2017-04-27T08:47:16Z</time>
      </trkpt>
      <trkpt lat="45.86038" lon="4.71054">
        <ele>197</ele>
        <time>2017-04-27T08:47:17Z</time>
      </trkpt>
      <trkpt lat="45.86036" lon="4.71047">
        <ele>197</ele>
        <time>2017-04-27T08:47:18Z</time>
      </trkpt>
      <trkpt lat="45.86035" lon="4.7104">
        <ele>197</ele>
        <time>2017-04-27T08:47:19Z</time>
      </trkpt>
      <trkpt lat="45.86033" lon="4.71033">
        <ele>197</ele>
        <time>2017-04-27T08:47:20Z</time>
      </trkpt>
      <trkpt lat="45.86031" lon="4.71027">
        <ele>197</ele>
        <time>2017-04-27T08:47:21Z</time>
      </trkpt>
      <trkpt lat="45.86028" lon="4.71021">
        <ele>197</ele>
        <time>2017-04-27T08:47:22Z</time>
      </trkpt>
      <trkpt lat="45.86026" lon="4.71016">
        <ele>197</ele>
        <time>2017-04-27T08:47:23Z</time>
      </trkpt>
      <trkpt lat="45.86023" lon="4.7101">
        <ele>197</ele>
        <time>2017-04-27T08:47:24Z</time>
      </trkpt>
      <trkpt lat="45.86019" lon="4.71005">
        <ele>197</ele>
        <time>2017-04-27T08:47:25Z</time>
      </trkpt>
      <trkpt lat="45.86015" lon="4.70999">
        <ele>197</ele>
        <time>2017-04-27T08:47:26Z</time>
      </trkpt>
      <trkpt lat="45.8601" lon="4.70994">
        <ele>197</ele>
        <time>2017-04-27T08:47:27Z</time>
      </trkpt>
      <trkpt lat="45.86006" lon="4.7099">
        <ele>197</ele>
        <time>2017-04-27T08:47:28Z</time>
      </trkpt>
      <trkpt lat="45.86001" lon="4.70985">
        <ele>197</ele>
        <time>2017-04-27T08:47:29Z</time>
      </trkpt>
      <trkpt lat="45.85995" lon="4.70981">
        <ele>197</ele>
        <time>2017-04-27T08:47:30Z</time>
      </trkpt>
      <trkpt lat="45.85989" lon="4.70978">
        <ele>197</ele>
        <time>2017-04-27T08:47:31Z</time>
      </trkpt>
      <trkpt lat="45.85983" lon="4.70975">
        <ele>197</ele>
        <time>2017-04-27T08:47:32Z</time>
      </trkpt>
      <trkpt lat="45.85978" lon="4.70972">
        <ele>197</ele>
        <time>2017-04-27T08:47:33Z</time>
      </trkpt>
      <trkpt lat="45.85973" lon="4.7097">
        <ele>197</ele>
        <time>2017-04-27T08:47:34Z</time>
      </trkpt>
      <trkpt lat="45.85969" lon="4.70969">
        <ele>197</ele>
        <time>2017-04-27T08:47:35Z</time>
      </trkpt>
      <trkpt lat="45.85965" lon="4.70968">
        <ele>197</ele>
        <time>2017-04-27T08:47:36Z</time>
      </trkpt>
      <trkpt lat="45.85959" lon="4.70968">
        <ele>197</ele>
        <time>2017-04-27T08:47:37Z</time>
      </trkpt>
      <trkpt lat="45.85954" lon="4.70968">
        <ele>197</ele>
        <time>2017-04-27T08:47:38Z</time>
      </trkpt>
      <trkpt lat="45.85949" lon="4.70968">
        <ele>197</ele>
        <time>2017-04-27T08:47:39Z</time>
      </trkpt>
      <trkpt lat="45.85942" lon="4.70962">
        <ele>197</ele>
        <time>2017-04-27T08:47:41Z</time>
      </trkpt>
      <trkpt lat="45.85939" lon="4.70957">
        <ele>197</ele>
        <time>2017-04-27T08:47:42Z</time>
      </trkpt>
      <trkpt lat="45.85939" lon="4.7095">
        <ele>197</ele>
        <time>2017-04-27T08:47:43Z</time>
      </trkpt>
      <trkpt lat="45.8594" lon="4.70944">
        <ele>197</ele>
        <time>2017-04-27T08:47:44Z</time>
      </trkpt>
      <trkpt lat="45.85941" lon="4.70937">
        <ele>197</ele>
        <time>2017-04-27T08:47:45Z</time>
      </trkpt>
      <trkpt lat="45.85943" lon="4.70931">
        <ele>197</ele>
        <time>2017-04-27T08:47:46Z</time>
      </trkpt>
      <trkpt lat="45.85945" lon="4.70924">
        <ele>197</ele>
        <time>2017-04-27T08:47:47Z</time>
      </trkpt>
      <trkpt lat="45.85947" lon="4.70917">
        <ele>197</ele>
        <time>2017-04-27T08:47:48Z</time>
      </trkpt>
      <trkpt lat="45.85949" lon="4.70909">
        <ele>197</ele>
        <time>2017-04-27T08:47:49Z</time>
      </trkpt>
      <trkpt lat="45.85951" lon="4.70902">
        <ele>197</ele>
        <time>2017-04-27T08:47:50Z</time>
      </trkpt>
      <trkpt lat="45.85952" lon="4.70895">
        <ele>197</ele>
        <time>2017-04-27T08:47:51Z</time>
      </trkpt>
      <trkpt lat="45.85953" lon="4.70889">
        <ele>197</ele>
        <time>2017-04-27T08:47:52Z</time>
      </trkpt>
      <trkpt lat="45.85954" lon="4.70882">
        <ele>197</ele>
        <time>2017-04-27T08:47:53Z</time>
      </trkpt>
      <trkpt lat="45.85955" lon="4.70875">
        <ele>197</ele>
        <time>2017-04-27T08:47:54Z</time>
      </trkpt>
      <trkpt lat="45.85956" lon="4.70869">
        <ele>196</ele>
        <time>2017-04-27T08:47:55Z</time>
      </trkpt>
      <trkpt lat="45.85958" lon="4.70862">
        <ele>196</ele>
        <time>2017-04-27T08:47:56Z</time>
      </trkpt>
      <trkpt lat="45.85959" lon="4.70855">
        <ele>196</ele>
        <time>2017-04-27T08:47:57Z</time>
      </trkpt>
      <trkpt lat="45.85958" lon="4.70848">
        <ele>196</ele>
        <time>2017-04-27T08:47:58Z</time>
      </trkpt>
      <trkpt lat="45.85958" lon="4.70841">
        <ele>196</ele>
        <time>2017-04-27T08:47:59Z</time>
      </trkpt>
      <trkpt lat="45.85958" lon="4.70833">
        <ele>196</ele>
        <time>2017-04-27T08:48:00Z</time>
      </trkpt>
      <trkpt lat="45.85958" lon="4.70826">
        <ele>196</ele>
        <time>2017-04-27T08:48:01Z</time>
      </trkpt>
      <trkpt lat="45.85957" lon="4.70819">
        <ele>195</ele>
        <time>2017-04-27T08:48:02Z</time>
      </trkpt>
      <trkpt lat="45.85957" lon="4.70812">
        <ele>195</ele>
        <time>2017-04-27T08:48:03Z</time>
      </trkpt>
      <trkpt lat="45.85956" lon="4.70805">
        <ele>195</ele>
        <time>2017-04-27T08:48:04Z</time>
      </trkpt>
      <trkpt lat="45.85955" lon="4.70797">
        <ele>195</ele>
        <time>2017-04-27T08:48:05Z</time>
      </trkpt>
      <trkpt lat="45.85955" lon="4.70789">
        <ele>195</ele>
        <time>2017-04-27T08:48:06Z</time>
      </trkpt>
      <trkpt lat="45.85956" lon="4.70781">
        <ele>195</ele>
        <time>2017-04-27T08:48:07Z</time>
      </trkpt>
      <trkpt lat="45.85957" lon="4.70774">
        <ele>195</ele>
        <time>2017-04-27T08:48:08Z</time>
      </trkpt>
      <trkpt lat="45.85957" lon="4.70765">
        <ele>195</ele>
        <time>2017-04-27T08:48:09Z</time>
      </trkpt>
      <trkpt lat="45.85958" lon="4.70758">
        <ele>195</ele>
        <time>2017-04-27T08:48:10Z</time>
      </trkpt>
      <trkpt lat="45.85958" lon="4.7075">
        <ele>194</ele>
        <time>2017-04-27T08:48:11Z</time>
      </trkpt>
      <trkpt lat="45.85958" lon="4.70742">
        <ele>194</ele>
        <time>2017-04-27T08:48:12Z</time>
      </trkpt>
      <trkpt lat="45.85959" lon="4.70735">
        <ele>194</ele>
        <time>2017-04-27T08:48:13Z</time>
      </trkpt>
      <trkpt lat="45.8596" lon="4.70728">
        <ele>194</ele>
        <time>2017-04-27T08:48:14Z</time>
      </trkpt>
      <trkpt lat="45.8596" lon="4.7072">
        <ele>194</ele>
        <time>2017-04-27T08:48:15Z</time>
      </trkpt>
      <trkpt lat="45.85961" lon="4.70713">
        <ele>194</ele>
        <time>2017-04-27T08:48:16Z</time>
      </trkpt>
      <trkpt lat="45.85961" lon="4.70705">
        <ele>194</ele>
        <time>2017-04-27T08:48:17Z</time>
      </trkpt>
      <trkpt lat="45.85962" lon="4.70698">
        <ele>194</ele>
        <time>2017-04-27T08:48:18Z</time>
      </trkpt>
      <trkpt lat="45.85962" lon="4.70691">
        <ele>194</ele>
        <time>2017-04-27T08:48:19Z</time>
      </trkpt>
      <trkpt lat="45.85961" lon="4.70684">
        <ele>194</ele>
        <time>2017-04-27T08:48:20Z</time>
      </trkpt>
      <trkpt lat="45.85959" lon="4.70677">
        <ele>194</ele>
        <time>2017-04-27T08:48:21Z</time>
      </trkpt>
      <trkpt lat="45.85956" lon="4.7067">
        <ele>194</ele>
        <time>2017-04-27T08:48:22Z</time>
      </trkpt>
      <trkpt lat="45.85953" lon="4.70664">
        <ele>194</ele>
        <time>2017-04-27T08:48:23Z</time>
      </trkpt>
      <trkpt lat="45.8595" lon="4.70657">
        <ele>194</ele>
        <time>2017-04-27T08:48:24Z</time>
      </trkpt>
      <trkpt lat="45.85947" lon="4.70651">
        <ele>194</ele>
        <time>2017-04-27T08:48:25Z</time>
      </trkpt>
      <trkpt lat="45.85943" lon="4.70644">
        <ele>194</ele>
        <time>2017-04-27T08:48:26Z</time>
      </trkpt>
      <trkpt lat="45.8594" lon="4.70638">
        <ele>194</ele>
        <time>2017-04-27T08:48:27Z</time>
      </trkpt>
      <trkpt lat="45.85936" lon="4.70632">
        <ele>194</ele>
        <time>2017-04-27T08:48:28Z</time>
      </trkpt>
      <trkpt lat="45.85932" lon="4.70626">
        <ele>194</ele>
        <time>2017-04-27T08:48:29Z</time>
      </trkpt>
      <trkpt lat="45.85928" lon="4.70619">
        <ele>194</ele>
        <time>2017-04-27T08:48:30Z</time>
      </trkpt>
      <trkpt lat="45.85925" lon="4.70613">
        <ele>194</ele>
        <time>2017-04-27T08:48:31Z</time>
      </trkpt>
      <trkpt lat="45.85921" lon="4.70607">
        <ele>194</ele>
        <time>2017-04-27T08:48:32Z</time>
      </trkpt>
      <trkpt lat="45.85919" lon="4.706">
        <ele>194</ele>
        <time>2017-04-27T08:48:33Z</time>
      </trkpt>
      <trkpt lat="45.85916" lon="4.70595">
        <ele>195</ele>
        <time>2017-04-27T08:48:34Z</time>
      </trkpt>
      <trkpt lat="45.85913" lon="4.70589">
        <ele>195</ele>
        <time>2017-04-27T08:48:35Z</time>
      </trkpt>
      <trkpt lat="45.85909" lon="4.70584">
        <ele>195</ele>
        <time>2017-04-27T08:48:36Z</time>
      </trkpt>
      <trkpt lat="45.85904" lon="4.7058">
        <ele>195</ele>
        <time>2017-04-27T08:48:37Z</time>
      </trkpt>
      <trkpt lat="45.85899" lon="4.70578">
        <ele>195</ele>
        <time>2017-04-27T08:48:38Z</time>
      </trkpt>
      <trkpt lat="45.85893" lon="4.70576">
        <ele>195</ele>
        <time>2017-04-27T08:48:39Z</time>
      </trkpt>
      <trkpt lat="45.85887" lon="4.70575">
        <ele>195</ele>
        <time>2017-04-27T08:48:40Z</time>
      </trkpt>
      <trkpt lat="45.85881" lon="4.70574">
        <ele>195</ele>
        <time>2017-04-27T08:48:41Z</time>
      </trkpt>
      <trkpt lat="45.85874" lon="4.70572">
        <ele>195</ele>
        <time>2017-04-27T08:48:42Z</time>
      </trkpt>
      <trkpt lat="45.85868" lon="4.7057">
        <ele>195</ele>
        <time>2017-04-27T08:48:43Z</time>
      </trkpt>
      <trkpt lat="45.85861" lon="4.70568">
        <ele>195</ele>
        <time>2017-04-27T08:48:44Z</time>
      </trkpt>
      <trkpt lat="45.85855" lon="4.70566">
        <ele>195</ele>
        <time>2017-04-27T08:48:45Z</time>
      </trkpt>
      <trkpt lat="45.85849" lon="4.70564">
        <ele>195</ele>
        <time>2017-04-27T08:48:46Z</time>
      </trkpt>
      <trkpt lat="45.85843" lon="4.70563">
        <ele>195</ele>
        <time>2017-04-27T08:48:47Z</time>
      </trkpt>
      <trkpt lat="45.85837" lon="4.70561">
        <ele>195</ele>
        <time>2017-04-27T08:48:48Z</time>
      </trkpt>
      <trkpt lat="45.85832" lon="4.70558">
        <ele>195</ele>
        <time>2017-04-27T08:48:49Z</time>
      </trkpt>
      <trkpt lat="45.85827" lon="4.70554">
        <ele>195</ele>
        <time>2017-04-27T08:48:50Z</time>
      </trkpt>
      <trkpt lat="45.85821" lon="4.70551">
        <ele>195</ele>
        <time>2017-04-27T08:48:51Z</time>
      </trkpt>
      <trkpt lat="45.85816" lon="4.70548">
        <ele>195</ele>
        <time>2017-04-27T08:48:52Z</time>
      </trkpt>
      <trkpt lat="45.85811" lon="4.70546">
        <ele>195</ele>
        <time>2017-04-27T08:48:53Z</time>
      </trkpt>
      <trkpt lat="45.85805" lon="4.70544">
        <ele>195</ele>
        <time>2017-04-27T08:48:54Z</time>
      </trkpt>
      <trkpt lat="45.858" lon="4.70542">
        <ele>195</ele>
        <time>2017-04-27T08:48:55Z</time>
      </trkpt>
      <trkpt lat="45.85795" lon="4.7054">
        <ele>195</ele>
        <time>2017-04-27T08:48:56Z</time>
      </trkpt>
      <trkpt lat="45.8579" lon="4.70537">
        <ele>196</ele>
        <time>2017-04-27T08:48:57Z</time>
      </trkpt>
      <trkpt lat="45.85786" lon="4.70534">
        <ele>196</ele>
        <time>2017-04-27T08:48:58Z</time>
      </trkpt>
      <trkpt lat="45.85781" lon="4.70531">
        <ele>196</ele>
        <time>2017-04-27T08:48:59Z</time>
      </trkpt>
      <trkpt lat="45.85777" lon="4.70529">
        <ele>196</ele>
        <time>2017-04-27T08:49:00Z</time>
      </trkpt>
      <trkpt lat="45.85773" lon="4.70527">
        <ele>196</ele>
        <time>2017-04-27T08:49:01Z</time>
      </trkpt>
      <trkpt lat="45.85768" lon="4.70524">
        <ele>196</ele>
        <time>2017-04-27T08:49:02Z</time>
      </trkpt>
      <trkpt lat="45.85764" lon="4.7052">
        <ele>196</ele>
        <time>2017-04-27T08:49:03Z</time>
      </trkpt>
      <trkpt lat="45.85759" lon="4.70516">
        <ele>196</ele>
        <time>2017-04-27T08:49:04Z</time>
      </trkpt>
      <trkpt lat="45.85755" lon="4.70513">
        <ele>196</ele>
        <time>2017-04-27T08:49:05Z</time>
      </trkpt>
      <trkpt lat="45.8575" lon="4.7051">
        <ele>196</ele>
        <time>2017-04-27T08:49:06Z</time>
      </trkpt>
      <trkpt lat="45.85745" lon="4.70507">
        <ele>196</ele>
        <time>2017-04-27T08:49:07Z</time>
      </trkpt>
      <trkpt lat="45.8574" lon="4.70503">
        <ele>196</ele>
        <time>2017-04-27T08:49:08Z</time>
      </trkpt>
      <trkpt lat="45.85736" lon="4.70499">
        <ele>196</ele>
        <time>2017-04-27T08:49:09Z</time>
      </trkpt>
      <trkpt lat="45.85733" lon="4.70495">
        <ele>196</ele>
        <time>2017-04-27T08:49:10Z</time>
      </trkpt>
      <trkpt lat="45.8573" lon="4.70489">
        <ele>196</ele>
        <time>2017-04-27T08:49:11Z</time>
      </trkpt>
      <trkpt lat="45.85728" lon="4.70483">
        <ele>196</ele>
        <time>2017-04-27T08:49:12Z</time>
      </trkpt>
      <trkpt lat="45.85726" lon="4.70476">
        <ele>196</ele>
        <time>2017-04-27T08:49:13Z</time>
      </trkpt>
      <trkpt lat="45.85724" lon="4.7047">
        <ele>196</ele>
        <time>2017-04-27T08:49:14Z</time>
      </trkpt>
      <trkpt lat="45.85722" lon="4.70463">
        <ele>196</ele>
        <time>2017-04-27T08:49:15Z</time>
      </trkpt>
      <trkpt lat="45.85721" lon="4.70455">
        <ele>196</ele>
        <time>2017-04-27T08:49:16Z</time>
      </trkpt>
      <trkpt lat="45.8572" lon="4.70448">
        <ele>196</ele>
        <time>2017-04-27T08:49:17Z</time>
      </trkpt>
      <trkpt lat="45.85719" lon="4.70441">
        <ele>196</ele>
        <time>2017-04-27T08:49:18Z</time>
      </trkpt>
      <trkpt lat="45.85718" lon="4.70433">
        <ele>196</ele>
        <time>2017-04-27T08:49:19Z</time>
      </trkpt>
      <trkpt lat="45.85717" lon="4.70425">
        <ele>196</ele>
        <time>2017-04-27T08:49:20Z</time>
      </trkpt>
      <trkpt lat="45.85716" lon="4.70418">
        <ele>196</ele>
        <time>2017-04-27T08:49:21Z</time>
      </trkpt>
      <trkpt lat="45.85715" lon="4.7041">
        <ele>196</ele>
        <time>2017-04-27T08:49:22Z</time>
      </trkpt>
      <trkpt lat="45.85714" lon="4.70403">
        <ele>196</ele>
        <time>2017-04-27T08:49:23Z</time>
      </trkpt>
      <trkpt lat="45.85713" lon="4.70395">
        <ele>196</ele>
        <time>2017-04-27T08:49:24Z</time>
      </trkpt>
      <trkpt lat="45.85712" lon="4.70388">
        <ele>196</ele>
        <time>2017-04-27T08:49:25Z</time>
      </trkpt>
      <trkpt lat="45.85711" lon="4.7038">
        <ele>196</ele>
        <time>2017-04-27T08:49:26Z</time>
      </trkpt>
      <trkpt lat="45.85711" lon="4.70372">
        <ele>196</ele>
        <time>2017-04-27T08:49:27Z</time>
      </trkpt>
      <trkpt lat="45.8571" lon="4.70365">
        <ele>196</ele>
        <time>2017-04-27T08:49:28Z</time>
      </trkpt>
      <trkpt lat="45.85709" lon="4.70357">
        <ele>196</ele>
        <time>2017-04-27T08:49:29Z</time>
      </trkpt>
      <trkpt lat="45.85708" lon="4.7035">
        <ele>196</ele>
        <time>2017-04-27T08:49:30Z</time>
      </trkpt>
      <trkpt lat="45.85707" lon="4.70342">
        <ele>196</ele>
        <time>2017-04-27T08:49:31Z</time>
      </trkpt>
      <trkpt lat="45.85706" lon="4.70334">
        <ele>196</ele>
        <time>2017-04-27T08:49:32Z</time>
      </trkpt>
      <trkpt lat="45.85706" lon="4.70326">
        <ele>197</ele>
        <time>2017-04-27T08:49:33Z</time>
      </trkpt>
      <trkpt lat="45.85705" lon="4.70318">
        <ele>197</ele>
        <time>2017-04-27T08:49:34Z</time>
      </trkpt>
      <trkpt lat="45.85704" lon="4.7031">
        <ele>197</ele>
        <time>2017-04-27T08:49:35Z</time>
      </trkpt>
      <trkpt lat="45.85703" lon="4.70302">
        <ele>197</ele>
        <time>2017-04-27T08:49:36Z</time>
      </trkpt>
      <trkpt lat="45.85702" lon="4.70293">
        <ele>197</ele>
        <time>2017-04-27T08:49:37Z</time>
      </trkpt>
      <trkpt lat="45.85701" lon="4.70285">
        <ele>197</ele>
        <time>2017-04-27T08:49:38Z</time>
      </trkpt>
      <trkpt lat="45.857" lon="4.70277">
        <ele>197</ele>
        <time>2017-04-27T08:49:39Z</time>
      </trkpt>
      <trkpt lat="45.85699" lon="4.70269">
        <ele>197</ele>
        <time>2017-04-27T08:49:40Z</time>
      </trkpt>
      <trkpt lat="45.85698" lon="4.7026">
        <ele>197</ele>
        <time>2017-04-27T08:49:41Z</time>
      </trkpt>
      <trkpt lat="45.85697" lon="4.70252">
        <ele>197</ele>
        <time>2017-04-27T08:49:42Z</time>
      </trkpt>
      <trkpt lat="45.85696" lon="4.70244">
        <ele>197</ele>
        <time>2017-04-27T08:49:43Z</time>
      </trkpt>
      <trkpt lat="45.85696" lon="4.70236">
        <ele>197</ele>
        <time>2017-04-27T08:49:44Z</time>
      </trkpt>
      <trkpt lat="45.85695" lon="4.70229">
        <ele>197</ele>
        <time>2017-04-27T08:49:45Z</time>
      </trkpt>
      <trkpt lat="45.85693" lon="4.70221">
        <ele>197</ele>
        <time>2017-04-27T08:49:46Z</time>
      </trkpt>
      <trkpt lat="45.85693" lon="4.70213">
        <ele>197</ele>
        <time>2017-04-27T08:49:47Z</time>
      </trkpt>
      <trkpt lat="45.85692" lon="4.70206">
        <ele>197</ele>
        <time>2017-04-27T08:49:48Z</time>
      </trkpt>
      <trkpt lat="45.8569" lon="4.70199">
        <ele>197</ele>
        <time>2017-04-27T08:49:49Z</time>
      </trkpt>
      <trkpt lat="45.85688" lon="4.70192">
        <ele>197</ele>
        <time>2017-04-27T08:49:50Z</time>
      </trkpt>
      <trkpt lat="45.85687" lon="4.70185">
        <ele>197</ele>
        <time>2017-04-27T08:49:51Z</time>
      </trkpt>
      <trkpt lat="45.85685" lon="4.70177">
        <ele>197</ele>
        <time>2017-04-27T08:49:52Z</time>
      </trkpt>
      <trkpt lat="45.85683" lon="4.7017">
        <ele>197</ele>
        <time>2017-04-27T08:49:53Z</time>
      </trkpt>
      <trkpt lat="45.85681" lon="4.70162">
        <ele>197</ele>
        <time>2017-04-27T08:49:54Z</time>
      </trkpt>
      <trkpt lat="45.85679" lon="4.70154">
        <ele>197</ele>
        <time>2017-04-27T08:49:55Z</time>
      </trkpt>
      <trkpt lat="45.85677" lon="4.70146">
        <ele>197</ele>
        <time>2017-04-27T08:49:56Z</time>
      </trkpt>
      <trkpt lat="45.85676" lon="4.70138">
        <ele>197</ele>
        <time>2017-04-27T08:49:57Z</time>
      </trkpt>
      <trkpt lat="45.85675" lon="4.7013">
        <ele>197</ele>
        <time>2017-04-27T08:49:58Z</time>
      </trkpt>
      <trkpt lat="45.85675" lon="4.70122">
        <ele>197</ele>
        <time>2017-04-27T08:49:59Z</time>
      </trkpt>
      <trkpt lat="45.85675" lon="4.70114">
        <ele>197</ele>
        <time>2017-04-27T08:50:00Z</time>
      </trkpt>
      <trkpt lat="45.85676" lon="4.70106">
        <ele>196</ele>
        <time>2017-04-27T08:50:01Z</time>
      </trkpt>
      <trkpt lat="45.85676" lon="4.70098">
        <ele>196</ele>
        <time>2017-04-27T08:50:02Z</time>
      </trkpt>
      <trkpt lat="45.85677" lon="4.7009">
        <ele>196</ele>
        <time>2017-04-27T08:50:03Z</time>
      </trkpt>
      <trkpt lat="45.85678" lon="4.70082">
        <ele>196</ele>
        <time>2017-04-27T08:50:04Z</time>
      </trkpt>
      <trkpt lat="45.85679" lon="4.70074">
        <ele>196</ele>
        <time>2017-04-27T08:50:05Z</time>
      </trkpt>
      <trkpt lat="45.8568" lon="4.70067">
        <ele>196</ele>
        <time>2017-04-27T08:50:06Z</time>
      </trkpt>
      <trkpt lat="45.85681" lon="4.7006">
        <ele>196</ele>
        <time>2017-04-27T08:50:07Z</time>
      </trkpt>
      <trkpt lat="45.85682" lon="4.70053">
        <ele>195</ele>
        <time>2017-04-27T08:50:08Z</time>
      </trkpt>
      <trkpt lat="45.85684" lon="4.70047">
        <ele>195</ele>
        <time>2017-04-27T08:50:09Z</time>
      </trkpt>
      <trkpt lat="45.85685" lon="4.7004">
        <ele>195</ele>
        <time>2017-04-27T08:50:10Z</time>
      </trkpt>
      <trkpt lat="45.85687" lon="4.70033">
        <ele>195</ele>
        <time>2017-04-27T08:50:11Z</time>
      </trkpt>
      <trkpt lat="45.85688" lon="4.70026">
        <ele>195</ele>
        <time>2017-04-27T08:50:12Z</time>
      </trkpt>
      <trkpt lat="45.85689" lon="4.70018">
        <ele>195</ele>
        <time>2017-04-27T08:50:13Z</time>
      </trkpt>
      <trkpt lat="45.8569" lon="4.7001">
        <ele>195</ele>
        <time>2017-04-27T08:50:14Z</time>
      </trkpt>
      <trkpt lat="45.8569" lon="4.70002">
        <ele>195</ele>
        <time>2017-04-27T08:50:15Z</time>
      </trkpt>
      <trkpt lat="45.85691" lon="4.69994">
        <ele>195</ele>
        <time>2017-04-27T08:50:16Z</time>
      </trkpt>
      <trkpt lat="45.8569" lon="4.69985">
        <ele>195</ele>
        <time>2017-04-27T08:50:17Z</time>
      </trkpt>
      <trkpt lat="45.85689" lon="4.69977">
        <ele>195</ele>
        <time>2017-04-27T08:50:18Z</time>
      </trkpt>
      <trkpt lat="45.85687" lon="4.69969">
        <ele>195</ele>
        <time>2017-04-27T08:50:19Z</time>
      </trkpt>
      <trkpt lat="45.85685" lon="4.6996">
        <ele>195</ele>
        <time>2017-04-27T08:50:20Z</time>
      </trkpt>
      <trkpt lat="45.85683" lon="4.69952">
        <ele>195</ele>
        <time>2017-04-27T08:50:21Z</time>
      </trkpt>
      <trkpt lat="45.85681" lon="4.69944">
        <ele>195</ele>
        <time>2017-04-27T08:50:22Z</time>
      </trkpt>
      <trkpt lat="45.85678" lon="4.69935">
        <ele>195</ele>
        <time>2017-04-27T08:50:23Z</time>
      </trkpt>
      <trkpt lat="45.85676" lon="4.69927">
        <ele>195</ele>
        <time>2017-04-27T08:50:24Z</time>
      </trkpt>
      <trkpt lat="45.85674" lon="4.69919">
        <ele>195</ele>
        <time>2017-04-27T08:50:25Z</time>
      </trkpt>
      <trkpt lat="45.85672" lon="4.6991">
        <ele>195</ele>
        <time>2017-04-27T08:50:26Z</time>
      </trkpt>
      <trkpt lat="45.8567" lon="4.69902">
        <ele>195</ele>
        <time>2017-04-27T08:50:27Z</time>
      </trkpt>
      <trkpt lat="45.85669" lon="4.69895">
        <ele>195</ele>
        <time>2017-04-27T08:50:28Z</time>
      </trkpt>
      <trkpt lat="45.85667" lon="4.69887">
        <ele>195</ele>
        <time>2017-04-27T08:50:29Z</time>
      </trkpt>
      <trkpt lat="45.85666" lon="4.69879">
        <ele>195</ele>
        <time>2017-04-27T08:50:30Z</time>
      </trkpt>
      <trkpt lat="45.85665" lon="4.69871">
        <ele>195</ele>
        <time>2017-04-27T08:50:31Z</time>
      </trkpt>
      <trkpt lat="45.85665" lon="4.69863">
        <ele>195</ele>
        <time>2017-04-27T08:50:32Z</time>
      </trkpt>
      <trkpt lat="45.85664" lon="4.69855">
        <ele>195</ele>
        <time>2017-04-27T08:50:33Z</time>
      </trkpt>
      <trkpt lat="45.85663" lon="4.69847">
        <ele>195</ele>
        <time>2017-04-27T08:50:34Z</time>
      </trkpt>
      <trkpt lat="45.85662" lon="4.69838">
        <ele>195</ele>
        <time>2017-04-27T08:50:35Z</time>
      </trkpt>
      <trkpt lat="45.85662" lon="4.6983">
        <ele>195</ele>
        <time>2017-04-27T08:50:36Z</time>
      </trkpt>
      <trkpt lat="45.85661" lon="4.69821">
        <ele>195</ele>
        <time>2017-04-27T08:50:37Z</time>
      </trkpt>
      <trkpt lat="45.8566" lon="4.69813">
        <ele>195</ele>
        <time>2017-04-27T08:50:38Z</time>
      </trkpt>
      <trkpt lat="45.85659" lon="4.69805">
        <ele>195</ele>
        <time>2017-04-27T08:50:39Z</time>
      </trkpt>
      <trkpt lat="45.85659" lon="4.69797">
        <ele>195</ele>
        <time>2017-04-27T08:50:40Z</time>
      </trkpt>
      <trkpt lat="45.85658" lon="4.6979">
        <ele>195</ele>
        <time>2017-04-27T08:50:41Z</time>
      </trkpt>
      <trkpt lat="45.85657" lon="4.69782">
        <ele>195</ele>
        <time>2017-04-27T08:50:42Z</time>
      </trkpt>
      <trkpt lat="45.85656" lon="4.69774">
        <ele>195</ele>
        <time>2017-04-27T08:50:43Z</time>
      </trkpt>
      <trkpt lat="45.85655" lon="4.69767">
        <ele>195</ele>
        <time>2017-04-27T08:50:44Z</time>
      </trkpt>
      <trkpt lat="45.85654" lon="4.69759">
        <ele>195</ele>
        <time>2017-04-27T08:50:45Z</time>
      </trkpt>
      <trkpt lat="45.85654" lon="4.69751">
        <ele>195</ele>
        <time>2017-04-27T08:50:46Z</time>
      </trkpt>
      <trkpt lat="45.85653" lon="4.69744">
        <ele>195</ele>
        <time>2017-04-27T08:50:47Z</time>
      </trkpt>
      <trkpt lat="45.85652" lon="4.69736">
        <ele>195</ele>
        <time>2017-04-27T08:50:48Z</time>
      </trkpt>
      <trkpt lat="45.85652" lon="4.69728">
        <ele>195</ele>
        <time>2017-04-27T08:50:49Z</time>
      </trkpt>
      <trkpt lat="45.85651" lon="4.6972">
        <ele>196</ele>
        <time>2017-04-27T08:50:50Z</time>
      </trkpt>
      <trkpt lat="45.85651" lon="4.69713">
        <ele>196</ele>
        <time>2017-04-27T08:50:51Z</time>
      </trkpt>
      <trkpt lat="45.8565" lon="4.69706">
        <ele>196</ele>
        <time>2017-04-27T08:50:52Z</time>
      </trkpt>
      <trkpt lat="45.85649" lon="4.69699">
        <ele>196</ele>
        <time>2017-04-27T08:50:53Z</time>
      </trkpt>
      <trkpt lat="45.85649" lon="4.69691">
        <ele>196</ele>
        <time>2017-04-27T08:50:54Z</time>
      </trkpt>
      <trkpt lat="45.85648" lon="4.69684">
        <ele>196</ele>
        <time>2017-04-27T08:50:55Z</time>
      </trkpt>
      <trkpt lat="45.85647" lon="4.69677">
        <ele>196</ele>
        <time>2017-04-27T08:50:56Z</time>
      </trkpt>
      <trkpt lat="45.85647" lon="4.6967">
        <ele>196</ele>
        <time>2017-04-27T08:50:57Z</time>
      </trkpt>
      <trkpt lat="45.85646" lon="4.69663">
        <ele>197</ele>
        <time>2017-04-27T08:50:58Z</time>
      </trkpt>
      <trkpt lat="45.85645" lon="4.69655">
        <ele>197</ele>
        <time>2017-04-27T08:50:59Z</time>
      </trkpt>
      <trkpt lat="45.85644" lon="4.69648">
        <ele>197</ele>
        <time>2017-04-27T08:51:00Z</time>
      </trkpt>
      <trkpt lat="45.85644" lon="4.6964">
        <ele>197</ele>
        <time>2017-04-27T08:51:01Z</time>
      </trkpt>
      <trkpt lat="45.85643" lon="4.69633">
        <ele>197</ele>
        <time>2017-04-27T08:51:02Z</time>
      </trkpt>
      <trkpt lat="45.85643" lon="4.69626">
        <ele>197</ele>
        <time>2017-04-27T08:51:03Z</time>
      </trkpt>
      <trkpt lat="45.85642" lon="4.69619">
        <ele>197</ele>
        <time>2017-04-27T08:51:04Z</time>
      </trkpt>
      <trkpt lat="45.85641" lon="4.69612">
        <ele>197</ele>
        <time>2017-04-27T08:51:05Z</time>
      </trkpt>
      <trkpt lat="45.85641" lon="4.69605">
        <ele>197</ele>
        <time>2017-04-27T08:51:06Z</time>
      </trkpt>
      <trkpt lat="45.8564" lon="4.69598">
        <ele>197</ele>
        <time>2017-04-27T08:51:07Z</time>
      </trkpt>
      <trkpt lat="45.8564" lon="4.69591">
        <ele>197</ele>
        <time>2017-04-27T08:51:08Z</time>
      </trkpt>
      <trkpt lat="45.85639" lon="4.69584">
        <ele>197</ele>
        <time>2017-04-27T08:51:09Z</time>
      </trkpt>
      <trkpt lat="45.85638" lon="4.69577">
        <ele>198</ele>
        <time>2017-04-27T08:51:10Z</time>
      </trkpt>
      <trkpt lat="45.85638" lon="4.6957">
        <ele>198</ele>
        <time>2017-04-27T08:51:11Z</time>
      </trkpt>
      <trkpt lat="45.85637" lon="4.69563">
        <ele>198</ele>
        <time>2017-04-27T08:51:12Z</time>
      </trkpt>
      <trkpt lat="45.85636" lon="4.69555">
        <ele>198</ele>
        <time>2017-04-27T08:51:13Z</time>
      </trkpt>
      <trkpt lat="45.85636" lon="4.69548">
        <ele>198</ele>
        <time>2017-04-27T08:51:14Z</time>
      </trkpt>
      <trkpt lat="45.85635" lon="4.69541">
        <ele>198</ele>
        <time>2017-04-27T08:51:15Z</time>
      </trkpt>
      <trkpt lat="45.85634" lon="4.69533">
        <ele>198</ele>
        <time>2017-04-27T08:51:16Z</time>
      </trkpt>
      <trkpt lat="45.85633" lon="4.69526">
        <ele>198</ele>
        <time>2017-04-27T08:51:17Z</time>
      </trkpt>
      <trkpt lat="45.85633" lon="4.69518">
        <ele>198</ele>
        <time>2017-04-27T08:51:18Z</time>
      </trkpt>
      <trkpt lat="45.85632" lon="4.69511">
        <ele>198</ele>
        <time>2017-04-27T08:51:19Z</time>
      </trkpt>
      <trkpt lat="45.85631" lon="4.69503">
        <ele>198</ele>
        <time>2017-04-27T08:51:20Z</time>
      </trkpt>
      <trkpt lat="45.85631" lon="4.69496">
        <ele>198</ele>
        <time>2017-04-27T08:51:21Z</time>
      </trkpt>
      <trkpt lat="45.8563" lon="4.69488">
        <ele>198</ele>
        <time>2017-04-27T08:51:22Z</time>
      </trkpt>
      <trkpt lat="45.85629" lon="4.6948">
        <ele>198</ele>
        <time>2017-04-27T08:51:23Z</time>
      </trkpt>
      <trkpt lat="45.85628" lon="4.69473">
        <ele>198</ele>
        <time>2017-04-27T08:51:24Z</time>
      </trkpt>
      <trkpt lat="45.85628" lon="4.69465">
        <ele>198</ele>
        <time>2017-04-27T08:51:25Z</time>
      </trkpt>
      <trkpt lat="45.85627" lon="4.69458">
        <ele>198</ele>
        <time>2017-04-27T08:51:26Z</time>
      </trkpt>
      <trkpt lat="45.85626" lon="4.6945">
        <ele>198</ele>
        <time>2017-04-27T08:51:27Z</time>
      </trkpt>
      <trkpt lat="45.85626" lon="4.69443">
        <ele>198</ele>
        <time>2017-04-27T08:51:28Z</time>
      </trkpt>
      <trkpt lat="45.85625" lon="4.69436">
        <ele>198</ele>
        <time>2017-04-27T08:51:29Z</time>
      </trkpt>
      <trkpt lat="45.85625" lon="4.69428">
        <ele>198</ele>
        <time>2017-04-27T08:51:30Z</time>
      </trkpt>
      <trkpt lat="45.85623" lon="4.69421">
        <ele>198</ele>
        <time>2017-04-27T08:51:31Z</time>
      </trkpt>
      <trkpt lat="45.85623" lon="4.69413">
        <ele>198</ele>
        <time>2017-04-27T08:51:32Z</time>
      </trkpt>
      <trkpt lat="45.85622" lon="4.69406">
        <ele>198</ele>
        <time>2017-04-27T08:51:33Z</time>
      </trkpt>
      <trkpt lat="45.85621" lon="4.69398">
        <ele>198</ele>
        <time>2017-04-27T08:51:34Z</time>
      </trkpt>
      <trkpt lat="45.85621" lon="4.69391">
        <ele>198</ele>
        <time>2017-04-27T08:51:35Z</time>
      </trkpt>
      <trkpt lat="45.8562" lon="4.69383">
        <ele>198</ele>
        <time>2017-04-27T08:51:36Z</time>
      </trkpt>
      <trkpt lat="45.85619" lon="4.69375">
        <ele>198</ele>
        <time>2017-04-27T08:51:37Z</time>
      </trkpt>
      <trkpt lat="45.85619" lon="4.69367">
        <ele>198</ele>
        <time>2017-04-27T08:51:38Z</time>
      </trkpt>
      <trkpt lat="45.85618" lon="4.6936">
        <ele>198</ele>
        <time>2017-04-27T08:51:39Z</time>
      </trkpt>
      <trkpt lat="45.85617" lon="4.69353">
        <ele>198</ele>
        <time>2017-04-27T08:51:40Z</time>
      </trkpt>
      <trkpt lat="45.85616" lon="4.69345">
        <ele>198</ele>
        <time>2017-04-27T08:51:41Z</time>
      </trkpt>
      <trkpt lat="45.85615" lon="4.69338">
        <ele>198</ele>
        <time>2017-04-27T08:51:42Z</time>
      </trkpt>
      <trkpt lat="45.85615" lon="4.69331">
        <ele>198</ele>
        <time>2017-04-27T08:51:43Z</time>
      </trkpt>
      <trkpt lat="45.85614" lon="4.69323">
        <ele>198</ele>
        <time>2017-04-27T08:51:44Z</time>
      </trkpt>
      <trkpt lat="45.85613" lon="4.69316">
        <ele>198</ele>
        <time>2017-04-27T08:51:45Z</time>
      </trkpt>
      <trkpt lat="45.85612" lon="4.69308">
        <ele>198</ele>
        <time>2017-04-27T08:51:46Z</time>
      </trkpt>
      <trkpt lat="45.85611" lon="4.693">
        <ele>198</ele>
        <time>2017-04-27T08:51:47Z</time>
      </trkpt>
      <trkpt lat="45.8561" lon="4.69292">
        <ele>198</ele>
        <time>2017-04-27T08:51:48Z</time>
      </trkpt>
      <trkpt lat="45.85611" lon="4.69284">
        <ele>198</ele>
        <time>2017-04-27T08:51:49Z</time>
      </trkpt>
      <trkpt lat="45.85611" lon="4.69276">
        <ele>198</ele>
        <time>2017-04-27T08:51:50Z</time>
      </trkpt>
      <trkpt lat="45.85612" lon="4.69268">
        <ele>198</ele>
        <time>2017-04-27T08:51:51Z</time>
      </trkpt>
      <trkpt lat="45.85612" lon="4.6926">
        <ele>198</ele>
        <time>2017-04-27T08:51:52Z</time>
      </trkpt>
      <trkpt lat="45.85612" lon="4.69252">
        <ele>198</ele>
        <time>2017-04-27T08:51:53Z</time>
      </trkpt>
      <trkpt lat="45.8561" lon="4.69245">
        <ele>199</ele>
        <time>2017-04-27T08:51:54Z</time>
      </trkpt>
      <trkpt lat="45.85608" lon="4.69238">
        <ele>199</ele>
        <time>2017-04-27T08:51:55Z</time>
      </trkpt>
      <trkpt lat="45.85606" lon="4.69232">
        <ele>199</ele>
        <time>2017-04-27T08:51:56Z</time>
      </trkpt>
      <trkpt lat="45.85605" lon="4.69225">
        <ele>199</ele>
        <time>2017-04-27T08:51:57Z</time>
      </trkpt>
      <trkpt lat="45.85604" lon="4.69217">
        <ele>199</ele>
        <time>2017-04-27T08:51:58Z</time>
      </trkpt>
      <trkpt lat="45.85604" lon="4.6921">
        <ele>199</ele>
        <time>2017-04-27T08:51:59Z</time>
      </trkpt>
      <trkpt lat="45.85603" lon="4.69203">
        <ele>199</ele>
        <time>2017-04-27T08:52:00Z</time>
      </trkpt>
      <trkpt lat="45.85603" lon="4.69195">
        <ele>199</ele>
        <time>2017-04-27T08:52:01Z</time>
      </trkpt>
      <trkpt lat="45.85602" lon="4.69187">
        <ele>199</ele>
        <time>2017-04-27T08:52:02Z</time>
      </trkpt>
      <trkpt lat="45.85601" lon="4.69179">
        <ele>199</ele>
        <time>2017-04-27T08:52:03Z</time>
      </trkpt>
      <trkpt lat="45.85601" lon="4.69171">
        <ele>199</ele>
        <time>2017-04-27T08:52:04Z</time>
      </trkpt>
      <trkpt lat="45.856" lon="4.69163">
        <ele>199</ele>
        <time>2017-04-27T08:52:05Z</time>
      </trkpt>
      <trkpt lat="45.85599" lon="4.69155">
        <ele>199</ele>
        <time>2017-04-27T08:52:06Z</time>
      </trkpt>
      <trkpt lat="45.85598" lon="4.69148">
        <ele>199</ele>
        <time>2017-04-27T08:52:07Z</time>
      </trkpt>
      <trkpt lat="45.85598" lon="4.6914">
        <ele>199</ele>
        <time>2017-04-27T08:52:08Z</time>
      </trkpt>
      <trkpt lat="45.85597" lon="4.69133">
        <ele>198</ele>
        <time>2017-04-27T08:52:09Z</time>
      </trkpt>
      <trkpt lat="45.85596" lon="4.69126">
        <ele>198</ele>
        <time>2017-04-27T08:52:10Z</time>
      </trkpt>
      <trkpt lat="45.85595" lon="4.69118">
        <ele>198</ele>
        <time>2017-04-27T08:52:11Z</time>
      </trkpt>
      <trkpt lat="45.85594" lon="4.69111">
        <ele>199</ele>
        <time>2017-04-27T08:52:12Z</time>
      </trkpt>
      <trkpt lat="45.85594" lon="4.69103">
        <ele>199</ele>
        <time>2017-04-27T08:52:13Z</time>
      </trkpt>
      <trkpt lat="45.85593" lon="4.69096">
        <ele>199</ele>
        <time>2017-04-27T08:52:14Z</time>
      </trkpt>
      <trkpt lat="45.85592" lon="4.69089">
        <ele>199</ele>
        <time>2017-04-27T08:52:15Z</time>
      </trkpt>
      <trkpt lat="45.85591" lon="4.69081">
        <ele>199</ele>
        <time>2017-04-27T08:52:16Z</time>
      </trkpt>
      <trkpt lat="45.85591" lon="4.69074">
        <ele>199</ele>
        <time>2017-04-27T08:52:17Z</time>
      </trkpt>
      <trkpt lat="45.8559" lon="4.69066">
        <ele>199</ele>
        <time>2017-04-27T08:52:18Z</time>
      </trkpt>
      <trkpt lat="45.85589" lon="4.69059">
        <ele>199</ele>
        <time>2017-04-27T08:52:19Z</time>
      </trkpt>
      <trkpt lat="45.85588" lon="4.69051">
        <ele>199</ele>
        <time>2017-04-27T08:52:20Z</time>
      </trkpt>
      <trkpt lat="45.85588" lon="4.69044">
        <ele>199</ele>
        <time>2017-04-27T08:52:21Z</time>
      </trkpt>
      <trkpt lat="45.85587" lon="4.69037">
        <ele>199</ele>
        <time>2017-04-27T08:52:22Z</time>
      </trkpt>
      <trkpt lat="45.85587" lon="4.6903">
        <ele>199</ele>
        <time>2017-04-27T08:52:23Z</time>
      </trkpt>
      <trkpt lat="45.85586" lon="4.69023">
        <ele>199</ele>
        <time>2017-04-27T08:52:24Z</time>
      </trkpt>
      <trkpt lat="45.85585" lon="4.69016">
        <ele>199</ele>
        <time>2017-04-27T08:52:25Z</time>
      </trkpt>
      <trkpt lat="45.85585" lon="4.69008">
        <ele>200</ele>
        <time>2017-04-27T08:52:26Z</time>
      </trkpt>
      <trkpt lat="45.85584" lon="4.69001">
        <ele>200</ele>
        <time>2017-04-27T08:52:27Z</time>
      </trkpt>
      <trkpt lat="45.85584" lon="4.68993">
        <ele>200</ele>
        <time>2017-04-27T08:52:28Z</time>
      </trkpt>
      <trkpt lat="45.85583" lon="4.68986">
        <ele>200</ele>
        <time>2017-04-27T08:52:29Z</time>
      </trkpt>
      <trkpt lat="45.85582" lon="4.68979">
        <ele>200</ele>
        <time>2017-04-27T08:52:30Z</time>
      </trkpt>
      <trkpt lat="45.85581" lon="4.68971">
        <ele>200</ele>
        <time>2017-04-27T08:52:31Z</time>
      </trkpt>
      <trkpt lat="45.85581" lon="4.68964">
        <ele>200</ele>
        <time>2017-04-27T08:52:32Z</time>
      </trkpt>
      <trkpt lat="45.8558" lon="4.68956">
        <ele>200</ele>
        <time>2017-04-27T08:52:33Z</time>
      </trkpt>
      <trkpt lat="45.85579" lon="4.68949">
        <ele>200</ele>
        <time>2017-04-27T08:52:34Z</time>
      </trkpt>
      <trkpt lat="45.85579" lon="4.68941">
        <ele>200</ele>
        <time>2017-04-27T08:52:35Z</time>
      </trkpt>
      <trkpt lat="45.85578" lon="4.68934">
        <ele>200</ele>
        <time>2017-04-27T08:52:36Z</time>
      </trkpt>
      <trkpt lat="45.85577" lon="4.68926">
        <ele>200</ele>
        <time>2017-04-27T08:52:37Z</time>
      </trkpt>
      <trkpt lat="45.85577" lon="4.68918">
        <ele>200</ele>
        <time>2017-04-27T08:52:38Z</time>
      </trkpt>
      <trkpt lat="45.85576" lon="4.6891">
        <ele>200</ele>
        <time>2017-04-27T08:52:39Z</time>
      </trkpt>
      <trkpt lat="45.85575" lon="4.68902">
        <ele>200</ele>
        <time>2017-04-27T08:52:40Z</time>
      </trkpt>
      <trkpt lat="45.85575" lon="4.68895">
        <ele>200</ele>
        <time>2017-04-27T08:52:41Z</time>
      </trkpt>
      <trkpt lat="45.85574" lon="4.68887">
        <ele>200</ele>
        <time>2017-04-27T08:52:42Z</time>
      </trkpt>
      <trkpt lat="45.85573" lon="4.68879">
        <ele>200</ele>
        <time>2017-04-27T08:52:43Z</time>
      </trkpt>
      <trkpt lat="45.85573" lon="4.68871">
        <ele>200</ele>
        <time>2017-04-27T08:52:44Z</time>
      </trkpt>
      <trkpt lat="45.85572" lon="4.68864">
        <ele>200</ele>
        <time>2017-04-27T08:52:45Z</time>
      </trkpt>
      <trkpt lat="45.85572" lon="4.68856">
        <ele>200</ele>
        <time>2017-04-27T08:52:46Z</time>
      </trkpt>
      <trkpt lat="45.85571" lon="4.68849">
        <ele>200</ele>
        <time>2017-04-27T08:52:47Z</time>
      </trkpt>
      <trkpt lat="45.8557" lon="4.68842">
        <ele>200</ele>
        <time>2017-04-27T08:52:48Z</time>
      </trkpt>
      <trkpt lat="45.85569" lon="4.68835">
        <ele>200</ele>
        <time>2017-04-27T08:52:49Z</time>
      </trkpt>
      <trkpt lat="45.85569" lon="4.68828">
        <ele>200</ele>
        <time>2017-04-27T08:52:50Z</time>
      </trkpt>
      <trkpt lat="45.85568" lon="4.68821">
        <ele>200</ele>
        <time>2017-04-27T08:52:51Z</time>
      </trkpt>
      <trkpt lat="45.85568" lon="4.68814">
        <ele>200</ele>
        <time>2017-04-27T08:52:52Z</time>
      </trkpt>
      <trkpt lat="45.85566" lon="4.68802">
        <ele>200</ele>
        <time>2017-04-27T08:52:54Z</time>
      </trkpt>
      <trkpt lat="45.85566" lon="4.68796">
        <ele>200</ele>
        <time>2017-04-27T08:52:55Z</time>
      </trkpt>
      <trkpt lat="45.85565" lon="4.68785">
        <ele>200</ele>
        <time>2017-04-27T08:52:57Z</time>
      </trkpt>
      <trkpt lat="45.85565" lon="4.68781">
        <ele>200</ele>
        <time>2017-04-27T08:52:58Z</time>
      </trkpt>
      <trkpt lat="45.85564" lon="4.68776">
        <ele>200</ele>
        <time>2017-04-27T08:53:06Z</time>
      </trkpt>
      <trkpt lat="45.85564" lon="4.68774">
        <ele>200</ele>
        <time>2017-04-27T08:53:07Z</time>
      </trkpt>
      <trkpt lat="45.85563" lon="4.68772">
        <ele>200</ele>
        <time>2017-04-27T08:53:08Z</time>
      </trkpt>
      <trkpt lat="45.85563" lon="4.68769">
        <ele>200</ele>
        <time>2017-04-27T08:53:09Z</time>
      </trkpt>
      <trkpt lat="45.85563" lon="4.6876">
        <ele>200</ele>
        <time>2017-04-27T08:53:11Z</time>
      </trkpt>
      <trkpt lat="45.85563" lon="4.68754">
        <ele>200</ele>
        <time>2017-04-27T08:53:12Z</time>
      </trkpt>
      <trkpt lat="45.85562" lon="4.68748">
        <ele>200</ele>
        <time>2017-04-27T08:53:13Z</time>
      </trkpt>
      <trkpt lat="45.85561" lon="4.68741">
        <ele>200</ele>
        <time>2017-04-27T08:53:14Z</time>
      </trkpt>
      <trkpt lat="45.85559" lon="4.68734">
        <ele>200</ele>
        <time>2017-04-27T08:53:15Z</time>
      </trkpt>
      <trkpt lat="45.85558" lon="4.68727">
        <ele>200</ele>
        <time>2017-04-27T08:53:16Z</time>
      </trkpt>
      <trkpt lat="45.85556" lon="4.6872">
        <ele>200</ele>
        <time>2017-04-27T08:53:17Z</time>
      </trkpt>
      <trkpt lat="45.85556" lon="4.68713">
        <ele>200</ele>
        <time>2017-04-27T08:53:18Z</time>
      </trkpt>
      <trkpt lat="45.85556" lon="4.68706">
        <ele>200</ele>
        <time>2017-04-27T08:53:19Z</time>
      </trkpt>
      <trkpt lat="45.85556" lon="4.68698">
        <ele>200</ele>
        <time>2017-04-27T08:53:20Z</time>
      </trkpt>
      <trkpt lat="45.85555" lon="4.68691">
        <ele>200</ele>
        <time>2017-04-27T08:53:21Z</time>
      </trkpt>
      <trkpt lat="45.85554" lon="4.68684">
        <ele>200</ele>
        <time>2017-04-27T08:53:22Z</time>
      </trkpt>
      <trkpt lat="45.85553" lon="4.68677">
        <ele>200</ele>
        <time>2017-04-27T08:53:23Z</time>
      </trkpt>
      <trkpt lat="45.85553" lon="4.6867">
        <ele>200</ele>
        <time>2017-04-27T08:53:24Z</time>
      </trkpt>
      <trkpt lat="45.85552" lon="4.68663">
        <ele>200</ele>
        <time>2017-04-27T08:53:25Z</time>
      </trkpt>
      <trkpt lat="45.85552" lon="4.68656">
        <ele>201</ele>
        <time>2017-04-27T08:53:26Z</time>
      </trkpt>
      <trkpt lat="45.85551" lon="4.68648">
        <ele>201</ele>
        <time>2017-04-27T08:53:27Z</time>
      </trkpt>
      <trkpt lat="45.85551" lon="4.68642">
        <ele>201</ele>
        <time>2017-04-27T08:53:28Z</time>
      </trkpt>
      <trkpt lat="45.8555" lon="4.68634">
        <ele>201</ele>
        <time>2017-04-27T08:53:29Z</time>
      </trkpt>
      <trkpt lat="45.85549" lon="4.68627">
        <ele>201</ele>
        <time>2017-04-27T08:53:30Z</time>
      </trkpt>
      <trkpt lat="45.85549" lon="4.6862">
        <ele>201</ele>
        <time>2017-04-27T08:53:31Z</time>
      </trkpt>
      <trkpt lat="45.85548" lon="4.68613">
        <ele>201</ele>
        <time>2017-04-27T08:53:32Z</time>
      </trkpt>
      <trkpt lat="45.85548" lon="4.68606">
        <ele>201</ele>
        <time>2017-04-27T08:53:33Z</time>
      </trkpt>
      <trkpt lat="45.85547" lon="4.68599">
        <ele>201</ele>
        <time>2017-04-27T08:53:34Z</time>
      </trkpt>
      <trkpt lat="45.85546" lon="4.68591">
        <ele>201</ele>
        <time>2017-04-27T08:53:35Z</time>
      </trkpt>
      <trkpt lat="45.85546" lon="4.68584">
        <ele>201</ele>
        <time>2017-04-27T08:53:36Z</time>
      </trkpt>
      <trkpt lat="45.85546" lon="4.68577">
        <ele>201</ele>
        <time>2017-04-27T08:53:37Z</time>
      </trkpt>
      <trkpt lat="45.85546" lon="4.68569">
        <ele>201</ele>
        <time>2017-04-27T08:53:38Z</time>
      </trkpt>
      <trkpt lat="45.85545" lon="4.68562">
        <ele>201</ele>
        <time>2017-04-27T08:53:39Z</time>
      </trkpt>
      <trkpt lat="45.85545" lon="4.68555">
        <ele>201</ele>
        <time>2017-04-27T08:53:40Z</time>
      </trkpt>
      <trkpt lat="45.85545" lon="4.68548">
        <ele>201</ele>
        <time>2017-04-27T08:53:41Z</time>
      </trkpt>
      <trkpt lat="45.85545" lon="4.6854">
        <ele>201</ele>
        <time>2017-04-27T08:53:42Z</time>
      </trkpt>
      <trkpt lat="45.85545" lon="4.68531">
        <ele>201</ele>
        <time>2017-04-27T08:53:43Z</time>
      </trkpt>
      <trkpt lat="45.85544" lon="4.68523">
        <ele>201</ele>
        <time>2017-04-27T08:53:44Z</time>
      </trkpt>
      <trkpt lat="45.85541" lon="4.68515">
        <ele>201</ele>
        <time>2017-04-27T08:53:45Z</time>
      </trkpt>
      <trkpt lat="45.8554" lon="4.68507">
        <ele>201</ele>
        <time>2017-04-27T08:53:46Z</time>
      </trkpt>
      <trkpt lat="45.85539" lon="4.685">
        <ele>200</ele>
        <time>2017-04-27T08:53:47Z</time>
      </trkpt>
      <trkpt lat="45.85538" lon="4.68492">
        <ele>200</ele>
        <time>2017-04-27T08:53:48Z</time>
      </trkpt>
      <trkpt lat="45.85538" lon="4.68484">
        <ele>200</ele>
        <time>2017-04-27T08:53:49Z</time>
      </trkpt>
      <trkpt lat="45.85537" lon="4.68476">
        <ele>200</ele>
        <time>2017-04-27T08:53:50Z</time>
      </trkpt>
      <trkpt lat="45.85536" lon="4.68468">
        <ele>200</ele>
        <time>2017-04-27T08:53:51Z</time>
      </trkpt>
      <trkpt lat="45.85535" lon="4.68461">
        <ele>200</ele>
        <time>2017-04-27T08:53:52Z</time>
      </trkpt>
      <trkpt lat="45.85535" lon="4.68453">
        <ele>200</ele>
        <time>2017-04-27T08:53:53Z</time>
      </trkpt>
      <trkpt lat="45.85534" lon="4.68446">
        <ele>200</ele>
        <time>2017-04-27T08:53:54Z</time>
      </trkpt>
      <trkpt lat="45.85534" lon="4.68439">
        <ele>200</ele>
        <time>2017-04-27T08:53:55Z</time>
      </trkpt>
      <trkpt lat="45.85533" lon="4.68431">
        <ele>200</ele>
        <time>2017-04-27T08:53:56Z</time>
      </trkpt>
      <trkpt lat="45.85531" lon="4.68424">
        <ele>200</ele>
        <time>2017-04-27T08:53:57Z</time>
      </trkpt>
      <trkpt lat="45.85531" lon="4.68416">
        <ele>200</ele>
        <time>2017-04-27T08:53:58Z</time>
      </trkpt>
      <trkpt lat="45.8553" lon="4.68407">
        <ele>200</ele>
        <time>2017-04-27T08:53:59Z</time>
      </trkpt>
      <trkpt lat="45.85529" lon="4.68399">
        <ele>200</ele>
        <time>2017-04-27T08:54:00Z</time>
      </trkpt>
      <trkpt lat="45.85528" lon="4.6839">
        <ele>200</ele>
        <time>2017-04-27T08:54:01Z</time>
      </trkpt>
      <trkpt lat="45.85527" lon="4.68381">
        <ele>201</ele>
        <time>2017-04-27T08:54:02Z</time>
      </trkpt>
      <trkpt lat="45.85526" lon="4.68372">
        <ele>201</ele>
        <time>2017-04-27T08:54:03Z</time>
      </trkpt>
      <trkpt lat="45.85525" lon="4.68364">
        <ele>201</ele>
        <time>2017-04-27T08:54:04Z</time>
      </trkpt>
      <trkpt lat="45.85524" lon="4.68356">
        <ele>201</ele>
        <time>2017-04-27T08:54:05Z</time>
      </trkpt>
      <trkpt lat="45.85524" lon="4.68347">
        <ele>201</ele>
        <time>2017-04-27T08:54:06Z</time>
      </trkpt>
      <trkpt lat="45.85522" lon="4.68339">
        <ele>201</ele>
        <time>2017-04-27T08:54:07Z</time>
      </trkpt>
      <trkpt lat="45.85521" lon="4.68331">
        <ele>202</ele>
        <time>2017-04-27T08:54:08Z</time>
      </trkpt>
      <trkpt lat="45.8552" lon="4.68323">
        <ele>202</ele>
        <time>2017-04-27T08:54:09Z</time>
      </trkpt>
      <trkpt lat="45.8552" lon="4.68315">
        <ele>202</ele>
        <time>2017-04-27T08:54:10Z</time>
      </trkpt>
      <trkpt lat="45.85519" lon="4.68307">
        <ele>202</ele>
        <time>2017-04-27T08:54:11Z</time>
      </trkpt>
      <trkpt lat="45.85519" lon="4.68298">
        <ele>202</ele>
        <time>2017-04-27T08:54:12Z</time>
      </trkpt>
      <trkpt lat="45.85518" lon="4.6829">
        <ele>202</ele>
        <time>2017-04-27T08:54:13Z</time>
      </trkpt>
      <trkpt lat="45.85517" lon="4.68281">
        <ele>202</ele>
        <time>2017-04-27T08:54:14Z</time>
      </trkpt>
      <trkpt lat="45.85516" lon="4.68273">
        <ele>202</ele>
        <time>2017-04-27T08:54:15Z</time>
      </trkpt>
      <trkpt lat="45.85515" lon="4.68266">
        <ele>202</ele>
        <time>2017-04-27T08:54:16Z</time>
      </trkpt>
      <trkpt lat="45.85514" lon="4.68258">
        <ele>203</ele>
        <time>2017-04-27T08:54:17Z</time>
      </trkpt>
      <trkpt lat="45.85513" lon="4.6825">
        <ele>203</ele>
        <time>2017-04-27T08:54:18Z</time>
      </trkpt>
      <trkpt lat="45.85512" lon="4.68242">
        <ele>203</ele>
        <time>2017-04-27T08:54:19Z</time>
      </trkpt>
      <trkpt lat="45.85512" lon="4.68235">
        <ele>203</ele>
        <time>2017-04-27T08:54:20Z</time>
      </trkpt>
      <trkpt lat="45.85511" lon="4.68226">
        <ele>203</ele>
        <time>2017-04-27T08:54:21Z</time>
      </trkpt>
      <trkpt lat="45.85511" lon="4.68218">
        <ele>203</ele>
        <time>2017-04-27T08:54:22Z</time>
      </trkpt>
      <trkpt lat="45.8551" lon="4.68211">
        <ele>203</ele>
        <time>2017-04-27T08:54:23Z</time>
      </trkpt>
      <trkpt lat="45.8551" lon="4.68203">
        <ele>203</ele>
        <time>2017-04-27T08:54:24Z</time>
      </trkpt>
      <trkpt lat="45.8551" lon="4.68194">
        <ele>203</ele>
        <time>2017-04-27T08:54:25Z</time>
      </trkpt>
      <trkpt lat="45.85509" lon="4.68186">
        <ele>203</ele>
        <time>2017-04-27T08:54:26Z</time>
      </trkpt>
      <trkpt lat="45.85508" lon="4.68179">
        <ele>204</ele>
        <time>2017-04-27T08:54:27Z</time>
      </trkpt>
      <trkpt lat="45.85505" lon="4.68172">
        <ele>204</ele>
        <time>2017-04-27T08:54:28Z</time>
      </trkpt>
      <trkpt lat="45.85504" lon="4.68164">
        <ele>204</ele>
        <time>2017-04-27T08:54:29Z</time>
      </trkpt>
      <trkpt lat="45.85503" lon="4.68156">
        <ele>204</ele>
        <time>2017-04-27T08:54:30Z</time>
      </trkpt>
      <trkpt lat="45.85503" lon="4.68148">
        <ele>203</ele>
        <time>2017-04-27T08:54:31Z</time>
      </trkpt>
      <trkpt lat="45.85502" lon="4.6814">
        <ele>203</ele>
        <time>2017-04-27T08:54:32Z</time>
      </trkpt>
      <trkpt lat="45.85502" lon="4.68132">
        <ele>203</ele>
        <time>2017-04-27T08:54:33Z</time>
      </trkpt>
      <trkpt lat="45.85503" lon="4.68124">
        <ele>203</ele>
        <time>2017-04-27T08:54:34Z</time>
      </trkpt>
      <trkpt lat="45.85502" lon="4.68116">
        <ele>203</ele>
        <time>2017-04-27T08:54:35Z</time>
      </trkpt>
      <trkpt lat="45.85502" lon="4.68109">
        <ele>203</ele>
        <time>2017-04-27T08:54:36Z</time>
      </trkpt>
      <trkpt lat="45.85501" lon="4.68101">
        <ele>203</ele>
        <time>2017-04-27T08:54:37Z</time>
      </trkpt>
      <trkpt lat="45.85499" lon="4.68094">
        <ele>204</ele>
        <time>2017-04-27T08:54:38Z</time>
      </trkpt>
      <trkpt lat="45.85497" lon="4.68086">
        <ele>204</ele>
        <time>2017-04-27T08:54:39Z</time>
      </trkpt>
      <trkpt lat="45.85497" lon="4.68078">
        <ele>205</ele>
        <time>2017-04-27T08:54:40Z</time>
      </trkpt>
      <trkpt lat="45.85496" lon="4.68071">
        <ele>205</ele>
        <time>2017-04-27T08:54:41Z</time>
      </trkpt>
      <trkpt lat="45.85495" lon="4.68063">
        <ele>206</ele>
        <time>2017-04-27T08:54:42Z</time>
      </trkpt>
      <trkpt lat="45.85495" lon="4.68055">
        <ele>206</ele>
        <time>2017-04-27T08:54:43Z</time>
      </trkpt>
      <trkpt lat="45.85495" lon="4.68047">
        <ele>206</ele>
        <time>2017-04-27T08:54:44Z</time>
      </trkpt>
      <trkpt lat="45.85494" lon="4.68041">
        <ele>206</ele>
        <time>2017-04-27T08:54:45Z</time>
      </trkpt>
      <trkpt lat="45.85494" lon="4.68034">
        <ele>207</ele>
        <time>2017-04-27T08:54:46Z</time>
      </trkpt>
      <trkpt lat="45.85496" lon="4.68027">
        <ele>207</ele>
        <time>2017-04-27T08:54:47Z</time>
      </trkpt>
      <trkpt lat="45.85498" lon="4.6802">
        <ele>207</ele>
        <time>2017-04-27T08:54:48Z</time>
      </trkpt>
      <trkpt lat="45.85499" lon="4.68008">
        <ele>206</ele>
        <time>2017-04-27T08:54:50Z</time>
      </trkpt>
      <trkpt lat="45.85501" lon="4.68002">
        <ele>206</ele>
        <time>2017-04-27T08:54:51Z</time>
      </trkpt>
      <trkpt lat="45.85503" lon="4.67996">
        <ele>206</ele>
        <time>2017-04-27T08:54:52Z</time>
      </trkpt>
      <trkpt lat="45.85506" lon="4.67991">
        <ele>206</ele>
        <time>2017-04-27T08:54:53Z</time>
      </trkpt>
      <trkpt lat="45.8551" lon="4.67985">
        <ele>206</ele>
        <time>2017-04-27T08:54:54Z</time>
      </trkpt>
      <trkpt lat="45.85514" lon="4.6798">
        <ele>206</ele>
        <time>2017-04-27T08:54:55Z</time>
      </trkpt>
      <trkpt lat="45.85519" lon="4.67974">
        <ele>206</ele>
        <time>2017-04-27T08:54:56Z</time>
      </trkpt>
      <trkpt lat="45.85524" lon="4.67968">
        <ele>206</ele>
        <time>2017-04-27T08:54:57Z</time>
      </trkpt>
      <trkpt lat="45.85528" lon="4.67963">
        <ele>206</ele>
        <time>2017-04-27T08:54:58Z</time>
      </trkpt>
      <trkpt lat="45.85532" lon="4.67958">
        <ele>206</ele>
        <time>2017-04-27T08:54:59Z</time>
      </trkpt>
      <trkpt lat="45.85537" lon="4.67954">
        <ele>206</ele>
        <time>2017-04-27T08:55:00Z</time>
      </trkpt>
      <trkpt lat="45.85542" lon="4.6795">
        <ele>205</ele>
        <time>2017-04-27T08:55:01Z</time>
      </trkpt>
      <trkpt lat="45.85546" lon="4.67946">
        <ele>205</ele>
        <time>2017-04-27T08:55:02Z</time>
      </trkpt>
      <trkpt lat="45.8555" lon="4.67942">
        <ele>205</ele>
        <time>2017-04-27T08:55:03Z</time>
      </trkpt>
      <trkpt lat="45.85557" lon="4.67936">
        <ele>205</ele>
        <time>2017-04-27T08:55:05Z</time>
      </trkpt>
      <trkpt lat="45.85561" lon="4.67934">
        <ele>205</ele>
        <time>2017-04-27T08:55:06Z</time>
      </trkpt>
      <trkpt lat="45.85568" lon="4.6793">
        <ele>205</ele>
        <time>2017-04-27T08:55:08Z</time>
      </trkpt>
      <trkpt lat="45.8557" lon="4.67927">
        <ele>205</ele>
        <time>2017-04-27T08:55:09Z</time>
      </trkpt>
      <trkpt lat="45.85572" lon="4.67916">
        <ele>205</ele>
        <time>2017-04-27T08:55:11Z</time>
      </trkpt>
      <trkpt lat="45.85572" lon="4.6791">
        <ele>205</ele>
        <time>2017-04-27T08:55:12Z</time>
      </trkpt>
      <trkpt lat="45.85571" lon="4.67903">
        <ele>206</ele>
        <time>2017-04-27T08:55:13Z</time>
      </trkpt>
      <trkpt lat="45.85571" lon="4.67897">
        <ele>206</ele>
        <time>2017-04-27T08:55:14Z</time>
      </trkpt>
      <trkpt lat="45.85571" lon="4.6789">
        <ele>206</ele>
        <time>2017-04-27T08:55:15Z</time>
      </trkpt>
      <trkpt lat="45.85571" lon="4.67883">
        <ele>206</ele>
        <time>2017-04-27T08:55:16Z</time>
      </trkpt>
      <trkpt lat="45.8557" lon="4.67876">
        <ele>207</ele>
        <time>2017-04-27T08:55:17Z</time>
      </trkpt>
      <trkpt lat="45.8557" lon="4.67868">
        <ele>207</ele>
        <time>2017-04-27T08:55:18Z</time>
      </trkpt>
      <trkpt lat="45.85573" lon="4.67861">
        <ele>207</ele>
        <time>2017-04-27T08:55:19Z</time>
      </trkpt>
      <trkpt lat="45.85574" lon="4.67854">
        <ele>206</ele>
        <time>2017-04-27T08:55:20Z</time>
      </trkpt>
      <trkpt lat="45.85575" lon="4.67846">
        <ele>206</ele>
        <time>2017-04-27T08:55:21Z</time>
      </trkpt>
      <trkpt lat="45.85577" lon="4.67838">
        <ele>206</ele>
        <time>2017-04-27T08:55:22Z</time>
      </trkpt>
      <trkpt lat="45.85578" lon="4.6783">
        <ele>205</ele>
        <time>2017-04-27T08:55:23Z</time>
      </trkpt>
      <trkpt lat="45.8558" lon="4.67822">
        <ele>206</ele>
        <time>2017-04-27T08:55:24Z</time>
      </trkpt>
      <trkpt lat="45.85582" lon="4.67815">
        <ele>206</ele>
        <time>2017-04-27T08:55:25Z</time>
      </trkpt>
      <trkpt lat="45.85584" lon="4.67808">
        <ele>209</ele>
        <time>2017-04-27T08:55:26Z</time>
      </trkpt>
      <trkpt lat="45.85587" lon="4.67801">
        <ele>210</ele>
        <time>2017-04-27T08:55:27Z</time>
      </trkpt>
      <trkpt lat="45.85589" lon="4.67794">
        <ele>210</ele>
        <time>2017-04-27T08:55:28Z</time>
      </trkpt>
      <trkpt lat="45.8559" lon="4.67787">
        <ele>210</ele>
        <time>2017-04-27T08:55:29Z</time>
      </trkpt>
      <trkpt lat="45.85593" lon="4.6778">
        <ele>209</ele>
        <time>2017-04-27T08:55:30Z</time>
      </trkpt>
      <trkpt lat="45.85595" lon="4.67773">
        <ele>209</ele>
        <time>2017-04-27T08:55:31Z</time>
      </trkpt>
      <trkpt lat="45.85597" lon="4.67765">
        <ele>208</ele>
        <time>2017-04-27T08:55:32Z</time>
      </trkpt>
      <trkpt lat="45.856" lon="4.67759">
        <ele>208</ele>
        <time>2017-04-27T08:55:33Z</time>
      </trkpt>
      <trkpt lat="45.85603" lon="4.67752">
        <ele>208</ele>
        <time>2017-04-27T08:55:34Z</time>
      </trkpt>
      <trkpt lat="45.85606" lon="4.67745">
        <ele>207</ele>
        <time>2017-04-27T08:55:35Z</time>
      </trkpt>
      <trkpt lat="45.85609" lon="4.67739">
        <ele>208</ele>
        <time>2017-04-27T08:55:36Z</time>
      </trkpt>
      <trkpt lat="45.85613" lon="4.67733">
        <ele>208</ele>
        <time>2017-04-27T08:55:37Z</time>
      </trkpt>
      <trkpt lat="45.85617" lon="4.67727">
        <ele>209</ele>
        <time>2017-04-27T08:55:38Z</time>
      </trkpt>
      <trkpt lat="45.85621" lon="4.67721">
        <ele>209</ele>
        <time>2017-04-27T08:55:39Z</time>
      </trkpt>
      <trkpt lat="45.85626" lon="4.67715">
        <ele>209</ele>
        <time>2017-04-27T08:55:40Z</time>
      </trkpt>
      <trkpt lat="45.8563" lon="4.67709">
        <ele>209</ele>
        <time>2017-04-27T08:55:41Z</time>
      </trkpt>
      <trkpt lat="45.85635" lon="4.67703">
        <ele>209</ele>
        <time>2017-04-27T08:55:42Z</time>
      </trkpt>
      <trkpt lat="45.8564" lon="4.67698">
        <ele>209</ele>
        <time>2017-04-27T08:55:43Z</time>
      </trkpt>
      <trkpt lat="45.85645" lon="4.67693">
        <ele>209</ele>
        <time>2017-04-27T08:55:44Z</time>
      </trkpt>
      <trkpt lat="45.8565" lon="4.67689">
        <ele>209</ele>
        <time>2017-04-27T08:55:45Z</time>
      </trkpt>
      <trkpt lat="45.85655" lon="4.67684">
        <ele>209</ele>
        <time>2017-04-27T08:55:46Z</time>
      </trkpt>
      <trkpt lat="45.8566" lon="4.6768">
        <ele>209</ele>
        <time>2017-04-27T08:55:47Z</time>
      </trkpt>
      <trkpt lat="45.85665" lon="4.67676">
        <ele>209</ele>
        <time>2017-04-27T08:55:48Z</time>
      </trkpt>
      <trkpt lat="45.85671" lon="4.67672">
        <ele>212</ele>
        <time>2017-04-27T08:55:49Z</time>
      </trkpt>
      <trkpt lat="45.85676" lon="4.67669">
        <ele>213</ele>
        <time>2017-04-27T08:55:50Z</time>
      </trkpt>
      <trkpt lat="45.85682" lon="4.67665">
        <ele>210</ele>
        <time>2017-04-27T08:55:51Z</time>
      </trkpt>
      <trkpt lat="45.85687" lon="4.67661">
        <ele>210</ele>
        <time>2017-04-27T08:55:52Z</time>
      </trkpt>
      <trkpt lat="45.85693" lon="4.67658">
        <ele>211</ele>
        <time>2017-04-27T08:55:53Z</time>
      </trkpt>
      <trkpt lat="45.85698" lon="4.67654">
        <ele>211</ele>
        <time>2017-04-27T08:55:54Z</time>
      </trkpt>
      <trkpt lat="45.85704" lon="4.67651">
        <ele>211</ele>
        <time>2017-04-27T08:55:55Z</time>
      </trkpt>
      <trkpt lat="45.85709" lon="4.67648">
        <ele>212</ele>
        <time>2017-04-27T08:55:56Z</time>
      </trkpt>
      <trkpt lat="45.85713" lon="4.67644">
        <ele>212</ele>
        <time>2017-04-27T08:55:57Z</time>
      </trkpt>
      <trkpt lat="45.85718" lon="4.6764">
        <ele>212</ele>
        <time>2017-04-27T08:55:58Z</time>
      </trkpt>
      <trkpt lat="45.85724" lon="4.67637">
        <ele>212</ele>
        <time>2017-04-27T08:55:59Z</time>
      </trkpt>
      <trkpt lat="45.85729" lon="4.67633">
        <ele>212</ele>
        <time>2017-04-27T08:56:00Z</time>
      </trkpt>
      <trkpt lat="45.85735" lon="4.6763">
        <ele>212</ele>
        <time>2017-04-27T08:56:01Z</time>
      </trkpt>
      <trkpt lat="45.8574" lon="4.67627">
        <ele>212</ele>
        <time>2017-04-27T08:56:02Z</time>
      </trkpt>
      <trkpt lat="45.85745" lon="4.67624">
        <ele>212</ele>
        <time>2017-04-27T08:56:03Z</time>
      </trkpt>
      <trkpt lat="45.85751" lon="4.67621">
        <ele>219</ele>
        <time>2017-04-27T08:56:04Z</time>
      </trkpt>
      <trkpt lat="45.85757" lon="4.67617">
        <ele>218</ele>
        <time>2017-04-27T08:56:05Z</time>
      </trkpt>
      <trkpt lat="45.85762" lon="4.67613">
        <ele>218</ele>
        <time>2017-04-27T08:56:06Z</time>
      </trkpt>
      <trkpt lat="45.85767" lon="4.67609">
        <ele>218</ele>
        <time>2017-04-27T08:56:07Z</time>
      </trkpt>
      <trkpt lat="45.85772" lon="4.67605">
        <ele>218</ele>
        <time>2017-04-27T08:56:08Z</time>
      </trkpt>
      <trkpt lat="45.85777" lon="4.67601">
        <ele>218</ele>
        <time>2017-04-27T08:56:09Z</time>
      </trkpt>
      <trkpt lat="45.85782" lon="4.67597">
        <ele>218</ele>
        <time>2017-04-27T08:56:10Z</time>
      </trkpt>
      <trkpt lat="45.85786" lon="4.67592">
        <ele>219</ele>
        <time>2017-04-27T08:56:11Z</time>
      </trkpt>
      <trkpt lat="45.85791" lon="4.67587">
        <ele>219</ele>
        <time>2017-04-27T08:56:12Z</time>
      </trkpt>
      <trkpt lat="45.85796" lon="4.67583">
        <ele>212</ele>
        <time>2017-04-27T08:56:13Z</time>
      </trkpt>
      <trkpt lat="45.85801" lon="4.67577">
        <ele>212</ele>
        <time>2017-04-27T08:56:14Z</time>
      </trkpt>
      <trkpt lat="45.85806" lon="4.6757">
        <ele>213</ele>
        <time>2017-04-27T08:56:15Z</time>
      </trkpt>
      <trkpt lat="45.85811" lon="4.67564">
        <ele>213</ele>
        <time>2017-04-27T08:56:16Z</time>
      </trkpt>
      <trkpt lat="45.85815" lon="4.67558">
        <ele>212</ele>
        <time>2017-04-27T08:56:17Z</time>
      </trkpt>
      <trkpt lat="45.8582" lon="4.6755">
        <ele>212</ele>
        <time>2017-04-27T08:56:18Z</time>
      </trkpt>
      <trkpt lat="45.85824" lon="4.67545">
        <ele>211</ele>
        <time>2017-04-27T08:56:19Z</time>
      </trkpt>
      <trkpt lat="45.85828" lon="4.67538">
        <ele>210</ele>
        <time>2017-04-27T08:56:20Z</time>
      </trkpt>
      <trkpt lat="45.85832" lon="4.6753">
        <ele>210</ele>
        <time>2017-04-27T08:56:21Z</time>
      </trkpt>
      <trkpt lat="45.85836" lon="4.67523">
        <ele>218</ele>
        <time>2017-04-27T08:56:22Z</time>
      </trkpt>
      <trkpt lat="45.8584" lon="4.67515">
        <ele>216</ele>
        <time>2017-04-27T08:56:23Z</time>
      </trkpt>
      <trkpt lat="45.85844" lon="4.67507">
        <ele>214</ele>
        <time>2017-04-27T08:56:24Z</time>
      </trkpt>
      <trkpt lat="45.85847" lon="4.67499">
        <ele>210</ele>
        <time>2017-04-27T08:56:25Z</time>
      </trkpt>
      <trkpt lat="45.8585" lon="4.67491">
        <ele>211</ele>
        <time>2017-04-27T08:56:26Z</time>
      </trkpt>
      <trkpt lat="45.85853" lon="4.67482">
        <ele>212</ele>
        <time>2017-04-27T08:56:27Z</time>
      </trkpt>
      <trkpt lat="45.85855" lon="4.67474">
        <ele>213</ele>
        <time>2017-04-27T08:56:28Z</time>
      </trkpt>
      <trkpt lat="45.85857" lon="4.67465">
        <ele>213</ele>
        <time>2017-04-27T08:56:29Z</time>
      </trkpt>
      <trkpt lat="45.85859" lon="4.67458">
        <ele>213</ele>
        <time>2017-04-27T08:56:30Z</time>
      </trkpt>
      <trkpt lat="45.8586" lon="4.6745">
        <ele>213</ele>
        <time>2017-04-27T08:56:31Z</time>
      </trkpt>
      <trkpt lat="45.85861" lon="4.67443">
        <ele>213</ele>
        <time>2017-04-27T08:56:32Z</time>
      </trkpt>
      <trkpt lat="45.85862" lon="4.67435">
        <ele>212</ele>
        <time>2017-04-27T08:56:33Z</time>
      </trkpt>
      <trkpt lat="45.85863" lon="4.67427">
        <ele>212</ele>
        <time>2017-04-27T08:56:34Z</time>
      </trkpt>
      <trkpt lat="45.85864" lon="4.6742">
        <ele>212</ele>
        <time>2017-04-27T08:56:35Z</time>
      </trkpt>
      <trkpt lat="45.85865" lon="4.67412">
        <ele>209</ele>
        <time>2017-04-27T08:56:36Z</time>
      </trkpt>
      <trkpt lat="45.85865" lon="4.67404">
        <ele>209</ele>
        <time>2017-04-27T08:56:37Z</time>
      </trkpt>
      <trkpt lat="45.85866" lon="4.67396">
        <ele>209</ele>
        <time>2017-04-27T08:56:38Z</time>
      </trkpt>
      <trkpt lat="45.85867" lon="4.67388">
        <ele>209</ele>
        <time>2017-04-27T08:56:39Z</time>
      </trkpt>
      <trkpt lat="45.85868" lon="4.6738">
        <ele>209</ele>
        <time>2017-04-27T08:56:40Z</time>
      </trkpt>
      <trkpt lat="45.85869" lon="4.67373">
        <ele>209</ele>
        <time>2017-04-27T08:56:41Z</time>
      </trkpt>
      <trkpt lat="45.85869" lon="4.67366">
        <ele>208</ele>
        <time>2017-04-27T08:56:42Z</time>
      </trkpt>
      <trkpt lat="45.85869" lon="4.67359">
        <ele>208</ele>
        <time>2017-04-27T08:56:43Z</time>
      </trkpt>
      <trkpt lat="45.8587" lon="4.67352">
        <ele>208</ele>
        <time>2017-04-27T08:56:44Z</time>
      </trkpt>
      <trkpt lat="45.85871" lon="4.67345">
        <ele>208</ele>
        <time>2017-04-27T08:56:45Z</time>
      </trkpt>
      <trkpt lat="45.85872" lon="4.67337">
        <ele>208</ele>
        <time>2017-04-27T08:56:46Z</time>
      </trkpt>
      <trkpt lat="45.85873" lon="4.67328">
        <ele>206</ele>
        <time>2017-04-27T08:56:47Z</time>
      </trkpt>
      <trkpt lat="45.85874" lon="4.67319">
        <ele>206</ele>
        <time>2017-04-27T08:56:48Z</time>
      </trkpt>
      <trkpt lat="45.85877" lon="4.67311">
        <ele>206</ele>
        <time>2017-04-27T08:56:49Z</time>
      </trkpt>
      <trkpt lat="45.85878" lon="4.67302">
        <ele>206</ele>
        <time>2017-04-27T08:56:50Z</time>
      </trkpt>
      <trkpt lat="45.85879" lon="4.67294">
        <ele>205</ele>
        <time>2017-04-27T08:56:51Z</time>
      </trkpt>
      <trkpt lat="45.85879" lon="4.67285">
        <ele>205</ele>
        <time>2017-04-27T08:56:52Z</time>
      </trkpt>
      <trkpt lat="45.8588" lon="4.67277">
        <ele>205</ele>
        <time>2017-04-27T08:56:53Z</time>
      </trkpt>
      <trkpt lat="45.8588" lon="4.67268">
        <ele>205</ele>
        <time>2017-04-27T08:56:54Z</time>
      </trkpt>
      <trkpt lat="45.85881" lon="4.6726">
        <ele>205</ele>
        <time>2017-04-27T08:56:55Z</time>
      </trkpt>
      <trkpt lat="45.85881" lon="4.67252">
        <ele>205</ele>
        <time>2017-04-27T08:56:56Z</time>
      </trkpt>
      <trkpt lat="45.85882" lon="4.67243">
        <ele>204</ele>
        <time>2017-04-27T08:56:57Z</time>
      </trkpt>
      <trkpt lat="45.85882" lon="4.67235">
        <ele>204</ele>
        <time>2017-04-27T08:56:58Z</time>
      </trkpt>
      <trkpt lat="45.85883" lon="4.67227">
        <ele>204</ele>
        <time>2017-04-27T08:56:59Z</time>
      </trkpt>
      <trkpt lat="45.85885" lon="4.67219">
        <ele>204</ele>
        <time>2017-04-27T08:57:00Z</time>
      </trkpt>
      <trkpt lat="45.85885" lon="4.67211">
        <ele>204</ele>
        <time>2017-04-27T08:57:01Z</time>
      </trkpt>
      <trkpt lat="45.85886" lon="4.67203">
        <ele>204</ele>
        <time>2017-04-27T08:57:02Z</time>
      </trkpt>
      <trkpt lat="45.85887" lon="4.67195">
        <ele>204</ele>
        <time>2017-04-27T08:57:03Z</time>
      </trkpt>
      <trkpt lat="45.85888" lon="4.67187">
        <ele>204</ele>
        <time>2017-04-27T08:57:04Z</time>
      </trkpt>
      <trkpt lat="45.8589" lon="4.67179">
        <ele>205</ele>
        <time>2017-04-27T08:57:05Z</time>
      </trkpt>
      <trkpt lat="45.8589" lon="4.67171">
        <ele>205</ele>
        <time>2017-04-27T08:57:06Z</time>
      </trkpt>
      <trkpt lat="45.85891" lon="4.67163">
        <ele>204</ele>
        <time>2017-04-27T08:57:07Z</time>
      </trkpt>
      <trkpt lat="45.85892" lon="4.67155">
        <ele>204</ele>
        <time>2017-04-27T08:57:08Z</time>
      </trkpt>
      <trkpt lat="45.85893" lon="4.67147">
        <ele>204</ele>
        <time>2017-04-27T08:57:09Z</time>
      </trkpt>
      <trkpt lat="45.85894" lon="4.67139">
        <ele>204</ele>
        <time>2017-04-27T08:57:10Z</time>
      </trkpt>
      <trkpt lat="45.85895" lon="4.67131">
        <ele>204</ele>
        <time>2017-04-27T08:57:11Z</time>
      </trkpt>
      <trkpt lat="45.85896" lon="4.67124">
        <ele>204</ele>
        <time>2017-04-27T08:57:12Z</time>
      </trkpt>
      <trkpt lat="45.85897" lon="4.67116">
        <ele>204</ele>
        <time>2017-04-27T08:57:13Z</time>
      </trkpt>
      <trkpt lat="45.85898" lon="4.67108">
        <ele>204</ele>
        <time>2017-04-27T08:57:14Z</time>
      </trkpt>
      <trkpt lat="45.85898" lon="4.67101">
        <ele>204</ele>
        <time>2017-04-27T08:57:15Z</time>
      </trkpt>
      <trkpt lat="45.85899" lon="4.67094">
        <ele>204</ele>
        <time>2017-04-27T08:57:16Z</time>
      </trkpt>
      <trkpt lat="45.859" lon="4.67086">
        <ele>204</ele>
        <time>2017-04-27T08:57:17Z</time>
      </trkpt>
      <trkpt lat="45.85901" lon="4.67078">
        <ele>204</ele>
        <time>2017-04-27T08:57:18Z</time>
      </trkpt>
      <trkpt lat="45.85902" lon="4.67071">
        <ele>205</ele>
        <time>2017-04-27T08:57:19Z</time>
      </trkpt>
      <trkpt lat="45.85903" lon="4.67063">
        <ele>205</ele>
        <time>2017-04-27T08:57:20Z</time>
      </trkpt>
      <trkpt lat="45.85904" lon="4.67055">
        <ele>205</ele>
        <time>2017-04-27T08:57:21Z</time>
      </trkpt>
      <trkpt lat="45.85905" lon="4.67047">
        <ele>205</ele>
        <time>2017-04-27T08:57:22Z</time>
      </trkpt>
      <trkpt lat="45.85906" lon="4.67039">
        <ele>205</ele>
        <time>2017-04-27T08:57:23Z</time>
      </trkpt>
      <trkpt lat="45.85907" lon="4.67032">
        <ele>205</ele>
        <time>2017-04-27T08:57:24Z</time>
      </trkpt>
      <trkpt lat="45.85909" lon="4.67025">
        <ele>205</ele>
        <time>2017-04-27T08:57:25Z</time>
      </trkpt>
      <trkpt lat="45.8591" lon="4.67018">
        <ele>205</ele>
        <time>2017-04-27T08:57:26Z</time>
      </trkpt>
      <trkpt lat="45.85912" lon="4.67011">
        <ele>206</ele>
        <time>2017-04-27T08:57:27Z</time>
      </trkpt>
      <trkpt lat="45.85914" lon="4.67005">
        <ele>206</ele>
        <time>2017-04-27T08:57:28Z</time>
      </trkpt>
      <trkpt lat="45.85917" lon="4.66999">
        <ele>206</ele>
        <time>2017-04-27T08:57:29Z</time>
      </trkpt>
      <trkpt lat="45.85921" lon="4.66994">
        <ele>207</ele>
        <time>2017-04-27T08:57:30Z</time>
      </trkpt>
      <trkpt lat="45.85924" lon="4.66989">
        <ele>208</ele>
        <time>2017-04-27T08:57:31Z</time>
      </trkpt>
      <trkpt lat="45.85926" lon="4.66982">
        <ele>208</ele>
        <time>2017-04-27T08:57:32Z</time>
      </trkpt>
      <trkpt lat="45.85928" lon="4.66975">
        <ele>208</ele>
        <time>2017-04-27T08:57:33Z</time>
      </trkpt>
      <trkpt lat="45.85928" lon="4.66967">
        <ele>209</ele>
        <time>2017-04-27T08:57:34Z</time>
      </trkpt>
      <trkpt lat="45.85927" lon="4.66959">
        <ele>209</ele>
        <time>2017-04-27T08:57:35Z</time>
      </trkpt>
      <trkpt lat="45.85925" lon="4.66951">
        <ele>209</ele>
        <time>2017-04-27T08:57:36Z</time>
      </trkpt>
      <trkpt lat="45.85924" lon="4.66943">
        <ele>209</ele>
        <time>2017-04-27T08:57:37Z</time>
      </trkpt>
      <trkpt lat="45.85924" lon="4.66934">
        <ele>208</ele>
        <time>2017-04-27T08:57:38Z</time>
      </trkpt>
      <trkpt lat="45.85925" lon="4.66926">
        <ele>208</ele>
        <time>2017-04-27T08:57:39Z</time>
      </trkpt>
      <trkpt lat="45.85927" lon="4.66919">
        <ele>208</ele>
        <time>2017-04-27T08:57:40Z</time>
      </trkpt>
      <trkpt lat="45.85928" lon="4.66911">
        <ele>209</ele>
        <time>2017-04-27T08:57:41Z</time>
      </trkpt>
      <trkpt lat="45.8593" lon="4.66904">
        <ele>209</ele>
        <time>2017-04-27T08:57:42Z</time>
      </trkpt>
      <trkpt lat="45.85932" lon="4.66897">
        <ele>209</ele>
        <time>2017-04-27T08:57:43Z</time>
      </trkpt>
      <trkpt lat="45.85933" lon="4.6689">
        <ele>210</ele>
        <time>2017-04-27T08:57:44Z</time>
      </trkpt>
      <trkpt lat="45.85934" lon="4.66883">
        <ele>210</ele>
        <time>2017-04-27T08:57:45Z</time>
      </trkpt>
      <trkpt lat="45.85936" lon="4.66876">
        <ele>210</ele>
        <time>2017-04-27T08:57:46Z</time>
      </trkpt>
      <trkpt lat="45.85937" lon="4.66869">
        <ele>210</ele>
        <time>2017-04-27T08:57:47Z</time>
      </trkpt>
      <trkpt lat="45.85939" lon="4.66862">
        <ele>210</ele>
        <time>2017-04-27T08:57:48Z</time>
      </trkpt>
      <trkpt lat="45.85941" lon="4.66855">
        <ele>210</ele>
        <time>2017-04-27T08:57:49Z</time>
      </trkpt>
      <trkpt lat="45.85943" lon="4.66848">
        <ele>210</ele>
        <time>2017-04-27T08:57:50Z</time>
      </trkpt>
      <trkpt lat="45.85945" lon="4.66841">
        <ele>210</ele>
        <time>2017-04-27T08:57:51Z</time>
      </trkpt>
      <trkpt lat="45.85947" lon="4.66834">
        <ele>211</ele>
        <time>2017-04-27T08:57:52Z</time>
      </trkpt>
      <trkpt lat="45.85949" lon="4.66827">
        <ele>212</ele>
        <time>2017-04-27T08:57:53Z</time>
      </trkpt>
      <trkpt lat="45.85952" lon="4.6682">
        <ele>212</ele>
        <time>2017-04-27T08:57:54Z</time>
      </trkpt>
      <trkpt lat="45.85954" lon="4.66813">
        <ele>213</ele>
        <time>2017-04-27T08:57:55Z</time>
      </trkpt>
      <trkpt lat="45.85956" lon="4.66806">
        <ele>213</ele>
        <time>2017-04-27T08:57:56Z</time>
      </trkpt>
      <trkpt lat="45.85959" lon="4.66799">
        <ele>213</ele>
        <time>2017-04-27T08:57:57Z</time>
      </trkpt>
      <trkpt lat="45.85961" lon="4.66792">
        <ele>213</ele>
        <time>2017-04-27T08:57:58Z</time>
      </trkpt>
      <trkpt lat="45.85963" lon="4.66786">
        <ele>213</ele>
        <time>2017-04-27T08:57:59Z</time>
      </trkpt>
      <trkpt lat="45.85965" lon="4.66779">
        <ele>214</ele>
        <time>2017-04-27T08:58:00Z</time>
      </trkpt>
      <trkpt lat="45.85967" lon="4.66773">
        <ele>214</ele>
        <time>2017-04-27T08:58:01Z</time>
      </trkpt>
      <trkpt lat="45.85968" lon="4.66767">
        <ele>214</ele>
        <time>2017-04-27T08:58:02Z</time>
      </trkpt>
      <trkpt lat="45.8597" lon="4.6676">
        <ele>214</ele>
        <time>2017-04-27T08:58:03Z</time>
      </trkpt>
      <trkpt lat="45.85972" lon="4.66754">
        <ele>214</ele>
        <time>2017-04-27T08:58:04Z</time>
      </trkpt>
      <trkpt lat="45.85976" lon="4.66744">
        <ele>216</ele>
        <time>2017-04-27T08:58:06Z</time>
      </trkpt>
      <trkpt lat="45.85978" lon="4.66738">
        <ele>216</ele>
        <time>2017-04-27T08:58:07Z</time>
      </trkpt>
      <trkpt lat="45.85981" lon="4.66733">
        <ele>216</ele>
        <time>2017-04-27T08:58:08Z</time>
      </trkpt>
      <trkpt lat="45.85983" lon="4.66727">
        <ele>216</ele>
        <time>2017-04-27T08:58:09Z</time>
      </trkpt>
      <trkpt lat="45.85986" lon="4.66722">
        <ele>215</ele>
        <time>2017-04-27T08:58:10Z</time>
      </trkpt>
      <trkpt lat="45.85989" lon="4.66716">
        <ele>215</ele>
        <time>2017-04-27T08:58:11Z</time>
      </trkpt>
      <trkpt lat="45.85992" lon="4.66711">
        <ele>215</ele>
        <time>2017-04-27T08:58:12Z</time>
      </trkpt>
      <trkpt lat="45.85995" lon="4.66705">
        <ele>215</ele>
        <time>2017-04-27T08:58:13Z</time>
      </trkpt>
      <trkpt lat="45.85998" lon="4.667">
        <ele>215</ele>
        <time>2017-04-27T08:58:14Z</time>
      </trkpt>
      <trkpt lat="45.86002" lon="4.66695">
        <ele>218</ele>
        <time>2017-04-27T08:58:15Z</time>
      </trkpt>
      <trkpt lat="45.86005" lon="4.6669">
        <ele>218</ele>
        <time>2017-04-27T08:58:16Z</time>
      </trkpt>
      <trkpt lat="45.86009" lon="4.66685">
        <ele>217</ele>
        <time>2017-04-27T08:58:17Z</time>
      </trkpt>
      <trkpt lat="45.86013" lon="4.6668">
        <ele>217</ele>
        <time>2017-04-27T08:58:18Z</time>
      </trkpt>
      <trkpt lat="45.86017" lon="4.66675">
        <ele>217</ele>
        <time>2017-04-27T08:58:19Z</time>
      </trkpt>
      <trkpt lat="45.86021" lon="4.6667">
        <ele>217</ele>
        <time>2017-04-27T08:58:20Z</time>
      </trkpt>
      <trkpt lat="45.86025" lon="4.66665">
        <ele>213</ele>
        <time>2017-04-27T08:58:21Z</time>
      </trkpt>
      <trkpt lat="45.86029" lon="4.66661">
        <ele>214</ele>
        <time>2017-04-27T08:58:22Z</time>
      </trkpt>
      <trkpt lat="45.86033" lon="4.66656">
        <ele>214</ele>
        <time>2017-04-27T08:58:23Z</time>
      </trkpt>
      <trkpt lat="45.86037" lon="4.66652">
        <ele>214</ele>
        <time>2017-04-27T08:58:24Z</time>
      </trkpt>
      <trkpt lat="45.86041" lon="4.66649">
        <ele>214</ele>
        <time>2017-04-27T08:58:25Z</time>
      </trkpt>
      <trkpt lat="45.86045" lon="4.66645">
        <ele>214</ele>
        <time>2017-04-27T08:58:26Z</time>
      </trkpt>
      <trkpt lat="45.86049" lon="4.66641">
        <ele>215</ele>
        <time>2017-04-27T08:58:27Z</time>
      </trkpt>
      <trkpt lat="45.86053" lon="4.66636">
        <ele>215</ele>
        <time>2017-04-27T08:58:28Z</time>
      </trkpt>
      <trkpt lat="45.86057" lon="4.66632">
        <ele>214</ele>
        <time>2017-04-27T08:58:29Z</time>
      </trkpt>
      <trkpt lat="45.86062" lon="4.66628">
        <ele>214</ele>
        <time>2017-04-27T08:58:30Z</time>
      </trkpt>
      <trkpt lat="45.86066" lon="4.66625">
        <ele>214</ele>
        <time>2017-04-27T08:58:31Z</time>
      </trkpt>
      <trkpt lat="45.8607" lon="4.66622">
        <ele>214</ele>
        <time>2017-04-27T08:58:32Z</time>
      </trkpt>
      <trkpt lat="45.86074" lon="4.66619">
        <ele>214</ele>
        <time>2017-04-27T08:58:33Z</time>
      </trkpt>
      <trkpt lat="45.86079" lon="4.66615">
        <ele>214</ele>
        <time>2017-04-27T08:58:34Z</time>
      </trkpt>
      <trkpt lat="45.86083" lon="4.66613">
        <ele>213</ele>
        <time>2017-04-27T08:58:35Z</time>
      </trkpt>
      <trkpt lat="45.86091" lon="4.66609">
        <ele>219</ele>
        <time>2017-04-27T08:58:37Z</time>
      </trkpt>
      <trkpt lat="45.86096" lon="4.66606">
        <ele>219</ele>
        <time>2017-04-27T08:58:38Z</time>
      </trkpt>
      <trkpt lat="45.861" lon="4.66604">
        <ele>219</ele>
        <time>2017-04-27T08:58:39Z</time>
      </trkpt>
      <trkpt lat="45.86104" lon="4.66601">
        <ele>219</ele>
        <time>2017-04-27T08:58:40Z</time>
      </trkpt>
      <trkpt lat="45.86108" lon="4.66599">
        <ele>220</ele>
        <time>2017-04-27T08:58:41Z</time>
      </trkpt>
      <trkpt lat="45.86113" lon="4.66597">
        <ele>220</ele>
        <time>2017-04-27T08:58:42Z</time>
      </trkpt>
      <trkpt lat="45.86117" lon="4.66594">
        <ele>221</ele>
        <time>2017-04-27T08:58:43Z</time>
      </trkpt>
      <trkpt lat="45.86121" lon="4.66591">
        <ele>221</ele>
        <time>2017-04-27T08:58:44Z</time>
      </trkpt>
      <trkpt lat="45.86126" lon="4.66587">
        <ele>221</ele>
        <time>2017-04-27T08:58:45Z</time>
      </trkpt>
      <trkpt lat="45.8613" lon="4.66583">
        <ele>214</ele>
        <time>2017-04-27T08:58:46Z</time>
      </trkpt>
      <trkpt lat="45.86134" lon="4.6658">
        <ele>215</ele>
        <time>2017-04-27T08:58:47Z</time>
      </trkpt>
      <trkpt lat="45.86139" lon="4.66576">
        <ele>215</ele>
        <time>2017-04-27T08:58:48Z</time>
      </trkpt>
      <trkpt lat="45.86143" lon="4.66571">
        <ele>216</ele>
        <time>2017-04-27T08:58:49Z</time>
      </trkpt>
      <trkpt lat="45.86147" lon="4.66567">
        <ele>216</ele>
        <time>2017-04-27T08:58:50Z</time>
      </trkpt>
      <trkpt lat="45.86151" lon="4.66562">
        <ele>216</ele>
        <time>2017-04-27T08:58:51Z</time>
      </trkpt>
      <trkpt lat="45.86155" lon="4.66557">
        <ele>215</ele>
        <time>2017-04-27T08:58:52Z</time>
      </trkpt>
      <trkpt lat="45.86159" lon="4.66552">
        <ele>215</ele>
        <time>2017-04-27T08:58:53Z</time>
      </trkpt>
      <trkpt lat="45.86163" lon="4.66547">
        <ele>214</ele>
        <time>2017-04-27T08:58:54Z</time>
      </trkpt>
      <trkpt lat="45.86167" lon="4.66542">
        <ele>214</ele>
        <time>2017-04-27T08:58:55Z</time>
      </trkpt>
      <trkpt lat="45.8617" lon="4.66535">
        <ele>219</ele>
        <time>2017-04-27T08:58:56Z</time>
      </trkpt>
      <trkpt lat="45.86174" lon="4.66529">
        <ele>218</ele>
        <time>2017-04-27T08:58:57Z</time>
      </trkpt>
      <trkpt lat="45.86178" lon="4.66522">
        <ele>217</ele>
        <time>2017-04-27T08:58:58Z</time>
      </trkpt>
      <trkpt lat="45.86181" lon="4.66516">
        <ele>217</ele>
        <time>2017-04-27T08:58:59Z</time>
      </trkpt>
      <trkpt lat="45.86185" lon="4.6651">
        <ele>216</ele>
        <time>2017-04-27T08:59:00Z</time>
      </trkpt>
      <trkpt lat="45.86188" lon="4.66503">
        <ele>216</ele>
        <time>2017-04-27T08:59:01Z</time>
      </trkpt>
      <trkpt lat="45.86191" lon="4.66497">
        <ele>212</ele>
        <time>2017-04-27T08:59:02Z</time>
      </trkpt>
      <trkpt lat="45.86194" lon="4.6649">
        <ele>213</ele>
        <time>2017-04-27T08:59:03Z</time>
      </trkpt>
      <trkpt lat="45.86197" lon="4.66483">
        <ele>213</ele>
        <time>2017-04-27T08:59:04Z</time>
      </trkpt>
      <trkpt lat="45.862" lon="4.66477">
        <ele>213</ele>
        <time>2017-04-27T08:59:05Z</time>
      </trkpt>
      <trkpt lat="45.86204" lon="4.66471">
        <ele>213</ele>
        <time>2017-04-27T08:59:06Z</time>
      </trkpt>
      <trkpt lat="45.86207" lon="4.66464">
        <ele>213</ele>
        <time>2017-04-27T08:59:07Z</time>
      </trkpt>
      <trkpt lat="45.8621" lon="4.66458">
        <ele>213</ele>
        <time>2017-04-27T08:59:08Z</time>
      </trkpt>
      <trkpt lat="45.86214" lon="4.66452">
        <ele>213</ele>
        <time>2017-04-27T08:59:09Z</time>
      </trkpt>
      <trkpt lat="45.86217" lon="4.66445">
        <ele>213</ele>
        <time>2017-04-27T08:59:10Z</time>
      </trkpt>
      <trkpt lat="45.8622" lon="4.66439">
        <ele>213</ele>
        <time>2017-04-27T08:59:11Z</time>
      </trkpt>
      <trkpt lat="45.86224" lon="4.66433">
        <ele>213</ele>
        <time>2017-04-27T08:59:12Z</time>
      </trkpt>
      <trkpt lat="45.86227" lon="4.66427">
        <ele>213</ele>
        <time>2017-04-27T08:59:13Z</time>
      </trkpt>
      <trkpt lat="45.8623" lon="4.66421">
        <ele>214</ele>
        <time>2017-04-27T08:59:14Z</time>
      </trkpt>
      <trkpt lat="45.86234" lon="4.66416">
        <ele>213</ele>
        <time>2017-04-27T08:59:15Z</time>
      </trkpt>
      <trkpt lat="45.86237" lon="4.6641">
        <ele>213</ele>
        <time>2017-04-27T08:59:16Z</time>
      </trkpt>
      <trkpt lat="45.8624" lon="4.66404">
        <ele>213</ele>
        <time>2017-04-27T08:59:17Z</time>
      </trkpt>
      <trkpt lat="45.86243" lon="4.66398">
        <ele>213</ele>
        <time>2017-04-27T08:59:18Z</time>
      </trkpt>
      <trkpt lat="45.86247" lon="4.66392">
        <ele>212</ele>
        <time>2017-04-27T08:59:19Z</time>
      </trkpt>
      <trkpt lat="45.8625" lon="4.66386">
        <ele>212</ele>
        <time>2017-04-27T08:59:20Z</time>
      </trkpt>
      <trkpt lat="45.86253" lon="4.6638">
        <ele>216</ele>
        <time>2017-04-27T08:59:21Z</time>
      </trkpt>
      <trkpt lat="45.86257" lon="4.66375">
        <ele>216</ele>
        <time>2017-04-27T08:59:22Z</time>
      </trkpt>
      <trkpt lat="45.8626" lon="4.66369">
        <ele>216</ele>
        <time>2017-04-27T08:59:23Z</time>
      </trkpt>
      <trkpt lat="45.86263" lon="4.66364">
        <ele>216</ele>
        <time>2017-04-27T08:59:24Z</time>
      </trkpt>
      <trkpt lat="45.86267" lon="4.66358">
        <ele>216</ele>
        <time>2017-04-27T08:59:25Z</time>
      </trkpt>
      <trkpt lat="45.8627" lon="4.66352">
        <ele>216</ele>
        <time>2017-04-27T08:59:26Z</time>
      </trkpt>
      <trkpt lat="45.86274" lon="4.66346">
        <ele>216</ele>
        <time>2017-04-27T08:59:27Z</time>
      </trkpt>
      <trkpt lat="45.86277" lon="4.66341">
        <ele>216</ele>
        <time>2017-04-27T08:59:28Z</time>
      </trkpt>
      <trkpt lat="45.86281" lon="4.66335">
        <ele>216</ele>
        <time>2017-04-27T08:59:29Z</time>
      </trkpt>
      <trkpt lat="45.86285" lon="4.6633">
        <ele>214</ele>
        <time>2017-04-27T08:59:30Z</time>
      </trkpt>
      <trkpt lat="45.86288" lon="4.66324">
        <ele>214</ele>
        <time>2017-04-27T08:59:31Z</time>
      </trkpt>
      <trkpt lat="45.86292" lon="4.66318">
        <ele>214</ele>
        <time>2017-04-27T08:59:32Z</time>
      </trkpt>
      <trkpt lat="45.86296" lon="4.66312">
        <ele>215</ele>
        <time>2017-04-27T08:59:33Z</time>
      </trkpt>
      <trkpt lat="45.863" lon="4.66307">
        <ele>215</ele>
        <time>2017-04-27T08:59:34Z</time>
      </trkpt>
      <trkpt lat="45.86304" lon="4.66302">
        <ele>215</ele>
        <time>2017-04-27T08:59:35Z</time>
      </trkpt>
      <trkpt lat="45.86308" lon="4.66297">
        <ele>215</ele>
        <time>2017-04-27T08:59:36Z</time>
      </trkpt>
      <trkpt lat="45.86312" lon="4.66293">
        <ele>214</ele>
        <time>2017-04-27T08:59:37Z</time>
      </trkpt>
      <trkpt lat="45.86316" lon="4.66289">
        <ele>214</ele>
        <time>2017-04-27T08:59:38Z</time>
      </trkpt>
      <trkpt lat="45.8632" lon="4.66284">
        <ele>214</ele>
        <time>2017-04-27T08:59:39Z</time>
      </trkpt>
      <trkpt lat="45.86324" lon="4.66281">
        <ele>214</ele>
        <time>2017-04-27T08:59:40Z</time>
      </trkpt>
      <trkpt lat="45.86329" lon="4.66277">
        <ele>214</ele>
        <time>2017-04-27T08:59:41Z</time>
      </trkpt>
      <trkpt lat="45.86333" lon="4.66273">
        <ele>214</ele>
        <time>2017-04-27T08:59:42Z</time>
      </trkpt>
      <trkpt lat="45.86338" lon="4.6627">
        <ele>217</ele>
        <time>2017-04-27T08:59:43Z</time>
      </trkpt>
      <trkpt lat="45.86342" lon="4.66266">
        <ele>217</ele>
        <time>2017-04-27T08:59:44Z</time>
      </trkpt>
      <trkpt lat="45.86347" lon="4.66263">
        <ele>217</ele>
        <time>2017-04-27T08:59:45Z</time>
      </trkpt>
      <trkpt lat="45.86352" lon="4.6626">
        <ele>217</ele>
        <time>2017-04-27T08:59:46Z</time>
      </trkpt>
      <trkpt lat="45.86356" lon="4.66256">
        <ele>218</ele>
        <time>2017-04-27T08:59:47Z</time>
      </trkpt>
      <trkpt lat="45.86361" lon="4.66253">
        <ele>218</ele>
        <time>2017-04-27T08:59:48Z</time>
      </trkpt>
      <trkpt lat="45.86366" lon="4.6625">
        <ele>218</ele>
        <time>2017-04-27T08:59:49Z</time>
      </trkpt>
      <trkpt lat="45.86371" lon="4.66247">
        <ele>214</ele>
        <time>2017-04-27T08:59:50Z</time>
      </trkpt>
      <trkpt lat="45.86376" lon="4.66244">
        <ele>214</ele>
        <time>2017-04-27T08:59:51Z</time>
      </trkpt>
      <trkpt lat="45.86381" lon="4.66242">
        <ele>214</ele>
        <time>2017-04-27T08:59:52Z</time>
      </trkpt>
      <trkpt lat="45.86386" lon="4.66239">
        <ele>214</ele>
        <time>2017-04-27T08:59:53Z</time>
      </trkpt>
      <trkpt lat="45.86391" lon="4.66237">
        <ele>215</ele>
        <time>2017-04-27T08:59:54Z</time>
      </trkpt>
      <trkpt lat="45.86396" lon="4.66235">
        <ele>215</ele>
        <time>2017-04-27T08:59:55Z</time>
      </trkpt>
      <trkpt lat="45.86401" lon="4.66233">
        <ele>215</ele>
        <time>2017-04-27T08:59:56Z</time>
      </trkpt>
      <trkpt lat="45.86406" lon="4.66231">
        <ele>216</ele>
        <time>2017-04-27T08:59:57Z</time>
      </trkpt>
      <trkpt lat="45.86411" lon="4.66229">
        <ele>216</ele>
        <time>2017-04-27T08:59:58Z</time>
      </trkpt>
      <trkpt lat="45.86416" lon="4.66227">
        <ele>215</ele>
        <time>2017-04-27T08:59:59Z</time>
      </trkpt>
      <trkpt lat="45.86422" lon="4.66226">
        <ele>218</ele>
        <time>2017-04-27T09:00:00Z</time>
      </trkpt>
      <trkpt lat="45.86427" lon="4.66225">
        <ele>218</ele>
        <time>2017-04-27T09:00:01Z</time>
      </trkpt>
      <trkpt lat="45.86432" lon="4.66223">
        <ele>218</ele>
        <time>2017-04-27T09:00:02Z</time>
      </trkpt>
      <trkpt lat="45.86438" lon="4.66222">
        <ele>218</ele>
        <time>2017-04-27T09:00:03Z</time>
      </trkpt>
      <trkpt lat="45.86443" lon="4.6622">
        <ele>218</ele>
        <time>2017-04-27T09:00:04Z</time>
      </trkpt>
      <trkpt lat="45.86448" lon="4.66218">
        <ele>218</ele>
        <time>2017-04-27T09:00:05Z</time>
      </trkpt>
      <trkpt lat="45.86454" lon="4.66217">
        <ele>218</ele>
        <time>2017-04-27T09:00:06Z</time>
      </trkpt>
      <trkpt lat="45.86459" lon="4.66215">
        <ele>218</ele>
        <time>2017-04-27T09:00:07Z</time>
      </trkpt>
      <trkpt lat="45.86464" lon="4.66213">
        <ele>218</ele>
        <time>2017-04-27T09:00:08Z</time>
      </trkpt>
      <trkpt lat="45.86468" lon="4.66211">
        <ele>218</ele>
        <time>2017-04-27T09:00:09Z</time>
      </trkpt>
      <trkpt lat="45.86473" lon="4.66209">
        <ele>218</ele>
        <time>2017-04-27T09:00:10Z</time>
      </trkpt>
      <trkpt lat="45.86478" lon="4.66208">
        <ele>218</ele>
        <time>2017-04-27T09:00:11Z</time>
      </trkpt>
      <trkpt lat="45.86482" lon="4.66206">
        <ele>218</ele>
        <time>2017-04-27T09:00:12Z</time>
      </trkpt>
      <trkpt lat="45.86487" lon="4.66204">
        <ele>218</ele>
        <time>2017-04-27T09:00:13Z</time>
      </trkpt>
      <trkpt lat="45.86491" lon="4.66202">
        <ele>218</ele>
        <time>2017-04-27T09:00:14Z</time>
      </trkpt>
      <trkpt lat="45.86496" lon="4.66201">
        <ele>218</ele>
        <time>2017-04-27T09:00:15Z</time>
      </trkpt>
      <trkpt lat="45.86501" lon="4.66199">
        <ele>224</ele>
        <time>2017-04-27T09:00:16Z</time>
      </trkpt>
      <trkpt lat="45.86506" lon="4.66197">
        <ele>223</ele>
        <time>2017-04-27T09:00:17Z</time>
      </trkpt>
      <trkpt lat="45.86511" lon="4.66195">
        <ele>223</ele>
        <time>2017-04-27T09:00:18Z</time>
      </trkpt>
      <trkpt lat="45.86516" lon="4.66193">
        <ele>223</ele>
        <time>2017-04-27T09:00:19Z</time>
      </trkpt>
      <trkpt lat="45.8652" lon="4.6619">
        <ele>224</ele>
        <time>2017-04-27T09:00:20Z</time>
      </trkpt>
      <trkpt lat="45.86525" lon="4.66187">
        <ele>224</ele>
        <time>2017-04-27T09:00:21Z</time>
      </trkpt>
      <trkpt lat="45.8653" lon="4.66184">
        <ele>224</ele>
        <time>2017-04-27T09:00:22Z</time>
      </trkpt>
      <trkpt lat="45.86534" lon="4.66181">
        <ele>224</ele>
        <time>2017-04-27T09:00:23Z</time>
      </trkpt>
      <trkpt lat="45.86538" lon="4.66177">
        <ele>225</ele>
        <time>2017-04-27T09:00:24Z</time>
      </trkpt>
      <trkpt lat="45.86542" lon="4.66173">
        <ele>225</ele>
        <time>2017-04-27T09:00:25Z</time>
      </trkpt>
      <trkpt lat="45.86547" lon="4.66167">
        <ele>226</ele>
        <time>2017-04-27T09:00:26Z</time>
      </trkpt>
      <trkpt lat="45.86551" lon="4.66163">
        <ele>218</ele>
        <time>2017-04-27T09:00:27Z</time>
      </trkpt>
      <trkpt lat="45.86556" lon="4.66159">
        <ele>219</ele>
        <time>2017-04-27T09:00:28Z</time>
      </trkpt>
      <trkpt lat="45.8656" lon="4.66154">
        <ele>219</ele>
        <time>2017-04-27T09:00:29Z</time>
      </trkpt>
      <trkpt lat="45.86564" lon="4.6615">
        <ele>219</ele>
        <time>2017-04-27T09:00:30Z</time>
      </trkpt>
      <trkpt lat="45.86569" lon="4.66145">
        <ele>219</ele>
        <time>2017-04-27T09:00:31Z</time>
      </trkpt>
      <trkpt lat="45.86573" lon="4.66141">
        <ele>219</ele>
        <time>2017-04-27T09:00:32Z</time>
      </trkpt>
      <trkpt lat="45.86578" lon="4.66138">
        <ele>218</ele>
        <time>2017-04-27T09:00:33Z</time>
      </trkpt>
      <trkpt lat="45.86582" lon="4.66134">
        <ele>218</ele>
        <time>2017-04-27T09:00:34Z</time>
      </trkpt>
      <trkpt lat="45.86587" lon="4.66131">
        <ele>224</ele>
        <time>2017-04-27T09:00:35Z</time>
      </trkpt>
      <trkpt lat="45.86591" lon="4.66127">
        <ele>224</ele>
        <time>2017-04-27T09:00:36Z</time>
      </trkpt>
      <trkpt lat="45.86595" lon="4.66123">
        <ele>224</ele>
        <time>2017-04-27T09:00:37Z</time>
      </trkpt>
      <trkpt lat="45.866" lon="4.6612">
        <ele>223</ele>
        <time>2017-04-27T09:00:38Z</time>
      </trkpt>
      <trkpt lat="45.86604" lon="4.66116">
        <ele>223</ele>
        <time>2017-04-27T09:00:39Z</time>
      </trkpt>
      <trkpt lat="45.86608" lon="4.66114">
        <ele>223</ele>
        <time>2017-04-27T09:00:40Z</time>
      </trkpt>
      <trkpt lat="45.86612" lon="4.66112">
        <ele>223</ele>
        <time>2017-04-27T09:00:41Z</time>
      </trkpt>
      <trkpt lat="45.86617" lon="4.6611">
        <ele>223</ele>
        <time>2017-04-27T09:00:42Z</time>
      </trkpt>
      <trkpt lat="45.86625" lon="4.66107">
        <ele>224</ele>
        <time>2017-04-27T09:00:44Z</time>
      </trkpt>
      <trkpt lat="45.8663" lon="4.66106">
        <ele>224</ele>
        <time>2017-04-27T09:00:45Z</time>
      </trkpt>
      <trkpt lat="45.86634" lon="4.66104">
        <ele>224</ele>
        <time>2017-04-27T09:00:46Z</time>
      </trkpt>
      <trkpt lat="45.86639" lon="4.66102">
        <ele>224</ele>
        <time>2017-04-27T09:00:47Z</time>
      </trkpt>
      <trkpt lat="45.86643" lon="4.661">
        <ele>224</ele>
        <time>2017-04-27T09:00:48Z</time>
      </trkpt>
      <trkpt lat="45.86648" lon="4.66098">
        <ele>223</ele>
        <time>2017-04-27T09:00:49Z</time>
      </trkpt>
      <trkpt lat="45.86653" lon="4.66096">
        <ele>223</ele>
        <time>2017-04-27T09:00:50Z</time>
      </trkpt>
      <trkpt lat="45.86658" lon="4.66094">
        <ele>222</ele>
        <time>2017-04-27T09:00:51Z</time>
      </trkpt>
      <trkpt lat="45.86663" lon="4.66091">
        <ele>221</ele>
        <time>2017-04-27T09:00:52Z</time>
      </trkpt>
      <trkpt lat="45.86668" lon="4.6609">
        <ele>224</ele>
        <time>2017-04-27T09:00:53Z</time>
      </trkpt>
      <trkpt lat="45.86673" lon="4.66088">
        <ele>225</ele>
        <time>2017-04-27T09:00:54Z</time>
      </trkpt>
      <trkpt lat="45.86678" lon="4.66086">
        <ele>227</ele>
        <time>2017-04-27T09:00:55Z</time>
      </trkpt>
      <trkpt lat="45.86683" lon="4.66084">
        <ele>229</ele>
        <time>2017-04-27T09:00:56Z</time>
      </trkpt>
      <trkpt lat="45.86687" lon="4.66082">
        <ele>221</ele>
        <time>2017-04-27T09:00:57Z</time>
      </trkpt>
      <trkpt lat="45.86692" lon="4.6608">
        <ele>222</ele>
        <time>2017-04-27T09:00:58Z</time>
      </trkpt>
      <trkpt lat="45.86696" lon="4.66078">
        <ele>222</ele>
        <time>2017-04-27T09:00:59Z</time>
      </trkpt>
      <trkpt lat="45.86701" lon="4.66075">
        <ele>223</ele>
        <time>2017-04-27T09:01:00Z</time>
      </trkpt>
      <trkpt lat="45.86706" lon="4.66072">
        <ele>223</ele>
        <time>2017-04-27T09:01:01Z</time>
      </trkpt>
      <trkpt lat="45.8671" lon="4.6607">
        <ele>224</ele>
        <time>2017-04-27T09:01:02Z</time>
      </trkpt>
      <trkpt lat="45.86715" lon="4.66067">
        <ele>224</ele>
        <time>2017-04-27T09:01:03Z</time>
      </trkpt>
      <trkpt lat="45.86719" lon="4.66064">
        <ele>225</ele>
        <time>2017-04-27T09:01:04Z</time>
      </trkpt>
      <trkpt lat="45.86723" lon="4.66061">
        <ele>225</ele>
        <time>2017-04-27T09:01:05Z</time>
      </trkpt>
      <trkpt lat="45.86727" lon="4.66058">
        <ele>225</ele>
        <time>2017-04-27T09:01:06Z</time>
      </trkpt>
      <trkpt lat="45.86731" lon="4.66055">
        <ele>225</ele>
        <time>2017-04-27T09:01:07Z</time>
      </trkpt>
      <trkpt lat="45.86736" lon="4.66051">
        <ele>225</ele>
        <time>2017-04-27T09:01:08Z</time>
      </trkpt>
      <trkpt lat="45.8674" lon="4.66047">
        <ele>224</ele>
        <time>2017-04-27T09:01:09Z</time>
      </trkpt>
      <trkpt lat="45.86744" lon="4.66043">
        <ele>224</ele>
        <time>2017-04-27T09:01:10Z</time>
      </trkpt>
      <trkpt lat="45.86749" lon="4.66039">
        <ele>223</ele>
        <time>2017-04-27T09:01:11Z</time>
      </trkpt>
      <trkpt lat="45.86753" lon="4.66035">
        <ele>232</ele>
        <time>2017-04-27T09:01:12Z</time>
      </trkpt>
      <trkpt lat="45.86757" lon="4.66031">
        <ele>232</ele>
        <time>2017-04-27T09:01:13Z</time>
      </trkpt>
      <trkpt lat="45.86761" lon="4.66027">
        <ele>231</ele>
        <time>2017-04-27T09:01:14Z</time>
      </trkpt>
      <trkpt lat="45.86764" lon="4.66024">
        <ele>231</ele>
        <time>2017-04-27T09:01:15Z</time>
      </trkpt>
      <trkpt lat="45.86768" lon="4.6602">
        <ele>230</ele>
        <time>2017-04-27T09:01:16Z</time>
      </trkpt>
      <trkpt lat="45.86772" lon="4.66016">
        <ele>230</ele>
        <time>2017-04-27T09:01:17Z</time>
      </trkpt>
      <trkpt lat="45.86776" lon="4.66012">
        <ele>231</ele>
        <time>2017-04-27T09:01:18Z</time>
      </trkpt>
      <trkpt lat="45.86779" lon="4.66008">
        <ele>231</ele>
        <time>2017-04-27T09:01:19Z</time>
      </trkpt>
      <trkpt lat="45.86782" lon="4.66003">
        <ele>231</ele>
        <time>2017-04-27T09:01:20Z</time>
      </trkpt>
      <trkpt lat="45.86786" lon="4.65998">
        <ele>222</ele>
        <time>2017-04-27T09:01:21Z</time>
      </trkpt>
      <trkpt lat="45.8679" lon="4.65993">
        <ele>223</ele>
        <time>2017-04-27T09:01:22Z</time>
      </trkpt>
      <trkpt lat="45.86793" lon="4.65988">
        <ele>223</ele>
        <time>2017-04-27T09:01:23Z</time>
      </trkpt>
      <trkpt lat="45.86797" lon="4.65983">
        <ele>223</ele>
        <time>2017-04-27T09:01:24Z</time>
      </trkpt>
      <trkpt lat="45.868" lon="4.65977">
        <ele>223</ele>
        <time>2017-04-27T09:01:25Z</time>
      </trkpt>
      <trkpt lat="45.86804" lon="4.65972">
        <ele>223</ele>
        <time>2017-04-27T09:01:26Z</time>
      </trkpt>
      <trkpt lat="45.86807" lon="4.65967">
        <ele>223</ele>
        <time>2017-04-27T09:01:27Z</time>
      </trkpt>
      <trkpt lat="45.8681" lon="4.6596">
        <ele>223</ele>
        <time>2017-04-27T09:01:28Z</time>
      </trkpt>
      <trkpt lat="45.86813" lon="4.65954">
        <ele>223</ele>
        <time>2017-04-27T09:01:29Z</time>
      </trkpt>
      <trkpt lat="45.86816" lon="4.65948">
        <ele>222</ele>
        <time>2017-04-27T09:01:30Z</time>
      </trkpt>
      <trkpt lat="45.86818" lon="4.65943">
        <ele>222</ele>
        <time>2017-04-27T09:01:31Z</time>
      </trkpt>
      <trkpt lat="45.86821" lon="4.65938">
        <ele>222</ele>
        <time>2017-04-27T09:01:32Z</time>
      </trkpt>
      <trkpt lat="45.86824" lon="4.65933">
        <ele>222</ele>
        <time>2017-04-27T09:01:33Z</time>
      </trkpt>
      <trkpt lat="45.86829" lon="4.65923">
        <ele>221</ele>
        <time>2017-04-27T09:01:35Z</time>
      </trkpt>
      <trkpt lat="45.86832" lon="4.65918">
        <ele>221</ele>
        <time>2017-04-27T09:01:36Z</time>
      </trkpt>
      <trkpt lat="45.86838" lon="4.65908">
        <ele>224</ele>
        <time>2017-04-27T09:01:38Z</time>
      </trkpt>
      <trkpt lat="45.86841" lon="4.65903">
        <ele>225</ele>
        <time>2017-04-27T09:01:39Z</time>
      </trkpt>
      <trkpt lat="45.86844" lon="4.65897">
        <ele>226</ele>
        <time>2017-04-27T09:01:40Z</time>
      </trkpt>
      <trkpt lat="45.86847" lon="4.65892">
        <ele>226</ele>
        <time>2017-04-27T09:01:41Z</time>
      </trkpt>
      <trkpt lat="45.86849" lon="4.65886">
        <ele>226</ele>
        <time>2017-04-27T09:01:42Z</time>
      </trkpt>
      <trkpt lat="45.86852" lon="4.65881">
        <ele>227</ele>
        <time>2017-04-27T09:01:43Z</time>
      </trkpt>
      <trkpt lat="45.86854" lon="4.65875">
        <ele>226</ele>
        <time>2017-04-27T09:01:44Z</time>
      </trkpt>
      <trkpt lat="45.86857" lon="4.6587">
        <ele>226</ele>
        <time>2017-04-27T09:01:45Z</time>
      </trkpt>
      <trkpt lat="45.86859" lon="4.65864">
        <ele>226</ele>
        <time>2017-04-27T09:01:46Z</time>
      </trkpt>
      <trkpt lat="45.86862" lon="4.65858">
        <ele>226</ele>
        <time>2017-04-27T09:01:47Z</time>
      </trkpt>
      <trkpt lat="45.86864" lon="4.65852">
        <ele>226</ele>
        <time>2017-04-27T09:01:48Z</time>
      </trkpt>
      <trkpt lat="45.86866" lon="4.65846">
        <ele>226</ele>
        <time>2017-04-27T09:01:49Z</time>
      </trkpt>
      <trkpt lat="45.86868" lon="4.6584">
        <ele>226</ele>
        <time>2017-04-27T09:01:50Z</time>
      </trkpt>
      <trkpt lat="45.8687" lon="4.65833">
        <ele>222</ele>
        <time>2017-04-27T09:01:51Z</time>
      </trkpt>
      <trkpt lat="45.86872" lon="4.65826">
        <ele>222</ele>
        <time>2017-04-27T09:01:52Z</time>
      </trkpt>
      <trkpt lat="45.86875" lon="4.65819">
        <ele>222</ele>
        <time>2017-04-27T09:01:53Z</time>
      </trkpt>
      <trkpt lat="45.86877" lon="4.65812">
        <ele>223</ele>
        <time>2017-04-27T09:01:54Z</time>
      </trkpt>
      <trkpt lat="45.86879" lon="4.65805">
        <ele>223</ele>
        <time>2017-04-27T09:01:55Z</time>
      </trkpt>
      <trkpt lat="45.86881" lon="4.65798">
        <ele>223</ele>
        <time>2017-04-27T09:01:56Z</time>
      </trkpt>
      <trkpt lat="45.86883" lon="4.65792">
        <ele>223</ele>
        <time>2017-04-27T09:01:57Z</time>
      </trkpt>
      <trkpt lat="45.86885" lon="4.65786">
        <ele>223</ele>
        <time>2017-04-27T09:01:58Z</time>
      </trkpt>
      <trkpt lat="45.86887" lon="4.65779">
        <ele>223</ele>
        <time>2017-04-27T09:01:59Z</time>
      </trkpt>
      <trkpt lat="45.86889" lon="4.65772">
        <ele>224</ele>
        <time>2017-04-27T09:02:00Z</time>
      </trkpt>
      <trkpt lat="45.8689" lon="4.65765">
        <ele>224</ele>
        <time>2017-04-27T09:02:01Z</time>
      </trkpt>
      <trkpt lat="45.8689" lon="4.65757">
        <ele>224</ele>
        <time>2017-04-27T09:02:02Z</time>
      </trkpt>
      <trkpt lat="45.86891" lon="4.65749">
        <ele>224</ele>
        <time>2017-04-27T09:02:03Z</time>
      </trkpt>
      <trkpt lat="45.86892" lon="4.65741">
        <ele>224</ele>
        <time>2017-04-27T09:02:04Z</time>
      </trkpt>
      <trkpt lat="45.86892" lon="4.65733">
        <ele>223</ele>
        <time>2017-04-27T09:02:05Z</time>
      </trkpt>
      <trkpt lat="45.86893" lon="4.65725">
        <ele>223</ele>
        <time>2017-04-27T09:02:06Z</time>
      </trkpt>
      <trkpt lat="45.86893" lon="4.65717">
        <ele>223</ele>
        <time>2017-04-27T09:02:07Z</time>
      </trkpt>
      <trkpt lat="45.86893" lon="4.65709">
        <ele>223</ele>
        <time>2017-04-27T09:02:08Z</time>
      </trkpt>
      <trkpt lat="45.86893" lon="4.65701">
        <ele>223</ele>
        <time>2017-04-27T09:02:09Z</time>
      </trkpt>
      <trkpt lat="45.86894" lon="4.65693">
        <ele>223</ele>
        <time>2017-04-27T09:02:10Z</time>
      </trkpt>
      <trkpt lat="45.86894" lon="4.65685">
        <ele>224</ele>
        <time>2017-04-27T09:02:11Z</time>
      </trkpt>
      <trkpt lat="45.86894" lon="4.65678">
        <ele>224</ele>
        <time>2017-04-27T09:02:12Z</time>
      </trkpt>
      <trkpt lat="45.86894" lon="4.6567">
        <ele>225</ele>
        <time>2017-04-27T09:02:13Z</time>
      </trkpt>
      <trkpt lat="45.86894" lon="4.65662">
        <ele>224</ele>
        <time>2017-04-27T09:02:14Z</time>
      </trkpt>
      <trkpt lat="45.86895" lon="4.65655">
        <ele>224</ele>
        <time>2017-04-27T09:02:15Z</time>
      </trkpt>
      <trkpt lat="45.86895" lon="4.65647">
        <ele>224</ele>
        <time>2017-04-27T09:02:16Z</time>
      </trkpt>
      <trkpt lat="45.86896" lon="4.6564">
        <ele>223</ele>
        <time>2017-04-27T09:02:17Z</time>
      </trkpt>
      <trkpt lat="45.86897" lon="4.65632">
        <ele>223</ele>
        <time>2017-04-27T09:02:18Z</time>
      </trkpt>
      <trkpt lat="45.86899" lon="4.65624">
        <ele>223</ele>
        <time>2017-04-27T09:02:19Z</time>
      </trkpt>
      <trkpt lat="45.869" lon="4.65616">
        <ele>223</ele>
        <time>2017-04-27T09:02:20Z</time>
      </trkpt>
      <trkpt lat="45.86901" lon="4.65609">
        <ele>223</ele>
        <time>2017-04-27T09:02:21Z</time>
      </trkpt>
      <trkpt lat="45.86903" lon="4.65601">
        <ele>223</ele>
        <time>2017-04-27T09:02:22Z</time>
      </trkpt>
      <trkpt lat="45.86904" lon="4.65594">
        <ele>224</ele>
        <time>2017-04-27T09:02:23Z</time>
      </trkpt>
      <trkpt lat="45.86906" lon="4.65586">
        <ele>224</ele>
        <time>2017-04-27T09:02:24Z</time>
      </trkpt>
      <trkpt lat="45.86908" lon="4.65579">
        <ele>223</ele>
        <time>2017-04-27T09:02:25Z</time>
      </trkpt>
      <trkpt lat="45.8691" lon="4.65572">
        <ele>222</ele>
        <time>2017-04-27T09:02:26Z</time>
      </trkpt>
      <trkpt lat="45.86912" lon="4.65565">
        <ele>221</ele>
        <time>2017-04-27T09:02:27Z</time>
      </trkpt>
      <trkpt lat="45.86914" lon="4.65558">
        <ele>220</ele>
        <time>2017-04-27T09:02:28Z</time>
      </trkpt>
      <trkpt lat="45.86917" lon="4.65551">
        <ele>230</ele>
        <time>2017-04-27T09:02:29Z</time>
      </trkpt>
      <trkpt lat="45.86921" lon="4.65545">
        <ele>230</ele>
        <time>2017-04-27T09:02:30Z</time>
      </trkpt>
      <trkpt lat="45.86924" lon="4.65538">
        <ele>229</ele>
        <time>2017-04-27T09:02:31Z</time>
      </trkpt>
      <trkpt lat="45.86927" lon="4.65532">
        <ele>229</ele>
        <time>2017-04-27T09:02:32Z</time>
      </trkpt>
      <trkpt lat="45.8693" lon="4.65525">
        <ele>228</ele>
        <time>2017-04-27T09:02:33Z</time>
      </trkpt>
      <trkpt lat="45.86933" lon="4.65518">
        <ele>228</ele>
        <time>2017-04-27T09:02:34Z</time>
      </trkpt>
      <trkpt lat="45.86936" lon="4.65511">
        <ele>227</ele>
        <time>2017-04-27T09:02:35Z</time>
      </trkpt>
      <trkpt lat="45.8694" lon="4.65505">
        <ele>228</ele>
        <time>2017-04-27T09:02:36Z</time>
      </trkpt>
      <trkpt lat="45.86943" lon="4.65499">
        <ele>222</ele>
        <time>2017-04-27T09:02:37Z</time>
      </trkpt>
      <trkpt lat="45.86946" lon="4.65493">
        <ele>222</ele>
        <time>2017-04-27T09:02:38Z</time>
      </trkpt>
      <trkpt lat="45.8695" lon="4.65487">
        <ele>222</ele>
        <time>2017-04-27T09:02:39Z</time>
      </trkpt>
      <trkpt lat="45.86953" lon="4.65481">
        <ele>223</ele>
        <time>2017-04-27T09:02:40Z</time>
      </trkpt>
      <trkpt lat="45.86957" lon="4.65475">
        <ele>223</ele>
        <time>2017-04-27T09:02:41Z</time>
      </trkpt>
      <trkpt lat="45.8696" lon="4.65469">
        <ele>223</ele>
        <time>2017-04-27T09:02:42Z</time>
      </trkpt>
      <trkpt lat="45.86964" lon="4.65464">
        <ele>223</ele>
        <time>2017-04-27T09:02:43Z</time>
      </trkpt>
      <trkpt lat="45.86968" lon="4.65459">
        <ele>223</ele>
        <time>2017-04-27T09:02:44Z</time>
      </trkpt>
      <trkpt lat="45.86971" lon="4.65454">
        <ele>223</ele>
        <time>2017-04-27T09:02:45Z</time>
      </trkpt>
      <trkpt lat="45.86975" lon="4.65449">
        <ele>222</ele>
        <time>2017-04-27T09:02:46Z</time>
      </trkpt>
      <trkpt lat="45.86979" lon="4.65444">
        <ele>222</ele>
        <time>2017-04-27T09:02:47Z</time>
      </trkpt>
      <trkpt lat="45.86983" lon="4.65439">
        <ele>222</ele>
        <time>2017-04-27T09:02:48Z</time>
      </trkpt>
      <trkpt lat="45.86987" lon="4.65433">
        <ele>222</ele>
        <time>2017-04-27T09:02:49Z</time>
      </trkpt>
      <trkpt lat="45.86991" lon="4.65428">
        <ele>222</ele>
        <time>2017-04-27T09:02:50Z</time>
      </trkpt>
      <trkpt lat="45.86995" lon="4.65423">
        <ele>221</ele>
        <time>2017-04-27T09:02:51Z</time>
      </trkpt>
      <trkpt lat="45.87" lon="4.65419">
        <ele>221</ele>
        <time>2017-04-27T09:02:52Z</time>
      </trkpt>
      <trkpt lat="45.87004" lon="4.65414">
        <ele>222</ele>
        <time>2017-04-27T09:02:53Z</time>
      </trkpt>
      <trkpt lat="45.87008" lon="4.6541">
        <ele>222</ele>
        <time>2017-04-27T09:02:54Z</time>
      </trkpt>
      <trkpt lat="45.87012" lon="4.65404">
        <ele>223</ele>
        <time>2017-04-27T09:02:55Z</time>
      </trkpt>
      <trkpt lat="45.87016" lon="4.65399">
        <ele>223</ele>
        <time>2017-04-27T09:02:56Z</time>
      </trkpt>
      <trkpt lat="45.8702" lon="4.65394">
        <ele>224</ele>
        <time>2017-04-27T09:02:57Z</time>
      </trkpt>
      <trkpt lat="45.87025" lon="4.65388">
        <ele>224</ele>
        <time>2017-04-27T09:02:58Z</time>
      </trkpt>
      <trkpt lat="45.87029" lon="4.65382">
        <ele>224</ele>
        <time>2017-04-27T09:02:59Z</time>
      </trkpt>
      <trkpt lat="45.87033" lon="4.65376">
        <ele>224</ele>
        <time>2017-04-27T09:03:00Z</time>
      </trkpt>
      <trkpt lat="45.87038" lon="4.6537">
        <ele>224</ele>
        <time>2017-04-27T09:03:01Z</time>
      </trkpt>
      <trkpt lat="45.87042" lon="4.65364">
        <ele>224</ele>
        <time>2017-04-27T09:03:02Z</time>
      </trkpt>
      <trkpt lat="45.87046" lon="4.65358">
        <ele>224</ele>
        <time>2017-04-27T09:03:03Z</time>
      </trkpt>
      <trkpt lat="45.87049" lon="4.65352">
        <ele>224</ele>
        <time>2017-04-27T09:03:04Z</time>
      </trkpt>
      <trkpt lat="45.87052" lon="4.65346">
        <ele>224</ele>
        <time>2017-04-27T09:03:05Z</time>
      </trkpt>
      <trkpt lat="45.87056" lon="4.65339">
        <ele>224</ele>
        <time>2017-04-27T09:03:06Z</time>
      </trkpt>
      <trkpt lat="45.87059" lon="4.65333">
        <ele>218</ele>
        <time>2017-04-27T09:03:07Z</time>
      </trkpt>
      <trkpt lat="45.87062" lon="4.65326">
        <ele>219</ele>
        <time>2017-04-27T09:03:08Z</time>
      </trkpt>
      <trkpt lat="45.87065" lon="4.6532">
        <ele>219</ele>
        <time>2017-04-27T09:03:09Z</time>
      </trkpt>
      <trkpt lat="45.87068" lon="4.65313">
        <ele>218</ele>
        <time>2017-04-27T09:03:10Z</time>
      </trkpt>
      <trkpt lat="45.87071" lon="4.65307">
        <ele>218</ele>
        <time>2017-04-27T09:03:11Z</time>
      </trkpt>
      <trkpt lat="45.87074" lon="4.653">
        <ele>217</ele>
        <time>2017-04-27T09:03:12Z</time>
      </trkpt>
      <trkpt lat="45.87077" lon="4.65294">
        <ele>217</ele>
        <time>2017-04-27T09:03:13Z</time>
      </trkpt>
      <trkpt lat="45.87079" lon="4.65288">
        <ele>216</ele>
        <time>2017-04-27T09:03:14Z</time>
      </trkpt>
      <trkpt lat="45.87082" lon="4.65281">
        <ele>216</ele>
        <time>2017-04-27T09:03:15Z</time>
      </trkpt>
      <trkpt lat="45.87085" lon="4.65275">
        <ele>225</ele>
        <time>2017-04-27T09:03:16Z</time>
      </trkpt>
      <trkpt lat="45.87088" lon="4.65269">
        <ele>223</ele>
        <time>2017-04-27T09:03:17Z</time>
      </trkpt>
      <trkpt lat="45.87091" lon="4.65263">
        <ele>222</ele>
        <time>2017-04-27T09:03:18Z</time>
      </trkpt>
      <trkpt lat="45.87093" lon="4.65257">
        <ele>221</ele>
        <time>2017-04-27T09:03:19Z</time>
      </trkpt>
      <trkpt lat="45.87096" lon="4.65252">
        <ele>221</ele>
        <time>2017-04-27T09:03:20Z</time>
      </trkpt>
      <trkpt lat="45.87099" lon="4.65246">
        <ele>217</ele>
        <time>2017-04-27T09:03:21Z</time>
      </trkpt>
      <trkpt lat="45.87104" lon="4.65236">
        <ele>218</ele>
        <time>2017-04-27T09:03:23Z</time>
      </trkpt>
      <trkpt lat="45.87108" lon="4.65232">
        <ele>219</ele>
        <time>2017-04-27T09:03:24Z</time>
      </trkpt>
      <trkpt lat="45.87111" lon="4.65227">
        <ele>219</ele>
        <time>2017-04-27T09:03:25Z</time>
      </trkpt>
      <trkpt lat="45.87114" lon="4.65222">
        <ele>220</ele>
        <time>2017-04-27T09:03:26Z</time>
      </trkpt>
      <trkpt lat="45.87121" lon="4.65213">
        <ele>220</ele>
        <time>2017-04-27T09:03:28Z</time>
      </trkpt>
      <trkpt lat="45.87124" lon="4.65209">
        <ele>220</ele>
        <time>2017-04-27T09:03:29Z</time>
      </trkpt>
      <trkpt lat="45.87128" lon="4.65205">
        <ele>220</ele>
        <time>2017-04-27T09:03:30Z</time>
      </trkpt>
      <trkpt lat="45.87132" lon="4.652">
        <ele>220</ele>
        <time>2017-04-27T09:03:31Z</time>
      </trkpt>
      <trkpt lat="45.87136" lon="4.65195">
        <ele>220</ele>
        <time>2017-04-27T09:03:32Z</time>
      </trkpt>
      <trkpt lat="45.8714" lon="4.6519">
        <ele>220</ele>
        <time>2017-04-27T09:03:33Z</time>
      </trkpt>
      <trkpt lat="45.87144" lon="4.65185">
        <ele>220</ele>
        <time>2017-04-27T09:03:34Z</time>
      </trkpt>
      <trkpt lat="45.87149" lon="4.65181">
        <ele>220</ele>
        <time>2017-04-27T09:03:35Z</time>
      </trkpt>
      <trkpt lat="45.87153" lon="4.65178">
        <ele>220</ele>
        <time>2017-04-27T09:03:36Z</time>
      </trkpt>
      <trkpt lat="45.87158" lon="4.65174">
        <ele>220</ele>
        <time>2017-04-27T09:03:37Z</time>
      </trkpt>
      <trkpt lat="45.87162" lon="4.65169">
        <ele>220</ele>
        <time>2017-04-27T09:03:38Z</time>
      </trkpt>
      <trkpt lat="45.87166" lon="4.65165">
        <ele>220</ele>
        <time>2017-04-27T09:03:39Z</time>
      </trkpt>
      <trkpt lat="45.87171" lon="4.65161">
        <ele>221</ele>
        <time>2017-04-27T09:03:40Z</time>
      </trkpt>
      <trkpt lat="45.87176" lon="4.65157">
        <ele>221</ele>
        <time>2017-04-27T09:03:41Z</time>
      </trkpt>
      <trkpt lat="45.87181" lon="4.65152">
        <ele>221</ele>
        <time>2017-04-27T09:03:42Z</time>
      </trkpt>
      <trkpt lat="45.87186" lon="4.65147">
        <ele>222</ele>
        <time>2017-04-27T09:03:43Z</time>
      </trkpt>
      <trkpt lat="45.8719" lon="4.65143">
        <ele>222</ele>
        <time>2017-04-27T09:03:44Z</time>
      </trkpt>
      <trkpt lat="45.87195" lon="4.65139">
        <ele>222</ele>
        <time>2017-04-27T09:03:45Z</time>
      </trkpt>
      <trkpt lat="45.87199" lon="4.65135">
        <ele>222</ele>
        <time>2017-04-27T09:03:46Z</time>
      </trkpt>
      <trkpt lat="45.87204" lon="4.65132">
        <ele>222</ele>
        <time>2017-04-27T09:03:47Z</time>
      </trkpt>
      <trkpt lat="45.87208" lon="4.65129">
        <ele>222</ele>
        <time>2017-04-27T09:03:48Z</time>
      </trkpt>
      <trkpt lat="45.87212" lon="4.65125">
        <ele>222</ele>
        <time>2017-04-27T09:03:49Z</time>
      </trkpt>
      <trkpt lat="45.87216" lon="4.65121">
        <ele>222</ele>
        <time>2017-04-27T09:03:50Z</time>
      </trkpt>
      <trkpt lat="45.8722" lon="4.65118">
        <ele>222</ele>
        <time>2017-04-27T09:03:51Z</time>
      </trkpt>
      <trkpt lat="45.87224" lon="4.65114">
        <ele>222</ele>
        <time>2017-04-27T09:03:52Z</time>
      </trkpt>
      <trkpt lat="45.87228" lon="4.6511">
        <ele>222</ele>
        <time>2017-04-27T09:03:53Z</time>
      </trkpt>
      <trkpt lat="45.87232" lon="4.65106">
        <ele>221</ele>
        <time>2017-04-27T09:03:54Z</time>
      </trkpt>
      <trkpt lat="45.87236" lon="4.65102">
        <ele>221</ele>
        <time>2017-04-27T09:03:55Z</time>
      </trkpt>
      <trkpt lat="45.8724" lon="4.65098">
        <ele>220</ele>
        <time>2017-04-27T09:03:56Z</time>
      </trkpt>
      <trkpt lat="45.87243" lon="4.65094">
        <ele>220</ele>
        <time>2017-04-27T09:03:57Z</time>
      </trkpt>
      <trkpt lat="45.87247" lon="4.6509">
        <ele>219</ele>
        <time>2017-04-27T09:03:58Z</time>
      </trkpt>
      <trkpt lat="45.87251" lon="4.65086">
        <ele>220</ele>
        <time>2017-04-27T09:03:59Z</time>
      </trkpt>
      <trkpt lat="45.87256" lon="4.65081">
        <ele>218</ele>
        <time>2017-04-27T09:04:00Z</time>
      </trkpt>
      <trkpt lat="45.8726" lon="4.65077">
        <ele>219</ele>
        <time>2017-04-27T09:04:01Z</time>
      </trkpt>
      <trkpt lat="45.87267" lon="4.6507">
        <ele>219</ele>
        <time>2017-04-27T09:04:03Z</time>
      </trkpt>
      <trkpt lat="45.87271" lon="4.65066">
        <ele>219</ele>
        <time>2017-04-27T09:04:04Z</time>
      </trkpt>
      <trkpt lat="45.87274" lon="4.65062">
        <ele>220</ele>
        <time>2017-04-27T09:04:05Z</time>
      </trkpt>
      <trkpt lat="45.87278" lon="4.65057">
        <ele>220</ele>
        <time>2017-04-27T09:04:06Z</time>
      </trkpt>
      <trkpt lat="45.87282" lon="4.65053">
        <ele>220</ele>
        <time>2017-04-27T09:04:07Z</time>
      </trkpt>
      <trkpt lat="45.87286" lon="4.65048">
        <ele>220</ele>
        <time>2017-04-27T09:04:08Z</time>
      </trkpt>
      <trkpt lat="45.8729" lon="4.65043">
        <ele>220</ele>
        <time>2017-04-27T09:04:09Z</time>
      </trkpt>
      <trkpt lat="45.87294" lon="4.65038">
        <ele>220</ele>
        <time>2017-04-27T09:04:10Z</time>
      </trkpt>
      <trkpt lat="45.87298" lon="4.65033">
        <ele>220</ele>
        <time>2017-04-27T09:04:11Z</time>
      </trkpt>
      <trkpt lat="45.87302" lon="4.65028">
        <ele>219</ele>
        <time>2017-04-27T09:04:12Z</time>
      </trkpt>
      <trkpt lat="45.87306" lon="4.65022">
        <ele>219</ele>
        <time>2017-04-27T09:04:13Z</time>
      </trkpt>
      <trkpt lat="45.87309" lon="4.65016">
        <ele>219</ele>
        <time>2017-04-27T09:04:14Z</time>
      </trkpt>
      <trkpt lat="45.87313" lon="4.65009">
        <ele>219</ele>
        <time>2017-04-27T09:04:15Z</time>
      </trkpt>
      <trkpt lat="45.87316" lon="4.65003">
        <ele>219</ele>
        <time>2017-04-27T09:04:16Z</time>
      </trkpt>
      <trkpt lat="45.87318" lon="4.64995">
        <ele>216</ele>
        <time>2017-04-27T09:04:17Z</time>
      </trkpt>
      <trkpt lat="45.87321" lon="4.64989">
        <ele>215</ele>
        <time>2017-04-27T09:04:18Z</time>
      </trkpt>
      <trkpt lat="45.87324" lon="4.64982">
        <ele>215</ele>
        <time>2017-04-27T09:04:19Z</time>
      </trkpt>
      <trkpt lat="45.87327" lon="4.64976">
        <ele>215</ele>
        <time>2017-04-27T09:04:20Z</time>
      </trkpt>
      <trkpt lat="45.8733" lon="4.6497">
        <ele>214</ele>
        <time>2017-04-27T09:04:21Z</time>
      </trkpt>
      <trkpt lat="45.87333" lon="4.64964">
        <ele>214</ele>
        <time>2017-04-27T09:04:22Z</time>
      </trkpt>
      <trkpt lat="45.87337" lon="4.64957">
        <ele>218</ele>
        <time>2017-04-27T09:04:23Z</time>
      </trkpt>
      <trkpt lat="45.87341" lon="4.64951">
        <ele>218</ele>
        <time>2017-04-27T09:04:24Z</time>
      </trkpt>
      <trkpt lat="45.87344" lon="4.64945">
        <ele>217</ele>
        <time>2017-04-27T09:04:25Z</time>
      </trkpt>
      <trkpt lat="45.87348" lon="4.64939">
        <ele>217</ele>
        <time>2017-04-27T09:04:26Z</time>
      </trkpt>
      <trkpt lat="45.87352" lon="4.64933">
        <ele>217</ele>
        <time>2017-04-27T09:04:27Z</time>
      </trkpt>
      <trkpt lat="45.87356" lon="4.64927">
        <ele>217</ele>
        <time>2017-04-27T09:04:28Z</time>
      </trkpt>
      <trkpt lat="45.87359" lon="4.64922">
        <ele>217</ele>
        <time>2017-04-27T09:04:29Z</time>
      </trkpt>
      <trkpt lat="45.87362" lon="4.64917">
        <ele>214</ele>
        <time>2017-04-27T09:04:30Z</time>
      </trkpt>
      <trkpt lat="45.87366" lon="4.64912">
        <ele>214</ele>
        <time>2017-04-27T09:04:31Z</time>
      </trkpt>
      <trkpt lat="45.87369" lon="4.64907">
        <ele>215</ele>
        <time>2017-04-27T09:04:32Z</time>
      </trkpt>
      <trkpt lat="45.87372" lon="4.64903">
        <ele>215</ele>
        <time>2017-04-27T09:04:33Z</time>
      </trkpt>
      <trkpt lat="45.87376" lon="4.64899">
        <ele>215</ele>
        <time>2017-04-27T09:04:34Z</time>
      </trkpt>
      <trkpt lat="45.87379" lon="4.64895">
        <ele>215</ele>
        <time>2017-04-27T09:04:35Z</time>
      </trkpt>
      <trkpt lat="45.87383" lon="4.6489">
        <ele>215</ele>
        <time>2017-04-27T09:04:36Z</time>
      </trkpt>
      <trkpt lat="45.87386" lon="4.64885">
        <ele>215</ele>
        <time>2017-04-27T09:04:37Z</time>
      </trkpt>
      <trkpt lat="45.87389" lon="4.64879">
        <ele>215</ele>
        <time>2017-04-27T09:04:38Z</time>
      </trkpt>
      <trkpt lat="45.87392" lon="4.64874">
        <ele>215</ele>
        <time>2017-04-27T09:04:39Z</time>
      </trkpt>
      <trkpt lat="45.87396" lon="4.6487">
        <ele>215</ele>
        <time>2017-04-27T09:04:40Z</time>
      </trkpt>
      <trkpt lat="45.874" lon="4.64865">
        <ele>215</ele>
        <time>2017-04-27T09:04:41Z</time>
      </trkpt>
      <trkpt lat="45.87404" lon="4.6486">
        <ele>215</ele>
        <time>2017-04-27T09:04:42Z</time>
      </trkpt>
      <trkpt lat="45.87408" lon="4.64855">
        <ele>215</ele>
        <time>2017-04-27T09:04:43Z</time>
      </trkpt>
      <trkpt lat="45.87412" lon="4.6485">
        <ele>215</ele>
        <time>2017-04-27T09:04:44Z</time>
      </trkpt>
      <trkpt lat="45.87416" lon="4.64846">
        <ele>215</ele>
        <time>2017-04-27T09:04:45Z</time>
      </trkpt>
      <trkpt lat="45.8742" lon="4.64841">
        <ele>217</ele>
        <time>2017-04-27T09:04:46Z</time>
      </trkpt>
      <trkpt lat="45.87423" lon="4.64836">
        <ele>217</ele>
        <time>2017-04-27T09:04:47Z</time>
      </trkpt>
      <trkpt lat="45.87427" lon="4.64831">
        <ele>215</ele>
        <time>2017-04-27T09:04:48Z</time>
      </trkpt>
      <trkpt lat="45.8743" lon="4.64826">
        <ele>215</ele>
        <time>2017-04-27T09:04:49Z</time>
      </trkpt>
      <trkpt lat="45.87434" lon="4.64822">
        <ele>215</ele>
        <time>2017-04-27T09:04:50Z</time>
      </trkpt>
      <trkpt lat="45.87437" lon="4.64817">
        <ele>215</ele>
        <time>2017-04-27T09:04:51Z</time>
      </trkpt>
      <trkpt lat="45.87441" lon="4.64813">
        <ele>215</ele>
        <time>2017-04-27T09:04:52Z</time>
      </trkpt>
      <trkpt lat="45.87445" lon="4.64808">
        <ele>214</ele>
        <time>2017-04-27T09:04:53Z</time>
      </trkpt>
      <trkpt lat="45.87448" lon="4.64804">
        <ele>214</ele>
        <time>2017-04-27T09:04:54Z</time>
      </trkpt>
      <trkpt lat="45.87452" lon="4.64799">
        <ele>214</ele>
        <time>2017-04-27T09:04:55Z</time>
      </trkpt>
      <trkpt lat="45.87456" lon="4.64795">
        <ele>214</ele>
        <time>2017-04-27T09:04:56Z</time>
      </trkpt>
      <trkpt lat="45.87459" lon="4.6479">
        <ele>214</ele>
        <time>2017-04-27T09:04:57Z</time>
      </trkpt>
      <trkpt lat="45.87463" lon="4.64785">
        <ele>214</ele>
        <time>2017-04-27T09:04:58Z</time>
      </trkpt>
      <trkpt lat="45.87467" lon="4.6478">
        <ele>214</ele>
        <time>2017-04-27T09:04:59Z</time>
      </trkpt>
      <trkpt lat="45.8747" lon="4.64776">
        <ele>214</ele>
        <time>2017-04-27T09:05:00Z</time>
      </trkpt>
      <trkpt lat="45.87473" lon="4.64771">
        <ele>214</ele>
        <time>2017-04-27T09:05:01Z</time>
      </trkpt>
      <trkpt lat="45.87477" lon="4.64766">
        <ele>214</ele>
        <time>2017-04-27T09:05:02Z</time>
      </trkpt>
      <trkpt lat="45.8748" lon="4.64762">
        <ele>214</ele>
        <time>2017-04-27T09:05:03Z</time>
      </trkpt>
      <trkpt lat="45.87484" lon="4.64758">
        <ele>214</ele>
        <time>2017-04-27T09:05:04Z</time>
      </trkpt>
      <trkpt lat="45.87488" lon="4.64754">
        <ele>213</ele>
        <time>2017-04-27T09:05:05Z</time>
      </trkpt>
      <trkpt lat="45.87491" lon="4.6475">
        <ele>213</ele>
        <time>2017-04-27T09:05:06Z</time>
      </trkpt>
      <trkpt lat="45.87495" lon="4.64745">
        <ele>213</ele>
        <time>2017-04-27T09:05:07Z</time>
      </trkpt>
      <trkpt lat="45.87498" lon="4.64741">
        <ele>213</ele>
        <time>2017-04-27T09:05:08Z</time>
      </trkpt>
      <trkpt lat="45.87502" lon="4.64736">
        <ele>213</ele>
        <time>2017-04-27T09:05:09Z</time>
      </trkpt>
      <trkpt lat="45.87506" lon="4.64732">
        <ele>213</ele>
        <time>2017-04-27T09:05:10Z</time>
      </trkpt>
      <trkpt lat="45.8751" lon="4.64727">
        <ele>213</ele>
        <time>2017-04-27T09:05:11Z</time>
      </trkpt>
      <trkpt lat="45.87514" lon="4.64722">
        <ele>213</ele>
        <time>2017-04-27T09:05:12Z</time>
      </trkpt>
      <trkpt lat="45.87517" lon="4.64717">
        <ele>212</ele>
        <time>2017-04-27T09:05:13Z</time>
      </trkpt>
      <trkpt lat="45.87521" lon="4.64712">
        <ele>212</ele>
        <time>2017-04-27T09:05:14Z</time>
      </trkpt>
      <trkpt lat="45.87525" lon="4.64707">
        <ele>212</ele>
        <time>2017-04-27T09:05:15Z</time>
      </trkpt>
      <trkpt lat="45.87529" lon="4.64701">
        <ele>212</ele>
        <time>2017-04-27T09:05:16Z</time>
      </trkpt>
      <trkpt lat="45.87533" lon="4.64696">
        <ele>212</ele>
        <time>2017-04-27T09:05:17Z</time>
      </trkpt>
      <trkpt lat="45.87537" lon="4.6469">
        <ele>212</ele>
        <time>2017-04-27T09:05:18Z</time>
      </trkpt>
      <trkpt lat="45.87542" lon="4.64684">
        <ele>212</ele>
        <time>2017-04-27T09:05:19Z</time>
      </trkpt>
      <trkpt lat="45.87546" lon="4.64678">
        <ele>212</ele>
        <time>2017-04-27T09:05:20Z</time>
      </trkpt>
      <trkpt lat="45.8755" lon="4.64672">
        <ele>212</ele>
        <time>2017-04-27T09:05:21Z</time>
      </trkpt>
      <trkpt lat="45.87554" lon="4.64667">
        <ele>212</ele>
        <time>2017-04-27T09:05:22Z</time>
      </trkpt>
      <trkpt lat="45.87558" lon="4.64662">
        <ele>212</ele>
        <time>2017-04-27T09:05:23Z</time>
      </trkpt>
      <trkpt lat="45.87561" lon="4.64657">
        <ele>212</ele>
        <time>2017-04-27T09:05:24Z</time>
      </trkpt>
      <trkpt lat="45.87565" lon="4.64652">
        <ele>212</ele>
        <time>2017-04-27T09:05:25Z</time>
      </trkpt>
      <trkpt lat="45.87568" lon="4.64647">
        <ele>212</ele>
        <time>2017-04-27T09:05:26Z</time>
      </trkpt>
      <trkpt lat="45.87572" lon="4.64642">
        <ele>212</ele>
        <time>2017-04-27T09:05:27Z</time>
      </trkpt>
      <trkpt lat="45.87575" lon="4.64637">
        <ele>212</ele>
        <time>2017-04-27T09:05:28Z</time>
      </trkpt>
      <trkpt lat="45.87578" lon="4.64632">
        <ele>212</ele>
        <time>2017-04-27T09:05:29Z</time>
      </trkpt>
      <trkpt lat="45.87582" lon="4.64628">
        <ele>212</ele>
        <time>2017-04-27T09:05:30Z</time>
      </trkpt>
      <trkpt lat="45.87586" lon="4.64623">
        <ele>212</ele>
        <time>2017-04-27T09:05:31Z</time>
      </trkpt>
      <trkpt lat="45.87589" lon="4.64618">
        <ele>212</ele>
        <time>2017-04-27T09:05:32Z</time>
      </trkpt>
      <trkpt lat="45.87596" lon="4.6461">
        <ele>212</ele>
        <time>2017-04-27T09:05:34Z</time>
      </trkpt>
      <trkpt lat="45.87599" lon="4.64606">
        <ele>212</ele>
        <time>2017-04-27T09:05:35Z</time>
      </trkpt>
      <trkpt lat="45.87605" lon="4.64598">
        <ele>212</ele>
        <time>2017-04-27T09:05:37Z</time>
      </trkpt>
      <trkpt lat="45.87609" lon="4.64594">
        <ele>212</ele>
        <time>2017-04-27T09:05:38Z</time>
      </trkpt>
      <trkpt lat="45.87612" lon="4.6459">
        <ele>212</ele>
        <time>2017-04-27T09:05:39Z</time>
      </trkpt>
      <trkpt lat="45.87616" lon="4.64586">
        <ele>212</ele>
        <time>2017-04-27T09:05:40Z</time>
      </trkpt>
      <trkpt lat="45.87619" lon="4.64581">
        <ele>212</ele>
        <time>2017-04-27T09:05:41Z</time>
      </trkpt>
      <trkpt lat="45.87622" lon="4.64576">
        <ele>212</ele>
        <time>2017-04-27T09:05:42Z</time>
      </trkpt>
      <trkpt lat="45.87626" lon="4.64572">
        <ele>212</ele>
        <time>2017-04-27T09:05:43Z</time>
      </trkpt>
      <trkpt lat="45.87629" lon="4.64567">
        <ele>212</ele>
        <time>2017-04-27T09:05:44Z</time>
      </trkpt>
      <trkpt lat="45.87633" lon="4.64563">
        <ele>212</ele>
        <time>2017-04-27T09:05:45Z</time>
      </trkpt>
      <trkpt lat="45.87636" lon="4.64558">
        <ele>212</ele>
        <time>2017-04-27T09:05:46Z</time>
      </trkpt>
      <trkpt lat="45.8764" lon="4.64553">
        <ele>212</ele>
        <time>2017-04-27T09:05:47Z</time>
      </trkpt>
      <trkpt lat="45.87643" lon="4.64549">
        <ele>212</ele>
        <time>2017-04-27T09:05:48Z</time>
      </trkpt>
      <trkpt lat="45.87647" lon="4.64544">
        <ele>213</ele>
        <time>2017-04-27T09:05:49Z</time>
      </trkpt>
      <trkpt lat="45.8765" lon="4.6454">
        <ele>213</ele>
        <time>2017-04-27T09:05:50Z</time>
      </trkpt>
      <trkpt lat="45.87653" lon="4.64535">
        <ele>213</ele>
        <time>2017-04-27T09:05:51Z</time>
      </trkpt>
      <trkpt lat="45.87657" lon="4.64531">
        <ele>213</ele>
        <time>2017-04-27T09:05:52Z</time>
      </trkpt>
      <trkpt lat="45.8766" lon="4.64527">
        <ele>213</ele>
        <time>2017-04-27T09:05:53Z</time>
      </trkpt>
      <trkpt lat="45.87663" lon="4.64522">
        <ele>213</ele>
        <time>2017-04-27T09:05:54Z</time>
      </trkpt>
      <trkpt lat="45.8767" lon="4.64514">
        <ele>215</ele>
        <time>2017-04-27T09:05:56Z</time>
      </trkpt>
      <trkpt lat="45.87672" lon="4.6451">
        <ele>215</ele>
        <time>2017-04-27T09:05:57Z</time>
      </trkpt>
      <trkpt lat="45.87679" lon="4.64504">
        <ele>215</ele>
        <time>2017-04-27T09:05:59Z</time>
      </trkpt>
      <trkpt lat="45.87682" lon="4.64505">
        <ele>215</ele>
        <time>2017-04-27T09:06:00Z</time>
      </trkpt>
      <trkpt lat="45.87688" lon="4.6451">
        <ele>215</ele>
        <time>2017-04-27T09:06:02Z</time>
      </trkpt>
      <trkpt lat="45.8769" lon="4.64514">
        <ele>215</ele>
        <time>2017-04-27T09:06:03Z</time>
      </trkpt>
      <trkpt lat="45.87696" lon="4.64523">
        <ele>215</ele>
        <time>2017-04-27T09:06:05Z</time>
      </trkpt>
      <trkpt lat="45.87699" lon="4.64528">
        <ele>215</ele>
        <time>2017-04-27T09:06:06Z</time>
      </trkpt>
      <trkpt lat="45.87701" lon="4.64533">
        <ele>216</ele>
        <time>2017-04-27T09:06:07Z</time>
      </trkpt>
      <trkpt lat="45.87705" lon="4.64537">
        <ele>216</ele>
        <time>2017-04-27T09:06:08Z</time>
      </trkpt>
      <trkpt lat="45.8771" lon="4.64546">
        <ele>216</ele>
        <time>2017-04-27T09:06:11Z</time>
      </trkpt>
      <trkpt lat="45.87713" lon="4.64549">
        <ele>216</ele>
        <time>2017-04-27T09:06:12Z</time>
      </trkpt>
      <trkpt lat="45.87716" lon="4.6456">
        <ele>216</ele>
        <time>2017-04-27T09:06:14Z</time>
      </trkpt>
      <trkpt lat="45.87718" lon="4.64565">
        <ele>216</ele>
        <time>2017-04-27T09:06:15Z</time>
      </trkpt>
      <trkpt lat="45.87721" lon="4.64575">
        <ele>217</ele>
        <time>2017-04-27T09:06:17Z</time>
      </trkpt>
      <trkpt lat="45.87723" lon="4.64581">
        <ele>217</ele>
        <time>2017-04-27T09:06:18Z</time>
      </trkpt>
      <trkpt lat="45.87724" lon="4.64592">
        <ele>217</ele>
        <time>2017-04-27T09:06:20Z</time>
      </trkpt>
      <trkpt lat="45.87724" lon="4.64597">
        <ele>217</ele>
        <time>2017-04-27T09:06:21Z</time>
      </trkpt>
      <trkpt lat="45.87728" lon="4.64607">
        <ele>217</ele>
        <time>2017-04-27T09:06:23Z</time>
      </trkpt>
      <trkpt lat="45.8773" lon="4.64612">
        <ele>217</ele>
        <time>2017-04-27T09:06:24Z</time>
      </trkpt>
      <trkpt lat="45.87733" lon="4.64623">
        <ele>217</ele>
        <time>2017-04-27T09:06:26Z</time>
      </trkpt>
      <trkpt lat="45.87734" lon="4.64628">
        <ele>217</ele>
        <time>2017-04-27T09:06:27Z</time>
      </trkpt>
      <trkpt lat="45.87733" lon="4.64639">
        <ele>217</ele>
        <time>2017-04-27T09:06:29Z</time>
      </trkpt>
      <trkpt lat="45.87731" lon="4.64644">
        <ele>217</ele>
        <time>2017-04-27T09:06:30Z</time>
      </trkpt>
      <trkpt lat="45.87727" lon="4.64656">
        <ele>217</ele>
        <time>2017-04-27T09:06:32Z</time>
      </trkpt>
      <trkpt lat="45.87726" lon="4.64661">
        <ele>217</ele>
        <time>2017-04-27T09:06:33Z</time>
      </trkpt>
      <trkpt lat="45.87724" lon="4.64672">
        <ele>216</ele>
        <time>2017-04-27T09:06:35Z</time>
      </trkpt>
      <trkpt lat="45.87724" lon="4.64678">
        <ele>216</ele>
        <time>2017-04-27T09:06:36Z</time>
      </trkpt>
      <trkpt lat="45.87723" lon="4.64685">
        <ele>216</ele>
        <time>2017-04-27T09:06:37Z</time>
      </trkpt>
      <trkpt lat="45.8772" lon="4.64691">
        <ele>215</ele>
        <time>2017-04-27T09:06:38Z</time>
      </trkpt>
      <trkpt lat="45.87721" lon="4.64702">
        <ele>215</ele>
        <time>2017-04-27T09:06:40Z</time>
      </trkpt>
      <trkpt lat="45.8772" lon="4.64708">
        <ele>215</ele>
        <time>2017-04-27T09:06:41Z</time>
      </trkpt>
      <trkpt lat="45.87721" lon="4.64719">
        <ele>215</ele>
        <time>2017-04-27T09:06:43Z</time>
      </trkpt>
      <trkpt lat="45.87721" lon="4.64725">
        <ele>215</ele>
        <time>2017-04-27T09:06:44Z</time>
      </trkpt>
      <trkpt lat="45.87723" lon="4.64737">
        <ele>214</ele>
        <time>2017-04-27T09:06:46Z</time>
      </trkpt>
      <trkpt lat="45.87724" lon="4.64742">
        <ele>214</ele>
        <time>2017-04-27T09:06:47Z</time>
      </trkpt>
      <trkpt lat="45.87726" lon="4.64753">
        <ele>213</ele>
        <time>2017-04-27T09:06:49Z</time>
      </trkpt>
      <trkpt lat="45.87727" lon="4.64759">
        <ele>213</ele>
        <time>2017-04-27T09:06:50Z</time>
      </trkpt>
      <trkpt lat="45.87729" lon="4.64771">
        <ele>213</ele>
        <time>2017-04-27T09:06:52Z</time>
      </trkpt>
      <trkpt lat="45.8773" lon="4.64777">
        <ele>213</ele>
        <time>2017-04-27T09:06:53Z</time>
      </trkpt>
      <trkpt lat="45.87733" lon="4.64788">
        <ele>213</ele>
        <time>2017-04-27T09:06:55Z</time>
      </trkpt>
      <trkpt lat="45.87735" lon="4.64793">
        <ele>214</ele>
        <time>2017-04-27T09:06:56Z</time>
      </trkpt>
      <trkpt lat="45.87741" lon="4.64801">
        <ele>214</ele>
        <time>2017-04-27T09:06:58Z</time>
      </trkpt>
      <trkpt lat="45.87743" lon="4.64805">
        <ele>214</ele>
        <time>2017-04-27T09:06:59Z</time>
      </trkpt>
      <trkpt lat="45.87747" lon="4.64813">
        <ele>214</ele>
        <time>2017-04-27T09:07:01Z</time>
      </trkpt>
      <trkpt lat="45.87748" lon="4.64817">
        <ele>214</ele>
        <time>2017-04-27T09:07:02Z</time>
      </trkpt>
      <trkpt lat="45.87753" lon="4.64824">
        <ele>214</ele>
        <time>2017-04-27T09:07:04Z</time>
      </trkpt>
      <trkpt lat="45.87755" lon="4.64828">
        <ele>214</ele>
        <time>2017-04-27T09:07:05Z</time>
      </trkpt>
      <trkpt lat="45.87761" lon="4.64838">
        <ele>216</ele>
        <time>2017-04-27T09:07:08Z</time>
      </trkpt>
      <trkpt lat="45.87763" lon="4.64841">
        <ele>216</ele>
        <time>2017-04-27T09:07:09Z</time>
      </trkpt>
      <trkpt lat="45.8777" lon="4.64848">
        <ele>217</ele>
        <time>2017-04-27T09:07:12Z</time>
      </trkpt>
      <trkpt lat="45.87772" lon="4.64851">
        <ele>217</ele>
        <time>2017-04-27T09:07:13Z</time>
      </trkpt>
      <trkpt lat="45.87777" lon="4.64859">
        <ele>218</ele>
        <time>2017-04-27T09:07:16Z</time>
      </trkpt>
      <trkpt lat="45.87778" lon="4.64861">
        <ele>218</ele>
        <time>2017-04-27T09:07:17Z</time>
      </trkpt>
      <trkpt lat="45.87782" lon="4.6487">
        <ele>218</ele>
        <time>2017-04-27T09:07:20Z</time>
      </trkpt>
      <trkpt lat="45.87784" lon="4.64873">
        <ele>218</ele>
        <time>2017-04-27T09:07:21Z</time>
      </trkpt>
      <trkpt lat="45.87789" lon="4.64883">
        <ele>219</ele>
        <time>2017-04-27T09:07:25Z</time>
      </trkpt>
      <trkpt lat="45.8779" lon="4.64885">
        <ele>219</ele>
        <time>2017-04-27T09:07:26Z</time>
      </trkpt>
      <trkpt lat="45.87795" lon="4.64896">
        <ele>219</ele>
        <time>2017-04-27T09:07:30Z</time>
      </trkpt>
      <trkpt lat="45.87797" lon="4.64898">
        <ele>219</ele>
        <time>2017-04-27T09:07:31Z</time>
      </trkpt>
      <trkpt lat="45.87802" lon="4.64908">
        <ele>220</ele>
        <time>2017-04-27T09:07:35Z</time>
      </trkpt>
      <trkpt lat="45.87803" lon="4.64911">
        <ele>220</ele>
        <time>2017-04-27T09:07:36Z</time>
      </trkpt>
      <trkpt lat="45.87809" lon="4.64921">
        <ele>224</ele>
        <time>2017-04-27T09:07:40Z</time>
      </trkpt>
      <trkpt lat="45.8781" lon="4.64924">
        <ele>224</ele>
        <time>2017-04-27T09:07:41Z</time>
      </trkpt>
      <trkpt lat="45.87814" lon="4.64934">
        <ele>225</ele>
        <time>2017-04-27T09:07:45Z</time>
      </trkpt>
      <trkpt lat="45.87815" lon="4.64936">
        <ele>225</ele>
        <time>2017-04-27T09:07:46Z</time>
      </trkpt>
      <trkpt lat="45.87821" lon="4.64945">
        <ele>225</ele>
        <time>2017-04-27T09:07:50Z</time>
      </trkpt>
      <trkpt lat="45.87822" lon="4.64947">
        <ele>225</ele>
        <time>2017-04-27T09:07:51Z</time>
      </trkpt>
      <trkpt lat="45.87828" lon="4.64954">
        <ele>226</ele>
        <time>2017-04-27T09:07:55Z</time>
      </trkpt>
      <trkpt lat="45.87829" lon="4.64955">
        <ele>226</ele>
        <time>2017-04-27T09:07:56Z</time>
      </trkpt>
      <trkpt lat="45.87836" lon="4.64962">
        <ele>228</ele>
        <time>2017-04-27T09:08:01Z</time>
      </trkpt>
      <trkpt lat="45.87838" lon="4.64964">
        <ele>228</ele>
        <time>2017-04-27T09:08:02Z</time>
      </trkpt>
      <trkpt lat="45.87845" lon="4.6497">
        <ele>229</ele>
        <time>2017-04-27T09:08:07Z</time>
      </trkpt>
      <trkpt lat="45.87847" lon="4.64971">
        <ele>229</ele>
        <time>2017-04-27T09:08:08Z</time>
      </trkpt>
      <trkpt lat="45.87853" lon="4.64975">
        <ele>229</ele>
        <time>2017-04-27T09:08:12Z</time>
      </trkpt>
      <trkpt lat="45.87855" lon="4.64976">
        <ele>229</ele>
        <time>2017-04-27T09:08:13Z</time>
      </trkpt>
      <trkpt lat="45.87862" lon="4.6498">
        <ele>230</ele>
        <time>2017-04-27T09:08:17Z</time>
      </trkpt>
      <trkpt lat="45.87864" lon="4.64982">
        <ele>230</ele>
        <time>2017-04-27T09:08:18Z</time>
      </trkpt>
      <trkpt lat="45.87871" lon="4.64986">
        <ele>230</ele>
        <time>2017-04-27T09:08:22Z</time>
      </trkpt>
      <trkpt lat="45.87873" lon="4.64986">
        <ele>230</ele>
        <time>2017-04-27T09:08:23Z</time>
      </trkpt>
      <trkpt lat="45.8788" lon="4.64988">
        <ele>231</ele>
        <time>2017-04-27T09:08:27Z</time>
      </trkpt>
      <trkpt lat="45.87882" lon="4.64988">
        <ele>231</ele>
        <time>2017-04-27T09:08:28Z</time>
      </trkpt>
      <trkpt lat="45.8789" lon="4.6499">
        <ele>232</ele>
        <time>2017-04-27T09:08:32Z</time>
      </trkpt>
      <trkpt lat="45.87892" lon="4.6499">
        <ele>232</ele>
        <time>2017-04-27T09:08:33Z</time>
      </trkpt>
      <trkpt lat="45.879" lon="4.6499">
        <ele>233</ele>
        <time>2017-04-27T09:08:37Z</time>
      </trkpt>
      <trkpt lat="45.87902" lon="4.6499">
        <ele>233</ele>
        <time>2017-04-27T09:08:38Z</time>
      </trkpt>
      <trkpt lat="45.87911" lon="4.64989">
        <ele>234</ele>
        <time>2017-04-27T09:08:42Z</time>
      </trkpt>
      <trkpt lat="45.87913" lon="4.64988">
        <ele>234</ele>
        <time>2017-04-27T09:08:43Z</time>
      </trkpt>
      <trkpt lat="45.8792" lon="4.64987">
        <ele>237</ele>
        <time>2017-04-27T09:08:47Z</time>
      </trkpt>
      <trkpt lat="45.87922" lon="4.64987">
        <ele>237</ele>
        <time>2017-04-27T09:08:48Z</time>
      </trkpt>
      <trkpt lat="45.87929" lon="4.64985">
        <ele>237</ele>
        <time>2017-04-27T09:08:52Z</time>
      </trkpt>
      <trkpt lat="45.87931" lon="4.64984">
        <ele>237</ele>
        <time>2017-04-27T09:08:53Z</time>
      </trkpt>
      <trkpt lat="45.87938" lon="4.64979">
        <ele>237</ele>
        <time>2017-04-27T09:08:57Z</time>
      </trkpt>
      <trkpt lat="45.87939" lon="4.64978">
        <ele>237</ele>
        <time>2017-04-27T09:08:58Z</time>
      </trkpt>
      <trkpt lat="45.87946" lon="4.64976">
        <ele>237</ele>
        <time>2017-04-27T09:09:02Z</time>
      </trkpt>
      <trkpt lat="45.87948" lon="4.64975">
        <ele>237</ele>
        <time>2017-04-27T09:09:03Z</time>
      </trkpt>
      <trkpt lat="45.87956" lon="4.64971">
        <ele>238</ele>
        <time>2017-04-27T09:09:07Z</time>
      </trkpt>
      <trkpt lat="45.87958" lon="4.6497">
        <ele>238</ele>
        <time>2017-04-27T09:09:08Z</time>
      </trkpt>
      <trkpt lat="45.87964" lon="4.64964">
        <ele>238</ele>
        <time>2017-04-27T09:09:12Z</time>
      </trkpt>
      <trkpt lat="45.87965" lon="4.64962">
        <ele>238</ele>
        <time>2017-04-27T09:09:13Z</time>
      </trkpt>
      <trkpt lat="45.87972" lon="4.64957">
        <ele>238</ele>
        <time>2017-04-27T09:09:17Z</time>
      </trkpt>
      <trkpt lat="45.87974" lon="4.64956">
        <ele>238</ele>
        <time>2017-04-27T09:09:18Z</time>
      </trkpt>
      <trkpt lat="45.8798" lon="4.6495">
        <ele>237</ele>
        <time>2017-04-27T09:09:22Z</time>
      </trkpt>
      <trkpt lat="45.87982" lon="4.64948">
        <ele>237</ele>
        <time>2017-04-27T09:09:23Z</time>
      </trkpt>
      <trkpt lat="45.87988" lon="4.64941">
        <ele>237</ele>
        <time>2017-04-27T09:09:27Z</time>
      </trkpt>
      <trkpt lat="45.8799" lon="4.6494">
        <ele>237</ele>
        <time>2017-04-27T09:09:28Z</time>
      </trkpt>
      <trkpt lat="45.87997" lon="4.64937">
        <ele>237</ele>
        <time>2017-04-27T09:09:32Z</time>
      </trkpt>
      <trkpt lat="45.87999" lon="4.64935">
        <ele>237</ele>
        <time>2017-04-27T09:09:33Z</time>
      </trkpt>
      <trkpt lat="45.88005" lon="4.64926">
        <ele>241</ele>
        <time>2017-04-27T09:09:38Z</time>
      </trkpt>
      <trkpt lat="45.88007" lon="4.64925">
        <ele>241</ele>
        <time>2017-04-27T09:09:39Z</time>
      </trkpt>
      <trkpt lat="45.88013" lon="4.64921">
        <ele>242</ele>
        <time>2017-04-27T09:09:43Z</time>
      </trkpt>
      <trkpt lat="45.88015" lon="4.64919">
        <ele>243</ele>
        <time>2017-04-27T09:09:44Z</time>
      </trkpt>
      <trkpt lat="45.88023" lon="4.64914">
        <ele>238</ele>
        <time>2017-04-27T09:09:48Z</time>
      </trkpt>
      <trkpt lat="45.88025" lon="4.64913">
        <ele>238</ele>
        <time>2017-04-27T09:09:49Z</time>
      </trkpt>
      <trkpt lat="45.8803" lon="4.64905">
        <ele>238</ele>
        <time>2017-04-27T09:09:53Z</time>
      </trkpt>
      <trkpt lat="45.88032" lon="4.64904">
        <ele>238</ele>
        <time>2017-04-27T09:09:54Z</time>
      </trkpt>
      <trkpt lat="45.88039" lon="4.64899">
        <ele>239</ele>
        <time>2017-04-27T09:09:58Z</time>
      </trkpt>
      <trkpt lat="45.88041" lon="4.64897">
        <ele>239</ele>
        <time>2017-04-27T09:09:59Z</time>
      </trkpt>
      <trkpt lat="45.88048" lon="4.64891">
        <ele>240</ele>
        <time>2017-04-27T09:10:03Z</time>
      </trkpt>
      <trkpt lat="45.88049" lon="4.64888">
        <ele>240</ele>
        <time>2017-04-27T09:10:04Z</time>
      </trkpt>
      <trkpt lat="45.88055" lon="4.64881">
        <ele>239</ele>
        <time>2017-04-27T09:10:08Z</time>
      </trkpt>
      <trkpt lat="45.88057" lon="4.6488">
        <ele>239</ele>
        <time>2017-04-27T09:10:09Z</time>
      </trkpt>
      <trkpt lat="45.88064" lon="4.64874">
        <ele>239</ele>
        <time>2017-04-27T09:10:13Z</time>
      </trkpt>
      <trkpt lat="45.88066" lon="4.64873">
        <ele>239</ele>
        <time>2017-04-27T09:10:14Z</time>
      </trkpt>
      <trkpt lat="45.88074" lon="4.64869">
        <ele>239</ele>
        <time>2017-04-27T09:10:18Z</time>
      </trkpt>
      <trkpt lat="45.88076" lon="4.64868">
        <ele>239</ele>
        <time>2017-04-27T09:10:19Z</time>
      </trkpt>
      <trkpt lat="45.88084" lon="4.64868">
        <ele>247</ele>
        <time>2017-04-27T09:10:23Z</time>
      </trkpt>
      <trkpt lat="45.88086" lon="4.64866">
        <ele>246</ele>
        <time>2017-04-27T09:10:24Z</time>
      </trkpt>
      <trkpt lat="45.88093" lon="4.64863">
        <ele>246</ele>
        <time>2017-04-27T09:10:28Z</time>
      </trkpt>
      <trkpt lat="45.88095" lon="4.64862">
        <ele>246</ele>
        <time>2017-04-27T09:10:29Z</time>
      </trkpt>
      <trkpt lat="45.88103" lon="4.64859">
        <ele>246</ele>
        <time>2017-04-27T09:10:33Z</time>
      </trkpt>
      <trkpt lat="45.88105" lon="4.64859">
        <ele>246</ele>
        <time>2017-04-27T09:10:34Z</time>
      </trkpt>
      <trkpt lat="45.88112" lon="4.64858">
        <ele>247</ele>
        <time>2017-04-27T09:10:38Z</time>
      </trkpt>
      <trkpt lat="45.88114" lon="4.64857">
        <ele>247</ele>
        <time>2017-04-27T09:10:39Z</time>
      </trkpt>
      <trkpt lat="45.88122" lon="4.64856">
        <ele>247</ele>
        <time>2017-04-27T09:10:43Z</time>
      </trkpt>
      <trkpt lat="45.88124" lon="4.64856">
        <ele>247</ele>
        <time>2017-04-27T09:10:44Z</time>
      </trkpt>
      <trkpt lat="45.88131" lon="4.64852">
        <ele>248</ele>
        <time>2017-04-27T09:10:48Z</time>
      </trkpt>
      <trkpt lat="45.88133" lon="4.64852">
        <ele>248</ele>
        <time>2017-04-27T09:10:49Z</time>
      </trkpt>
      <trkpt lat="45.88141" lon="4.64849">
        <ele>248</ele>
        <time>2017-04-27T09:10:53Z</time>
      </trkpt>
      <trkpt lat="45.88143" lon="4.64848">
        <ele>248</ele>
        <time>2017-04-27T09:10:54Z</time>
      </trkpt>
      <trkpt lat="45.88151" lon="4.64847">
        <ele>247</ele>
        <time>2017-04-27T09:10:58Z</time>
      </trkpt>
      <trkpt lat="45.88153" lon="4.64847">
        <ele>247</ele>
        <time>2017-04-27T09:10:59Z</time>
      </trkpt>
      <trkpt lat="45.88161" lon="4.64847">
        <ele>247</ele>
        <time>2017-04-27T09:11:03Z</time>
      </trkpt>
      <trkpt lat="45.88163" lon="4.64846">
        <ele>247</ele>
        <time>2017-04-27T09:11:04Z</time>
      </trkpt>
      <trkpt lat="45.8817" lon="4.64846">
        <ele>250</ele>
        <time>2017-04-27T09:11:08Z</time>
      </trkpt>
      <trkpt lat="45.88172" lon="4.64845">
        <ele>250</ele>
        <time>2017-04-27T09:11:09Z</time>
      </trkpt>
      <trkpt lat="45.88181" lon="4.64844">
        <ele>252</ele>
        <time>2017-04-27T09:11:13Z</time>
      </trkpt>
      <trkpt lat="45.88183" lon="4.64843">
        <ele>252</ele>
        <time>2017-04-27T09:11:14Z</time>
      </trkpt>
      <trkpt lat="45.88191" lon="4.64842">
        <ele>253</ele>
        <time>2017-04-27T09:11:18Z</time>
      </trkpt>
      <trkpt lat="45.88193" lon="4.64842">
        <ele>254</ele>
        <time>2017-04-27T09:11:19Z</time>
      </trkpt>
      <trkpt lat="45.882" lon="4.64839">
        <ele>255</ele>
        <time>2017-04-27T09:11:22Z</time>
      </trkpt>
      <trkpt lat="45.88202" lon="4.64838">
        <ele>255</ele>
        <time>2017-04-27T09:11:23Z</time>
      </trkpt>
      <trkpt lat="45.8821" lon="4.64837">
        <ele>256</ele>
        <time>2017-04-27T09:11:27Z</time>
      </trkpt>
      <trkpt lat="45.88212" lon="4.64836">
        <ele>256</ele>
        <time>2017-04-27T09:11:28Z</time>
      </trkpt>
      <trkpt lat="45.8822" lon="4.64833">
        <ele>248</ele>
        <time>2017-04-27T09:11:32Z</time>
      </trkpt>
      <trkpt lat="45.88222" lon="4.64831">
        <ele>248</ele>
        <time>2017-04-27T09:11:33Z</time>
      </trkpt>
      <trkpt lat="45.88229" lon="4.64829">
        <ele>249</ele>
        <time>2017-04-27T09:11:37Z</time>
      </trkpt>
      <trkpt lat="45.88231" lon="4.64829">
        <ele>250</ele>
        <time>2017-04-27T09:11:38Z</time>
      </trkpt>
      <trkpt lat="45.88238" lon="4.64827">
        <ele>251</ele>
        <time>2017-04-27T09:11:42Z</time>
      </trkpt>
      <trkpt lat="45.8824" lon="4.64826">
        <ele>252</ele>
        <time>2017-04-27T09:11:43Z</time>
      </trkpt>
      <trkpt lat="45.88247" lon="4.64823">
        <ele>252</ele>
        <time>2017-04-27T09:11:47Z</time>
      </trkpt>
      <trkpt lat="45.8825" lon="4.64823">
        <ele>252</ele>
        <time>2017-04-27T09:11:48Z</time>
      </trkpt>
      <trkpt lat="45.88257" lon="4.64821">
        <ele>257</ele>
        <time>2017-04-27T09:11:53Z</time>
      </trkpt>
      <trkpt lat="45.88259" lon="4.6482">
        <ele>257</ele>
        <time>2017-04-27T09:11:54Z</time>
      </trkpt>
      <trkpt lat="45.88266" lon="4.64819">
        <ele>257</ele>
        <time>2017-04-27T09:11:58Z</time>
      </trkpt>
      <trkpt lat="45.88268" lon="4.64819">
        <ele>257</ele>
        <time>2017-04-27T09:11:59Z</time>
      </trkpt>
      <trkpt lat="45.88276" lon="4.64815">
        <ele>258</ele>
        <time>2017-04-27T09:12:04Z</time>
      </trkpt>
      <trkpt lat="45.88277" lon="4.64813">
        <ele>258</ele>
        <time>2017-04-27T09:12:05Z</time>
      </trkpt>
      <trkpt lat="45.88285" lon="4.64812">
        <ele>258</ele>
        <time>2017-04-27T09:12:10Z</time>
      </trkpt>
      <trkpt lat="45.88287" lon="4.64811">
        <ele>258</ele>
        <time>2017-04-27T09:12:11Z</time>
      </trkpt>
      <trkpt lat="45.88296" lon="4.64809">
        <ele>259</ele>
        <time>2017-04-27T09:12:16Z</time>
      </trkpt>
      <trkpt lat="45.88297" lon="4.64808">
        <ele>259</ele>
        <time>2017-04-27T09:12:17Z</time>
      </trkpt>
      <trkpt lat="45.88305" lon="4.64807">
        <ele>260</ele>
        <time>2017-04-27T09:12:21Z</time>
      </trkpt>
      <trkpt lat="45.88307" lon="4.64806">
        <ele>260</ele>
        <time>2017-04-27T09:12:22Z</time>
      </trkpt>
      <trkpt lat="45.88315" lon="4.64805">
        <ele>261</ele>
        <time>2017-04-27T09:12:27Z</time>
      </trkpt>
      <trkpt lat="45.88317" lon="4.64804">
        <ele>261</ele>
        <time>2017-04-27T09:12:28Z</time>
      </trkpt>
      <trkpt lat="45.88325" lon="4.64801">
        <ele>261</ele>
        <time>2017-04-27T09:12:33Z</time>
      </trkpt>
      <trkpt lat="45.88326" lon="4.648">
        <ele>261</ele>
        <time>2017-04-27T09:12:34Z</time>
      </trkpt>
      <trkpt lat="45.88335" lon="4.648">
        <ele>268</ele>
        <time>2017-04-27T09:12:39Z</time>
      </trkpt>
      <trkpt lat="45.88337" lon="4.648">
        <ele>268</ele>
        <time>2017-04-27T09:12:40Z</time>
      </trkpt>
      <trkpt lat="45.88345" lon="4.64798">
        <ele>267</ele>
        <time>2017-04-27T09:12:44Z</time>
      </trkpt>
      <trkpt lat="45.88347" lon="4.64798">
        <ele>267</ele>
        <time>2017-04-27T09:12:45Z</time>
      </trkpt>
      <trkpt lat="45.88355" lon="4.64795">
        <ele>267</ele>
        <time>2017-04-27T09:12:49Z</time>
      </trkpt>
      <trkpt lat="45.88357" lon="4.64793">
        <ele>267</ele>
        <time>2017-04-27T09:12:50Z</time>
      </trkpt>
      <trkpt lat="45.88365" lon="4.64788">
        <ele>267</ele>
        <time>2017-04-27T09:12:54Z</time>
      </trkpt>
      <trkpt lat="45.88367" lon="4.64789">
        <ele>267</ele>
        <time>2017-04-27T09:12:55Z</time>
      </trkpt>
      <trkpt lat="45.88376" lon="4.64788">
        <ele>267</ele>
        <time>2017-04-27T09:12:59Z</time>
      </trkpt>
      <trkpt lat="45.88378" lon="4.64788">
        <ele>267</ele>
        <time>2017-04-27T09:13:00Z</time>
      </trkpt>
      <trkpt lat="45.88385" lon="4.64788">
        <ele>268</ele>
        <time>2017-04-27T09:13:04Z</time>
      </trkpt>
      <trkpt lat="45.88387" lon="4.64788">
        <ele>268</ele>
        <time>2017-04-27T09:13:05Z</time>
      </trkpt>
      <trkpt lat="45.88396" lon="4.64788">
        <ele>268</ele>
        <time>2017-04-27T09:13:09Z</time>
      </trkpt>
      <trkpt lat="45.88398" lon="4.64788">
        <ele>268</ele>
        <time>2017-04-27T09:13:10Z</time>
      </trkpt>
      <trkpt lat="45.88406" lon="4.64788">
        <ele>268</ele>
        <time>2017-04-27T09:13:14Z</time>
      </trkpt>
      <trkpt lat="45.88408" lon="4.64787">
        <ele>268</ele>
        <time>2017-04-27T09:13:15Z</time>
      </trkpt>
      <trkpt lat="45.88416" lon="4.64785">
        <ele>268</ele>
        <time>2017-04-27T09:13:19Z</time>
      </trkpt>
      <trkpt lat="45.88417" lon="4.64784">
        <ele>270</ele>
        <time>2017-04-27T09:13:20Z</time>
      </trkpt>
      <trkpt lat="45.88424" lon="4.64779">
        <ele>270</ele>
        <time>2017-04-27T09:13:24Z</time>
      </trkpt>
      <trkpt lat="45.88426" lon="4.6478">
        <ele>270</ele>
        <time>2017-04-27T09:13:25Z</time>
      </trkpt>
      <trkpt lat="45.88433" lon="4.6478">
        <ele>270</ele>
        <time>2017-04-27T09:13:29Z</time>
      </trkpt>
      <trkpt lat="45.88436" lon="4.6478">
        <ele>270</ele>
        <time>2017-04-27T09:13:30Z</time>
      </trkpt>
      <trkpt lat="45.88444" lon="4.64779">
        <ele>271</ele>
        <time>2017-04-27T09:13:34Z</time>
      </trkpt>
      <trkpt lat="45.88446" lon="4.64778">
        <ele>271</ele>
        <time>2017-04-27T09:13:35Z</time>
      </trkpt>
      <trkpt lat="45.88454" lon="4.64776">
        <ele>271</ele>
        <time>2017-04-27T09:13:40Z</time>
      </trkpt>
      <trkpt lat="45.88456" lon="4.64776">
        <ele>271</ele>
        <time>2017-04-27T09:13:41Z</time>
      </trkpt>
      <trkpt lat="45.88463" lon="4.64775">
        <ele>271</ele>
        <time>2017-04-27T09:13:45Z</time>
      </trkpt>
      <trkpt lat="45.88465" lon="4.64775">
        <ele>271</ele>
        <time>2017-04-27T09:13:46Z</time>
      </trkpt>
      <trkpt lat="45.88474" lon="4.64776">
        <ele>271</ele>
        <time>2017-04-27T09:13:50Z</time>
      </trkpt>
      <trkpt lat="45.88476" lon="4.64777">
        <ele>271</ele>
        <time>2017-04-27T09:13:51Z</time>
      </trkpt>
      <trkpt lat="45.88483" lon="4.64777">
        <ele>271</ele>
        <time>2017-04-27T09:13:54Z</time>
      </trkpt>
      <trkpt lat="45.88486" lon="4.64777">
        <ele>271</ele>
        <time>2017-04-27T09:13:55Z</time>
      </trkpt>
      <trkpt lat="45.88494" lon="4.64775">
        <ele>271</ele>
        <time>2017-04-27T09:13:59Z</time>
      </trkpt>
      <trkpt lat="45.88496" lon="4.64775">
        <ele>271</ele>
        <time>2017-04-27T09:14:00Z</time>
      </trkpt>
      <trkpt lat="45.88503" lon="4.64775">
        <ele>271</ele>
        <time>2017-04-27T09:14:04Z</time>
      </trkpt>
      <trkpt lat="45.88505" lon="4.64775">
        <ele>271</ele>
        <time>2017-04-27T09:14:05Z</time>
      </trkpt>
      <trkpt lat="45.88514" lon="4.64777">
        <ele>271</ele>
        <time>2017-04-27T09:14:09Z</time>
      </trkpt>
      <trkpt lat="45.88515" lon="4.64778">
        <ele>271</ele>
        <time>2017-04-27T09:14:10Z</time>
      </trkpt>
      <trkpt lat="45.88523" lon="4.64782">
        <ele>271</ele>
        <time>2017-04-27T09:14:14Z</time>
      </trkpt>
      <trkpt lat="45.88525" lon="4.64783">
        <ele>271</ele>
        <time>2017-04-27T09:14:15Z</time>
      </trkpt>
      <trkpt lat="45.88533" lon="4.64787">
        <ele>272</ele>
        <time>2017-04-27T09:14:19Z</time>
      </trkpt>
      <trkpt lat="45.88534" lon="4.64789">
        <ele>272</ele>
        <time>2017-04-27T09:14:20Z</time>
      </trkpt>
      <trkpt lat="45.8854" lon="4.64799">
        <ele>272</ele>
        <time>2017-04-27T09:14:24Z</time>
      </trkpt>
      <trkpt lat="45.88541" lon="4.64802">
        <ele>272</ele>
        <time>2017-04-27T09:14:25Z</time>
      </trkpt>
      <trkpt lat="45.88545" lon="4.64813">
        <ele>273</ele>
        <time>2017-04-27T09:14:29Z</time>
      </trkpt>
      <trkpt lat="45.88546" lon="4.64815">
        <ele>273</ele>
        <time>2017-04-27T09:14:30Z</time>
      </trkpt>
      <trkpt lat="45.88549" lon="4.64825">
        <ele>273</ele>
        <time>2017-04-27T09:14:34Z</time>
      </trkpt>
      <trkpt lat="45.8855" lon="4.64828">
        <ele>273</ele>
        <time>2017-04-27T09:14:35Z</time>
      </trkpt>
      <trkpt lat="45.8855" lon="4.64838">
        <ele>276</ele>
        <time>2017-04-27T09:14:39Z</time>
      </trkpt>
      <trkpt lat="45.88549" lon="4.64841">
        <ele>276</ele>
        <time>2017-04-27T09:14:40Z</time>
      </trkpt>
      <trkpt lat="45.88547" lon="4.64851">
        <ele>277</ele>
        <time>2017-04-27T09:14:44Z</time>
      </trkpt>
      <trkpt lat="45.88547" lon="4.64854">
        <ele>277</ele>
        <time>2017-04-27T09:14:45Z</time>
      </trkpt>
      <trkpt lat="45.88547" lon="4.64866">
        <ele>277</ele>
        <time>2017-04-27T09:14:49Z</time>
      </trkpt>
      <trkpt lat="45.88547" lon="4.64869">
        <ele>277</ele>
        <time>2017-04-27T09:14:50Z</time>
      </trkpt>
      <trkpt lat="45.88545" lon="4.64879">
        <ele>277</ele>
        <time>2017-04-27T09:14:54Z</time>
      </trkpt>
      <trkpt lat="45.88545" lon="4.64882">
        <ele>277</ele>
        <time>2017-04-27T09:14:55Z</time>
      </trkpt>
      <trkpt lat="45.88541" lon="4.64893">
        <ele>278</ele>
        <time>2017-04-27T09:15:00Z</time>
      </trkpt>
      <trkpt lat="45.8854" lon="4.64895">
        <ele>278</ele>
        <time>2017-04-27T09:15:01Z</time>
      </trkpt>
      <trkpt lat="45.88539" lon="4.64907">
        <ele>278</ele>
        <time>2017-04-27T09:15:06Z</time>
      </trkpt>
      <trkpt lat="45.88538" lon="4.6491">
        <ele>278</ele>
        <time>2017-04-27T09:15:07Z</time>
      </trkpt>
      <trkpt lat="45.88535" lon="4.64922">
        <ele>280</ele>
        <time>2017-04-27T09:15:11Z</time>
      </trkpt>
      <trkpt lat="45.88534" lon="4.64925">
        <ele>280</ele>
        <time>2017-04-27T09:15:12Z</time>
      </trkpt>
      <trkpt lat="45.88533" lon="4.64936">
        <ele>281</ele>
        <time>2017-04-27T09:15:16Z</time>
      </trkpt>
      <trkpt lat="45.88532" lon="4.64939">
        <ele>281</ele>
        <time>2017-04-27T09:15:17Z</time>
      </trkpt>
      <trkpt lat="45.8853" lon="4.6495">
        <ele>281</ele>
        <time>2017-04-27T09:15:21Z</time>
      </trkpt>
      <trkpt lat="45.8853" lon="4.64953">
        <ele>281</ele>
        <time>2017-04-27T09:15:22Z</time>
      </trkpt>
      <trkpt lat="45.88527" lon="4.64964">
        <ele>282</ele>
        <time>2017-04-27T09:15:26Z</time>
      </trkpt>
      <trkpt lat="45.88527" lon="4.64967">
        <ele>282</ele>
        <time>2017-04-27T09:15:27Z</time>
      </trkpt>
      <trkpt lat="45.88525" lon="4.64978">
        <ele>282</ele>
        <time>2017-04-27T09:15:31Z</time>
      </trkpt>
      <trkpt lat="45.88525" lon="4.64981">
        <ele>283</ele>
        <time>2017-04-27T09:15:32Z</time>
      </trkpt>
      <trkpt lat="45.88523" lon="4.64994">
        <ele>283</ele>
        <time>2017-04-27T09:15:36Z</time>
      </trkpt>
      <trkpt lat="45.88523" lon="4.64997">
        <ele>284</ele>
        <time>2017-04-27T09:15:37Z</time>
      </trkpt>
      <trkpt lat="45.8852" lon="4.65006">
        <ele>286</ele>
        <time>2017-04-27T09:15:40Z</time>
      </trkpt>
      <trkpt lat="45.8852" lon="4.65009">
        <ele>286</ele>
        <time>2017-04-27T09:15:41Z</time>
      </trkpt>
      <trkpt lat="45.88516" lon="4.6502">
        <ele>286</ele>
        <time>2017-04-27T09:15:45Z</time>
      </trkpt>
      <trkpt lat="45.88515" lon="4.65022">
        <ele>286</ele>
        <time>2017-04-27T09:15:46Z</time>
      </trkpt>
      <trkpt lat="45.88513" lon="4.65033">
        <ele>286</ele>
        <time>2017-04-27T09:15:50Z</time>
      </trkpt>
      <trkpt lat="45.88512" lon="4.65036">
        <ele>286</ele>
        <time>2017-04-27T09:15:51Z</time>
      </trkpt>
      <trkpt lat="45.88509" lon="4.65047">
        <ele>286</ele>
        <time>2017-04-27T09:15:55Z</time>
      </trkpt>
      <trkpt lat="45.88509" lon="4.6505">
        <ele>286</ele>
        <time>2017-04-27T09:15:56Z</time>
      </trkpt>
      <trkpt lat="45.88505" lon="4.65062">
        <ele>287</ele>
        <time>2017-04-27T09:16:00Z</time>
      </trkpt>
      <trkpt lat="45.88504" lon="4.65064">
        <ele>287</ele>
        <time>2017-04-27T09:16:01Z</time>
      </trkpt>
      <trkpt lat="45.88501" lon="4.65075">
        <ele>288</ele>
        <time>2017-04-27T09:16:05Z</time>
      </trkpt>
      <trkpt lat="45.885" lon="4.65078">
        <ele>290</ele>
        <time>2017-04-27T09:16:06Z</time>
      </trkpt>
      <trkpt lat="45.88496" lon="4.65088">
        <ele>291</ele>
        <time>2017-04-27T09:16:10Z</time>
      </trkpt>
      <trkpt lat="45.88495" lon="4.65091">
        <ele>291</ele>
        <time>2017-04-27T09:16:11Z</time>
      </trkpt>
      <trkpt lat="45.8849" lon="4.65099">
        <ele>292</ele>
        <time>2017-04-27T09:16:15Z</time>
      </trkpt>
      <trkpt lat="45.88489" lon="4.65101">
        <ele>292</ele>
        <time>2017-04-27T09:16:16Z</time>
      </trkpt>
      <trkpt lat="45.88483" lon="4.6511">
        <ele>293</ele>
        <time>2017-04-27T09:16:20Z</time>
      </trkpt>
      <trkpt lat="45.88481" lon="4.65112">
        <ele>293</ele>
        <time>2017-04-27T09:16:21Z</time>
      </trkpt>
      <trkpt lat="45.88475" lon="4.65121">
        <ele>293</ele>
        <time>2017-04-27T09:16:25Z</time>
      </trkpt>
      <trkpt lat="45.88473" lon="4.65123">
        <ele>294</ele>
        <time>2017-04-27T09:16:26Z</time>
      </trkpt>
      <trkpt lat="45.88467" lon="4.65132">
        <ele>294</ele>
        <time>2017-04-27T09:16:30Z</time>
      </trkpt>
      <trkpt lat="45.88466" lon="4.65134">
        <ele>294</ele>
        <time>2017-04-27T09:16:31Z</time>
      </trkpt>
      <trkpt lat="45.8846" lon="4.65142">
        <ele>294</ele>
        <time>2017-04-27T09:16:35Z</time>
      </trkpt>
      <trkpt lat="45.88459" lon="4.65144">
        <ele>294</ele>
        <time>2017-04-27T09:16:36Z</time>
      </trkpt>
      <trkpt lat="45.88453" lon="4.6515">
        <ele>295</ele>
        <time>2017-04-27T09:16:40Z</time>
      </trkpt>
      <trkpt lat="45.88451" lon="4.65152">
        <ele>295</ele>
        <time>2017-04-27T09:16:41Z</time>
      </trkpt>
      <trkpt lat="45.88446" lon="4.65158">
        <ele>295</ele>
        <time>2017-04-27T09:16:45Z</time>
      </trkpt>
      <trkpt lat="45.88444" lon="4.6516">
        <ele>296</ele>
        <time>2017-04-27T09:16:46Z</time>
      </trkpt>
      <trkpt lat="45.88438" lon="4.65168">
        <ele>297</ele>
        <time>2017-04-27T09:16:51Z</time>
      </trkpt>
      <trkpt lat="45.88437" lon="4.65169">
        <ele>297</ele>
        <time>2017-04-27T09:16:52Z</time>
      </trkpt>
      <trkpt lat="45.8843" lon="4.65177">
        <ele>298</ele>
        <time>2017-04-27T09:16:57Z</time>
      </trkpt>
      <trkpt lat="45.88429" lon="4.65179">
        <ele>298</ele>
        <time>2017-04-27T09:16:58Z</time>
      </trkpt>
      <trkpt lat="45.88421" lon="4.65186">
        <ele>298</ele>
        <time>2017-04-27T09:17:03Z</time>
      </trkpt>
      <trkpt lat="45.88421" lon="4.65187">
        <ele>298</ele>
        <time>2017-04-27T09:17:04Z</time>
      </trkpt>
      <trkpt lat="45.88413" lon="4.65193">
        <ele>299</ele>
        <time>2017-04-27T09:17:09Z</time>
      </trkpt>
      <trkpt lat="45.88412" lon="4.65194">
        <ele>299</ele>
        <time>2017-04-27T09:17:10Z</time>
      </trkpt>
      <trkpt lat="45.88405" lon="4.65201">
        <ele>299</ele>
        <time>2017-04-27T09:17:14Z</time>
      </trkpt>
      <trkpt lat="45.88404" lon="4.65202">
        <ele>300</ele>
        <time>2017-04-27T09:17:15Z</time>
      </trkpt>
      <trkpt lat="45.88397" lon="4.65207">
        <ele>300</ele>
        <time>2017-04-27T09:17:18Z</time>
      </trkpt>
      <trkpt lat="45.88395" lon="4.65208">
        <ele>300</ele>
        <time>2017-04-27T09:17:19Z</time>
      </trkpt>
      <trkpt lat="45.88388" lon="4.65212">
        <ele>300</ele>
        <time>2017-04-27T09:17:22Z</time>
      </trkpt>
      <trkpt lat="45.88386" lon="4.65214">
        <ele>300</ele>
        <time>2017-04-27T09:17:23Z</time>
      </trkpt>
      <trkpt lat="45.8838" lon="4.65219">
        <ele>300</ele>
        <time>2017-04-27T09:17:27Z</time>
      </trkpt>
      <trkpt lat="45.88378" lon="4.65221">
        <ele>300</ele>
        <time>2017-04-27T09:17:28Z</time>
      </trkpt>
      <trkpt lat="45.88372" lon="4.65229">
        <ele>300</ele>
        <time>2017-04-27T09:17:32Z</time>
      </trkpt>
      <trkpt lat="45.88371" lon="4.65231">
        <ele>300</ele>
        <time>2017-04-27T09:17:33Z</time>
      </trkpt>
      <trkpt lat="45.88363" lon="4.65239">
        <ele>300</ele>
        <time>2017-04-27T09:17:38Z</time>
      </trkpt>
      <trkpt lat="45.88362" lon="4.6524">
        <ele>300</ele>
        <time>2017-04-27T09:17:39Z</time>
      </trkpt>
      <trkpt lat="45.88355" lon="4.65247">
        <ele>300</ele>
        <time>2017-04-27T09:17:44Z</time>
      </trkpt>
      <trkpt lat="45.88354" lon="4.6525">
        <ele>300</ele>
        <time>2017-04-27T09:17:45Z</time>
      </trkpt>
      <trkpt lat="45.88348" lon="4.65257">
        <ele>301</ele>
        <time>2017-04-27T09:17:49Z</time>
      </trkpt>
      <trkpt lat="45.88346" lon="4.65259">
        <ele>301</ele>
        <time>2017-04-27T09:17:50Z</time>
      </trkpt>
      <trkpt lat="45.88342" lon="4.65266">
        <ele>301</ele>
        <time>2017-04-27T09:17:53Z</time>
      </trkpt>
      <trkpt lat="45.8834" lon="4.65268">
        <ele>301</ele>
        <time>2017-04-27T09:17:54Z</time>
      </trkpt>
      <trkpt lat="45.88333" lon="4.65276">
        <ele>303</ele>
        <time>2017-04-27T09:17:58Z</time>
      </trkpt>
      <trkpt lat="45.88332" lon="4.65277">
        <ele>303</ele>
        <time>2017-04-27T09:17:59Z</time>
      </trkpt>
      <trkpt lat="45.88325" lon="4.65284">
        <ele>304</ele>
        <time>2017-04-27T09:18:03Z</time>
      </trkpt>
      <trkpt lat="45.88324" lon="4.65286">
        <ele>304</ele>
        <time>2017-04-27T09:18:04Z</time>
      </trkpt>
      <trkpt lat="45.88317" lon="4.65294">
        <ele>304</ele>
        <time>2017-04-27T09:18:08Z</time>
      </trkpt>
      <trkpt lat="45.88315" lon="4.65296">
        <ele>304</ele>
        <time>2017-04-27T09:18:09Z</time>
      </trkpt>
      <trkpt lat="45.88309" lon="4.65303">
        <ele>305</ele>
        <time>2017-04-27T09:18:13Z</time>
      </trkpt>
      <trkpt lat="45.88307" lon="4.65306">
        <ele>305</ele>
        <time>2017-04-27T09:18:14Z</time>
      </trkpt>
      <trkpt lat="45.88303" lon="4.65315">
        <ele>305</ele>
        <time>2017-04-27T09:18:18Z</time>
      </trkpt>
      <trkpt lat="45.88302" lon="4.65319">
        <ele>305</ele>
        <time>2017-04-27T09:18:19Z</time>
      </trkpt>
      <trkpt lat="45.88299" lon="4.65327">
        <ele>305</ele>
        <time>2017-04-27T09:18:22Z</time>
      </trkpt>
      <trkpt lat="45.88298" lon="4.6533">
        <ele>305</ele>
        <time>2017-04-27T09:18:23Z</time>
      </trkpt>
      <trkpt lat="45.88293" lon="4.65341">
        <ele>307</ele>
        <time>2017-04-27T09:18:27Z</time>
      </trkpt>
      <trkpt lat="45.88292" lon="4.65344">
        <ele>307</ele>
        <time>2017-04-27T09:18:28Z</time>
      </trkpt>
      <trkpt lat="45.88288" lon="4.65352">
        <ele>308</ele>
        <time>2017-04-27T09:18:31Z</time>
      </trkpt>
      <trkpt lat="45.88287" lon="4.65355">
        <ele>308</ele>
        <time>2017-04-27T09:18:32Z</time>
      </trkpt>
      <trkpt lat="45.88284" lon="4.65363">
        <ele>308</ele>
        <time>2017-04-27T09:18:35Z</time>
      </trkpt>
      <trkpt lat="45.88284" lon="4.65367">
        <ele>308</ele>
        <time>2017-04-27T09:18:36Z</time>
      </trkpt>
      <trkpt lat="45.88281" lon="4.65377">
        <ele>308</ele>
        <time>2017-04-27T09:18:39Z</time>
      </trkpt>
      <trkpt lat="45.8828" lon="4.6538">
        <ele>308</ele>
        <time>2017-04-27T09:18:40Z</time>
      </trkpt>
      <trkpt lat="45.88277" lon="4.65391">
        <ele>308</ele>
        <time>2017-04-27T09:18:44Z</time>
      </trkpt>
      <trkpt lat="45.88276" lon="4.65394">
        <ele>308</ele>
        <time>2017-04-27T09:18:45Z</time>
      </trkpt>
      <trkpt lat="45.88273" lon="4.65405">
        <ele>309</ele>
        <time>2017-04-27T09:18:49Z</time>
      </trkpt>
      <trkpt lat="45.88272" lon="4.65407">
        <ele>309</ele>
        <time>2017-04-27T09:18:50Z</time>
      </trkpt>
      <trkpt lat="45.88268" lon="4.65416">
        <ele>309</ele>
        <time>2017-04-27T09:18:54Z</time>
      </trkpt>
      <trkpt lat="45.88267" lon="4.65419">
        <ele>311</ele>
        <time>2017-04-27T09:18:55Z</time>
      </trkpt>
      <trkpt lat="45.88264" lon="4.6543">
        <ele>311</ele>
        <time>2017-04-27T09:18:59Z</time>
      </trkpt>
      <trkpt lat="45.88263" lon="4.65433">
        <ele>311</ele>
        <time>2017-04-27T09:19:00Z</time>
      </trkpt>
      <trkpt lat="45.8826" lon="4.65444">
        <ele>311</ele>
        <time>2017-04-27T09:19:04Z</time>
      </trkpt>
      <trkpt lat="45.88259" lon="4.65447">
        <ele>311</ele>
        <time>2017-04-27T09:19:05Z</time>
      </trkpt>
      <trkpt lat="45.88255" lon="4.65456">
        <ele>311</ele>
        <time>2017-04-27T09:19:08Z</time>
      </trkpt>
      <trkpt lat="45.88254" lon="4.65459">
        <ele>311</ele>
        <time>2017-04-27T09:19:09Z</time>
      </trkpt>
      <trkpt lat="45.88252" lon="4.6547">
        <ele>312</ele>
        <time>2017-04-27T09:19:13Z</time>
      </trkpt>
      <trkpt lat="45.88251" lon="4.65473">
        <ele>312</ele>
        <time>2017-04-27T09:19:14Z</time>
      </trkpt>
      <trkpt lat="45.88248" lon="4.65483">
        <ele>316</ele>
        <time>2017-04-27T09:19:18Z</time>
      </trkpt>
      <trkpt lat="45.88247" lon="4.65486">
        <ele>316</ele>
        <time>2017-04-27T09:19:19Z</time>
      </trkpt>
      <trkpt lat="45.88244" lon="4.65495">
        <ele>316</ele>
        <time>2017-04-27T09:19:22Z</time>
      </trkpt>
      <trkpt lat="45.88243" lon="4.65498">
        <ele>316</ele>
        <time>2017-04-27T09:19:23Z</time>
      </trkpt>
      <trkpt lat="45.8824" lon="4.6551">
        <ele>317</ele>
        <time>2017-04-27T09:19:27Z</time>
      </trkpt>
      <trkpt lat="45.8824" lon="4.65513">
        <ele>318</ele>
        <time>2017-04-27T09:19:28Z</time>
      </trkpt>
      <trkpt lat="45.88236" lon="4.65522">
        <ele>319</ele>
        <time>2017-04-27T09:19:32Z</time>
      </trkpt>
      <trkpt lat="45.88235" lon="4.65525">
        <ele>319</ele>
        <time>2017-04-27T09:19:33Z</time>
      </trkpt>
      <trkpt lat="45.88232" lon="4.65535">
        <ele>319</ele>
        <time>2017-04-27T09:19:37Z</time>
      </trkpt>
      <trkpt lat="45.88231" lon="4.65537">
        <ele>320</ele>
        <time>2017-04-27T09:19:38Z</time>
      </trkpt>
      <trkpt lat="45.88228" lon="4.65547">
        <ele>320</ele>
        <time>2017-04-27T09:19:42Z</time>
      </trkpt>
      <trkpt lat="45.88227" lon="4.6555">
        <ele>320</ele>
        <time>2017-04-27T09:19:43Z</time>
      </trkpt>
      <trkpt lat="45.88223" lon="4.65561">
        <ele>320</ele>
        <time>2017-04-27T09:19:47Z</time>
      </trkpt>
      <trkpt lat="45.88223" lon="4.65563">
        <ele>320</ele>
        <time>2017-04-27T09:19:48Z</time>
      </trkpt>
      <trkpt lat="45.88219" lon="4.65574">
        <ele>320</ele>
        <time>2017-04-27T09:19:52Z</time>
      </trkpt>
      <trkpt lat="45.88218" lon="4.65576">
        <ele>321</ele>
        <time>2017-04-27T09:19:53Z</time>
      </trkpt>
      <trkpt lat="45.88215" lon="4.65587">
        <ele>321</ele>
        <time>2017-04-27T09:19:57Z</time>
      </trkpt>
      <trkpt lat="45.88214" lon="4.6559">
        <ele>321</ele>
        <time>2017-04-27T09:19:58Z</time>
      </trkpt>
      <trkpt lat="45.8821" lon="4.65599">
        <ele>321</ele>
        <time>2017-04-27T09:20:02Z</time>
      </trkpt>
      <trkpt lat="45.88209" lon="4.65602">
        <ele>321</ele>
        <time>2017-04-27T09:20:03Z</time>
      </trkpt>
      <trkpt lat="45.88205" lon="4.65613">
        <ele>321</ele>
        <time>2017-04-27T09:20:07Z</time>
      </trkpt>
      <trkpt lat="45.88205" lon="4.65616">
        <ele>321</ele>
        <time>2017-04-27T09:20:08Z</time>
      </trkpt>
      <trkpt lat="45.88201" lon="4.65626">
        <ele>321</ele>
        <time>2017-04-27T09:20:12Z</time>
      </trkpt>
      <trkpt lat="45.882" lon="4.6563">
        <ele>321</ele>
        <time>2017-04-27T09:20:13Z</time>
      </trkpt>
      <trkpt lat="45.88196" lon="4.65641">
        <ele>322</ele>
        <time>2017-04-27T09:20:17Z</time>
      </trkpt>
      <trkpt lat="45.88195" lon="4.65643">
        <ele>322</ele>
        <time>2017-04-27T09:20:18Z</time>
      </trkpt>
      <trkpt lat="45.88191" lon="4.65653">
        <ele>322</ele>
        <time>2017-04-27T09:20:22Z</time>
      </trkpt>
      <trkpt lat="45.8819" lon="4.65655">
        <ele>322</ele>
        <time>2017-04-27T09:20:23Z</time>
      </trkpt>
      <trkpt lat="45.88187" lon="4.65664">
        <ele>323</ele>
        <time>2017-04-27T09:20:27Z</time>
      </trkpt>
      <trkpt lat="45.88186" lon="4.65667">
        <ele>322</ele>
        <time>2017-04-27T09:20:28Z</time>
      </trkpt>
      <trkpt lat="45.88182" lon="4.65676">
        <ele>322</ele>
        <time>2017-04-27T09:20:31Z</time>
      </trkpt>
      <trkpt lat="45.88181" lon="4.65678">
        <ele>322</ele>
        <time>2017-04-27T09:20:32Z</time>
      </trkpt>
      <trkpt lat="45.88175" lon="4.65687">
        <ele>322</ele>
        <time>2017-04-27T09:20:36Z</time>
      </trkpt>
      <trkpt lat="45.88174" lon="4.65689">
        <ele>322</ele>
        <time>2017-04-27T09:20:37Z</time>
      </trkpt>
      <trkpt lat="45.8817" lon="4.65699">
        <ele>322</ele>
        <time>2017-04-27T09:20:42Z</time>
      </trkpt>
      <trkpt lat="45.88169" lon="4.65702">
        <ele>322</ele>
        <time>2017-04-27T09:20:43Z</time>
      </trkpt>
      <trkpt lat="45.88164" lon="4.65709">
        <ele>331</ele>
        <time>2017-04-27T09:20:47Z</time>
      </trkpt>
      <trkpt lat="45.88163" lon="4.65712">
        <ele>331</ele>
        <time>2017-04-27T09:20:48Z</time>
      </trkpt>
      <trkpt lat="45.88158" lon="4.6572">
        <ele>331</ele>
        <time>2017-04-27T09:20:52Z</time>
      </trkpt>
      <trkpt lat="45.88156" lon="4.65722">
        <ele>331</ele>
        <time>2017-04-27T09:20:53Z</time>
      </trkpt>
      <trkpt lat="45.8815" lon="4.6573">
        <ele>331</ele>
        <time>2017-04-27T09:20:57Z</time>
      </trkpt>
      <trkpt lat="45.88149" lon="4.65732">
        <ele>331</ele>
        <time>2017-04-27T09:20:58Z</time>
      </trkpt>
      <trkpt lat="45.88142" lon="4.6574">
        <ele>331</ele>
        <time>2017-04-27T09:21:03Z</time>
      </trkpt>
      <trkpt lat="45.88141" lon="4.65741">
        <ele>332</ele>
        <time>2017-04-27T09:21:04Z</time>
      </trkpt>
      <trkpt lat="45.88136" lon="4.65748">
        <ele>332</ele>
        <time>2017-04-27T09:21:08Z</time>
      </trkpt>
      <trkpt lat="45.88135" lon="4.6575">
        <ele>333</ele>
        <time>2017-04-27T09:21:09Z</time>
      </trkpt>
      <trkpt lat="45.88128" lon="4.65758">
        <ele>332</ele>
        <time>2017-04-27T09:21:13Z</time>
      </trkpt>
      <trkpt lat="45.88126" lon="4.6576">
        <ele>333</ele>
        <time>2017-04-27T09:21:14Z</time>
      </trkpt>
      <trkpt lat="45.88119" lon="4.65767">
        <ele>334</ele>
        <time>2017-04-27T09:21:18Z</time>
      </trkpt>
      <trkpt lat="45.88118" lon="4.65768">
        <ele>334</ele>
        <time>2017-04-27T09:21:19Z</time>
      </trkpt>
      <trkpt lat="45.88111" lon="4.65775">
        <ele>334</ele>
        <time>2017-04-27T09:21:23Z</time>
      </trkpt>
      <trkpt lat="45.8811" lon="4.65777">
        <ele>334</ele>
        <time>2017-04-27T09:21:24Z</time>
      </trkpt>
      <trkpt lat="45.88104" lon="4.65785">
        <ele>334</ele>
        <time>2017-04-27T09:21:29Z</time>
      </trkpt>
      <trkpt lat="45.88103" lon="4.65786">
        <ele>334</ele>
        <time>2017-04-27T09:21:30Z</time>
      </trkpt>
      <trkpt lat="45.88096" lon="4.65791">
        <ele>334</ele>
        <time>2017-04-27T09:21:34Z</time>
      </trkpt>
      <trkpt lat="45.88095" lon="4.65793">
        <ele>334</ele>
        <time>2017-04-27T09:21:35Z</time>
      </trkpt>
      <trkpt lat="45.8809" lon="4.65804">
        <ele>334</ele>
        <time>2017-04-27T09:21:41Z</time>
      </trkpt>
      <trkpt lat="45.88089" lon="4.65805">
        <ele>334</ele>
        <time>2017-04-27T09:21:42Z</time>
      </trkpt>
      <trkpt lat="45.88083" lon="4.65812">
        <ele>340</ele>
        <time>2017-04-27T09:21:46Z</time>
      </trkpt>
      <trkpt lat="45.8808" lon="4.65814">
        <ele>340</ele>
        <time>2017-04-27T09:21:47Z</time>
      </trkpt>
      <trkpt lat="45.88073" lon="4.65821">
        <ele>339</ele>
        <time>2017-04-27T09:21:51Z</time>
      </trkpt>
      <trkpt lat="45.88071" lon="4.65822">
        <ele>339</ele>
        <time>2017-04-27T09:21:52Z</time>
      </trkpt>
      <trkpt lat="45.88064" lon="4.65827">
        <ele>340</ele>
        <time>2017-04-27T09:21:55Z</time>
      </trkpt>
      <trkpt lat="45.88061" lon="4.65828">
        <ele>340</ele>
        <time>2017-04-27T09:21:56Z</time>
      </trkpt>
      <trkpt lat="45.88054" lon="4.65833">
        <ele>341</ele>
        <time>2017-04-27T09:21:59Z</time>
      </trkpt>
      <trkpt lat="45.88051" lon="4.65835">
        <ele>337</ele>
        <time>2017-04-27T09:22:00Z</time>
      </trkpt>
      <trkpt lat="45.88044" lon="4.65839">
        <ele>337</ele>
        <time>2017-04-27T09:22:03Z</time>
      </trkpt>
      <trkpt lat="45.88041" lon="4.65841">
        <ele>337</ele>
        <time>2017-04-27T09:22:04Z</time>
      </trkpt>
      <trkpt lat="45.88034" lon="4.65845">
        <ele>338</ele>
        <time>2017-04-27T09:22:07Z</time>
      </trkpt>
      <trkpt lat="45.8803" lon="4.65848">
        <ele>338</ele>
        <time>2017-04-27T09:22:08Z</time>
      </trkpt>
      <trkpt lat="45.88021" lon="4.65851">
        <ele>339</ele>
        <time>2017-04-27T09:22:11Z</time>
      </trkpt>
      <trkpt lat="45.88019" lon="4.65853">
        <ele>339</ele>
        <time>2017-04-27T09:22:12Z</time>
      </trkpt>
      <trkpt lat="45.88013" lon="4.65859">
        <ele>339</ele>
        <time>2017-04-27T09:22:16Z</time>
      </trkpt>
      <trkpt lat="45.88011" lon="4.65861">
        <ele>339</ele>
        <time>2017-04-27T09:22:17Z</time>
      </trkpt>
      <trkpt lat="45.88003" lon="4.65867">
        <ele>338</ele>
        <time>2017-04-27T09:22:20Z</time>
      </trkpt>
      <trkpt lat="45.88" lon="4.65869">
        <ele>338</ele>
        <time>2017-04-27T09:22:21Z</time>
      </trkpt>
      <trkpt lat="45.87992" lon="4.65873">
        <ele>343</ele>
        <time>2017-04-27T09:22:24Z</time>
      </trkpt>
      <trkpt lat="45.8799" lon="4.65875">
        <ele>343</ele>
        <time>2017-04-27T09:22:25Z</time>
      </trkpt>
      <trkpt lat="45.87983" lon="4.6588">
        <ele>343</ele>
        <time>2017-04-27T09:22:28Z</time>
      </trkpt>
      <trkpt lat="45.87981" lon="4.65883">
        <ele>343</ele>
        <time>2017-04-27T09:22:29Z</time>
      </trkpt>
      <trkpt lat="45.87976" lon="4.65889">
        <ele>342</ele>
        <time>2017-04-27T09:22:32Z</time>
      </trkpt>
      <trkpt lat="45.87973" lon="4.65891">
        <ele>342</ele>
        <time>2017-04-27T09:22:33Z</time>
      </trkpt>
      <trkpt lat="45.87966" lon="4.65898">
        <ele>343</ele>
        <time>2017-04-27T09:22:36Z</time>
      </trkpt>
      <trkpt lat="45.87964" lon="4.659">
        <ele>343</ele>
        <time>2017-04-27T09:22:37Z</time>
      </trkpt>
      <trkpt lat="45.87957" lon="4.65909">
        <ele>343</ele>
        <time>2017-04-27T09:22:40Z</time>
      </trkpt>
      <trkpt lat="45.87955" lon="4.65912">
        <ele>343</ele>
        <time>2017-04-27T09:22:41Z</time>
      </trkpt>
      <trkpt lat="45.8795" lon="4.6592">
        <ele>341</ele>
        <time>2017-04-27T09:22:44Z</time>
      </trkpt>
      <trkpt lat="45.87948" lon="4.65923">
        <ele>341</ele>
        <time>2017-04-27T09:22:45Z</time>
      </trkpt>
      <trkpt lat="45.87943" lon="4.65933">
        <ele>341</ele>
        <time>2017-04-27T09:22:48Z</time>
      </trkpt>
      <trkpt lat="45.87941" lon="4.65937">
        <ele>341</ele>
        <time>2017-04-27T09:22:49Z</time>
      </trkpt>
      <trkpt lat="45.87938" lon="4.65945">
        <ele>341</ele>
        <time>2017-04-27T09:22:51Z</time>
      </trkpt>
      <trkpt lat="45.87936" lon="4.65949">
        <ele>341</ele>
        <time>2017-04-27T09:22:52Z</time>
      </trkpt>
      <trkpt lat="45.87933" lon="4.65959">
        <ele>341</ele>
        <time>2017-04-27T09:22:55Z</time>
      </trkpt>
      <trkpt lat="45.87932" lon="4.65962">
        <ele>341</ele>
        <time>2017-04-27T09:22:56Z</time>
      </trkpt>
      <trkpt lat="45.87929" lon="4.65973">
        <ele>341</ele>
        <time>2017-04-27T09:23:00Z</time>
      </trkpt>
      <trkpt lat="45.87929" lon="4.65976">
        <ele>341</ele>
        <time>2017-04-27T09:23:01Z</time>
      </trkpt>
      <trkpt lat="45.87928" lon="4.65985">
        <ele>341</ele>
        <time>2017-04-27T09:23:04Z</time>
      </trkpt>
      <trkpt lat="45.87927" lon="4.65989">
        <ele>342</ele>
        <time>2017-04-27T09:23:05Z</time>
      </trkpt>
      <trkpt lat="45.87924" lon="4.66001">
        <ele>342</ele>
        <time>2017-04-27T09:23:08Z</time>
      </trkpt>
      <trkpt lat="45.87923" lon="4.66005">
        <ele>342</ele>
        <time>2017-04-27T09:23:09Z</time>
      </trkpt>
      <trkpt lat="45.87922" lon="4.66017">
        <ele>342</ele>
        <time>2017-04-27T09:23:12Z</time>
      </trkpt>
      <trkpt lat="45.87922" lon="4.6602">
        <ele>342</ele>
        <time>2017-04-27T09:23:13Z</time>
      </trkpt>
      <trkpt lat="45.87921" lon="4.6603">
        <ele>342</ele>
        <time>2017-04-27T09:23:16Z</time>
      </trkpt>
      <trkpt lat="45.87921" lon="4.66033">
        <ele>342</ele>
        <time>2017-04-27T09:23:17Z</time>
      </trkpt>
      <trkpt lat="45.87921" lon="4.66044">
        <ele>342</ele>
        <time>2017-04-27T09:23:20Z</time>
      </trkpt>
      <trkpt lat="45.87921" lon="4.66047">
        <ele>342</ele>
        <time>2017-04-27T09:23:21Z</time>
      </trkpt>
      <trkpt lat="45.87922" lon="4.6606">
        <ele>342</ele>
        <time>2017-04-27T09:23:25Z</time>
      </trkpt>
      <trkpt lat="45.87922" lon="4.66064">
        <ele>343</ele>
        <time>2017-04-27T09:23:26Z</time>
      </trkpt>
      <trkpt lat="45.87922" lon="4.66074">
        <ele>343</ele>
        <time>2017-04-27T09:23:29Z</time>
      </trkpt>
      <trkpt lat="45.87922" lon="4.66078">
        <ele>343</ele>
        <time>2017-04-27T09:23:30Z</time>
      </trkpt>
      <trkpt lat="45.87923" lon="4.66089">
        <ele>345</ele>
        <time>2017-04-27T09:23:33Z</time>
      </trkpt>
      <trkpt lat="45.87923" lon="4.66092">
        <ele>345</ele>
        <time>2017-04-27T09:23:34Z</time>
      </trkpt>
      <trkpt lat="45.87922" lon="4.66104">
        <ele>346</ele>
        <time>2017-04-27T09:23:37Z</time>
      </trkpt>
      <trkpt lat="45.87922" lon="4.66108">
        <ele>346</ele>
        <time>2017-04-27T09:23:38Z</time>
      </trkpt>
      <trkpt lat="45.87921" lon="4.66119">
        <ele>347</ele>
        <time>2017-04-27T09:23:41Z</time>
      </trkpt>
      <trkpt lat="45.87921" lon="4.66123">
        <ele>348</ele>
        <time>2017-04-27T09:23:42Z</time>
      </trkpt>
      <trkpt lat="45.87921" lon="4.66133">
        <ele>349</ele>
        <time>2017-04-27T09:23:45Z</time>
      </trkpt>
      <trkpt lat="45.87922" lon="4.66136">
        <ele>349</ele>
        <time>2017-04-27T09:23:46Z</time>
      </trkpt>
      <trkpt lat="45.87929" lon="4.6614">
        <ele>349</ele>
        <time>2017-04-27T09:23:49Z</time>
      </trkpt>
      <trkpt lat="45.87932" lon="4.6614">
        <ele>349</ele>
        <time>2017-04-27T09:23:50Z</time>
      </trkpt>
      <trkpt lat="45.8794" lon="4.66141">
        <ele>349</ele>
        <time>2017-04-27T09:23:53Z</time>
      </trkpt>
      <trkpt lat="45.87942" lon="4.66141">
        <ele>349</ele>
        <time>2017-04-27T09:23:54Z</time>
      </trkpt>
      <trkpt lat="45.87949" lon="4.66142">
        <ele>349</ele>
        <time>2017-04-27T09:23:57Z</time>
      </trkpt>
      <trkpt lat="45.87952" lon="4.66142">
        <ele>349</ele>
        <time>2017-04-27T09:23:58Z</time>
      </trkpt>
      <trkpt lat="45.8796" lon="4.66142">
        <ele>348</ele>
        <time>2017-04-27T09:24:01Z</time>
      </trkpt>
      <trkpt lat="45.87962" lon="4.66143">
        <ele>348</ele>
        <time>2017-04-27T09:24:02Z</time>
      </trkpt>
      <trkpt lat="45.87971" lon="4.66142">
        <ele>348</ele>
        <time>2017-04-27T09:24:06Z</time>
      </trkpt>
      <trkpt lat="45.87973" lon="4.66142">
        <ele>348</ele>
        <time>2017-04-27T09:24:07Z</time>
      </trkpt>
      <trkpt lat="45.87982" lon="4.66144">
        <ele>348</ele>
        <time>2017-04-27T09:24:11Z</time>
      </trkpt>
      <trkpt lat="45.87985" lon="4.66144">
        <ele>348</ele>
        <time>2017-04-27T09:24:12Z</time>
      </trkpt>
      <trkpt lat="45.87993" lon="4.66144">
        <ele>349</ele>
        <time>2017-04-27T09:24:15Z</time>
      </trkpt>
      <trkpt lat="45.87996" lon="4.66144">
        <ele>349</ele>
        <time>2017-04-27T09:24:16Z</time>
      </trkpt>
      <trkpt lat="45.88004" lon="4.66143">
        <ele>348</ele>
        <time>2017-04-27T09:24:19Z</time>
      </trkpt>
      <trkpt lat="45.88007" lon="4.66143">
        <ele>348</ele>
        <time>2017-04-27T09:24:20Z</time>
      </trkpt>
      <trkpt lat="45.88016" lon="4.66142">
        <ele>348</ele>
        <time>2017-04-27T09:24:23Z</time>
      </trkpt>
      <trkpt lat="45.88019" lon="4.66142">
        <ele>348</ele>
        <time>2017-04-27T09:24:24Z</time>
      </trkpt>
      <trkpt lat="45.88025" lon="4.66142">
        <ele>348</ele>
        <time>2017-04-27T09:24:26Z</time>
      </trkpt>
      <trkpt lat="45.88028" lon="4.66142">
        <ele>348</ele>
        <time>2017-04-27T09:24:27Z</time>
      </trkpt>
      <trkpt lat="45.88035" lon="4.66142">
        <ele>348</ele>
        <time>2017-04-27T09:24:29Z</time>
      </trkpt>
      <trkpt lat="45.88038" lon="4.66141">
        <ele>348</ele>
        <time>2017-04-27T09:24:30Z</time>
      </trkpt>
      <trkpt lat="45.88045" lon="4.66141">
        <ele>348</ele>
        <time>2017-04-27T09:24:32Z</time>
      </trkpt>
      <trkpt lat="45.88048" lon="4.66141">
        <ele>348</ele>
        <time>2017-04-27T09:24:33Z</time>
      </trkpt>
      <trkpt lat="45.88056" lon="4.6614">
        <ele>348</ele>
        <time>2017-04-27T09:24:36Z</time>
      </trkpt>
      <trkpt lat="45.88059" lon="4.6614">
        <ele>348</ele>
        <time>2017-04-27T09:24:37Z</time>
      </trkpt>
      <trkpt lat="45.88065" lon="4.6614">
        <ele>348</ele>
        <time>2017-04-27T09:24:39Z</time>
      </trkpt>
      <trkpt lat="45.88068" lon="4.6614">
        <ele>348</ele>
        <time>2017-04-27T09:24:40Z</time>
      </trkpt>
      <trkpt lat="45.88075" lon="4.6614">
        <ele>348</ele>
        <time>2017-04-27T09:24:42Z</time>
      </trkpt>
      <trkpt lat="45.88078" lon="4.6614">
        <ele>348</ele>
        <time>2017-04-27T09:24:43Z</time>
      </trkpt>
      <trkpt lat="45.88084" lon="4.66139">
        <ele>349</ele>
        <time>2017-04-27T09:24:45Z</time>
      </trkpt>
      <trkpt lat="45.88088" lon="4.66139">
        <ele>349</ele>
        <time>2017-04-27T09:24:46Z</time>
      </trkpt>
      <trkpt lat="45.88096" lon="4.66138">
        <ele>349</ele>
        <time>2017-04-27T09:24:48Z</time>
      </trkpt>
      <trkpt lat="45.88099" lon="4.66137">
        <ele>349</ele>
        <time>2017-04-27T09:24:49Z</time>
      </trkpt>
      <trkpt lat="45.88106" lon="4.66136">
        <ele>349</ele>
        <time>2017-04-27T09:24:51Z</time>
      </trkpt>
      <trkpt lat="45.8811" lon="4.66136">
        <ele>349</ele>
        <time>2017-04-27T09:24:52Z</time>
      </trkpt>
      <trkpt lat="45.88116" lon="4.66135">
        <ele>349</ele>
        <time>2017-04-27T09:24:54Z</time>
      </trkpt>
      <trkpt lat="45.88119" lon="4.66135">
        <ele>349</ele>
        <time>2017-04-27T09:24:55Z</time>
      </trkpt>
      <trkpt lat="45.88127" lon="4.66135">
        <ele>349</ele>
        <time>2017-04-27T09:24:58Z</time>
      </trkpt>
      <trkpt lat="45.8813" lon="4.66135">
        <ele>349</ele>
        <time>2017-04-27T09:24:59Z</time>
      </trkpt>
      <trkpt lat="45.88136" lon="4.66134">
        <ele>349</ele>
        <time>2017-04-27T09:25:01Z</time>
      </trkpt>
      <trkpt lat="45.8814" lon="4.66134">
        <ele>349</ele>
        <time>2017-04-27T09:25:02Z</time>
      </trkpt>
      <trkpt lat="45.88146" lon="4.66133">
        <ele>349</ele>
        <time>2017-04-27T09:25:04Z</time>
      </trkpt>
      <trkpt lat="45.88149" lon="4.66133">
        <ele>349</ele>
        <time>2017-04-27T09:25:05Z</time>
      </trkpt>
      <trkpt lat="45.88157" lon="4.66131">
        <ele>349</ele>
        <time>2017-04-27T09:25:08Z</time>
      </trkpt>
      <trkpt lat="45.8816" lon="4.6613">
        <ele>349</ele>
        <time>2017-04-27T09:25:09Z</time>
      </trkpt>
      <trkpt lat="45.88168" lon="4.6613">
        <ele>350</ele>
        <time>2017-04-27T09:25:11Z</time>
      </trkpt>
      <trkpt lat="45.88172" lon="4.66131">
        <ele>350</ele>
        <time>2017-04-27T09:25:12Z</time>
      </trkpt>
      <trkpt lat="45.88179" lon="4.66131">
        <ele>350</ele>
        <time>2017-04-27T09:25:14Z</time>
      </trkpt>
      <trkpt lat="45.88182" lon="4.66131">
        <ele>350</ele>
        <time>2017-04-27T09:25:15Z</time>
      </trkpt>
      <trkpt lat="45.8819" lon="4.66131">
        <ele>350</ele>
        <time>2017-04-27T09:25:18Z</time>
      </trkpt>
      <trkpt lat="45.88192" lon="4.66132">
        <ele>350</ele>
        <time>2017-04-27T09:25:19Z</time>
      </trkpt>
      <trkpt lat="45.88199" lon="4.66132">
        <ele>350</ele>
        <time>2017-04-27T09:25:22Z</time>
      </trkpt>
      <trkpt lat="45.88202" lon="4.66132">
        <ele>350</ele>
        <time>2017-04-27T09:25:23Z</time>
      </trkpt>
      <trkpt lat="45.8821" lon="4.66133">
        <ele>350</ele>
        <time>2017-04-27T09:25:26Z</time>
      </trkpt>
      <trkpt lat="45.88212" lon="4.66133">
        <ele>350</ele>
        <time>2017-04-27T09:25:27Z</time>
      </trkpt>
      <trkpt lat="45.88221" lon="4.66133">
        <ele>350</ele>
        <time>2017-04-27T09:25:30Z</time>
      </trkpt>
      <trkpt lat="45.88223" lon="4.66133">
        <ele>350</ele>
        <time>2017-04-27T09:25:31Z</time>
      </trkpt>
      <trkpt lat="45.88232" lon="4.66134">
        <ele>350</ele>
        <time>2017-04-27T09:25:34Z</time>
      </trkpt>
      <trkpt lat="45.88234" lon="4.66135">
        <ele>350</ele>
        <time>2017-04-27T09:25:35Z</time>
      </trkpt>
      <trkpt lat="45.88242" lon="4.66136">
        <ele>350</ele>
        <time>2017-04-27T09:25:38Z</time>
      </trkpt>
      <trkpt lat="45.88245" lon="4.66137">
        <ele>350</ele>
        <time>2017-04-27T09:25:39Z</time>
      </trkpt>
      <trkpt lat="45.88252" lon="4.66138">
        <ele>352</ele>
        <time>2017-04-27T09:25:42Z</time>
      </trkpt>
      <trkpt lat="45.88255" lon="4.66138">
        <ele>352</ele>
        <time>2017-04-27T09:25:43Z</time>
      </trkpt>
      <trkpt lat="45.88263" lon="4.66138">
        <ele>352</ele>
        <time>2017-04-27T09:25:46Z</time>
      </trkpt>
      <trkpt lat="45.88265" lon="4.66138">
        <ele>352</ele>
        <time>2017-04-27T09:25:47Z</time>
      </trkpt>
      <trkpt lat="45.88273" lon="4.66139">
        <ele>352</ele>
        <time>2017-04-27T09:25:50Z</time>
      </trkpt>
      <trkpt lat="45.88275" lon="4.66139">
        <ele>352</ele>
        <time>2017-04-27T09:25:51Z</time>
      </trkpt>
      <trkpt lat="45.88283" lon="4.66139">
        <ele>352</ele>
        <time>2017-04-27T09:25:54Z</time>
      </trkpt>
      <trkpt lat="45.88285" lon="4.66138">
        <ele>352</ele>
        <time>2017-04-27T09:25:55Z</time>
      </trkpt>
      <trkpt lat="45.88292" lon="4.6614">
        <ele>353</ele>
        <time>2017-04-27T09:25:58Z</time>
      </trkpt>
      <trkpt lat="45.88294" lon="4.6614">
        <ele>353</ele>
        <time>2017-04-27T09:25:59Z</time>
      </trkpt>
      <trkpt lat="45.88301" lon="4.6614">
        <ele>353</ele>
        <time>2017-04-27T09:26:02Z</time>
      </trkpt>
      <trkpt lat="45.88304" lon="4.6614">
        <ele>353</ele>
        <time>2017-04-27T09:26:03Z</time>
      </trkpt>
      <trkpt lat="45.88312" lon="4.6614">
        <ele>353</ele>
        <time>2017-04-27T09:26:06Z</time>
      </trkpt>
      <trkpt lat="45.88315" lon="4.66141">
        <ele>354</ele>
        <time>2017-04-27T09:26:07Z</time>
      </trkpt>
      <trkpt lat="45.88323" lon="4.66142">
        <ele>354</ele>
        <time>2017-04-27T09:26:10Z</time>
      </trkpt>
      <trkpt lat="45.88326" lon="4.66143">
        <ele>354</ele>
        <time>2017-04-27T09:26:11Z</time>
      </trkpt>
      <trkpt lat="45.88333" lon="4.66142">
        <ele>355</ele>
        <time>2017-04-27T09:26:14Z</time>
      </trkpt>
      <trkpt lat="45.88336" lon="4.66143">
        <ele>357</ele>
        <time>2017-04-27T09:26:15Z</time>
      </trkpt>
      <trkpt lat="45.88343" lon="4.66142">
        <ele>357</ele>
        <time>2017-04-27T09:26:18Z</time>
      </trkpt>
      <trkpt lat="45.88345" lon="4.66142">
        <ele>357</ele>
        <time>2017-04-27T09:26:19Z</time>
      </trkpt>
      <trkpt lat="45.88354" lon="4.66143">
        <ele>357</ele>
        <time>2017-04-27T09:26:23Z</time>
      </trkpt>
      <trkpt lat="45.88356" lon="4.66143">
        <ele>357</ele>
        <time>2017-04-27T09:26:24Z</time>
      </trkpt>
      <trkpt lat="45.88364" lon="4.66144">
        <ele>357</ele>
        <time>2017-04-27T09:26:28Z</time>
      </trkpt>
      <trkpt lat="45.88366" lon="4.66145">
        <ele>357</ele>
        <time>2017-04-27T09:26:29Z</time>
      </trkpt>
      <trkpt lat="45.88375" lon="4.66146">
        <ele>357</ele>
        <time>2017-04-27T09:26:33Z</time>
      </trkpt>
      <trkpt lat="45.88377" lon="4.66145">
        <ele>357</ele>
        <time>2017-04-27T09:26:34Z</time>
      </trkpt>
      <trkpt lat="45.88384" lon="4.66145">
        <ele>357</ele>
        <time>2017-04-27T09:26:37Z</time>
      </trkpt>
      <trkpt lat="45.88386" lon="4.66145">
        <ele>358</ele>
        <time>2017-04-27T09:26:38Z</time>
      </trkpt>
      <trkpt lat="45.88393" lon="4.66145">
        <ele>358</ele>
        <time>2017-04-27T09:26:41Z</time>
      </trkpt>
      <trkpt lat="45.88396" lon="4.66145">
        <ele>358</ele>
        <time>2017-04-27T09:26:42Z</time>
      </trkpt>
      <trkpt lat="45.88403" lon="4.66146">
        <ele>359</ele>
        <time>2017-04-27T09:26:46Z</time>
      </trkpt>
      <trkpt lat="45.88405" lon="4.66146">
        <ele>359</ele>
        <time>2017-04-27T09:26:47Z</time>
      </trkpt>
      <trkpt lat="45.88412" lon="4.66146">
        <ele>359</ele>
        <time>2017-04-27T09:26:51Z</time>
      </trkpt>
      <trkpt lat="45.88414" lon="4.66146">
        <ele>359</ele>
        <time>2017-04-27T09:26:52Z</time>
      </trkpt>
      <trkpt lat="45.88423" lon="4.66147">
        <ele>361</ele>
        <time>2017-04-27T09:26:57Z</time>
      </trkpt>
      <trkpt lat="45.88425" lon="4.66147">
        <ele>361</ele>
        <time>2017-04-27T09:26:58Z</time>
      </trkpt>
      <trkpt lat="45.88433" lon="4.66149">
        <ele>361</ele>
        <time>2017-04-27T09:27:02Z</time>
      </trkpt>
      <trkpt lat="45.88435" lon="4.66149">
        <ele>361</ele>
        <time>2017-04-27T09:27:03Z</time>
      </trkpt>
      <trkpt lat="45.88443" lon="4.6615">
        <ele>361</ele>
        <time>2017-04-27T09:27:08Z</time>
      </trkpt>
      <trkpt lat="45.88445" lon="4.6615">
        <ele>361</ele>
        <time>2017-04-27T09:27:09Z</time>
      </trkpt>
      <trkpt lat="45.88454" lon="4.66152">
        <ele>361</ele>
        <time>2017-04-27T09:27:14Z</time>
      </trkpt>
      <trkpt lat="45.88456" lon="4.66152">
        <ele>361</ele>
        <time>2017-04-27T09:27:15Z</time>
      </trkpt>
      <trkpt lat="45.88463" lon="4.66153">
        <ele>362</ele>
        <time>2017-04-27T09:27:19Z</time>
      </trkpt>
      <trkpt lat="45.88465" lon="4.66154">
        <ele>362</ele>
        <time>2017-04-27T09:27:20Z</time>
      </trkpt>
      <trkpt lat="45.88473" lon="4.66157">
        <ele>362</ele>
        <time>2017-04-27T09:27:25Z</time>
      </trkpt>
      <trkpt lat="45.88475" lon="4.66158">
        <ele>363</ele>
        <time>2017-04-27T09:27:26Z</time>
      </trkpt>
      <trkpt lat="45.88483" lon="4.66163">
        <ele>364</ele>
        <time>2017-04-27T09:27:31Z</time>
      </trkpt>
      <trkpt lat="45.88484" lon="4.66164">
        <ele>364</ele>
        <time>2017-04-27T09:27:32Z</time>
      </trkpt>
      <trkpt lat="45.88491" lon="4.66171">
        <ele>368</ele>
        <time>2017-04-27T09:27:38Z</time>
      </trkpt>
      <trkpt lat="45.88493" lon="4.66172">
        <ele>368</ele>
        <time>2017-04-27T09:27:39Z</time>
      </trkpt>
      <trkpt lat="45.885" lon="4.66178">
        <ele>369</ele>
        <time>2017-04-27T09:27:43Z</time>
      </trkpt>
      <trkpt lat="45.88502" lon="4.66179">
        <ele>368</ele>
        <time>2017-04-27T09:27:44Z</time>
      </trkpt>
      <trkpt lat="45.8851" lon="4.66184">
        <ele>369</ele>
        <time>2017-04-27T09:27:48Z</time>
      </trkpt>
      <trkpt lat="45.88512" lon="4.66185">
        <ele>369</ele>
        <time>2017-04-27T09:27:49Z</time>
      </trkpt>
      <trkpt lat="45.88519" lon="4.66189">
        <ele>369</ele>
        <time>2017-04-27T09:27:53Z</time>
      </trkpt>
      <trkpt lat="45.88521" lon="4.66191">
        <ele>369</ele>
        <time>2017-04-27T09:27:54Z</time>
      </trkpt>
      <trkpt lat="45.88528" lon="4.66197">
        <ele>370</ele>
        <time>2017-04-27T09:27:58Z</time>
      </trkpt>
      <trkpt lat="45.88529" lon="4.66199">
        <ele>370</ele>
        <time>2017-04-27T09:27:59Z</time>
      </trkpt>
      <trkpt lat="45.88536" lon="4.66206">
        <ele>370</ele>
        <time>2017-04-27T09:28:03Z</time>
      </trkpt>
      <trkpt lat="45.88537" lon="4.66208">
        <ele>370</ele>
        <time>2017-04-27T09:28:04Z</time>
      </trkpt>
      <trkpt lat="45.88545" lon="4.66214">
        <ele>370</ele>
        <time>2017-04-27T09:28:08Z</time>
      </trkpt>
      <trkpt lat="45.88547" lon="4.66216">
        <ele>370</ele>
        <time>2017-04-27T09:28:09Z</time>
      </trkpt>
      <trkpt lat="45.88553" lon="4.66223">
        <ele>370</ele>
        <time>2017-04-27T09:28:13Z</time>
      </trkpt>
      <trkpt lat="45.88555" lon="4.66225">
        <ele>370</ele>
        <time>2017-04-27T09:28:14Z</time>
      </trkpt>
      <trkpt lat="45.88561" lon="4.66233">
        <ele>371</ele>
        <time>2017-04-27T09:28:18Z</time>
      </trkpt>
      <trkpt lat="45.88563" lon="4.66234">
        <ele>371</ele>
        <time>2017-04-27T09:28:19Z</time>
      </trkpt>
      <trkpt lat="45.8857" lon="4.6624">
        <ele>371</ele>
        <time>2017-04-27T09:28:23Z</time>
      </trkpt>
      <trkpt lat="45.88571" lon="4.66243">
        <ele>371</ele>
        <time>2017-04-27T09:28:24Z</time>
      </trkpt>
      <trkpt lat="45.88577" lon="4.66251">
        <ele>373</ele>
        <time>2017-04-27T09:28:28Z</time>
      </trkpt>
      <trkpt lat="45.88578" lon="4.66253">
        <ele>373</ele>
        <time>2017-04-27T09:28:29Z</time>
      </trkpt>
      <trkpt lat="45.88584" lon="4.66262">
        <ele>372</ele>
        <time>2017-04-27T09:28:33Z</time>
      </trkpt>
      <trkpt lat="45.88585" lon="4.66263">
        <ele>372</ele>
        <time>2017-04-27T09:28:34Z</time>
      </trkpt>
      <trkpt lat="45.88591" lon="4.66271">
        <ele>372</ele>
        <time>2017-04-27T09:28:38Z</time>
      </trkpt>
      <trkpt lat="45.88593" lon="4.66273">
        <ele>372</ele>
        <time>2017-04-27T09:28:39Z</time>
      </trkpt>
      <trkpt lat="45.88598" lon="4.66282">
        <ele>373</ele>
        <time>2017-04-27T09:28:43Z</time>
      </trkpt>
      <trkpt lat="45.88599" lon="4.66285">
        <ele>373</ele>
        <time>2017-04-27T09:28:44Z</time>
      </trkpt>
      <trkpt lat="45.88605" lon="4.66295">
        <ele>373</ele>
        <time>2017-04-27T09:28:48Z</time>
      </trkpt>
      <trkpt lat="45.88606" lon="4.66297">
        <ele>373</ele>
        <time>2017-04-27T09:28:49Z</time>
      </trkpt>
      <trkpt lat="45.88611" lon="4.66307">
        <ele>374</ele>
        <time>2017-04-27T09:28:53Z</time>
      </trkpt>
      <trkpt lat="45.88612" lon="4.66309">
        <ele>374</ele>
        <time>2017-04-27T09:28:54Z</time>
      </trkpt>
      <trkpt lat="45.88617" lon="4.66318">
        <ele>374</ele>
        <time>2017-04-27T09:28:58Z</time>
      </trkpt>
      <trkpt lat="45.88619" lon="4.66321">
        <ele>374</ele>
        <time>2017-04-27T09:28:59Z</time>
      </trkpt>
      <trkpt lat="45.88624" lon="4.66331">
        <ele>374</ele>
        <time>2017-04-27T09:29:03Z</time>
      </trkpt>
      <trkpt lat="45.88626" lon="4.66333">
        <ele>374</ele>
        <time>2017-04-27T09:29:04Z</time>
      </trkpt>
      <trkpt lat="45.88631" lon="4.66343">
        <ele>380</ele>
        <time>2017-04-27T09:29:08Z</time>
      </trkpt>
      <trkpt lat="45.88633" lon="4.66345">
        <ele>380</ele>
        <time>2017-04-27T09:29:09Z</time>
      </trkpt>
      <trkpt lat="45.88637" lon="4.66353">
        <ele>380</ele>
        <time>2017-04-27T09:29:12Z</time>
      </trkpt>
      <trkpt lat="45.88639" lon="4.66355">
        <ele>380</ele>
        <time>2017-04-27T09:29:13Z</time>
      </trkpt>
      <trkpt lat="45.88645" lon="4.66364">
        <ele>380</ele>
        <time>2017-04-27T09:29:17Z</time>
      </trkpt>
      <trkpt lat="45.88646" lon="4.66367">
        <ele>380</ele>
        <time>2017-04-27T09:29:18Z</time>
      </trkpt>
      <trkpt lat="45.88652" lon="4.66376">
        <ele>381</ele>
        <time>2017-04-27T09:29:22Z</time>
      </trkpt>
      <trkpt lat="45.88654" lon="4.66378">
        <ele>381</ele>
        <time>2017-04-27T09:29:23Z</time>
      </trkpt>
      <trkpt lat="45.88661" lon="4.66386">
        <ele>381</ele>
        <time>2017-04-27T09:29:27Z</time>
      </trkpt>
      <trkpt lat="45.88663" lon="4.66387">
        <ele>382</ele>
        <time>2017-04-27T09:29:28Z</time>
      </trkpt>
      <trkpt lat="45.8867" lon="4.66394">
        <ele>378</ele>
        <time>2017-04-27T09:29:32Z</time>
      </trkpt>
      <trkpt lat="45.88672" lon="4.66396">
        <ele>379</ele>
        <time>2017-04-27T09:29:33Z</time>
      </trkpt>
      <trkpt lat="45.88679" lon="4.66403">
        <ele>379</ele>
        <time>2017-04-27T09:29:37Z</time>
      </trkpt>
      <trkpt lat="45.8868" lon="4.66405">
        <ele>379</ele>
        <time>2017-04-27T09:29:38Z</time>
      </trkpt>
      <trkpt lat="45.88686" lon="4.6641">
        <ele>379</ele>
        <time>2017-04-27T09:29:41Z</time>
      </trkpt>
      <trkpt lat="45.88688" lon="4.66412">
        <ele>379</ele>
        <time>2017-04-27T09:29:42Z</time>
      </trkpt>
      <trkpt lat="45.88694" lon="4.66418">
        <ele>384</ele>
        <time>2017-04-27T09:29:45Z</time>
      </trkpt>
      <trkpt lat="45.88696" lon="4.6642">
        <ele>384</ele>
        <time>2017-04-27T09:29:46Z</time>
      </trkpt>
      <trkpt lat="45.88702" lon="4.66425">
        <ele>384</ele>
        <time>2017-04-27T09:29:49Z</time>
      </trkpt>
      <trkpt lat="45.88704" lon="4.66427">
        <ele>384</ele>
        <time>2017-04-27T09:29:50Z</time>
      </trkpt>
      <trkpt lat="45.8871" lon="4.66435">
        <ele>384</ele>
        <time>2017-04-27T09:29:54Z</time>
      </trkpt>
      <trkpt lat="45.88711" lon="4.66437">
        <ele>384</ele>
        <time>2017-04-27T09:29:55Z</time>
      </trkpt>
      <trkpt lat="45.88717" lon="4.66442">
        <ele>384</ele>
        <time>2017-04-27T09:29:58Z</time>
      </trkpt>
      <trkpt lat="45.88719" lon="4.66445">
        <ele>384</ele>
        <time>2017-04-27T09:29:59Z</time>
      </trkpt>
      <trkpt lat="45.88725" lon="4.66451">
        <ele>384</ele>
        <time>2017-04-27T09:30:02Z</time>
      </trkpt>
      <trkpt lat="45.88727" lon="4.66453">
        <ele>384</ele>
        <time>2017-04-27T09:30:03Z</time>
      </trkpt>
      <trkpt lat="45.88734" lon="4.66461">
        <ele>384</ele>
        <time>2017-04-27T09:30:07Z</time>
      </trkpt>
      <trkpt lat="45.88735" lon="4.66463">
        <ele>384</ele>
        <time>2017-04-27T09:30:08Z</time>
      </trkpt>
      <trkpt lat="45.88742" lon="4.6647">
        <ele>385</ele>
        <time>2017-04-27T09:30:12Z</time>
      </trkpt>
      <trkpt lat="45.88743" lon="4.66472">
        <ele>385</ele>
        <time>2017-04-27T09:30:13Z</time>
      </trkpt>
      <trkpt lat="45.88749" lon="4.6648">
        <ele>385</ele>
        <time>2017-04-27T09:30:17Z</time>
      </trkpt>
      <trkpt lat="45.88751" lon="4.66482">
        <ele>384</ele>
        <time>2017-04-27T09:30:18Z</time>
      </trkpt>
      <trkpt lat="45.88757" lon="4.6649">
        <ele>385</ele>
        <time>2017-04-27T09:30:22Z</time>
      </trkpt>
      <trkpt lat="45.88758" lon="4.66492">
        <ele>385</ele>
        <time>2017-04-27T09:30:23Z</time>
      </trkpt>
      <trkpt lat="45.88763" lon="4.66498">
        <ele>385</ele>
        <time>2017-04-27T09:30:26Z</time>
      </trkpt>
      <trkpt lat="45.88765" lon="4.66501">
        <ele>389</ele>
        <time>2017-04-27T09:30:27Z</time>
      </trkpt>
      <trkpt lat="45.88771" lon="4.66508">
        <ele>389</ele>
        <time>2017-04-27T09:30:31Z</time>
      </trkpt>
      <trkpt lat="45.88772" lon="4.6651">
        <ele>390</ele>
        <time>2017-04-27T09:30:32Z</time>
      </trkpt>
      <trkpt lat="45.88778" lon="4.66518">
        <ele>390</ele>
        <time>2017-04-27T09:30:36Z</time>
      </trkpt>
      <trkpt lat="45.8878" lon="4.66519">
        <ele>390</ele>
        <time>2017-04-27T09:30:37Z</time>
      </trkpt>
      <trkpt lat="45.88786" lon="4.66526">
        <ele>391</ele>
        <time>2017-04-27T09:30:41Z</time>
      </trkpt>
      <trkpt lat="45.88788" lon="4.66529">
        <ele>391</ele>
        <time>2017-04-27T09:30:42Z</time>
      </trkpt>
      <trkpt lat="45.88794" lon="4.66535">
        <ele>391</ele>
        <time>2017-04-27T09:30:46Z</time>
      </trkpt>
      <trkpt lat="45.88796" lon="4.66536">
        <ele>391</ele>
        <time>2017-04-27T09:30:47Z</time>
      </trkpt>
      <trkpt lat="45.88802" lon="4.66541">
        <ele>391</ele>
        <time>2017-04-27T09:30:51Z</time>
      </trkpt>
      <trkpt lat="45.88804" lon="4.66542">
        <ele>392</ele>
        <time>2017-04-27T09:30:52Z</time>
      </trkpt>
      <trkpt lat="45.88811" lon="4.66547">
        <ele>392</ele>
        <time>2017-04-27T09:30:56Z</time>
      </trkpt>
      <trkpt lat="45.88813" lon="4.66549">
        <ele>392</ele>
        <time>2017-04-27T09:30:57Z</time>
      </trkpt>
      <trkpt lat="45.88821" lon="4.66552">
        <ele>392</ele>
        <time>2017-04-27T09:31:01Z</time>
      </trkpt>
      <trkpt lat="45.88822" lon="4.66553">
        <ele>392</ele>
        <time>2017-04-27T09:31:02Z</time>
      </trkpt>
      <trkpt lat="45.8883" lon="4.66558">
        <ele>393</ele>
        <time>2017-04-27T09:31:07Z</time>
      </trkpt>
      <trkpt lat="45.88831" lon="4.66559">
        <ele>393</ele>
        <time>2017-04-27T09:31:08Z</time>
      </trkpt>
      <trkpt lat="45.88838" lon="4.66561">
        <ele>392</ele>
        <time>2017-04-27T09:31:12Z</time>
      </trkpt>
      <trkpt lat="45.8884" lon="4.66562">
        <ele>392</ele>
        <time>2017-04-27T09:31:13Z</time>
      </trkpt>
      <trkpt lat="45.88847" lon="4.66567">
        <ele>392</ele>
        <time>2017-04-27T09:31:17Z</time>
      </trkpt>
      <trkpt lat="45.88848" lon="4.66569">
        <ele>392</ele>
        <time>2017-04-27T09:31:18Z</time>
      </trkpt>
      <trkpt lat="45.88854" lon="4.66575">
        <ele>392</ele>
        <time>2017-04-27T09:31:22Z</time>
      </trkpt>
      <trkpt lat="45.88855" lon="4.66577">
        <ele>392</ele>
        <time>2017-04-27T09:31:23Z</time>
      </trkpt>
      <trkpt lat="45.88862" lon="4.66583">
        <ele>392</ele>
        <time>2017-04-27T09:31:27Z</time>
      </trkpt>
      <trkpt lat="45.88864" lon="4.66586">
        <ele>399</ele>
        <time>2017-04-27T09:31:28Z</time>
      </trkpt>
      <trkpt lat="45.88869" lon="4.66593">
        <ele>399</ele>
        <time>2017-04-27T09:31:32Z</time>
      </trkpt>
      <trkpt lat="45.8887" lon="4.66595">
        <ele>399</ele>
        <time>2017-04-27T09:31:33Z</time>
      </trkpt>
      <trkpt lat="45.88876" lon="4.66604">
        <ele>400</ele>
        <time>2017-04-27T09:31:37Z</time>
      </trkpt>
      <trkpt lat="45.88878" lon="4.66606">
        <ele>400</ele>
        <time>2017-04-27T09:31:38Z</time>
      </trkpt>
      <trkpt lat="45.88882" lon="4.66614">
        <ele>400</ele>
        <time>2017-04-27T09:31:42Z</time>
      </trkpt>
      <trkpt lat="45.88883" lon="4.66616">
        <ele>400</ele>
        <time>2017-04-27T09:31:43Z</time>
      </trkpt>
      <trkpt lat="45.88889" lon="4.66625">
        <ele>401</ele>
        <time>2017-04-27T09:31:48Z</time>
      </trkpt>
      <trkpt lat="45.88891" lon="4.66627">
        <ele>401</ele>
        <time>2017-04-27T09:31:49Z</time>
      </trkpt>
      <trkpt lat="45.88897" lon="4.66636">
        <ele>402</ele>
        <time>2017-04-27T09:31:54Z</time>
      </trkpt>
      <trkpt lat="45.88898" lon="4.66638">
        <ele>402</ele>
        <time>2017-04-27T09:31:55Z</time>
      </trkpt>
      <trkpt lat="45.88902" lon="4.66648">
        <ele>403</ele>
        <time>2017-04-27T09:31:59Z</time>
      </trkpt>
      <trkpt lat="45.88904" lon="4.6665">
        <ele>403</ele>
        <time>2017-04-27T09:32:00Z</time>
      </trkpt>
      <trkpt lat="45.88909" lon="4.66656">
        <ele>404</ele>
        <time>2017-04-27T09:32:03Z</time>
      </trkpt>
      <trkpt lat="45.8891" lon="4.66658">
        <ele>404</ele>
        <time>2017-04-27T09:32:04Z</time>
      </trkpt>
      <trkpt lat="45.88916" lon="4.66664">
        <ele>405</ele>
        <time>2017-04-27T09:32:07Z</time>
      </trkpt>
      <trkpt lat="45.88918" lon="4.66665">
        <ele>405</ele>
        <time>2017-04-27T09:32:08Z</time>
      </trkpt>
      <trkpt lat="45.88925" lon="4.66671">
        <ele>407</ele>
        <time>2017-04-27T09:32:12Z</time>
      </trkpt>
      <trkpt lat="45.88927" lon="4.66672">
        <ele>407</ele>
        <time>2017-04-27T09:32:13Z</time>
      </trkpt>
      <trkpt lat="45.88932" lon="4.66677">
        <ele>408</ele>
        <time>2017-04-27T09:32:16Z</time>
      </trkpt>
      <trkpt lat="45.88935" lon="4.66679">
        <ele>408</ele>
        <time>2017-04-27T09:32:17Z</time>
      </trkpt>
      <trkpt lat="45.8894" lon="4.66683">
        <ele>408</ele>
        <time>2017-04-27T09:32:19Z</time>
      </trkpt>
      <trkpt lat="45.88943" lon="4.66685">
        <ele>408</ele>
        <time>2017-04-27T09:32:20Z</time>
      </trkpt>
      <trkpt lat="45.8895" lon="4.6669">
        <ele>409</ele>
        <time>2017-04-27T09:32:23Z</time>
      </trkpt>
      <trkpt lat="45.88951" lon="4.66691">
        <ele>409</ele>
        <time>2017-04-27T09:32:24Z</time>
      </trkpt>
      <trkpt lat="45.88958" lon="4.66696">
        <ele>409</ele>
        <time>2017-04-27T09:32:27Z</time>
      </trkpt>
      <trkpt lat="45.8896" lon="4.66698">
        <ele>409</ele>
        <time>2017-04-27T09:32:28Z</time>
      </trkpt>
      <trkpt lat="45.88966" lon="4.66701">
        <ele>409</ele>
        <time>2017-04-27T09:32:30Z</time>
      </trkpt>
      <trkpt lat="45.88969" lon="4.66702">
        <ele>409</ele>
        <time>2017-04-27T09:32:31Z</time>
      </trkpt>
      <trkpt lat="45.88976" lon="4.66705">
        <ele>409</ele>
        <time>2017-04-27T09:32:34Z</time>
      </trkpt>
      <trkpt lat="45.88978" lon="4.66706">
        <ele>409</ele>
        <time>2017-04-27T09:32:35Z</time>
      </trkpt>
      <trkpt lat="45.88987" lon="4.66709">
        <ele>409</ele>
        <time>2017-04-27T09:32:39Z</time>
      </trkpt>
      <trkpt lat="45.88989" lon="4.6671">
        <ele>409</ele>
        <time>2017-04-27T09:32:40Z</time>
      </trkpt>
      <trkpt lat="45.88996" lon="4.66712">
        <ele>410</ele>
        <time>2017-04-27T09:32:43Z</time>
      </trkpt>
      <trkpt lat="45.88998" lon="4.66713">
        <ele>410</ele>
        <time>2017-04-27T09:32:44Z</time>
      </trkpt>
      <trkpt lat="45.89006" lon="4.66719">
        <ele>408</ele>
        <time>2017-04-27T09:32:49Z</time>
      </trkpt>
      <trkpt lat="45.89008" lon="4.66719">
        <ele>408</ele>
        <time>2017-04-27T09:32:50Z</time>
      </trkpt>
      <trkpt lat="45.89016" lon="4.66721">
        <ele>408</ele>
        <time>2017-04-27T09:32:54Z</time>
      </trkpt>
      <trkpt lat="45.89018" lon="4.66722">
        <ele>408</ele>
        <time>2017-04-27T09:32:55Z</time>
      </trkpt>
      <trkpt lat="45.89024" lon="4.66724">
        <ele>407</ele>
        <time>2017-04-27T09:32:58Z</time>
      </trkpt>
      <trkpt lat="45.89028" lon="4.66724">
        <ele>407</ele>
        <time>2017-04-27T09:32:59Z</time>
      </trkpt>
      <trkpt lat="45.89034" lon="4.6673">
        <ele>407</ele>
        <time>2017-04-27T09:33:02Z</time>
      </trkpt>
      <trkpt lat="45.89036" lon="4.66734">
        <ele>407</ele>
        <time>2017-04-27T09:33:03Z</time>
      </trkpt>
      <trkpt lat="45.89042" lon="4.66739">
        <ele>407</ele>
        <time>2017-04-27T09:33:06Z</time>
      </trkpt>
      <trkpt lat="45.89044" lon="4.66741">
        <ele>407</ele>
        <time>2017-04-27T09:33:07Z</time>
      </trkpt>
      <trkpt lat="45.89048" lon="4.66747">
        <ele>407</ele>
        <time>2017-04-27T09:33:08Z</time>
      </trkpt>
      <trkpt lat="45.89052" lon="4.66748">
        <ele>407</ele>
        <time>2017-04-27T09:33:09Z</time>
      </trkpt>
      <trkpt lat="45.89057" lon="4.66756">
        <ele>412</ele>
        <time>2017-04-27T09:33:11Z</time>
      </trkpt>
      <trkpt lat="45.8906" lon="4.66759">
        <ele>412</ele>
        <time>2017-04-27T09:33:12Z</time>
      </trkpt>
      <trkpt lat="45.89066" lon="4.66766">
        <ele>412</ele>
        <time>2017-04-27T09:33:15Z</time>
      </trkpt>
      <trkpt lat="45.89068" lon="4.66769">
        <ele>412</ele>
        <time>2017-04-27T09:33:16Z</time>
      </trkpt>
      <trkpt lat="45.89073" lon="4.66772">
        <ele>412</ele>
        <time>2017-04-27T09:33:18Z</time>
      </trkpt>
      <trkpt lat="45.89076" lon="4.66774">
        <ele>412</ele>
        <time>2017-04-27T09:33:19Z</time>
      </trkpt>
      <trkpt lat="45.89082" lon="4.66778">
        <ele>412</ele>
        <time>2017-04-27T09:33:21Z</time>
      </trkpt>
      <trkpt lat="45.89086" lon="4.66782">
        <ele>410</ele>
        <time>2017-04-27T09:33:22Z</time>
      </trkpt>
      <trkpt lat="45.89091" lon="4.66787">
        <ele>410</ele>
        <time>2017-04-27T09:33:24Z</time>
      </trkpt>
      <trkpt lat="45.89094" lon="4.6679">
        <ele>410</ele>
        <time>2017-04-27T09:33:25Z</time>
      </trkpt>
      <trkpt lat="45.89099" lon="4.66794">
        <ele>411</ele>
        <time>2017-04-27T09:33:27Z</time>
      </trkpt>
      <trkpt lat="45.89102" lon="4.66797">
        <ele>411</ele>
        <time>2017-04-27T09:33:28Z</time>
      </trkpt>
      <trkpt lat="45.89107" lon="4.66801">
        <ele>411</ele>
        <time>2017-04-27T09:33:30Z</time>
      </trkpt>
      <trkpt lat="45.8911" lon="4.66804">
        <ele>411</ele>
        <time>2017-04-27T09:33:31Z</time>
      </trkpt>
      <trkpt lat="45.89116" lon="4.66812">
        <ele>411</ele>
        <time>2017-04-27T09:33:34Z</time>
      </trkpt>
      <trkpt lat="45.89115" lon="4.66816">
        <ele>411</ele>
        <time>2017-04-27T09:33:35Z</time>
      </trkpt>
      <trkpt lat="45.89116" lon="4.66818">
        <ele>411</ele>
        <time>2017-04-27T09:33:36Z</time>
      </trkpt>
      <trkpt lat="45.89116" lon="4.66819">
        <ele>411</ele>
        <time>2017-04-27T09:33:37Z</time>
      </trkpt>
      <trkpt lat="45.89121" lon="4.6682">
        <ele>411</ele>
        <time>2017-04-27T09:36:43Z</time>
      </trkpt>
      <trkpt lat="45.89125" lon="4.6682">
        <ele>411</ele>
        <time>2017-04-27T09:36:44Z</time>
      </trkpt>
      <trkpt lat="45.89132" lon="4.66825">
        <ele>411</ele>
        <time>2017-04-27T09:36:47Z</time>
      </trkpt>
      <trkpt lat="45.89135" lon="4.66828">
        <ele>411</ele>
        <time>2017-04-27T09:36:48Z</time>
      </trkpt>
      <trkpt lat="45.89142" lon="4.66835">
        <ele>414</ele>
        <time>2017-04-27T09:36:51Z</time>
      </trkpt>
      <trkpt lat="45.89145" lon="4.66838">
        <ele>414</ele>
        <time>2017-04-27T09:36:52Z</time>
      </trkpt>
      <trkpt lat="45.89148" lon="4.66849">
        <ele>414</ele>
        <time>2017-04-27T09:36:55Z</time>
      </trkpt>
      <trkpt lat="45.89149" lon="4.66853">
        <ele>414</ele>
        <time>2017-04-27T09:36:56Z</time>
      </trkpt>
      <trkpt lat="45.89149" lon="4.66861">
        <ele>414</ele>
        <time>2017-04-27T09:36:58Z</time>
      </trkpt>
      <trkpt lat="45.8915" lon="4.66866">
        <ele>414</ele>
        <time>2017-04-27T09:36:59Z</time>
      </trkpt>
      <trkpt lat="45.89151" lon="4.66872">
        <ele>414</ele>
        <time>2017-04-27T09:37:00Z</time>
      </trkpt>
      <trkpt lat="45.8915" lon="4.66879">
        <ele>414</ele>
        <time>2017-04-27T09:37:01Z</time>
      </trkpt>
      <trkpt lat="45.8915" lon="4.66886">
        <ele>414</ele>
        <time>2017-04-27T09:37:02Z</time>
      </trkpt>
      <trkpt lat="45.89151" lon="4.66893">
        <ele>414</ele>
        <time>2017-04-27T09:37:03Z</time>
      </trkpt>
      <trkpt lat="45.89153" lon="4.66899">
        <ele>414</ele>
        <time>2017-04-27T09:37:04Z</time>
      </trkpt>
      <trkpt lat="45.89154" lon="4.66905">
        <ele>415</ele>
        <time>2017-04-27T09:37:05Z</time>
      </trkpt>
      <trkpt lat="45.89157" lon="4.66916">
        <ele>415</ele>
        <time>2017-04-27T09:37:07Z</time>
      </trkpt>
      <trkpt lat="45.89158" lon="4.66921">
        <ele>414</ele>
        <time>2017-04-27T09:37:08Z</time>
      </trkpt>
      <trkpt lat="45.89161" lon="4.66931">
        <ele>413</ele>
        <time>2017-04-27T09:37:10Z</time>
      </trkpt>
      <trkpt lat="45.89162" lon="4.66935">
        <ele>413</ele>
        <time>2017-04-27T09:37:11Z</time>
      </trkpt>
      <trkpt lat="45.89164" lon="4.66944">
        <ele>412</ele>
        <time>2017-04-27T09:37:13Z</time>
      </trkpt>
      <trkpt lat="45.89166" lon="4.66949">
        <ele>412</ele>
        <time>2017-04-27T09:37:14Z</time>
      </trkpt>
      <trkpt lat="45.89169" lon="4.66959">
        <ele>415</ele>
        <time>2017-04-27T09:37:16Z</time>
      </trkpt>
      <trkpt lat="45.8917" lon="4.66965">
        <ele>415</ele>
        <time>2017-04-27T09:37:17Z</time>
      </trkpt>
      <trkpt lat="45.89172" lon="4.66972">
        <ele>415</ele>
        <time>2017-04-27T09:37:18Z</time>
      </trkpt>
      <trkpt lat="45.89174" lon="4.66978">
        <ele>414</ele>
        <time>2017-04-27T09:37:19Z</time>
      </trkpt>
      <trkpt lat="45.89177" lon="4.6699">
        <ele>413</ele>
        <time>2017-04-27T09:37:21Z</time>
      </trkpt>
      <trkpt lat="45.89178" lon="4.66995">
        <ele>413</ele>
        <time>2017-04-27T09:37:22Z</time>
      </trkpt>
      <trkpt lat="45.89181" lon="4.67004">
        <ele>412</ele>
        <time>2017-04-27T09:37:24Z</time>
      </trkpt>
      <trkpt lat="45.89182" lon="4.67009">
        <ele>412</ele>
        <time>2017-04-27T09:37:25Z</time>
      </trkpt>
      <trkpt lat="45.89183" lon="4.67018">
        <ele>412</ele>
        <time>2017-04-27T09:37:27Z</time>
      </trkpt>
      <trkpt lat="45.89184" lon="4.67023">
        <ele>412</ele>
        <time>2017-04-27T09:37:28Z</time>
      </trkpt>
      <trkpt lat="45.89186" lon="4.67034">
        <ele>412</ele>
        <time>2017-04-27T09:37:30Z</time>
      </trkpt>
      <trkpt lat="45.89187" lon="4.6704">
        <ele>412</ele>
        <time>2017-04-27T09:37:31Z</time>
      </trkpt>
      <trkpt lat="45.89189" lon="4.67046">
        <ele>412</ele>
        <time>2017-04-27T09:37:32Z</time>
      </trkpt>
      <trkpt lat="45.8919" lon="4.67052">
        <ele>412</ele>
        <time>2017-04-27T09:37:33Z</time>
      </trkpt>
      <trkpt lat="45.89192" lon="4.67058">
        <ele>412</ele>
        <time>2017-04-27T09:37:34Z</time>
      </trkpt>
      <trkpt lat="45.89194" lon="4.67065">
        <ele>412</ele>
        <time>2017-04-27T09:37:35Z</time>
      </trkpt>
      <trkpt lat="45.89196" lon="4.67071">
        <ele>411</ele>
        <time>2017-04-27T09:37:36Z</time>
      </trkpt>
      <trkpt lat="45.89199" lon="4.67077">
        <ele>412</ele>
        <time>2017-04-27T09:37:37Z</time>
      </trkpt>
      <trkpt lat="45.89201" lon="4.67084">
        <ele>409</ele>
        <time>2017-04-27T09:37:38Z</time>
      </trkpt>
      <trkpt lat="45.89203" lon="4.67089">
        <ele>410</ele>
        <time>2017-04-27T09:37:39Z</time>
      </trkpt>
      <trkpt lat="45.89205" lon="4.67095">
        <ele>410</ele>
        <time>2017-04-27T09:37:40Z</time>
      </trkpt>
      <trkpt lat="45.89208" lon="4.67101">
        <ele>410</ele>
        <time>2017-04-27T09:37:41Z</time>
      </trkpt>
      <trkpt lat="45.8921" lon="4.67106">
        <ele>410</ele>
        <time>2017-04-27T09:37:42Z</time>
      </trkpt>
      <trkpt lat="45.89214" lon="4.67111">
        <ele>410</ele>
        <time>2017-04-27T09:37:43Z</time>
      </trkpt>
      <trkpt lat="45.89216" lon="4.67116">
        <ele>410</ele>
        <time>2017-04-27T09:37:44Z</time>
      </trkpt>
      <trkpt lat="45.89219" lon="4.67121">
        <ele>410</ele>
        <time>2017-04-27T09:37:45Z</time>
      </trkpt>
      <trkpt lat="45.89221" lon="4.67127">
        <ele>410</ele>
        <time>2017-04-27T09:37:46Z</time>
      </trkpt>
      <trkpt lat="45.89223" lon="4.67133">
        <ele>410</ele>
        <time>2017-04-27T09:37:47Z</time>
      </trkpt>
      <trkpt lat="45.89226" lon="4.67138">
        <ele>410</ele>
        <time>2017-04-27T09:37:48Z</time>
      </trkpt>
      <trkpt lat="45.89229" lon="4.67144">
        <ele>411</ele>
        <time>2017-04-27T09:37:49Z</time>
      </trkpt>
      <trkpt lat="45.89232" lon="4.6715">
        <ele>411</ele>
        <time>2017-04-27T09:37:50Z</time>
      </trkpt>
      <trkpt lat="45.89235" lon="4.67156">
        <ele>411</ele>
        <time>2017-04-27T09:37:51Z</time>
      </trkpt>
      <trkpt lat="45.89239" lon="4.6716">
        <ele>412</ele>
        <time>2017-04-27T09:37:52Z</time>
      </trkpt>
      <trkpt lat="45.89242" lon="4.67165">
        <ele>412</ele>
        <time>2017-04-27T09:37:53Z</time>
      </trkpt>
      <trkpt lat="45.89246" lon="4.6717">
        <ele>412</ele>
        <time>2017-04-27T09:37:54Z</time>
      </trkpt>
      <trkpt lat="45.89251" lon="4.67175">
        <ele>412</ele>
        <time>2017-04-27T09:37:55Z</time>
      </trkpt>
      <trkpt lat="45.89255" lon="4.6718">
        <ele>412</ele>
        <time>2017-04-27T09:37:56Z</time>
      </trkpt>
      <trkpt lat="45.8926" lon="4.67184">
        <ele>412</ele>
        <time>2017-04-27T09:37:57Z</time>
      </trkpt>
      <trkpt lat="45.89265" lon="4.67188">
        <ele>412</ele>
        <time>2017-04-27T09:37:58Z</time>
      </trkpt>
      <trkpt lat="45.8927" lon="4.67192">
        <ele>411</ele>
        <time>2017-04-27T09:37:59Z</time>
      </trkpt>
      <trkpt lat="45.89275" lon="4.67195">
        <ele>411</ele>
        <time>2017-04-27T09:38:00Z</time>
      </trkpt>
      <trkpt lat="45.89282" lon="4.67198">
        <ele>411</ele>
        <time>2017-04-27T09:38:01Z</time>
      </trkpt>
      <trkpt lat="45.89287" lon="4.67201">
        <ele>411</ele>
        <time>2017-04-27T09:38:02Z</time>
      </trkpt>
      <trkpt lat="45.89293" lon="4.67203">
        <ele>411</ele>
        <time>2017-04-27T09:38:03Z</time>
      </trkpt>
      <trkpt lat="45.89298" lon="4.67205">
        <ele>411</ele>
        <time>2017-04-27T09:38:04Z</time>
      </trkpt>
      <trkpt lat="45.89303" lon="4.67207">
        <ele>411</ele>
        <time>2017-04-27T09:38:05Z</time>
      </trkpt>
      <trkpt lat="45.89308" lon="4.6721">
        <ele>411</ele>
        <time>2017-04-27T09:38:06Z</time>
      </trkpt>
      <trkpt lat="45.89313" lon="4.67212">
        <ele>411</ele>
        <time>2017-04-27T09:38:07Z</time>
      </trkpt>
      <trkpt lat="45.89318" lon="4.67214">
        <ele>411</ele>
        <time>2017-04-27T09:38:08Z</time>
      </trkpt>
      <trkpt lat="45.89323" lon="4.67217">
        <ele>411</ele>
        <time>2017-04-27T09:38:09Z</time>
      </trkpt>
      <trkpt lat="45.89328" lon="4.6722">
        <ele>411</ele>
        <time>2017-04-27T09:38:10Z</time>
      </trkpt>
      <trkpt lat="45.89333" lon="4.67223">
        <ele>411</ele>
        <time>2017-04-27T09:38:11Z</time>
      </trkpt>
      <trkpt lat="45.89337" lon="4.67225">
        <ele>414</ele>
        <time>2017-04-27T09:38:12Z</time>
      </trkpt>
      <trkpt lat="45.89342" lon="4.67229">
        <ele>414</ele>
        <time>2017-04-27T09:38:13Z</time>
      </trkpt>
      <trkpt lat="45.89347" lon="4.67233">
        <ele>414</ele>
        <time>2017-04-27T09:38:14Z</time>
      </trkpt>
      <trkpt lat="45.89351" lon="4.67238">
        <ele>414</ele>
        <time>2017-04-27T09:38:15Z</time>
      </trkpt>
      <trkpt lat="45.89355" lon="4.67245">
        <ele>414</ele>
        <time>2017-04-27T09:38:16Z</time>
      </trkpt>
      <trkpt lat="45.89359" lon="4.67252">
        <ele>409</ele>
        <time>2017-04-27T09:38:17Z</time>
      </trkpt>
      <trkpt lat="45.89364" lon="4.6726">
        <ele>409</ele>
        <time>2017-04-27T09:38:18Z</time>
      </trkpt>
      <trkpt lat="45.89368" lon="4.67267">
        <ele>408</ele>
        <time>2017-04-27T09:38:19Z</time>
      </trkpt>
      <trkpt lat="45.89372" lon="4.67275">
        <ele>408</ele>
        <time>2017-04-27T09:38:20Z</time>
      </trkpt>
      <trkpt lat="45.89375" lon="4.67283">
        <ele>408</ele>
        <time>2017-04-27T09:38:21Z</time>
      </trkpt>
      <trkpt lat="45.89379" lon="4.6729">
        <ele>408</ele>
        <time>2017-04-27T09:38:22Z</time>
      </trkpt>
      <trkpt lat="45.89383" lon="4.67297">
        <ele>408</ele>
        <time>2017-04-27T09:38:23Z</time>
      </trkpt>
      <trkpt lat="45.89388" lon="4.67304">
        <ele>407</ele>
        <time>2017-04-27T09:38:24Z</time>
      </trkpt>
      <trkpt lat="45.89392" lon="4.67309">
        <ele>407</ele>
        <time>2017-04-27T09:38:25Z</time>
      </trkpt>
      <trkpt lat="45.89396" lon="4.67315">
        <ele>407</ele>
        <time>2017-04-27T09:38:26Z</time>
      </trkpt>
      <trkpt lat="45.89401" lon="4.67321">
        <ele>407</ele>
        <time>2017-04-27T09:38:27Z</time>
      </trkpt>
      <trkpt lat="45.89405" lon="4.67326">
        <ele>407</ele>
        <time>2017-04-27T09:38:28Z</time>
      </trkpt>
      <trkpt lat="45.89409" lon="4.67332">
        <ele>407</ele>
        <time>2017-04-27T09:38:29Z</time>
      </trkpt>
      <trkpt lat="45.89414" lon="4.67337">
        <ele>406</ele>
        <time>2017-04-27T09:38:30Z</time>
      </trkpt>
      <trkpt lat="45.89418" lon="4.67342">
        <ele>407</ele>
        <time>2017-04-27T09:38:31Z</time>
      </trkpt>
      <trkpt lat="45.89423" lon="4.67347">
        <ele>407</ele>
        <time>2017-04-27T09:38:32Z</time>
      </trkpt>
      <trkpt lat="45.89427" lon="4.67353">
        <ele>407</ele>
        <time>2017-04-27T09:38:33Z</time>
      </trkpt>
      <trkpt lat="45.89432" lon="4.67358">
        <ele>407</ele>
        <time>2017-04-27T09:38:34Z</time>
      </trkpt>
      <trkpt lat="45.89436" lon="4.67362">
        <ele>407</ele>
        <time>2017-04-27T09:38:35Z</time>
      </trkpt>
      <trkpt lat="45.89441" lon="4.67367">
        <ele>407</ele>
        <time>2017-04-27T09:38:36Z</time>
      </trkpt>
      <trkpt lat="45.89446" lon="4.67372">
        <ele>407</ele>
        <time>2017-04-27T09:38:37Z</time>
      </trkpt>
      <trkpt lat="45.89451" lon="4.67376">
        <ele>407</ele>
        <time>2017-04-27T09:38:38Z</time>
      </trkpt>
      <trkpt lat="45.89456" lon="4.6738">
        <ele>407</ele>
        <time>2017-04-27T09:38:39Z</time>
      </trkpt>
      <trkpt lat="45.89461" lon="4.67384">
        <ele>407</ele>
        <time>2017-04-27T09:38:40Z</time>
      </trkpt>
      <trkpt lat="45.89466" lon="4.67388">
        <ele>406</ele>
        <time>2017-04-27T09:38:41Z</time>
      </trkpt>
      <trkpt lat="45.89471" lon="4.67392">
        <ele>406</ele>
        <time>2017-04-27T09:38:42Z</time>
      </trkpt>
      <trkpt lat="45.89477" lon="4.67396">
        <ele>406</ele>
        <time>2017-04-27T09:38:43Z</time>
      </trkpt>
      <trkpt lat="45.89482" lon="4.674">
        <ele>406</ele>
        <time>2017-04-27T09:38:44Z</time>
      </trkpt>
      <trkpt lat="45.89488" lon="4.67404">
        <ele>406</ele>
        <time>2017-04-27T09:38:45Z</time>
      </trkpt>
      <trkpt lat="45.89493" lon="4.67409">
        <ele>405</ele>
        <time>2017-04-27T09:38:46Z</time>
      </trkpt>
      <trkpt lat="45.89498" lon="4.67413">
        <ele>405</ele>
        <time>2017-04-27T09:38:47Z</time>
      </trkpt>
      <trkpt lat="45.89504" lon="4.67417">
        <ele>403</ele>
        <time>2017-04-27T09:38:48Z</time>
      </trkpt>
      <trkpt lat="45.8951" lon="4.67421">
        <ele>403</ele>
        <time>2017-04-27T09:38:49Z</time>
      </trkpt>
      <trkpt lat="45.89516" lon="4.67425">
        <ele>402</ele>
        <time>2017-04-27T09:38:50Z</time>
      </trkpt>
      <trkpt lat="45.89521" lon="4.67428">
        <ele>402</ele>
        <time>2017-04-27T09:38:51Z</time>
      </trkpt>
      <trkpt lat="45.89527" lon="4.67431">
        <ele>402</ele>
        <time>2017-04-27T09:38:52Z</time>
      </trkpt>
      <trkpt lat="45.89533" lon="4.67433">
        <ele>402</ele>
        <time>2017-04-27T09:38:53Z</time>
      </trkpt>
      <trkpt lat="45.89538" lon="4.67435">
        <ele>402</ele>
        <time>2017-04-27T09:38:54Z</time>
      </trkpt>
      <trkpt lat="45.89543" lon="4.67436">
        <ele>402</ele>
        <time>2017-04-27T09:38:55Z</time>
      </trkpt>
      <trkpt lat="45.89547" lon="4.67438">
        <ele>402</ele>
        <time>2017-04-27T09:38:56Z</time>
      </trkpt>
      <trkpt lat="45.89553" lon="4.67439">
        <ele>402</ele>
        <time>2017-04-27T09:38:57Z</time>
      </trkpt>
      <trkpt lat="45.89557" lon="4.67441">
        <ele>402</ele>
        <time>2017-04-27T09:38:58Z</time>
      </trkpt>
      <trkpt lat="45.89563" lon="4.67444">
        <ele>402</ele>
        <time>2017-04-27T09:38:59Z</time>
      </trkpt>
      <trkpt lat="45.89569" lon="4.67446">
        <ele>402</ele>
        <time>2017-04-27T09:39:00Z</time>
      </trkpt>
      <trkpt lat="45.89575" lon="4.67448">
        <ele>402</ele>
        <time>2017-04-27T09:39:01Z</time>
      </trkpt>
      <trkpt lat="45.89581" lon="4.67451">
        <ele>402</ele>
        <time>2017-04-27T09:39:02Z</time>
      </trkpt>
      <trkpt lat="45.89588" lon="4.67453">
        <ele>403</ele>
        <time>2017-04-27T09:39:03Z</time>
      </trkpt>
      <trkpt lat="45.89596" lon="4.67456">
        <ele>403</ele>
        <time>2017-04-27T09:39:04Z</time>
      </trkpt>
      <trkpt lat="45.89603" lon="4.67459">
        <ele>403</ele>
        <time>2017-04-27T09:39:05Z</time>
      </trkpt>
      <trkpt lat="45.8961" lon="4.67461">
        <ele>403</ele>
        <time>2017-04-27T09:39:06Z</time>
      </trkpt>
      <trkpt lat="45.89617" lon="4.67463">
        <ele>403</ele>
        <time>2017-04-27T09:39:07Z</time>
      </trkpt>
      <trkpt lat="45.89624" lon="4.67465">
        <ele>403</ele>
        <time>2017-04-27T09:39:08Z</time>
      </trkpt>
      <trkpt lat="45.89629" lon="4.67467">
        <ele>403</ele>
        <time>2017-04-27T09:39:09Z</time>
      </trkpt>
      <trkpt lat="45.89635" lon="4.6747">
        <ele>403</ele>
        <time>2017-04-27T09:39:10Z</time>
      </trkpt>
      <trkpt lat="45.8964" lon="4.67472">
        <ele>402</ele>
        <time>2017-04-27T09:39:11Z</time>
      </trkpt>
      <trkpt lat="45.89646" lon="4.67474">
        <ele>402</ele>
        <time>2017-04-27T09:39:12Z</time>
      </trkpt>
      <trkpt lat="45.89652" lon="4.67476">
        <ele>402</ele>
        <time>2017-04-27T09:39:13Z</time>
      </trkpt>
      <trkpt lat="45.89658" lon="4.67478">
        <ele>402</ele>
        <time>2017-04-27T09:39:14Z</time>
      </trkpt>
      <trkpt lat="45.89664" lon="4.67481">
        <ele>401</ele>
        <time>2017-04-27T09:39:15Z</time>
      </trkpt>
      <trkpt lat="45.8967" lon="4.67483">
        <ele>402</ele>
        <time>2017-04-27T09:39:16Z</time>
      </trkpt>
      <trkpt lat="45.89675" lon="4.67486">
        <ele>401</ele>
        <time>2017-04-27T09:39:17Z</time>
      </trkpt>
      <trkpt lat="45.89681" lon="4.67488">
        <ele>402</ele>
        <time>2017-04-27T09:39:18Z</time>
      </trkpt>
      <trkpt lat="45.89687" lon="4.67489">
        <ele>402</ele>
        <time>2017-04-27T09:39:19Z</time>
      </trkpt>
      <trkpt lat="45.89692" lon="4.67491">
        <ele>402</ele>
        <time>2017-04-27T09:39:20Z</time>
      </trkpt>
      <trkpt lat="45.89698" lon="4.67493">
        <ele>402</ele>
        <time>2017-04-27T09:39:21Z</time>
      </trkpt>
      <trkpt lat="45.89704" lon="4.67495">
        <ele>402</ele>
        <time>2017-04-27T09:39:22Z</time>
      </trkpt>
      <trkpt lat="45.89709" lon="4.67498">
        <ele>402</ele>
        <time>2017-04-27T09:39:23Z</time>
      </trkpt>
      <trkpt lat="45.89715" lon="4.67499">
        <ele>402</ele>
        <time>2017-04-27T09:39:24Z</time>
      </trkpt>
      <trkpt lat="45.89721" lon="4.67501">
        <ele>396</ele>
        <time>2017-04-27T09:39:25Z</time>
      </trkpt>
      <trkpt lat="45.89727" lon="4.67501">
        <ele>396</ele>
        <time>2017-04-27T09:39:26Z</time>
      </trkpt>
      <trkpt lat="45.89735" lon="4.67501">
        <ele>396</ele>
        <time>2017-04-27T09:39:27Z</time>
      </trkpt>
      <trkpt lat="45.89742" lon="4.67501">
        <ele>397</ele>
        <time>2017-04-27T09:39:28Z</time>
      </trkpt>
      <trkpt lat="45.89749" lon="4.675">
        <ele>399</ele>
        <time>2017-04-27T09:39:29Z</time>
      </trkpt>
      <trkpt lat="45.89756" lon="4.675">
        <ele>399</ele>
        <time>2017-04-27T09:39:30Z</time>
      </trkpt>
      <trkpt lat="45.89763" lon="4.67499">
        <ele>399</ele>
        <time>2017-04-27T09:39:31Z</time>
      </trkpt>
      <trkpt lat="45.8977" lon="4.67498">
        <ele>399</ele>
        <time>2017-04-27T09:39:32Z</time>
      </trkpt>
      <trkpt lat="45.89777" lon="4.67496">
        <ele>399</ele>
        <time>2017-04-27T09:39:33Z</time>
      </trkpt>
      <trkpt lat="45.89784" lon="4.67494">
        <ele>399</ele>
        <time>2017-04-27T09:39:34Z</time>
      </trkpt>
      <trkpt lat="45.8979" lon="4.6749">
        <ele>399</ele>
        <time>2017-04-27T09:39:35Z</time>
      </trkpt>
      <trkpt lat="45.89796" lon="4.67484">
        <ele>399</ele>
        <time>2017-04-27T09:39:36Z</time>
      </trkpt>
      <trkpt lat="45.89802" lon="4.67476">
        <ele>399</ele>
        <time>2017-04-27T09:39:37Z</time>
      </trkpt>
      <trkpt lat="45.89806" lon="4.67468">
        <ele>399</ele>
        <time>2017-04-27T09:39:38Z</time>
      </trkpt>
      <trkpt lat="45.8981" lon="4.67459">
        <ele>399</ele>
        <time>2017-04-27T09:39:39Z</time>
      </trkpt>
      <trkpt lat="45.89812" lon="4.67449">
        <ele>399</ele>
        <time>2017-04-27T09:39:40Z</time>
      </trkpt>
      <trkpt lat="45.89814" lon="4.6744">
        <ele>399</ele>
        <time>2017-04-27T09:39:41Z</time>
      </trkpt>
      <trkpt lat="45.89816" lon="4.6743">
        <ele>399</ele>
        <time>2017-04-27T09:39:42Z</time>
      </trkpt>
      <trkpt lat="45.89818" lon="4.67421">
        <ele>398</ele>
        <time>2017-04-27T09:39:43Z</time>
      </trkpt>
      <trkpt lat="45.89821" lon="4.67412">
        <ele>401</ele>
        <time>2017-04-27T09:39:44Z</time>
      </trkpt>
      <trkpt lat="45.89823" lon="4.67403">
        <ele>402</ele>
        <time>2017-04-27T09:39:45Z</time>
      </trkpt>
      <trkpt lat="45.89827" lon="4.67395">
        <ele>403</ele>
        <time>2017-04-27T09:39:46Z</time>
      </trkpt>
      <trkpt lat="45.89831" lon="4.67387">
        <ele>403</ele>
        <time>2017-04-27T09:39:47Z</time>
      </trkpt>
      <trkpt lat="45.89836" lon="4.67379">
        <ele>398</ele>
        <time>2017-04-27T09:39:48Z</time>
      </trkpt>
      <trkpt lat="45.89841" lon="4.67373">
        <ele>398</ele>
        <time>2017-04-27T09:39:49Z</time>
      </trkpt>
      <trkpt lat="45.89847" lon="4.67368">
        <ele>399</ele>
        <time>2017-04-27T09:39:50Z</time>
      </trkpt>
      <trkpt lat="45.89853" lon="4.67363">
        <ele>399</ele>
        <time>2017-04-27T09:39:51Z</time>
      </trkpt>
      <trkpt lat="45.89859" lon="4.67359">
        <ele>399</ele>
        <time>2017-04-27T09:39:52Z</time>
      </trkpt>
      <trkpt lat="45.89866" lon="4.67356">
        <ele>399</ele>
        <time>2017-04-27T09:39:53Z</time>
      </trkpt>
      <trkpt lat="45.89873" lon="4.67354">
        <ele>398</ele>
        <time>2017-04-27T09:39:54Z</time>
      </trkpt>
      <trkpt lat="45.8988" lon="4.67353">
        <ele>398</ele>
        <time>2017-04-27T09:39:55Z</time>
      </trkpt>
      <trkpt lat="45.89887" lon="4.67353">
        <ele>398</ele>
        <time>2017-04-27T09:39:56Z</time>
      </trkpt>
      <trkpt lat="45.89894" lon="4.67354">
        <ele>398</ele>
        <time>2017-04-27T09:39:57Z</time>
      </trkpt>
      <trkpt lat="45.89901" lon="4.67356">
        <ele>398</ele>
        <time>2017-04-27T09:39:58Z</time>
      </trkpt>
      <trkpt lat="45.89909" lon="4.67358">
        <ele>397</ele>
        <time>2017-04-27T09:39:59Z</time>
      </trkpt>
      <trkpt lat="45.89916" lon="4.6736">
        <ele>397</ele>
        <time>2017-04-27T09:40:00Z</time>
      </trkpt>
      <trkpt lat="45.89924" lon="4.67363">
        <ele>395</ele>
        <time>2017-04-27T09:40:01Z</time>
      </trkpt>
      <trkpt lat="45.89931" lon="4.67366">
        <ele>394</ele>
        <time>2017-04-27T09:40:02Z</time>
      </trkpt>
      <trkpt lat="45.89939" lon="4.67369">
        <ele>394</ele>
        <time>2017-04-27T09:40:03Z</time>
      </trkpt>
      <trkpt lat="45.89947" lon="4.67371">
        <ele>394</ele>
        <time>2017-04-27T09:40:04Z</time>
      </trkpt>
      <trkpt lat="45.89954" lon="4.67375">
        <ele>393</ele>
        <time>2017-04-27T09:40:05Z</time>
      </trkpt>
      <trkpt lat="45.89963" lon="4.67377">
        <ele>393</ele>
        <time>2017-04-27T09:40:06Z</time>
      </trkpt>
      <trkpt lat="45.89971" lon="4.67379">
        <ele>393</ele>
        <time>2017-04-27T09:40:07Z</time>
      </trkpt>
      <trkpt lat="45.8998" lon="4.67382">
        <ele>393</ele>
        <time>2017-04-27T09:40:08Z</time>
      </trkpt>
      <trkpt lat="45.89988" lon="4.67386">
        <ele>392</ele>
        <time>2017-04-27T09:40:09Z</time>
      </trkpt>
      <trkpt lat="45.89997" lon="4.67391">
        <ele>391</ele>
        <time>2017-04-27T09:40:10Z</time>
      </trkpt>
      <trkpt lat="45.90005" lon="4.67396">
        <ele>393</ele>
        <time>2017-04-27T09:40:11Z</time>
      </trkpt>
      <trkpt lat="45.90013" lon="4.67401">
        <ele>393</ele>
        <time>2017-04-27T09:40:12Z</time>
      </trkpt>
      <trkpt lat="45.90021" lon="4.67406">
        <ele>393</ele>
        <time>2017-04-27T09:40:13Z</time>
      </trkpt>
      <trkpt lat="45.90027" lon="4.67412">
        <ele>394</ele>
        <time>2017-04-27T09:40:14Z</time>
      </trkpt>
      <trkpt lat="45.90034" lon="4.67419">
        <ele>384</ele>
        <time>2017-04-27T09:40:15Z</time>
      </trkpt>
      <trkpt lat="45.90041" lon="4.67426">
        <ele>384</ele>
        <time>2017-04-27T09:40:16Z</time>
      </trkpt>
      <trkpt lat="45.90048" lon="4.67433">
        <ele>384</ele>
        <time>2017-04-27T09:40:17Z</time>
      </trkpt>
      <trkpt lat="45.90054" lon="4.67442">
        <ele>384</ele>
        <time>2017-04-27T09:40:18Z</time>
      </trkpt>
      <trkpt lat="45.90061" lon="4.6745">
        <ele>384</ele>
        <time>2017-04-27T09:40:19Z</time>
      </trkpt>
      <trkpt lat="45.90068" lon="4.67458">
        <ele>383</ele>
        <time>2017-04-27T09:40:20Z</time>
      </trkpt>
      <trkpt lat="45.90075" lon="4.67466">
        <ele>382</ele>
        <time>2017-04-27T09:40:21Z</time>
      </trkpt>
      <trkpt lat="45.90081" lon="4.67474">
        <ele>381</ele>
        <time>2017-04-27T09:40:22Z</time>
      </trkpt>
      <trkpt lat="45.90088" lon="4.67482">
        <ele>384</ele>
        <time>2017-04-27T09:40:23Z</time>
      </trkpt>
      <trkpt lat="45.90095" lon="4.67489">
        <ele>383</ele>
        <time>2017-04-27T09:40:24Z</time>
      </trkpt>
      <trkpt lat="45.90102" lon="4.67498">
        <ele>383</ele>
        <time>2017-04-27T09:40:25Z</time>
      </trkpt>
      <trkpt lat="45.90107" lon="4.67507">
        <ele>377</ele>
        <time>2017-04-27T09:40:26Z</time>
      </trkpt>
      <trkpt lat="45.90112" lon="4.67516">
        <ele>377</ele>
        <time>2017-04-27T09:40:27Z</time>
      </trkpt>
      <trkpt lat="45.90117" lon="4.67526">
        <ele>377</ele>
        <time>2017-04-27T09:40:28Z</time>
      </trkpt>
      <trkpt lat="45.90122" lon="4.67536">
        <ele>377</ele>
        <time>2017-04-27T09:40:29Z</time>
      </trkpt>
      <trkpt lat="45.90127" lon="4.67546">
        <ele>376</ele>
        <time>2017-04-27T09:40:30Z</time>
      </trkpt>
      <trkpt lat="45.90132" lon="4.67556">
        <ele>376</ele>
        <time>2017-04-27T09:40:31Z</time>
      </trkpt>
      <trkpt lat="45.90137" lon="4.67565">
        <ele>376</ele>
        <time>2017-04-27T09:40:32Z</time>
      </trkpt>
      <trkpt lat="45.90142" lon="4.67575">
        <ele>376</ele>
        <time>2017-04-27T09:40:33Z</time>
      </trkpt>
      <trkpt lat="45.90148" lon="4.67583">
        <ele>376</ele>
        <time>2017-04-27T09:40:34Z</time>
      </trkpt>
      <trkpt lat="45.90154" lon="4.67591">
        <ele>372</ele>
        <time>2017-04-27T09:40:35Z</time>
      </trkpt>
      <trkpt lat="45.9016" lon="4.67598">
        <ele>372</ele>
        <time>2017-04-27T09:40:36Z</time>
      </trkpt>
      <trkpt lat="45.90167" lon="4.67605">
        <ele>371</ele>
        <time>2017-04-27T09:40:37Z</time>
      </trkpt>
      <trkpt lat="45.90173" lon="4.67612">
        <ele>375</ele>
        <time>2017-04-27T09:40:38Z</time>
      </trkpt>
      <trkpt lat="45.9018" lon="4.67619">
        <ele>375</ele>
        <time>2017-04-27T09:40:39Z</time>
      </trkpt>
      <trkpt lat="45.90186" lon="4.67626">
        <ele>375</ele>
        <time>2017-04-27T09:40:40Z</time>
      </trkpt>
      <trkpt lat="45.90193" lon="4.67633">
        <ele>375</ele>
        <time>2017-04-27T09:40:41Z</time>
      </trkpt>
      <trkpt lat="45.90199" lon="4.67641">
        <ele>375</ele>
        <time>2017-04-27T09:40:42Z</time>
      </trkpt>
      <trkpt lat="45.90206" lon="4.67647">
        <ele>375</ele>
        <time>2017-04-27T09:40:43Z</time>
      </trkpt>
      <trkpt lat="45.90212" lon="4.67654">
        <ele>375</ele>
        <time>2017-04-27T09:40:44Z</time>
      </trkpt>
      <trkpt lat="45.90219" lon="4.6766">
        <ele>375</ele>
        <time>2017-04-27T09:40:45Z</time>
      </trkpt>
      <trkpt lat="45.90225" lon="4.67665">
        <ele>375</ele>
        <time>2017-04-27T09:40:46Z</time>
      </trkpt>
      <trkpt lat="45.90231" lon="4.6767">
        <ele>373</ele>
        <time>2017-04-27T09:40:47Z</time>
      </trkpt>
      <trkpt lat="45.90237" lon="4.67674">
        <ele>373</ele>
        <time>2017-04-27T09:40:48Z</time>
      </trkpt>
      <trkpt lat="45.90243" lon="4.67678">
        <ele>373</ele>
        <time>2017-04-27T09:40:49Z</time>
      </trkpt>
      <trkpt lat="45.90248" lon="4.67681">
        <ele>373</ele>
        <time>2017-04-27T09:40:50Z</time>
      </trkpt>
      <trkpt lat="45.90254" lon="4.67684">
        <ele>374</ele>
        <time>2017-04-27T09:40:51Z</time>
      </trkpt>
      <trkpt lat="45.9026" lon="4.67687">
        <ele>374</ele>
        <time>2017-04-27T09:40:52Z</time>
      </trkpt>
      <trkpt lat="45.90265" lon="4.67689">
        <ele>374</ele>
        <time>2017-04-27T09:40:53Z</time>
      </trkpt>
      <trkpt lat="45.90271" lon="4.67692">
        <ele>374</ele>
        <time>2017-04-27T09:40:54Z</time>
      </trkpt>
      <trkpt lat="45.90277" lon="4.67694">
        <ele>374</ele>
        <time>2017-04-27T09:40:55Z</time>
      </trkpt>
      <trkpt lat="45.90283" lon="4.67697">
        <ele>374</ele>
        <time>2017-04-27T09:40:56Z</time>
      </trkpt>
      <trkpt lat="45.90289" lon="4.67699">
        <ele>374</ele>
        <time>2017-04-27T09:40:57Z</time>
      </trkpt>
      <trkpt lat="45.90295" lon="4.67701">
        <ele>374</ele>
        <time>2017-04-27T09:40:58Z</time>
      </trkpt>
      <trkpt lat="45.90302" lon="4.67704">
        <ele>374</ele>
        <time>2017-04-27T09:40:59Z</time>
      </trkpt>
      <trkpt lat="45.90309" lon="4.67706">
        <ele>374</ele>
        <time>2017-04-27T09:41:00Z</time>
      </trkpt>
      <trkpt lat="45.90316" lon="4.67708">
        <ele>374</ele>
        <time>2017-04-27T09:41:01Z</time>
      </trkpt>
      <trkpt lat="45.90323" lon="4.67711">
        <ele>373</ele>
        <time>2017-04-27T09:41:02Z</time>
      </trkpt>
      <trkpt lat="45.9033" lon="4.67714">
        <ele>373</ele>
        <time>2017-04-27T09:41:03Z</time>
      </trkpt>
      <trkpt lat="45.90337" lon="4.67716">
        <ele>372</ele>
        <time>2017-04-27T09:41:04Z</time>
      </trkpt>
      <trkpt lat="45.90345" lon="4.67719">
        <ele>371</ele>
        <time>2017-04-27T09:41:05Z</time>
      </trkpt>
      <trkpt lat="45.90352" lon="4.67721">
        <ele>371</ele>
        <time>2017-04-27T09:41:06Z</time>
      </trkpt>
      <trkpt lat="45.9036" lon="4.67724">
        <ele>371</ele>
        <time>2017-04-27T09:41:07Z</time>
      </trkpt>
      <trkpt lat="45.90367" lon="4.67726">
        <ele>371</ele>
        <time>2017-04-27T09:41:08Z</time>
      </trkpt>
      <trkpt lat="45.90375" lon="4.67729">
        <ele>370</ele>
        <time>2017-04-27T09:41:09Z</time>
      </trkpt>
      <trkpt lat="45.90383" lon="4.67732">
        <ele>370</ele>
        <time>2017-04-27T09:41:10Z</time>
      </trkpt>
      <trkpt lat="45.9039" lon="4.67735">
        <ele>369</ele>
        <time>2017-04-27T09:41:11Z</time>
      </trkpt>
      <trkpt lat="45.90398" lon="4.67738">
        <ele>369</ele>
        <time>2017-04-27T09:41:12Z</time>
      </trkpt>
      <trkpt lat="45.90405" lon="4.67741">
        <ele>368</ele>
        <time>2017-04-27T09:41:13Z</time>
      </trkpt>
      <trkpt lat="45.90413" lon="4.67743">
        <ele>367</ele>
        <time>2017-04-27T09:41:14Z</time>
      </trkpt>
      <trkpt lat="45.9042" lon="4.67746">
        <ele>366</ele>
        <time>2017-04-27T09:41:15Z</time>
      </trkpt>
      <trkpt lat="45.90428" lon="4.67748">
        <ele>366</ele>
        <time>2017-04-27T09:41:16Z</time>
      </trkpt>
      <trkpt lat="45.90435" lon="4.67751">
        <ele>364</ele>
        <time>2017-04-27T09:41:17Z</time>
      </trkpt>
      <trkpt lat="45.90442" lon="4.67754">
        <ele>364</ele>
        <time>2017-04-27T09:41:18Z</time>
      </trkpt>
      <trkpt lat="45.9045" lon="4.67756">
        <ele>364</ele>
        <time>2017-04-27T09:41:19Z</time>
      </trkpt>
      <trkpt lat="45.90458" lon="4.67759">
        <ele>364</ele>
        <time>2017-04-27T09:41:20Z</time>
      </trkpt>
      <trkpt lat="45.90465" lon="4.67761">
        <ele>364</ele>
        <time>2017-04-27T09:41:21Z</time>
      </trkpt>
      <trkpt lat="45.90472" lon="4.67764">
        <ele>364</ele>
        <time>2017-04-27T09:41:22Z</time>
      </trkpt>
      <trkpt lat="45.90479" lon="4.67767">
        <ele>364</ele>
        <time>2017-04-27T09:41:23Z</time>
      </trkpt>
      <trkpt lat="45.90486" lon="4.6777">
        <ele>364</ele>
        <time>2017-04-27T09:41:24Z</time>
      </trkpt>
      <trkpt lat="45.90493" lon="4.67772">
        <ele>364</ele>
        <time>2017-04-27T09:41:25Z</time>
      </trkpt>
      <trkpt lat="45.905" lon="4.67774">
        <ele>364</ele>
        <time>2017-04-27T09:41:26Z</time>
      </trkpt>
      <trkpt lat="45.90507" lon="4.67777">
        <ele>365</ele>
        <time>2017-04-27T09:41:27Z</time>
      </trkpt>
      <trkpt lat="45.90513" lon="4.67779">
        <ele>365</ele>
        <time>2017-04-27T09:41:28Z</time>
      </trkpt>
      <trkpt lat="45.90519" lon="4.67781">
        <ele>365</ele>
        <time>2017-04-27T09:41:29Z</time>
      </trkpt>
      <trkpt lat="45.90525" lon="4.67783">
        <ele>365</ele>
        <time>2017-04-27T09:41:30Z</time>
      </trkpt>
      <trkpt lat="45.90531" lon="4.67785">
        <ele>365</ele>
        <time>2017-04-27T09:41:31Z</time>
      </trkpt>
      <trkpt lat="45.90537" lon="4.67787">
        <ele>365</ele>
        <time>2017-04-27T09:41:32Z</time>
      </trkpt>
      <trkpt lat="45.90542" lon="4.67789">
        <ele>365</ele>
        <time>2017-04-27T09:41:33Z</time>
      </trkpt>
      <trkpt lat="45.90548" lon="4.6779">
        <ele>365</ele>
        <time>2017-04-27T09:41:34Z</time>
      </trkpt>
      <trkpt lat="45.90553" lon="4.67792">
        <ele>365</ele>
        <time>2017-04-27T09:41:35Z</time>
      </trkpt>
      <trkpt lat="45.90559" lon="4.67793">
        <ele>365</ele>
        <time>2017-04-27T09:41:36Z</time>
      </trkpt>
      <trkpt lat="45.90564" lon="4.67794">
        <ele>365</ele>
        <time>2017-04-27T09:41:37Z</time>
      </trkpt>
      <trkpt lat="45.90569" lon="4.67795">
        <ele>365</ele>
        <time>2017-04-27T09:41:38Z</time>
      </trkpt>
      <trkpt lat="45.90575" lon="4.67796">
        <ele>366</ele>
        <time>2017-04-27T09:41:39Z</time>
      </trkpt>
      <trkpt lat="45.90579" lon="4.67797">
        <ele>366</ele>
        <time>2017-04-27T09:41:40Z</time>
      </trkpt>
      <trkpt lat="45.90585" lon="4.67798">
        <ele>367</ele>
        <time>2017-04-27T09:41:41Z</time>
      </trkpt>
      <trkpt lat="45.9059" lon="4.67798">
        <ele>367</ele>
        <time>2017-04-27T09:41:42Z</time>
      </trkpt>
      <trkpt lat="45.90595" lon="4.67798">
        <ele>367</ele>
        <time>2017-04-27T09:41:43Z</time>
      </trkpt>
      <trkpt lat="45.90601" lon="4.67799">
        <ele>367</ele>
        <time>2017-04-27T09:41:44Z</time>
      </trkpt>
      <trkpt lat="45.90606" lon="4.67799">
        <ele>367</ele>
        <time>2017-04-27T09:41:45Z</time>
      </trkpt>
      <trkpt lat="45.90611" lon="4.67799">
        <ele>367</ele>
        <time>2017-04-27T09:41:46Z</time>
      </trkpt>
      <trkpt lat="45.90616" lon="4.67799">
        <ele>367</ele>
        <time>2017-04-27T09:41:47Z</time>
      </trkpt>
      <trkpt lat="45.90621" lon="4.67799">
        <ele>367</ele>
        <time>2017-04-27T09:41:48Z</time>
      </trkpt>
      <trkpt lat="45.90626" lon="4.67799">
        <ele>367</ele>
        <time>2017-04-27T09:41:49Z</time>
      </trkpt>
      <trkpt lat="45.90631" lon="4.67799">
        <ele>367</ele>
        <time>2017-04-27T09:41:50Z</time>
      </trkpt>
      <trkpt lat="45.90636" lon="4.67799">
        <ele>367</ele>
        <time>2017-04-27T09:41:51Z</time>
      </trkpt>
      <trkpt lat="45.90641" lon="4.678">
        <ele>367</ele>
        <time>2017-04-27T09:41:52Z</time>
      </trkpt>
      <trkpt lat="45.90646" lon="4.678">
        <ele>368</ele>
        <time>2017-04-27T09:41:53Z</time>
      </trkpt>
      <trkpt lat="45.90651" lon="4.678">
        <ele>368</ele>
        <time>2017-04-27T09:41:54Z</time>
      </trkpt>
      <trkpt lat="45.90656" lon="4.678">
        <ele>368</ele>
        <time>2017-04-27T09:41:55Z</time>
      </trkpt>
      <trkpt lat="45.90661" lon="4.67801">
        <ele>368</ele>
        <time>2017-04-27T09:41:56Z</time>
      </trkpt>
      <trkpt lat="45.90666" lon="4.67802">
        <ele>368</ele>
        <time>2017-04-27T09:41:57Z</time>
      </trkpt>
      <trkpt lat="45.90671" lon="4.67803">
        <ele>368</ele>
        <time>2017-04-27T09:41:58Z</time>
      </trkpt>
      <trkpt lat="45.90676" lon="4.67803">
        <ele>368</ele>
        <time>2017-04-27T09:41:59Z</time>
      </trkpt>
      <trkpt lat="45.9068" lon="4.67804">
        <ele>368</ele>
        <time>2017-04-27T09:42:00Z</time>
      </trkpt>
      <trkpt lat="45.90685" lon="4.67805">
        <ele>368</ele>
        <time>2017-04-27T09:42:01Z</time>
      </trkpt>
      <trkpt lat="45.9069" lon="4.67806">
        <ele>368</ele>
        <time>2017-04-27T09:42:02Z</time>
      </trkpt>
      <trkpt lat="45.90694" lon="4.67808">
        <ele>368</ele>
        <time>2017-04-27T09:42:03Z</time>
      </trkpt>
      <trkpt lat="45.90699" lon="4.67809">
        <ele>368</ele>
        <time>2017-04-27T09:42:04Z</time>
      </trkpt>
      <trkpt lat="45.90707" lon="4.67812">
        <ele>368</ele>
        <time>2017-04-27T09:42:06Z</time>
      </trkpt>
      <trkpt lat="45.90711" lon="4.67814">
        <ele>369</ele>
        <time>2017-04-27T09:42:07Z</time>
      </trkpt>
      <trkpt lat="45.90719" lon="4.67817">
        <ele>369</ele>
        <time>2017-04-27T09:42:09Z</time>
      </trkpt>
      <trkpt lat="45.90722" lon="4.67819">
        <ele>369</ele>
        <time>2017-04-27T09:42:10Z</time>
      </trkpt>
      <trkpt lat="45.9073" lon="4.67821">
        <ele>369</ele>
        <time>2017-04-27T09:42:12Z</time>
      </trkpt>
      <trkpt lat="45.90733" lon="4.67822">
        <ele>369</ele>
        <time>2017-04-27T09:42:13Z</time>
      </trkpt>
      <trkpt lat="45.90741" lon="4.67825">
        <ele>370</ele>
        <time>2017-04-27T09:42:15Z</time>
      </trkpt>
      <trkpt lat="45.90745" lon="4.67827">
        <ele>370</ele>
        <time>2017-04-27T09:42:16Z</time>
      </trkpt>
      <trkpt lat="45.90752" lon="4.6783">
        <ele>370</ele>
        <time>2017-04-27T09:42:18Z</time>
      </trkpt>
      <trkpt lat="45.90755" lon="4.67831">
        <ele>370</ele>
        <time>2017-04-27T09:42:19Z</time>
      </trkpt>
      <trkpt lat="45.90761" lon="4.67834">
        <ele>371</ele>
        <time>2017-04-27T09:42:21Z</time>
      </trkpt>
      <trkpt lat="45.90764" lon="4.67835">
        <ele>371</ele>
        <time>2017-04-27T09:42:22Z</time>
      </trkpt>
      <trkpt lat="45.90771" lon="4.67838">
        <ele>371</ele>
        <time>2017-04-27T09:42:24Z</time>
      </trkpt>
      <trkpt lat="45.90775" lon="4.6784">
        <ele>371</ele>
        <time>2017-04-27T09:42:25Z</time>
      </trkpt>
      <trkpt lat="45.90782" lon="4.67843">
        <ele>371</ele>
        <time>2017-04-27T09:42:27Z</time>
      </trkpt>
      <trkpt lat="45.90786" lon="4.67844">
        <ele>371</ele>
        <time>2017-04-27T09:42:28Z</time>
      </trkpt>
      <trkpt lat="45.90793" lon="4.67847">
        <ele>371</ele>
        <time>2017-04-27T09:42:30Z</time>
      </trkpt>
      <trkpt lat="45.90797" lon="4.67848">
        <ele>371</ele>
        <time>2017-04-27T09:42:31Z</time>
      </trkpt>
      <trkpt lat="45.90805" lon="4.67851">
        <ele>371</ele>
        <time>2017-04-27T09:42:33Z</time>
      </trkpt>
      <trkpt lat="45.90809" lon="4.67852">
        <ele>371</ele>
        <time>2017-04-27T09:42:34Z</time>
      </trkpt>
      <trkpt lat="45.90816" lon="4.67854">
        <ele>371</ele>
        <time>2017-04-27T09:42:36Z</time>
      </trkpt>
      <trkpt lat="45.9082" lon="4.67856">
        <ele>371</ele>
        <time>2017-04-27T09:42:37Z</time>
      </trkpt>
      <trkpt lat="45.90828" lon="4.67859">
        <ele>371</ele>
        <time>2017-04-27T09:42:39Z</time>
      </trkpt>
      <trkpt lat="45.90831" lon="4.6786">
        <ele>371</ele>
        <time>2017-04-27T09:42:40Z</time>
      </trkpt>
      <trkpt lat="45.90839" lon="4.67863">
        <ele>370</ele>
        <time>2017-04-27T09:42:42Z</time>
      </trkpt>
      <trkpt lat="45.90843" lon="4.67865">
        <ele>370</ele>
        <time>2017-04-27T09:42:43Z</time>
      </trkpt>
      <trkpt lat="45.90851" lon="4.67868">
        <ele>370</ele>
        <time>2017-04-27T09:42:45Z</time>
      </trkpt>
      <trkpt lat="45.90855" lon="4.67869">
        <ele>370</ele>
        <time>2017-04-27T09:42:46Z</time>
      </trkpt>
      <trkpt lat="45.9086" lon="4.6787">
        <ele>370</ele>
        <time>2017-04-27T09:42:47Z</time>
      </trkpt>
      <trkpt lat="45.90864" lon="4.67871">
        <ele>370</ele>
        <time>2017-04-27T09:42:48Z</time>
      </trkpt>
      <trkpt lat="45.90873" lon="4.67874">
        <ele>370</ele>
        <time>2017-04-27T09:42:50Z</time>
      </trkpt>
      <trkpt lat="45.90877" lon="4.67876">
        <ele>370</ele>
        <time>2017-04-27T09:42:51Z</time>
      </trkpt>
      <trkpt lat="45.90884" lon="4.67879">
        <ele>370</ele>
        <time>2017-04-27T09:42:53Z</time>
      </trkpt>
      <trkpt lat="45.90888" lon="4.67881">
        <ele>370</ele>
        <time>2017-04-27T09:42:54Z</time>
      </trkpt>
      <trkpt lat="45.90896" lon="4.67884">
        <ele>370</ele>
        <time>2017-04-27T09:42:56Z</time>
      </trkpt>
      <trkpt lat="45.909" lon="4.67885">
        <ele>370</ele>
        <time>2017-04-27T09:42:57Z</time>
      </trkpt>
      <trkpt lat="45.90908" lon="4.67888">
        <ele>370</ele>
        <time>2017-04-27T09:42:59Z</time>
      </trkpt>
      <trkpt lat="45.90912" lon="4.6789">
        <ele>370</ele>
        <time>2017-04-27T09:43:00Z</time>
      </trkpt>
      <trkpt lat="45.9092" lon="4.67893">
        <ele>370</ele>
        <time>2017-04-27T09:43:02Z</time>
      </trkpt>
      <trkpt lat="45.90923" lon="4.67894">
        <ele>370</ele>
        <time>2017-04-27T09:43:03Z</time>
      </trkpt>
      <trkpt lat="45.90931" lon="4.67897">
        <ele>370</ele>
        <time>2017-04-27T09:43:05Z</time>
      </trkpt>
      <trkpt lat="45.90934" lon="4.67899">
        <ele>370</ele>
        <time>2017-04-27T09:43:06Z</time>
      </trkpt>
      <trkpt lat="45.90942" lon="4.67902">
        <ele>370</ele>
        <time>2017-04-27T09:43:08Z</time>
      </trkpt>
      <trkpt lat="45.90945" lon="4.67903">
        <ele>370</ele>
        <time>2017-04-27T09:43:09Z</time>
      </trkpt>
      <trkpt lat="45.90953" lon="4.67906">
        <ele>370</ele>
        <time>2017-04-27T09:43:11Z</time>
      </trkpt>
      <trkpt lat="45.90956" lon="4.67907">
        <ele>370</ele>
        <time>2017-04-27T09:43:12Z</time>
      </trkpt>
      <trkpt lat="45.90963" lon="4.6791">
        <ele>370</ele>
        <time>2017-04-27T09:43:14Z</time>
      </trkpt>
      <trkpt lat="45.90967" lon="4.67912">
        <ele>370</ele>
        <time>2017-04-27T09:43:15Z</time>
      </trkpt>
      <trkpt lat="45.90974" lon="4.67915">
        <ele>370</ele>
        <time>2017-04-27T09:43:17Z</time>
      </trkpt>
      <trkpt lat="45.90979" lon="4.67918">
        <ele>372</ele>
        <time>2017-04-27T09:43:18Z</time>
      </trkpt>
      <trkpt lat="45.90986" lon="4.67921">
        <ele>372</ele>
        <time>2017-04-27T09:43:20Z</time>
      </trkpt>
      <trkpt lat="45.9099" lon="4.67923">
        <ele>372</ele>
        <time>2017-04-27T09:43:21Z</time>
      </trkpt>
      <trkpt lat="45.90997" lon="4.67927">
        <ele>372</ele>
        <time>2017-04-27T09:43:23Z</time>
      </trkpt>
      <trkpt lat="45.91" lon="4.67928">
        <ele>372</ele>
        <time>2017-04-27T09:43:24Z</time>
      </trkpt>
      <trkpt lat="45.91007" lon="4.67931">
        <ele>373</ele>
        <time>2017-04-27T09:43:26Z</time>
      </trkpt>
      <trkpt lat="45.9101" lon="4.67933">
        <ele>373</ele>
        <time>2017-04-27T09:43:27Z</time>
      </trkpt>
      <trkpt lat="45.91017" lon="4.67936">
        <ele>374</ele>
        <time>2017-04-27T09:43:29Z</time>
      </trkpt>
      <trkpt lat="45.9102" lon="4.67937">
        <ele>374</ele>
        <time>2017-04-27T09:43:30Z</time>
      </trkpt>
      <trkpt lat="45.91026" lon="4.67941">
        <ele>374</ele>
        <time>2017-04-27T09:43:32Z</time>
      </trkpt>
      <trkpt lat="45.91029" lon="4.67943">
        <ele>374</ele>
        <time>2017-04-27T09:43:33Z</time>
      </trkpt>
      <trkpt lat="45.91035" lon="4.67946">
        <ele>374</ele>
        <time>2017-04-27T09:43:35Z</time>
      </trkpt>
      <trkpt lat="45.91038" lon="4.67948">
        <ele>374</ele>
        <time>2017-04-27T09:43:36Z</time>
      </trkpt>
      <trkpt lat="45.91045" lon="4.6795">
        <ele>374</ele>
        <time>2017-04-27T09:43:38Z</time>
      </trkpt>
      <trkpt lat="45.91048" lon="4.67951">
        <ele>375</ele>
        <time>2017-04-27T09:43:39Z</time>
      </trkpt>
      <trkpt lat="45.91055" lon="4.67954">
        <ele>375</ele>
        <time>2017-04-27T09:43:41Z</time>
      </trkpt>
      <trkpt lat="45.91058" lon="4.67955">
        <ele>375</ele>
        <time>2017-04-27T09:43:42Z</time>
      </trkpt>
      <trkpt lat="45.91065" lon="4.67957">
        <ele>375</ele>
        <time>2017-04-27T09:43:44Z</time>
      </trkpt>
      <trkpt lat="45.91068" lon="4.67958">
        <ele>375</ele>
        <time>2017-04-27T09:43:45Z</time>
      </trkpt>
      <trkpt lat="45.91075" lon="4.67959">
        <ele>375</ele>
        <time>2017-04-27T09:43:47Z</time>
      </trkpt>
      <trkpt lat="45.91078" lon="4.6796">
        <ele>375</ele>
        <time>2017-04-27T09:43:48Z</time>
      </trkpt>
      <trkpt lat="45.91084" lon="4.67962">
        <ele>377</ele>
        <time>2017-04-27T09:43:50Z</time>
      </trkpt>
      <trkpt lat="45.91088" lon="4.67963">
        <ele>377</ele>
        <time>2017-04-27T09:43:51Z</time>
      </trkpt>
      <trkpt lat="45.91094" lon="4.67964">
        <ele>377</ele>
        <time>2017-04-27T09:43:53Z</time>
      </trkpt>
      <trkpt lat="45.91097" lon="4.67965">
        <ele>377</ele>
        <time>2017-04-27T09:43:54Z</time>
      </trkpt>
      <trkpt lat="45.91103" lon="4.67967">
        <ele>377</ele>
        <time>2017-04-27T09:43:56Z</time>
      </trkpt>
      <trkpt lat="45.91106" lon="4.67968">
        <ele>377</ele>
        <time>2017-04-27T09:43:57Z</time>
      </trkpt>
      <trkpt lat="45.91112" lon="4.6797">
        <ele>377</ele>
        <time>2017-04-27T09:43:59Z</time>
      </trkpt>
      <trkpt lat="45.91115" lon="4.67971">
        <ele>377</ele>
        <time>2017-04-27T09:44:00Z</time>
      </trkpt>
      <trkpt lat="45.91123" lon="4.67974">
        <ele>377</ele>
        <time>2017-04-27T09:44:03Z</time>
      </trkpt>
      <trkpt lat="45.91126" lon="4.67975">
        <ele>377</ele>
        <time>2017-04-27T09:44:04Z</time>
      </trkpt>
      <trkpt lat="45.91135" lon="4.67977">
        <ele>377</ele>
        <time>2017-04-27T09:44:07Z</time>
      </trkpt>
      <trkpt lat="45.91138" lon="4.67978">
        <ele>378</ele>
        <time>2017-04-27T09:44:08Z</time>
      </trkpt>
      <trkpt lat="45.91146" lon="4.67982">
        <ele>378</ele>
        <time>2017-04-27T09:44:11Z</time>
      </trkpt>
      <trkpt lat="45.91149" lon="4.67983">
        <ele>378</ele>
        <time>2017-04-27T09:44:12Z</time>
      </trkpt>
      <trkpt lat="45.91157" lon="4.67987">
        <ele>379</ele>
        <time>2017-04-27T09:44:15Z</time>
      </trkpt>
      <trkpt lat="45.91159" lon="4.67988">
        <ele>379</ele>
        <time>2017-04-27T09:44:16Z</time>
      </trkpt>
      <trkpt lat="45.91166" lon="4.67993">
        <ele>380</ele>
        <time>2017-04-27T09:44:19Z</time>
      </trkpt>
      <trkpt lat="45.91169" lon="4.67994">
        <ele>381</ele>
        <time>2017-04-27T09:44:20Z</time>
      </trkpt>
      <trkpt lat="45.91175" lon="4.67998">
        <ele>381</ele>
        <time>2017-04-27T09:44:22Z</time>
      </trkpt>
      <trkpt lat="45.91178" lon="4.68">
        <ele>380</ele>
        <time>2017-04-27T09:44:23Z</time>
      </trkpt>
      <trkpt lat="45.91186" lon="4.68005">
        <ele>382</ele>
        <time>2017-04-27T09:44:26Z</time>
      </trkpt>
      <trkpt lat="45.91189" lon="4.68007">
        <ele>382</ele>
        <time>2017-04-27T09:44:27Z</time>
      </trkpt>
      <trkpt lat="45.91194" lon="4.6801">
        <ele>383</ele>
        <time>2017-04-27T09:44:29Z</time>
      </trkpt>
      <trkpt lat="45.91197" lon="4.68011">
        <ele>383</ele>
        <time>2017-04-27T09:44:30Z</time>
      </trkpt>
      <trkpt lat="45.91205" lon="4.68015">
        <ele>383</ele>
        <time>2017-04-27T09:44:33Z</time>
      </trkpt>
      <trkpt lat="45.91208" lon="4.68016">
        <ele>383</ele>
        <time>2017-04-27T09:44:34Z</time>
      </trkpt>
      <trkpt lat="45.91216" lon="4.6802">
        <ele>383</ele>
        <time>2017-04-27T09:44:37Z</time>
      </trkpt>
      <trkpt lat="45.91219" lon="4.68021">
        <ele>384</ele>
        <time>2017-04-27T09:44:38Z</time>
      </trkpt>
      <trkpt lat="45.91227" lon="4.68024">
        <ele>384</ele>
        <time>2017-04-27T09:44:41Z</time>
      </trkpt>
      <trkpt lat="45.9123" lon="4.68025">
        <ele>384</ele>
        <time>2017-04-27T09:44:42Z</time>
      </trkpt>
      <trkpt lat="45.91237" lon="4.68029">
        <ele>384</ele>
        <time>2017-04-27T09:44:45Z</time>
      </trkpt>
      <trkpt lat="45.91239" lon="4.68031">
        <ele>384</ele>
        <time>2017-04-27T09:44:46Z</time>
      </trkpt>
      <trkpt lat="45.91247" lon="4.68037">
        <ele>384</ele>
        <time>2017-04-27T09:44:49Z</time>
      </trkpt>
      <trkpt lat="45.9125" lon="4.68038">
        <ele>385</ele>
        <time>2017-04-27T09:44:50Z</time>
      </trkpt>
      <trkpt lat="45.91256" lon="4.68041">
        <ele>385</ele>
        <time>2017-04-27T09:44:52Z</time>
      </trkpt>
      <trkpt lat="45.91259" lon="4.68042">
        <ele>385</ele>
        <time>2017-04-27T09:44:53Z</time>
      </trkpt>
      <trkpt lat="45.91265" lon="4.68044">
        <ele>385</ele>
        <time>2017-04-27T09:44:55Z</time>
      </trkpt>
      <trkpt lat="45.91268" lon="4.68046">
        <ele>385</ele>
        <time>2017-04-27T09:44:56Z</time>
      </trkpt>
      <trkpt lat="45.91274" lon="4.68049">
        <ele>385</ele>
        <time>2017-04-27T09:44:58Z</time>
      </trkpt>
      <trkpt lat="45.91277" lon="4.6805">
        <ele>385</ele>
        <time>2017-04-27T09:44:59Z</time>
      </trkpt>
      <trkpt lat="45.91284" lon="4.68053">
        <ele>385</ele>
        <time>2017-04-27T09:45:01Z</time>
      </trkpt>
      <trkpt lat="45.91288" lon="4.68054">
        <ele>385</ele>
        <time>2017-04-27T09:45:02Z</time>
      </trkpt>
      <trkpt lat="45.91295" lon="4.68057">
        <ele>385</ele>
        <time>2017-04-27T09:45:04Z</time>
      </trkpt>
      <trkpt lat="45.91298" lon="4.68058">
        <ele>385</ele>
        <time>2017-04-27T09:45:05Z</time>
      </trkpt>
      <trkpt lat="45.91305" lon="4.68061">
        <ele>385</ele>
        <time>2017-04-27T09:45:07Z</time>
      </trkpt>
      <trkpt lat="45.91308" lon="4.68063">
        <ele>385</ele>
        <time>2017-04-27T09:45:08Z</time>
      </trkpt>
      <trkpt lat="45.91314" lon="4.68066">
        <ele>385</ele>
        <time>2017-04-27T09:45:10Z</time>
      </trkpt>
      <trkpt lat="45.91317" lon="4.68067">
        <ele>385</ele>
        <time>2017-04-27T09:45:11Z</time>
      </trkpt>
      <trkpt lat="45.91326" lon="4.68071">
        <ele>385</ele>
        <time>2017-04-27T09:45:13Z</time>
      </trkpt>
      <trkpt lat="45.9133" lon="4.68073">
        <ele>385</ele>
        <time>2017-04-27T09:45:14Z</time>
      </trkpt>
      <trkpt lat="45.91338" lon="4.68076">
        <ele>385</ele>
        <time>2017-04-27T09:45:16Z</time>
      </trkpt>
      <trkpt lat="45.91341" lon="4.68078">
        <ele>385</ele>
        <time>2017-04-27T09:45:17Z</time>
      </trkpt>
      <trkpt lat="45.91349" lon="4.68081">
        <ele>385</ele>
        <time>2017-04-27T09:45:19Z</time>
      </trkpt>
      <trkpt lat="45.91353" lon="4.68082">
        <ele>385</ele>
        <time>2017-04-27T09:45:20Z</time>
      </trkpt>
      <trkpt lat="45.9136" lon="4.68085">
        <ele>386</ele>
        <time>2017-04-27T09:45:22Z</time>
      </trkpt>
      <trkpt lat="45.91364" lon="4.68086">
        <ele>386</ele>
        <time>2017-04-27T09:45:23Z</time>
      </trkpt>
      <trkpt lat="45.91372" lon="4.68088">
        <ele>386</ele>
        <time>2017-04-27T09:45:25Z</time>
      </trkpt>
      <trkpt lat="45.91376" lon="4.68089">
        <ele>386</ele>
        <time>2017-04-27T09:45:26Z</time>
      </trkpt>
      <trkpt lat="45.91384" lon="4.68091">
        <ele>386</ele>
        <time>2017-04-27T09:45:28Z</time>
      </trkpt>
      <trkpt lat="45.91388" lon="4.68091">
        <ele>386</ele>
        <time>2017-04-27T09:45:29Z</time>
      </trkpt>
      <trkpt lat="45.91395" lon="4.6809">
        <ele>386</ele>
        <time>2017-04-27T09:45:31Z</time>
      </trkpt>
      <trkpt lat="45.91399" lon="4.68089">
        <ele>386</ele>
        <time>2017-04-27T09:45:32Z</time>
      </trkpt>
      <trkpt lat="45.91406" lon="4.68088">
        <ele>386</ele>
        <time>2017-04-27T09:45:34Z</time>
      </trkpt>
      <trkpt lat="45.9141" lon="4.68088">
        <ele>386</ele>
        <time>2017-04-27T09:45:35Z</time>
      </trkpt>
      <trkpt lat="45.91417" lon="4.68086">
        <ele>386</ele>
        <time>2017-04-27T09:45:37Z</time>
      </trkpt>
      <trkpt lat="45.91421" lon="4.68086">
        <ele>386</ele>
        <time>2017-04-27T09:45:38Z</time>
      </trkpt>
      <trkpt lat="45.91429" lon="4.68086">
        <ele>385</ele>
        <time>2017-04-27T09:45:40Z</time>
      </trkpt>
      <trkpt lat="45.91433" lon="4.68086">
        <ele>385</ele>
        <time>2017-04-27T09:45:41Z</time>
      </trkpt>
      <trkpt lat="45.9144" lon="4.68088">
        <ele>385</ele>
        <time>2017-04-27T09:45:43Z</time>
      </trkpt>
      <trkpt lat="45.91444" lon="4.68089">
        <ele>385</ele>
        <time>2017-04-27T09:45:44Z</time>
      </trkpt>
      <trkpt lat="45.91451" lon="4.68093">
        <ele>384</ele>
        <time>2017-04-27T09:45:46Z</time>
      </trkpt>
      <trkpt lat="45.91455" lon="4.68095">
        <ele>384</ele>
        <time>2017-04-27T09:45:47Z</time>
      </trkpt>
      <trkpt lat="45.91459" lon="4.68097">
        <ele>384</ele>
        <time>2017-04-27T09:45:48Z</time>
      </trkpt>
      <trkpt lat="45.91464" lon="4.681">
        <ele>384</ele>
        <time>2017-04-27T09:45:49Z</time>
      </trkpt>
      <trkpt lat="45.91468" lon="4.68103">
        <ele>384</ele>
        <time>2017-04-27T09:45:50Z</time>
      </trkpt>
      <trkpt lat="45.91473" lon="4.68106">
        <ele>384</ele>
        <time>2017-04-27T09:45:51Z</time>
      </trkpt>
      <trkpt lat="45.91478" lon="4.68109">
        <ele>383</ele>
        <time>2017-04-27T09:45:52Z</time>
      </trkpt>
      <trkpt lat="45.91483" lon="4.68111">
        <ele>383</ele>
        <time>2017-04-27T09:45:53Z</time>
      </trkpt>
      <trkpt lat="45.91488" lon="4.68114">
        <ele>383</ele>
        <time>2017-04-27T09:45:54Z</time>
      </trkpt>
      <trkpt lat="45.91493" lon="4.68118">
        <ele>383</ele>
        <time>2017-04-27T09:45:55Z</time>
      </trkpt>
      <trkpt lat="45.91498" lon="4.68121">
        <ele>383</ele>
        <time>2017-04-27T09:45:56Z</time>
      </trkpt>
      <trkpt lat="45.91503" lon="4.68124">
        <ele>380</ele>
        <time>2017-04-27T09:45:57Z</time>
      </trkpt>
      <trkpt lat="45.91509" lon="4.68128">
        <ele>380</ele>
        <time>2017-04-27T09:45:58Z</time>
      </trkpt>
      <trkpt lat="45.91515" lon="4.68132">
        <ele>380</ele>
        <time>2017-04-27T09:45:59Z</time>
      </trkpt>
      <trkpt lat="45.9152" lon="4.68135">
        <ele>380</ele>
        <time>2017-04-27T09:46:00Z</time>
      </trkpt>
      <trkpt lat="45.91526" lon="4.68138">
        <ele>380</ele>
        <time>2017-04-27T09:46:01Z</time>
      </trkpt>
      <trkpt lat="45.91533" lon="4.68141">
        <ele>379</ele>
        <time>2017-04-27T09:46:02Z</time>
      </trkpt>
      <trkpt lat="45.91539" lon="4.68145">
        <ele>379</ele>
        <time>2017-04-27T09:46:03Z</time>
      </trkpt>
      <trkpt lat="45.91546" lon="4.68148">
        <ele>379</ele>
        <time>2017-04-27T09:46:04Z</time>
      </trkpt>
      <trkpt lat="45.91552" lon="4.68151">
        <ele>379</ele>
        <time>2017-04-27T09:46:05Z</time>
      </trkpt>
      <trkpt lat="45.91559" lon="4.68154">
        <ele>379</ele>
        <time>2017-04-27T09:46:06Z</time>
      </trkpt>
      <trkpt lat="45.91566" lon="4.68158">
        <ele>378</ele>
        <time>2017-04-27T09:46:07Z</time>
      </trkpt>
      <trkpt lat="45.91573" lon="4.68162">
        <ele>378</ele>
        <time>2017-04-27T09:46:08Z</time>
      </trkpt>
      <trkpt lat="45.9158" lon="4.68167">
        <ele>378</ele>
        <time>2017-04-27T09:46:09Z</time>
      </trkpt>
      <trkpt lat="45.91587" lon="4.68172">
        <ele>377</ele>
        <time>2017-04-27T09:46:10Z</time>
      </trkpt>
      <trkpt lat="45.91593" lon="4.68178">
        <ele>377</ele>
        <time>2017-04-27T09:46:11Z</time>
      </trkpt>
      <trkpt lat="45.916" lon="4.68183">
        <ele>376</ele>
        <time>2017-04-27T09:46:12Z</time>
      </trkpt>
      <trkpt lat="45.91607" lon="4.68188">
        <ele>376</ele>
        <time>2017-04-27T09:46:13Z</time>
      </trkpt>
      <trkpt lat="45.91613" lon="4.68194">
        <ele>375</ele>
        <time>2017-04-27T09:46:14Z</time>
      </trkpt>
      <trkpt lat="45.9162" lon="4.682">
        <ele>375</ele>
        <time>2017-04-27T09:46:15Z</time>
      </trkpt>
      <trkpt lat="45.91627" lon="4.68204">
        <ele>375</ele>
        <time>2017-04-27T09:46:16Z</time>
      </trkpt>
      <trkpt lat="45.91634" lon="4.68209">
        <ele>375</ele>
        <time>2017-04-27T09:46:17Z</time>
      </trkpt>
      <trkpt lat="45.91642" lon="4.68214">
        <ele>374</ele>
        <time>2017-04-27T09:46:18Z</time>
      </trkpt>
      <trkpt lat="45.91648" lon="4.68219">
        <ele>374</ele>
        <time>2017-04-27T09:46:19Z</time>
      </trkpt>
      <trkpt lat="45.91655" lon="4.68224">
        <ele>374</ele>
        <time>2017-04-27T09:46:20Z</time>
      </trkpt>
      <trkpt lat="45.91662" lon="4.68228">
        <ele>374</ele>
        <time>2017-04-27T09:46:21Z</time>
      </trkpt>
      <trkpt lat="45.91669" lon="4.68233">
        <ele>372</ele>
        <time>2017-04-27T09:46:22Z</time>
      </trkpt>
      <trkpt lat="45.91675" lon="4.68238">
        <ele>372</ele>
        <time>2017-04-27T09:46:23Z</time>
      </trkpt>
      <trkpt lat="45.91682" lon="4.68242">
        <ele>372</ele>
        <time>2017-04-27T09:46:24Z</time>
      </trkpt>
      <trkpt lat="45.91688" lon="4.68246">
        <ele>371</ele>
        <time>2017-04-27T09:46:25Z</time>
      </trkpt>
      <trkpt lat="45.91694" lon="4.68251">
        <ele>373</ele>
        <time>2017-04-27T09:46:26Z</time>
      </trkpt>
      <trkpt lat="45.91701" lon="4.68254">
        <ele>373</ele>
        <time>2017-04-27T09:46:27Z</time>
      </trkpt>
      <trkpt lat="45.91707" lon="4.68258">
        <ele>373</ele>
        <time>2017-04-27T09:46:28Z</time>
      </trkpt>
      <trkpt lat="45.91713" lon="4.6826">
        <ele>373</ele>
        <time>2017-04-27T09:46:29Z</time>
      </trkpt>
      <trkpt lat="45.9172" lon="4.68261">
        <ele>372</ele>
        <time>2017-04-27T09:46:30Z</time>
      </trkpt>
      <trkpt lat="45.91726" lon="4.68262">
        <ele>372</ele>
        <time>2017-04-27T09:46:31Z</time>
      </trkpt>
      <trkpt lat="45.91732" lon="4.68264">
        <ele>372</ele>
        <time>2017-04-27T09:46:32Z</time>
      </trkpt>
      <trkpt lat="45.91738" lon="4.68265">
        <ele>372</ele>
        <time>2017-04-27T09:46:33Z</time>
      </trkpt>
      <trkpt lat="45.91744" lon="4.68266">
        <ele>372</ele>
        <time>2017-04-27T09:46:34Z</time>
      </trkpt>
      <trkpt lat="45.91749" lon="4.68267">
        <ele>372</ele>
        <time>2017-04-27T09:46:35Z</time>
      </trkpt>
      <trkpt lat="45.91754" lon="4.68268">
        <ele>372</ele>
        <time>2017-04-27T09:46:36Z</time>
      </trkpt>
      <trkpt lat="45.9176" lon="4.6827">
        <ele>372</ele>
        <time>2017-04-27T09:46:37Z</time>
      </trkpt>
      <trkpt lat="45.91764" lon="4.68271">
        <ele>372</ele>
        <time>2017-04-27T09:46:38Z</time>
      </trkpt>
      <trkpt lat="45.91769" lon="4.68272">
        <ele>372</ele>
        <time>2017-04-27T09:46:39Z</time>
      </trkpt>
      <trkpt lat="45.91774" lon="4.68273">
        <ele>372</ele>
        <time>2017-04-27T09:46:40Z</time>
      </trkpt>
      <trkpt lat="45.91778" lon="4.68273">
        <ele>372</ele>
        <time>2017-04-27T09:46:41Z</time>
      </trkpt>
      <trkpt lat="45.91787" lon="4.68275">
        <ele>372</ele>
        <time>2017-04-27T09:46:43Z</time>
      </trkpt>
      <trkpt lat="45.91791" lon="4.68276">
        <ele>372</ele>
        <time>2017-04-27T09:46:44Z</time>
      </trkpt>
      <trkpt lat="45.91799" lon="4.68278">
        <ele>373</ele>
        <time>2017-04-27T09:46:46Z</time>
      </trkpt>
      <trkpt lat="45.91802" lon="4.68279">
        <ele>373</ele>
        <time>2017-04-27T09:46:47Z</time>
      </trkpt>
      <trkpt lat="45.9181" lon="4.6828">
        <ele>373</ele>
        <time>2017-04-27T09:46:49Z</time>
      </trkpt>
      <trkpt lat="45.91814" lon="4.68282">
        <ele>373</ele>
        <time>2017-04-27T09:46:50Z</time>
      </trkpt>
      <trkpt lat="45.91819" lon="4.68284">
        <ele>373</ele>
        <time>2017-04-27T09:46:51Z</time>
      </trkpt>
      <trkpt lat="45.91823" lon="4.68285">
        <ele>373</ele>
        <time>2017-04-27T09:46:52Z</time>
      </trkpt>
      <trkpt lat="45.91828" lon="4.68286">
        <ele>373</ele>
        <time>2017-04-27T09:46:53Z</time>
      </trkpt>
      <trkpt lat="45.91832" lon="4.68288">
        <ele>373</ele>
        <time>2017-04-27T09:46:54Z</time>
      </trkpt>
      <trkpt lat="45.91837" lon="4.68289">
        <ele>375</ele>
        <time>2017-04-27T09:46:55Z</time>
      </trkpt>
      <trkpt lat="45.91842" lon="4.6829">
        <ele>375</ele>
        <time>2017-04-27T09:46:56Z</time>
      </trkpt>
      <trkpt lat="45.9185" lon="4.68292">
        <ele>375</ele>
        <time>2017-04-27T09:46:58Z</time>
      </trkpt>
      <trkpt lat="45.91855" lon="4.68292">
        <ele>375</ele>
        <time>2017-04-27T09:46:59Z</time>
      </trkpt>
      <trkpt lat="45.91864" lon="4.68292">
        <ele>375</ele>
        <time>2017-04-27T09:47:01Z</time>
      </trkpt>
      <trkpt lat="45.91868" lon="4.68293">
        <ele>376</ele>
        <time>2017-04-27T09:47:02Z</time>
      </trkpt>
      <trkpt lat="45.91876" lon="4.68293">
        <ele>376</ele>
        <time>2017-04-27T09:47:04Z</time>
      </trkpt>
      <trkpt lat="45.9188" lon="4.68293">
        <ele>376</ele>
        <time>2017-04-27T09:47:05Z</time>
      </trkpt>
      <trkpt lat="45.91887" lon="4.68294">
        <ele>376</ele>
        <time>2017-04-27T09:47:07Z</time>
      </trkpt>
      <trkpt lat="45.91891" lon="4.68295">
        <ele>376</ele>
        <time>2017-04-27T09:47:08Z</time>
      </trkpt>
      <trkpt lat="45.91899" lon="4.68296">
        <ele>377</ele>
        <time>2017-04-27T09:47:10Z</time>
      </trkpt>
      <trkpt lat="45.91903" lon="4.68296">
        <ele>377</ele>
        <time>2017-04-27T09:47:11Z</time>
      </trkpt>
      <trkpt lat="45.9191" lon="4.68297">
        <ele>377</ele>
        <time>2017-04-27T09:47:13Z</time>
      </trkpt>
      <trkpt lat="45.91913" lon="4.68298">
        <ele>377</ele>
        <time>2017-04-27T09:47:14Z</time>
      </trkpt>
      <trkpt lat="45.9192" lon="4.68299">
        <ele>379</ele>
        <time>2017-04-27T09:47:16Z</time>
      </trkpt>
      <trkpt lat="45.91923" lon="4.683">
        <ele>379</ele>
        <time>2017-04-27T09:47:17Z</time>
      </trkpt>
      <trkpt lat="45.9193" lon="4.68302">
        <ele>379</ele>
        <time>2017-04-27T09:47:19Z</time>
      </trkpt>
      <trkpt lat="45.91933" lon="4.68303">
        <ele>379</ele>
        <time>2017-04-27T09:47:20Z</time>
      </trkpt>
      <trkpt lat="45.9194" lon="4.68303">
        <ele>379</ele>
        <time>2017-04-27T09:47:22Z</time>
      </trkpt>
      <trkpt lat="45.91944" lon="4.68304">
        <ele>379</ele>
        <time>2017-04-27T09:47:23Z</time>
      </trkpt>
      <trkpt lat="45.91952" lon="4.68306">
        <ele>379</ele>
        <time>2017-04-27T09:47:25Z</time>
      </trkpt>
      <trkpt lat="45.91955" lon="4.68307">
        <ele>379</ele>
        <time>2017-04-27T09:47:26Z</time>
      </trkpt>
      <trkpt lat="45.91963" lon="4.6831">
        <ele>380</ele>
        <time>2017-04-27T09:47:28Z</time>
      </trkpt>
      <trkpt lat="45.91967" lon="4.68311">
        <ele>380</ele>
        <time>2017-04-27T09:47:29Z</time>
      </trkpt>
      <trkpt lat="45.91975" lon="4.68313">
        <ele>380</ele>
        <time>2017-04-27T09:47:31Z</time>
      </trkpt>
      <trkpt lat="45.91979" lon="4.68314">
        <ele>380</ele>
        <time>2017-04-27T09:47:32Z</time>
      </trkpt>
      <trkpt lat="45.91986" lon="4.68316">
        <ele>381</ele>
        <time>2017-04-27T09:47:34Z</time>
      </trkpt>
      <trkpt lat="45.91989" lon="4.68317">
        <ele>381</ele>
        <time>2017-04-27T09:47:35Z</time>
      </trkpt>
      <trkpt lat="45.91996" lon="4.68319">
        <ele>381</ele>
        <time>2017-04-27T09:47:37Z</time>
      </trkpt>
      <trkpt lat="45.92" lon="4.68321">
        <ele>381</ele>
        <time>2017-04-27T09:47:38Z</time>
      </trkpt>
      <trkpt lat="45.92008" lon="4.68322">
        <ele>381</ele>
        <time>2017-04-27T09:47:40Z</time>
      </trkpt>
      <trkpt lat="45.92012" lon="4.68322">
        <ele>381</ele>
        <time>2017-04-27T09:47:41Z</time>
      </trkpt>
      <trkpt lat="45.92019" lon="4.68321">
        <ele>380</ele>
        <time>2017-04-27T09:47:43Z</time>
      </trkpt>
      <trkpt lat="45.92023" lon="4.68322">
        <ele>380</ele>
        <time>2017-04-27T09:47:44Z</time>
      </trkpt>
      <trkpt lat="45.9203" lon="4.68323">
        <ele>380</ele>
        <time>2017-04-27T09:47:46Z</time>
      </trkpt>
      <trkpt lat="45.92034" lon="4.68324">
        <ele>380</ele>
        <time>2017-04-27T09:47:47Z</time>
      </trkpt>
      <trkpt lat="45.92042" lon="4.68325">
        <ele>380</ele>
        <time>2017-04-27T09:47:49Z</time>
      </trkpt>
      <trkpt lat="45.92046" lon="4.68326">
        <ele>380</ele>
        <time>2017-04-27T09:47:50Z</time>
      </trkpt>
      <trkpt lat="45.92055" lon="4.68329">
        <ele>380</ele>
        <time>2017-04-27T09:47:52Z</time>
      </trkpt>
      <trkpt lat="45.92059" lon="4.6833">
        <ele>380</ele>
        <time>2017-04-27T09:47:53Z</time>
      </trkpt>
      <trkpt lat="45.92064" lon="4.68331">
        <ele>380</ele>
        <time>2017-04-27T09:47:54Z</time>
      </trkpt>
      <trkpt lat="45.92068" lon="4.68332">
        <ele>380</ele>
        <time>2017-04-27T09:47:55Z</time>
      </trkpt>
      <trkpt lat="45.92077" lon="4.68334">
        <ele>383</ele>
        <time>2017-04-27T09:47:57Z</time>
      </trkpt>
      <trkpt lat="45.92081" lon="4.68336">
        <ele>382</ele>
        <time>2017-04-27T09:47:58Z</time>
      </trkpt>
      <trkpt lat="45.92088" lon="4.68337">
        <ele>382</ele>
        <time>2017-04-27T09:48:00Z</time>
      </trkpt>
      <trkpt lat="45.92091" lon="4.68338">
        <ele>382</ele>
        <time>2017-04-27T09:48:01Z</time>
      </trkpt>
      <trkpt lat="45.92098" lon="4.68341">
        <ele>383</ele>
        <time>2017-04-27T09:48:03Z</time>
      </trkpt>
      <trkpt lat="45.92102" lon="4.68343">
        <ele>383</ele>
        <time>2017-04-27T09:48:04Z</time>
      </trkpt>
      <trkpt lat="45.92107" lon="4.68346">
        <ele>383</ele>
        <time>2017-04-27T09:48:05Z</time>
      </trkpt>
      <trkpt lat="45.92111" lon="4.68348">
        <ele>383</ele>
        <time>2017-04-27T09:48:06Z</time>
      </trkpt>
      <trkpt lat="45.92115" lon="4.6835">
        <ele>383</ele>
        <time>2017-04-27T09:48:07Z</time>
      </trkpt>
      <trkpt lat="45.92119" lon="4.68354">
        <ele>383</ele>
        <time>2017-04-27T09:48:08Z</time>
      </trkpt>
      <trkpt lat="45.92124" lon="4.68357">
        <ele>383</ele>
        <time>2017-04-27T09:48:09Z</time>
      </trkpt>
      <trkpt lat="45.92128" lon="4.6836">
        <ele>383</ele>
        <time>2017-04-27T09:48:10Z</time>
      </trkpt>
      <trkpt lat="45.92135" lon="4.68366">
        <ele>383</ele>
        <time>2017-04-27T09:48:12Z</time>
      </trkpt>
      <trkpt lat="45.92138" lon="4.68369">
        <ele>383</ele>
        <time>2017-04-27T09:48:13Z</time>
      </trkpt>
      <trkpt lat="45.92144" lon="4.68374">
        <ele>384</ele>
        <time>2017-04-27T09:48:15Z</time>
      </trkpt>
      <trkpt lat="45.92147" lon="4.68377">
        <ele>384</ele>
        <time>2017-04-27T09:48:16Z</time>
      </trkpt>
      <trkpt lat="45.92153" lon="4.68383">
        <ele>384</ele>
        <time>2017-04-27T09:48:18Z</time>
      </trkpt>
      <trkpt lat="45.92157" lon="4.68387">
        <ele>384</ele>
        <time>2017-04-27T09:48:19Z</time>
      </trkpt>
      <trkpt lat="45.92163" lon="4.68394">
        <ele>384</ele>
        <time>2017-04-27T09:48:21Z</time>
      </trkpt>
      <trkpt lat="45.92166" lon="4.68398">
        <ele>385</ele>
        <time>2017-04-27T09:48:22Z</time>
      </trkpt>
      <trkpt lat="45.92172" lon="4.68408">
        <ele>384</ele>
        <time>2017-04-27T09:48:24Z</time>
      </trkpt>
      <trkpt lat="45.92175" lon="4.68412">
        <ele>385</ele>
        <time>2017-04-27T09:48:25Z</time>
      </trkpt>
      <trkpt lat="45.92183" lon="4.68419">
        <ele>386</ele>
        <time>2017-04-27T09:48:27Z</time>
      </trkpt>
      <trkpt lat="45.92187" lon="4.68421">
        <ele>386</ele>
        <time>2017-04-27T09:48:28Z</time>
      </trkpt>
      <trkpt lat="45.92194" lon="4.68426">
        <ele>386</ele>
        <time>2017-04-27T09:48:30Z</time>
      </trkpt>
      <trkpt lat="45.92198" lon="4.68428">
        <ele>386</ele>
        <time>2017-04-27T09:48:31Z</time>
      </trkpt>
      <trkpt lat="45.92206" lon="4.68432">
        <ele>386</ele>
        <time>2017-04-27T09:48:33Z</time>
      </trkpt>
      <trkpt lat="45.9221" lon="4.68435">
        <ele>386</ele>
        <time>2017-04-27T09:48:34Z</time>
      </trkpt>
      <trkpt lat="45.92217" lon="4.68441">
        <ele>386</ele>
        <time>2017-04-27T09:48:36Z</time>
      </trkpt>
      <trkpt lat="45.92221" lon="4.68445">
        <ele>386</ele>
        <time>2017-04-27T09:48:37Z</time>
      </trkpt>
      <trkpt lat="45.92228" lon="4.68451">
        <ele>386</ele>
        <time>2017-04-27T09:48:39Z</time>
      </trkpt>
      <trkpt lat="45.92231" lon="4.68454">
        <ele>386</ele>
        <time>2017-04-27T09:48:40Z</time>
      </trkpt>
      <trkpt lat="45.92238" lon="4.68461">
        <ele>386</ele>
        <time>2017-04-27T09:48:42Z</time>
      </trkpt>
      <trkpt lat="45.9224" lon="4.68463">
        <ele>386</ele>
        <time>2017-04-27T09:48:43Z</time>
      </trkpt>
      <trkpt lat="45.92246" lon="4.68469">
        <ele>386</ele>
        <time>2017-04-27T09:48:45Z</time>
      </trkpt>
      <trkpt lat="45.92249" lon="4.68472">
        <ele>386</ele>
        <time>2017-04-27T09:48:46Z</time>
      </trkpt>
      <trkpt lat="45.92256" lon="4.68478">
        <ele>384</ele>
        <time>2017-04-27T09:48:48Z</time>
      </trkpt>
      <trkpt lat="45.9226" lon="4.68482">
        <ele>384</ele>
        <time>2017-04-27T09:48:49Z</time>
      </trkpt>
      <trkpt lat="45.92263" lon="4.68486">
        <ele>384</ele>
        <time>2017-04-27T09:48:50Z</time>
      </trkpt>
      <trkpt lat="45.92267" lon="4.68491">
        <ele>384</ele>
        <time>2017-04-27T09:48:51Z</time>
      </trkpt>
      <trkpt lat="45.92271" lon="4.68495">
        <ele>384</ele>
        <time>2017-04-27T09:48:52Z</time>
      </trkpt>
      <trkpt lat="45.92275" lon="4.685">
        <ele>384</ele>
        <time>2017-04-27T09:48:53Z</time>
      </trkpt>
      <trkpt lat="45.92279" lon="4.68504">
        <ele>387</ele>
        <time>2017-04-27T09:48:54Z</time>
      </trkpt>
      <trkpt lat="45.92283" lon="4.68509">
        <ele>387</ele>
        <time>2017-04-27T09:48:55Z</time>
      </trkpt>
      <trkpt lat="45.92288" lon="4.68513">
        <ele>387</ele>
        <time>2017-04-27T09:48:56Z</time>
      </trkpt>
      <trkpt lat="45.92291" lon="4.68517">
        <ele>387</ele>
        <time>2017-04-27T09:48:57Z</time>
      </trkpt>
      <trkpt lat="45.92296" lon="4.68521">
        <ele>387</ele>
        <time>2017-04-27T09:48:58Z</time>
      </trkpt>
      <trkpt lat="45.92299" lon="4.68525">
        <ele>387</ele>
        <time>2017-04-27T09:48:59Z</time>
      </trkpt>
      <trkpt lat="45.92307" lon="4.68531">
        <ele>388</ele>
        <time>2017-04-27T09:49:01Z</time>
      </trkpt>
      <trkpt lat="45.9231" lon="4.68535">
        <ele>388</ele>
        <time>2017-04-27T09:49:02Z</time>
      </trkpt>
      <trkpt lat="45.92317" lon="4.68542">
        <ele>388</ele>
        <time>2017-04-27T09:49:04Z</time>
      </trkpt>
      <trkpt lat="45.9232" lon="4.68545">
        <ele>388</ele>
        <time>2017-04-27T09:49:05Z</time>
      </trkpt>
      <trkpt lat="45.92324" lon="4.68549">
        <ele>388</ele>
        <time>2017-04-27T09:49:06Z</time>
      </trkpt>
      <trkpt lat="45.92328" lon="4.68552">
        <ele>389</ele>
        <time>2017-04-27T09:49:07Z</time>
      </trkpt>
      <trkpt lat="45.92332" lon="4.68555">
        <ele>389</ele>
        <time>2017-04-27T09:49:08Z</time>
      </trkpt>
      <trkpt lat="45.92336" lon="4.68559">
        <ele>386</ele>
        <time>2017-04-27T09:49:09Z</time>
      </trkpt>
      <trkpt lat="45.9234" lon="4.68562">
        <ele>386</ele>
        <time>2017-04-27T09:49:10Z</time>
      </trkpt>
      <trkpt lat="45.92344" lon="4.68565">
        <ele>386</ele>
        <time>2017-04-27T09:49:11Z</time>
      </trkpt>
      <trkpt lat="45.92352" lon="4.68571">
        <ele>386</ele>
        <time>2017-04-27T09:49:13Z</time>
      </trkpt>
      <trkpt lat="45.92356" lon="4.68573">
        <ele>386</ele>
        <time>2017-04-27T09:49:14Z</time>
      </trkpt>
      <trkpt lat="45.92364" lon="4.68579">
        <ele>385</ele>
        <time>2017-04-27T09:49:16Z</time>
      </trkpt>
      <trkpt lat="45.92368" lon="4.68581">
        <ele>385</ele>
        <time>2017-04-27T09:49:17Z</time>
      </trkpt>
      <trkpt lat="45.92372" lon="4.68583">
        <ele>384</ele>
        <time>2017-04-27T09:49:18Z</time>
      </trkpt>
      <trkpt lat="45.92377" lon="4.68586">
        <ele>387</ele>
        <time>2017-04-27T09:49:19Z</time>
      </trkpt>
      <trkpt lat="45.92381" lon="4.6859">
        <ele>387</ele>
        <time>2017-04-27T09:49:20Z</time>
      </trkpt>
      <trkpt lat="45.92385" lon="4.68593">
        <ele>387</ele>
        <time>2017-04-27T09:49:21Z</time>
      </trkpt>
      <trkpt lat="45.9239" lon="4.68596">
        <ele>386</ele>
        <time>2017-04-27T09:49:22Z</time>
      </trkpt>
      <trkpt lat="45.92396" lon="4.68598">
        <ele>386</ele>
        <time>2017-04-27T09:49:23Z</time>
      </trkpt>
      <trkpt lat="45.92401" lon="4.686">
        <ele>386</ele>
        <time>2017-04-27T09:49:24Z</time>
      </trkpt>
      <trkpt lat="45.92406" lon="4.68603">
        <ele>386</ele>
        <time>2017-04-27T09:49:25Z</time>
      </trkpt>
      <trkpt lat="45.92411" lon="4.68606">
        <ele>386</ele>
        <time>2017-04-27T09:49:26Z</time>
      </trkpt>
      <trkpt lat="45.92417" lon="4.68609">
        <ele>386</ele>
        <time>2017-04-27T09:49:27Z</time>
      </trkpt>
      <trkpt lat="45.92422" lon="4.68612">
        <ele>381</ele>
        <time>2017-04-27T09:49:28Z</time>
      </trkpt>
      <trkpt lat="45.92428" lon="4.68615">
        <ele>381</ele>
        <time>2017-04-27T09:49:29Z</time>
      </trkpt>
      <trkpt lat="45.92434" lon="4.68617">
        <ele>381</ele>
        <time>2017-04-27T09:49:30Z</time>
      </trkpt>
      <trkpt lat="45.92439" lon="4.6862">
        <ele>381</ele>
        <time>2017-04-27T09:49:31Z</time>
      </trkpt>
      <trkpt lat="45.92445" lon="4.68623">
        <ele>381</ele>
        <time>2017-04-27T09:49:32Z</time>
      </trkpt>
      <trkpt lat="45.92451" lon="4.68626">
        <ele>380</ele>
        <time>2017-04-27T09:49:33Z</time>
      </trkpt>
      <trkpt lat="45.92457" lon="4.6863">
        <ele>380</ele>
        <time>2017-04-27T09:49:34Z</time>
      </trkpt>
      <trkpt lat="45.92464" lon="4.68633">
        <ele>380</ele>
        <time>2017-04-27T09:49:35Z</time>
      </trkpt>
      <trkpt lat="45.9247" lon="4.68636">
        <ele>380</ele>
        <time>2017-04-27T09:49:36Z</time>
      </trkpt>
      <trkpt lat="45.92477" lon="4.68639">
        <ele>379</ele>
        <time>2017-04-27T09:49:37Z</time>
      </trkpt>
      <trkpt lat="45.92484" lon="4.68641">
        <ele>379</ele>
        <time>2017-04-27T09:49:38Z</time>
      </trkpt>
      <trkpt lat="45.92492" lon="4.68643">
        <ele>379</ele>
        <time>2017-04-27T09:49:39Z</time>
      </trkpt>
      <trkpt lat="45.92499" lon="4.68645">
        <ele>379</ele>
        <time>2017-04-27T09:49:40Z</time>
      </trkpt>
      <trkpt lat="45.92506" lon="4.68647">
        <ele>376</ele>
        <time>2017-04-27T09:49:41Z</time>
      </trkpt>
      <trkpt lat="45.92514" lon="4.68648">
        <ele>376</ele>
        <time>2017-04-27T09:49:42Z</time>
      </trkpt>
      <trkpt lat="45.92522" lon="4.6865">
        <ele>375</ele>
        <time>2017-04-27T09:49:43Z</time>
      </trkpt>
      <trkpt lat="45.92529" lon="4.68652">
        <ele>375</ele>
        <time>2017-04-27T09:49:44Z</time>
      </trkpt>
      <trkpt lat="45.92535" lon="4.68653">
        <ele>375</ele>
        <time>2017-04-27T09:49:45Z</time>
      </trkpt>
      <trkpt lat="45.92541" lon="4.68655">
        <ele>374</ele>
        <time>2017-04-27T09:49:46Z</time>
      </trkpt>
      <trkpt lat="45.92548" lon="4.68656">
        <ele>374</ele>
        <time>2017-04-27T09:49:47Z</time>
      </trkpt>
      <trkpt lat="45.92554" lon="4.68655">
        <ele>374</ele>
        <time>2017-04-27T09:49:48Z</time>
      </trkpt>
      <trkpt lat="45.9256" lon="4.68654">
        <ele>374</ele>
        <time>2017-04-27T09:49:49Z</time>
      </trkpt>
      <trkpt lat="45.92566" lon="4.68651">
        <ele>374</ele>
        <time>2017-04-27T09:49:50Z</time>
      </trkpt>
      <trkpt lat="45.92571" lon="4.68647">
        <ele>374</ele>
        <time>2017-04-27T09:49:51Z</time>
      </trkpt>
      <trkpt lat="45.92576" lon="4.68645">
        <ele>373</ele>
        <time>2017-04-27T09:49:52Z</time>
      </trkpt>
      <trkpt lat="45.92582" lon="4.68642">
        <ele>373</ele>
        <time>2017-04-27T09:49:53Z</time>
      </trkpt>
      <trkpt lat="45.92587" lon="4.6864">
        <ele>370</ele>
        <time>2017-04-27T09:49:54Z</time>
      </trkpt>
      <trkpt lat="45.92591" lon="4.68638">
        <ele>370</ele>
        <time>2017-04-27T09:49:55Z</time>
      </trkpt>
      <trkpt lat="45.92598" lon="4.68635">
        <ele>370</ele>
        <time>2017-04-27T09:49:57Z</time>
      </trkpt>
      <trkpt lat="45.92601" lon="4.68635">
        <ele>369</ele>
        <time>2017-04-27T09:49:58Z</time>
      </trkpt>
      <trkpt lat="45.92607" lon="4.68635">
        <ele>369</ele>
        <time>2017-04-27T09:50:00Z</time>
      </trkpt>
      <trkpt lat="45.9261" lon="4.68634">
        <ele>369</ele>
        <time>2017-04-27T09:50:01Z</time>
      </trkpt>
      <trkpt lat="45.92617" lon="4.6863">
        <ele>369</ele>
        <time>2017-04-27T09:50:03Z</time>
      </trkpt>
      <trkpt lat="45.9262" lon="4.68627">
        <ele>368</ele>
        <time>2017-04-27T09:50:04Z</time>
      </trkpt>
      <trkpt lat="45.92628" lon="4.68624">
        <ele>368</ele>
        <time>2017-04-27T09:50:06Z</time>
      </trkpt>
      <trkpt lat="45.92632" lon="4.68622">
        <ele>368</ele>
        <time>2017-04-27T09:50:07Z</time>
      </trkpt>
      <trkpt lat="45.9264" lon="4.68618">
        <ele>368</ele>
        <time>2017-04-27T09:50:09Z</time>
      </trkpt>
      <trkpt lat="45.92644" lon="4.68617">
        <ele>367</ele>
        <time>2017-04-27T09:50:10Z</time>
      </trkpt>
      <trkpt lat="45.92653" lon="4.68614">
        <ele>367</ele>
        <time>2017-04-27T09:50:12Z</time>
      </trkpt>
      <trkpt lat="45.92657" lon="4.68612">
        <ele>367</ele>
        <time>2017-04-27T09:50:13Z</time>
      </trkpt>
      <trkpt lat="45.92662" lon="4.68611">
        <ele>367</ele>
        <time>2017-04-27T09:50:14Z</time>
      </trkpt>
      <trkpt lat="45.92667" lon="4.68609">
        <ele>364</ele>
        <time>2017-04-27T09:50:15Z</time>
      </trkpt>
      <trkpt lat="45.92673" lon="4.68607">
        <ele>364</ele>
        <time>2017-04-27T09:50:16Z</time>
      </trkpt>
      <trkpt lat="45.92678" lon="4.68605">
        <ele>364</ele>
        <time>2017-04-27T09:50:17Z</time>
      </trkpt>
      <trkpt lat="45.92683" lon="4.68603">
        <ele>364</ele>
        <time>2017-04-27T09:50:18Z</time>
      </trkpt>
      <trkpt lat="45.92689" lon="4.686">
        <ele>364</ele>
        <time>2017-04-27T09:50:19Z</time>
      </trkpt>
      <trkpt lat="45.92695" lon="4.68598">
        <ele>364</ele>
        <time>2017-04-27T09:50:20Z</time>
      </trkpt>
      <trkpt lat="45.92701" lon="4.68595">
        <ele>364</ele>
        <time>2017-04-27T09:50:21Z</time>
      </trkpt>
      <trkpt lat="45.92706" lon="4.68592">
        <ele>364</ele>
        <time>2017-04-27T09:50:22Z</time>
      </trkpt>
      <trkpt lat="45.92712" lon="4.6859">
        <ele>364</ele>
        <time>2017-04-27T09:50:23Z</time>
      </trkpt>
      <trkpt lat="45.92717" lon="4.68587">
        <ele>364</ele>
        <time>2017-04-27T09:50:24Z</time>
      </trkpt>
      <trkpt lat="45.92723" lon="4.68585">
        <ele>364</ele>
        <time>2017-04-27T09:50:25Z</time>
      </trkpt>
      <trkpt lat="45.92728" lon="4.68583">
        <ele>366</ele>
        <time>2017-04-27T09:50:26Z</time>
      </trkpt>
      <trkpt lat="45.92733" lon="4.68581">
        <ele>366</ele>
        <time>2017-04-27T09:50:27Z</time>
      </trkpt>
      <trkpt lat="45.92738" lon="4.68579">
        <ele>366</ele>
        <time>2017-04-27T09:50:28Z</time>
      </trkpt>
      <trkpt lat="45.92744" lon="4.68578">
        <ele>366</ele>
        <time>2017-04-27T09:50:29Z</time>
      </trkpt>
      <trkpt lat="45.9275" lon="4.68577">
        <ele>366</ele>
        <time>2017-04-27T09:50:30Z</time>
      </trkpt>
      <trkpt lat="45.92755" lon="4.68577">
        <ele>366</ele>
        <time>2017-04-27T09:50:31Z</time>
      </trkpt>
      <trkpt lat="45.9276" lon="4.68577">
        <ele>366</ele>
        <time>2017-04-27T09:50:32Z</time>
      </trkpt>
      <trkpt lat="45.92766" lon="4.68576">
        <ele>365</ele>
        <time>2017-04-27T09:50:33Z</time>
      </trkpt>
      <trkpt lat="45.92771" lon="4.68576">
        <ele>365</ele>
        <time>2017-04-27T09:50:34Z</time>
      </trkpt>
      <trkpt lat="45.92777" lon="4.68577">
        <ele>365</ele>
        <time>2017-04-27T09:50:35Z</time>
      </trkpt>
      <trkpt lat="45.92782" lon="4.68578">
        <ele>365</ele>
        <time>2017-04-27T09:50:36Z</time>
      </trkpt>
      <trkpt lat="45.92788" lon="4.68578">
        <ele>364</ele>
        <time>2017-04-27T09:50:37Z</time>
      </trkpt>
      <trkpt lat="45.92794" lon="4.68579">
        <ele>364</ele>
        <time>2017-04-27T09:50:38Z</time>
      </trkpt>
      <trkpt lat="45.928" lon="4.6858">
        <ele>364</ele>
        <time>2017-04-27T09:50:39Z</time>
      </trkpt>
      <trkpt lat="45.92806" lon="4.68581">
        <ele>364</ele>
        <time>2017-04-27T09:50:40Z</time>
      </trkpt>
      <trkpt lat="45.92812" lon="4.68582">
        <ele>363</ele>
        <time>2017-04-27T09:50:41Z</time>
      </trkpt>
      <trkpt lat="45.92818" lon="4.68584">
        <ele>361</ele>
        <time>2017-04-27T09:50:42Z</time>
      </trkpt>
      <trkpt lat="45.92825" lon="4.68584">
        <ele>361</ele>
        <time>2017-04-27T09:50:43Z</time>
      </trkpt>
      <trkpt lat="45.92831" lon="4.68586">
        <ele>361</ele>
        <time>2017-04-27T09:50:44Z</time>
      </trkpt>
      <trkpt lat="45.92837" lon="4.68587">
        <ele>360</ele>
        <time>2017-04-27T09:50:45Z</time>
      </trkpt>
      <trkpt lat="45.92844" lon="4.68588">
        <ele>360</ele>
        <time>2017-04-27T09:50:46Z</time>
      </trkpt>
      <trkpt lat="45.9285" lon="4.68589">
        <ele>359</ele>
        <time>2017-04-27T09:50:47Z</time>
      </trkpt>
      <trkpt lat="45.92857" lon="4.6859">
        <ele>359</ele>
        <time>2017-04-27T09:50:48Z</time>
      </trkpt>
      <trkpt lat="45.92863" lon="4.68591">
        <ele>359</ele>
        <time>2017-04-27T09:50:49Z</time>
      </trkpt>
      <trkpt lat="45.9287" lon="4.68592">
        <ele>359</ele>
        <time>2017-04-27T09:50:50Z</time>
      </trkpt>
      <trkpt lat="45.92877" lon="4.68593">
        <ele>358</ele>
        <time>2017-04-27T09:50:51Z</time>
      </trkpt>
      <trkpt lat="45.92883" lon="4.68594">
        <ele>358</ele>
        <time>2017-04-27T09:50:52Z</time>
      </trkpt>
      <trkpt lat="45.9289" lon="4.68595">
        <ele>358</ele>
        <time>2017-04-27T09:50:53Z</time>
      </trkpt>
      <trkpt lat="45.92897" lon="4.68597">
        <ele>358</ele>
        <time>2017-04-27T09:50:54Z</time>
      </trkpt>
      <trkpt lat="45.92903" lon="4.68598">
        <ele>358</ele>
        <time>2017-04-27T09:50:55Z</time>
      </trkpt>
      <trkpt lat="45.9291" lon="4.686">
        <ele>358</ele>
        <time>2017-04-27T09:50:56Z</time>
      </trkpt>
      <trkpt lat="45.92917" lon="4.68602">
        <ele>359</ele>
        <time>2017-04-27T09:50:57Z</time>
      </trkpt>
      <trkpt lat="45.92924" lon="4.68603">
        <ele>358</ele>
        <time>2017-04-27T09:50:58Z</time>
      </trkpt>
      <trkpt lat="45.92931" lon="4.68604">
        <ele>358</ele>
        <time>2017-04-27T09:50:59Z</time>
      </trkpt>
      <trkpt lat="45.92938" lon="4.68605">
        <ele>358</ele>
        <time>2017-04-27T09:51:00Z</time>
      </trkpt>
      <trkpt lat="45.92945" lon="4.68607">
        <ele>358</ele>
        <time>2017-04-27T09:51:01Z</time>
      </trkpt>
      <trkpt lat="45.92952" lon="4.68608">
        <ele>358</ele>
        <time>2017-04-27T09:51:02Z</time>
      </trkpt>
      <trkpt lat="45.92959" lon="4.68609">
        <ele>358</ele>
        <time>2017-04-27T09:51:03Z</time>
      </trkpt>
      <trkpt lat="45.92965" lon="4.6861">
        <ele>358</ele>
        <time>2017-04-27T09:51:04Z</time>
      </trkpt>
      <trkpt lat="45.92972" lon="4.68612">
        <ele>358</ele>
        <time>2017-04-27T09:51:05Z</time>
      </trkpt>
      <trkpt lat="45.92979" lon="4.68613">
        <ele>358</ele>
        <time>2017-04-27T09:51:06Z</time>
      </trkpt>
      <trkpt lat="45.92985" lon="4.68614">
        <ele>358</ele>
        <time>2017-04-27T09:51:07Z</time>
      </trkpt>
      <trkpt lat="45.92991" lon="4.68615">
        <ele>358</ele>
        <time>2017-04-27T09:51:08Z</time>
      </trkpt>
      <trkpt lat="45.92998" lon="4.68616">
        <ele>358</ele>
        <time>2017-04-27T09:51:09Z</time>
      </trkpt>
      <trkpt lat="45.93004" lon="4.68618">
        <ele>356</ele>
        <time>2017-04-27T09:51:10Z</time>
      </trkpt>
      <trkpt lat="45.9301" lon="4.68619">
        <ele>356</ele>
        <time>2017-04-27T09:51:11Z</time>
      </trkpt>
      <trkpt lat="45.93016" lon="4.6862">
        <ele>356</ele>
        <time>2017-04-27T09:51:12Z</time>
      </trkpt>
      <trkpt lat="45.93023" lon="4.68622">
        <ele>356</ele>
        <time>2017-04-27T09:51:13Z</time>
      </trkpt>
      <trkpt lat="45.93029" lon="4.68623">
        <ele>356</ele>
        <time>2017-04-27T09:51:14Z</time>
      </trkpt>
      <trkpt lat="45.93036" lon="4.68625">
        <ele>355</ele>
        <time>2017-04-27T09:51:15Z</time>
      </trkpt>
      <trkpt lat="45.93043" lon="4.68626">
        <ele>355</ele>
        <time>2017-04-27T09:51:16Z</time>
      </trkpt>
      <trkpt lat="45.9305" lon="4.68628">
        <ele>355</ele>
        <time>2017-04-27T09:51:17Z</time>
      </trkpt>
      <trkpt lat="45.93057" lon="4.6863">
        <ele>354</ele>
        <time>2017-04-27T09:51:18Z</time>
      </trkpt>
      <trkpt lat="45.93065" lon="4.68631">
        <ele>354</ele>
        <time>2017-04-27T09:51:19Z</time>
      </trkpt>
      <trkpt lat="45.93072" lon="4.68633">
        <ele>354</ele>
        <time>2017-04-27T09:51:20Z</time>
      </trkpt>
      <trkpt lat="45.9308" lon="4.68635">
        <ele>354</ele>
        <time>2017-04-27T09:51:21Z</time>
      </trkpt>
      <trkpt lat="45.93088" lon="4.68636">
        <ele>349</ele>
        <time>2017-04-27T09:51:22Z</time>
      </trkpt>
      <trkpt lat="45.93096" lon="4.68638">
        <ele>349</ele>
        <time>2017-04-27T09:51:23Z</time>
      </trkpt>
      <trkpt lat="45.93104" lon="4.6864">
        <ele>349</ele>
        <time>2017-04-27T09:51:24Z</time>
      </trkpt>
      <trkpt lat="45.93113" lon="4.68642">
        <ele>348</ele>
        <time>2017-04-27T09:51:25Z</time>
      </trkpt>
      <trkpt lat="45.93121" lon="4.68644">
        <ele>348</ele>
        <time>2017-04-27T09:51:26Z</time>
      </trkpt>
      <trkpt lat="45.93129" lon="4.68646">
        <ele>348</ele>
        <time>2017-04-27T09:51:27Z</time>
      </trkpt>
      <trkpt lat="45.93137" lon="4.68648">
        <ele>347</ele>
        <time>2017-04-27T09:51:28Z</time>
      </trkpt>
      <trkpt lat="45.93146" lon="4.6865">
        <ele>347</ele>
        <time>2017-04-27T09:51:29Z</time>
      </trkpt>
      <trkpt lat="45.93155" lon="4.68652">
        <ele>347</ele>
        <time>2017-04-27T09:51:30Z</time>
      </trkpt>
      <trkpt lat="45.93164" lon="4.68654">
        <ele>347</ele>
        <time>2017-04-27T09:51:31Z</time>
      </trkpt>
      <trkpt lat="45.93173" lon="4.68656">
        <ele>345</ele>
        <time>2017-04-27T09:51:32Z</time>
      </trkpt>
      <trkpt lat="45.93181" lon="4.68658">
        <ele>345</ele>
        <time>2017-04-27T09:51:33Z</time>
      </trkpt>
      <trkpt lat="45.9319" lon="4.6866">
        <ele>345</ele>
        <time>2017-04-27T09:51:34Z</time>
      </trkpt>
      <trkpt lat="45.93199" lon="4.68662">
        <ele>345</ele>
        <time>2017-04-27T09:51:35Z</time>
      </trkpt>
      <trkpt lat="45.93208" lon="4.68665">
        <ele>344</ele>
        <time>2017-04-27T09:51:36Z</time>
      </trkpt>
      <trkpt lat="45.93216" lon="4.68667">
        <ele>344</ele>
        <time>2017-04-27T09:51:37Z</time>
      </trkpt>
      <trkpt lat="45.93224" lon="4.68669">
        <ele>345</ele>
        <time>2017-04-27T09:51:38Z</time>
      </trkpt>
      <trkpt lat="45.93232" lon="4.68671">
        <ele>345</ele>
        <time>2017-04-27T09:51:39Z</time>
      </trkpt>
      <trkpt lat="45.9324" lon="4.68673">
        <ele>344</ele>
        <time>2017-04-27T09:51:40Z</time>
      </trkpt>
      <trkpt lat="45.93247" lon="4.68674">
        <ele>344</ele>
        <time>2017-04-27T09:51:41Z</time>
      </trkpt>
      <trkpt lat="45.93255" lon="4.68676">
        <ele>344</ele>
        <time>2017-04-27T09:51:42Z</time>
      </trkpt>
      <trkpt lat="45.93262" lon="4.68677">
        <ele>344</ele>
        <time>2017-04-27T09:51:43Z</time>
      </trkpt>
      <trkpt lat="45.93269" lon="4.68678">
        <ele>344</ele>
        <time>2017-04-27T09:51:44Z</time>
      </trkpt>
      <trkpt lat="45.93276" lon="4.6868">
        <ele>344</ele>
        <time>2017-04-27T09:51:45Z</time>
      </trkpt>
      <trkpt lat="45.93283" lon="4.68682">
        <ele>344</ele>
        <time>2017-04-27T09:51:46Z</time>
      </trkpt>
      <trkpt lat="45.9329" lon="4.68683">
        <ele>344</ele>
        <time>2017-04-27T09:51:47Z</time>
      </trkpt>
      <trkpt lat="45.93297" lon="4.68684">
        <ele>344</ele>
        <time>2017-04-27T09:51:48Z</time>
      </trkpt>
      <trkpt lat="45.93304" lon="4.68685">
        <ele>344</ele>
        <time>2017-04-27T09:51:49Z</time>
      </trkpt>
      <trkpt lat="45.9331" lon="4.68687">
        <ele>344</ele>
        <time>2017-04-27T09:51:50Z</time>
      </trkpt>
      <trkpt lat="45.93316" lon="4.68689">
        <ele>344</ele>
        <time>2017-04-27T09:51:51Z</time>
      </trkpt>
      <trkpt lat="45.93322" lon="4.68691">
        <ele>344</ele>
        <time>2017-04-27T09:51:52Z</time>
      </trkpt>
      <trkpt lat="45.93328" lon="4.68692">
        <ele>344</ele>
        <time>2017-04-27T09:51:53Z</time>
      </trkpt>
      <trkpt lat="45.93334" lon="4.68693">
        <ele>344</ele>
        <time>2017-04-27T09:51:54Z</time>
      </trkpt>
      <trkpt lat="45.93339" lon="4.68695">
        <ele>344</ele>
        <time>2017-04-27T09:51:55Z</time>
      </trkpt>
      <trkpt lat="45.93345" lon="4.68696">
        <ele>344</ele>
        <time>2017-04-27T09:51:56Z</time>
      </trkpt>
      <trkpt lat="45.9335" lon="4.68698">
        <ele>344</ele>
        <time>2017-04-27T09:51:57Z</time>
      </trkpt>
      <trkpt lat="45.93355" lon="4.68699">
        <ele>344</ele>
        <time>2017-04-27T09:51:58Z</time>
      </trkpt>
      <trkpt lat="45.93361" lon="4.687">
        <ele>344</ele>
        <time>2017-04-27T09:51:59Z</time>
      </trkpt>
      <trkpt lat="45.93366" lon="4.68702">
        <ele>344</ele>
        <time>2017-04-27T09:52:00Z</time>
      </trkpt>
      <trkpt lat="45.93372" lon="4.68703">
        <ele>344</ele>
        <time>2017-04-27T09:52:01Z</time>
      </trkpt>
      <trkpt lat="45.93378" lon="4.68704">
        <ele>344</ele>
        <time>2017-04-27T09:52:02Z</time>
      </trkpt>
      <trkpt lat="45.93383" lon="4.68706">
        <ele>344</ele>
        <time>2017-04-27T09:52:03Z</time>
      </trkpt>
      <trkpt lat="45.93389" lon="4.68707">
        <ele>344</ele>
        <time>2017-04-27T09:52:04Z</time>
      </trkpt>
      <trkpt lat="45.93395" lon="4.68709">
        <ele>343</ele>
        <time>2017-04-27T09:52:05Z</time>
      </trkpt>
      <trkpt lat="45.93401" lon="4.6871">
        <ele>343</ele>
        <time>2017-04-27T09:52:06Z</time>
      </trkpt>
      <trkpt lat="45.93407" lon="4.68712">
        <ele>343</ele>
        <time>2017-04-27T09:52:07Z</time>
      </trkpt>
      <trkpt lat="45.93413" lon="4.68713">
        <ele>343</ele>
        <time>2017-04-27T09:52:08Z</time>
      </trkpt>
      <trkpt lat="45.93419" lon="4.68714">
        <ele>343</ele>
        <time>2017-04-27T09:52:09Z</time>
      </trkpt>
      <trkpt lat="45.93425" lon="4.68715">
        <ele>343</ele>
        <time>2017-04-27T09:52:10Z</time>
      </trkpt>
      <trkpt lat="45.9343" lon="4.68717">
        <ele>343</ele>
        <time>2017-04-27T09:52:11Z</time>
      </trkpt>
      <trkpt lat="45.93435" lon="4.68718">
        <ele>343</ele>
        <time>2017-04-27T09:52:12Z</time>
      </trkpt>
      <trkpt lat="45.9344" lon="4.68719">
        <ele>343</ele>
        <time>2017-04-27T09:52:13Z</time>
      </trkpt>
      <trkpt lat="45.93446" lon="4.68721">
        <ele>343</ele>
        <time>2017-04-27T09:52:14Z</time>
      </trkpt>
      <trkpt lat="45.93451" lon="4.68722">
        <ele>342</ele>
        <time>2017-04-27T09:52:15Z</time>
      </trkpt>
      <trkpt lat="45.93456" lon="4.68723">
        <ele>342</ele>
        <time>2017-04-27T09:52:16Z</time>
      </trkpt>
      <trkpt lat="45.93461" lon="4.68724">
        <ele>342</ele>
        <time>2017-04-27T09:52:17Z</time>
      </trkpt>
      <trkpt lat="45.93466" lon="4.68725">
        <ele>342</ele>
        <time>2017-04-27T09:52:18Z</time>
      </trkpt>
      <trkpt lat="45.93471" lon="4.68726">
        <ele>342</ele>
        <time>2017-04-27T09:52:19Z</time>
      </trkpt>
      <trkpt lat="45.93476" lon="4.68727">
        <ele>342</ele>
        <time>2017-04-27T09:52:20Z</time>
      </trkpt>
      <trkpt lat="45.93481" lon="4.68728">
        <ele>342</ele>
        <time>2017-04-27T09:52:21Z</time>
      </trkpt>
      <trkpt lat="45.93486" lon="4.68729">
        <ele>342</ele>
        <time>2017-04-27T09:52:22Z</time>
      </trkpt>
      <trkpt lat="45.93491" lon="4.6873">
        <ele>342</ele>
        <time>2017-04-27T09:52:23Z</time>
      </trkpt>
      <trkpt lat="45.93496" lon="4.68731">
        <ele>342</ele>
        <time>2017-04-27T09:52:24Z</time>
      </trkpt>
      <trkpt lat="45.93501" lon="4.68733">
        <ele>342</ele>
        <time>2017-04-27T09:52:25Z</time>
      </trkpt>
      <trkpt lat="45.93506" lon="4.68734">
        <ele>342</ele>
        <time>2017-04-27T09:52:26Z</time>
      </trkpt>
      <trkpt lat="45.93511" lon="4.68735">
        <ele>342</ele>
        <time>2017-04-27T09:52:27Z</time>
      </trkpt>
      <trkpt lat="45.93516" lon="4.68737">
        <ele>342</ele>
        <time>2017-04-27T09:52:28Z</time>
      </trkpt>
      <trkpt lat="45.93522" lon="4.68738">
        <ele>342</ele>
        <time>2017-04-27T09:52:29Z</time>
      </trkpt>
      <trkpt lat="45.93527" lon="4.68739">
        <ele>342</ele>
        <time>2017-04-27T09:52:30Z</time>
      </trkpt>
      <trkpt lat="45.93533" lon="4.6874">
        <ele>342</ele>
        <time>2017-04-27T09:52:31Z</time>
      </trkpt>
      <trkpt lat="45.93538" lon="4.68742">
        <ele>342</ele>
        <time>2017-04-27T09:52:32Z</time>
      </trkpt>
      <trkpt lat="45.93543" lon="4.68743">
        <ele>342</ele>
        <time>2017-04-27T09:52:33Z</time>
      </trkpt>
      <trkpt lat="45.93548" lon="4.68744">
        <ele>342</ele>
        <time>2017-04-27T09:52:34Z</time>
      </trkpt>
      <trkpt lat="45.93552" lon="4.68746">
        <ele>342</ele>
        <time>2017-04-27T09:52:35Z</time>
      </trkpt>
      <trkpt lat="45.93557" lon="4.68747">
        <ele>342</ele>
        <time>2017-04-27T09:52:36Z</time>
      </trkpt>
      <trkpt lat="45.93562" lon="4.68749">
        <ele>343</ele>
        <time>2017-04-27T09:52:37Z</time>
      </trkpt>
      <trkpt lat="45.93567" lon="4.6875">
        <ele>343</ele>
        <time>2017-04-27T09:52:38Z</time>
      </trkpt>
      <trkpt lat="45.93572" lon="4.68751">
        <ele>344</ele>
        <time>2017-04-27T09:52:39Z</time>
      </trkpt>
      <trkpt lat="45.93576" lon="4.68752">
        <ele>344</ele>
        <time>2017-04-27T09:52:40Z</time>
      </trkpt>
      <trkpt lat="45.93581" lon="4.68754">
        <ele>344</ele>
        <time>2017-04-27T09:52:41Z</time>
      </trkpt>
      <trkpt lat="45.93586" lon="4.68755">
        <ele>344</ele>
        <time>2017-04-27T09:52:42Z</time>
      </trkpt>
      <trkpt lat="45.93591" lon="4.68756">
        <ele>344</ele>
        <time>2017-04-27T09:52:43Z</time>
      </trkpt>
      <trkpt lat="45.93596" lon="4.68757">
        <ele>344</ele>
        <time>2017-04-27T09:52:44Z</time>
      </trkpt>
      <trkpt lat="45.93601" lon="4.68758">
        <ele>344</ele>
        <time>2017-04-27T09:52:45Z</time>
      </trkpt>
      <trkpt lat="45.93606" lon="4.68759">
        <ele>344</ele>
        <time>2017-04-27T09:52:46Z</time>
      </trkpt>
      <trkpt lat="45.93611" lon="4.6876">
        <ele>344</ele>
        <time>2017-04-27T09:52:47Z</time>
      </trkpt>
      <trkpt lat="45.93616" lon="4.68762">
        <ele>343</ele>
        <time>2017-04-27T09:52:48Z</time>
      </trkpt>
      <trkpt lat="45.93621" lon="4.68763">
        <ele>343</ele>
        <time>2017-04-27T09:52:49Z</time>
      </trkpt>
      <trkpt lat="45.93626" lon="4.68764">
        <ele>343</ele>
        <time>2017-04-27T09:52:50Z</time>
      </trkpt>
      <trkpt lat="45.93631" lon="4.68766">
        <ele>343</ele>
        <time>2017-04-27T09:52:51Z</time>
      </trkpt>
      <trkpt lat="45.93636" lon="4.68768">
        <ele>343</ele>
        <time>2017-04-27T09:52:52Z</time>
      </trkpt>
      <trkpt lat="45.93641" lon="4.68771">
        <ele>343</ele>
        <time>2017-04-27T09:52:53Z</time>
      </trkpt>
      <trkpt lat="45.93646" lon="4.68774">
        <ele>343</ele>
        <time>2017-04-27T09:52:54Z</time>
      </trkpt>
      <trkpt lat="45.93652" lon="4.68776">
        <ele>343</ele>
        <time>2017-04-27T09:52:55Z</time>
      </trkpt>
      <trkpt lat="45.93658" lon="4.68777">
        <ele>343</ele>
        <time>2017-04-27T09:52:56Z</time>
      </trkpt>
      <trkpt lat="45.93664" lon="4.68777">
        <ele>343</ele>
        <time>2017-04-27T09:52:57Z</time>
      </trkpt>
      <trkpt lat="45.93669" lon="4.68777">
        <ele>342</ele>
        <time>2017-04-27T09:52:58Z</time>
      </trkpt>
      <trkpt lat="45.93674" lon="4.68778">
        <ele>342</ele>
        <time>2017-04-27T09:52:59Z</time>
      </trkpt>
      <trkpt lat="45.93679" lon="4.68779">
        <ele>342</ele>
        <time>2017-04-27T09:53:00Z</time>
      </trkpt>
      <trkpt lat="45.93684" lon="4.68781">
        <ele>342</ele>
        <time>2017-04-27T09:53:01Z</time>
      </trkpt>
      <trkpt lat="45.93689" lon="4.68782">
        <ele>342</ele>
        <time>2017-04-27T09:53:02Z</time>
      </trkpt>
      <trkpt lat="45.93693" lon="4.68784">
        <ele>342</ele>
        <time>2017-04-27T09:53:03Z</time>
      </trkpt>
      <trkpt lat="45.93698" lon="4.68785">
        <ele>342</ele>
        <time>2017-04-27T09:53:04Z</time>
      </trkpt>
      <trkpt lat="45.93702" lon="4.68787">
        <ele>342</ele>
        <time>2017-04-27T09:53:05Z</time>
      </trkpt>
      <trkpt lat="45.93707" lon="4.68788">
        <ele>342</ele>
        <time>2017-04-27T09:53:06Z</time>
      </trkpt>
      <trkpt lat="45.93715" lon="4.6879">
        <ele>342</ele>
        <time>2017-04-27T09:53:08Z</time>
      </trkpt>
      <trkpt lat="45.9372" lon="4.68791">
        <ele>342</ele>
        <time>2017-04-27T09:53:09Z</time>
      </trkpt>
      <trkpt lat="45.93725" lon="4.68792">
        <ele>342</ele>
        <time>2017-04-27T09:53:10Z</time>
      </trkpt>
      <trkpt lat="45.93729" lon="4.68793">
        <ele>342</ele>
        <time>2017-04-27T09:53:11Z</time>
      </trkpt>
      <trkpt lat="45.93734" lon="4.68794">
        <ele>342</ele>
        <time>2017-04-27T09:53:12Z</time>
      </trkpt>
      <trkpt lat="45.93739" lon="4.68796">
        <ele>342</ele>
        <time>2017-04-27T09:53:13Z</time>
      </trkpt>
      <trkpt lat="45.93748" lon="4.68798">
        <ele>342</ele>
        <time>2017-04-27T09:53:15Z</time>
      </trkpt>
      <trkpt lat="45.93752" lon="4.688">
        <ele>341</ele>
        <time>2017-04-27T09:53:16Z</time>
      </trkpt>
      <trkpt lat="45.93757" lon="4.68802">
        <ele>341</ele>
        <time>2017-04-27T09:53:17Z</time>
      </trkpt>
      <trkpt lat="45.93761" lon="4.68804">
        <ele>341</ele>
        <time>2017-04-27T09:53:18Z</time>
      </trkpt>
      <trkpt lat="45.93766" lon="4.68806">
        <ele>341</ele>
        <time>2017-04-27T09:53:19Z</time>
      </trkpt>
      <trkpt lat="45.9377" lon="4.68809">
        <ele>341</ele>
        <time>2017-04-27T09:53:20Z</time>
      </trkpt>
      <trkpt lat="45.93775" lon="4.68811">
        <ele>341</ele>
        <time>2017-04-27T09:53:21Z</time>
      </trkpt>
      <trkpt lat="45.93779" lon="4.68813">
        <ele>341</ele>
        <time>2017-04-27T09:53:22Z</time>
      </trkpt>
      <trkpt lat="45.93783" lon="4.68815">
        <ele>341</ele>
        <time>2017-04-27T09:53:23Z</time>
      </trkpt>
      <trkpt lat="45.93788" lon="4.68818">
        <ele>341</ele>
        <time>2017-04-27T09:53:24Z</time>
      </trkpt>
      <trkpt lat="45.93791" lon="4.68821">
        <ele>341</ele>
        <time>2017-04-27T09:53:25Z</time>
      </trkpt>
      <trkpt lat="45.93796" lon="4.68824">
        <ele>341</ele>
        <time>2017-04-27T09:53:26Z</time>
      </trkpt>
      <trkpt lat="45.93801" lon="4.68828">
        <ele>341</ele>
        <time>2017-04-27T09:53:27Z</time>
      </trkpt>
      <trkpt lat="45.93806" lon="4.68831">
        <ele>341</ele>
        <time>2017-04-27T09:53:28Z</time>
      </trkpt>
      <trkpt lat="45.93812" lon="4.68835">
        <ele>342</ele>
        <time>2017-04-27T09:53:29Z</time>
      </trkpt>
      <trkpt lat="45.93818" lon="4.68838">
        <ele>342</ele>
        <time>2017-04-27T09:53:30Z</time>
      </trkpt>
      <trkpt lat="45.93823" lon="4.68842">
        <ele>342</ele>
        <time>2017-04-27T09:53:31Z</time>
      </trkpt>
      <trkpt lat="45.93829" lon="4.68845">
        <ele>342</ele>
        <time>2017-04-27T09:53:32Z</time>
      </trkpt>
      <trkpt lat="45.93835" lon="4.68849">
        <ele>342</ele>
        <time>2017-04-27T09:53:33Z</time>
      </trkpt>
      <trkpt lat="45.9384" lon="4.68852">
        <ele>342</ele>
        <time>2017-04-27T09:53:34Z</time>
      </trkpt>
      <trkpt lat="45.93845" lon="4.68855">
        <ele>342</ele>
        <time>2017-04-27T09:53:35Z</time>
      </trkpt>
      <trkpt lat="45.93849" lon="4.68858">
        <ele>342</ele>
        <time>2017-04-27T09:53:36Z</time>
      </trkpt>
      <trkpt lat="45.93857" lon="4.68864">
        <ele>342</ele>
        <time>2017-04-27T09:53:38Z</time>
      </trkpt>
      <trkpt lat="45.9386" lon="4.68867">
        <ele>342</ele>
        <time>2017-04-27T09:53:39Z</time>
      </trkpt>
      <trkpt lat="45.93868" lon="4.68872">
        <ele>342</ele>
        <time>2017-04-27T09:53:41Z</time>
      </trkpt>
      <trkpt lat="45.93872" lon="4.68875">
        <ele>343</ele>
        <time>2017-04-27T09:53:42Z</time>
      </trkpt>
      <trkpt lat="45.93875" lon="4.68878">
        <ele>342</ele>
        <time>2017-04-27T09:53:43Z</time>
      </trkpt>
      <trkpt lat="45.9388" lon="4.68881">
        <ele>342</ele>
        <time>2017-04-27T09:53:44Z</time>
      </trkpt>
      <trkpt lat="45.93885" lon="4.68883">
        <ele>342</ele>
        <time>2017-04-27T09:53:45Z</time>
      </trkpt>
      <trkpt lat="45.9389" lon="4.68885">
        <ele>342</ele>
        <time>2017-04-27T09:53:46Z</time>
      </trkpt>
      <trkpt lat="45.93895" lon="4.68888">
        <ele>342</ele>
        <time>2017-04-27T09:53:47Z</time>
      </trkpt>
      <trkpt lat="45.93899" lon="4.6889">
        <ele>342</ele>
        <time>2017-04-27T09:53:48Z</time>
      </trkpt>
      <trkpt lat="45.93904" lon="4.68891">
        <ele>342</ele>
        <time>2017-04-27T09:53:49Z</time>
      </trkpt>
      <trkpt lat="45.93909" lon="4.68892">
        <ele>342</ele>
        <time>2017-04-27T09:53:50Z</time>
      </trkpt>
      <trkpt lat="45.93914" lon="4.68893">
        <ele>342</ele>
        <time>2017-04-27T09:53:51Z</time>
      </trkpt>
      <trkpt lat="45.93919" lon="4.68894">
        <ele>342</ele>
        <time>2017-04-27T09:53:52Z</time>
      </trkpt>
      <trkpt lat="45.93925" lon="4.68895">
        <ele>342</ele>
        <time>2017-04-27T09:53:53Z</time>
      </trkpt>
      <trkpt lat="45.9393" lon="4.68896">
        <ele>342</ele>
        <time>2017-04-27T09:53:54Z</time>
      </trkpt>
      <trkpt lat="45.93935" lon="4.68898">
        <ele>342</ele>
        <time>2017-04-27T09:53:55Z</time>
      </trkpt>
      <trkpt lat="45.9394" lon="4.689">
        <ele>342</ele>
        <time>2017-04-27T09:53:56Z</time>
      </trkpt>
      <trkpt lat="45.93944" lon="4.68902">
        <ele>342</ele>
        <time>2017-04-27T09:53:57Z</time>
      </trkpt>
      <trkpt lat="45.9395" lon="4.68903">
        <ele>342</ele>
        <time>2017-04-27T09:53:58Z</time>
      </trkpt>
      <trkpt lat="45.93954" lon="4.68905">
        <ele>342</ele>
        <time>2017-04-27T09:53:59Z</time>
      </trkpt>
      <trkpt lat="45.93959" lon="4.68907">
        <ele>342</ele>
        <time>2017-04-27T09:54:00Z</time>
      </trkpt>
      <trkpt lat="45.93963" lon="4.68908">
        <ele>342</ele>
        <time>2017-04-27T09:54:01Z</time>
      </trkpt>
      <trkpt lat="45.93968" lon="4.6891">
        <ele>342</ele>
        <time>2017-04-27T09:54:02Z</time>
      </trkpt>
      <trkpt lat="45.93973" lon="4.68912">
        <ele>342</ele>
        <time>2017-04-27T09:54:03Z</time>
      </trkpt>
      <trkpt lat="45.93978" lon="4.68914">
        <ele>342</ele>
        <time>2017-04-27T09:54:04Z</time>
      </trkpt>
      <trkpt lat="45.93983" lon="4.68915">
        <ele>342</ele>
        <time>2017-04-27T09:54:05Z</time>
      </trkpt>
      <trkpt lat="45.93988" lon="4.68917">
        <ele>342</ele>
        <time>2017-04-27T09:54:06Z</time>
      </trkpt>
      <trkpt lat="45.93994" lon="4.68918">
        <ele>342</ele>
        <time>2017-04-27T09:54:07Z</time>
      </trkpt>
      <trkpt lat="45.93999" lon="4.6892">
        <ele>342</ele>
        <time>2017-04-27T09:54:08Z</time>
      </trkpt>
      <trkpt lat="45.94004" lon="4.68922">
        <ele>342</ele>
        <time>2017-04-27T09:54:09Z</time>
      </trkpt>
      <trkpt lat="45.9401" lon="4.68924">
        <ele>342</ele>
        <time>2017-04-27T09:54:10Z</time>
      </trkpt>
      <trkpt lat="45.94015" lon="4.68926">
        <ele>341</ele>
        <time>2017-04-27T09:54:11Z</time>
      </trkpt>
      <trkpt lat="45.9402" lon="4.68928">
        <ele>341</ele>
        <time>2017-04-27T09:54:12Z</time>
      </trkpt>
      <trkpt lat="45.94025" lon="4.6893">
        <ele>341</ele>
        <time>2017-04-27T09:54:13Z</time>
      </trkpt>
      <trkpt lat="45.9403" lon="4.68931">
        <ele>341</ele>
        <time>2017-04-27T09:54:14Z</time>
      </trkpt>
      <trkpt lat="45.94035" lon="4.68933">
        <ele>341</ele>
        <time>2017-04-27T09:54:15Z</time>
      </trkpt>
      <trkpt lat="45.9404" lon="4.68935">
        <ele>341</ele>
        <time>2017-04-27T09:54:16Z</time>
      </trkpt>
      <trkpt lat="45.94046" lon="4.68937">
        <ele>341</ele>
        <time>2017-04-27T09:54:17Z</time>
      </trkpt>
      <trkpt lat="45.94051" lon="4.6894">
        <ele>341</ele>
        <time>2017-04-27T09:54:18Z</time>
      </trkpt>
      <trkpt lat="45.94055" lon="4.68943">
        <ele>341</ele>
        <time>2017-04-27T09:54:19Z</time>
      </trkpt>
      <trkpt lat="45.9406" lon="4.68947">
        <ele>341</ele>
        <time>2017-04-27T09:54:20Z</time>
      </trkpt>
      <trkpt lat="45.94065" lon="4.6895">
        <ele>341</ele>
        <time>2017-04-27T09:54:21Z</time>
      </trkpt>
      <trkpt lat="45.9407" lon="4.68953">
        <ele>341</ele>
        <time>2017-04-27T09:54:22Z</time>
      </trkpt>
      <trkpt lat="45.94075" lon="4.68954">
        <ele>341</ele>
        <time>2017-04-27T09:54:23Z</time>
      </trkpt>
      <trkpt lat="45.94081" lon="4.68954">
        <ele>341</ele>
        <time>2017-04-27T09:54:24Z</time>
      </trkpt>
      <trkpt lat="45.94087" lon="4.68954">
        <ele>340</ele>
        <time>2017-04-27T09:54:25Z</time>
      </trkpt>
      <trkpt lat="45.94093" lon="4.68954">
        <ele>340</ele>
        <time>2017-04-27T09:54:26Z</time>
      </trkpt>
      <trkpt lat="45.94098" lon="4.68956">
        <ele>340</ele>
        <time>2017-04-27T09:54:27Z</time>
      </trkpt>
      <trkpt lat="45.94103" lon="4.68957">
        <ele>340</ele>
        <time>2017-04-27T09:54:28Z</time>
      </trkpt>
      <trkpt lat="45.94108" lon="4.68959">
        <ele>340</ele>
        <time>2017-04-27T09:54:29Z</time>
      </trkpt>
      <trkpt lat="45.94112" lon="4.68961">
        <ele>340</ele>
        <time>2017-04-27T09:54:30Z</time>
      </trkpt>
      <trkpt lat="45.94117" lon="4.68963">
        <ele>340</ele>
        <time>2017-04-27T09:54:31Z</time>
      </trkpt>
      <trkpt lat="45.94122" lon="4.68964">
        <ele>340</ele>
        <time>2017-04-27T09:54:32Z</time>
      </trkpt>
      <trkpt lat="45.94127" lon="4.68966">
        <ele>340</ele>
        <time>2017-04-27T09:54:33Z</time>
      </trkpt>
      <trkpt lat="45.94132" lon="4.68967">
        <ele>340</ele>
        <time>2017-04-27T09:54:34Z</time>
      </trkpt>
      <trkpt lat="45.94137" lon="4.68969">
        <ele>340</ele>
        <time>2017-04-27T09:54:35Z</time>
      </trkpt>
      <trkpt lat="45.94143" lon="4.68971">
        <ele>340</ele>
        <time>2017-04-27T09:54:36Z</time>
      </trkpt>
      <trkpt lat="45.94148" lon="4.68973">
        <ele>340</ele>
        <time>2017-04-27T09:54:37Z</time>
      </trkpt>
      <trkpt lat="45.94153" lon="4.68975">
        <ele>340</ele>
        <time>2017-04-27T09:54:38Z</time>
      </trkpt>
      <trkpt lat="45.94158" lon="4.68976">
        <ele>340</ele>
        <time>2017-04-27T09:54:39Z</time>
      </trkpt>
      <trkpt lat="45.94163" lon="4.68978">
        <ele>340</ele>
        <time>2017-04-27T09:54:40Z</time>
      </trkpt>
      <trkpt lat="45.94168" lon="4.68979">
        <ele>339</ele>
        <time>2017-04-27T09:54:41Z</time>
      </trkpt>
      <trkpt lat="45.94172" lon="4.6898">
        <ele>339</ele>
        <time>2017-04-27T09:54:42Z</time>
      </trkpt>
      <trkpt lat="45.94177" lon="4.68981">
        <ele>339</ele>
        <time>2017-04-27T09:54:43Z</time>
      </trkpt>
      <trkpt lat="45.94183" lon="4.68983">
        <ele>339</ele>
        <time>2017-04-27T09:54:44Z</time>
      </trkpt>
      <trkpt lat="45.94188" lon="4.68984">
        <ele>339</ele>
        <time>2017-04-27T09:54:45Z</time>
      </trkpt>
      <trkpt lat="45.94193" lon="4.68986">
        <ele>338</ele>
        <time>2017-04-27T09:54:46Z</time>
      </trkpt>
      <trkpt lat="45.94199" lon="4.68988">
        <ele>338</ele>
        <time>2017-04-27T09:54:47Z</time>
      </trkpt>
      <trkpt lat="45.94205" lon="4.6899">
        <ele>338</ele>
        <time>2017-04-27T09:54:48Z</time>
      </trkpt>
      <trkpt lat="45.9421" lon="4.68991">
        <ele>338</ele>
        <time>2017-04-27T09:54:49Z</time>
      </trkpt>
      <trkpt lat="45.94215" lon="4.68992">
        <ele>338</ele>
        <time>2017-04-27T09:54:50Z</time>
      </trkpt>
      <trkpt lat="45.94221" lon="4.68993">
        <ele>338</ele>
        <time>2017-04-27T09:54:51Z</time>
      </trkpt>
      <trkpt lat="45.94226" lon="4.68995">
        <ele>338</ele>
        <time>2017-04-27T09:54:52Z</time>
      </trkpt>
      <trkpt lat="45.94231" lon="4.68997">
        <ele>338</ele>
        <time>2017-04-27T09:54:53Z</time>
      </trkpt>
      <trkpt lat="45.94236" lon="4.68998">
        <ele>338</ele>
        <time>2017-04-27T09:54:54Z</time>
      </trkpt>
      <trkpt lat="45.94241" lon="4.68999">
        <ele>338</ele>
        <time>2017-04-27T09:54:55Z</time>
      </trkpt>
      <trkpt lat="45.94245" lon="4.69">
        <ele>338</ele>
        <time>2017-04-27T09:54:56Z</time>
      </trkpt>
      <trkpt lat="45.9425" lon="4.69001">
        <ele>338</ele>
        <time>2017-04-27T09:54:57Z</time>
      </trkpt>
      <trkpt lat="45.94255" lon="4.69002">
        <ele>338</ele>
        <time>2017-04-27T09:54:58Z</time>
      </trkpt>
      <trkpt lat="45.9426" lon="4.69003">
        <ele>338</ele>
        <time>2017-04-27T09:54:59Z</time>
      </trkpt>
      <trkpt lat="45.94265" lon="4.69005">
        <ele>338</ele>
        <time>2017-04-27T09:55:00Z</time>
      </trkpt>
      <trkpt lat="45.9427" lon="4.69005">
        <ele>337</ele>
        <time>2017-04-27T09:55:01Z</time>
      </trkpt>
      <trkpt lat="45.94275" lon="4.69006">
        <ele>337</ele>
        <time>2017-04-27T09:55:02Z</time>
      </trkpt>
      <trkpt lat="45.94281" lon="4.69007">
        <ele>337</ele>
        <time>2017-04-27T09:55:03Z</time>
      </trkpt>
      <trkpt lat="45.94286" lon="4.69008">
        <ele>337</ele>
        <time>2017-04-27T09:55:04Z</time>
      </trkpt>
      <trkpt lat="45.94291" lon="4.69009">
        <ele>337</ele>
        <time>2017-04-27T09:55:05Z</time>
      </trkpt>
      <trkpt lat="45.94297" lon="4.69009">
        <ele>337</ele>
        <time>2017-04-27T09:55:06Z</time>
      </trkpt>
      <trkpt lat="45.94302" lon="4.6901">
        <ele>337</ele>
        <time>2017-04-27T09:55:07Z</time>
      </trkpt>
      <trkpt lat="45.94308" lon="4.6901">
        <ele>337</ele>
        <time>2017-04-27T09:55:08Z</time>
      </trkpt>
      <trkpt lat="45.94314" lon="4.69011">
        <ele>337</ele>
        <time>2017-04-27T09:55:09Z</time>
      </trkpt>
      <trkpt lat="45.94319" lon="4.69011">
        <ele>337</ele>
        <time>2017-04-27T09:55:10Z</time>
      </trkpt>
      <trkpt lat="45.94324" lon="4.69011">
        <ele>337</ele>
        <time>2017-04-27T09:55:11Z</time>
      </trkpt>
      <trkpt lat="45.94329" lon="4.69011">
        <ele>337</ele>
        <time>2017-04-27T09:55:12Z</time>
      </trkpt>
      <trkpt lat="45.94333" lon="4.69012">
        <ele>337</ele>
        <time>2017-04-27T09:55:13Z</time>
      </trkpt>
      <trkpt lat="45.94338" lon="4.69012">
        <ele>337</ele>
        <time>2017-04-27T09:55:14Z</time>
      </trkpt>
      <trkpt lat="45.94347" lon="4.69013">
        <ele>338</ele>
        <time>2017-04-27T09:55:16Z</time>
      </trkpt>
      <trkpt lat="45.94351" lon="4.69013">
        <ele>338</ele>
        <time>2017-04-27T09:55:17Z</time>
      </trkpt>
      <trkpt lat="45.9436" lon="4.69013">
        <ele>338</ele>
        <time>2017-04-27T09:55:19Z</time>
      </trkpt>
      <trkpt lat="45.94365" lon="4.69012">
        <ele>338</ele>
        <time>2017-04-27T09:55:20Z</time>
      </trkpt>
      <trkpt lat="45.94373" lon="4.69012">
        <ele>338</ele>
        <time>2017-04-27T09:55:22Z</time>
      </trkpt>
      <trkpt lat="45.94378" lon="4.69012">
        <ele>338</ele>
        <time>2017-04-27T09:55:23Z</time>
      </trkpt>
      <trkpt lat="45.94382" lon="4.69012">
        <ele>338</ele>
        <time>2017-04-27T09:55:24Z</time>
      </trkpt>
      <trkpt lat="45.94387" lon="4.69012">
        <ele>338</ele>
        <time>2017-04-27T09:55:25Z</time>
      </trkpt>
      <trkpt lat="45.94391" lon="4.69012">
        <ele>338</ele>
        <time>2017-04-27T09:55:26Z</time>
      </trkpt>
      <trkpt lat="45.94396" lon="4.69012">
        <ele>339</ele>
        <time>2017-04-27T09:55:27Z</time>
      </trkpt>
      <trkpt lat="45.94401" lon="4.69013">
        <ele>339</ele>
        <time>2017-04-27T09:55:28Z</time>
      </trkpt>
      <trkpt lat="45.94405" lon="4.69013">
        <ele>339</ele>
        <time>2017-04-27T09:55:29Z</time>
      </trkpt>
      <trkpt lat="45.9441" lon="4.69012">
        <ele>339</ele>
        <time>2017-04-27T09:55:30Z</time>
      </trkpt>
      <trkpt lat="45.94414" lon="4.69012">
        <ele>339</ele>
        <time>2017-04-27T09:55:31Z</time>
      </trkpt>
      <trkpt lat="45.94419" lon="4.69012">
        <ele>340</ele>
        <time>2017-04-27T09:55:32Z</time>
      </trkpt>
      <trkpt lat="45.94423" lon="4.69012">
        <ele>340</ele>
        <time>2017-04-27T09:55:33Z</time>
      </trkpt>
      <trkpt lat="45.94428" lon="4.69012">
        <ele>340</ele>
        <time>2017-04-27T09:55:34Z</time>
      </trkpt>
      <trkpt lat="45.94432" lon="4.69012">
        <ele>340</ele>
        <time>2017-04-27T09:55:35Z</time>
      </trkpt>
      <trkpt lat="45.94437" lon="4.69012">
        <ele>340</ele>
        <time>2017-04-27T09:55:36Z</time>
      </trkpt>
      <trkpt lat="45.94441" lon="4.69012">
        <ele>340</ele>
        <time>2017-04-27T09:55:37Z</time>
      </trkpt>
      <trkpt lat="45.94446" lon="4.69012">
        <ele>340</ele>
        <time>2017-04-27T09:55:38Z</time>
      </trkpt>
      <trkpt lat="45.9445" lon="4.69012">
        <ele>340</ele>
        <time>2017-04-27T09:55:39Z</time>
      </trkpt>
      <trkpt lat="45.94455" lon="4.69012">
        <ele>340</ele>
        <time>2017-04-27T09:55:40Z</time>
      </trkpt>
      <trkpt lat="45.94459" lon="4.69012">
        <ele>341</ele>
        <time>2017-04-27T09:55:41Z</time>
      </trkpt>
      <trkpt lat="45.94464" lon="4.69013">
        <ele>341</ele>
        <time>2017-04-27T09:55:42Z</time>
      </trkpt>
      <trkpt lat="45.94469" lon="4.69013">
        <ele>341</ele>
        <time>2017-04-27T09:55:43Z</time>
      </trkpt>
      <trkpt lat="45.94473" lon="4.69014">
        <ele>341</ele>
        <time>2017-04-27T09:55:44Z</time>
      </trkpt>
      <trkpt lat="45.94478" lon="4.69015">
        <ele>341</ele>
        <time>2017-04-27T09:55:45Z</time>
      </trkpt>
      <trkpt lat="45.94482" lon="4.69015">
        <ele>341</ele>
        <time>2017-04-27T09:55:46Z</time>
      </trkpt>
      <trkpt lat="45.94487" lon="4.69016">
        <ele>341</ele>
        <time>2017-04-27T09:55:47Z</time>
      </trkpt>
      <trkpt lat="45.94495" lon="4.69018">
        <ele>341</ele>
        <time>2017-04-27T09:55:49Z</time>
      </trkpt>
      <trkpt lat="45.945" lon="4.69018">
        <ele>341</ele>
        <time>2017-04-27T09:55:50Z</time>
      </trkpt>
      <trkpt lat="45.94508" lon="4.69021">
        <ele>342</ele>
        <time>2017-04-27T09:55:52Z</time>
      </trkpt>
      <trkpt lat="45.94512" lon="4.69022">
        <ele>342</ele>
        <time>2017-04-27T09:55:53Z</time>
      </trkpt>
      <trkpt lat="45.9452" lon="4.69025">
        <ele>342</ele>
        <time>2017-04-27T09:55:55Z</time>
      </trkpt>
      <trkpt lat="45.94524" lon="4.69025">
        <ele>342</ele>
        <time>2017-04-27T09:55:56Z</time>
      </trkpt>
      <trkpt lat="45.94532" lon="4.69028">
        <ele>342</ele>
        <time>2017-04-27T09:55:58Z</time>
      </trkpt>
      <trkpt lat="45.94536" lon="4.69029">
        <ele>342</ele>
        <time>2017-04-27T09:55:59Z</time>
      </trkpt>
      <trkpt lat="45.94544" lon="4.69031">
        <ele>342</ele>
        <time>2017-04-27T09:56:01Z</time>
      </trkpt>
      <trkpt lat="45.94548" lon="4.69032">
        <ele>342</ele>
        <time>2017-04-27T09:56:02Z</time>
      </trkpt>
      <trkpt lat="45.94555" lon="4.69035">
        <ele>342</ele>
        <time>2017-04-27T09:56:04Z</time>
      </trkpt>
      <trkpt lat="45.94559" lon="4.69036">
        <ele>342</ele>
        <time>2017-04-27T09:56:05Z</time>
      </trkpt>
      <trkpt lat="45.94567" lon="4.69038">
        <ele>342</ele>
        <time>2017-04-27T09:56:07Z</time>
      </trkpt>
      <trkpt lat="45.9457" lon="4.69039">
        <ele>342</ele>
        <time>2017-04-27T09:56:08Z</time>
      </trkpt>
      <trkpt lat="45.94578" lon="4.69042">
        <ele>342</ele>
        <time>2017-04-27T09:56:10Z</time>
      </trkpt>
      <trkpt lat="45.94582" lon="4.69043">
        <ele>342</ele>
        <time>2017-04-27T09:56:11Z</time>
      </trkpt>
      <trkpt lat="45.9459" lon="4.69045">
        <ele>342</ele>
        <time>2017-04-27T09:56:13Z</time>
      </trkpt>
      <trkpt lat="45.94594" lon="4.69046">
        <ele>342</ele>
        <time>2017-04-27T09:56:14Z</time>
      </trkpt>
      <trkpt lat="45.94602" lon="4.69049">
        <ele>342</ele>
        <time>2017-04-27T09:56:16Z</time>
      </trkpt>
      <trkpt lat="45.94606" lon="4.6905">
        <ele>342</ele>
        <time>2017-04-27T09:56:17Z</time>
      </trkpt>
      <trkpt lat="45.94614" lon="4.69053">
        <ele>342</ele>
        <time>2017-04-27T09:56:19Z</time>
      </trkpt>
      <trkpt lat="45.94618" lon="4.69054">
        <ele>342</ele>
        <time>2017-04-27T09:56:20Z</time>
      </trkpt>
      <trkpt lat="45.94625" lon="4.69057">
        <ele>342</ele>
        <time>2017-04-27T09:56:22Z</time>
      </trkpt>
      <trkpt lat="45.94629" lon="4.69059">
        <ele>342</ele>
        <time>2017-04-27T09:56:23Z</time>
      </trkpt>
      <trkpt lat="45.94637" lon="4.69061">
        <ele>342</ele>
        <time>2017-04-27T09:56:25Z</time>
      </trkpt>
      <trkpt lat="45.94641" lon="4.69063">
        <ele>342</ele>
        <time>2017-04-27T09:56:26Z</time>
      </trkpt>
      <trkpt lat="45.9465" lon="4.69066">
        <ele>342</ele>
        <time>2017-04-27T09:56:28Z</time>
      </trkpt>
      <trkpt lat="45.94654" lon="4.69067">
        <ele>342</ele>
        <time>2017-04-27T09:56:29Z</time>
      </trkpt>
      <trkpt lat="45.94659" lon="4.69069">
        <ele>342</ele>
        <time>2017-04-27T09:56:30Z</time>
      </trkpt>
      <trkpt lat="45.94663" lon="4.6907">
        <ele>342</ele>
        <time>2017-04-27T09:56:31Z</time>
      </trkpt>
      <trkpt lat="45.94672" lon="4.69073">
        <ele>342</ele>
        <time>2017-04-27T09:56:33Z</time>
      </trkpt>
      <trkpt lat="45.94676" lon="4.69075">
        <ele>342</ele>
        <time>2017-04-27T09:56:34Z</time>
      </trkpt>
      <trkpt lat="45.94685" lon="4.69076">
        <ele>342</ele>
        <time>2017-04-27T09:56:36Z</time>
      </trkpt>
      <trkpt lat="45.94689" lon="4.69077">
        <ele>342</ele>
        <time>2017-04-27T09:56:37Z</time>
      </trkpt>
      <trkpt lat="45.94697" lon="4.6908">
        <ele>342</ele>
        <time>2017-04-27T09:56:39Z</time>
      </trkpt>
      <trkpt lat="45.94701" lon="4.69082">
        <ele>342</ele>
        <time>2017-04-27T09:56:40Z</time>
      </trkpt>
      <trkpt lat="45.94709" lon="4.69085">
        <ele>344</ele>
        <time>2017-04-27T09:56:42Z</time>
      </trkpt>
      <trkpt lat="45.94713" lon="4.69087">
        <ele>344</ele>
        <time>2017-04-27T09:56:43Z</time>
      </trkpt>
      <trkpt lat="45.94722" lon="4.6909">
        <ele>344</ele>
        <time>2017-04-27T09:56:45Z</time>
      </trkpt>
      <trkpt lat="45.94726" lon="4.69092">
        <ele>344</ele>
        <time>2017-04-27T09:56:46Z</time>
      </trkpt>
      <trkpt lat="45.94734" lon="4.69094">
        <ele>344</ele>
        <time>2017-04-27T09:56:48Z</time>
      </trkpt>
      <trkpt lat="45.94739" lon="4.69096">
        <ele>344</ele>
        <time>2017-04-27T09:56:49Z</time>
      </trkpt>
      <trkpt lat="45.94743" lon="4.69097">
        <ele>344</ele>
        <time>2017-04-27T09:56:50Z</time>
      </trkpt>
      <trkpt lat="45.94749" lon="4.69099">
        <ele>344</ele>
        <time>2017-04-27T09:56:51Z</time>
      </trkpt>
      <trkpt lat="45.94754" lon="4.691">
        <ele>345</ele>
        <time>2017-04-27T09:56:52Z</time>
      </trkpt>
      <trkpt lat="45.94759" lon="4.69102">
        <ele>344</ele>
        <time>2017-04-27T09:56:53Z</time>
      </trkpt>
      <trkpt lat="45.94764" lon="4.69103">
        <ele>344</ele>
        <time>2017-04-27T09:56:54Z</time>
      </trkpt>
      <trkpt lat="45.94769" lon="4.69105">
        <ele>344</ele>
        <time>2017-04-27T09:56:55Z</time>
      </trkpt>
      <trkpt lat="45.94774" lon="4.69106">
        <ele>344</ele>
        <time>2017-04-27T09:56:56Z</time>
      </trkpt>
      <trkpt lat="45.94779" lon="4.69108">
        <ele>344</ele>
        <time>2017-04-27T09:56:57Z</time>
      </trkpt>
      <trkpt lat="45.94784" lon="4.6911">
        <ele>344</ele>
        <time>2017-04-27T09:56:58Z</time>
      </trkpt>
      <trkpt lat="45.94789" lon="4.69111">
        <ele>344</ele>
        <time>2017-04-27T09:56:59Z</time>
      </trkpt>
      <trkpt lat="45.94793" lon="4.69113">
        <ele>344</ele>
        <time>2017-04-27T09:57:00Z</time>
      </trkpt>
      <trkpt lat="45.94798" lon="4.69115">
        <ele>344</ele>
        <time>2017-04-27T09:57:01Z</time>
      </trkpt>
      <trkpt lat="45.94802" lon="4.69117">
        <ele>344</ele>
        <time>2017-04-27T09:57:02Z</time>
      </trkpt>
      <trkpt lat="45.94807" lon="4.69118">
        <ele>344</ele>
        <time>2017-04-27T09:57:03Z</time>
      </trkpt>
      <trkpt lat="45.94816" lon="4.69121">
        <ele>344</ele>
        <time>2017-04-27T09:57:05Z</time>
      </trkpt>
      <trkpt lat="45.9482" lon="4.69123">
        <ele>344</ele>
        <time>2017-04-27T09:57:06Z</time>
      </trkpt>
      <trkpt lat="45.94824" lon="4.69124">
        <ele>344</ele>
        <time>2017-04-27T09:57:07Z</time>
      </trkpt>
      <trkpt lat="45.94829" lon="4.69126">
        <ele>344</ele>
        <time>2017-04-27T09:57:08Z</time>
      </trkpt>
      <trkpt lat="45.94833" lon="4.69127">
        <ele>344</ele>
        <time>2017-04-27T09:57:09Z</time>
      </trkpt>
      <trkpt lat="45.94838" lon="4.69129">
        <ele>342</ele>
        <time>2017-04-27T09:57:10Z</time>
      </trkpt>
      <trkpt lat="45.94843" lon="4.6913">
        <ele>342</ele>
        <time>2017-04-27T09:57:11Z</time>
      </trkpt>
      <trkpt lat="45.94847" lon="4.69132">
        <ele>342</ele>
        <time>2017-04-27T09:57:12Z</time>
      </trkpt>
      <trkpt lat="45.94852" lon="4.69134">
        <ele>342</ele>
        <time>2017-04-27T09:57:13Z</time>
      </trkpt>
      <trkpt lat="45.94856" lon="4.69135">
        <ele>342</ele>
        <time>2017-04-27T09:57:14Z</time>
      </trkpt>
      <trkpt lat="45.94861" lon="4.69137">
        <ele>342</ele>
        <time>2017-04-27T09:57:15Z</time>
      </trkpt>
      <trkpt lat="45.94865" lon="4.69139">
        <ele>342</ele>
        <time>2017-04-27T09:57:16Z</time>
      </trkpt>
      <trkpt lat="45.9487" lon="4.69141">
        <ele>342</ele>
        <time>2017-04-27T09:57:17Z</time>
      </trkpt>
      <trkpt lat="45.94875" lon="4.69143">
        <ele>342</ele>
        <time>2017-04-27T09:57:18Z</time>
      </trkpt>
      <trkpt lat="45.94879" lon="4.69145">
        <ele>342</ele>
        <time>2017-04-27T09:57:19Z</time>
      </trkpt>
      <trkpt lat="45.94884" lon="4.69147">
        <ele>342</ele>
        <time>2017-04-27T09:57:20Z</time>
      </trkpt>
      <trkpt lat="45.94889" lon="4.6915">
        <ele>342</ele>
        <time>2017-04-27T09:57:21Z</time>
      </trkpt>
      <trkpt lat="45.94894" lon="4.69152">
        <ele>342</ele>
        <time>2017-04-27T09:57:22Z</time>
      </trkpt>
      <trkpt lat="45.94899" lon="4.69155">
        <ele>342</ele>
        <time>2017-04-27T09:57:23Z</time>
      </trkpt>
      <trkpt lat="45.94904" lon="4.69158">
        <ele>342</ele>
        <time>2017-04-27T09:57:24Z</time>
      </trkpt>
      <trkpt lat="45.94909" lon="4.6916">
        <ele>342</ele>
        <time>2017-04-27T09:57:25Z</time>
      </trkpt>
      <trkpt lat="45.94914" lon="4.69163">
        <ele>342</ele>
        <time>2017-04-27T09:57:26Z</time>
      </trkpt>
      <trkpt lat="45.9492" lon="4.69167">
        <ele>342</ele>
        <time>2017-04-27T09:57:27Z</time>
      </trkpt>
      <trkpt lat="45.94925" lon="4.6917">
        <ele>341</ele>
        <time>2017-04-27T09:57:28Z</time>
      </trkpt>
      <trkpt lat="45.94931" lon="4.69173">
        <ele>341</ele>
        <time>2017-04-27T09:57:29Z</time>
      </trkpt>
      <trkpt lat="45.94936" lon="4.69176">
        <ele>341</ele>
        <time>2017-04-27T09:57:30Z</time>
      </trkpt>
      <trkpt lat="45.94942" lon="4.6918">
        <ele>341</ele>
        <time>2017-04-27T09:57:31Z</time>
      </trkpt>
      <trkpt lat="45.94948" lon="4.69183">
        <ele>340</ele>
        <time>2017-04-27T09:57:32Z</time>
      </trkpt>
      <trkpt lat="45.94954" lon="4.69187">
        <ele>340</ele>
        <time>2017-04-27T09:57:33Z</time>
      </trkpt>
      <trkpt lat="45.94959" lon="4.69192">
        <ele>340</ele>
        <time>2017-04-27T09:57:34Z</time>
      </trkpt>
      <trkpt lat="45.94965" lon="4.69197">
        <ele>340</ele>
        <time>2017-04-27T09:57:35Z</time>
      </trkpt>
      <trkpt lat="45.94971" lon="4.69202">
        <ele>340</ele>
        <time>2017-04-27T09:57:36Z</time>
      </trkpt>
      <trkpt lat="45.94976" lon="4.69208">
        <ele>340</ele>
        <time>2017-04-27T09:57:37Z</time>
      </trkpt>
      <trkpt lat="45.94982" lon="4.69213">
        <ele>340</ele>
        <time>2017-04-27T09:57:38Z</time>
      </trkpt>
      <trkpt lat="45.94989" lon="4.69217">
        <ele>340</ele>
        <time>2017-04-27T09:57:39Z</time>
      </trkpt>
      <trkpt lat="45.94995" lon="4.69219">
        <ele>340</ele>
        <time>2017-04-27T09:57:40Z</time>
      </trkpt>
      <trkpt lat="45.95002" lon="4.69221">
        <ele>337</ele>
        <time>2017-04-27T09:57:41Z</time>
      </trkpt>
      <trkpt lat="45.9501" lon="4.69225">
        <ele>337</ele>
        <time>2017-04-27T09:57:42Z</time>
      </trkpt>
      <trkpt lat="45.95017" lon="4.69229">
        <ele>337</ele>
        <time>2017-04-27T09:57:43Z</time>
      </trkpt>
      <trkpt lat="45.95023" lon="4.69235">
        <ele>337</ele>
        <time>2017-04-27T09:57:44Z</time>
      </trkpt>
      <trkpt lat="45.9503" lon="4.6924">
        <ele>337</ele>
        <time>2017-04-27T09:57:45Z</time>
      </trkpt>
      <trkpt lat="45.95037" lon="4.69247">
        <ele>336</ele>
        <time>2017-04-27T09:57:46Z</time>
      </trkpt>
      <trkpt lat="45.95044" lon="4.69253">
        <ele>337</ele>
        <time>2017-04-27T09:57:47Z</time>
      </trkpt>
      <trkpt lat="45.9505" lon="4.6926">
        <ele>337</ele>
        <time>2017-04-27T09:57:48Z</time>
      </trkpt>
      <trkpt lat="45.95057" lon="4.69267">
        <ele>336</ele>
        <time>2017-04-27T09:57:49Z</time>
      </trkpt>
      <trkpt lat="45.95063" lon="4.69274">
        <ele>336</ele>
        <time>2017-04-27T09:57:50Z</time>
      </trkpt>
      <trkpt lat="45.9507" lon="4.69281">
        <ele>336</ele>
        <time>2017-04-27T09:57:51Z</time>
      </trkpt>
      <trkpt lat="45.95076" lon="4.69287">
        <ele>336</ele>
        <time>2017-04-27T09:57:52Z</time>
      </trkpt>
      <trkpt lat="45.95082" lon="4.69294">
        <ele>336</ele>
        <time>2017-04-27T09:57:53Z</time>
      </trkpt>
      <trkpt lat="45.95089" lon="4.69301">
        <ele>334</ele>
        <time>2017-04-27T09:57:54Z</time>
      </trkpt>
      <trkpt lat="45.95094" lon="4.69308">
        <ele>334</ele>
        <time>2017-04-27T09:57:55Z</time>
      </trkpt>
      <trkpt lat="45.951" lon="4.69315">
        <ele>334</ele>
        <time>2017-04-27T09:57:56Z</time>
      </trkpt>
      <trkpt lat="45.95105" lon="4.69321">
        <ele>334</ele>
        <time>2017-04-27T09:57:57Z</time>
      </trkpt>
      <trkpt lat="45.9511" lon="4.69327">
        <ele>334</ele>
        <time>2017-04-27T09:57:58Z</time>
      </trkpt>
      <trkpt lat="45.95115" lon="4.69333">
        <ele>334</ele>
        <time>2017-04-27T09:57:59Z</time>
      </trkpt>
      <trkpt lat="45.9512" lon="4.69339">
        <ele>336</ele>
        <time>2017-04-27T09:58:00Z</time>
      </trkpt>
      <trkpt lat="45.95125" lon="4.69344">
        <ele>337</ele>
        <time>2017-04-27T09:58:01Z</time>
      </trkpt>
      <trkpt lat="45.9513" lon="4.69349">
        <ele>337</ele>
        <time>2017-04-27T09:58:02Z</time>
      </trkpt>
      <trkpt lat="45.95135" lon="4.69353">
        <ele>337</ele>
        <time>2017-04-27T09:58:03Z</time>
      </trkpt>
      <trkpt lat="45.95139" lon="4.69358">
        <ele>337</ele>
        <time>2017-04-27T09:58:04Z</time>
      </trkpt>
      <trkpt lat="45.95143" lon="4.69363">
        <ele>337</ele>
        <time>2017-04-27T09:58:05Z</time>
      </trkpt>
      <trkpt lat="45.95147" lon="4.69367">
        <ele>337</ele>
        <time>2017-04-27T09:58:06Z</time>
      </trkpt>
      <trkpt lat="45.95152" lon="4.69371">
        <ele>337</ele>
        <time>2017-04-27T09:58:07Z</time>
      </trkpt>
      <trkpt lat="45.95156" lon="4.69376">
        <ele>337</ele>
        <time>2017-04-27T09:58:08Z</time>
      </trkpt>
      <trkpt lat="45.9516" lon="4.6938">
        <ele>337</ele>
        <time>2017-04-27T09:58:09Z</time>
      </trkpt>
      <trkpt lat="45.95164" lon="4.69384">
        <ele>337</ele>
        <time>2017-04-27T09:58:10Z</time>
      </trkpt>
      <trkpt lat="45.95169" lon="4.69387">
        <ele>337</ele>
        <time>2017-04-27T09:58:11Z</time>
      </trkpt>
      <trkpt lat="45.95174" lon="4.69391">
        <ele>337</ele>
        <time>2017-04-27T09:58:12Z</time>
      </trkpt>
      <trkpt lat="45.95178" lon="4.69395">
        <ele>337</ele>
        <time>2017-04-27T09:58:13Z</time>
      </trkpt>
      <trkpt lat="45.95183" lon="4.69399">
        <ele>338</ele>
        <time>2017-04-27T09:58:14Z</time>
      </trkpt>
      <trkpt lat="45.95187" lon="4.69403">
        <ele>337</ele>
        <time>2017-04-27T09:58:15Z</time>
      </trkpt>
      <trkpt lat="45.95192" lon="4.69406">
        <ele>337</ele>
        <time>2017-04-27T09:58:16Z</time>
      </trkpt>
      <trkpt lat="45.95197" lon="4.69408">
        <ele>337</ele>
        <time>2017-04-27T09:58:17Z</time>
      </trkpt>
      <trkpt lat="45.95202" lon="4.69411">
        <ele>337</ele>
        <time>2017-04-27T09:58:18Z</time>
      </trkpt>
      <trkpt lat="45.95207" lon="4.69414">
        <ele>337</ele>
        <time>2017-04-27T09:58:19Z</time>
      </trkpt>
      <trkpt lat="45.95212" lon="4.69417">
        <ele>337</ele>
        <time>2017-04-27T09:58:20Z</time>
      </trkpt>
      <trkpt lat="45.95217" lon="4.69419">
        <ele>340</ele>
        <time>2017-04-27T09:58:21Z</time>
      </trkpt>
      <trkpt lat="45.95222" lon="4.69421">
        <ele>340</ele>
        <time>2017-04-27T09:58:22Z</time>
      </trkpt>
      <trkpt lat="45.95228" lon="4.69423">
        <ele>340</ele>
        <time>2017-04-27T09:58:23Z</time>
      </trkpt>
      <trkpt lat="45.95233" lon="4.69425">
        <ele>340</ele>
        <time>2017-04-27T09:58:24Z</time>
      </trkpt>
      <trkpt lat="45.95237" lon="4.69428">
        <ele>339</ele>
        <time>2017-04-27T09:58:25Z</time>
      </trkpt>
      <trkpt lat="45.95242" lon="4.6943">
        <ele>339</ele>
        <time>2017-04-27T09:58:26Z</time>
      </trkpt>
      <trkpt lat="45.95247" lon="4.69433">
        <ele>339</ele>
        <time>2017-04-27T09:58:27Z</time>
      </trkpt>
      <trkpt lat="45.95251" lon="4.69435">
        <ele>339</ele>
        <time>2017-04-27T09:58:28Z</time>
      </trkpt>
      <trkpt lat="45.95256" lon="4.69438">
        <ele>339</ele>
        <time>2017-04-27T09:58:29Z</time>
      </trkpt>
      <trkpt lat="45.95261" lon="4.6944">
        <ele>339</ele>
        <time>2017-04-27T09:58:30Z</time>
      </trkpt>
      <trkpt lat="45.95265" lon="4.69442">
        <ele>339</ele>
        <time>2017-04-27T09:58:31Z</time>
      </trkpt>
      <trkpt lat="45.9527" lon="4.69444">
        <ele>339</ele>
        <time>2017-04-27T09:58:32Z</time>
      </trkpt>
      <trkpt lat="45.95274" lon="4.69446">
        <ele>339</ele>
        <time>2017-04-27T09:58:33Z</time>
      </trkpt>
      <trkpt lat="45.95279" lon="4.69448">
        <ele>339</ele>
        <time>2017-04-27T09:58:34Z</time>
      </trkpt>
      <trkpt lat="45.95283" lon="4.69451">
        <ele>339</ele>
        <time>2017-04-27T09:58:35Z</time>
      </trkpt>
      <trkpt lat="45.95288" lon="4.69453">
        <ele>339</ele>
        <time>2017-04-27T09:58:36Z</time>
      </trkpt>
      <trkpt lat="45.95293" lon="4.69455">
        <ele>339</ele>
        <time>2017-04-27T09:58:37Z</time>
      </trkpt>
      <trkpt lat="45.95298" lon="4.69457">
        <ele>339</ele>
        <time>2017-04-27T09:58:38Z</time>
      </trkpt>
      <trkpt lat="45.95302" lon="4.69459">
        <ele>339</ele>
        <time>2017-04-27T09:58:39Z</time>
      </trkpt>
      <trkpt lat="45.95307" lon="4.69461">
        <ele>339</ele>
        <time>2017-04-27T09:58:40Z</time>
      </trkpt>
      <trkpt lat="45.95312" lon="4.69463">
        <ele>339</ele>
        <time>2017-04-27T09:58:41Z</time>
      </trkpt>
      <trkpt lat="45.95316" lon="4.69465">
        <ele>339</ele>
        <time>2017-04-27T09:58:42Z</time>
      </trkpt>
      <trkpt lat="45.95321" lon="4.69468">
        <ele>339</ele>
        <time>2017-04-27T09:58:43Z</time>
      </trkpt>
      <trkpt lat="45.95326" lon="4.6947">
        <ele>339</ele>
        <time>2017-04-27T09:58:44Z</time>
      </trkpt>
      <trkpt lat="45.95331" lon="4.69472">
        <ele>339</ele>
        <time>2017-04-27T09:58:45Z</time>
      </trkpt>
      <trkpt lat="45.95336" lon="4.69474">
        <ele>337</ele>
        <time>2017-04-27T09:58:46Z</time>
      </trkpt>
      <trkpt lat="45.9534" lon="4.69477">
        <ele>337</ele>
        <time>2017-04-27T09:58:47Z</time>
      </trkpt>
      <trkpt lat="45.95344" lon="4.6948">
        <ele>338</ele>
        <time>2017-04-27T09:58:48Z</time>
      </trkpt>
      <trkpt lat="45.95352" lon="4.69486">
        <ele>338</ele>
        <time>2017-04-27T09:58:50Z</time>
      </trkpt>
      <trkpt lat="45.95357" lon="4.69489">
        <ele>337</ele>
        <time>2017-04-27T09:58:51Z</time>
      </trkpt>
      <trkpt lat="45.95362" lon="4.69493">
        <ele>337</ele>
        <time>2017-04-27T09:58:52Z</time>
      </trkpt>
      <trkpt lat="45.95367" lon="4.69496">
        <ele>337</ele>
        <time>2017-04-27T09:58:53Z</time>
      </trkpt>
      <trkpt lat="45.95372" lon="4.695">
        <ele>337</ele>
        <time>2017-04-27T09:58:54Z</time>
      </trkpt>
      <trkpt lat="45.95378" lon="4.69502">
        <ele>340</ele>
        <time>2017-04-27T09:58:55Z</time>
      </trkpt>
      <trkpt lat="45.95384" lon="4.69506">
        <ele>340</ele>
        <time>2017-04-27T09:58:56Z</time>
      </trkpt>
      <trkpt lat="45.95389" lon="4.6951">
        <ele>340</ele>
        <time>2017-04-27T09:58:57Z</time>
      </trkpt>
      <trkpt lat="45.95395" lon="4.69515">
        <ele>339</ele>
        <time>2017-04-27T09:58:58Z</time>
      </trkpt>
      <trkpt lat="45.954" lon="4.69519">
        <ele>339</ele>
        <time>2017-04-27T09:58:59Z</time>
      </trkpt>
      <trkpt lat="45.95405" lon="4.69523">
        <ele>339</ele>
        <time>2017-04-27T09:59:00Z</time>
      </trkpt>
      <trkpt lat="45.9541" lon="4.69526">
        <ele>339</ele>
        <time>2017-04-27T09:59:01Z</time>
      </trkpt>
      <trkpt lat="45.95415" lon="4.6953">
        <ele>339</ele>
        <time>2017-04-27T09:59:02Z</time>
      </trkpt>
      <trkpt lat="45.9542" lon="4.69534">
        <ele>337</ele>
        <time>2017-04-27T09:59:03Z</time>
      </trkpt>
      <trkpt lat="45.95425" lon="4.69537">
        <ele>337</ele>
        <time>2017-04-27T09:59:04Z</time>
      </trkpt>
      <trkpt lat="45.9543" lon="4.6954">
        <ele>337</ele>
        <time>2017-04-27T09:59:05Z</time>
      </trkpt>
      <trkpt lat="45.95436" lon="4.69542">
        <ele>337</ele>
        <time>2017-04-27T09:59:06Z</time>
      </trkpt>
      <trkpt lat="45.95441" lon="4.69545">
        <ele>337</ele>
        <time>2017-04-27T09:59:07Z</time>
      </trkpt>
      <trkpt lat="45.95447" lon="4.69548">
        <ele>337</ele>
        <time>2017-04-27T09:59:08Z</time>
      </trkpt>
      <trkpt lat="45.95452" lon="4.69551">
        <ele>337</ele>
        <time>2017-04-27T09:59:09Z</time>
      </trkpt>
      <trkpt lat="45.95457" lon="4.69553">
        <ele>337</ele>
        <time>2017-04-27T09:59:10Z</time>
      </trkpt>
      <trkpt lat="45.95463" lon="4.69556">
        <ele>337</ele>
        <time>2017-04-27T09:59:11Z</time>
      </trkpt>
      <trkpt lat="45.95468" lon="4.69559">
        <ele>337</ele>
        <time>2017-04-27T09:59:12Z</time>
      </trkpt>
      <trkpt lat="45.95474" lon="4.69561">
        <ele>337</ele>
        <time>2017-04-27T09:59:13Z</time>
      </trkpt>
      <trkpt lat="45.95479" lon="4.69564">
        <ele>337</ele>
        <time>2017-04-27T09:59:14Z</time>
      </trkpt>
      <trkpt lat="45.95485" lon="4.69566">
        <ele>337</ele>
        <time>2017-04-27T09:59:15Z</time>
      </trkpt>
      <trkpt lat="45.9549" lon="4.69568">
        <ele>337</ele>
        <time>2017-04-27T09:59:16Z</time>
      </trkpt>
      <trkpt lat="45.95496" lon="4.69571">
        <ele>337</ele>
        <time>2017-04-27T09:59:17Z</time>
      </trkpt>
      <trkpt lat="45.95502" lon="4.69573">
        <ele>335</ele>
        <time>2017-04-27T09:59:18Z</time>
      </trkpt>
      <trkpt lat="45.95507" lon="4.69576">
        <ele>335</ele>
        <time>2017-04-27T09:59:19Z</time>
      </trkpt>
      <trkpt lat="45.95513" lon="4.69579">
        <ele>334</ele>
        <time>2017-04-27T09:59:20Z</time>
      </trkpt>
      <trkpt lat="45.95519" lon="4.69582">
        <ele>334</ele>
        <time>2017-04-27T09:59:21Z</time>
      </trkpt>
      <trkpt lat="45.95525" lon="4.69585">
        <ele>333</ele>
        <time>2017-04-27T09:59:22Z</time>
      </trkpt>
      <trkpt lat="45.95531" lon="4.69588">
        <ele>332</ele>
        <time>2017-04-27T09:59:23Z</time>
      </trkpt>
      <trkpt lat="45.95537" lon="4.69591">
        <ele>332</ele>
        <time>2017-04-27T09:59:24Z</time>
      </trkpt>
      <trkpt lat="45.95544" lon="4.69593">
        <ele>331</ele>
        <time>2017-04-27T09:59:25Z</time>
      </trkpt>
      <trkpt lat="45.9555" lon="4.69596">
        <ele>331</ele>
        <time>2017-04-27T09:59:26Z</time>
      </trkpt>
      <trkpt lat="45.95557" lon="4.69599">
        <ele>331</ele>
        <time>2017-04-27T09:59:27Z</time>
      </trkpt>
      <trkpt lat="45.95563" lon="4.69602">
        <ele>330</ele>
        <time>2017-04-27T09:59:28Z</time>
      </trkpt>
      <trkpt lat="45.9557" lon="4.69605">
        <ele>330</ele>
        <time>2017-04-27T09:59:29Z</time>
      </trkpt>
      <trkpt lat="45.95576" lon="4.69608">
        <ele>330</ele>
        <time>2017-04-27T09:59:30Z</time>
      </trkpt>
      <trkpt lat="45.95583" lon="4.6961">
        <ele>330</ele>
        <time>2017-04-27T09:59:31Z</time>
      </trkpt>
      <trkpt lat="45.9559" lon="4.69613">
        <ele>328</ele>
        <time>2017-04-27T09:59:32Z</time>
      </trkpt>
      <trkpt lat="45.95597" lon="4.69616">
        <ele>328</ele>
        <time>2017-04-27T09:59:33Z</time>
      </trkpt>
      <trkpt lat="45.95604" lon="4.69619">
        <ele>328</ele>
        <time>2017-04-27T09:59:34Z</time>
      </trkpt>
      <trkpt lat="45.95611" lon="4.69622">
        <ele>328</ele>
        <time>2017-04-27T09:59:35Z</time>
      </trkpt>
      <trkpt lat="45.95618" lon="4.69624">
        <ele>328</ele>
        <time>2017-04-27T09:59:36Z</time>
      </trkpt>
      <trkpt lat="45.95624" lon="4.69627">
        <ele>328</ele>
        <time>2017-04-27T09:59:37Z</time>
      </trkpt>
      <trkpt lat="45.95631" lon="4.69631">
        <ele>328</ele>
        <time>2017-04-27T09:59:38Z</time>
      </trkpt>
      <trkpt lat="45.95638" lon="4.69634">
        <ele>328</ele>
        <time>2017-04-27T09:59:39Z</time>
      </trkpt>
      <trkpt lat="45.95644" lon="4.69636">
        <ele>328</ele>
        <time>2017-04-27T09:59:40Z</time>
      </trkpt>
      <trkpt lat="45.95651" lon="4.69639">
        <ele>328</ele>
        <time>2017-04-27T09:59:41Z</time>
      </trkpt>
      <trkpt lat="45.95658" lon="4.69642">
        <ele>327</ele>
        <time>2017-04-27T09:59:42Z</time>
      </trkpt>
      <trkpt lat="45.95664" lon="4.69645">
        <ele>327</ele>
        <time>2017-04-27T09:59:43Z</time>
      </trkpt>
      <trkpt lat="45.9567" lon="4.69647">
        <ele>326</ele>
        <time>2017-04-27T09:59:44Z</time>
      </trkpt>
      <trkpt lat="45.95677" lon="4.69649">
        <ele>326</ele>
        <time>2017-04-27T09:59:45Z</time>
      </trkpt>
      <trkpt lat="45.95683" lon="4.69652">
        <ele>326</ele>
        <time>2017-04-27T09:59:46Z</time>
      </trkpt>
      <trkpt lat="45.95689" lon="4.69654">
        <ele>326</ele>
        <time>2017-04-27T09:59:47Z</time>
      </trkpt>
      <trkpt lat="45.95695" lon="4.69656">
        <ele>326</ele>
        <time>2017-04-27T09:59:48Z</time>
      </trkpt>
      <trkpt lat="45.957" lon="4.69658">
        <ele>326</ele>
        <time>2017-04-27T09:59:49Z</time>
      </trkpt>
      <trkpt lat="45.95706" lon="4.69661">
        <ele>326</ele>
        <time>2017-04-27T09:59:50Z</time>
      </trkpt>
      <trkpt lat="45.95711" lon="4.69663">
        <ele>326</ele>
        <time>2017-04-27T09:59:51Z</time>
      </trkpt>
      <trkpt lat="45.95717" lon="4.69665">
        <ele>326</ele>
        <time>2017-04-27T09:59:52Z</time>
      </trkpt>
      <trkpt lat="45.95722" lon="4.69667">
        <ele>326</ele>
        <time>2017-04-27T09:59:53Z</time>
      </trkpt>
      <trkpt lat="45.95728" lon="4.6967">
        <ele>326</ele>
        <time>2017-04-27T09:59:54Z</time>
      </trkpt>
      <trkpt lat="45.95733" lon="4.69673">
        <ele>326</ele>
        <time>2017-04-27T09:59:55Z</time>
      </trkpt>
      <trkpt lat="45.95739" lon="4.69676">
        <ele>326</ele>
        <time>2017-04-27T09:59:56Z</time>
      </trkpt>
      <trkpt lat="45.95743" lon="4.69679">
        <ele>326</ele>
        <time>2017-04-27T09:59:57Z</time>
      </trkpt>
      <trkpt lat="45.95748" lon="4.69682">
        <ele>326</ele>
        <time>2017-04-27T09:59:58Z</time>
      </trkpt>
      <trkpt lat="45.95753" lon="4.69685">
        <ele>326</ele>
        <time>2017-04-27T09:59:59Z</time>
      </trkpt>
      <trkpt lat="45.95757" lon="4.69687">
        <ele>326</ele>
        <time>2017-04-27T10:00:00Z</time>
      </trkpt>
      <trkpt lat="45.95762" lon="4.69688">
        <ele>326</ele>
        <time>2017-04-27T10:00:01Z</time>
      </trkpt>
      <trkpt lat="45.95767" lon="4.69691">
        <ele>326</ele>
        <time>2017-04-27T10:00:02Z</time>
      </trkpt>
      <trkpt lat="45.95771" lon="4.69694">
        <ele>326</ele>
        <time>2017-04-27T10:00:03Z</time>
      </trkpt>
      <trkpt lat="45.95775" lon="4.69698">
        <ele>326</ele>
        <time>2017-04-27T10:00:04Z</time>
      </trkpt>
      <trkpt lat="45.95779" lon="4.69702">
        <ele>326</ele>
        <time>2017-04-27T10:00:05Z</time>
      </trkpt>
      <trkpt lat="45.95783" lon="4.69707">
        <ele>326</ele>
        <time>2017-04-27T10:00:06Z</time>
      </trkpt>
      <trkpt lat="45.95787" lon="4.69712">
        <ele>326</ele>
        <time>2017-04-27T10:00:07Z</time>
      </trkpt>
      <trkpt lat="45.9579" lon="4.69717">
        <ele>326</ele>
        <time>2017-04-27T10:00:08Z</time>
      </trkpt>
      <trkpt lat="45.95794" lon="4.69723">
        <ele>326</ele>
        <time>2017-04-27T10:00:09Z</time>
      </trkpt>
      <trkpt lat="45.95797" lon="4.69728">
        <ele>326</ele>
        <time>2017-04-27T10:00:10Z</time>
      </trkpt>
      <trkpt lat="45.95801" lon="4.69733">
        <ele>326</ele>
        <time>2017-04-27T10:00:11Z</time>
      </trkpt>
      <trkpt lat="45.95804" lon="4.69738">
        <ele>326</ele>
        <time>2017-04-27T10:00:12Z</time>
      </trkpt>
      <trkpt lat="45.95807" lon="4.69744">
        <ele>327</ele>
        <time>2017-04-27T10:00:13Z</time>
      </trkpt>
      <trkpt lat="45.9581" lon="4.69749">
        <ele>327</ele>
        <time>2017-04-27T10:00:14Z</time>
      </trkpt>
      <trkpt lat="45.95813" lon="4.69754">
        <ele>328</ele>
        <time>2017-04-27T10:00:15Z</time>
      </trkpt>
      <trkpt lat="45.95816" lon="4.69759">
        <ele>328</ele>
        <time>2017-04-27T10:00:16Z</time>
      </trkpt>
      <trkpt lat="45.9582" lon="4.69763">
        <ele>328</ele>
        <time>2017-04-27T10:00:17Z</time>
      </trkpt>
      <trkpt lat="45.95825" lon="4.69772">
        <ele>328</ele>
        <time>2017-04-27T10:00:19Z</time>
      </trkpt>
      <trkpt lat="45.95828" lon="4.69777">
        <ele>328</ele>
        <time>2017-04-27T10:00:20Z</time>
      </trkpt>
      <trkpt lat="45.95831" lon="4.69782">
        <ele>328</ele>
        <time>2017-04-27T10:00:21Z</time>
      </trkpt>
      <trkpt lat="45.95834" lon="4.69787">
        <ele>327</ele>
        <time>2017-04-27T10:00:22Z</time>
      </trkpt>
      <trkpt lat="45.95837" lon="4.69793">
        <ele>327</ele>
        <time>2017-04-27T10:00:23Z</time>
      </trkpt>
      <trkpt lat="45.9584" lon="4.69798">
        <ele>327</ele>
        <time>2017-04-27T10:00:24Z</time>
      </trkpt>
      <trkpt lat="45.95842" lon="4.69803">
        <ele>328</ele>
        <time>2017-04-27T10:00:25Z</time>
      </trkpt>
      <trkpt lat="45.95845" lon="4.69809">
        <ele>328</ele>
        <time>2017-04-27T10:00:26Z</time>
      </trkpt>
      <trkpt lat="45.95848" lon="4.69814">
        <ele>328</ele>
        <time>2017-04-27T10:00:27Z</time>
      </trkpt>
      <trkpt lat="45.9585" lon="4.6982">
        <ele>328</ele>
        <time>2017-04-27T10:00:28Z</time>
      </trkpt>
      <trkpt lat="45.95852" lon="4.69826">
        <ele>328</ele>
        <time>2017-04-27T10:00:29Z</time>
      </trkpt>
      <trkpt lat="45.95855" lon="4.69832">
        <ele>328</ele>
        <time>2017-04-27T10:00:30Z</time>
      </trkpt>
      <trkpt lat="45.95857" lon="4.69838">
        <ele>329</ele>
        <time>2017-04-27T10:00:31Z</time>
      </trkpt>
      <trkpt lat="45.95859" lon="4.69844">
        <ele>329</ele>
        <time>2017-04-27T10:00:32Z</time>
      </trkpt>
      <trkpt lat="45.95861" lon="4.69851">
        <ele>329</ele>
        <time>2017-04-27T10:00:33Z</time>
      </trkpt>
      <trkpt lat="45.95863" lon="4.69857">
        <ele>329</ele>
        <time>2017-04-27T10:00:34Z</time>
      </trkpt>
      <trkpt lat="45.95865" lon="4.69863">
        <ele>329</ele>
        <time>2017-04-27T10:00:35Z</time>
      </trkpt>
      <trkpt lat="45.95867" lon="4.69869">
        <ele>329</ele>
        <time>2017-04-27T10:00:36Z</time>
      </trkpt>
      <trkpt lat="45.95869" lon="4.69875">
        <ele>329</ele>
        <time>2017-04-27T10:00:37Z</time>
      </trkpt>
      <trkpt lat="45.9587" lon="4.69881">
        <ele>329</ele>
        <time>2017-04-27T10:00:38Z</time>
      </trkpt>
      <trkpt lat="45.95872" lon="4.69887">
        <ele>329</ele>
        <time>2017-04-27T10:00:39Z</time>
      </trkpt>
      <trkpt lat="45.95873" lon="4.69893">
        <ele>329</ele>
        <time>2017-04-27T10:00:40Z</time>
      </trkpt>
      <trkpt lat="45.95875" lon="4.69899">
        <ele>329</ele>
        <time>2017-04-27T10:00:41Z</time>
      </trkpt>
      <trkpt lat="45.95876" lon="4.69905">
        <ele>329</ele>
        <time>2017-04-27T10:00:42Z</time>
      </trkpt>
      <trkpt lat="45.95879" lon="4.69917">
        <ele>329</ele>
        <time>2017-04-27T10:00:44Z</time>
      </trkpt>
      <trkpt lat="45.9588" lon="4.69922">
        <ele>328</ele>
        <time>2017-04-27T10:00:45Z</time>
      </trkpt>
      <trkpt lat="45.95883" lon="4.69934">
        <ele>328</ele>
        <time>2017-04-27T10:00:47Z</time>
      </trkpt>
      <trkpt lat="45.95885" lon="4.6994">
        <ele>328</ele>
        <time>2017-04-27T10:00:48Z</time>
      </trkpt>
      <trkpt lat="45.95888" lon="4.69951">
        <ele>328</ele>
        <time>2017-04-27T10:00:50Z</time>
      </trkpt>
      <trkpt lat="45.95889" lon="4.69957">
        <ele>328</ele>
        <time>2017-04-27T10:00:51Z</time>
      </trkpt>
      <trkpt lat="45.95892" lon="4.69969">
        <ele>328</ele>
        <time>2017-04-27T10:00:53Z</time>
      </trkpt>
      <trkpt lat="45.95893" lon="4.69975">
        <ele>328</ele>
        <time>2017-04-27T10:00:54Z</time>
      </trkpt>
      <trkpt lat="45.95895" lon="4.69981">
        <ele>328</ele>
        <time>2017-04-27T10:00:55Z</time>
      </trkpt>
      <trkpt lat="45.95896" lon="4.69987">
        <ele>328</ele>
        <time>2017-04-27T10:00:56Z</time>
      </trkpt>
      <trkpt lat="45.95898" lon="4.69993">
        <ele>328</ele>
        <time>2017-04-27T10:00:57Z</time>
      </trkpt>
      <trkpt lat="45.959" lon="4.7">
        <ele>328</ele>
        <time>2017-04-27T10:00:58Z</time>
      </trkpt>
      <trkpt lat="45.95903" lon="4.70007">
        <ele>328</ele>
        <time>2017-04-27T10:00:59Z</time>
      </trkpt>
      <trkpt lat="45.95906" lon="4.70013">
        <ele>328</ele>
        <time>2017-04-27T10:01:00Z</time>
      </trkpt>
      <trkpt lat="45.95908" lon="4.70019">
        <ele>328</ele>
        <time>2017-04-27T10:01:01Z</time>
      </trkpt>
      <trkpt lat="45.95911" lon="4.70025">
        <ele>328</ele>
        <time>2017-04-27T10:01:02Z</time>
      </trkpt>
      <trkpt lat="45.95913" lon="4.70031">
        <ele>328</ele>
        <time>2017-04-27T10:01:03Z</time>
      </trkpt>
      <trkpt lat="45.95916" lon="4.70037">
        <ele>328</ele>
        <time>2017-04-27T10:01:04Z</time>
      </trkpt>
      <trkpt lat="45.95918" lon="4.70042">
        <ele>328</ele>
        <time>2017-04-27T10:01:05Z</time>
      </trkpt>
      <trkpt lat="45.95921" lon="4.70047">
        <ele>328</ele>
        <time>2017-04-27T10:01:06Z</time>
      </trkpt>
      <trkpt lat="45.95924" lon="4.70052">
        <ele>328</ele>
        <time>2017-04-27T10:01:07Z</time>
      </trkpt>
      <trkpt lat="45.95928" lon="4.70058">
        <ele>328</ele>
        <time>2017-04-27T10:01:08Z</time>
      </trkpt>
      <trkpt lat="45.95931" lon="4.70063">
        <ele>328</ele>
        <time>2017-04-27T10:01:09Z</time>
      </trkpt>
      <trkpt lat="45.95935" lon="4.70068">
        <ele>328</ele>
        <time>2017-04-27T10:01:10Z</time>
      </trkpt>
      <trkpt lat="45.95939" lon="4.70073">
        <ele>328</ele>
        <time>2017-04-27T10:01:11Z</time>
      </trkpt>
      <trkpt lat="45.95943" lon="4.70078">
        <ele>328</ele>
        <time>2017-04-27T10:01:12Z</time>
      </trkpt>
      <trkpt lat="45.95947" lon="4.70083">
        <ele>328</ele>
        <time>2017-04-27T10:01:13Z</time>
      </trkpt>
      <trkpt lat="45.95951" lon="4.70088">
        <ele>328</ele>
        <time>2017-04-27T10:01:14Z</time>
      </trkpt>
      <trkpt lat="45.95955" lon="4.70092">
        <ele>328</ele>
        <time>2017-04-27T10:01:15Z</time>
      </trkpt>
      <trkpt lat="45.95959" lon="4.70097">
        <ele>328</ele>
        <time>2017-04-27T10:01:16Z</time>
      </trkpt>
      <trkpt lat="45.95963" lon="4.70101">
        <ele>328</ele>
        <time>2017-04-27T10:01:17Z</time>
      </trkpt>
      <trkpt lat="45.95967" lon="4.70105">
        <ele>328</ele>
        <time>2017-04-27T10:01:18Z</time>
      </trkpt>
      <trkpt lat="45.95971" lon="4.70109">
        <ele>328</ele>
        <time>2017-04-27T10:01:19Z</time>
      </trkpt>
      <trkpt lat="45.95976" lon="4.70114">
        <ele>328</ele>
        <time>2017-04-27T10:01:20Z</time>
      </trkpt>
      <trkpt lat="45.9598" lon="4.70118">
        <ele>328</ele>
        <time>2017-04-27T10:01:21Z</time>
      </trkpt>
      <trkpt lat="45.95984" lon="4.70123">
        <ele>328</ele>
        <time>2017-04-27T10:01:22Z</time>
      </trkpt>
      <trkpt lat="45.95988" lon="4.70127">
        <ele>328</ele>
        <time>2017-04-27T10:01:23Z</time>
      </trkpt>
      <trkpt lat="45.95993" lon="4.70131">
        <ele>328</ele>
        <time>2017-04-27T10:01:24Z</time>
      </trkpt>
      <trkpt lat="45.95997" lon="4.70135">
        <ele>328</ele>
        <time>2017-04-27T10:01:25Z</time>
      </trkpt>
      <trkpt lat="45.96001" lon="4.70138">
        <ele>328</ele>
        <time>2017-04-27T10:01:26Z</time>
      </trkpt>
      <trkpt lat="45.96005" lon="4.70141">
        <ele>329</ele>
        <time>2017-04-27T10:01:27Z</time>
      </trkpt>
      <trkpt lat="45.96009" lon="4.70145">
        <ele>329</ele>
        <time>2017-04-27T10:01:28Z</time>
      </trkpt>
      <trkpt lat="45.96013" lon="4.70148">
        <ele>329</ele>
        <time>2017-04-27T10:01:29Z</time>
      </trkpt>
      <trkpt lat="45.96017" lon="4.70151">
        <ele>329</ele>
        <time>2017-04-27T10:01:30Z</time>
      </trkpt>
      <trkpt lat="45.96021" lon="4.70155">
        <ele>329</ele>
        <time>2017-04-27T10:01:31Z</time>
      </trkpt>
      <trkpt lat="45.96025" lon="4.70158">
        <ele>329</ele>
        <time>2017-04-27T10:01:32Z</time>
      </trkpt>
      <trkpt lat="45.96029" lon="4.70161">
        <ele>329</ele>
        <time>2017-04-27T10:01:33Z</time>
      </trkpt>
      <trkpt lat="45.96033" lon="4.70165">
        <ele>329</ele>
        <time>2017-04-27T10:01:34Z</time>
      </trkpt>
      <trkpt lat="45.96038" lon="4.70169">
        <ele>327</ele>
        <time>2017-04-27T10:01:35Z</time>
      </trkpt>
      <trkpt lat="45.96042" lon="4.70173">
        <ele>327</ele>
        <time>2017-04-27T10:01:36Z</time>
      </trkpt>
      <trkpt lat="45.96046" lon="4.70177">
        <ele>327</ele>
        <time>2017-04-27T10:01:37Z</time>
      </trkpt>
      <trkpt lat="45.96051" lon="4.7018">
        <ele>327</ele>
        <time>2017-04-27T10:01:38Z</time>
      </trkpt>
      <trkpt lat="45.96055" lon="4.70184">
        <ele>327</ele>
        <time>2017-04-27T10:01:39Z</time>
      </trkpt>
      <trkpt lat="45.96059" lon="4.70188">
        <ele>327</ele>
        <time>2017-04-27T10:01:40Z</time>
      </trkpt>
      <trkpt lat="45.96063" lon="4.70192">
        <ele>327</ele>
        <time>2017-04-27T10:01:41Z</time>
      </trkpt>
      <trkpt lat="45.96068" lon="4.70195">
        <ele>327</ele>
        <time>2017-04-27T10:01:42Z</time>
      </trkpt>
      <trkpt lat="45.96072" lon="4.70199">
        <ele>327</ele>
        <time>2017-04-27T10:01:43Z</time>
      </trkpt>
      <trkpt lat="45.96076" lon="4.70202">
        <ele>327</ele>
        <time>2017-04-27T10:01:44Z</time>
      </trkpt>
      <trkpt lat="45.9608" lon="4.70206">
        <ele>327</ele>
        <time>2017-04-27T10:01:45Z</time>
      </trkpt>
      <trkpt lat="45.96085" lon="4.7021">
        <ele>327</ele>
        <time>2017-04-27T10:01:46Z</time>
      </trkpt>
      <trkpt lat="45.96089" lon="4.70213">
        <ele>327</ele>
        <time>2017-04-27T10:01:47Z</time>
      </trkpt>
      <trkpt lat="45.96093" lon="4.70217">
        <ele>327</ele>
        <time>2017-04-27T10:01:48Z</time>
      </trkpt>
      <trkpt lat="45.96098" lon="4.7022">
        <ele>327</ele>
        <time>2017-04-27T10:01:49Z</time>
      </trkpt>
      <trkpt lat="45.96102" lon="4.70224">
        <ele>327</ele>
        <time>2017-04-27T10:01:50Z</time>
      </trkpt>
      <trkpt lat="45.96107" lon="4.70228">
        <ele>327</ele>
        <time>2017-04-27T10:01:51Z</time>
      </trkpt>
      <trkpt lat="45.96112" lon="4.70232">
        <ele>327</ele>
        <time>2017-04-27T10:01:52Z</time>
      </trkpt>
      <trkpt lat="45.96117" lon="4.70236">
        <ele>327</ele>
        <time>2017-04-27T10:01:53Z</time>
      </trkpt>
      <trkpt lat="45.96122" lon="4.70241">
        <ele>327</ele>
        <time>2017-04-27T10:01:54Z</time>
      </trkpt>
      <trkpt lat="45.96127" lon="4.70246">
        <ele>327</ele>
        <time>2017-04-27T10:01:55Z</time>
      </trkpt>
      <trkpt lat="45.96132" lon="4.70251">
        <ele>324</ele>
        <time>2017-04-27T10:01:56Z</time>
      </trkpt>
      <trkpt lat="45.96138" lon="4.70256">
        <ele>324</ele>
        <time>2017-04-27T10:01:57Z</time>
      </trkpt>
      <trkpt lat="45.96143" lon="4.70261">
        <ele>324</ele>
        <time>2017-04-27T10:01:58Z</time>
      </trkpt>
      <trkpt lat="45.96148" lon="4.70266">
        <ele>324</ele>
        <time>2017-04-27T10:01:59Z</time>
      </trkpt>
      <trkpt lat="45.96153" lon="4.70272">
        <ele>324</ele>
        <time>2017-04-27T10:02:00Z</time>
      </trkpt>
      <trkpt lat="45.96158" lon="4.70277">
        <ele>323</ele>
        <time>2017-04-27T10:02:01Z</time>
      </trkpt>
      <trkpt lat="45.96163" lon="4.70283">
        <ele>323</ele>
        <time>2017-04-27T10:02:02Z</time>
      </trkpt>
      <trkpt lat="45.96168" lon="4.70289">
        <ele>326</ele>
        <time>2017-04-27T10:02:03Z</time>
      </trkpt>
      <trkpt lat="45.96173" lon="4.70295">
        <ele>326</ele>
        <time>2017-04-27T10:02:04Z</time>
      </trkpt>
      <trkpt lat="45.96177" lon="4.70301">
        <ele>325</ele>
        <time>2017-04-27T10:02:05Z</time>
      </trkpt>
      <trkpt lat="45.96181" lon="4.70307">
        <ele>325</ele>
        <time>2017-04-27T10:02:06Z</time>
      </trkpt>
      <trkpt lat="45.96186" lon="4.70313">
        <ele>325</ele>
        <time>2017-04-27T10:02:07Z</time>
      </trkpt>
      <trkpt lat="45.9619" lon="4.7032">
        <ele>325</ele>
        <time>2017-04-27T10:02:08Z</time>
      </trkpt>
      <trkpt lat="45.96194" lon="4.70326">
        <ele>325</ele>
        <time>2017-04-27T10:02:09Z</time>
      </trkpt>
      <trkpt lat="45.96198" lon="4.70333">
        <ele>325</ele>
        <time>2017-04-27T10:02:10Z</time>
      </trkpt>
      <trkpt lat="45.96202" lon="4.70339">
        <ele>320</ele>
        <time>2017-04-27T10:02:11Z</time>
      </trkpt>
      <trkpt lat="45.96207" lon="4.70345">
        <ele>320</ele>
        <time>2017-04-27T10:02:12Z</time>
      </trkpt>
      <trkpt lat="45.96211" lon="4.70352">
        <ele>321</ele>
        <time>2017-04-27T10:02:13Z</time>
      </trkpt>
      <trkpt lat="45.96215" lon="4.70359">
        <ele>321</ele>
        <time>2017-04-27T10:02:14Z</time>
      </trkpt>
      <trkpt lat="45.96219" lon="4.70365">
        <ele>320</ele>
        <time>2017-04-27T10:02:15Z</time>
      </trkpt>
      <trkpt lat="45.96224" lon="4.70372">
        <ele>320</ele>
        <time>2017-04-27T10:02:16Z</time>
      </trkpt>
      <trkpt lat="45.96228" lon="4.70379">
        <ele>320</ele>
        <time>2017-04-27T10:02:17Z</time>
      </trkpt>
      <trkpt lat="45.96232" lon="4.70386">
        <ele>320</ele>
        <time>2017-04-27T10:02:18Z</time>
      </trkpt>
      <trkpt lat="45.96236" lon="4.70392">
        <ele>320</ele>
        <time>2017-04-27T10:02:19Z</time>
      </trkpt>
      <trkpt lat="45.96241" lon="4.70399">
        <ele>320</ele>
        <time>2017-04-27T10:02:20Z</time>
      </trkpt>
      <trkpt lat="45.96246" lon="4.70405">
        <ele>320</ele>
        <time>2017-04-27T10:02:21Z</time>
      </trkpt>
      <trkpt lat="45.9625" lon="4.70412">
        <ele>322</ele>
        <time>2017-04-27T10:02:22Z</time>
      </trkpt>
      <trkpt lat="45.96255" lon="4.70419">
        <ele>320</ele>
        <time>2017-04-27T10:02:23Z</time>
      </trkpt>
      <trkpt lat="45.96259" lon="4.70426">
        <ele>320</ele>
        <time>2017-04-27T10:02:24Z</time>
      </trkpt>
      <trkpt lat="45.96263" lon="4.70433">
        <ele>320</ele>
        <time>2017-04-27T10:02:25Z</time>
      </trkpt>
      <trkpt lat="45.96267" lon="4.7044">
        <ele>320</ele>
        <time>2017-04-27T10:02:26Z</time>
      </trkpt>
      <trkpt lat="45.96272" lon="4.70447">
        <ele>320</ele>
        <time>2017-04-27T10:02:27Z</time>
      </trkpt>
      <trkpt lat="45.96276" lon="4.70453">
        <ele>320</ele>
        <time>2017-04-27T10:02:28Z</time>
      </trkpt>
      <trkpt lat="45.9628" lon="4.70459">
        <ele>320</ele>
        <time>2017-04-27T10:02:29Z</time>
      </trkpt>
      <trkpt lat="45.96284" lon="4.70465">
        <ele>320</ele>
        <time>2017-04-27T10:02:30Z</time>
      </trkpt>
      <trkpt lat="45.96288" lon="4.70471">
        <ele>320</ele>
        <time>2017-04-27T10:02:31Z</time>
      </trkpt>
      <trkpt lat="45.96293" lon="4.70479">
        <ele>320</ele>
        <time>2017-04-27T10:02:32Z</time>
      </trkpt>
      <trkpt lat="45.96297" lon="4.70487">
        <ele>320</ele>
        <time>2017-04-27T10:02:33Z</time>
      </trkpt>
      <trkpt lat="45.96302" lon="4.70493">
        <ele>320</ele>
        <time>2017-04-27T10:02:34Z</time>
      </trkpt>
      <trkpt lat="45.96306" lon="4.70499">
        <ele>320</ele>
        <time>2017-04-27T10:02:35Z</time>
      </trkpt>
      <trkpt lat="45.96311" lon="4.70506">
        <ele>316</ele>
        <time>2017-04-27T10:02:36Z</time>
      </trkpt>
      <trkpt lat="45.96316" lon="4.70512">
        <ele>316</ele>
        <time>2017-04-27T10:02:37Z</time>
      </trkpt>
      <trkpt lat="45.96321" lon="4.70519">
        <ele>315</ele>
        <time>2017-04-27T10:02:38Z</time>
      </trkpt>
      <trkpt lat="45.96326" lon="4.70526">
        <ele>315</ele>
        <time>2017-04-27T10:02:39Z</time>
      </trkpt>
      <trkpt lat="45.96331" lon="4.70533">
        <ele>314</ele>
        <time>2017-04-27T10:02:40Z</time>
      </trkpt>
      <trkpt lat="45.96336" lon="4.70539">
        <ele>318</ele>
        <time>2017-04-27T10:02:41Z</time>
      </trkpt>
      <trkpt lat="45.96342" lon="4.70546">
        <ele>318</ele>
        <time>2017-04-27T10:02:42Z</time>
      </trkpt>
      <trkpt lat="45.96348" lon="4.70553">
        <ele>317</ele>
        <time>2017-04-27T10:02:43Z</time>
      </trkpt>
      <trkpt lat="45.96353" lon="4.7056">
        <ele>317</ele>
        <time>2017-04-27T10:02:44Z</time>
      </trkpt>
      <trkpt lat="45.96359" lon="4.70567">
        <ele>317</ele>
        <time>2017-04-27T10:02:45Z</time>
      </trkpt>
      <trkpt lat="45.96365" lon="4.70575">
        <ele>317</ele>
        <time>2017-04-27T10:02:46Z</time>
      </trkpt>
      <trkpt lat="45.96371" lon="4.70582">
        <ele>317</ele>
        <time>2017-04-27T10:02:47Z</time>
      </trkpt>
      <trkpt lat="45.96377" lon="4.7059">
        <ele>311</ele>
        <time>2017-04-27T10:02:48Z</time>
      </trkpt>
      <trkpt lat="45.96383" lon="4.70597">
        <ele>312</ele>
        <time>2017-04-27T10:02:49Z</time>
      </trkpt>
      <trkpt lat="45.96389" lon="4.70605">
        <ele>311</ele>
        <time>2017-04-27T10:02:50Z</time>
      </trkpt>
      <trkpt lat="45.96395" lon="4.70612">
        <ele>311</ele>
        <time>2017-04-27T10:02:51Z</time>
      </trkpt>
      <trkpt lat="45.96401" lon="4.70619">
        <ele>311</ele>
        <time>2017-04-27T10:02:52Z</time>
      </trkpt>
      <trkpt lat="45.96408" lon="4.70626">
        <ele>311</ele>
        <time>2017-04-27T10:02:53Z</time>
      </trkpt>
      <trkpt lat="45.96414" lon="4.70633">
        <ele>310</ele>
        <time>2017-04-27T10:02:54Z</time>
      </trkpt>
      <trkpt lat="45.9642" lon="4.70641">
        <ele>312</ele>
        <time>2017-04-27T10:02:55Z</time>
      </trkpt>
      <trkpt lat="45.96427" lon="4.70648">
        <ele>312</ele>
        <time>2017-04-27T10:02:56Z</time>
      </trkpt>
      <trkpt lat="45.96433" lon="4.70656">
        <ele>311</ele>
        <time>2017-04-27T10:02:57Z</time>
      </trkpt>
      <trkpt lat="45.9644" lon="4.70663">
        <ele>312</ele>
        <time>2017-04-27T10:02:58Z</time>
      </trkpt>
      <trkpt lat="45.96447" lon="4.7067">
        <ele>305</ele>
        <time>2017-04-27T10:02:59Z</time>
      </trkpt>
      <trkpt lat="45.96455" lon="4.70677">
        <ele>305</ele>
        <time>2017-04-27T10:03:00Z</time>
      </trkpt>
      <trkpt lat="45.96462" lon="4.70683">
        <ele>305</ele>
        <time>2017-04-27T10:03:01Z</time>
      </trkpt>
      <trkpt lat="45.96469" lon="4.7069">
        <ele>305</ele>
        <time>2017-04-27T10:03:02Z</time>
      </trkpt>
      <trkpt lat="45.96477" lon="4.70697">
        <ele>305</ele>
        <time>2017-04-27T10:03:03Z</time>
      </trkpt>
      <trkpt lat="45.96485" lon="4.70704">
        <ele>304</ele>
        <time>2017-04-27T10:03:04Z</time>
      </trkpt>
      <trkpt lat="45.96493" lon="4.70711">
        <ele>304</ele>
        <time>2017-04-27T10:03:05Z</time>
      </trkpt>
      <trkpt lat="45.96501" lon="4.70718">
        <ele>305</ele>
        <time>2017-04-27T10:03:06Z</time>
      </trkpt>
      <trkpt lat="45.96509" lon="4.70724">
        <ele>305</ele>
        <time>2017-04-27T10:03:07Z</time>
      </trkpt>
      <trkpt lat="45.96518" lon="4.70731">
        <ele>304</ele>
        <time>2017-04-27T10:03:08Z</time>
      </trkpt>
      <trkpt lat="45.96526" lon="4.70738">
        <ele>304</ele>
        <time>2017-04-27T10:03:09Z</time>
      </trkpt>
      <trkpt lat="45.96535" lon="4.70744">
        <ele>305</ele>
        <time>2017-04-27T10:03:10Z</time>
      </trkpt>
      <trkpt lat="45.96544" lon="4.70751">
        <ele>298</ele>
        <time>2017-04-27T10:03:11Z</time>
      </trkpt>
      <trkpt lat="45.96552" lon="4.70758">
        <ele>298</ele>
        <time>2017-04-27T10:03:12Z</time>
      </trkpt>
      <trkpt lat="45.96561" lon="4.70765">
        <ele>298</ele>
        <time>2017-04-27T10:03:13Z</time>
      </trkpt>
      <trkpt lat="45.9657" lon="4.70772">
        <ele>298</ele>
        <time>2017-04-27T10:03:14Z</time>
      </trkpt>
      <trkpt lat="45.96579" lon="4.70778">
        <ele>298</ele>
        <time>2017-04-27T10:03:15Z</time>
      </trkpt>
      <trkpt lat="45.96588" lon="4.70784">
        <ele>299</ele>
        <time>2017-04-27T10:03:16Z</time>
      </trkpt>
      <trkpt lat="45.96597" lon="4.70791">
        <ele>298</ele>
        <time>2017-04-27T10:03:17Z</time>
      </trkpt>
      <trkpt lat="45.96606" lon="4.70797">
        <ele>298</ele>
        <time>2017-04-27T10:03:18Z</time>
      </trkpt>
      <trkpt lat="45.96615" lon="4.70803">
        <ele>298</ele>
        <time>2017-04-27T10:03:19Z</time>
      </trkpt>
      <trkpt lat="45.96624" lon="4.70809">
        <ele>297</ele>
        <time>2017-04-27T10:03:20Z</time>
      </trkpt>
      <trkpt lat="45.96633" lon="4.70815">
        <ele>297</ele>
        <time>2017-04-27T10:03:21Z</time>
      </trkpt>
      <trkpt lat="45.96643" lon="4.70821">
        <ele>297</ele>
        <time>2017-04-27T10:03:22Z</time>
      </trkpt>
      <trkpt lat="45.96652" lon="4.70827">
        <ele>297</ele>
        <time>2017-04-27T10:03:23Z</time>
      </trkpt>
      <trkpt lat="45.96661" lon="4.70834">
        <ele>293</ele>
        <time>2017-04-27T10:03:24Z</time>
      </trkpt>
      <trkpt lat="45.9667" lon="4.7084">
        <ele>293</ele>
        <time>2017-04-27T10:03:25Z</time>
      </trkpt>
      <trkpt lat="45.96679" lon="4.70846">
        <ele>292</ele>
        <time>2017-04-27T10:03:26Z</time>
      </trkpt>
      <trkpt lat="45.96688" lon="4.70851">
        <ele>290</ele>
        <time>2017-04-27T10:03:27Z</time>
      </trkpt>
      <trkpt lat="45.96698" lon="4.70857">
        <ele>290</ele>
        <time>2017-04-27T10:03:28Z</time>
      </trkpt>
      <trkpt lat="45.96707" lon="4.70863">
        <ele>289</ele>
        <time>2017-04-27T10:03:29Z</time>
      </trkpt>
      <trkpt lat="45.96715" lon="4.70868">
        <ele>289</ele>
        <time>2017-04-27T10:03:30Z</time>
      </trkpt>
      <trkpt lat="45.96724" lon="4.70874">
        <ele>288</ele>
        <time>2017-04-27T10:03:31Z</time>
      </trkpt>
      <trkpt lat="45.96733" lon="4.7088">
        <ele>288</ele>
        <time>2017-04-27T10:03:32Z</time>
      </trkpt>
      <trkpt lat="45.96742" lon="4.70886">
        <ele>287</ele>
        <time>2017-04-27T10:03:33Z</time>
      </trkpt>
      <trkpt lat="45.96751" lon="4.70892">
        <ele>288</ele>
        <time>2017-04-27T10:03:34Z</time>
      </trkpt>
      <trkpt lat="45.96759" lon="4.70898">
        <ele>287</ele>
        <time>2017-04-27T10:03:35Z</time>
      </trkpt>
      <trkpt lat="45.96768" lon="4.70903">
        <ele>287</ele>
        <time>2017-04-27T10:03:36Z</time>
      </trkpt>
      <trkpt lat="45.96776" lon="4.70909">
        <ele>287</ele>
        <time>2017-04-27T10:03:37Z</time>
      </trkpt>
      <trkpt lat="45.96784" lon="4.70914">
        <ele>288</ele>
        <time>2017-04-27T10:03:38Z</time>
      </trkpt>
      <trkpt lat="45.96793" lon="4.70919">
        <ele>280</ele>
        <time>2017-04-27T10:03:39Z</time>
      </trkpt>
      <trkpt lat="45.96801" lon="4.70924">
        <ele>280</ele>
        <time>2017-04-27T10:03:40Z</time>
      </trkpt>
      <trkpt lat="45.96809" lon="4.70929">
        <ele>280</ele>
        <time>2017-04-27T10:03:41Z</time>
      </trkpt>
      <trkpt lat="45.96818" lon="4.70934">
        <ele>281</ele>
        <time>2017-04-27T10:03:42Z</time>
      </trkpt>
      <trkpt lat="45.96826" lon="4.70939">
        <ele>281</ele>
        <time>2017-04-27T10:03:43Z</time>
      </trkpt>
      <trkpt lat="45.96835" lon="4.70944">
        <ele>281</ele>
        <time>2017-04-27T10:03:44Z</time>
      </trkpt>
      <trkpt lat="45.96843" lon="4.7095">
        <ele>280</ele>
        <time>2017-04-27T10:03:45Z</time>
      </trkpt>
      <trkpt lat="45.96851" lon="4.70956">
        <ele>279</ele>
        <time>2017-04-27T10:03:46Z</time>
      </trkpt>
      <trkpt lat="45.96859" lon="4.70962">
        <ele>279</ele>
        <time>2017-04-27T10:03:47Z</time>
      </trkpt>
      <trkpt lat="45.96868" lon="4.70966">
        <ele>279</ele>
        <time>2017-04-27T10:03:48Z</time>
      </trkpt>
      <trkpt lat="45.96877" lon="4.70971">
        <ele>278</ele>
        <time>2017-04-27T10:03:49Z</time>
      </trkpt>
      <trkpt lat="45.96886" lon="4.70974">
        <ele>278</ele>
        <time>2017-04-27T10:03:50Z</time>
      </trkpt>
      <trkpt lat="45.96895" lon="4.70977">
        <ele>278</ele>
        <time>2017-04-27T10:03:51Z</time>
      </trkpt>
      <trkpt lat="45.96904" lon="4.7098">
        <ele>277</ele>
        <time>2017-04-27T10:03:52Z</time>
      </trkpt>
      <trkpt lat="45.96913" lon="4.70982">
        <ele>276</ele>
        <time>2017-04-27T10:03:53Z</time>
      </trkpt>
      <trkpt lat="45.96922" lon="4.70985">
        <ele>275</ele>
        <time>2017-04-27T10:03:54Z</time>
      </trkpt>
      <trkpt lat="45.96932" lon="4.70987">
        <ele>275</ele>
        <time>2017-04-27T10:03:55Z</time>
      </trkpt>
      <trkpt lat="45.96941" lon="4.70989">
        <ele>275</ele>
        <time>2017-04-27T10:03:56Z</time>
      </trkpt>
      <trkpt lat="45.96951" lon="4.70991">
        <ele>275</ele>
        <time>2017-04-27T10:03:57Z</time>
      </trkpt>
      <trkpt lat="45.96961" lon="4.70993">
        <ele>274</ele>
        <time>2017-04-27T10:03:58Z</time>
      </trkpt>
      <trkpt lat="45.9697" lon="4.70994">
        <ele>273</ele>
        <time>2017-04-27T10:03:59Z</time>
      </trkpt>
      <trkpt lat="45.9698" lon="4.70995">
        <ele>272</ele>
        <time>2017-04-27T10:04:00Z</time>
      </trkpt>
      <trkpt lat="45.9699" lon="4.70995">
        <ele>271</ele>
        <time>2017-04-27T10:04:01Z</time>
      </trkpt>
      <trkpt lat="45.97" lon="4.70995">
        <ele>270</ele>
        <time>2017-04-27T10:04:02Z</time>
      </trkpt>
      <trkpt lat="45.9701" lon="4.70994">
        <ele>269</ele>
        <time>2017-04-27T10:04:03Z</time>
      </trkpt>
      <trkpt lat="45.9702" lon="4.70994">
        <ele>269</ele>
        <time>2017-04-27T10:04:04Z</time>
      </trkpt>
      <trkpt lat="45.9703" lon="4.70993">
        <ele>269</ele>
        <time>2017-04-27T10:04:05Z</time>
      </trkpt>
      <trkpt lat="45.97041" lon="4.70992">
        <ele>269</ele>
        <time>2017-04-27T10:04:06Z</time>
      </trkpt>
      <trkpt lat="45.97051" lon="4.70991">
        <ele>269</ele>
        <time>2017-04-27T10:04:07Z</time>
      </trkpt>
      <trkpt lat="45.97061" lon="4.70989">
        <ele>268</ele>
        <time>2017-04-27T10:04:08Z</time>
      </trkpt>
      <trkpt lat="45.97071" lon="4.70987">
        <ele>267</ele>
        <time>2017-04-27T10:04:09Z</time>
      </trkpt>
      <trkpt lat="45.97081" lon="4.70984">
        <ele>267</ele>
        <time>2017-04-27T10:04:10Z</time>
      </trkpt>
      <trkpt lat="45.97092" lon="4.70981">
        <ele>264</ele>
        <time>2017-04-27T10:04:11Z</time>
      </trkpt>
      <trkpt lat="45.97102" lon="4.70977">
        <ele>264</ele>
        <time>2017-04-27T10:04:12Z</time>
      </trkpt>
      <trkpt lat="45.97112" lon="4.70973">
        <ele>264</ele>
        <time>2017-04-27T10:04:13Z</time>
      </trkpt>
      <trkpt lat="45.97122" lon="4.70969">
        <ele>264</ele>
        <time>2017-04-27T10:04:14Z</time>
      </trkpt>
      <trkpt lat="45.97132" lon="4.70965">
        <ele>263</ele>
        <time>2017-04-27T10:04:15Z</time>
      </trkpt>
      <trkpt lat="45.97142" lon="4.7096">
        <ele>263</ele>
        <time>2017-04-27T10:04:16Z</time>
      </trkpt>
      <trkpt lat="45.97152" lon="4.70955">
        <ele>263</ele>
        <time>2017-04-27T10:04:17Z</time>
      </trkpt>
      <trkpt lat="45.97161" lon="4.70951">
        <ele>263</ele>
        <time>2017-04-27T10:04:18Z</time>
      </trkpt>
      <trkpt lat="45.97169" lon="4.70947">
        <ele>258</ele>
        <time>2017-04-27T10:04:19Z</time>
      </trkpt>
      <trkpt lat="45.97177" lon="4.70942">
        <ele>258</ele>
        <time>2017-04-27T10:04:20Z</time>
      </trkpt>
      <trkpt lat="45.97185" lon="4.70937">
        <ele>258</ele>
        <time>2017-04-27T10:04:21Z</time>
      </trkpt>
      <trkpt lat="45.97193" lon="4.70932">
        <ele>257</ele>
        <time>2017-04-27T10:04:22Z</time>
      </trkpt>
      <trkpt lat="45.97201" lon="4.70926">
        <ele>257</ele>
        <time>2017-04-27T10:04:23Z</time>
      </trkpt>
      <trkpt lat="45.97209" lon="4.70919">
        <ele>256</ele>
        <time>2017-04-27T10:04:24Z</time>
      </trkpt>
      <trkpt lat="45.97216" lon="4.70911">
        <ele>259</ele>
        <time>2017-04-27T10:04:25Z</time>
      </trkpt>
      <trkpt lat="45.97223" lon="4.70903">
        <ele>259</ele>
        <time>2017-04-27T10:04:26Z</time>
      </trkpt>
      <trkpt lat="45.97231" lon="4.70895">
        <ele>259</ele>
        <time>2017-04-27T10:04:27Z</time>
      </trkpt>
      <trkpt lat="45.97238" lon="4.70885">
        <ele>259</ele>
        <time>2017-04-27T10:04:28Z</time>
      </trkpt>
      <trkpt lat="45.97245" lon="4.70875">
        <ele>259</ele>
        <time>2017-04-27T10:04:29Z</time>
      </trkpt>
      <trkpt lat="45.97252" lon="4.70865">
        <ele>253</ele>
        <time>2017-04-27T10:04:30Z</time>
      </trkpt>
      <trkpt lat="45.97259" lon="4.70855">
        <ele>253</ele>
        <time>2017-04-27T10:04:31Z</time>
      </trkpt>
      <trkpt lat="45.97266" lon="4.70844">
        <ele>254</ele>
        <time>2017-04-27T10:04:32Z</time>
      </trkpt>
      <trkpt lat="45.97273" lon="4.70834">
        <ele>253</ele>
        <time>2017-04-27T10:04:33Z</time>
      </trkpt>
      <trkpt lat="45.9728" lon="4.70824">
        <ele>254</ele>
        <time>2017-04-27T10:04:34Z</time>
      </trkpt>
      <trkpt lat="45.97287" lon="4.70815">
        <ele>254</ele>
        <time>2017-04-27T10:04:35Z</time>
      </trkpt>
      <trkpt lat="45.97294" lon="4.70807">
        <ele>253</ele>
        <time>2017-04-27T10:04:36Z</time>
      </trkpt>
      <trkpt lat="45.97301" lon="4.708">
        <ele>253</ele>
        <time>2017-04-27T10:04:37Z</time>
      </trkpt>
      <trkpt lat="45.97307" lon="4.70793">
        <ele>253</ele>
        <time>2017-04-27T10:04:38Z</time>
      </trkpt>
      <trkpt lat="45.97313" lon="4.70787">
        <ele>252</ele>
        <time>2017-04-27T10:04:39Z</time>
      </trkpt>
      <trkpt lat="45.9732" lon="4.70781">
        <ele>252</ele>
        <time>2017-04-27T10:04:40Z</time>
      </trkpt>
      <trkpt lat="45.97328" lon="4.70776">
        <ele>252</ele>
        <time>2017-04-27T10:04:41Z</time>
      </trkpt>
      <trkpt lat="45.97337" lon="4.70772">
        <ele>246</ele>
        <time>2017-04-27T10:04:42Z</time>
      </trkpt>
      <trkpt lat="45.97345" lon="4.70768">
        <ele>246</ele>
        <time>2017-04-27T10:04:43Z</time>
      </trkpt>
      <trkpt lat="45.97354" lon="4.70764">
        <ele>245</ele>
        <time>2017-04-27T10:04:44Z</time>
      </trkpt>
      <trkpt lat="45.97363" lon="4.7076">
        <ele>245</ele>
        <time>2017-04-27T10:04:45Z</time>
      </trkpt>
      <trkpt lat="45.97371" lon="4.70755">
        <ele>244</ele>
        <time>2017-04-27T10:04:46Z</time>
      </trkpt>
      <trkpt lat="45.9738" lon="4.70752">
        <ele>243</ele>
        <time>2017-04-27T10:04:47Z</time>
      </trkpt>
      <trkpt lat="45.97389" lon="4.7075">
        <ele>243</ele>
        <time>2017-04-27T10:04:48Z</time>
      </trkpt>
      <trkpt lat="45.97397" lon="4.70749">
        <ele>242</ele>
        <time>2017-04-27T10:04:49Z</time>
      </trkpt>
      <trkpt lat="45.97406" lon="4.7075">
        <ele>241</ele>
        <time>2017-04-27T10:04:50Z</time>
      </trkpt>
      <trkpt lat="45.97415" lon="4.70751">
        <ele>240</ele>
        <time>2017-04-27T10:04:51Z</time>
      </trkpt>
      <trkpt lat="45.97423" lon="4.70752">
        <ele>239</ele>
        <time>2017-04-27T10:04:52Z</time>
      </trkpt>
      <trkpt lat="45.97432" lon="4.70753">
        <ele>239</ele>
        <time>2017-04-27T10:04:53Z</time>
      </trkpt>
      <trkpt lat="45.97441" lon="4.70754">
        <ele>238</ele>
        <time>2017-04-27T10:04:54Z</time>
      </trkpt>
      <trkpt lat="45.97449" lon="4.70754">
        <ele>238</ele>
        <time>2017-04-27T10:04:55Z</time>
      </trkpt>
      <trkpt lat="45.97458" lon="4.70754">
        <ele>237</ele>
        <time>2017-04-27T10:04:56Z</time>
      </trkpt>
      <trkpt lat="45.97467" lon="4.70752">
        <ele>237</ele>
        <time>2017-04-27T10:04:57Z</time>
      </trkpt>
      <trkpt lat="45.97476" lon="4.7075">
        <ele>237</ele>
        <time>2017-04-27T10:04:58Z</time>
      </trkpt>
      <trkpt lat="45.97484" lon="4.70749">
        <ele>237</ele>
        <time>2017-04-27T10:04:59Z</time>
      </trkpt>
      <trkpt lat="45.97491" lon="4.70747">
        <ele>237</ele>
        <time>2017-04-27T10:05:00Z</time>
      </trkpt>
      <trkpt lat="45.97499" lon="4.70745">
        <ele>236</ele>
        <time>2017-04-27T10:05:01Z</time>
      </trkpt>
      <trkpt lat="45.97506" lon="4.70742">
        <ele>235</ele>
        <time>2017-04-27T10:05:02Z</time>
      </trkpt>
      <trkpt lat="45.97513" lon="4.7074">
        <ele>235</ele>
        <time>2017-04-27T10:05:03Z</time>
      </trkpt>
      <trkpt lat="45.9752" lon="4.70738">
        <ele>234</ele>
        <time>2017-04-27T10:05:04Z</time>
      </trkpt>
      <trkpt lat="45.97527" lon="4.70737">
        <ele>234</ele>
        <time>2017-04-27T10:05:05Z</time>
      </trkpt>
      <trkpt lat="45.97535" lon="4.70735">
        <ele>234</ele>
        <time>2017-04-27T10:05:06Z</time>
      </trkpt>
      <trkpt lat="45.97542" lon="4.70734">
        <ele>233</ele>
        <time>2017-04-27T10:05:07Z</time>
      </trkpt>
      <trkpt lat="45.9755" lon="4.70733">
        <ele>233</ele>
        <time>2017-04-27T10:05:08Z</time>
      </trkpt>
      <trkpt lat="45.97559" lon="4.70732">
        <ele>233</ele>
        <time>2017-04-27T10:05:09Z</time>
      </trkpt>
      <trkpt lat="45.97566" lon="4.7073">
        <ele>233</ele>
        <time>2017-04-27T10:05:10Z</time>
      </trkpt>
      <trkpt lat="45.97573" lon="4.70728">
        <ele>232</ele>
        <time>2017-04-27T10:05:11Z</time>
      </trkpt>
      <trkpt lat="45.9758" lon="4.70727">
        <ele>232</ele>
        <time>2017-04-27T10:05:12Z</time>
      </trkpt>
      <trkpt lat="45.97586" lon="4.70727">
        <ele>229</ele>
        <time>2017-04-27T10:05:13Z</time>
      </trkpt>
      <trkpt lat="45.97593" lon="4.70728">
        <ele>229</ele>
        <time>2017-04-27T10:05:14Z</time>
      </trkpt>
      <trkpt lat="45.976" lon="4.70729">
        <ele>229</ele>
        <time>2017-04-27T10:05:15Z</time>
      </trkpt>
      <trkpt lat="45.97608" lon="4.70731">
        <ele>229</ele>
        <time>2017-04-27T10:05:16Z</time>
      </trkpt>
      <trkpt lat="45.97616" lon="4.70734">
        <ele>228</ele>
        <time>2017-04-27T10:05:17Z</time>
      </trkpt>
      <trkpt lat="45.97624" lon="4.70737">
        <ele>228</ele>
        <time>2017-04-27T10:05:18Z</time>
      </trkpt>
      <trkpt lat="45.97631" lon="4.70741">
        <ele>227</ele>
        <time>2017-04-27T10:05:19Z</time>
      </trkpt>
      <trkpt lat="45.97639" lon="4.70744">
        <ele>227</ele>
        <time>2017-04-27T10:05:20Z</time>
      </trkpt>
      <trkpt lat="45.97647" lon="4.70747">
        <ele>226</ele>
        <time>2017-04-27T10:05:21Z</time>
      </trkpt>
      <trkpt lat="45.97655" lon="4.7075">
        <ele>225</ele>
        <time>2017-04-27T10:05:22Z</time>
      </trkpt>
      <trkpt lat="45.97663" lon="4.70753">
        <ele>225</ele>
        <time>2017-04-27T10:05:23Z</time>
      </trkpt>
      <trkpt lat="45.9767" lon="4.70756">
        <ele>224</ele>
        <time>2017-04-27T10:05:24Z</time>
      </trkpt>
      <trkpt lat="45.97678" lon="4.7076">
        <ele>223</ele>
        <time>2017-04-27T10:05:25Z</time>
      </trkpt>
      <trkpt lat="45.97685" lon="4.70763">
        <ele>223</ele>
        <time>2017-04-27T10:05:26Z</time>
      </trkpt>
      <trkpt lat="45.97692" lon="4.70766">
        <ele>223</ele>
        <time>2017-04-27T10:05:27Z</time>
      </trkpt>
      <trkpt lat="45.97699" lon="4.70769">
        <ele>223</ele>
        <time>2017-04-27T10:05:28Z</time>
      </trkpt>
      <trkpt lat="45.97706" lon="4.70771">
        <ele>223</ele>
        <time>2017-04-27T10:05:29Z</time>
      </trkpt>
      <trkpt lat="45.97713" lon="4.70774">
        <ele>223</ele>
        <time>2017-04-27T10:05:30Z</time>
      </trkpt>
      <trkpt lat="45.9772" lon="4.70777">
        <ele>222</ele>
        <time>2017-04-27T10:05:31Z</time>
      </trkpt>
      <trkpt lat="45.97727" lon="4.7078">
        <ele>222</ele>
        <time>2017-04-27T10:05:32Z</time>
      </trkpt>
      <trkpt lat="45.97734" lon="4.70782">
        <ele>222</ele>
        <time>2017-04-27T10:05:33Z</time>
      </trkpt>
      <trkpt lat="45.97741" lon="4.70785">
        <ele>222</ele>
        <time>2017-04-27T10:05:34Z</time>
      </trkpt>
      <trkpt lat="45.97748" lon="4.70786">
        <ele>222</ele>
        <time>2017-04-27T10:05:35Z</time>
      </trkpt>
      <trkpt lat="45.97755" lon="4.70788">
        <ele>221</ele>
        <time>2017-04-27T10:05:36Z</time>
      </trkpt>
      <trkpt lat="45.97761" lon="4.70789">
        <ele>221</ele>
        <time>2017-04-27T10:05:37Z</time>
      </trkpt>
      <trkpt lat="45.97768" lon="4.7079">
        <ele>221</ele>
        <time>2017-04-27T10:05:38Z</time>
      </trkpt>
      <trkpt lat="45.97775" lon="4.70793">
        <ele>221</ele>
        <time>2017-04-27T10:05:39Z</time>
      </trkpt>
      <trkpt lat="45.97781" lon="4.70797">
        <ele>221</ele>
        <time>2017-04-27T10:05:40Z</time>
      </trkpt>
      <trkpt lat="45.97787" lon="4.70802">
        <ele>221</ele>
        <time>2017-04-27T10:05:41Z</time>
      </trkpt>
      <trkpt lat="45.97792" lon="4.70808">
        <ele>221</ele>
        <time>2017-04-27T10:05:42Z</time>
      </trkpt>
      <trkpt lat="45.97797" lon="4.70814">
        <ele>221</ele>
        <time>2017-04-27T10:05:43Z</time>
      </trkpt>
      <trkpt lat="45.97801" lon="4.70822">
        <ele>221</ele>
        <time>2017-04-27T10:05:44Z</time>
      </trkpt>
      <trkpt lat="45.97804" lon="4.70829">
        <ele>221</ele>
        <time>2017-04-27T10:05:45Z</time>
      </trkpt>
      <trkpt lat="45.97807" lon="4.70838">
        <ele>220</ele>
        <time>2017-04-27T10:05:46Z</time>
      </trkpt>
      <trkpt lat="45.97809" lon="4.70847">
        <ele>220</ele>
        <time>2017-04-27T10:05:47Z</time>
      </trkpt>
      <trkpt lat="45.9781" lon="4.70856">
        <ele>220</ele>
        <time>2017-04-27T10:05:48Z</time>
      </trkpt>
      <trkpt lat="45.97811" lon="4.70866">
        <ele>220</ele>
        <time>2017-04-27T10:05:49Z</time>
      </trkpt>
      <trkpt lat="45.97813" lon="4.70876">
        <ele>220</ele>
        <time>2017-04-27T10:05:50Z</time>
      </trkpt>
      <trkpt lat="45.97814" lon="4.70887">
        <ele>220</ele>
        <time>2017-04-27T10:05:51Z</time>
      </trkpt>
      <trkpt lat="45.97815" lon="4.70897">
        <ele>220</ele>
        <time>2017-04-27T10:05:52Z</time>
      </trkpt>
      <trkpt lat="45.97815" lon="4.70908">
        <ele>220</ele>
        <time>2017-04-27T10:05:53Z</time>
      </trkpt>
      <trkpt lat="45.97815" lon="4.70918">
        <ele>219</ele>
        <time>2017-04-27T10:05:54Z</time>
      </trkpt>
      <trkpt lat="45.97815" lon="4.70929">
        <ele>219</ele>
        <time>2017-04-27T10:05:55Z</time>
      </trkpt>
      <trkpt lat="45.97817" lon="4.7094">
        <ele>218</ele>
        <time>2017-04-27T10:05:56Z</time>
      </trkpt>
      <trkpt lat="45.9782" lon="4.7095">
        <ele>218</ele>
        <time>2017-04-27T10:05:57Z</time>
      </trkpt>
      <trkpt lat="45.97824" lon="4.7096">
        <ele>218</ele>
        <time>2017-04-27T10:05:58Z</time>
      </trkpt>
      <trkpt lat="45.97826" lon="4.7097">
        <ele>218</ele>
        <time>2017-04-27T10:05:59Z</time>
      </trkpt>
      <trkpt lat="45.97828" lon="4.70982">
        <ele>217</ele>
        <time>2017-04-27T10:06:00Z</time>
      </trkpt>
      <trkpt lat="45.9783" lon="4.70993">
        <ele>217</ele>
        <time>2017-04-27T10:06:01Z</time>
      </trkpt>
      <trkpt lat="45.97831" lon="4.71005">
        <ele>216</ele>
        <time>2017-04-27T10:06:02Z</time>
      </trkpt>
      <trkpt lat="45.97833" lon="4.71017">
        <ele>216</ele>
        <time>2017-04-27T10:06:03Z</time>
      </trkpt>
      <trkpt lat="45.97834" lon="4.71028">
        <ele>216</ele>
        <time>2017-04-27T10:06:04Z</time>
      </trkpt>
      <trkpt lat="45.97835" lon="4.7104">
        <ele>215</ele>
        <time>2017-04-27T10:06:05Z</time>
      </trkpt>
      <trkpt lat="45.97836" lon="4.71052">
        <ele>215</ele>
        <time>2017-04-27T10:06:06Z</time>
      </trkpt>
      <trkpt lat="45.97838" lon="4.71064">
        <ele>215</ele>
        <time>2017-04-27T10:06:07Z</time>
      </trkpt>
      <trkpt lat="45.97839" lon="4.71076">
        <ele>215</ele>
        <time>2017-04-27T10:06:08Z</time>
      </trkpt>
      <trkpt lat="45.97841" lon="4.71087">
        <ele>214</ele>
        <time>2017-04-27T10:06:09Z</time>
      </trkpt>
      <trkpt lat="45.97842" lon="4.71097">
        <ele>213</ele>
        <time>2017-04-27T10:06:10Z</time>
      </trkpt>
      <trkpt lat="45.97843" lon="4.71107">
        <ele>213</ele>
        <time>2017-04-27T10:06:11Z</time>
      </trkpt>
      <trkpt lat="45.97844" lon="4.71116">
        <ele>213</ele>
        <time>2017-04-27T10:06:12Z</time>
      </trkpt>
      <trkpt lat="45.97845" lon="4.71125">
        <ele>213</ele>
        <time>2017-04-27T10:06:13Z</time>
      </trkpt>
      <trkpt lat="45.97845" lon="4.71133">
        <ele>212</ele>
        <time>2017-04-27T10:06:14Z</time>
      </trkpt>
      <trkpt lat="45.97845" lon="4.71142">
        <ele>212</ele>
        <time>2017-04-27T10:06:15Z</time>
      </trkpt>
      <trkpt lat="45.97846" lon="4.7115">
        <ele>212</ele>
        <time>2017-04-27T10:06:16Z</time>
      </trkpt>
      <trkpt lat="45.97846" lon="4.71158">
        <ele>212</ele>
        <time>2017-04-27T10:06:17Z</time>
      </trkpt>
      <trkpt lat="45.97846" lon="4.71166">
        <ele>211</ele>
        <time>2017-04-27T10:06:18Z</time>
      </trkpt>
      <trkpt lat="45.97846" lon="4.71175">
        <ele>210</ele>
        <time>2017-04-27T10:06:19Z</time>
      </trkpt>
      <trkpt lat="45.97847" lon="4.71183">
        <ele>209</ele>
        <time>2017-04-27T10:06:20Z</time>
      </trkpt>
      <trkpt lat="45.97847" lon="4.71192">
        <ele>209</ele>
        <time>2017-04-27T10:06:21Z</time>
      </trkpt>
      <trkpt lat="45.97848" lon="4.71201">
        <ele>209</ele>
        <time>2017-04-27T10:06:22Z</time>
      </trkpt>
      <trkpt lat="45.97849" lon="4.71211">
        <ele>209</ele>
        <time>2017-04-27T10:06:23Z</time>
      </trkpt>
      <trkpt lat="45.97849" lon="4.7122">
        <ele>208</ele>
        <time>2017-04-27T10:06:24Z</time>
      </trkpt>
      <trkpt lat="45.97849" lon="4.7123">
        <ele>208</ele>
        <time>2017-04-27T10:06:25Z</time>
      </trkpt>
      <trkpt lat="45.97848" lon="4.7124">
        <ele>208</ele>
        <time>2017-04-27T10:06:26Z</time>
      </trkpt>
      <trkpt lat="45.97848" lon="4.7125">
        <ele>207</ele>
        <time>2017-04-27T10:06:27Z</time>
      </trkpt>
      <trkpt lat="45.97849" lon="4.7126">
        <ele>207</ele>
        <time>2017-04-27T10:06:28Z</time>
      </trkpt>
      <trkpt lat="45.97848" lon="4.71271">
        <ele>206</ele>
        <time>2017-04-27T10:06:29Z</time>
      </trkpt>
      <trkpt lat="45.97849" lon="4.71282">
        <ele>206</ele>
        <time>2017-04-27T10:06:30Z</time>
      </trkpt>
      <trkpt lat="45.97848" lon="4.71293">
        <ele>206</ele>
        <time>2017-04-27T10:06:31Z</time>
      </trkpt>
      <trkpt lat="45.97848" lon="4.71304">
        <ele>206</ele>
        <time>2017-04-27T10:06:32Z</time>
      </trkpt>
      <trkpt lat="45.97848" lon="4.71315">
        <ele>205</ele>
        <time>2017-04-27T10:06:33Z</time>
      </trkpt>
      <trkpt lat="45.97848" lon="4.71326">
        <ele>205</ele>
        <time>2017-04-27T10:06:34Z</time>
      </trkpt>
      <trkpt lat="45.97848" lon="4.71337">
        <ele>204</ele>
        <time>2017-04-27T10:06:35Z</time>
      </trkpt>
      <trkpt lat="45.97848" lon="4.71348">
        <ele>204</ele>
        <time>2017-04-27T10:06:36Z</time>
      </trkpt>
      <trkpt lat="45.97847" lon="4.71359">
        <ele>204</ele>
        <time>2017-04-27T10:06:37Z</time>
      </trkpt>
      <trkpt lat="45.97847" lon="4.71371">
        <ele>203</ele>
        <time>2017-04-27T10:06:38Z</time>
      </trkpt>
      <trkpt lat="45.97848" lon="4.71381">
        <ele>203</ele>
        <time>2017-04-27T10:06:39Z</time>
      </trkpt>
      <trkpt lat="45.97848" lon="4.71392">
        <ele>203</ele>
        <time>2017-04-27T10:06:40Z</time>
      </trkpt>
      <trkpt lat="45.97849" lon="4.71402">
        <ele>203</ele>
        <time>2017-04-27T10:06:41Z</time>
      </trkpt>
      <trkpt lat="45.9785" lon="4.71412">
        <ele>203</ele>
        <time>2017-04-27T10:06:42Z</time>
      </trkpt>
      <trkpt lat="45.97851" lon="4.71422">
        <ele>202</ele>
        <time>2017-04-27T10:06:43Z</time>
      </trkpt>
      <trkpt lat="45.97853" lon="4.71432">
        <ele>201</ele>
        <time>2017-04-27T10:06:44Z</time>
      </trkpt>
      <trkpt lat="45.97855" lon="4.71443">
        <ele>201</ele>
        <time>2017-04-27T10:06:45Z</time>
      </trkpt>
      <trkpt lat="45.97857" lon="4.71453">
        <ele>201</ele>
        <time>2017-04-27T10:06:46Z</time>
      </trkpt>
      <trkpt lat="45.97859" lon="4.71463">
        <ele>201</ele>
        <time>2017-04-27T10:06:47Z</time>
      </trkpt>
      <trkpt lat="45.97861" lon="4.71473">
        <ele>201</ele>
        <time>2017-04-27T10:06:48Z</time>
      </trkpt>
      <trkpt lat="45.97863" lon="4.71484">
        <ele>201</ele>
        <time>2017-04-27T10:06:49Z</time>
      </trkpt>
      <trkpt lat="45.97865" lon="4.71494">
        <ele>201</ele>
        <time>2017-04-27T10:06:50Z</time>
      </trkpt>
      <trkpt lat="45.97866" lon="4.71504">
        <ele>200</ele>
        <time>2017-04-27T10:06:51Z</time>
      </trkpt>
      <trkpt lat="45.97868" lon="4.71514">
        <ele>199</ele>
        <time>2017-04-27T10:06:52Z</time>
      </trkpt>
      <trkpt lat="45.9787" lon="4.71524">
        <ele>199</ele>
        <time>2017-04-27T10:06:53Z</time>
      </trkpt>
      <trkpt lat="45.97871" lon="4.71534">
        <ele>199</ele>
        <time>2017-04-27T10:06:54Z</time>
      </trkpt>
      <trkpt lat="45.97873" lon="4.71544">
        <ele>199</ele>
        <time>2017-04-27T10:06:55Z</time>
      </trkpt>
      <trkpt lat="45.97875" lon="4.71555">
        <ele>199</ele>
        <time>2017-04-27T10:06:56Z</time>
      </trkpt>
      <trkpt lat="45.97876" lon="4.71565">
        <ele>198</ele>
        <time>2017-04-27T10:06:57Z</time>
      </trkpt>
      <trkpt lat="45.97877" lon="4.71574">
        <ele>198</ele>
        <time>2017-04-27T10:06:58Z</time>
      </trkpt>
      <trkpt lat="45.97877" lon="4.71584">
        <ele>197</ele>
        <time>2017-04-27T10:06:59Z</time>
      </trkpt>
      <trkpt lat="45.97878" lon="4.71594">
        <ele>197</ele>
        <time>2017-04-27T10:07:00Z</time>
      </trkpt>
      <trkpt lat="45.97878" lon="4.71604">
        <ele>197</ele>
        <time>2017-04-27T10:07:01Z</time>
      </trkpt>
      <trkpt lat="45.97878" lon="4.71613">
        <ele>197</ele>
        <time>2017-04-27T10:07:02Z</time>
      </trkpt>
      <trkpt lat="45.97878" lon="4.71623">
        <ele>197</ele>
        <time>2017-04-27T10:07:03Z</time>
      </trkpt>
      <trkpt lat="45.97878" lon="4.71632">
        <ele>197</ele>
        <time>2017-04-27T10:07:04Z</time>
      </trkpt>
      <trkpt lat="45.97878" lon="4.71641">
        <ele>197</ele>
        <time>2017-04-27T10:07:05Z</time>
      </trkpt>
      <trkpt lat="45.97877" lon="4.7165">
        <ele>197</ele>
        <time>2017-04-27T10:07:06Z</time>
      </trkpt>
      <trkpt lat="45.97876" lon="4.71659">
        <ele>197</ele>
        <time>2017-04-27T10:07:07Z</time>
      </trkpt>
      <trkpt lat="45.97874" lon="4.71668">
        <ele>196</ele>
        <time>2017-04-27T10:07:08Z</time>
      </trkpt>
      <trkpt lat="45.97872" lon="4.71677">
        <ele>196</ele>
        <time>2017-04-27T10:07:09Z</time>
      </trkpt>
      <trkpt lat="45.9787" lon="4.71686">
        <ele>196</ele>
        <time>2017-04-27T10:07:10Z</time>
      </trkpt>
      <trkpt lat="45.97868" lon="4.71695">
        <ele>196</ele>
        <time>2017-04-27T10:07:11Z</time>
      </trkpt>
      <trkpt lat="45.97867" lon="4.71703">
        <ele>196</ele>
        <time>2017-04-27T10:07:12Z</time>
      </trkpt>
      <trkpt lat="45.97866" lon="4.7171">
        <ele>196</ele>
        <time>2017-04-27T10:07:13Z</time>
      </trkpt>
      <trkpt lat="45.97863" lon="4.71715">
        <ele>196</ele>
        <time>2017-04-27T10:07:14Z</time>
      </trkpt>
      <trkpt lat="45.9786" lon="4.71721">
        <ele>196</ele>
        <time>2017-04-27T10:07:15Z</time>
      </trkpt>
      <trkpt lat="45.97856" lon="4.71726">
        <ele>196</ele>
        <time>2017-04-27T10:07:16Z</time>
      </trkpt>
      <trkpt lat="45.97853" lon="4.71732">
        <ele>196</ele>
        <time>2017-04-27T10:07:17Z</time>
      </trkpt>
      <trkpt lat="45.97849" lon="4.71738">
        <ele>196</ele>
        <time>2017-04-27T10:07:18Z</time>
      </trkpt>
      <trkpt lat="45.97845" lon="4.71743">
        <ele>195</ele>
        <time>2017-04-27T10:07:19Z</time>
      </trkpt>
      <trkpt lat="45.9784" lon="4.71747">
        <ele>195</ele>
        <time>2017-04-27T10:07:20Z</time>
      </trkpt>
      <trkpt lat="45.97835" lon="4.71748">
        <ele>195</ele>
        <time>2017-04-27T10:07:21Z</time>
      </trkpt>
      <trkpt lat="45.97829" lon="4.71747">
        <ele>195</ele>
        <time>2017-04-27T10:07:22Z</time>
      </trkpt>
      <trkpt lat="45.97823" lon="4.71747">
        <ele>196</ele>
        <time>2017-04-27T10:07:23Z</time>
      </trkpt>
      <trkpt lat="45.97817" lon="4.71746">
        <ele>196</ele>
        <time>2017-04-27T10:07:24Z</time>
      </trkpt>
      <trkpt lat="45.97812" lon="4.71745">
        <ele>196</ele>
        <time>2017-04-27T10:07:25Z</time>
      </trkpt>
      <trkpt lat="45.97806" lon="4.71744">
        <ele>196</ele>
        <time>2017-04-27T10:07:26Z</time>
      </trkpt>
      <trkpt lat="45.97801" lon="4.71743">
        <ele>196</ele>
        <time>2017-04-27T10:07:27Z</time>
      </trkpt>
      <trkpt lat="45.97795" lon="4.71742">
        <ele>196</ele>
        <time>2017-04-27T10:07:28Z</time>
      </trkpt>
      <trkpt lat="45.97789" lon="4.71742">
        <ele>196</ele>
        <time>2017-04-27T10:07:29Z</time>
      </trkpt>
      <trkpt lat="45.97783" lon="4.71741">
        <ele>196</ele>
        <time>2017-04-27T10:07:30Z</time>
      </trkpt>
      <trkpt lat="45.97777" lon="4.71739">
        <ele>196</ele>
        <time>2017-04-27T10:07:31Z</time>
      </trkpt>
      <trkpt lat="45.97771" lon="4.71738">
        <ele>196</ele>
        <time>2017-04-27T10:07:32Z</time>
      </trkpt>
      <trkpt lat="45.97766" lon="4.71738">
        <ele>196</ele>
        <time>2017-04-27T10:07:33Z</time>
      </trkpt>
      <trkpt lat="45.9776" lon="4.71737">
        <ele>196</ele>
        <time>2017-04-27T10:07:34Z</time>
      </trkpt>
      <trkpt lat="45.97753" lon="4.71737">
        <ele>196</ele>
        <time>2017-04-27T10:07:35Z</time>
      </trkpt>
      <trkpt lat="45.97747" lon="4.71736">
        <ele>196</ele>
        <time>2017-04-27T10:07:36Z</time>
      </trkpt>
      <trkpt lat="45.9774" lon="4.71735">
        <ele>196</ele>
        <time>2017-04-27T10:07:37Z</time>
      </trkpt>
      <trkpt lat="45.97734" lon="4.71735">
        <ele>196</ele>
        <time>2017-04-27T10:07:38Z</time>
      </trkpt>
      <trkpt lat="45.97728" lon="4.71734">
        <ele>196</ele>
        <time>2017-04-27T10:07:39Z</time>
      </trkpt>
      <trkpt lat="45.97721" lon="4.71733">
        <ele>196</ele>
        <time>2017-04-27T10:07:40Z</time>
      </trkpt>
      <trkpt lat="45.97715" lon="4.71733">
        <ele>196</ele>
        <time>2017-04-27T10:07:41Z</time>
      </trkpt>
      <trkpt lat="45.97709" lon="4.71732">
        <ele>196</ele>
        <time>2017-04-27T10:07:42Z</time>
      </trkpt>
      <trkpt lat="45.97703" lon="4.71732">
        <ele>196</ele>
        <time>2017-04-27T10:07:43Z</time>
      </trkpt>
      <trkpt lat="45.97697" lon="4.71732">
        <ele>196</ele>
        <time>2017-04-27T10:07:44Z</time>
      </trkpt>
      <trkpt lat="45.97692" lon="4.71732">
        <ele>196</ele>
        <time>2017-04-27T10:07:45Z</time>
      </trkpt>
      <trkpt lat="45.97687" lon="4.71732">
        <ele>196</ele>
        <time>2017-04-27T10:07:46Z</time>
      </trkpt>
      <trkpt lat="45.97681" lon="4.71731">
        <ele>196</ele>
        <time>2017-04-27T10:07:47Z</time>
      </trkpt>
      <trkpt lat="45.97676" lon="4.7173">
        <ele>196</ele>
        <time>2017-04-27T10:07:48Z</time>
      </trkpt>
      <trkpt lat="45.97671" lon="4.71729">
        <ele>196</ele>
        <time>2017-04-27T10:07:49Z</time>
      </trkpt>
      <trkpt lat="45.97666" lon="4.71729">
        <ele>196</ele>
        <time>2017-04-27T10:07:50Z</time>
      </trkpt>
      <trkpt lat="45.97661" lon="4.71729">
        <ele>196</ele>
        <time>2017-04-27T10:07:51Z</time>
      </trkpt>
      <trkpt lat="45.97656" lon="4.71728">
        <ele>196</ele>
        <time>2017-04-27T10:07:52Z</time>
      </trkpt>
      <trkpt lat="45.97648" lon="4.71726">
        <ele>196</ele>
        <time>2017-04-27T10:07:54Z</time>
      </trkpt>
      <trkpt lat="45.97643" lon="4.71726">
        <ele>196</ele>
        <time>2017-04-27T10:07:55Z</time>
      </trkpt>
      <trkpt lat="45.97636" lon="4.71725">
        <ele>196</ele>
        <time>2017-04-27T10:07:57Z</time>
      </trkpt>
      <trkpt lat="45.97632" lon="4.71722">
        <ele>197</ele>
        <time>2017-04-27T10:07:58Z</time>
      </trkpt>
      <trkpt lat="45.97629" lon="4.71718">
        <ele>197</ele>
        <time>2017-04-27T10:07:59Z</time>
      </trkpt>
      <trkpt lat="45.97624" lon="4.71715">
        <ele>197</ele>
        <time>2017-04-27T10:08:00Z</time>
      </trkpt>
      <trkpt lat="45.97619" lon="4.71713">
        <ele>197</ele>
        <time>2017-04-27T10:08:01Z</time>
      </trkpt>
      <trkpt lat="45.97614" lon="4.71713">
        <ele>197</ele>
        <time>2017-04-27T10:08:02Z</time>
      </trkpt>
      <trkpt lat="45.97609" lon="4.71714">
        <ele>197</ele>
        <time>2017-04-27T10:08:03Z</time>
      </trkpt>
      <trkpt lat="45.97603" lon="4.71717">
        <ele>197</ele>
        <time>2017-04-27T10:08:04Z</time>
      </trkpt>
      <trkpt lat="45.97598" lon="4.7172">
        <ele>197</ele>
        <time>2017-04-27T10:08:05Z</time>
      </trkpt>
      <trkpt lat="45.97593" lon="4.71722">
        <ele>197</ele>
        <time>2017-04-27T10:08:06Z</time>
      </trkpt>
      <trkpt lat="45.97587" lon="4.71724">
        <ele>197</ele>
        <time>2017-04-27T10:08:07Z</time>
      </trkpt>
      <trkpt lat="45.97581" lon="4.71724">
        <ele>197</ele>
        <time>2017-04-27T10:08:08Z</time>
      </trkpt>
      <trkpt lat="45.97575" lon="4.71723">
        <ele>197</ele>
        <time>2017-04-27T10:08:09Z</time>
      </trkpt>
      <trkpt lat="45.97569" lon="4.71723">
        <ele>198</ele>
        <time>2017-04-27T10:08:10Z</time>
      </trkpt>
      <trkpt lat="45.97563" lon="4.71723">
        <ele>198</ele>
        <time>2017-04-27T10:08:11Z</time>
      </trkpt>
      <trkpt lat="45.97557" lon="4.71723">
        <ele>198</ele>
        <time>2017-04-27T10:08:12Z</time>
      </trkpt>
      <trkpt lat="45.97551" lon="4.71723">
        <ele>198</ele>
        <time>2017-04-27T10:08:13Z</time>
      </trkpt>
      <trkpt lat="45.97545" lon="4.71723">
        <ele>198</ele>
        <time>2017-04-27T10:08:14Z</time>
      </trkpt>
      <trkpt lat="45.9754" lon="4.71722">
        <ele>198</ele>
        <time>2017-04-27T10:08:15Z</time>
      </trkpt>
      <trkpt lat="45.97534" lon="4.71722">
        <ele>198</ele>
        <time>2017-04-27T10:08:16Z</time>
      </trkpt>
      <trkpt lat="45.97529" lon="4.71721">
        <ele>198</ele>
        <time>2017-04-27T10:08:17Z</time>
      </trkpt>
      <trkpt lat="45.97524" lon="4.7172">
        <ele>198</ele>
        <time>2017-04-27T10:08:18Z</time>
      </trkpt>
      <trkpt lat="45.97518" lon="4.71719">
        <ele>198</ele>
        <time>2017-04-27T10:08:19Z</time>
      </trkpt>
      <trkpt lat="45.97513" lon="4.71718">
        <ele>198</ele>
        <time>2017-04-27T10:08:20Z</time>
      </trkpt>
      <trkpt lat="45.97507" lon="4.71719">
        <ele>198</ele>
        <time>2017-04-27T10:08:21Z</time>
      </trkpt>
      <trkpt lat="45.97501" lon="4.71719">
        <ele>198</ele>
        <time>2017-04-27T10:08:22Z</time>
      </trkpt>
      <trkpt lat="45.97496" lon="4.71718">
        <ele>198</ele>
        <time>2017-04-27T10:08:23Z</time>
      </trkpt>
      <trkpt lat="45.9749" lon="4.71717">
        <ele>198</ele>
        <time>2017-04-27T10:08:24Z</time>
      </trkpt>
      <trkpt lat="45.97485" lon="4.71717">
        <ele>197</ele>
        <time>2017-04-27T10:08:25Z</time>
      </trkpt>
      <trkpt lat="45.97479" lon="4.71717">
        <ele>197</ele>
        <time>2017-04-27T10:08:26Z</time>
      </trkpt>
      <trkpt lat="45.97472" lon="4.71717">
        <ele>197</ele>
        <time>2017-04-27T10:08:27Z</time>
      </trkpt>
      <trkpt lat="45.97464" lon="4.71716">
        <ele>197</ele>
        <time>2017-04-27T10:08:28Z</time>
      </trkpt>
      <trkpt lat="45.97457" lon="4.71715">
        <ele>197</ele>
        <time>2017-04-27T10:08:29Z</time>
      </trkpt>
      <trkpt lat="45.9745" lon="4.71714">
        <ele>197</ele>
        <time>2017-04-27T10:08:30Z</time>
      </trkpt>
      <trkpt lat="45.97444" lon="4.71713">
        <ele>197</ele>
        <time>2017-04-27T10:08:31Z</time>
      </trkpt>
      <trkpt lat="45.97437" lon="4.71712">
        <ele>197</ele>
        <time>2017-04-27T10:08:32Z</time>
      </trkpt>
      <trkpt lat="45.97431" lon="4.71712">
        <ele>196</ele>
        <time>2017-04-27T10:08:33Z</time>
      </trkpt>
      <trkpt lat="45.97424" lon="4.71711">
        <ele>196</ele>
        <time>2017-04-27T10:08:34Z</time>
      </trkpt>
      <trkpt lat="45.97417" lon="4.7171">
        <ele>196</ele>
        <time>2017-04-27T10:08:35Z</time>
      </trkpt>
      <trkpt lat="45.97411" lon="4.7171">
        <ele>195</ele>
        <time>2017-04-27T10:08:36Z</time>
      </trkpt>
      <trkpt lat="45.97405" lon="4.7171">
        <ele>195</ele>
        <time>2017-04-27T10:08:37Z</time>
      </trkpt>
      <trkpt lat="45.97399" lon="4.7171">
        <ele>195</ele>
        <time>2017-04-27T10:08:38Z</time>
      </trkpt>
      <trkpt lat="45.97392" lon="4.71709">
        <ele>195</ele>
        <time>2017-04-27T10:08:39Z</time>
      </trkpt>
      <trkpt lat="45.97385" lon="4.71708">
        <ele>195</ele>
        <time>2017-04-27T10:08:40Z</time>
      </trkpt>
      <trkpt lat="45.97378" lon="4.71708">
        <ele>195</ele>
        <time>2017-04-27T10:08:41Z</time>
      </trkpt>
      <trkpt lat="45.97372" lon="4.71708">
        <ele>195</ele>
        <time>2017-04-27T10:08:42Z</time>
      </trkpt>
      <trkpt lat="45.97366" lon="4.71708">
        <ele>195</ele>
        <time>2017-04-27T10:08:43Z</time>
      </trkpt>
      <trkpt lat="45.97359" lon="4.71708">
        <ele>195</ele>
        <time>2017-04-27T10:08:44Z</time>
      </trkpt>
      <trkpt lat="45.97352" lon="4.71707">
        <ele>195</ele>
        <time>2017-04-27T10:08:45Z</time>
      </trkpt>
      <trkpt lat="45.97346" lon="4.71707">
        <ele>195</ele>
        <time>2017-04-27T10:08:46Z</time>
      </trkpt>
      <trkpt lat="45.9734" lon="4.71705">
        <ele>195</ele>
        <time>2017-04-27T10:08:47Z</time>
      </trkpt>
      <trkpt lat="45.97334" lon="4.71704">
        <ele>195</ele>
        <time>2017-04-27T10:08:48Z</time>
      </trkpt>
      <trkpt lat="45.97326" lon="4.71704">
        <ele>196</ele>
        <time>2017-04-27T10:08:50Z</time>
      </trkpt>
      <trkpt lat="45.97324" lon="4.71703">
        <ele>196</ele>
        <time>2017-04-27T10:08:51Z</time>
      </trkpt>
      <trkpt lat="45.97318" lon="4.71697">
        <ele>196</ele>
        <time>2017-04-27T10:08:53Z</time>
      </trkpt>
      <trkpt lat="45.97315" lon="4.71693">
        <ele>196</ele>
        <time>2017-04-27T10:08:54Z</time>
      </trkpt>
      <trkpt lat="45.9731" lon="4.71691">
        <ele>196</ele>
        <time>2017-04-27T10:08:55Z</time>
      </trkpt>
      <trkpt lat="45.97305" lon="4.7169">
        <ele>196</ele>
        <time>2017-04-27T10:08:56Z</time>
      </trkpt>
      <trkpt lat="45.97299" lon="4.71691">
        <ele>197</ele>
        <time>2017-04-27T10:08:57Z</time>
      </trkpt>
      <trkpt lat="45.97293" lon="4.71694">
        <ele>197</ele>
        <time>2017-04-27T10:08:58Z</time>
      </trkpt>
      <trkpt lat="45.97288" lon="4.71698">
        <ele>197</ele>
        <time>2017-04-27T10:08:59Z</time>
      </trkpt>
      <trkpt lat="45.97281" lon="4.717">
        <ele>197</ele>
        <time>2017-04-27T10:09:00Z</time>
      </trkpt>
      <trkpt lat="45.97275" lon="4.71701">
        <ele>197</ele>
        <time>2017-04-27T10:09:01Z</time>
      </trkpt>
      <trkpt lat="45.97269" lon="4.71701">
        <ele>197</ele>
        <time>2017-04-27T10:09:02Z</time>
      </trkpt>
      <trkpt lat="45.97263" lon="4.717">
        <ele>197</ele>
        <time>2017-04-27T10:09:03Z</time>
      </trkpt>
      <trkpt lat="45.97257" lon="4.71699">
        <ele>197</ele>
        <time>2017-04-27T10:09:04Z</time>
      </trkpt>
      <trkpt lat="45.97251" lon="4.71697">
        <ele>197</ele>
        <time>2017-04-27T10:09:05Z</time>
      </trkpt>
      <trkpt lat="45.97245" lon="4.71697">
        <ele>197</ele>
        <time>2017-04-27T10:09:06Z</time>
      </trkpt>
      <trkpt lat="45.97239" lon="4.71696">
        <ele>197</ele>
        <time>2017-04-27T10:09:07Z</time>
      </trkpt>
      <trkpt lat="45.97233" lon="4.71695">
        <ele>197</ele>
        <time>2017-04-27T10:09:08Z</time>
      </trkpt>
      <trkpt lat="45.97227" lon="4.71695">
        <ele>197</ele>
        <time>2017-04-27T10:09:09Z</time>
      </trkpt>
      <trkpt lat="45.97221" lon="4.71694">
        <ele>197</ele>
        <time>2017-04-27T10:09:10Z</time>
      </trkpt>
      <trkpt lat="45.97215" lon="4.71694">
        <ele>197</ele>
        <time>2017-04-27T10:09:11Z</time>
      </trkpt>
      <trkpt lat="45.97209" lon="4.71694">
        <ele>197</ele>
        <time>2017-04-27T10:09:12Z</time>
      </trkpt>
      <trkpt lat="45.97203" lon="4.71693">
        <ele>197</ele>
        <time>2017-04-27T10:09:13Z</time>
      </trkpt>
      <trkpt lat="45.97196" lon="4.71693">
        <ele>197</ele>
        <time>2017-04-27T10:09:14Z</time>
      </trkpt>
      <trkpt lat="45.9719" lon="4.71693">
        <ele>197</ele>
        <time>2017-04-27T10:09:15Z</time>
      </trkpt>
      <trkpt lat="45.97184" lon="4.71692">
        <ele>197</ele>
        <time>2017-04-27T10:09:16Z</time>
      </trkpt>
      <trkpt lat="45.97178" lon="4.71691">
        <ele>197</ele>
        <time>2017-04-27T10:09:17Z</time>
      </trkpt>
      <trkpt lat="45.97172" lon="4.71692">
        <ele>197</ele>
        <time>2017-04-27T10:09:18Z</time>
      </trkpt>
      <trkpt lat="45.97166" lon="4.71691">
        <ele>196</ele>
        <time>2017-04-27T10:09:19Z</time>
      </trkpt>
      <trkpt lat="45.97159" lon="4.71692">
        <ele>195</ele>
        <time>2017-04-27T10:09:20Z</time>
      </trkpt>
      <trkpt lat="45.97153" lon="4.71692">
        <ele>195</ele>
        <time>2017-04-27T10:09:21Z</time>
      </trkpt>
      <trkpt lat="45.97146" lon="4.71691">
        <ele>195</ele>
        <time>2017-04-27T10:09:22Z</time>
      </trkpt>
      <trkpt lat="45.97139" lon="4.71691">
        <ele>195</ele>
        <time>2017-04-27T10:09:23Z</time>
      </trkpt>
      <trkpt lat="45.97131" lon="4.71689">
        <ele>195</ele>
        <time>2017-04-27T10:09:24Z</time>
      </trkpt>
      <trkpt lat="45.97124" lon="4.71688">
        <ele>195</ele>
        <time>2017-04-27T10:09:25Z</time>
      </trkpt>
      <trkpt lat="45.97117" lon="4.71687">
        <ele>194</ele>
        <time>2017-04-27T10:09:26Z</time>
      </trkpt>
      <trkpt lat="45.9711" lon="4.71686">
        <ele>194</ele>
        <time>2017-04-27T10:09:27Z</time>
      </trkpt>
      <trkpt lat="45.97104" lon="4.71686">
        <ele>194</ele>
        <time>2017-04-27T10:09:28Z</time>
      </trkpt>
      <trkpt lat="45.97096" lon="4.71685">
        <ele>194</ele>
        <time>2017-04-27T10:09:29Z</time>
      </trkpt>
      <trkpt lat="45.97089" lon="4.71685">
        <ele>194</ele>
        <time>2017-04-27T10:09:30Z</time>
      </trkpt>
      <trkpt lat="45.97082" lon="4.71683">
        <ele>194</ele>
        <time>2017-04-27T10:09:31Z</time>
      </trkpt>
      <trkpt lat="45.97074" lon="4.71682">
        <ele>193</ele>
        <time>2017-04-27T10:09:32Z</time>
      </trkpt>
      <trkpt lat="45.97066" lon="4.71681">
        <ele>193</ele>
        <time>2017-04-27T10:09:33Z</time>
      </trkpt>
      <trkpt lat="45.97059" lon="4.7168">
        <ele>193</ele>
        <time>2017-04-27T10:09:34Z</time>
      </trkpt>
      <trkpt lat="45.97051" lon="4.71679">
        <ele>193</ele>
        <time>2017-04-27T10:09:35Z</time>
      </trkpt>
      <trkpt lat="45.97044" lon="4.71677">
        <ele>193</ele>
        <time>2017-04-27T10:09:36Z</time>
      </trkpt>
      <trkpt lat="45.97037" lon="4.71677">
        <ele>193</ele>
        <time>2017-04-27T10:09:37Z</time>
      </trkpt>
      <trkpt lat="45.97029" lon="4.71676">
        <ele>193</ele>
        <time>2017-04-27T10:09:38Z</time>
      </trkpt>
      <trkpt lat="45.97022" lon="4.71675">
        <ele>193</ele>
        <time>2017-04-27T10:09:39Z</time>
      </trkpt>
      <trkpt lat="45.97014" lon="4.71675">
        <ele>193</ele>
        <time>2017-04-27T10:09:40Z</time>
      </trkpt>
      <trkpt lat="45.97007" lon="4.71674">
        <ele>193</ele>
        <time>2017-04-27T10:09:41Z</time>
      </trkpt>
      <trkpt lat="45.97" lon="4.71675">
        <ele>193</ele>
        <time>2017-04-27T10:09:42Z</time>
      </trkpt>
      <trkpt lat="45.96993" lon="4.71675">
        <ele>193</ele>
        <time>2017-04-27T10:09:43Z</time>
      </trkpt>
      <trkpt lat="45.96986" lon="4.71675">
        <ele>193</ele>
        <time>2017-04-27T10:09:44Z</time>
      </trkpt>
      <trkpt lat="45.96979" lon="4.71674">
        <ele>192</ele>
        <time>2017-04-27T10:09:45Z</time>
      </trkpt>
      <trkpt lat="45.96972" lon="4.71674">
        <ele>192</ele>
        <time>2017-04-27T10:09:46Z</time>
      </trkpt>
      <trkpt lat="45.96965" lon="4.71673">
        <ele>192</ele>
        <time>2017-04-27T10:09:47Z</time>
      </trkpt>
      <trkpt lat="45.96958" lon="4.71673">
        <ele>192</ele>
        <time>2017-04-27T10:09:48Z</time>
      </trkpt>
      <trkpt lat="45.96951" lon="4.71673">
        <ele>192</ele>
        <time>2017-04-27T10:09:49Z</time>
      </trkpt>
      <trkpt lat="45.96944" lon="4.71673">
        <ele>192</ele>
        <time>2017-04-27T10:09:50Z</time>
      </trkpt>
      <trkpt lat="45.96937" lon="4.71673">
        <ele>192</ele>
        <time>2017-04-27T10:09:51Z</time>
      </trkpt>
      <trkpt lat="45.9693" lon="4.71672">
        <ele>193</ele>
        <time>2017-04-27T10:09:52Z</time>
      </trkpt>
      <trkpt lat="45.96923" lon="4.71672">
        <ele>194</ele>
        <time>2017-04-27T10:09:53Z</time>
      </trkpt>
      <trkpt lat="45.96915" lon="4.71671">
        <ele>194</ele>
        <time>2017-04-27T10:09:54Z</time>
      </trkpt>
      <trkpt lat="45.96909" lon="4.71671">
        <ele>193</ele>
        <time>2017-04-27T10:09:55Z</time>
      </trkpt>
      <trkpt lat="45.96901" lon="4.7167">
        <ele>192</ele>
        <time>2017-04-27T10:09:56Z</time>
      </trkpt>
      <trkpt lat="45.96894" lon="4.71669">
        <ele>191</ele>
        <time>2017-04-27T10:09:57Z</time>
      </trkpt>
      <trkpt lat="45.96887" lon="4.71668">
        <ele>191</ele>
        <time>2017-04-27T10:09:58Z</time>
      </trkpt>
      <trkpt lat="45.96879" lon="4.71667">
        <ele>191</ele>
        <time>2017-04-27T10:09:59Z</time>
      </trkpt>
      <trkpt lat="45.96872" lon="4.71667">
        <ele>195</ele>
        <time>2017-04-27T10:10:00Z</time>
      </trkpt>
      <trkpt lat="45.96865" lon="4.71666">
        <ele>195</ele>
        <time>2017-04-27T10:10:01Z</time>
      </trkpt>
      <trkpt lat="45.96857" lon="4.71665">
        <ele>194</ele>
        <time>2017-04-27T10:10:02Z</time>
      </trkpt>
      <trkpt lat="45.9685" lon="4.71664">
        <ele>194</ele>
        <time>2017-04-27T10:10:03Z</time>
      </trkpt>
      <trkpt lat="45.96842" lon="4.71663">
        <ele>193</ele>
        <time>2017-04-27T10:10:04Z</time>
      </trkpt>
      <trkpt lat="45.96835" lon="4.71662">
        <ele>193</ele>
        <time>2017-04-27T10:10:05Z</time>
      </trkpt>
      <trkpt lat="45.96827" lon="4.71661">
        <ele>192</ele>
        <time>2017-04-27T10:10:06Z</time>
      </trkpt>
      <trkpt lat="45.9682" lon="4.7166">
        <ele>193</ele>
        <time>2017-04-27T10:10:07Z</time>
      </trkpt>
      <trkpt lat="45.96813" lon="4.71659">
        <ele>193</ele>
        <time>2017-04-27T10:10:08Z</time>
      </trkpt>
      <trkpt lat="45.96805" lon="4.71657">
        <ele>193</ele>
        <time>2017-04-27T10:10:09Z</time>
      </trkpt>
      <trkpt lat="45.96798" lon="4.71656">
        <ele>193</ele>
        <time>2017-04-27T10:10:10Z</time>
      </trkpt>
      <trkpt lat="45.9679" lon="4.71655">
        <ele>192</ele>
        <time>2017-04-27T10:10:11Z</time>
      </trkpt>
      <trkpt lat="45.96783" lon="4.71653">
        <ele>192</ele>
        <time>2017-04-27T10:10:12Z</time>
      </trkpt>
      <trkpt lat="45.96775" lon="4.71652">
        <ele>192</ele>
        <time>2017-04-27T10:10:13Z</time>
      </trkpt>
      <trkpt lat="45.96768" lon="4.7165">
        <ele>192</ele>
        <time>2017-04-27T10:10:14Z</time>
      </trkpt>
      <trkpt lat="45.9676" lon="4.71649">
        <ele>191</ele>
        <time>2017-04-27T10:10:15Z</time>
      </trkpt>
      <trkpt lat="45.96752" lon="4.71648">
        <ele>191</ele>
        <time>2017-04-27T10:10:16Z</time>
      </trkpt>
      <trkpt lat="45.96744" lon="4.71647">
        <ele>190</ele>
        <time>2017-04-27T10:10:17Z</time>
      </trkpt>
      <trkpt lat="45.96736" lon="4.71646">
        <ele>190</ele>
        <time>2017-04-27T10:10:18Z</time>
      </trkpt>
      <trkpt lat="45.96728" lon="4.71645">
        <ele>190</ele>
        <time>2017-04-27T10:10:19Z</time>
      </trkpt>
      <trkpt lat="45.96721" lon="4.71643">
        <ele>190</ele>
        <time>2017-04-27T10:10:20Z</time>
      </trkpt>
      <trkpt lat="45.96713" lon="4.71642">
        <ele>190</ele>
        <time>2017-04-27T10:10:21Z</time>
      </trkpt>
      <trkpt lat="45.96706" lon="4.71641">
        <ele>190</ele>
        <time>2017-04-27T10:10:22Z</time>
      </trkpt>
      <trkpt lat="45.96698" lon="4.7164">
        <ele>190</ele>
        <time>2017-04-27T10:10:23Z</time>
      </trkpt>
      <trkpt lat="45.9669" lon="4.71639">
        <ele>190</ele>
        <time>2017-04-27T10:10:24Z</time>
      </trkpt>
      <trkpt lat="45.96683" lon="4.71637">
        <ele>190</ele>
        <time>2017-04-27T10:10:25Z</time>
      </trkpt>
      <trkpt lat="45.96675" lon="4.71636">
        <ele>190</ele>
        <time>2017-04-27T10:10:26Z</time>
      </trkpt>
      <trkpt lat="45.96667" lon="4.71635">
        <ele>190</ele>
        <time>2017-04-27T10:10:27Z</time>
      </trkpt>
      <trkpt lat="45.96659" lon="4.71633">
        <ele>188</ele>
        <time>2017-04-27T10:10:28Z</time>
      </trkpt>
      <trkpt lat="45.96651" lon="4.71632">
        <ele>188</ele>
        <time>2017-04-27T10:10:29Z</time>
      </trkpt>
      <trkpt lat="45.96643" lon="4.71631">
        <ele>188</ele>
        <time>2017-04-27T10:10:30Z</time>
      </trkpt>
      <trkpt lat="45.96636" lon="4.7163">
        <ele>188</ele>
        <time>2017-04-27T10:10:31Z</time>
      </trkpt>
      <trkpt lat="45.96628" lon="4.71629">
        <ele>188</ele>
        <time>2017-04-27T10:10:32Z</time>
      </trkpt>
      <trkpt lat="45.9662" lon="4.71628">
        <ele>188</ele>
        <time>2017-04-27T10:10:33Z</time>
      </trkpt>
      <trkpt lat="45.96612" lon="4.71627">
        <ele>187</ele>
        <time>2017-04-27T10:10:34Z</time>
      </trkpt>
      <trkpt lat="45.96604" lon="4.71625">
        <ele>187</ele>
        <time>2017-04-27T10:10:35Z</time>
      </trkpt>
      <trkpt lat="45.96596" lon="4.71624">
        <ele>187</ele>
        <time>2017-04-27T10:10:36Z</time>
      </trkpt>
      <trkpt lat="45.96588" lon="4.71623">
        <ele>187</ele>
        <time>2017-04-27T10:10:37Z</time>
      </trkpt>
      <trkpt lat="45.9658" lon="4.71621">
        <ele>185</ele>
        <time>2017-04-27T10:10:38Z</time>
      </trkpt>
      <trkpt lat="45.96573" lon="4.7162">
        <ele>185</ele>
        <time>2017-04-27T10:10:39Z</time>
      </trkpt>
      <trkpt lat="45.96565" lon="4.71619">
        <ele>185</ele>
        <time>2017-04-27T10:10:40Z</time>
      </trkpt>
      <trkpt lat="45.96558" lon="4.71617">
        <ele>185</ele>
        <time>2017-04-27T10:10:41Z</time>
      </trkpt>
      <trkpt lat="45.96552" lon="4.71615">
        <ele>185</ele>
        <time>2017-04-27T10:10:42Z</time>
      </trkpt>
      <trkpt lat="45.96546" lon="4.71611">
        <ele>185</ele>
        <time>2017-04-27T10:10:43Z</time>
      </trkpt>
      <trkpt lat="45.96541" lon="4.71606">
        <ele>185</ele>
        <time>2017-04-27T10:10:44Z</time>
      </trkpt>
      <trkpt lat="45.96535" lon="4.71601">
        <ele>185</ele>
        <time>2017-04-27T10:10:45Z</time>
      </trkpt>
      <trkpt lat="45.96529" lon="4.716">
        <ele>185</ele>
        <time>2017-04-27T10:10:46Z</time>
      </trkpt>
      <trkpt lat="45.96521" lon="4.71601">
        <ele>185</ele>
        <time>2017-04-27T10:10:47Z</time>
      </trkpt>
      <trkpt lat="45.96514" lon="4.71604">
        <ele>184</ele>
        <time>2017-04-27T10:10:48Z</time>
      </trkpt>
      <trkpt lat="45.96507" lon="4.71607">
        <ele>184</ele>
        <time>2017-04-27T10:10:49Z</time>
      </trkpt>
      <trkpt lat="45.96499" lon="4.71608">
        <ele>183</ele>
        <time>2017-04-27T10:10:50Z</time>
      </trkpt>
      <trkpt lat="45.96491" lon="4.71607">
        <ele>183</ele>
        <time>2017-04-27T10:10:51Z</time>
      </trkpt>
      <trkpt lat="45.96482" lon="4.71606">
        <ele>183</ele>
        <time>2017-04-27T10:10:52Z</time>
      </trkpt>
      <trkpt lat="45.96475" lon="4.71604">
        <ele>183</ele>
        <time>2017-04-27T10:10:53Z</time>
      </trkpt>
      <trkpt lat="45.96467" lon="4.71603">
        <ele>183</ele>
        <time>2017-04-27T10:10:54Z</time>
      </trkpt>
      <trkpt lat="45.96459" lon="4.71602">
        <ele>183</ele>
        <time>2017-04-27T10:10:55Z</time>
      </trkpt>
      <trkpt lat="45.96451" lon="4.71601">
        <ele>183</ele>
        <time>2017-04-27T10:10:56Z</time>
      </trkpt>
      <trkpt lat="45.96444" lon="4.71601">
        <ele>183</ele>
        <time>2017-04-27T10:10:57Z</time>
      </trkpt>
      <trkpt lat="45.96437" lon="4.716">
        <ele>183</ele>
        <time>2017-04-27T10:10:58Z</time>
      </trkpt>
      <trkpt lat="45.96429" lon="4.71599">
        <ele>184</ele>
        <time>2017-04-27T10:10:59Z</time>
      </trkpt>
      <trkpt lat="45.96421" lon="4.71598">
        <ele>184</ele>
        <time>2017-04-27T10:11:00Z</time>
      </trkpt>
      <trkpt lat="45.96413" lon="4.71597">
        <ele>184</ele>
        <time>2017-04-27T10:11:01Z</time>
      </trkpt>
      <trkpt lat="45.96406" lon="4.71595">
        <ele>183</ele>
        <time>2017-04-27T10:11:02Z</time>
      </trkpt>
      <trkpt lat="45.96398" lon="4.71594">
        <ele>183</ele>
        <time>2017-04-27T10:11:03Z</time>
      </trkpt>
      <trkpt lat="45.9639" lon="4.71593">
        <ele>183</ele>
        <time>2017-04-27T10:11:04Z</time>
      </trkpt>
      <trkpt lat="45.96383" lon="4.71592">
        <ele>183</ele>
        <time>2017-04-27T10:11:05Z</time>
      </trkpt>
      <trkpt lat="45.96375" lon="4.7159">
        <ele>182</ele>
        <time>2017-04-27T10:11:06Z</time>
      </trkpt>
      <trkpt lat="45.96368" lon="4.71589">
        <ele>182</ele>
        <time>2017-04-27T10:11:07Z</time>
      </trkpt>
      <trkpt lat="45.96361" lon="4.71587">
        <ele>182</ele>
        <time>2017-04-27T10:11:08Z</time>
      </trkpt>
      <trkpt lat="45.96354" lon="4.71586">
        <ele>182</ele>
        <time>2017-04-27T10:11:09Z</time>
      </trkpt>
      <trkpt lat="45.96347" lon="4.71585">
        <ele>182</ele>
        <time>2017-04-27T10:11:10Z</time>
      </trkpt>
      <trkpt lat="45.9634" lon="4.71584">
        <ele>183</ele>
        <time>2017-04-27T10:11:11Z</time>
      </trkpt>
      <trkpt lat="45.96332" lon="4.71583">
        <ele>183</ele>
        <time>2017-04-27T10:11:12Z</time>
      </trkpt>
      <trkpt lat="45.96325" lon="4.71582">
        <ele>184</ele>
        <time>2017-04-27T10:11:13Z</time>
      </trkpt>
      <trkpt lat="45.96317" lon="4.71581">
        <ele>184</ele>
        <time>2017-04-27T10:11:14Z</time>
      </trkpt>
      <trkpt lat="45.9631" lon="4.7158">
        <ele>184</ele>
        <time>2017-04-27T10:11:15Z</time>
      </trkpt>
      <trkpt lat="45.96302" lon="4.71579">
        <ele>184</ele>
        <time>2017-04-27T10:11:16Z</time>
      </trkpt>
      <trkpt lat="45.96294" lon="4.71577">
        <ele>184</ele>
        <time>2017-04-27T10:11:17Z</time>
      </trkpt>
      <trkpt lat="45.96287" lon="4.71576">
        <ele>184</ele>
        <time>2017-04-27T10:11:18Z</time>
      </trkpt>
      <trkpt lat="45.96279" lon="4.71575">
        <ele>184</ele>
        <time>2017-04-27T10:11:19Z</time>
      </trkpt>
      <trkpt lat="45.96271" lon="4.71574">
        <ele>183</ele>
        <time>2017-04-27T10:11:20Z</time>
      </trkpt>
      <trkpt lat="45.96263" lon="4.71573">
        <ele>183</ele>
        <time>2017-04-27T10:11:21Z</time>
      </trkpt>
      <trkpt lat="45.96256" lon="4.71571">
        <ele>183</ele>
        <time>2017-04-27T10:11:22Z</time>
      </trkpt>
      <trkpt lat="45.96248" lon="4.7157">
        <ele>182</ele>
        <time>2017-04-27T10:11:23Z</time>
      </trkpt>
      <trkpt lat="45.96241" lon="4.71569">
        <ele>183</ele>
        <time>2017-04-27T10:11:24Z</time>
      </trkpt>
      <trkpt lat="45.96233" lon="4.71567">
        <ele>183</ele>
        <time>2017-04-27T10:11:25Z</time>
      </trkpt>
      <trkpt lat="45.96226" lon="4.71566">
        <ele>183</ele>
        <time>2017-04-27T10:11:26Z</time>
      </trkpt>
      <trkpt lat="45.96219" lon="4.71564">
        <ele>183</ele>
        <time>2017-04-27T10:11:27Z</time>
      </trkpt>
      <trkpt lat="45.96212" lon="4.71563">
        <ele>183</ele>
        <time>2017-04-27T10:11:28Z</time>
      </trkpt>
      <trkpt lat="45.96206" lon="4.71562">
        <ele>183</ele>
        <time>2017-04-27T10:11:29Z</time>
      </trkpt>
      <trkpt lat="45.962" lon="4.71561">
        <ele>183</ele>
        <time>2017-04-27T10:11:30Z</time>
      </trkpt>
      <trkpt lat="45.96193" lon="4.71561">
        <ele>183</ele>
        <time>2017-04-27T10:11:31Z</time>
      </trkpt>
      <trkpt lat="45.96187" lon="4.7156">
        <ele>183</ele>
        <time>2017-04-27T10:11:32Z</time>
      </trkpt>
      <trkpt lat="45.9618" lon="4.71559">
        <ele>183</ele>
        <time>2017-04-27T10:11:33Z</time>
      </trkpt>
      <trkpt lat="45.96173" lon="4.71557">
        <ele>183</ele>
        <time>2017-04-27T10:11:34Z</time>
      </trkpt>
      <trkpt lat="45.96167" lon="4.71556">
        <ele>183</ele>
        <time>2017-04-27T10:11:35Z</time>
      </trkpt>
      <trkpt lat="45.9616" lon="4.71555">
        <ele>184</ele>
        <time>2017-04-27T10:11:36Z</time>
      </trkpt>
      <trkpt lat="45.96153" lon="4.71554">
        <ele>184</ele>
        <time>2017-04-27T10:11:37Z</time>
      </trkpt>
      <trkpt lat="45.96146" lon="4.71553">
        <ele>184</ele>
        <time>2017-04-27T10:11:38Z</time>
      </trkpt>
      <trkpt lat="45.96139" lon="4.71552">
        <ele>184</ele>
        <time>2017-04-27T10:11:39Z</time>
      </trkpt>
      <trkpt lat="45.96131" lon="4.7155">
        <ele>184</ele>
        <time>2017-04-27T10:11:40Z</time>
      </trkpt>
      <trkpt lat="45.96124" lon="4.71549">
        <ele>184</ele>
        <time>2017-04-27T10:11:41Z</time>
      </trkpt>
      <trkpt lat="45.96117" lon="4.71548">
        <ele>185</ele>
        <time>2017-04-27T10:11:42Z</time>
      </trkpt>
      <trkpt lat="45.9611" lon="4.71546">
        <ele>185</ele>
        <time>2017-04-27T10:11:43Z</time>
      </trkpt>
      <trkpt lat="45.96103" lon="4.71545">
        <ele>185</ele>
        <time>2017-04-27T10:11:44Z</time>
      </trkpt>
      <trkpt lat="45.96096" lon="4.71544">
        <ele>185</ele>
        <time>2017-04-27T10:11:45Z</time>
      </trkpt>
      <trkpt lat="45.9609" lon="4.71542">
        <ele>185</ele>
        <time>2017-04-27T10:11:46Z</time>
      </trkpt>
      <trkpt lat="45.96084" lon="4.71541">
        <ele>185</ele>
        <time>2017-04-27T10:11:47Z</time>
      </trkpt>
      <trkpt lat="45.96077" lon="4.7154">
        <ele>185</ele>
        <time>2017-04-27T10:11:48Z</time>
      </trkpt>
      <trkpt lat="45.96072" lon="4.71539">
        <ele>185</ele>
        <time>2017-04-27T10:11:49Z</time>
      </trkpt>
      <trkpt lat="45.96066" lon="4.71538">
        <ele>185</ele>
        <time>2017-04-27T10:11:50Z</time>
      </trkpt>
      <trkpt lat="45.9606" lon="4.71537">
        <ele>185</ele>
        <time>2017-04-27T10:11:51Z</time>
      </trkpt>
      <trkpt lat="45.96054" lon="4.71535">
        <ele>186</ele>
        <time>2017-04-27T10:11:52Z</time>
      </trkpt>
      <trkpt lat="45.96048" lon="4.71534">
        <ele>186</ele>
        <time>2017-04-27T10:11:53Z</time>
      </trkpt>
      <trkpt lat="45.96043" lon="4.71533">
        <ele>186</ele>
        <time>2017-04-27T10:11:54Z</time>
      </trkpt>
      <trkpt lat="45.96037" lon="4.71531">
        <ele>186</ele>
        <time>2017-04-27T10:11:55Z</time>
      </trkpt>
      <trkpt lat="45.96032" lon="4.7153">
        <ele>186</ele>
        <time>2017-04-27T10:11:56Z</time>
      </trkpt>
      <trkpt lat="45.96026" lon="4.71529">
        <ele>186</ele>
        <time>2017-04-27T10:11:57Z</time>
      </trkpt>
      <trkpt lat="45.96021" lon="4.71528">
        <ele>186</ele>
        <time>2017-04-27T10:11:58Z</time>
      </trkpt>
      <trkpt lat="45.96015" lon="4.71527">
        <ele>186</ele>
        <time>2017-04-27T10:11:59Z</time>
      </trkpt>
      <trkpt lat="45.96009" lon="4.71526">
        <ele>186</ele>
        <time>2017-04-27T10:12:00Z</time>
      </trkpt>
      <trkpt lat="45.96004" lon="4.71524">
        <ele>186</ele>
        <time>2017-04-27T10:12:01Z</time>
      </trkpt>
      <trkpt lat="45.95999" lon="4.71521">
        <ele>185</ele>
        <time>2017-04-27T10:12:02Z</time>
      </trkpt>
      <trkpt lat="45.95994" lon="4.71518">
        <ele>185</ele>
        <time>2017-04-27T10:12:03Z</time>
      </trkpt>
      <trkpt lat="45.95989" lon="4.71515">
        <ele>186</ele>
        <time>2017-04-27T10:12:04Z</time>
      </trkpt>
      <trkpt lat="45.95984" lon="4.71512">
        <ele>185</ele>
        <time>2017-04-27T10:12:05Z</time>
      </trkpt>
      <trkpt lat="45.95979" lon="4.71511">
        <ele>185</ele>
        <time>2017-04-27T10:12:06Z</time>
      </trkpt>
      <trkpt lat="45.95974" lon="4.71511">
        <ele>185</ele>
        <time>2017-04-27T10:12:07Z</time>
      </trkpt>
      <trkpt lat="45.95968" lon="4.71514">
        <ele>185</ele>
        <time>2017-04-27T10:12:08Z</time>
      </trkpt>
      <trkpt lat="45.95962" lon="4.71517">
        <ele>184</ele>
        <time>2017-04-27T10:12:09Z</time>
      </trkpt>
      <trkpt lat="45.95955" lon="4.71519">
        <ele>184</ele>
        <time>2017-04-27T10:12:10Z</time>
      </trkpt>
      <trkpt lat="45.95948" lon="4.7152">
        <ele>184</ele>
        <time>2017-04-27T10:12:11Z</time>
      </trkpt>
      <trkpt lat="45.9594" lon="4.7152">
        <ele>184</ele>
        <time>2017-04-27T10:12:12Z</time>
      </trkpt>
      <trkpt lat="45.95933" lon="4.71521">
        <ele>184</ele>
        <time>2017-04-27T10:12:13Z</time>
      </trkpt>
      <trkpt lat="45.95925" lon="4.71521">
        <ele>184</ele>
        <time>2017-04-27T10:12:14Z</time>
      </trkpt>
      <trkpt lat="45.95917" lon="4.71521">
        <ele>184</ele>
        <time>2017-04-27T10:12:15Z</time>
      </trkpt>
      <trkpt lat="45.95909" lon="4.71521">
        <ele>183</ele>
        <time>2017-04-27T10:12:16Z</time>
      </trkpt>
      <trkpt lat="45.95901" lon="4.71521">
        <ele>182</ele>
        <time>2017-04-27T10:12:17Z</time>
      </trkpt>
      <trkpt lat="45.95894" lon="4.71521">
        <ele>182</ele>
        <time>2017-04-27T10:12:18Z</time>
      </trkpt>
      <trkpt lat="45.95886" lon="4.7152">
        <ele>182</ele>
        <time>2017-04-27T10:12:19Z</time>
      </trkpt>
      <trkpt lat="45.95878" lon="4.7152">
        <ele>182</ele>
        <time>2017-04-27T10:12:20Z</time>
      </trkpt>
      <trkpt lat="45.9587" lon="4.7152">
        <ele>182</ele>
        <time>2017-04-27T10:12:21Z</time>
      </trkpt>
      <trkpt lat="45.95863" lon="4.7152">
        <ele>182</ele>
        <time>2017-04-27T10:12:22Z</time>
      </trkpt>
      <trkpt lat="45.95855" lon="4.7152">
        <ele>182</ele>
        <time>2017-04-27T10:12:23Z</time>
      </trkpt>
      <trkpt lat="45.95847" lon="4.7152">
        <ele>182</ele>
        <time>2017-04-27T10:12:24Z</time>
      </trkpt>
      <trkpt lat="45.95839" lon="4.7152">
        <ele>182</ele>
        <time>2017-04-27T10:12:25Z</time>
      </trkpt>
      <trkpt lat="45.95832" lon="4.7152">
        <ele>182</ele>
        <time>2017-04-27T10:12:26Z</time>
      </trkpt>
      <trkpt lat="45.95824" lon="4.71519">
        <ele>182</ele>
        <time>2017-04-27T10:12:27Z</time>
      </trkpt>
      <trkpt lat="45.95816" lon="4.71518">
        <ele>182</ele>
        <time>2017-04-27T10:12:28Z</time>
      </trkpt>
      <trkpt lat="45.95809" lon="4.71518">
        <ele>181</ele>
        <time>2017-04-27T10:12:29Z</time>
      </trkpt>
      <trkpt lat="45.95801" lon="4.71518">
        <ele>181</ele>
        <time>2017-04-27T10:12:30Z</time>
      </trkpt>
      <trkpt lat="45.95794" lon="4.71517">
        <ele>181</ele>
        <time>2017-04-27T10:12:31Z</time>
      </trkpt>
      <trkpt lat="45.95786" lon="4.71517">
        <ele>181</ele>
        <time>2017-04-27T10:12:32Z</time>
      </trkpt>
      <trkpt lat="45.95778" lon="4.71517">
        <ele>181</ele>
        <time>2017-04-27T10:12:33Z</time>
      </trkpt>
      <trkpt lat="45.95771" lon="4.71516">
        <ele>181</ele>
        <time>2017-04-27T10:12:34Z</time>
      </trkpt>
      <trkpt lat="45.95763" lon="4.71516">
        <ele>181</ele>
        <time>2017-04-27T10:12:35Z</time>
      </trkpt>
      <trkpt lat="45.95756" lon="4.71516">
        <ele>181</ele>
        <time>2017-04-27T10:12:36Z</time>
      </trkpt>
      <trkpt lat="45.95748" lon="4.71515">
        <ele>181</ele>
        <time>2017-04-27T10:12:37Z</time>
      </trkpt>
      <trkpt lat="45.9574" lon="4.71515">
        <ele>181</ele>
        <time>2017-04-27T10:12:38Z</time>
      </trkpt>
      <trkpt lat="45.95732" lon="4.71515">
        <ele>181</ele>
        <time>2017-04-27T10:12:39Z</time>
      </trkpt>
      <trkpt lat="45.95725" lon="4.71514">
        <ele>180</ele>
        <time>2017-04-27T10:12:40Z</time>
      </trkpt>
      <trkpt lat="45.95717" lon="4.71514">
        <ele>180</ele>
        <time>2017-04-27T10:12:41Z</time>
      </trkpt>
      <trkpt lat="45.9571" lon="4.71513">
        <ele>180</ele>
        <time>2017-04-27T10:12:42Z</time>
      </trkpt>
      <trkpt lat="45.95702" lon="4.71512">
        <ele>180</ele>
        <time>2017-04-27T10:12:43Z</time>
      </trkpt>
      <trkpt lat="45.95694" lon="4.71512">
        <ele>180</ele>
        <time>2017-04-27T10:12:44Z</time>
      </trkpt>
      <trkpt lat="45.95687" lon="4.71511">
        <ele>181</ele>
        <time>2017-04-27T10:12:45Z</time>
      </trkpt>
      <trkpt lat="45.95679" lon="4.7151">
        <ele>181</ele>
        <time>2017-04-27T10:12:46Z</time>
      </trkpt>
      <trkpt lat="45.95671" lon="4.7151">
        <ele>181</ele>
        <time>2017-04-27T10:12:47Z</time>
      </trkpt>
      <trkpt lat="45.95663" lon="4.71509">
        <ele>181</ele>
        <time>2017-04-27T10:12:48Z</time>
      </trkpt>
      <trkpt lat="45.95655" lon="4.71509">
        <ele>181</ele>
        <time>2017-04-27T10:12:49Z</time>
      </trkpt>
      <trkpt lat="45.95647" lon="4.71508">
        <ele>180</ele>
        <time>2017-04-27T10:12:50Z</time>
      </trkpt>
      <trkpt lat="45.95639" lon="4.71508">
        <ele>180</ele>
        <time>2017-04-27T10:12:51Z</time>
      </trkpt>
      <trkpt lat="45.95631" lon="4.71507">
        <ele>180</ele>
        <time>2017-04-27T10:12:52Z</time>
      </trkpt>
      <trkpt lat="45.95623" lon="4.71507">
        <ele>180</ele>
        <time>2017-04-27T10:12:53Z</time>
      </trkpt>
      <trkpt lat="45.95615" lon="4.71506">
        <ele>179</ele>
        <time>2017-04-27T10:12:54Z</time>
      </trkpt>
      <trkpt lat="45.95607" lon="4.71506">
        <ele>179</ele>
        <time>2017-04-27T10:12:55Z</time>
      </trkpt>
      <trkpt lat="45.95599" lon="4.71505">
        <ele>179</ele>
        <time>2017-04-27T10:12:56Z</time>
      </trkpt>
      <trkpt lat="45.95592" lon="4.71505">
        <ele>180</ele>
        <time>2017-04-27T10:12:57Z</time>
      </trkpt>
      <trkpt lat="45.95584" lon="4.71505">
        <ele>180</ele>
        <time>2017-04-27T10:12:58Z</time>
      </trkpt>
      <trkpt lat="45.95576" lon="4.71505">
        <ele>179</ele>
        <time>2017-04-27T10:12:59Z</time>
      </trkpt>
      <trkpt lat="45.95568" lon="4.71504">
        <ele>179</ele>
        <time>2017-04-27T10:13:00Z</time>
      </trkpt>
      <trkpt lat="45.9556" lon="4.71504">
        <ele>178</ele>
        <time>2017-04-27T10:13:01Z</time>
      </trkpt>
      <trkpt lat="45.95552" lon="4.71503">
        <ele>178</ele>
        <time>2017-04-27T10:13:02Z</time>
      </trkpt>
      <trkpt lat="45.95544" lon="4.71502">
        <ele>178</ele>
        <time>2017-04-27T10:13:03Z</time>
      </trkpt>
      <trkpt lat="45.95535" lon="4.71502">
        <ele>177</ele>
        <time>2017-04-27T10:13:04Z</time>
      </trkpt>
      <trkpt lat="45.95526" lon="4.71501">
        <ele>177</ele>
        <time>2017-04-27T10:13:05Z</time>
      </trkpt>
      <trkpt lat="45.95518" lon="4.71501">
        <ele>177</ele>
        <time>2017-04-27T10:13:06Z</time>
      </trkpt>
      <trkpt lat="45.95509" lon="4.715">
        <ele>178</ele>
        <time>2017-04-27T10:13:07Z</time>
      </trkpt>
      <trkpt lat="45.955" lon="4.71499">
        <ele>177</ele>
        <time>2017-04-27T10:13:08Z</time>
      </trkpt>
      <trkpt lat="45.95491" lon="4.71499">
        <ele>177</ele>
        <time>2017-04-27T10:13:09Z</time>
      </trkpt>
      <trkpt lat="45.95482" lon="4.71498">
        <ele>177</ele>
        <time>2017-04-27T10:13:10Z</time>
      </trkpt>
      <trkpt lat="45.95473" lon="4.71497">
        <ele>176</ele>
        <time>2017-04-27T10:13:11Z</time>
      </trkpt>
      <trkpt lat="45.95463" lon="4.71497">
        <ele>176</ele>
        <time>2017-04-27T10:13:12Z</time>
      </trkpt>
      <trkpt lat="45.95454" lon="4.71496">
        <ele>176</ele>
        <time>2017-04-27T10:13:13Z</time>
      </trkpt>
      <trkpt lat="45.95445" lon="4.71496">
        <ele>176</ele>
        <time>2017-04-27T10:13:14Z</time>
      </trkpt>
      <trkpt lat="45.95436" lon="4.71495">
        <ele>175</ele>
        <time>2017-04-27T10:13:15Z</time>
      </trkpt>
      <trkpt lat="45.95427" lon="4.71494">
        <ele>175</ele>
        <time>2017-04-27T10:13:16Z</time>
      </trkpt>
      <trkpt lat="45.95419" lon="4.71494">
        <ele>175</ele>
        <time>2017-04-27T10:13:17Z</time>
      </trkpt>
      <trkpt lat="45.9541" lon="4.71493">
        <ele>174</ele>
        <time>2017-04-27T10:13:18Z</time>
      </trkpt>
      <trkpt lat="45.95402" lon="4.71492">
        <ele>175</ele>
        <time>2017-04-27T10:13:19Z</time>
      </trkpt>
      <trkpt lat="45.95394" lon="4.71491">
        <ele>175</ele>
        <time>2017-04-27T10:13:20Z</time>
      </trkpt>
      <trkpt lat="45.95386" lon="4.71491">
        <ele>175</ele>
        <time>2017-04-27T10:13:21Z</time>
      </trkpt>
      <trkpt lat="45.95378" lon="4.7149">
        <ele>175</ele>
        <time>2017-04-27T10:13:22Z</time>
      </trkpt>
      <trkpt lat="45.9537" lon="4.7149">
        <ele>175</ele>
        <time>2017-04-27T10:13:23Z</time>
      </trkpt>
      <trkpt lat="45.95362" lon="4.71489">
        <ele>175</ele>
        <time>2017-04-27T10:13:24Z</time>
      </trkpt>
      <trkpt lat="45.95355" lon="4.71488">
        <ele>175</ele>
        <time>2017-04-27T10:13:25Z</time>
      </trkpt>
      <trkpt lat="45.95347" lon="4.71488">
        <ele>175</ele>
        <time>2017-04-27T10:13:26Z</time>
      </trkpt>
      <trkpt lat="45.9534" lon="4.71487">
        <ele>175</ele>
        <time>2017-04-27T10:13:27Z</time>
      </trkpt>
      <trkpt lat="45.95332" lon="4.71486">
        <ele>175</ele>
        <time>2017-04-27T10:13:28Z</time>
      </trkpt>
      <trkpt lat="45.95325" lon="4.71485">
        <ele>175</ele>
        <time>2017-04-27T10:13:29Z</time>
      </trkpt>
      <trkpt lat="45.95318" lon="4.71484">
        <ele>175</ele>
        <time>2017-04-27T10:13:30Z</time>
      </trkpt>
      <trkpt lat="45.9531" lon="4.71483">
        <ele>175</ele>
        <time>2017-04-27T10:13:31Z</time>
      </trkpt>
      <trkpt lat="45.95303" lon="4.71483">
        <ele>175</ele>
        <time>2017-04-27T10:13:32Z</time>
      </trkpt>
      <trkpt lat="45.95296" lon="4.71483">
        <ele>176</ele>
        <time>2017-04-27T10:13:33Z</time>
      </trkpt>
      <trkpt lat="45.95289" lon="4.71482">
        <ele>176</ele>
        <time>2017-04-27T10:13:34Z</time>
      </trkpt>
      <trkpt lat="45.95282" lon="4.71482">
        <ele>176</ele>
        <time>2017-04-27T10:13:35Z</time>
      </trkpt>
      <trkpt lat="45.95275" lon="4.71482">
        <ele>176</ele>
        <time>2017-04-27T10:13:36Z</time>
      </trkpt>
      <trkpt lat="45.95269" lon="4.71481">
        <ele>176</ele>
        <time>2017-04-27T10:13:37Z</time>
      </trkpt>
      <trkpt lat="45.95263" lon="4.7148">
        <ele>176</ele>
        <time>2017-04-27T10:13:38Z</time>
      </trkpt>
      <trkpt lat="45.95257" lon="4.7148">
        <ele>176</ele>
        <time>2017-04-27T10:13:39Z</time>
      </trkpt>
      <trkpt lat="45.95251" lon="4.71479">
        <ele>176</ele>
        <time>2017-04-27T10:13:40Z</time>
      </trkpt>
      <trkpt lat="45.95245" lon="4.71479">
        <ele>177</ele>
        <time>2017-04-27T10:13:41Z</time>
      </trkpt>
      <trkpt lat="45.95238" lon="4.71478">
        <ele>177</ele>
        <time>2017-04-27T10:13:42Z</time>
      </trkpt>
      <trkpt lat="45.95232" lon="4.71478">
        <ele>177</ele>
        <time>2017-04-27T10:13:43Z</time>
      </trkpt>
      <trkpt lat="45.95226" lon="4.71477">
        <ele>177</ele>
        <time>2017-04-27T10:13:44Z</time>
      </trkpt>
      <trkpt lat="45.9522" lon="4.71477">
        <ele>177</ele>
        <time>2017-04-27T10:13:45Z</time>
      </trkpt>
      <trkpt lat="45.95214" lon="4.71476">
        <ele>177</ele>
        <time>2017-04-27T10:13:46Z</time>
      </trkpt>
      <trkpt lat="45.95208" lon="4.71476">
        <ele>177</ele>
        <time>2017-04-27T10:13:47Z</time>
      </trkpt>
      <trkpt lat="45.95202" lon="4.71475">
        <ele>177</ele>
        <time>2017-04-27T10:13:48Z</time>
      </trkpt>
      <trkpt lat="45.95196" lon="4.71474">
        <ele>177</ele>
        <time>2017-04-27T10:13:49Z</time>
      </trkpt>
      <trkpt lat="45.9519" lon="4.71474">
        <ele>177</ele>
        <time>2017-04-27T10:13:50Z</time>
      </trkpt>
      <trkpt lat="45.95184" lon="4.71473">
        <ele>177</ele>
        <time>2017-04-27T10:13:51Z</time>
      </trkpt>
      <trkpt lat="45.95178" lon="4.71473">
        <ele>177</ele>
        <time>2017-04-27T10:13:52Z</time>
      </trkpt>
      <trkpt lat="45.95172" lon="4.71473">
        <ele>177</ele>
        <time>2017-04-27T10:13:53Z</time>
      </trkpt>
      <trkpt lat="45.95166" lon="4.71472">
        <ele>178</ele>
        <time>2017-04-27T10:13:54Z</time>
      </trkpt>
      <trkpt lat="45.9516" lon="4.71472">
        <ele>178</ele>
        <time>2017-04-27T10:13:55Z</time>
      </trkpt>
      <trkpt lat="45.95154" lon="4.71471">
        <ele>178</ele>
        <time>2017-04-27T10:13:56Z</time>
      </trkpt>
      <trkpt lat="45.95148" lon="4.71471">
        <ele>178</ele>
        <time>2017-04-27T10:13:57Z</time>
      </trkpt>
      <trkpt lat="45.95142" lon="4.7147">
        <ele>178</ele>
        <time>2017-04-27T10:13:58Z</time>
      </trkpt>
      <trkpt lat="45.95136" lon="4.7147">
        <ele>178</ele>
        <time>2017-04-27T10:13:59Z</time>
      </trkpt>
      <trkpt lat="45.9513" lon="4.7147">
        <ele>178</ele>
        <time>2017-04-27T10:14:00Z</time>
      </trkpt>
      <trkpt lat="45.95124" lon="4.71469">
        <ele>178</ele>
        <time>2017-04-27T10:14:01Z</time>
      </trkpt>
      <trkpt lat="45.95118" lon="4.71469">
        <ele>179</ele>
        <time>2017-04-27T10:14:02Z</time>
      </trkpt>
      <trkpt lat="45.95112" lon="4.71469">
        <ele>179</ele>
        <time>2017-04-27T10:14:03Z</time>
      </trkpt>
      <trkpt lat="45.95107" lon="4.71468">
        <ele>179</ele>
        <time>2017-04-27T10:14:04Z</time>
      </trkpt>
      <trkpt lat="45.95101" lon="4.71467">
        <ele>179</ele>
        <time>2017-04-27T10:14:05Z</time>
      </trkpt>
      <trkpt lat="45.95095" lon="4.71467">
        <ele>179</ele>
        <time>2017-04-27T10:14:06Z</time>
      </trkpt>
      <trkpt lat="45.9509" lon="4.71467">
        <ele>179</ele>
        <time>2017-04-27T10:14:07Z</time>
      </trkpt>
      <trkpt lat="45.95085" lon="4.71467">
        <ele>179</ele>
        <time>2017-04-27T10:14:08Z</time>
      </trkpt>
      <trkpt lat="45.95079" lon="4.71467">
        <ele>181</ele>
        <time>2017-04-27T10:14:09Z</time>
      </trkpt>
      <trkpt lat="45.95074" lon="4.71466">
        <ele>181</ele>
        <time>2017-04-27T10:14:10Z</time>
      </trkpt>
      <trkpt lat="45.95069" lon="4.71466">
        <ele>181</ele>
        <time>2017-04-27T10:14:11Z</time>
      </trkpt>
      <trkpt lat="45.95064" lon="4.71465">
        <ele>181</ele>
        <time>2017-04-27T10:14:12Z</time>
      </trkpt>
      <trkpt lat="45.95059" lon="4.71466">
        <ele>181</ele>
        <time>2017-04-27T10:14:13Z</time>
      </trkpt>
      <trkpt lat="45.95054" lon="4.71466">
        <ele>181</ele>
        <time>2017-04-27T10:14:14Z</time>
      </trkpt>
      <trkpt lat="45.95049" lon="4.71466">
        <ele>181</ele>
        <time>2017-04-27T10:14:15Z</time>
      </trkpt>
      <trkpt lat="45.95044" lon="4.71466">
        <ele>182</ele>
        <time>2017-04-27T10:14:16Z</time>
      </trkpt>
      <trkpt lat="45.95038" lon="4.71465">
        <ele>182</ele>
        <time>2017-04-27T10:14:17Z</time>
      </trkpt>
      <trkpt lat="45.95033" lon="4.71464">
        <ele>182</ele>
        <time>2017-04-27T10:14:18Z</time>
      </trkpt>
      <trkpt lat="45.95028" lon="4.71463">
        <ele>182</ele>
        <time>2017-04-27T10:14:19Z</time>
      </trkpt>
      <trkpt lat="45.95023" lon="4.71463">
        <ele>182</ele>
        <time>2017-04-27T10:14:20Z</time>
      </trkpt>
      <trkpt lat="45.95017" lon="4.71463">
        <ele>182</ele>
        <time>2017-04-27T10:14:21Z</time>
      </trkpt>
      <trkpt lat="45.95012" lon="4.71462">
        <ele>182</ele>
        <time>2017-04-27T10:14:22Z</time>
      </trkpt>
      <trkpt lat="45.95007" lon="4.71461">
        <ele>182</ele>
        <time>2017-04-27T10:14:23Z</time>
      </trkpt>
      <trkpt lat="45.95002" lon="4.71461">
        <ele>182</ele>
        <time>2017-04-27T10:14:24Z</time>
      </trkpt>
      <trkpt lat="45.94997" lon="4.7146">
        <ele>183</ele>
        <time>2017-04-27T10:14:25Z</time>
      </trkpt>
      <trkpt lat="45.94989" lon="4.71453">
        <ele>184</ele>
        <time>2017-04-27T10:14:27Z</time>
      </trkpt>
      <trkpt lat="45.94986" lon="4.71448">
        <ele>184</ele>
        <time>2017-04-27T10:14:28Z</time>
      </trkpt>
      <trkpt lat="45.94983" lon="4.71443">
        <ele>184</ele>
        <time>2017-04-27T10:14:29Z</time>
      </trkpt>
      <trkpt lat="45.9498" lon="4.71438">
        <ele>185</ele>
        <time>2017-04-27T10:14:30Z</time>
      </trkpt>
      <trkpt lat="45.94976" lon="4.71434">
        <ele>185</ele>
        <time>2017-04-27T10:14:31Z</time>
      </trkpt>
      <trkpt lat="45.94972" lon="4.71433">
        <ele>185</ele>
        <time>2017-04-27T10:14:32Z</time>
      </trkpt>
      <trkpt lat="45.94967" lon="4.71433">
        <ele>185</ele>
        <time>2017-04-27T10:14:33Z</time>
      </trkpt>
      <trkpt lat="45.94962" lon="4.71434">
        <ele>184</ele>
        <time>2017-04-27T10:14:34Z</time>
      </trkpt>
      <trkpt lat="45.94958" lon="4.71436">
        <ele>184</ele>
        <time>2017-04-27T10:14:35Z</time>
      </trkpt>
      <trkpt lat="45.94953" lon="4.71441">
        <ele>184</ele>
        <time>2017-04-27T10:14:36Z</time>
      </trkpt>
      <trkpt lat="45.94949" lon="4.71446">
        <ele>184</ele>
        <time>2017-04-27T10:14:37Z</time>
      </trkpt>
      <trkpt lat="45.94945" lon="4.7145">
        <ele>184</ele>
        <time>2017-04-27T10:14:38Z</time>
      </trkpt>
      <trkpt lat="45.9494" lon="4.71454">
        <ele>184</ele>
        <time>2017-04-27T10:14:39Z</time>
      </trkpt>
      <trkpt lat="45.94935" lon="4.71457">
        <ele>184</ele>
        <time>2017-04-27T10:14:40Z</time>
      </trkpt>
      <trkpt lat="45.9493" lon="4.71459">
        <ele>183</ele>
        <time>2017-04-27T10:14:41Z</time>
      </trkpt>
      <trkpt lat="45.94924" lon="4.7146">
        <ele>183</ele>
        <time>2017-04-27T10:14:42Z</time>
      </trkpt>
      <trkpt lat="45.94919" lon="4.71459">
        <ele>183</ele>
        <time>2017-04-27T10:14:43Z</time>
      </trkpt>
      <trkpt lat="45.94914" lon="4.71459">
        <ele>183</ele>
        <time>2017-04-27T10:14:44Z</time>
      </trkpt>
      <trkpt lat="45.94909" lon="4.71459">
        <ele>183</ele>
        <time>2017-04-27T10:14:45Z</time>
      </trkpt>
      <trkpt lat="45.94903" lon="4.71459">
        <ele>183</ele>
        <time>2017-04-27T10:14:46Z</time>
      </trkpt>
      <trkpt lat="45.94897" lon="4.71458">
        <ele>184</ele>
        <time>2017-04-27T10:14:47Z</time>
      </trkpt>
      <trkpt lat="45.94892" lon="4.71458">
        <ele>184</ele>
        <time>2017-04-27T10:14:48Z</time>
      </trkpt>
      <trkpt lat="45.94886" lon="4.71458">
        <ele>184</ele>
        <time>2017-04-27T10:14:49Z</time>
      </trkpt>
      <trkpt lat="45.94881" lon="4.71457">
        <ele>184</ele>
        <time>2017-04-27T10:14:50Z</time>
      </trkpt>
      <trkpt lat="45.94875" lon="4.71457">
        <ele>184</ele>
        <time>2017-04-27T10:14:51Z</time>
      </trkpt>
      <trkpt lat="45.9487" lon="4.71456">
        <ele>184</ele>
        <time>2017-04-27T10:14:52Z</time>
      </trkpt>
      <trkpt lat="45.94864" lon="4.71456">
        <ele>184</ele>
        <time>2017-04-27T10:14:53Z</time>
      </trkpt>
      <trkpt lat="45.94858" lon="4.71455">
        <ele>184</ele>
        <time>2017-04-27T10:14:54Z</time>
      </trkpt>
      <trkpt lat="45.94853" lon="4.71455">
        <ele>184</ele>
        <time>2017-04-27T10:14:55Z</time>
      </trkpt>
      <trkpt lat="45.94848" lon="4.71454">
        <ele>184</ele>
        <time>2017-04-27T10:14:56Z</time>
      </trkpt>
      <trkpt lat="45.94843" lon="4.71454">
        <ele>184</ele>
        <time>2017-04-27T10:14:57Z</time>
      </trkpt>
      <trkpt lat="45.94837" lon="4.71453">
        <ele>184</ele>
        <time>2017-04-27T10:14:58Z</time>
      </trkpt>
      <trkpt lat="45.94832" lon="4.71453">
        <ele>183</ele>
        <time>2017-04-27T10:14:59Z</time>
      </trkpt>
      <trkpt lat="45.94827" lon="4.71452">
        <ele>183</ele>
        <time>2017-04-27T10:15:00Z</time>
      </trkpt>
      <trkpt lat="45.94821" lon="4.71451">
        <ele>183</ele>
        <time>2017-04-27T10:15:01Z</time>
      </trkpt>
      <trkpt lat="45.94816" lon="4.71451">
        <ele>183</ele>
        <time>2017-04-27T10:15:02Z</time>
      </trkpt>
      <trkpt lat="45.94811" lon="4.7145">
        <ele>183</ele>
        <time>2017-04-27T10:15:03Z</time>
      </trkpt>
      <trkpt lat="45.94806" lon="4.71449">
        <ele>183</ele>
        <time>2017-04-27T10:15:04Z</time>
      </trkpt>
      <trkpt lat="45.94801" lon="4.71449">
        <ele>183</ele>
        <time>2017-04-27T10:15:05Z</time>
      </trkpt>
      <trkpt lat="45.94796" lon="4.71448">
        <ele>183</ele>
        <time>2017-04-27T10:15:06Z</time>
      </trkpt>
      <trkpt lat="45.94791" lon="4.71448">
        <ele>183</ele>
        <time>2017-04-27T10:15:07Z</time>
      </trkpt>
      <trkpt lat="45.94786" lon="4.71447">
        <ele>183</ele>
        <time>2017-04-27T10:15:08Z</time>
      </trkpt>
      <trkpt lat="45.94781" lon="4.71446">
        <ele>183</ele>
        <time>2017-04-27T10:15:09Z</time>
      </trkpt>
      <trkpt lat="45.94776" lon="4.71445">
        <ele>183</ele>
        <time>2017-04-27T10:15:10Z</time>
      </trkpt>
      <trkpt lat="45.94771" lon="4.71445">
        <ele>184</ele>
        <time>2017-04-27T10:15:11Z</time>
      </trkpt>
      <trkpt lat="45.94765" lon="4.71444">
        <ele>184</ele>
        <time>2017-04-27T10:15:12Z</time>
      </trkpt>
      <trkpt lat="45.9476" lon="4.71443">
        <ele>184</ele>
        <time>2017-04-27T10:15:13Z</time>
      </trkpt>
      <trkpt lat="45.94754" lon="4.71443">
        <ele>184</ele>
        <time>2017-04-27T10:15:14Z</time>
      </trkpt>
      <trkpt lat="45.94748" lon="4.71442">
        <ele>183</ele>
        <time>2017-04-27T10:15:15Z</time>
      </trkpt>
      <trkpt lat="45.94742" lon="4.71442">
        <ele>183</ele>
        <time>2017-04-27T10:15:16Z</time>
      </trkpt>
      <trkpt lat="45.94736" lon="4.71442">
        <ele>183</ele>
        <time>2017-04-27T10:15:17Z</time>
      </trkpt>
      <trkpt lat="45.9473" lon="4.71443">
        <ele>183</ele>
        <time>2017-04-27T10:15:18Z</time>
      </trkpt>
      <trkpt lat="45.94723" lon="4.71442">
        <ele>182</ele>
        <time>2017-04-27T10:15:19Z</time>
      </trkpt>
      <trkpt lat="45.94717" lon="4.71442">
        <ele>182</ele>
        <time>2017-04-27T10:15:20Z</time>
      </trkpt>
      <trkpt lat="45.9471" lon="4.71442">
        <ele>182</ele>
        <time>2017-04-27T10:15:21Z</time>
      </trkpt>
      <trkpt lat="45.94703" lon="4.71441">
        <ele>182</ele>
        <time>2017-04-27T10:15:22Z</time>
      </trkpt>
      <trkpt lat="45.94697" lon="4.71441">
        <ele>182</ele>
        <time>2017-04-27T10:15:23Z</time>
      </trkpt>
      <trkpt lat="45.94691" lon="4.71441">
        <ele>182</ele>
        <time>2017-04-27T10:15:24Z</time>
      </trkpt>
      <trkpt lat="45.94684" lon="4.7144">
        <ele>182</ele>
        <time>2017-04-27T10:15:25Z</time>
      </trkpt>
      <trkpt lat="45.94678" lon="4.7144">
        <ele>182</ele>
        <time>2017-04-27T10:15:26Z</time>
      </trkpt>
      <trkpt lat="45.94672" lon="4.7144">
        <ele>182</ele>
        <time>2017-04-27T10:15:27Z</time>
      </trkpt>
      <trkpt lat="45.94666" lon="4.7144">
        <ele>182</ele>
        <time>2017-04-27T10:15:28Z</time>
      </trkpt>
      <trkpt lat="45.94661" lon="4.71439">
        <ele>182</ele>
        <time>2017-04-27T10:15:29Z</time>
      </trkpt>
      <trkpt lat="45.94655" lon="4.71439">
        <ele>182</ele>
        <time>2017-04-27T10:15:30Z</time>
      </trkpt>
      <trkpt lat="45.94649" lon="4.71439">
        <ele>182</ele>
        <time>2017-04-27T10:15:31Z</time>
      </trkpt>
      <trkpt lat="45.94643" lon="4.71438">
        <ele>182</ele>
        <time>2017-04-27T10:15:32Z</time>
      </trkpt>
      <trkpt lat="45.94637" lon="4.71438">
        <ele>181</ele>
        <time>2017-04-27T10:15:33Z</time>
      </trkpt>
      <trkpt lat="45.94631" lon="4.71439">
        <ele>181</ele>
        <time>2017-04-27T10:15:34Z</time>
      </trkpt>
      <trkpt lat="45.94626" lon="4.71439">
        <ele>181</ele>
        <time>2017-04-27T10:15:35Z</time>
      </trkpt>
      <trkpt lat="45.9462" lon="4.71438">
        <ele>181</ele>
        <time>2017-04-27T10:15:36Z</time>
      </trkpt>
      <trkpt lat="45.94614" lon="4.71438">
        <ele>182</ele>
        <time>2017-04-27T10:15:37Z</time>
      </trkpt>
      <trkpt lat="45.94609" lon="4.71437">
        <ele>182</ele>
        <time>2017-04-27T10:15:38Z</time>
      </trkpt>
      <trkpt lat="45.94603" lon="4.71437">
        <ele>182</ele>
        <time>2017-04-27T10:15:39Z</time>
      </trkpt>
      <trkpt lat="45.94598" lon="4.71436">
        <ele>182</ele>
        <time>2017-04-27T10:15:40Z</time>
      </trkpt>
      <trkpt lat="45.94593" lon="4.71436">
        <ele>182</ele>
        <time>2017-04-27T10:15:41Z</time>
      </trkpt>
      <trkpt lat="45.94587" lon="4.71435">
        <ele>182</ele>
        <time>2017-04-27T10:15:42Z</time>
      </trkpt>
      <trkpt lat="45.94582" lon="4.71436">
        <ele>182</ele>
        <time>2017-04-27T10:15:43Z</time>
      </trkpt>
      <trkpt lat="45.94577" lon="4.71436">
        <ele>182</ele>
        <time>2017-04-27T10:15:44Z</time>
      </trkpt>
      <trkpt lat="45.94571" lon="4.71436">
        <ele>182</ele>
        <time>2017-04-27T10:15:45Z</time>
      </trkpt>
      <trkpt lat="45.94566" lon="4.71436">
        <ele>182</ele>
        <time>2017-04-27T10:15:46Z</time>
      </trkpt>
      <trkpt lat="45.94561" lon="4.71437">
        <ele>181</ele>
        <time>2017-04-27T10:15:47Z</time>
      </trkpt>
      <trkpt lat="45.94555" lon="4.71438">
        <ele>181</ele>
        <time>2017-04-27T10:15:48Z</time>
      </trkpt>
      <trkpt lat="45.94549" lon="4.71439">
        <ele>181</ele>
        <time>2017-04-27T10:15:49Z</time>
      </trkpt>
      <trkpt lat="45.94543" lon="4.71441">
        <ele>181</ele>
        <time>2017-04-27T10:15:50Z</time>
      </trkpt>
      <trkpt lat="45.94536" lon="4.71443">
        <ele>181</ele>
        <time>2017-04-27T10:15:51Z</time>
      </trkpt>
      <trkpt lat="45.9453" lon="4.71446">
        <ele>180</ele>
        <time>2017-04-27T10:15:52Z</time>
      </trkpt>
      <trkpt lat="45.94523" lon="4.71448">
        <ele>180</ele>
        <time>2017-04-27T10:15:53Z</time>
      </trkpt>
      <trkpt lat="45.94516" lon="4.71451">
        <ele>180</ele>
        <time>2017-04-27T10:15:54Z</time>
      </trkpt>
      <trkpt lat="45.94509" lon="4.71454">
        <ele>180</ele>
        <time>2017-04-27T10:15:55Z</time>
      </trkpt>
      <trkpt lat="45.94502" lon="4.71458">
        <ele>180</ele>
        <time>2017-04-27T10:15:56Z</time>
      </trkpt>
      <trkpt lat="45.94495" lon="4.71461">
        <ele>179</ele>
        <time>2017-04-27T10:15:57Z</time>
      </trkpt>
      <trkpt lat="45.94487" lon="4.71463">
        <ele>179</ele>
        <time>2017-04-27T10:15:58Z</time>
      </trkpt>
      <trkpt lat="45.94479" lon="4.71466">
        <ele>179</ele>
        <time>2017-04-27T10:15:59Z</time>
      </trkpt>
      <trkpt lat="45.94472" lon="4.7147">
        <ele>179</ele>
        <time>2017-04-27T10:16:00Z</time>
      </trkpt>
      <trkpt lat="45.94464" lon="4.71473">
        <ele>179</ele>
        <time>2017-04-27T10:16:01Z</time>
      </trkpt>
      <trkpt lat="45.94456" lon="4.71476">
        <ele>179</ele>
        <time>2017-04-27T10:16:02Z</time>
      </trkpt>
      <trkpt lat="45.94448" lon="4.71479">
        <ele>179</ele>
        <time>2017-04-27T10:16:03Z</time>
      </trkpt>
      <trkpt lat="45.94441" lon="4.71483">
        <ele>179</ele>
        <time>2017-04-27T10:16:04Z</time>
      </trkpt>
      <trkpt lat="45.94433" lon="4.71486">
        <ele>178</ele>
        <time>2017-04-27T10:16:05Z</time>
      </trkpt>
      <trkpt lat="45.94425" lon="4.71489">
        <ele>178</ele>
        <time>2017-04-27T10:16:06Z</time>
      </trkpt>
      <trkpt lat="45.94418" lon="4.71491">
        <ele>178</ele>
        <time>2017-04-27T10:16:07Z</time>
      </trkpt>
      <trkpt lat="45.9441" lon="4.71494">
        <ele>178</ele>
        <time>2017-04-27T10:16:08Z</time>
      </trkpt>
      <trkpt lat="45.94402" lon="4.71497">
        <ele>178</ele>
        <time>2017-04-27T10:16:09Z</time>
      </trkpt>
      <trkpt lat="45.94394" lon="4.715">
        <ele>178</ele>
        <time>2017-04-27T10:16:10Z</time>
      </trkpt>
      <trkpt lat="45.94387" lon="4.71503">
        <ele>177</ele>
        <time>2017-04-27T10:16:11Z</time>
      </trkpt>
      <trkpt lat="45.94379" lon="4.71506">
        <ele>177</ele>
        <time>2017-04-27T10:16:12Z</time>
      </trkpt>
      <trkpt lat="45.9437" lon="4.71509">
        <ele>176</ele>
        <time>2017-04-27T10:16:13Z</time>
      </trkpt>
      <trkpt lat="45.94363" lon="4.71512">
        <ele>176</ele>
        <time>2017-04-27T10:16:14Z</time>
      </trkpt>
      <trkpt lat="45.94355" lon="4.71515">
        <ele>176</ele>
        <time>2017-04-27T10:16:15Z</time>
      </trkpt>
      <trkpt lat="45.94347" lon="4.71518">
        <ele>176</ele>
        <time>2017-04-27T10:16:16Z</time>
      </trkpt>
      <trkpt lat="45.94339" lon="4.71521">
        <ele>176</ele>
        <time>2017-04-27T10:16:17Z</time>
      </trkpt>
      <trkpt lat="45.94331" lon="4.71525">
        <ele>176</ele>
        <time>2017-04-27T10:16:18Z</time>
      </trkpt>
      <trkpt lat="45.94323" lon="4.71528">
        <ele>176</ele>
        <time>2017-04-27T10:16:19Z</time>
      </trkpt>
      <trkpt lat="45.94315" lon="4.71531">
        <ele>175</ele>
        <time>2017-04-27T10:16:20Z</time>
      </trkpt>
      <trkpt lat="45.94307" lon="4.71534">
        <ele>175</ele>
        <time>2017-04-27T10:16:21Z</time>
      </trkpt>
      <trkpt lat="45.94299" lon="4.71536">
        <ele>175</ele>
        <time>2017-04-27T10:16:22Z</time>
      </trkpt>
      <trkpt lat="45.94291" lon="4.71539">
        <ele>175</ele>
        <time>2017-04-27T10:16:23Z</time>
      </trkpt>
      <trkpt lat="45.94282" lon="4.71543">
        <ele>175</ele>
        <time>2017-04-27T10:16:24Z</time>
      </trkpt>
      <trkpt lat="45.94274" lon="4.71546">
        <ele>175</ele>
        <time>2017-04-27T10:16:25Z</time>
      </trkpt>
      <trkpt lat="45.94266" lon="4.71548">
        <ele>175</ele>
        <time>2017-04-27T10:16:26Z</time>
      </trkpt>
      <trkpt lat="45.94257" lon="4.71551">
        <ele>175</ele>
        <time>2017-04-27T10:16:27Z</time>
      </trkpt>
      <trkpt lat="45.94249" lon="4.71555">
        <ele>174</ele>
        <time>2017-04-27T10:16:28Z</time>
      </trkpt>
      <trkpt lat="45.94241" lon="4.71558">
        <ele>174</ele>
        <time>2017-04-27T10:16:29Z</time>
      </trkpt>
      <trkpt lat="45.94233" lon="4.71561">
        <ele>174</ele>
        <time>2017-04-27T10:16:30Z</time>
      </trkpt>
      <trkpt lat="45.94225" lon="4.71564">
        <ele>174</ele>
        <time>2017-04-27T10:16:31Z</time>
      </trkpt>
      <trkpt lat="45.94218" lon="4.71567">
        <ele>174</ele>
        <time>2017-04-27T10:16:32Z</time>
      </trkpt>
      <trkpt lat="45.9421" lon="4.7157">
        <ele>174</ele>
        <time>2017-04-27T10:16:33Z</time>
      </trkpt>
      <trkpt lat="45.94203" lon="4.71572">
        <ele>174</ele>
        <time>2017-04-27T10:16:34Z</time>
      </trkpt>
      <trkpt lat="45.94195" lon="4.71575">
        <ele>174</ele>
        <time>2017-04-27T10:16:35Z</time>
      </trkpt>
      <trkpt lat="45.94188" lon="4.71578">
        <ele>174</ele>
        <time>2017-04-27T10:16:36Z</time>
      </trkpt>
      <trkpt lat="45.94181" lon="4.71581">
        <ele>174</ele>
        <time>2017-04-27T10:16:37Z</time>
      </trkpt>
      <trkpt lat="45.94175" lon="4.71583">
        <ele>174</ele>
        <time>2017-04-27T10:16:38Z</time>
      </trkpt>
      <trkpt lat="45.94168" lon="4.71586">
        <ele>174</ele>
        <time>2017-04-27T10:16:39Z</time>
      </trkpt>
      <trkpt lat="45.94162" lon="4.71588">
        <ele>174</ele>
        <time>2017-04-27T10:16:40Z</time>
      </trkpt>
      <trkpt lat="45.94155" lon="4.7159">
        <ele>173</ele>
        <time>2017-04-27T10:16:41Z</time>
      </trkpt>
      <trkpt lat="45.94149" lon="4.71593">
        <ele>173</ele>
        <time>2017-04-27T10:16:42Z</time>
      </trkpt>
      <trkpt lat="45.94143" lon="4.71595">
        <ele>173</ele>
        <time>2017-04-27T10:16:43Z</time>
      </trkpt>
      <trkpt lat="45.94137" lon="4.71598">
        <ele>173</ele>
        <time>2017-04-27T10:16:44Z</time>
      </trkpt>
      <trkpt lat="45.94131" lon="4.71601">
        <ele>173</ele>
        <time>2017-04-27T10:16:45Z</time>
      </trkpt>
      <trkpt lat="45.94124" lon="4.71603">
        <ele>173</ele>
        <time>2017-04-27T10:16:46Z</time>
      </trkpt>
      <trkpt lat="45.94118" lon="4.71605">
        <ele>173</ele>
        <time>2017-04-27T10:16:47Z</time>
      </trkpt>
      <trkpt lat="45.94111" lon="4.71608">
        <ele>173</ele>
        <time>2017-04-27T10:16:48Z</time>
      </trkpt>
      <trkpt lat="45.94104" lon="4.71611">
        <ele>173</ele>
        <time>2017-04-27T10:16:49Z</time>
      </trkpt>
      <trkpt lat="45.94097" lon="4.71613">
        <ele>173</ele>
        <time>2017-04-27T10:16:50Z</time>
      </trkpt>
      <trkpt lat="45.9409" lon="4.71616">
        <ele>173</ele>
        <time>2017-04-27T10:16:51Z</time>
      </trkpt>
      <trkpt lat="45.94083" lon="4.71618">
        <ele>174</ele>
        <time>2017-04-27T10:16:52Z</time>
      </trkpt>
      <trkpt lat="45.94076" lon="4.71621">
        <ele>174</ele>
        <time>2017-04-27T10:16:53Z</time>
      </trkpt>
      <trkpt lat="45.9407" lon="4.71623">
        <ele>174</ele>
        <time>2017-04-27T10:16:54Z</time>
      </trkpt>
      <trkpt lat="45.94064" lon="4.71625">
        <ele>174</ele>
        <time>2017-04-27T10:16:55Z</time>
      </trkpt>
      <trkpt lat="45.94058" lon="4.71628">
        <ele>174</ele>
        <time>2017-04-27T10:16:56Z</time>
      </trkpt>
      <trkpt lat="45.94052" lon="4.7163">
        <ele>175</ele>
        <time>2017-04-27T10:16:57Z</time>
      </trkpt>
      <trkpt lat="45.94046" lon="4.71633">
        <ele>175</ele>
        <time>2017-04-27T10:16:58Z</time>
      </trkpt>
      <trkpt lat="45.94041" lon="4.71635">
        <ele>175</ele>
        <time>2017-04-27T10:16:59Z</time>
      </trkpt>
      <trkpt lat="45.94036" lon="4.71637">
        <ele>175</ele>
        <time>2017-04-27T10:17:00Z</time>
      </trkpt>
      <trkpt lat="45.9403" lon="4.7164">
        <ele>175</ele>
        <time>2017-04-27T10:17:01Z</time>
      </trkpt>
      <trkpt lat="45.94024" lon="4.71643">
        <ele>175</ele>
        <time>2017-04-27T10:17:02Z</time>
      </trkpt>
      <trkpt lat="45.94019" lon="4.71646">
        <ele>175</ele>
        <time>2017-04-27T10:17:03Z</time>
      </trkpt>
      <trkpt lat="45.94013" lon="4.7165">
        <ele>176</ele>
        <time>2017-04-27T10:17:04Z</time>
      </trkpt>
      <trkpt lat="45.94007" lon="4.71653">
        <ele>176</ele>
        <time>2017-04-27T10:17:05Z</time>
      </trkpt>
      <trkpt lat="45.94001" lon="4.71656">
        <ele>176</ele>
        <time>2017-04-27T10:17:06Z</time>
      </trkpt>
      <trkpt lat="45.93995" lon="4.71659">
        <ele>177</ele>
        <time>2017-04-27T10:17:07Z</time>
      </trkpt>
      <trkpt lat="45.93989" lon="4.7166">
        <ele>177</ele>
        <time>2017-04-27T10:17:08Z</time>
      </trkpt>
      <trkpt lat="45.93982" lon="4.71662">
        <ele>177</ele>
        <time>2017-04-27T10:17:09Z</time>
      </trkpt>
      <trkpt lat="45.93975" lon="4.71664">
        <ele>177</ele>
        <time>2017-04-27T10:17:10Z</time>
      </trkpt>
      <trkpt lat="45.93968" lon="4.71666">
        <ele>177</ele>
        <time>2017-04-27T10:17:11Z</time>
      </trkpt>
      <trkpt lat="45.93961" lon="4.71669">
        <ele>175</ele>
        <time>2017-04-27T10:17:12Z</time>
      </trkpt>
      <trkpt lat="45.93954" lon="4.71672">
        <ele>175</ele>
        <time>2017-04-27T10:17:13Z</time>
      </trkpt>
      <trkpt lat="45.93947" lon="4.71675">
        <ele>175</ele>
        <time>2017-04-27T10:17:14Z</time>
      </trkpt>
      <trkpt lat="45.93941" lon="4.71677">
        <ele>175</ele>
        <time>2017-04-27T10:17:15Z</time>
      </trkpt>
      <trkpt lat="45.93934" lon="4.7168">
        <ele>175</ele>
        <time>2017-04-27T10:17:16Z</time>
      </trkpt>
      <trkpt lat="45.93927" lon="4.71681">
        <ele>175</ele>
        <time>2017-04-27T10:17:17Z</time>
      </trkpt>
      <trkpt lat="45.9392" lon="4.71684">
        <ele>175</ele>
        <time>2017-04-27T10:17:18Z</time>
      </trkpt>
      <trkpt lat="45.93914" lon="4.71686">
        <ele>174</ele>
        <time>2017-04-27T10:17:19Z</time>
      </trkpt>
      <trkpt lat="45.93908" lon="4.71688">
        <ele>174</ele>
        <time>2017-04-27T10:17:20Z</time>
      </trkpt>
      <trkpt lat="45.93902" lon="4.71691">
        <ele>174</ele>
        <time>2017-04-27T10:17:21Z</time>
      </trkpt>
      <trkpt lat="45.93897" lon="4.71692">
        <ele>174</ele>
        <time>2017-04-27T10:17:22Z</time>
      </trkpt>
      <trkpt lat="45.93891" lon="4.71695">
        <ele>174</ele>
        <time>2017-04-27T10:17:23Z</time>
      </trkpt>
      <trkpt lat="45.93885" lon="4.71696">
        <ele>174</ele>
        <time>2017-04-27T10:17:24Z</time>
      </trkpt>
      <trkpt lat="45.93879" lon="4.71698">
        <ele>174</ele>
        <time>2017-04-27T10:17:25Z</time>
      </trkpt>
      <trkpt lat="45.93873" lon="4.71701">
        <ele>174</ele>
        <time>2017-04-27T10:17:26Z</time>
      </trkpt>
      <trkpt lat="45.93868" lon="4.71703">
        <ele>174</ele>
        <time>2017-04-27T10:17:27Z</time>
      </trkpt>
      <trkpt lat="45.93862" lon="4.71705">
        <ele>174</ele>
        <time>2017-04-27T10:17:28Z</time>
      </trkpt>
      <trkpt lat="45.93856" lon="4.71706">
        <ele>174</ele>
        <time>2017-04-27T10:17:29Z</time>
      </trkpt>
      <trkpt lat="45.9385" lon="4.71709">
        <ele>174</ele>
        <time>2017-04-27T10:17:30Z</time>
      </trkpt>
      <trkpt lat="45.93844" lon="4.71711">
        <ele>174</ele>
        <time>2017-04-27T10:17:31Z</time>
      </trkpt>
      <trkpt lat="45.93838" lon="4.71713">
        <ele>175</ele>
        <time>2017-04-27T10:17:32Z</time>
      </trkpt>
      <trkpt lat="45.93832" lon="4.71715">
        <ele>175</ele>
        <time>2017-04-27T10:17:33Z</time>
      </trkpt>
      <trkpt lat="45.93825" lon="4.71718">
        <ele>175</ele>
        <time>2017-04-27T10:17:34Z</time>
      </trkpt>
      <trkpt lat="45.93818" lon="4.7172">
        <ele>175</ele>
        <time>2017-04-27T10:17:35Z</time>
      </trkpt>
      <trkpt lat="45.93811" lon="4.71722">
        <ele>175</ele>
        <time>2017-04-27T10:17:36Z</time>
      </trkpt>
      <trkpt lat="45.93805" lon="4.71725">
        <ele>175</ele>
        <time>2017-04-27T10:17:37Z</time>
      </trkpt>
      <trkpt lat="45.93799" lon="4.71728">
        <ele>175</ele>
        <time>2017-04-27T10:17:38Z</time>
      </trkpt>
      <trkpt lat="45.93792" lon="4.7173">
        <ele>175</ele>
        <time>2017-04-27T10:17:39Z</time>
      </trkpt>
      <trkpt lat="45.93785" lon="4.71733">
        <ele>175</ele>
        <time>2017-04-27T10:17:40Z</time>
      </trkpt>
      <trkpt lat="45.93778" lon="4.71735">
        <ele>175</ele>
        <time>2017-04-27T10:17:41Z</time>
      </trkpt>
      <trkpt lat="45.93772" lon="4.71737">
        <ele>175</ele>
        <time>2017-04-27T10:17:42Z</time>
      </trkpt>
      <trkpt lat="45.93765" lon="4.7174">
        <ele>175</ele>
        <time>2017-04-27T10:17:43Z</time>
      </trkpt>
      <trkpt lat="45.93759" lon="4.71741">
        <ele>175</ele>
        <time>2017-04-27T10:17:44Z</time>
      </trkpt>
      <trkpt lat="45.93753" lon="4.71743">
        <ele>175</ele>
        <time>2017-04-27T10:17:45Z</time>
      </trkpt>
      <trkpt lat="45.93747" lon="4.71745">
        <ele>175</ele>
        <time>2017-04-27T10:17:46Z</time>
      </trkpt>
      <trkpt lat="45.9374" lon="4.71746">
        <ele>176</ele>
        <time>2017-04-27T10:17:47Z</time>
      </trkpt>
      <trkpt lat="45.93734" lon="4.71748">
        <ele>176</ele>
        <time>2017-04-27T10:17:48Z</time>
      </trkpt>
      <trkpt lat="45.93727" lon="4.71751">
        <ele>176</ele>
        <time>2017-04-27T10:17:49Z</time>
      </trkpt>
      <trkpt lat="45.93721" lon="4.71755">
        <ele>176</ele>
        <time>2017-04-27T10:17:50Z</time>
      </trkpt>
      <trkpt lat="45.93715" lon="4.7176">
        <ele>176</ele>
        <time>2017-04-27T10:17:51Z</time>
      </trkpt>
      <trkpt lat="45.93712" lon="4.71767">
        <ele>176</ele>
        <time>2017-04-27T10:17:52Z</time>
      </trkpt>
      <trkpt lat="45.9371" lon="4.71777">
        <ele>176</ele>
        <time>2017-04-27T10:17:53Z</time>
      </trkpt>
      <trkpt lat="45.93708" lon="4.71786">
        <ele>176</ele>
        <time>2017-04-27T10:17:54Z</time>
      </trkpt>
      <trkpt lat="45.93706" lon="4.71796">
        <ele>176</ele>
        <time>2017-04-27T10:17:55Z</time>
      </trkpt>
      <trkpt lat="45.93704" lon="4.71805">
        <ele>176</ele>
        <time>2017-04-27T10:17:56Z</time>
      </trkpt>
      <trkpt lat="45.93702" lon="4.71814">
        <ele>176</ele>
        <time>2017-04-27T10:17:57Z</time>
      </trkpt>
      <trkpt lat="45.93699" lon="4.71823">
        <ele>176</ele>
        <time>2017-04-27T10:17:58Z</time>
      </trkpt>
      <trkpt lat="45.93696" lon="4.71831">
        <ele>176</ele>
        <time>2017-04-27T10:17:59Z</time>
      </trkpt>
      <trkpt lat="45.93693" lon="4.71839">
        <ele>175</ele>
        <time>2017-04-27T10:18:00Z</time>
      </trkpt>
      <trkpt lat="45.9369" lon="4.71847">
        <ele>175</ele>
        <time>2017-04-27T10:18:01Z</time>
      </trkpt>
      <trkpt lat="45.93687" lon="4.71855">
        <ele>175</ele>
        <time>2017-04-27T10:18:02Z</time>
      </trkpt>
      <trkpt lat="45.93685" lon="4.71862">
        <ele>175</ele>
        <time>2017-04-27T10:18:03Z</time>
      </trkpt>
      <trkpt lat="45.93682" lon="4.71869">
        <ele>175</ele>
        <time>2017-04-27T10:18:04Z</time>
      </trkpt>
      <trkpt lat="45.93679" lon="4.71876">
        <ele>175</ele>
        <time>2017-04-27T10:18:05Z</time>
      </trkpt>
      <trkpt lat="45.93676" lon="4.71883">
        <ele>175</ele>
        <time>2017-04-27T10:18:06Z</time>
      </trkpt>
      <trkpt lat="45.93674" lon="4.71891">
        <ele>175</ele>
        <time>2017-04-27T10:18:07Z</time>
      </trkpt>
      <trkpt lat="45.93671" lon="4.71901">
        <ele>175</ele>
        <time>2017-04-27T10:18:08Z</time>
      </trkpt>
      <trkpt lat="45.93668" lon="4.7191">
        <ele>175</ele>
        <time>2017-04-27T10:18:09Z</time>
      </trkpt>
      <trkpt lat="45.93665" lon="4.71919">
        <ele>175</ele>
        <time>2017-04-27T10:18:10Z</time>
      </trkpt>
      <trkpt lat="45.93662" lon="4.71928">
        <ele>175</ele>
        <time>2017-04-27T10:18:11Z</time>
      </trkpt>
      <trkpt lat="45.93659" lon="4.71936">
        <ele>175</ele>
        <time>2017-04-27T10:18:12Z</time>
      </trkpt>
      <trkpt lat="45.93656" lon="4.71944">
        <ele>175</ele>
        <time>2017-04-27T10:18:13Z</time>
      </trkpt>
      <trkpt lat="45.93654" lon="4.71952">
        <ele>175</ele>
        <time>2017-04-27T10:18:14Z</time>
      </trkpt>
      <trkpt lat="45.9365" lon="4.71959">
        <ele>175</ele>
        <time>2017-04-27T10:18:15Z</time>
      </trkpt>
      <trkpt lat="45.93647" lon="4.71966">
        <ele>175</ele>
        <time>2017-04-27T10:18:16Z</time>
      </trkpt>
      <trkpt lat="45.93644" lon="4.71973">
        <ele>175</ele>
        <time>2017-04-27T10:18:17Z</time>
      </trkpt>
      <trkpt lat="45.93642" lon="4.7198">
        <ele>175</ele>
        <time>2017-04-27T10:18:18Z</time>
      </trkpt>
      <trkpt lat="45.93639" lon="4.71987">
        <ele>175</ele>
        <time>2017-04-27T10:18:19Z</time>
      </trkpt>
      <trkpt lat="45.93636" lon="4.71994">
        <ele>175</ele>
        <time>2017-04-27T10:18:20Z</time>
      </trkpt>
      <trkpt lat="45.93634" lon="4.72">
        <ele>174</ele>
        <time>2017-04-27T10:18:21Z</time>
      </trkpt>
      <trkpt lat="45.93631" lon="4.72007">
        <ele>174</ele>
        <time>2017-04-27T10:18:22Z</time>
      </trkpt>
      <trkpt lat="45.93629" lon="4.72014">
        <ele>175</ele>
        <time>2017-04-27T10:18:23Z</time>
      </trkpt>
      <trkpt lat="45.93627" lon="4.72021">
        <ele>175</ele>
        <time>2017-04-27T10:18:24Z</time>
      </trkpt>
      <trkpt lat="45.93624" lon="4.72028">
        <ele>175</ele>
        <time>2017-04-27T10:18:25Z</time>
      </trkpt>
      <trkpt lat="45.93621" lon="4.72034">
        <ele>175</ele>
        <time>2017-04-27T10:18:26Z</time>
      </trkpt>
      <trkpt lat="45.93618" lon="4.72041">
        <ele>175</ele>
        <time>2017-04-27T10:18:27Z</time>
      </trkpt>
      <trkpt lat="45.93614" lon="4.72048">
        <ele>175</ele>
        <time>2017-04-27T10:18:28Z</time>
      </trkpt>
      <trkpt lat="45.93612" lon="4.72055">
        <ele>175</ele>
        <time>2017-04-27T10:18:29Z</time>
      </trkpt>
      <trkpt lat="45.9361" lon="4.72062">
        <ele>175</ele>
        <time>2017-04-27T10:18:30Z</time>
      </trkpt>
      <trkpt lat="45.93608" lon="4.72069">
        <ele>175</ele>
        <time>2017-04-27T10:18:31Z</time>
      </trkpt>
      <trkpt lat="45.93605" lon="4.72075">
        <ele>175</ele>
        <time>2017-04-27T10:18:32Z</time>
      </trkpt>
      <trkpt lat="45.93601" lon="4.72082">
        <ele>175</ele>
        <time>2017-04-27T10:18:33Z</time>
      </trkpt>
      <trkpt lat="45.93598" lon="4.72087">
        <ele>175</ele>
        <time>2017-04-27T10:18:34Z</time>
      </trkpt>
      <trkpt lat="45.93595" lon="4.72093">
        <ele>175</ele>
        <time>2017-04-27T10:18:35Z</time>
      </trkpt>
      <trkpt lat="45.93593" lon="4.72099">
        <ele>175</ele>
        <time>2017-04-27T10:18:36Z</time>
      </trkpt>
      <trkpt lat="45.9359" lon="4.72105">
        <ele>174</ele>
        <time>2017-04-27T10:18:37Z</time>
      </trkpt>
      <trkpt lat="45.93588" lon="4.72112">
        <ele>174</ele>
        <time>2017-04-27T10:18:38Z</time>
      </trkpt>
      <trkpt lat="45.93585" lon="4.72119">
        <ele>174</ele>
        <time>2017-04-27T10:18:39Z</time>
      </trkpt>
      <trkpt lat="45.93582" lon="4.72124">
        <ele>175</ele>
        <time>2017-04-27T10:18:40Z</time>
      </trkpt>
      <trkpt lat="45.93579" lon="4.7213">
        <ele>174</ele>
        <time>2017-04-27T10:18:41Z</time>
      </trkpt>
      <trkpt lat="45.93577" lon="4.72137">
        <ele>174</ele>
        <time>2017-04-27T10:18:42Z</time>
      </trkpt>
      <trkpt lat="45.93575" lon="4.72145">
        <ele>174</ele>
        <time>2017-04-27T10:18:43Z</time>
      </trkpt>
      <trkpt lat="45.93572" lon="4.72152">
        <ele>174</ele>
        <time>2017-04-27T10:18:44Z</time>
      </trkpt>
      <trkpt lat="45.9357" lon="4.7216">
        <ele>174</ele>
        <time>2017-04-27T10:18:45Z</time>
      </trkpt>
      <trkpt lat="45.93567" lon="4.72168">
        <ele>173</ele>
        <time>2017-04-27T10:18:46Z</time>
      </trkpt>
      <trkpt lat="45.93565" lon="4.72175">
        <ele>173</ele>
        <time>2017-04-27T10:18:47Z</time>
      </trkpt>
      <trkpt lat="45.93562" lon="4.72183">
        <ele>173</ele>
        <time>2017-04-27T10:18:48Z</time>
      </trkpt>
      <trkpt lat="45.93559" lon="4.7219">
        <ele>173</ele>
        <time>2017-04-27T10:18:49Z</time>
      </trkpt>
      <trkpt lat="45.93556" lon="4.72197">
        <ele>173</ele>
        <time>2017-04-27T10:18:50Z</time>
      </trkpt>
      <trkpt lat="45.93555" lon="4.72205">
        <ele>173</ele>
        <time>2017-04-27T10:18:51Z</time>
      </trkpt>
      <trkpt lat="45.93553" lon="4.72213">
        <ele>173</ele>
        <time>2017-04-27T10:18:52Z</time>
      </trkpt>
      <trkpt lat="45.9355" lon="4.7222">
        <ele>173</ele>
        <time>2017-04-27T10:18:53Z</time>
      </trkpt>
      <trkpt lat="45.93547" lon="4.72227">
        <ele>172</ele>
        <time>2017-04-27T10:18:54Z</time>
      </trkpt>
      <trkpt lat="45.93544" lon="4.72233">
        <ele>172</ele>
        <time>2017-04-27T10:18:55Z</time>
      </trkpt>
      <trkpt lat="45.93541" lon="4.72239">
        <ele>172</ele>
        <time>2017-04-27T10:18:56Z</time>
      </trkpt>
      <trkpt lat="45.93538" lon="4.72246">
        <ele>172</ele>
        <time>2017-04-27T10:18:57Z</time>
      </trkpt>
      <trkpt lat="45.93536" lon="4.72252">
        <ele>172</ele>
        <time>2017-04-27T10:18:58Z</time>
      </trkpt>
      <trkpt lat="45.93533" lon="4.72258">
        <ele>172</ele>
        <time>2017-04-27T10:18:59Z</time>
      </trkpt>
      <trkpt lat="45.9353" lon="4.72264">
        <ele>172</ele>
        <time>2017-04-27T10:19:00Z</time>
      </trkpt>
      <trkpt lat="45.93528" lon="4.72271">
        <ele>172</ele>
        <time>2017-04-27T10:19:01Z</time>
      </trkpt>
      <trkpt lat="45.93525" lon="4.72277">
        <ele>172</ele>
        <time>2017-04-27T10:19:02Z</time>
      </trkpt>
      <trkpt lat="45.93522" lon="4.72284">
        <ele>172</ele>
        <time>2017-04-27T10:19:03Z</time>
      </trkpt>
      <trkpt lat="45.93519" lon="4.72291">
        <ele>172</ele>
        <time>2017-04-27T10:19:04Z</time>
      </trkpt>
      <trkpt lat="45.93515" lon="4.72298">
        <ele>172</ele>
        <time>2017-04-27T10:19:05Z</time>
      </trkpt>
      <trkpt lat="45.93511" lon="4.72305">
        <ele>173</ele>
        <time>2017-04-27T10:19:06Z</time>
      </trkpt>
      <trkpt lat="45.93507" lon="4.72312">
        <ele>173</ele>
        <time>2017-04-27T10:19:07Z</time>
      </trkpt>
      <trkpt lat="45.93502" lon="4.72319">
        <ele>173</ele>
        <time>2017-04-27T10:19:08Z</time>
      </trkpt>
      <trkpt lat="45.93497" lon="4.72326">
        <ele>173</ele>
        <time>2017-04-27T10:19:09Z</time>
      </trkpt>
      <trkpt lat="45.93492" lon="4.72333">
        <ele>173</ele>
        <time>2017-04-27T10:19:10Z</time>
      </trkpt>
      <trkpt lat="45.93487" lon="4.72339">
        <ele>173</ele>
        <time>2017-04-27T10:19:11Z</time>
      </trkpt>
      <trkpt lat="45.93482" lon="4.72346">
        <ele>173</ele>
        <time>2017-04-27T10:19:12Z</time>
      </trkpt>
      <trkpt lat="45.93477" lon="4.72352">
        <ele>173</ele>
        <time>2017-04-27T10:19:13Z</time>
      </trkpt>
      <trkpt lat="45.93472" lon="4.72359">
        <ele>173</ele>
        <time>2017-04-27T10:19:14Z</time>
      </trkpt>
      <trkpt lat="45.93468" lon="4.72366">
        <ele>173</ele>
        <time>2017-04-27T10:19:15Z</time>
      </trkpt>
      <trkpt lat="45.93463" lon="4.72371">
        <ele>173</ele>
        <time>2017-04-27T10:19:16Z</time>
      </trkpt>
      <trkpt lat="45.93458" lon="4.72377">
        <ele>173</ele>
        <time>2017-04-27T10:19:17Z</time>
      </trkpt>
      <trkpt lat="45.93453" lon="4.72383">
        <ele>173</ele>
        <time>2017-04-27T10:19:18Z</time>
      </trkpt>
      <trkpt lat="45.93448" lon="4.72388">
        <ele>173</ele>
        <time>2017-04-27T10:19:19Z</time>
      </trkpt>
      <trkpt lat="45.93443" lon="4.72393">
        <ele>173</ele>
        <time>2017-04-27T10:19:20Z</time>
      </trkpt>
      <trkpt lat="45.93438" lon="4.72397">
        <ele>173</ele>
        <time>2017-04-27T10:19:21Z</time>
      </trkpt>
      <trkpt lat="45.93432" lon="4.724">
        <ele>174</ele>
        <time>2017-04-27T10:19:22Z</time>
      </trkpt>
      <trkpt lat="45.93425" lon="4.72402">
        <ele>174</ele>
        <time>2017-04-27T10:19:23Z</time>
      </trkpt>
      <trkpt lat="45.93419" lon="4.72405">
        <ele>174</ele>
        <time>2017-04-27T10:19:24Z</time>
      </trkpt>
      <trkpt lat="45.93413" lon="4.72407">
        <ele>174</ele>
        <time>2017-04-27T10:19:25Z</time>
      </trkpt>
      <trkpt lat="45.93408" lon="4.72409">
        <ele>174</ele>
        <time>2017-04-27T10:19:26Z</time>
      </trkpt>
      <trkpt lat="45.93402" lon="4.7241">
        <ele>174</ele>
        <time>2017-04-27T10:19:27Z</time>
      </trkpt>
      <trkpt lat="45.93396" lon="4.72408">
        <ele>174</ele>
        <time>2017-04-27T10:19:28Z</time>
      </trkpt>
      <trkpt lat="45.9339" lon="4.72408">
        <ele>174</ele>
        <time>2017-04-27T10:19:29Z</time>
      </trkpt>
      <trkpt lat="45.93385" lon="4.7241">
        <ele>174</ele>
        <time>2017-04-27T10:19:30Z</time>
      </trkpt>
      <trkpt lat="45.93381" lon="4.72415">
        <ele>174</ele>
        <time>2017-04-27T10:19:31Z</time>
      </trkpt>
      <trkpt lat="45.93378" lon="4.72421">
        <ele>173</ele>
        <time>2017-04-27T10:19:32Z</time>
      </trkpt>
      <trkpt lat="45.93379" lon="4.72429">
        <ele>173</ele>
        <time>2017-04-27T10:19:33Z</time>
      </trkpt>
      <trkpt lat="45.93381" lon="4.72436">
        <ele>173</ele>
        <time>2017-04-27T10:19:34Z</time>
      </trkpt>
      <trkpt lat="45.93384" lon="4.72442">
        <ele>173</ele>
        <time>2017-04-27T10:19:35Z</time>
      </trkpt>
      <trkpt lat="45.93386" lon="4.72449">
        <ele>173</ele>
        <time>2017-04-27T10:19:36Z</time>
      </trkpt>
      <trkpt lat="45.93387" lon="4.72455">
        <ele>173</ele>
        <time>2017-04-27T10:19:37Z</time>
      </trkpt>
      <trkpt lat="45.93387" lon="4.72462">
        <ele>173</ele>
        <time>2017-04-27T10:19:38Z</time>
      </trkpt>
      <trkpt lat="45.93384" lon="4.72468">
        <ele>173</ele>
        <time>2017-04-27T10:19:39Z</time>
      </trkpt>
      <trkpt lat="45.93379" lon="4.72472">
        <ele>173</ele>
        <time>2017-04-27T10:19:40Z</time>
      </trkpt>
      <trkpt lat="45.93374" lon="4.72477">
        <ele>173</ele>
        <time>2017-04-27T10:19:41Z</time>
      </trkpt>
      <trkpt lat="45.9337" lon="4.72482">
        <ele>173</ele>
        <time>2017-04-27T10:19:42Z</time>
      </trkpt>
      <trkpt lat="45.93365" lon="4.72488">
        <ele>173</ele>
        <time>2017-04-27T10:19:43Z</time>
      </trkpt>
      <trkpt lat="45.93361" lon="4.72493">
        <ele>173</ele>
        <time>2017-04-27T10:19:44Z</time>
      </trkpt>
      <trkpt lat="45.93356" lon="4.72498">
        <ele>173</ele>
        <time>2017-04-27T10:19:45Z</time>
      </trkpt>
      <trkpt lat="45.93352" lon="4.72503">
        <ele>172</ele>
        <time>2017-04-27T10:19:46Z</time>
      </trkpt>
      <trkpt lat="45.93349" lon="4.72509">
        <ele>172</ele>
        <time>2017-04-27T10:19:47Z</time>
      </trkpt>
      <trkpt lat="45.93345" lon="4.72515">
        <ele>172</ele>
        <time>2017-04-27T10:19:48Z</time>
      </trkpt>
      <trkpt lat="45.93341" lon="4.7252">
        <ele>172</ele>
        <time>2017-04-27T10:19:49Z</time>
      </trkpt>
      <trkpt lat="45.93336" lon="4.72525">
        <ele>172</ele>
        <time>2017-04-27T10:19:50Z</time>
      </trkpt>
      <trkpt lat="45.93332" lon="4.7253">
        <ele>172</ele>
        <time>2017-04-27T10:19:51Z</time>
      </trkpt>
      <trkpt lat="45.93328" lon="4.72535">
        <ele>172</ele>
        <time>2017-04-27T10:19:52Z</time>
      </trkpt>
      <trkpt lat="45.93324" lon="4.7254">
        <ele>172</ele>
        <time>2017-04-27T10:19:53Z</time>
      </trkpt>
      <trkpt lat="45.9332" lon="4.72545">
        <ele>172</ele>
        <time>2017-04-27T10:19:54Z</time>
      </trkpt>
      <trkpt lat="45.93316" lon="4.7255">
        <ele>172</ele>
        <time>2017-04-27T10:19:55Z</time>
      </trkpt>
      <trkpt lat="45.93312" lon="4.72555">
        <ele>172</ele>
        <time>2017-04-27T10:19:56Z</time>
      </trkpt>
      <trkpt lat="45.93307" lon="4.7256">
        <ele>172</ele>
        <time>2017-04-27T10:19:57Z</time>
      </trkpt>
      <trkpt lat="45.93302" lon="4.72565">
        <ele>172</ele>
        <time>2017-04-27T10:19:58Z</time>
      </trkpt>
      <trkpt lat="45.93296" lon="4.7257">
        <ele>171</ele>
        <time>2017-04-27T10:19:59Z</time>
      </trkpt>
      <trkpt lat="45.93291" lon="4.72576">
        <ele>171</ele>
        <time>2017-04-27T10:20:00Z</time>
      </trkpt>
      <trkpt lat="45.93286" lon="4.72582">
        <ele>171</ele>
        <time>2017-04-27T10:20:01Z</time>
      </trkpt>
      <trkpt lat="45.93281" lon="4.72588">
        <ele>170</ele>
        <time>2017-04-27T10:20:02Z</time>
      </trkpt>
      <trkpt lat="45.93276" lon="4.72594">
        <ele>170</ele>
        <time>2017-04-27T10:20:03Z</time>
      </trkpt>
      <trkpt lat="45.93271" lon="4.72599">
        <ele>170</ele>
        <time>2017-04-27T10:20:04Z</time>
      </trkpt>
      <trkpt lat="45.93266" lon="4.72604">
        <ele>170</ele>
        <time>2017-04-27T10:20:05Z</time>
      </trkpt>
      <trkpt lat="45.93261" lon="4.7261">
        <ele>170</ele>
        <time>2017-04-27T10:20:06Z</time>
      </trkpt>
      <trkpt lat="45.93257" lon="4.72615">
        <ele>170</ele>
        <time>2017-04-27T10:20:07Z</time>
      </trkpt>
      <trkpt lat="45.93252" lon="4.72619">
        <ele>170</ele>
        <time>2017-04-27T10:20:08Z</time>
      </trkpt>
      <trkpt lat="45.93248" lon="4.72624">
        <ele>170</ele>
        <time>2017-04-27T10:20:09Z</time>
      </trkpt>
      <trkpt lat="45.93243" lon="4.72629">
        <ele>170</ele>
        <time>2017-04-27T10:20:10Z</time>
      </trkpt>
      <trkpt lat="45.93238" lon="4.72635">
        <ele>170</ele>
        <time>2017-04-27T10:20:11Z</time>
      </trkpt>
      <trkpt lat="45.93234" lon="4.72641">
        <ele>170</ele>
        <time>2017-04-27T10:20:12Z</time>
      </trkpt>
      <trkpt lat="45.9323" lon="4.72646">
        <ele>170</ele>
        <time>2017-04-27T10:20:13Z</time>
      </trkpt>
      <trkpt lat="45.93225" lon="4.72651">
        <ele>170</ele>
        <time>2017-04-27T10:20:14Z</time>
      </trkpt>
      <trkpt lat="45.93221" lon="4.72656">
        <ele>170</ele>
        <time>2017-04-27T10:20:15Z</time>
      </trkpt>
      <trkpt lat="45.93216" lon="4.72662">
        <ele>170</ele>
        <time>2017-04-27T10:20:16Z</time>
      </trkpt>
      <trkpt lat="45.93212" lon="4.72667">
        <ele>170</ele>
        <time>2017-04-27T10:20:17Z</time>
      </trkpt>
      <trkpt lat="45.93208" lon="4.72672">
        <ele>169</ele>
        <time>2017-04-27T10:20:18Z</time>
      </trkpt>
      <trkpt lat="45.93204" lon="4.72677">
        <ele>169</ele>
        <time>2017-04-27T10:20:19Z</time>
      </trkpt>
      <trkpt lat="45.93199" lon="4.72683">
        <ele>169</ele>
        <time>2017-04-27T10:20:20Z</time>
      </trkpt>
      <trkpt lat="45.93195" lon="4.72688">
        <ele>169</ele>
        <time>2017-04-27T10:20:21Z</time>
      </trkpt>
      <trkpt lat="45.9319" lon="4.72693">
        <ele>169</ele>
        <time>2017-04-27T10:20:22Z</time>
      </trkpt>
      <trkpt lat="45.93185" lon="4.72698">
        <ele>169</ele>
        <time>2017-04-27T10:20:23Z</time>
      </trkpt>
      <trkpt lat="45.93181" lon="4.72703">
        <ele>169</ele>
        <time>2017-04-27T10:20:24Z</time>
      </trkpt>
      <trkpt lat="45.93177" lon="4.72708">
        <ele>169</ele>
        <time>2017-04-27T10:20:25Z</time>
      </trkpt>
      <trkpt lat="45.93173" lon="4.72713">
        <ele>170</ele>
        <time>2017-04-27T10:20:26Z</time>
      </trkpt>
      <trkpt lat="45.93168" lon="4.72718">
        <ele>170</ele>
        <time>2017-04-27T10:20:27Z</time>
      </trkpt>
      <trkpt lat="45.93164" lon="4.72723">
        <ele>170</ele>
        <time>2017-04-27T10:20:28Z</time>
      </trkpt>
      <trkpt lat="45.93159" lon="4.72728">
        <ele>170</ele>
        <time>2017-04-27T10:20:29Z</time>
      </trkpt>
      <trkpt lat="45.93155" lon="4.72733">
        <ele>170</ele>
        <time>2017-04-27T10:20:30Z</time>
      </trkpt>
      <trkpt lat="45.9315" lon="4.72739">
        <ele>170</ele>
        <time>2017-04-27T10:20:31Z</time>
      </trkpt>
      <trkpt lat="45.93145" lon="4.72744">
        <ele>170</ele>
        <time>2017-04-27T10:20:32Z</time>
      </trkpt>
      <trkpt lat="45.9314" lon="4.7275">
        <ele>170</ele>
        <time>2017-04-27T10:20:33Z</time>
      </trkpt>
      <trkpt lat="45.93135" lon="4.72755">
        <ele>171</ele>
        <time>2017-04-27T10:20:34Z</time>
      </trkpt>
      <trkpt lat="45.93131" lon="4.72761">
        <ele>171</ele>
        <time>2017-04-27T10:20:35Z</time>
      </trkpt>
      <trkpt lat="45.93126" lon="4.72767">
        <ele>171</ele>
        <time>2017-04-27T10:20:36Z</time>
      </trkpt>
      <trkpt lat="45.93121" lon="4.72772">
        <ele>171</ele>
        <time>2017-04-27T10:20:37Z</time>
      </trkpt>
      <trkpt lat="45.93116" lon="4.72778">
        <ele>171</ele>
        <time>2017-04-27T10:20:38Z</time>
      </trkpt>
      <trkpt lat="45.93112" lon="4.72785">
        <ele>171</ele>
        <time>2017-04-27T10:20:39Z</time>
      </trkpt>
      <trkpt lat="45.93107" lon="4.7279">
        <ele>171</ele>
        <time>2017-04-27T10:20:40Z</time>
      </trkpt>
      <trkpt lat="45.93102" lon="4.72796">
        <ele>171</ele>
        <time>2017-04-27T10:20:41Z</time>
      </trkpt>
      <trkpt lat="45.93098" lon="4.72802">
        <ele>171</ele>
        <time>2017-04-27T10:20:42Z</time>
      </trkpt>
      <trkpt lat="45.93093" lon="4.72807">
        <ele>172</ele>
        <time>2017-04-27T10:20:43Z</time>
      </trkpt>
      <trkpt lat="45.93088" lon="4.72813">
        <ele>172</ele>
        <time>2017-04-27T10:20:44Z</time>
      </trkpt>
      <trkpt lat="45.93083" lon="4.72818">
        <ele>172</ele>
        <time>2017-04-27T10:20:45Z</time>
      </trkpt>
      <trkpt lat="45.93078" lon="4.72823">
        <ele>173</ele>
        <time>2017-04-27T10:20:46Z</time>
      </trkpt>
      <trkpt lat="45.93074" lon="4.72828">
        <ele>173</ele>
        <time>2017-04-27T10:20:47Z</time>
      </trkpt>
      <trkpt lat="45.93069" lon="4.72832">
        <ele>173</ele>
        <time>2017-04-27T10:20:48Z</time>
      </trkpt>
      <trkpt lat="45.93065" lon="4.72836">
        <ele>173</ele>
        <time>2017-04-27T10:20:49Z</time>
      </trkpt>
      <trkpt lat="45.93061" lon="4.72838">
        <ele>173</ele>
        <time>2017-04-27T10:20:50Z</time>
      </trkpt>
      <trkpt lat="45.93057" lon="4.72841">
        <ele>172</ele>
        <time>2017-04-27T10:20:51Z</time>
      </trkpt>
      <trkpt lat="45.93054" lon="4.72847">
        <ele>172</ele>
        <time>2017-04-27T10:20:52Z</time>
      </trkpt>
      <trkpt lat="45.93049" lon="4.72852">
        <ele>172</ele>
        <time>2017-04-27T10:20:53Z</time>
      </trkpt>
      <trkpt lat="45.93044" lon="4.72855">
        <ele>172</ele>
        <time>2017-04-27T10:20:54Z</time>
      </trkpt>
      <trkpt lat="45.9304" lon="4.72862">
        <ele>172</ele>
        <time>2017-04-27T10:20:55Z</time>
      </trkpt>
      <trkpt lat="45.93035" lon="4.72867">
        <ele>172</ele>
        <time>2017-04-27T10:20:56Z</time>
      </trkpt>
      <trkpt lat="45.93031" lon="4.72873">
        <ele>172</ele>
        <time>2017-04-27T10:20:57Z</time>
      </trkpt>
      <trkpt lat="45.93027" lon="4.72879">
        <ele>172</ele>
        <time>2017-04-27T10:20:58Z</time>
      </trkpt>
      <trkpt lat="45.93023" lon="4.72885">
        <ele>172</ele>
        <time>2017-04-27T10:20:59Z</time>
      </trkpt>
      <trkpt lat="45.93019" lon="4.72891">
        <ele>172</ele>
        <time>2017-04-27T10:21:00Z</time>
      </trkpt>
      <trkpt lat="45.93015" lon="4.72896">
        <ele>172</ele>
        <time>2017-04-27T10:21:01Z</time>
      </trkpt>
      <trkpt lat="45.93011" lon="4.72902">
        <ele>172</ele>
        <time>2017-04-27T10:21:02Z</time>
      </trkpt>
      <trkpt lat="45.93007" lon="4.72907">
        <ele>171</ele>
        <time>2017-04-27T10:21:03Z</time>
      </trkpt>
      <trkpt lat="45.93003" lon="4.72912">
        <ele>171</ele>
        <time>2017-04-27T10:21:04Z</time>
      </trkpt>
      <trkpt lat="45.92999" lon="4.72917">
        <ele>171</ele>
        <time>2017-04-27T10:21:05Z</time>
      </trkpt>
      <trkpt lat="45.92995" lon="4.72922">
        <ele>171</ele>
        <time>2017-04-27T10:21:06Z</time>
      </trkpt>
      <trkpt lat="45.9299" lon="4.72927">
        <ele>171</ele>
        <time>2017-04-27T10:21:07Z</time>
      </trkpt>
      <trkpt lat="45.92986" lon="4.72932">
        <ele>171</ele>
        <time>2017-04-27T10:21:08Z</time>
      </trkpt>
      <trkpt lat="45.92982" lon="4.72937">
        <ele>171</ele>
        <time>2017-04-27T10:21:09Z</time>
      </trkpt>
      <trkpt lat="45.92978" lon="4.72942">
        <ele>171</ele>
        <time>2017-04-27T10:21:10Z</time>
      </trkpt>
      <trkpt lat="45.92974" lon="4.72947">
        <ele>171</ele>
        <time>2017-04-27T10:21:11Z</time>
      </trkpt>
      <trkpt lat="45.92969" lon="4.72952">
        <ele>171</ele>
        <time>2017-04-27T10:21:12Z</time>
      </trkpt>
      <trkpt lat="45.92965" lon="4.72957">
        <ele>171</ele>
        <time>2017-04-27T10:21:13Z</time>
      </trkpt>
      <trkpt lat="45.92962" lon="4.72963">
        <ele>171</ele>
        <time>2017-04-27T10:21:14Z</time>
      </trkpt>
      <trkpt lat="45.92958" lon="4.72968">
        <ele>171</ele>
        <time>2017-04-27T10:21:15Z</time>
      </trkpt>
      <trkpt lat="45.92954" lon="4.72973">
        <ele>171</ele>
        <time>2017-04-27T10:21:16Z</time>
      </trkpt>
      <trkpt lat="45.92949" lon="4.72978">
        <ele>171</ele>
        <time>2017-04-27T10:21:17Z</time>
      </trkpt>
      <trkpt lat="45.92945" lon="4.72983">
        <ele>171</ele>
        <time>2017-04-27T10:21:18Z</time>
      </trkpt>
      <trkpt lat="45.9294" lon="4.72988">
        <ele>171</ele>
        <time>2017-04-27T10:21:19Z</time>
      </trkpt>
      <trkpt lat="45.92936" lon="4.72994">
        <ele>171</ele>
        <time>2017-04-27T10:21:20Z</time>
      </trkpt>
      <trkpt lat="45.92932" lon="4.72999">
        <ele>172</ele>
        <time>2017-04-27T10:21:21Z</time>
      </trkpt>
      <trkpt lat="45.92927" lon="4.73004">
        <ele>172</ele>
        <time>2017-04-27T10:21:22Z</time>
      </trkpt>
      <trkpt lat="45.92923" lon="4.73009">
        <ele>172</ele>
        <time>2017-04-27T10:21:23Z</time>
      </trkpt>
      <trkpt lat="45.92919" lon="4.73014">
        <ele>172</ele>
        <time>2017-04-27T10:21:24Z</time>
      </trkpt>
      <trkpt lat="45.92915" lon="4.7302">
        <ele>172</ele>
        <time>2017-04-27T10:21:25Z</time>
      </trkpt>
      <trkpt lat="45.9291" lon="4.73025">
        <ele>172</ele>
        <time>2017-04-27T10:21:26Z</time>
      </trkpt>
      <trkpt lat="45.92907" lon="4.7303">
        <ele>172</ele>
        <time>2017-04-27T10:21:27Z</time>
      </trkpt>
      <trkpt lat="45.92903" lon="4.73035">
        <ele>172</ele>
        <time>2017-04-27T10:21:28Z</time>
      </trkpt>
      <trkpt lat="45.92899" lon="4.7304">
        <ele>172</ele>
        <time>2017-04-27T10:21:29Z</time>
      </trkpt>
      <trkpt lat="45.92896" lon="4.73045">
        <ele>172</ele>
        <time>2017-04-27T10:21:30Z</time>
      </trkpt>
      <trkpt lat="45.92892" lon="4.7305">
        <ele>172</ele>
        <time>2017-04-27T10:21:31Z</time>
      </trkpt>
      <trkpt lat="45.92889" lon="4.73056">
        <ele>172</ele>
        <time>2017-04-27T10:21:32Z</time>
      </trkpt>
      <trkpt lat="45.92885" lon="4.73062">
        <ele>172</ele>
        <time>2017-04-27T10:21:33Z</time>
      </trkpt>
      <trkpt lat="45.92881" lon="4.73067">
        <ele>172</ele>
        <time>2017-04-27T10:21:34Z</time>
      </trkpt>
      <trkpt lat="45.92877" lon="4.73073">
        <ele>172</ele>
        <time>2017-04-27T10:21:35Z</time>
      </trkpt>
      <trkpt lat="45.92873" lon="4.73078">
        <ele>172</ele>
        <time>2017-04-27T10:21:36Z</time>
      </trkpt>
      <trkpt lat="45.92869" lon="4.73083">
        <ele>172</ele>
        <time>2017-04-27T10:21:37Z</time>
      </trkpt>
      <trkpt lat="45.92865" lon="4.73088">
        <ele>172</ele>
        <time>2017-04-27T10:21:38Z</time>
      </trkpt>
      <trkpt lat="45.92861" lon="4.73093">
        <ele>171</ele>
        <time>2017-04-27T10:21:39Z</time>
      </trkpt>
      <trkpt lat="45.92858" lon="4.73098">
        <ele>171</ele>
        <time>2017-04-27T10:21:40Z</time>
      </trkpt>
      <trkpt lat="45.9285" lon="4.73105">
        <ele>171</ele>
        <time>2017-04-27T10:21:42Z</time>
      </trkpt>
      <trkpt lat="45.92847" lon="4.73106">
        <ele>171</ele>
        <time>2017-04-27T10:21:43Z</time>
      </trkpt>
      <trkpt lat="45.92843" lon="4.73099">
        <ele>171</ele>
        <time>2017-04-27T10:21:45Z</time>
      </trkpt>
      <trkpt lat="45.92843" lon="4.73093">
        <ele>171</ele>
        <time>2017-04-27T10:21:46Z</time>
      </trkpt>
      <trkpt lat="45.92843" lon="4.73086">
        <ele>171</ele>
        <time>2017-04-27T10:21:47Z</time>
      </trkpt>
      <trkpt lat="45.92843" lon="4.73078">
        <ele>171</ele>
        <time>2017-04-27T10:21:48Z</time>
      </trkpt>
      <trkpt lat="45.92841" lon="4.73071">
        <ele>171</ele>
        <time>2017-04-27T10:21:49Z</time>
      </trkpt>
      <trkpt lat="45.9284" lon="4.73063">
        <ele>171</ele>
        <time>2017-04-27T10:21:50Z</time>
      </trkpt>
      <trkpt lat="45.92839" lon="4.73055">
        <ele>171</ele>
        <time>2017-04-27T10:21:51Z</time>
      </trkpt>
      <trkpt lat="45.92837" lon="4.73046">
        <ele>171</ele>
        <time>2017-04-27T10:21:52Z</time>
      </trkpt>
      <trkpt lat="45.92835" lon="4.73038">
        <ele>171</ele>
        <time>2017-04-27T10:21:53Z</time>
      </trkpt>
      <trkpt lat="45.92834" lon="4.73029">
        <ele>171</ele>
        <time>2017-04-27T10:21:54Z</time>
      </trkpt>
      <trkpt lat="45.92832" lon="4.73021">
        <ele>170</ele>
        <time>2017-04-27T10:21:55Z</time>
      </trkpt>
      <trkpt lat="45.9283" lon="4.73012">
        <ele>170</ele>
        <time>2017-04-27T10:21:56Z</time>
      </trkpt>
      <trkpt lat="45.92829" lon="4.73004">
        <ele>170</ele>
        <time>2017-04-27T10:21:57Z</time>
      </trkpt>
      <trkpt lat="45.92828" lon="4.72996">
        <ele>170</ele>
        <time>2017-04-27T10:21:58Z</time>
      </trkpt>
      <trkpt lat="45.92827" lon="4.72988">
        <ele>170</ele>
        <time>2017-04-27T10:21:59Z</time>
      </trkpt>
      <trkpt lat="45.92826" lon="4.7298">
        <ele>170</ele>
        <time>2017-04-27T10:22:00Z</time>
      </trkpt>
      <trkpt lat="45.92826" lon="4.72972">
        <ele>170</ele>
        <time>2017-04-27T10:22:01Z</time>
      </trkpt>
      <trkpt lat="45.92825" lon="4.72965">
        <ele>170</ele>
        <time>2017-04-27T10:22:02Z</time>
      </trkpt>
      <trkpt lat="45.92825" lon="4.72957">
        <ele>170</ele>
        <time>2017-04-27T10:22:03Z</time>
      </trkpt>
      <trkpt lat="45.92824" lon="4.7295">
        <ele>170</ele>
        <time>2017-04-27T10:22:04Z</time>
      </trkpt>
      <trkpt lat="45.92824" lon="4.72942">
        <ele>170</ele>
        <time>2017-04-27T10:22:05Z</time>
      </trkpt>
      <trkpt lat="45.92823" lon="4.72934">
        <ele>170</ele>
        <time>2017-04-27T10:22:06Z</time>
      </trkpt>
      <trkpt lat="45.92822" lon="4.72926">
        <ele>170</ele>
        <time>2017-04-27T10:22:07Z</time>
      </trkpt>
      <trkpt lat="45.92822" lon="4.72918">
        <ele>170</ele>
        <time>2017-04-27T10:22:08Z</time>
      </trkpt>
      <trkpt lat="45.9282" lon="4.72909">
        <ele>170</ele>
        <time>2017-04-27T10:22:09Z</time>
      </trkpt>
      <trkpt lat="45.92819" lon="4.72901">
        <ele>170</ele>
        <time>2017-04-27T10:22:10Z</time>
      </trkpt>
      <trkpt lat="45.92818" lon="4.72893">
        <ele>170</ele>
        <time>2017-04-27T10:22:11Z</time>
      </trkpt>
      <trkpt lat="45.92817" lon="4.72885">
        <ele>170</ele>
        <time>2017-04-27T10:22:12Z</time>
      </trkpt>
      <trkpt lat="45.92815" lon="4.72877">
        <ele>170</ele>
        <time>2017-04-27T10:22:13Z</time>
      </trkpt>
      <trkpt lat="45.92814" lon="4.72869">
        <ele>170</ele>
        <time>2017-04-27T10:22:14Z</time>
      </trkpt>
      <trkpt lat="45.92812" lon="4.72861">
        <ele>170</ele>
        <time>2017-04-27T10:22:15Z</time>
      </trkpt>
      <trkpt lat="45.9281" lon="4.72854">
        <ele>170</ele>
        <time>2017-04-27T10:22:16Z</time>
      </trkpt>
      <trkpt lat="45.92808" lon="4.72846">
        <ele>170</ele>
        <time>2017-04-27T10:22:17Z</time>
      </trkpt>
      <trkpt lat="45.92807" lon="4.72837">
        <ele>170</ele>
        <time>2017-04-27T10:22:18Z</time>
      </trkpt>
      <trkpt lat="45.92805" lon="4.72829">
        <ele>171</ele>
        <time>2017-04-27T10:22:19Z</time>
      </trkpt>
      <trkpt lat="45.92804" lon="4.72821">
        <ele>171</ele>
        <time>2017-04-27T10:22:20Z</time>
      </trkpt>
      <trkpt lat="45.92803" lon="4.72813">
        <ele>171</ele>
        <time>2017-04-27T10:22:21Z</time>
      </trkpt>
      <trkpt lat="45.92801" lon="4.72806">
        <ele>171</ele>
        <time>2017-04-27T10:22:22Z</time>
      </trkpt>
      <trkpt lat="45.92799" lon="4.72794">
        <ele>171</ele>
        <time>2017-04-27T10:22:24Z</time>
      </trkpt>
      <trkpt lat="45.92797" lon="4.7279">
        <ele>171</ele>
        <time>2017-04-27T10:22:25Z</time>
      </trkpt>
      <trkpt lat="45.9279" lon="4.72789">
        <ele>171</ele>
        <time>2017-04-27T10:22:27Z</time>
      </trkpt>
      <trkpt lat="45.92787" lon="4.72792">
        <ele>170</ele>
        <time>2017-04-27T10:22:28Z</time>
      </trkpt>
      <trkpt lat="45.92783" lon="4.72795">
        <ele>170</ele>
        <time>2017-04-27T10:22:29Z</time>
      </trkpt>
      <trkpt lat="45.92778" lon="4.72798">
        <ele>170</ele>
        <time>2017-04-27T10:22:30Z</time>
      </trkpt>
      <trkpt lat="45.92774" lon="4.72801">
        <ele>170</ele>
        <time>2017-04-27T10:22:31Z</time>
      </trkpt>
      <trkpt lat="45.9277" lon="4.72804">
        <ele>170</ele>
        <time>2017-04-27T10:22:32Z</time>
      </trkpt>
      <trkpt lat="45.92765" lon="4.72807">
        <ele>170</ele>
        <time>2017-04-27T10:22:33Z</time>
      </trkpt>
      <trkpt lat="45.9276" lon="4.72811">
        <ele>170</ele>
        <time>2017-04-27T10:22:34Z</time>
      </trkpt>
      <trkpt lat="45.92755" lon="4.72814">
        <ele>170</ele>
        <time>2017-04-27T10:22:35Z</time>
      </trkpt>
      <trkpt lat="45.92751" lon="4.72817">
        <ele>170</ele>
        <time>2017-04-27T10:22:36Z</time>
      </trkpt>
      <trkpt lat="45.92746" lon="4.72821">
        <ele>169</ele>
        <time>2017-04-27T10:22:37Z</time>
      </trkpt>
      <trkpt lat="45.92741" lon="4.72825">
        <ele>169</ele>
        <time>2017-04-27T10:22:38Z</time>
      </trkpt>
      <trkpt lat="45.92737" lon="4.72829">
        <ele>169</ele>
        <time>2017-04-27T10:22:39Z</time>
      </trkpt>
      <trkpt lat="45.92732" lon="4.72832">
        <ele>169</ele>
        <time>2017-04-27T10:22:40Z</time>
      </trkpt>
      <trkpt lat="45.92728" lon="4.72836">
        <ele>169</ele>
        <time>2017-04-27T10:22:41Z</time>
      </trkpt>
      <trkpt lat="45.92724" lon="4.72839">
        <ele>169</ele>
        <time>2017-04-27T10:22:42Z</time>
      </trkpt>
      <trkpt lat="45.9272" lon="4.72842">
        <ele>169</ele>
        <time>2017-04-27T10:22:43Z</time>
      </trkpt>
      <trkpt lat="45.92715" lon="4.72846">
        <ele>169</ele>
        <time>2017-04-27T10:22:44Z</time>
      </trkpt>
      <trkpt lat="45.92711" lon="4.72849">
        <ele>169</ele>
        <time>2017-04-27T10:22:45Z</time>
      </trkpt>
      <trkpt lat="45.92706" lon="4.72853">
        <ele>169</ele>
        <time>2017-04-27T10:22:46Z</time>
      </trkpt>
      <trkpt lat="45.92702" lon="4.72856">
        <ele>169</ele>
        <time>2017-04-27T10:22:47Z</time>
      </trkpt>
      <trkpt lat="45.92697" lon="4.7286">
        <ele>169</ele>
        <time>2017-04-27T10:22:48Z</time>
      </trkpt>
      <trkpt lat="45.92692" lon="4.72864">
        <ele>169</ele>
        <time>2017-04-27T10:22:49Z</time>
      </trkpt>
      <trkpt lat="45.92687" lon="4.72867">
        <ele>169</ele>
        <time>2017-04-27T10:22:50Z</time>
      </trkpt>
      <trkpt lat="45.92683" lon="4.7287">
        <ele>169</ele>
        <time>2017-04-27T10:22:51Z</time>
      </trkpt>
      <trkpt lat="45.92678" lon="4.72874">
        <ele>169</ele>
        <time>2017-04-27T10:22:52Z</time>
      </trkpt>
      <trkpt lat="45.92673" lon="4.72878">
        <ele>170</ele>
        <time>2017-04-27T10:22:53Z</time>
      </trkpt>
      <trkpt lat="45.92668" lon="4.72882">
        <ele>170</ele>
        <time>2017-04-27T10:22:54Z</time>
      </trkpt>
      <trkpt lat="45.92663" lon="4.72886">
        <ele>169</ele>
        <time>2017-04-27T10:22:55Z</time>
      </trkpt>
      <trkpt lat="45.92658" lon="4.72889">
        <ele>169</ele>
        <time>2017-04-27T10:22:56Z</time>
      </trkpt>
      <trkpt lat="45.92653" lon="4.72893">
        <ele>169</ele>
        <time>2017-04-27T10:22:57Z</time>
      </trkpt>
      <trkpt lat="45.92648" lon="4.72897">
        <ele>169</ele>
        <time>2017-04-27T10:22:58Z</time>
      </trkpt>
      <trkpt lat="45.92644" lon="4.72901">
        <ele>169</ele>
        <time>2017-04-27T10:22:59Z</time>
      </trkpt>
      <trkpt lat="45.92639" lon="4.72905">
        <ele>169</ele>
        <time>2017-04-27T10:23:00Z</time>
      </trkpt>
      <trkpt lat="45.92635" lon="4.72908">
        <ele>169</ele>
        <time>2017-04-27T10:23:01Z</time>
      </trkpt>
      <trkpt lat="45.9263" lon="4.72912">
        <ele>169</ele>
        <time>2017-04-27T10:23:02Z</time>
      </trkpt>
      <trkpt lat="45.92625" lon="4.72916">
        <ele>169</ele>
        <time>2017-04-27T10:23:03Z</time>
      </trkpt>
      <trkpt lat="45.9262" lon="4.7292">
        <ele>169</ele>
        <time>2017-04-27T10:23:04Z</time>
      </trkpt>
      <trkpt lat="45.92615" lon="4.72924">
        <ele>169</ele>
        <time>2017-04-27T10:23:05Z</time>
      </trkpt>
      <trkpt lat="45.9261" lon="4.72929">
        <ele>169</ele>
        <time>2017-04-27T10:23:06Z</time>
      </trkpt>
      <trkpt lat="45.92604" lon="4.72935">
        <ele>169</ele>
        <time>2017-04-27T10:23:07Z</time>
      </trkpt>
      <trkpt lat="45.92599" lon="4.72941">
        <ele>169</ele>
        <time>2017-04-27T10:23:08Z</time>
      </trkpt>
      <trkpt lat="45.92594" lon="4.72947">
        <ele>169</ele>
        <time>2017-04-27T10:23:09Z</time>
      </trkpt>
      <trkpt lat="45.92588" lon="4.72954">
        <ele>169</ele>
        <time>2017-04-27T10:23:10Z</time>
      </trkpt>
      <trkpt lat="45.92583" lon="4.7296">
        <ele>169</ele>
        <time>2017-04-27T10:23:11Z</time>
      </trkpt>
      <trkpt lat="45.92578" lon="4.72966">
        <ele>169</ele>
        <time>2017-04-27T10:23:12Z</time>
      </trkpt>
      <trkpt lat="45.92573" lon="4.72972">
        <ele>169</ele>
        <time>2017-04-27T10:23:13Z</time>
      </trkpt>
      <trkpt lat="45.92567" lon="4.72978">
        <ele>169</ele>
        <time>2017-04-27T10:23:14Z</time>
      </trkpt>
      <trkpt lat="45.92562" lon="4.72983">
        <ele>169</ele>
        <time>2017-04-27T10:23:15Z</time>
      </trkpt>
      <trkpt lat="45.92557" lon="4.72988">
        <ele>169</ele>
        <time>2017-04-27T10:23:16Z</time>
      </trkpt>
      <trkpt lat="45.92553" lon="4.72994">
        <ele>169</ele>
        <time>2017-04-27T10:23:17Z</time>
      </trkpt>
      <trkpt lat="45.92548" lon="4.72998">
        <ele>169</ele>
        <time>2017-04-27T10:23:18Z</time>
      </trkpt>
      <trkpt lat="45.92543" lon="4.73003">
        <ele>169</ele>
        <time>2017-04-27T10:23:19Z</time>
      </trkpt>
      <trkpt lat="45.92538" lon="4.73007">
        <ele>169</ele>
        <time>2017-04-27T10:23:20Z</time>
      </trkpt>
      <trkpt lat="45.92533" lon="4.73012">
        <ele>169</ele>
        <time>2017-04-27T10:23:21Z</time>
      </trkpt>
      <trkpt lat="45.92529" lon="4.73016">
        <ele>169</ele>
        <time>2017-04-27T10:23:22Z</time>
      </trkpt>
      <trkpt lat="45.92524" lon="4.7302">
        <ele>169</ele>
        <time>2017-04-27T10:23:23Z</time>
      </trkpt>
      <trkpt lat="45.92519" lon="4.73024">
        <ele>169</ele>
        <time>2017-04-27T10:23:24Z</time>
      </trkpt>
      <trkpt lat="45.92515" lon="4.73029">
        <ele>169</ele>
        <time>2017-04-27T10:23:25Z</time>
      </trkpt>
      <trkpt lat="45.9251" lon="4.73033">
        <ele>169</ele>
        <time>2017-04-27T10:23:26Z</time>
      </trkpt>
      <trkpt lat="45.92505" lon="4.73038">
        <ele>169</ele>
        <time>2017-04-27T10:23:27Z</time>
      </trkpt>
      <trkpt lat="45.925" lon="4.73043">
        <ele>170</ele>
        <time>2017-04-27T10:23:28Z</time>
      </trkpt>
      <trkpt lat="45.92494" lon="4.73047">
        <ele>170</ele>
        <time>2017-04-27T10:23:29Z</time>
      </trkpt>
      <trkpt lat="45.92489" lon="4.73052">
        <ele>170</ele>
        <time>2017-04-27T10:23:30Z</time>
      </trkpt>
      <trkpt lat="45.92484" lon="4.73057">
        <ele>170</ele>
        <time>2017-04-27T10:23:31Z</time>
      </trkpt>
      <trkpt lat="45.92478" lon="4.73062">
        <ele>170</ele>
        <time>2017-04-27T10:23:32Z</time>
      </trkpt>
      <trkpt lat="45.92473" lon="4.73066">
        <ele>170</ele>
        <time>2017-04-27T10:23:33Z</time>
      </trkpt>
      <trkpt lat="45.92468" lon="4.73071">
        <ele>170</ele>
        <time>2017-04-27T10:23:34Z</time>
      </trkpt>
      <trkpt lat="45.92463" lon="4.73075">
        <ele>170</ele>
        <time>2017-04-27T10:23:35Z</time>
      </trkpt>
      <trkpt lat="45.92458" lon="4.73079">
        <ele>170</ele>
        <time>2017-04-27T10:23:36Z</time>
      </trkpt>
      <trkpt lat="45.92453" lon="4.73083">
        <ele>170</ele>
        <time>2017-04-27T10:23:37Z</time>
      </trkpt>
      <trkpt lat="45.92449" lon="4.73087">
        <ele>170</ele>
        <time>2017-04-27T10:23:38Z</time>
      </trkpt>
      <trkpt lat="45.92444" lon="4.7309">
        <ele>170</ele>
        <time>2017-04-27T10:23:39Z</time>
      </trkpt>
      <trkpt lat="45.9244" lon="4.73094">
        <ele>170</ele>
        <time>2017-04-27T10:23:40Z</time>
      </trkpt>
      <trkpt lat="45.92435" lon="4.73098">
        <ele>171</ele>
        <time>2017-04-27T10:23:41Z</time>
      </trkpt>
      <trkpt lat="45.92431" lon="4.73103">
        <ele>171</ele>
        <time>2017-04-27T10:23:42Z</time>
      </trkpt>
      <trkpt lat="45.92427" lon="4.73106">
        <ele>170</ele>
        <time>2017-04-27T10:23:43Z</time>
      </trkpt>
      <trkpt lat="45.92423" lon="4.7311">
        <ele>170</ele>
        <time>2017-04-27T10:23:44Z</time>
      </trkpt>
      <trkpt lat="45.92419" lon="4.73113">
        <ele>170</ele>
        <time>2017-04-27T10:23:45Z</time>
      </trkpt>
      <trkpt lat="45.92415" lon="4.73116">
        <ele>171</ele>
        <time>2017-04-27T10:23:46Z</time>
      </trkpt>
      <trkpt lat="45.92409" lon="4.73124">
        <ele>171</ele>
        <time>2017-04-27T10:23:48Z</time>
      </trkpt>
      <trkpt lat="45.92407" lon="4.7313">
        <ele>171</ele>
        <time>2017-04-27T10:23:49Z</time>
      </trkpt>
      <trkpt lat="45.92405" lon="4.73136">
        <ele>171</ele>
        <time>2017-04-27T10:23:50Z</time>
      </trkpt>
      <trkpt lat="45.92405" lon="4.73143">
        <ele>171</ele>
        <time>2017-04-27T10:23:51Z</time>
      </trkpt>
      <trkpt lat="45.92405" lon="4.7315">
        <ele>171</ele>
        <time>2017-04-27T10:23:52Z</time>
      </trkpt>
      <trkpt lat="45.92404" lon="4.73157">
        <ele>171</ele>
        <time>2017-04-27T10:23:53Z</time>
      </trkpt>
      <trkpt lat="45.92404" lon="4.73164">
        <ele>170</ele>
        <time>2017-04-27T10:23:54Z</time>
      </trkpt>
      <trkpt lat="45.92404" lon="4.73172">
        <ele>171</ele>
        <time>2017-04-27T10:23:55Z</time>
      </trkpt>
      <trkpt lat="45.92404" lon="4.73179">
        <ele>171</ele>
        <time>2017-04-27T10:23:56Z</time>
      </trkpt>
      <trkpt lat="45.92404" lon="4.73186">
        <ele>171</ele>
        <time>2017-04-27T10:23:57Z</time>
      </trkpt>
      <trkpt lat="45.92404" lon="4.73194">
        <ele>171</ele>
        <time>2017-04-27T10:23:58Z</time>
      </trkpt>
      <trkpt lat="45.92405" lon="4.73202">
        <ele>171</ele>
        <time>2017-04-27T10:23:59Z</time>
      </trkpt>
      <trkpt lat="45.92405" lon="4.7321">
        <ele>171</ele>
        <time>2017-04-27T10:24:00Z</time>
      </trkpt>
      <trkpt lat="45.92406" lon="4.73218">
        <ele>171</ele>
        <time>2017-04-27T10:24:01Z</time>
      </trkpt>
      <trkpt lat="45.92406" lon="4.73226">
        <ele>171</ele>
        <time>2017-04-27T10:24:02Z</time>
      </trkpt>
      <trkpt lat="45.92406" lon="4.73234">
        <ele>171</ele>
        <time>2017-04-27T10:24:03Z</time>
      </trkpt>
      <trkpt lat="45.92407" lon="4.73241">
        <ele>171</ele>
        <time>2017-04-27T10:24:04Z</time>
      </trkpt>
      <trkpt lat="45.92407" lon="4.73249">
        <ele>171</ele>
        <time>2017-04-27T10:24:05Z</time>
      </trkpt>
      <trkpt lat="45.92408" lon="4.73256">
        <ele>171</ele>
        <time>2017-04-27T10:24:06Z</time>
      </trkpt>
      <trkpt lat="45.92408" lon="4.73264">
        <ele>171</ele>
        <time>2017-04-27T10:24:07Z</time>
      </trkpt>
      <trkpt lat="45.92409" lon="4.73271">
        <ele>171</ele>
        <time>2017-04-27T10:24:08Z</time>
      </trkpt>
      <trkpt lat="45.92409" lon="4.73278">
        <ele>171</ele>
        <time>2017-04-27T10:24:09Z</time>
      </trkpt>
      <trkpt lat="45.9241" lon="4.73285">
        <ele>171</ele>
        <time>2017-04-27T10:24:10Z</time>
      </trkpt>
      <trkpt lat="45.9241" lon="4.73292">
        <ele>171</ele>
        <time>2017-04-27T10:24:11Z</time>
      </trkpt>
      <trkpt lat="45.92411" lon="4.73299">
        <ele>171</ele>
        <time>2017-04-27T10:24:12Z</time>
      </trkpt>
      <trkpt lat="45.92411" lon="4.73306">
        <ele>171</ele>
        <time>2017-04-27T10:24:13Z</time>
      </trkpt>
      <trkpt lat="45.92411" lon="4.73312">
        <ele>171</ele>
        <time>2017-04-27T10:24:14Z</time>
      </trkpt>
      <trkpt lat="45.92412" lon="4.73319">
        <ele>171</ele>
        <time>2017-04-27T10:24:15Z</time>
      </trkpt>
      <trkpt lat="45.92413" lon="4.73325">
        <ele>171</ele>
        <time>2017-04-27T10:24:16Z</time>
      </trkpt>
      <trkpt lat="45.92413" lon="4.73332">
        <ele>171</ele>
        <time>2017-04-27T10:24:17Z</time>
      </trkpt>
      <trkpt lat="45.92414" lon="4.73338">
        <ele>171</ele>
        <time>2017-04-27T10:24:18Z</time>
      </trkpt>
      <trkpt lat="45.92414" lon="4.73344">
        <ele>171</ele>
        <time>2017-04-27T10:24:19Z</time>
      </trkpt>
      <trkpt lat="45.92415" lon="4.73351">
        <ele>171</ele>
        <time>2017-04-27T10:24:20Z</time>
      </trkpt>
      <trkpt lat="45.92417" lon="4.73357">
        <ele>171</ele>
        <time>2017-04-27T10:24:21Z</time>
      </trkpt>
      <trkpt lat="45.92418" lon="4.73364">
        <ele>172</ele>
        <time>2017-04-27T10:24:22Z</time>
      </trkpt>
      <trkpt lat="45.92418" lon="4.7337">
        <ele>172</ele>
        <time>2017-04-27T10:24:23Z</time>
      </trkpt>
      <trkpt lat="45.9242" lon="4.73383">
        <ele>172</ele>
        <time>2017-04-27T10:24:25Z</time>
      </trkpt>
      <trkpt lat="45.92421" lon="4.73389">
        <ele>172</ele>
        <time>2017-04-27T10:24:26Z</time>
      </trkpt>
      <trkpt lat="45.92424" lon="4.734">
        <ele>172</ele>
        <time>2017-04-27T10:24:28Z</time>
      </trkpt>
      <trkpt lat="45.92425" lon="4.73406">
        <ele>172</ele>
        <time>2017-04-27T10:24:29Z</time>
      </trkpt>
      <trkpt lat="45.9243" lon="4.73415">
        <ele>172</ele>
        <time>2017-04-27T10:24:31Z</time>
      </trkpt>
      <trkpt lat="45.92434" lon="4.73419">
        <ele>172</ele>
        <time>2017-04-27T10:24:32Z</time>
      </trkpt>
      <trkpt lat="45.92441" lon="4.73424">
        <ele>173</ele>
        <time>2017-04-27T10:24:34Z</time>
      </trkpt>
      <trkpt lat="45.92445" lon="4.73427">
        <ele>173</ele>
        <time>2017-04-27T10:24:35Z</time>
      </trkpt>
      <trkpt lat="45.92452" lon="4.73433">
        <ele>173</ele>
        <time>2017-04-27T10:24:37Z</time>
      </trkpt>
      <trkpt lat="45.92455" lon="4.73437">
        <ele>173</ele>
        <time>2017-04-27T10:24:38Z</time>
      </trkpt>
      <trkpt lat="45.92458" lon="4.73442">
        <ele>173</ele>
        <time>2017-04-27T10:24:39Z</time>
      </trkpt>
      <trkpt lat="45.9246" lon="4.73448">
        <ele>173</ele>
        <time>2017-04-27T10:24:40Z</time>
      </trkpt>
      <trkpt lat="45.92461" lon="4.73454">
        <ele>173</ele>
        <time>2017-04-27T10:24:41Z</time>
      </trkpt>
      <trkpt lat="45.92462" lon="4.73461">
        <ele>173</ele>
        <time>2017-04-27T10:24:42Z</time>
      </trkpt>
      <trkpt lat="45.92463" lon="4.73468">
        <ele>173</ele>
        <time>2017-04-27T10:24:43Z</time>
      </trkpt>
      <trkpt lat="45.92463" lon="4.73475">
        <ele>173</ele>
        <time>2017-04-27T10:24:44Z</time>
      </trkpt>
      <trkpt lat="45.92462" lon="4.73482">
        <ele>173</ele>
        <time>2017-04-27T10:24:45Z</time>
      </trkpt>
      <trkpt lat="45.92463" lon="4.73489">
        <ele>173</ele>
        <time>2017-04-27T10:24:46Z</time>
      </trkpt>
      <trkpt lat="45.92463" lon="4.73497">
        <ele>173</ele>
        <time>2017-04-27T10:24:47Z</time>
      </trkpt>
      <trkpt lat="45.92463" lon="4.73504">
        <ele>174</ele>
        <time>2017-04-27T10:24:48Z</time>
      </trkpt>
      <trkpt lat="45.92463" lon="4.73511">
        <ele>174</ele>
        <time>2017-04-27T10:24:49Z</time>
      </trkpt>
      <trkpt lat="45.92465" lon="4.73517">
        <ele>174</ele>
        <time>2017-04-27T10:24:50Z</time>
      </trkpt>
      <trkpt lat="45.92465" lon="4.73529">
        <ele>174</ele>
        <time>2017-04-27T10:24:52Z</time>
      </trkpt>
      <trkpt lat="45.92465" lon="4.73534">
        <ele>174</ele>
        <time>2017-04-27T10:24:53Z</time>
      </trkpt>
      <trkpt lat="45.92465" lon="4.73543">
        <ele>173</ele>
        <time>2017-04-27T10:24:55Z</time>
      </trkpt>
      <trkpt lat="45.92465" lon="4.73548">
        <ele>173</ele>
        <time>2017-04-27T10:24:56Z</time>
      </trkpt>
      <trkpt lat="45.92465" lon="4.7356">
        <ele>173</ele>
        <time>2017-04-27T10:24:58Z</time>
      </trkpt>
      <trkpt lat="45.92465" lon="4.73566">
        <ele>173</ele>
        <time>2017-04-27T10:24:59Z</time>
      </trkpt>
      <trkpt lat="45.92465" lon="4.73573">
        <ele>173</ele>
        <time>2017-04-27T10:25:00Z</time>
      </trkpt>
      <trkpt lat="45.92465" lon="4.7358">
        <ele>173</ele>
        <time>2017-04-27T10:25:01Z</time>
      </trkpt>
      <trkpt lat="45.92465" lon="4.73588">
        <ele>174</ele>
        <time>2017-04-27T10:25:02Z</time>
      </trkpt>
      <trkpt lat="45.92465" lon="4.73595">
        <ele>174</ele>
        <time>2017-04-27T10:25:03Z</time>
      </trkpt>
      <trkpt lat="45.92465" lon="4.73602">
        <ele>174</ele>
        <time>2017-04-27T10:25:04Z</time>
      </trkpt>
      <trkpt lat="45.92465" lon="4.73609">
        <ele>174</ele>
        <time>2017-04-27T10:25:05Z</time>
      </trkpt>
      <trkpt lat="45.92466" lon="4.73617">
        <ele>174</ele>
        <time>2017-04-27T10:25:06Z</time>
      </trkpt>
      <trkpt lat="45.92466" lon="4.73624">
        <ele>174</ele>
        <time>2017-04-27T10:25:07Z</time>
      </trkpt>
      <trkpt lat="45.92467" lon="4.73631">
        <ele>174</ele>
        <time>2017-04-27T10:25:08Z</time>
      </trkpt>
      <trkpt lat="45.92467" lon="4.73637">
        <ele>174</ele>
        <time>2017-04-27T10:25:09Z</time>
      </trkpt>
      <trkpt lat="45.92466" lon="4.7365">
        <ele>174</ele>
        <time>2017-04-27T10:25:11Z</time>
      </trkpt>
      <trkpt lat="45.92466" lon="4.73656">
        <ele>174</ele>
        <time>2017-04-27T10:25:12Z</time>
      </trkpt>
      <trkpt lat="45.92465" lon="4.73667">
        <ele>174</ele>
        <time>2017-04-27T10:25:14Z</time>
      </trkpt>
      <trkpt lat="45.92464" lon="4.73672">
        <ele>174</ele>
        <time>2017-04-27T10:25:15Z</time>
      </trkpt>
      <trkpt lat="45.92463" lon="4.73682">
        <ele>174</ele>
        <time>2017-04-27T10:25:17Z</time>
      </trkpt>
      <trkpt lat="45.92463" lon="4.73688">
        <ele>174</ele>
        <time>2017-04-27T10:25:18Z</time>
      </trkpt>
      <trkpt lat="45.92462" lon="4.73698">
        <ele>174</ele>
        <time>2017-04-27T10:25:20Z</time>
      </trkpt>
      <trkpt lat="45.92461" lon="4.73702">
        <ele>174</ele>
        <time>2017-04-27T10:25:21Z</time>
      </trkpt>
      <trkpt lat="45.9246" lon="4.73708">
        <ele>174</ele>
        <time>2017-04-27T10:25:23Z</time>
      </trkpt>
      <trkpt lat="45.9246" lon="4.7371">
        <ele>174</ele>
        <time>2017-04-27T10:25:24Z</time>
      </trkpt>
      <trkpt lat="45.9246" lon="4.73711">
        <ele>174</ele>
        <time>2017-04-27T10:25:33Z</time>
      </trkpt>
      <trkpt lat="45.9246" lon="4.73711">
        <ele>174</ele>
        <time>2017-04-27T10:25:34Z</time>
      </trkpt>
      <trkpt lat="45.92459" lon="4.73712">
        <ele>174</ele>
        <time>2017-04-27T10:26:03.539Z</time>
      </trkpt>
    </trkseg>
  </trk>
</gpx>